<?xml version="1.0" encoding="UTF-8"?>
<gpx version="1.1" creator="https://www.youtrack.es" xsi:schemaLocation="http://www.topografix.com/GPX/1/1 http://www.topografix.com/GPX/1/1/gpx.xsd http://www.garmin.com/xmlschemas/GpxExtensions/v3 http://www.garmin.com/xmlschemas/GpxExtensionsv3.xsd http://www.garmin.com/xmlschemas/TrackPointExtension/v1 http://www.garmin.com/xmlschemas/TrackPointExtensionv1.xsd" xmlns:gpxtpx="http://www.garmin.com/xmlschemas/TrackPointExtension/v1" xmlns:gpxx="http://www.garmin.com/xmlschemas/GpxExtensions/v3" xmlns:xsi="http://www.w3.org/2001/XMLSchema-instance">
  <metadata>
    <link href="https://www.youtrack.es">
      <text>YouTrack.es</text>
    </link>
    <time>2026-05-08T06:25:47Z</time>
  </metadata>
  <trk>
    <src>https://www.youtrack.es</src>
    <link href="https://www.youtrack.es/ruta/32103-vallgorguina">
      <text>YouTrack.es</text>
    </link>
    <trkseg>
      <trkpt lat="41.4394635893404483795166015625" lon="2.188163213431835174560546875">
        <ele>34.200000762939453125</ele>
        <time>2022-05-15T04:47:59.000Z</time>
      </trkpt>
      <trkpt lat="41.43946534954011440277099609375" lon="2.1881606988608837127685546875">
        <ele>45.59999847412109375</ele>
        <time>2022-05-15T04:48:00.000Z</time>
      </trkpt>
      <trkpt lat="41.43948353826999664306640625" lon="2.188155837357044219970703125">
        <ele>45.799999237060546875</ele>
        <time>2022-05-15T04:48:02.000Z</time>
      </trkpt>
      <trkpt lat="41.4395276270806789398193359375" lon="2.188167907297611236572265625">
        <ele>45.799999237060546875</ele>
        <time>2022-05-15T04:48:04.000Z</time>
      </trkpt>
      <trkpt lat="41.4396245218813419342041015625" lon="2.18839463777840137481689453125">
        <ele>45.200000762939453125</ele>
        <time>2022-05-15T04:48:09.000Z</time>
      </trkpt>
      <trkpt lat="41.43963969312608242034912109375" lon="2.18843604438006877899169921875">
        <ele>45</ele>
        <time>2022-05-15T04:48:10.000Z</time>
      </trkpt>
      <trkpt lat="41.43968931399285793304443359375" lon="2.1885982342064380645751953125">
        <ele>44.799999237060546875</ele>
        <time>2022-05-15T04:48:15.000Z</time>
      </trkpt>
      <trkpt lat="41.43977363593876361846923828125" lon="2.188841812312602996826171875">
        <ele>45</ele>
        <time>2022-05-15T04:48:21.000Z</time>
      </trkpt>
      <trkpt lat="41.4397827722132205963134765625" lon="2.18897919170558452606201171875">
        <ele>44.799999237060546875</ele>
        <time>2022-05-15T04:48:24.000Z</time>
      </trkpt>
      <trkpt lat="41.4397750608623027801513671875" lon="2.18913693912327289581298828125">
        <ele>44.59999847412109375</ele>
        <time>2022-05-15T04:48:27.000Z</time>
      </trkpt>
      <trkpt lat="41.4397723786532878875732421875" lon="2.18919762410223484039306640625">
        <ele>44.59999847412109375</ele>
        <time>2022-05-15T04:48:28.000Z</time>
      </trkpt>
      <trkpt lat="41.4397743903100490570068359375" lon="2.189370207488536834716796875">
        <ele>44.40000152587890625</ele>
        <time>2022-05-15T04:48:32.000Z</time>
      </trkpt>
      <trkpt lat="41.43978168256580829620361328125" lon="2.18944774009287357330322265625">
        <ele>44.40000152587890625</ele>
        <time>2022-05-15T04:48:33.000Z</time>
      </trkpt>
      <trkpt lat="41.43979123793542385101318359375" lon="2.1895249374210834503173828125">
        <ele>44.200000762939453125</ele>
        <time>2022-05-15T04:48:34.000Z</time>
      </trkpt>
      <trkpt lat="41.43980003893375396728515625" lon="2.1896845288574695587158203125">
        <ele>43.799999237060546875</ele>
        <time>2022-05-15T04:48:36.000Z</time>
      </trkpt>
      <trkpt lat="41.439786292612552642822265625" lon="2.18989969231188297271728515625">
        <ele>43.59999847412109375</ele>
        <time>2022-05-15T04:48:38.000Z</time>
      </trkpt>
      <trkpt lat="41.439782269299030303955078125" lon="2.19005291350185871124267578125">
        <ele>43.200000762939453125</ele>
        <time>2022-05-15T04:48:40.000Z</time>
      </trkpt>
      <trkpt lat="41.43977430649101734161376953125" lon="2.1903307735919952392578125">
        <ele>42.40000152587890625</ele>
        <time>2022-05-15T04:48:44.000Z</time>
      </trkpt>
      <trkpt lat="41.439772211015224456787109375" lon="2.1903936378657817840576171875">
        <ele>41.799999237060546875</ele>
        <time>2022-05-15T04:48:47.000Z</time>
      </trkpt>
      <trkpt lat="41.43977832980453968048095703125" lon="2.19037293456494808197021484375">
        <ele>41.59999847412109375</ele>
        <time>2022-05-15T04:48:48.000Z</time>
      </trkpt>
      <trkpt lat="41.43977849744260311126708984375" lon="2.190360613167285919189453125">
        <ele>41.40000152587890625</ele>
        <time>2022-05-15T04:48:49.000Z</time>
      </trkpt>
      <trkpt lat="41.43978436477482318878173828125" lon="2.19035617075860500335693359375">
        <ele>41.40000152587890625</ele>
        <time>2022-05-15T04:48:50.000Z</time>
      </trkpt>
      <trkpt lat="41.4397797547280788421630859375" lon="2.19036187045276165008544921875">
        <ele>41.200000762939453125</ele>
        <time>2022-05-15T04:48:51.000Z</time>
      </trkpt>
      <trkpt lat="41.4397797547280788421630859375" lon="2.19037947244942188262939453125">
        <ele>41.200000762939453125</ele>
        <time>2022-05-15T04:48:52.000Z</time>
      </trkpt>
      <trkpt lat="41.439782269299030303955078125" lon="2.19038617797195911407470703125">
        <ele>41.200000762939453125</ele>
        <time>2022-05-15T04:48:53.000Z</time>
      </trkpt>
      <trkpt lat="41.439818479120731353759765625" lon="2.19036622904241085052490234375">
        <ele>41.200000762939453125</ele>
        <time>2022-05-15T04:48:55.000Z</time>
      </trkpt>
      <trkpt lat="41.439942531287670135498046875" lon="2.19032465480268001556396484375">
        <ele>41</ele>
        <time>2022-05-15T04:48:59.000Z</time>
      </trkpt>
      <trkpt lat="41.44001771695911884307861328125" lon="2.190332449972629547119140625">
        <ele>41.200000762939453125</ele>
        <time>2022-05-15T04:49:01.000Z</time>
      </trkpt>
      <trkpt lat="41.44005208276212215423583984375" lon="2.1903359703719615936279296875">
        <ele>41.200000762939453125</ele>
        <time>2022-05-15T04:49:02.000Z</time>
      </trkpt>
      <trkpt lat="41.44008628092706203460693359375" lon="2.19034644775092601776123046875">
        <ele>41</ele>
        <time>2022-05-15T04:49:03.000Z</time>
      </trkpt>
      <trkpt lat="41.44011695869266986846923828125" lon="2.19035700894892215728759765625">
        <ele>41.200000762939453125</ele>
        <time>2022-05-15T04:49:04.000Z</time>
      </trkpt>
      <trkpt lat="41.4401824213564395904541015625" lon="2.19038634561002254486083984375">
        <ele>41.40000152587890625</ele>
        <time>2022-05-15T04:49:07.000Z</time>
      </trkpt>
      <trkpt lat="41.44027889706194400787353515625" lon="2.1904211305081844329833984375">
        <ele>41.40000152587890625</ele>
        <time>2022-05-15T04:49:09.000Z</time>
      </trkpt>
      <trkpt lat="41.44035584293305873870849609375" lon="2.19044820405542850494384765625">
        <ele>41.40000152587890625</ele>
        <time>2022-05-15T04:49:11.000Z</time>
      </trkpt>
      <trkpt lat="41.44050537608563899993896484375" lon="2.19049380160868167877197265625">
        <ele>41.200000762939453125</ele>
        <time>2022-05-15T04:49:15.000Z</time>
      </trkpt>
      <trkpt lat="41.44071693532168865203857421875" lon="2.1905032731592655181884765625">
        <ele>41.200000762939453125</ele>
        <time>2022-05-15T04:49:20.000Z</time>
      </trkpt>
      <trkpt lat="41.44076119177043437957763671875" lon="2.190514504909515380859375">
        <ele>41.40000152587890625</ele>
        <time>2022-05-15T04:49:21.000Z</time>
      </trkpt>
      <trkpt lat="41.44080963917076587677001953125" lon="2.1905213780701160430908203125">
        <ele>41.200000762939453125</ele>
        <time>2022-05-15T04:49:22.000Z</time>
      </trkpt>
      <trkpt lat="41.440855823457241058349609375" lon="2.19052917324006557464599609375">
        <ele>41.200000762939453125</ele>
        <time>2022-05-15T04:49:23.000Z</time>
      </trkpt>
      <trkpt lat="41.44122990779578685760498046875" lon="2.190575189888477325439453125">
        <ele>41.59999847412109375</ele>
        <time>2022-05-15T04:49:31.000Z</time>
      </trkpt>
      <trkpt lat="41.4413203485310077667236328125" lon="2.19058759510517120361328125">
        <ele>41.40000152587890625</ele>
        <time>2022-05-15T04:49:33.000Z</time>
      </trkpt>
      <trkpt lat="41.44136351533234119415283203125" lon="2.1906062029302120208740234375">
        <ele>41.59999847412109375</ele>
        <time>2022-05-15T04:49:34.000Z</time>
      </trkpt>
      <trkpt lat="41.44144699908792972564697265625" lon="2.19062590040266513824462890625">
        <ele>41.59999847412109375</ele>
        <time>2022-05-15T04:49:36.000Z</time>
      </trkpt>
      <trkpt lat="41.44153350032866001129150390625" lon="2.190630845725536346435546875">
        <ele>41.799999237060546875</ele>
        <time>2022-05-15T04:49:38.000Z</time>
      </trkpt>
      <trkpt lat="41.4415721409022808074951171875" lon="2.19063562341034412384033203125">
        <ele>41.799999237060546875</ele>
        <time>2022-05-15T04:49:39.000Z</time>
      </trkpt>
      <trkpt lat="41.44177188165485858917236328125" lon="2.19064953736960887908935546875">
        <ele>41.59999847412109375</ele>
        <time>2022-05-15T04:49:44.000Z</time>
      </trkpt>
      <trkpt lat="41.44180507399141788482666015625" lon="2.19064987264573574066162109375">
        <ele>41.59999847412109375</ele>
        <time>2022-05-15T04:49:45.000Z</time>
      </trkpt>
      <trkpt lat="41.44182954914867877960205078125" lon="2.1906459331512451171875">
        <ele>41.59999847412109375</ele>
        <time>2022-05-15T04:49:46.000Z</time>
      </trkpt>
      <trkpt lat="41.44184589385986328125" lon="2.19064383767545223236083984375">
        <ele>41.799999237060546875</ele>
        <time>2022-05-15T04:49:47.000Z</time>
      </trkpt>
      <trkpt lat="41.4418566226959228515625" lon="2.19064786098897457122802734375">
        <ele>41.59999847412109375</ele>
        <time>2022-05-15T04:49:48.000Z</time>
      </trkpt>
      <trkpt lat="41.441873051226139068603515625" lon="2.1906631998717784881591796875">
        <ele>42</ele>
        <time>2022-05-15T04:49:49.000Z</time>
      </trkpt>
      <trkpt lat="41.44198511727154254913330078125" lon="2.19074559397995471954345703125">
        <ele>42</ele>
        <time>2022-05-15T04:49:55.000Z</time>
      </trkpt>
      <trkpt lat="41.44213096238672733306884765625" lon="2.1907574124634265899658203125">
        <ele>42.200000762939453125</ele>
        <time>2022-05-15T04:49:59.000Z</time>
      </trkpt>
      <trkpt lat="41.44220857881009578704833984375" lon="2.19077308662235736846923828125">
        <ele>42</ele>
        <time>2022-05-15T04:50:01.000Z</time>
      </trkpt>
      <trkpt lat="41.44228720106184482574462890625" lon="2.190785743296146392822265625">
        <ele>42.200000762939453125</ele>
        <time>2022-05-15T04:50:03.000Z</time>
      </trkpt>
      <trkpt lat="41.44232324324548244476318359375" lon="2.190788090229034423828125">
        <ele>42.200000762939453125</ele>
        <time>2022-05-15T04:50:04.000Z</time>
      </trkpt>
      <trkpt lat="41.44235995598137378692626953125" lon="2.190791778266429901123046875">
        <ele>42.200000762939453125</ele>
        <time>2022-05-15T04:50:05.000Z</time>
      </trkpt>
      <trkpt lat="41.4423925615847110748291015625" lon="2.19079487957060337066650390625">
        <ele>42</ele>
        <time>2022-05-15T04:50:07.000Z</time>
      </trkpt>
      <trkpt lat="41.4424301125109195709228515625" lon="2.1907942928373813629150390625">
        <ele>42</ele>
        <time>2022-05-15T04:50:08.000Z</time>
      </trkpt>
      <trkpt lat="41.44255894236266613006591796875" lon="2.190788090229034423828125">
        <ele>42</ele>
        <time>2022-05-15T04:50:11.000Z</time>
      </trkpt>
      <trkpt lat="41.44264854490756988525390625" lon="2.19079035334289073944091796875">
        <ele>42</ele>
        <time>2022-05-15T04:50:13.000Z</time>
      </trkpt>
      <trkpt lat="41.4429410733282566070556640625" lon="2.1908261440694332122802734375">
        <ele>42</ele>
        <time>2022-05-15T04:50:19.000Z</time>
      </trkpt>
      <trkpt lat="41.4430352859199047088623046875" lon="2.1908422373235225677490234375">
        <ele>42.200000762939453125</ele>
        <time>2022-05-15T04:50:21.000Z</time>
      </trkpt>
      <trkpt lat="41.4431187696754932403564453125" lon="2.1908449195325374603271484375">
        <ele>42.40000152587890625</ele>
        <time>2022-05-15T04:50:23.000Z</time>
      </trkpt>
      <trkpt lat="41.44322362728416919708251953125" lon="2.190823964774608612060546875">
        <ele>42.40000152587890625</ele>
        <time>2022-05-15T04:50:26.000Z</time>
      </trkpt>
      <trkpt lat="41.44325832836329936981201171875" lon="2.1908160857856273651123046875">
        <ele>42.40000152587890625</ele>
        <time>2022-05-15T04:50:27.000Z</time>
      </trkpt>
      <trkpt lat="41.44343183375895023345947265625" lon="2.19077275134623050689697265625">
        <ele>42.799999237060546875</ele>
        <time>2022-05-15T04:50:32.000Z</time>
      </trkpt>
      <trkpt lat="41.44347173161804676055908203125" lon="2.1907604299485683441162109375">
        <ele>43</ele>
        <time>2022-05-15T04:50:33.000Z</time>
      </trkpt>
      <trkpt lat="41.44374422729015350341796875" lon="2.190734781324863433837890625">
        <ele>43.40000152587890625</ele>
        <time>2022-05-15T04:50:40.000Z</time>
      </trkpt>
      <trkpt lat="41.4437829516828060150146484375" lon="2.190730758011341094970703125">
        <ele>43.40000152587890625</ele>
        <time>2022-05-15T04:50:41.000Z</time>
      </trkpt>
      <trkpt lat="41.4439046569168567657470703125" lon="2.19071005471050739288330078125">
        <ele>43.799999237060546875</ele>
        <time>2022-05-15T04:50:44.000Z</time>
      </trkpt>
      <trkpt lat="41.44394564442336559295654296875" lon="2.19070670194923877716064453125">
        <ele>43.59999847412109375</ele>
        <time>2022-05-15T04:50:45.000Z</time>
      </trkpt>
      <trkpt lat="41.44398403353989124298095703125" lon="2.19070636667311191558837890625">
        <ele>43.59999847412109375</ele>
        <time>2022-05-15T04:50:46.000Z</time>
      </trkpt>
      <trkpt lat="41.4440216682851314544677734375" lon="2.19071097671985626220703125">
        <ele>43.40000152587890625</ele>
        <time>2022-05-15T04:50:47.000Z</time>
      </trkpt>
      <trkpt lat="41.44415318034589290618896484375" lon="2.19070737250149250030517578125">
        <ele>43.59999847412109375</ele>
        <time>2022-05-15T04:50:50.000Z</time>
      </trkpt>
      <trkpt lat="41.44424202851951122283935546875" lon="2.19070016406476497650146484375">
        <ele>43.799999237060546875</ele>
        <time>2022-05-15T04:50:52.000Z</time>
      </trkpt>
      <trkpt lat="41.44440405070781707763671875" lon="2.19071541912853717803955078125">
        <ele>44</ele>
        <time>2022-05-15T04:50:56.000Z</time>
      </trkpt>
      <trkpt lat="41.44444235600531101226806640625" lon="2.19071458093822002410888671875">
        <ele>44</ele>
        <time>2022-05-15T04:50:57.000Z</time>
      </trkpt>
      <trkpt lat="41.44452868960797786712646484375" lon="2.190713323652744293212890625">
        <ele>44.200000762939453125</ele>
        <time>2022-05-15T04:50:59.000Z</time>
      </trkpt>
      <trkpt lat="41.44457328133285045623779296875" lon="2.1907151676714420318603515625">
        <ele>44.200000762939453125</ele>
        <time>2022-05-15T04:51:00.000Z</time>
      </trkpt>
      <trkpt lat="41.44474209286272525787353515625" lon="2.1907101385295391082763671875">
        <ele>44.200000762939453125</ele>
        <time>2022-05-15T04:51:03.000Z</time>
      </trkpt>
      <trkpt lat="41.4447881095111370086669921875" lon="2.19070754013955593109130859375">
        <ele>44.200000762939453125</ele>
        <time>2022-05-15T04:51:04.000Z</time>
      </trkpt>
      <trkpt lat="41.44487402401864528656005859375" lon="2.19070569612085819244384765625">
        <ele>44.200000762939453125</ele>
        <time>2022-05-15T04:51:06.000Z</time>
      </trkpt>
      <trkpt lat="41.44504048861563205718994140625" lon="2.1907191909849643707275390625">
        <ele>44.40000152587890625</ele>
        <time>2022-05-15T04:51:11.000Z</time>
      </trkpt>
      <trkpt lat="41.44514408893883228302001953125" lon="2.190820612013339996337890625">
        <ele>44.59999847412109375</ele>
        <time>2022-05-15T04:51:14.000Z</time>
      </trkpt>
      <trkpt lat="41.445196308195590972900390625" lon="2.190915830433368682861328125">
        <ele>44.799999237060546875</ele>
        <time>2022-05-15T04:51:16.000Z</time>
      </trkpt>
      <trkpt lat="41.44526369869709014892578125" lon="2.1910719014704227447509765625">
        <ele>44.799999237060546875</ele>
        <time>2022-05-15T04:51:19.000Z</time>
      </trkpt>
      <trkpt lat="41.4453258924186229705810546875" lon="2.19121062196791172027587890625">
        <ele>45</ele>
        <time>2022-05-15T04:51:21.000Z</time>
      </trkpt>
      <trkpt lat="41.44543091766536235809326171875" lon="2.1914745680987834930419921875">
        <ele>45</ele>
        <time>2022-05-15T04:51:25.000Z</time>
      </trkpt>
      <trkpt lat="41.44545589573681354522705078125" lon="2.19153868965804576873779296875">
        <ele>45</ele>
        <time>2022-05-15T04:51:26.000Z</time>
      </trkpt>
      <trkpt lat="41.44552831538021564483642578125" lon="2.1917402744293212890625">
        <ele>45</ele>
        <time>2022-05-15T04:51:29.000Z</time>
      </trkpt>
      <trkpt lat="41.445555388927459716796875" lon="2.1918091736733913421630859375">
        <ele>44.59999847412109375</ele>
        <time>2022-05-15T04:51:30.000Z</time>
      </trkpt>
      <trkpt lat="41.44563359208405017852783203125" lon="2.19200891442596912384033203125">
        <ele>44.200000762939453125</ele>
        <time>2022-05-15T04:51:33.000Z</time>
      </trkpt>
      <trkpt lat="41.445709280669689178466796875" lon="2.19220287166535854339599609375">
        <ele>43.59999847412109375</ele>
        <time>2022-05-15T04:51:36.000Z</time>
      </trkpt>
      <trkpt lat="41.445802152156829833984375" lon="2.19245064072310924530029296875">
        <ele>42.59999847412109375</ele>
        <time>2022-05-15T04:51:40.000Z</time>
      </trkpt>
      <trkpt lat="41.44581489264965057373046875" lon="2.19251115806400775909423828125">
        <ele>42.40000152587890625</ele>
        <time>2022-05-15T04:51:41.000Z</time>
      </trkpt>
      <trkpt lat="41.44582687877118587493896484375" lon="2.19262012280523777008056640625">
        <ele>42.40000152587890625</ele>
        <time>2022-05-15T04:51:43.000Z</time>
      </trkpt>
      <trkpt lat="41.44583408720791339874267578125" lon="2.19266672618687152862548828125">
        <ele>42.200000762939453125</ele>
        <time>2022-05-15T04:51:44.000Z</time>
      </trkpt>
      <trkpt lat="41.44589602947235107421875" lon="2.19279211945831775665283203125">
        <ele>42</ele>
        <time>2022-05-15T04:51:47.000Z</time>
      </trkpt>
      <trkpt lat="41.4459314011037349700927734375" lon="2.19281944446265697479248046875">
        <ele>42</ele>
        <time>2022-05-15T04:51:48.000Z</time>
      </trkpt>
      <trkpt lat="41.44596903584897518157958984375" lon="2.192853055894374847412109375">
        <ele>42</ele>
        <time>2022-05-15T04:51:49.000Z</time>
      </trkpt>
      <trkpt lat="41.44602050073444843292236328125" lon="2.19295799732208251953125">
        <ele>42</ele>
        <time>2022-05-15T04:51:51.000Z</time>
      </trkpt>
      <trkpt lat="41.44604044966399669647216796875" lon="2.19301172532141208648681640625">
        <ele>42</ele>
        <time>2022-05-15T04:51:52.000Z</time>
      </trkpt>
      <trkpt lat="41.4461912401020526885986328125" lon="2.1934506855905055999755859375">
        <ele>41.59999847412109375</ele>
        <time>2022-05-15T04:51:58.000Z</time>
      </trkpt>
      <trkpt lat="41.4462837763130664825439453125" lon="2.193716727197170257568359375">
        <ele>41.200000762939453125</ele>
        <time>2022-05-15T04:52:02.000Z</time>
      </trkpt>
      <trkpt lat="41.44632996059954166412353515625" lon="2.19384874217212200164794921875">
        <ele>41.200000762939453125</ele>
        <time>2022-05-15T04:52:04.000Z</time>
      </trkpt>
      <trkpt lat="41.44637824036180973052978515625" lon="2.19398536719381809234619140625">
        <ele>41</ele>
        <time>2022-05-15T04:52:07.000Z</time>
      </trkpt>
      <trkpt lat="41.4464031346142292022705078125" lon="2.19405208714306354522705078125">
        <ele>41</ele>
        <time>2022-05-15T04:52:08.000Z</time>
      </trkpt>
      <trkpt lat="41.4464286155998706817626953125" lon="2.1941158734261989593505859375">
        <ele>40.799999237060546875</ele>
        <time>2022-05-15T04:52:09.000Z</time>
      </trkpt>
      <trkpt lat="41.44647848792374134063720703125" lon="2.19424436800181865692138671875">
        <ele>40.799999237060546875</ele>
        <time>2022-05-15T04:52:11.000Z</time>
      </trkpt>
      <trkpt lat="41.446554176509380340576171875" lon="2.1944565139710903167724609375">
        <ele>40.59999847412109375</ele>
        <time>2022-05-15T04:52:14.000Z</time>
      </trkpt>
      <trkpt lat="41.4465774782001972198486328125" lon="2.19452231191098690032958984375">
        <ele>40.799999237060546875</ele>
        <time>2022-05-15T04:52:15.000Z</time>
      </trkpt>
      <trkpt lat="41.44666322506964206695556640625" lon="2.19478801824152469635009765625">
        <ele>40.200000762939453125</ele>
        <time>2022-05-15T04:52:19.000Z</time>
      </trkpt>
      <trkpt lat="41.44675760529935359954833984375" lon="2.19505623914301395416259765625">
        <ele>40</ele>
        <time>2022-05-15T04:52:23.000Z</time>
      </trkpt>
      <trkpt lat="41.44684745930135250091552734375" lon="2.1953352726995944976806640625">
        <ele>40</ele>
        <time>2022-05-15T04:52:27.000Z</time>
      </trkpt>
      <trkpt lat="41.446964554488658905029296875" lon="2.1956906653940677642822265625">
        <ele>40</ele>
        <time>2022-05-15T04:52:32.000Z</time>
      </trkpt>
      <trkpt lat="41.4470706693828105926513671875" lon="2.19604195095598697662353515625">
        <ele>40</ele>
        <time>2022-05-15T04:52:37.000Z</time>
      </trkpt>
      <trkpt lat="41.4471826516091823577880859375" lon="2.19637119211256504058837890625">
        <ele>40</ele>
        <time>2022-05-15T04:52:42.000Z</time>
      </trkpt>
      <trkpt lat="41.447248198091983795166015625" lon="2.19656146131455898284912109375">
        <ele>40</ele>
        <time>2022-05-15T04:52:45.000Z</time>
      </trkpt>
      <trkpt lat="41.44744693301618099212646484375" lon="2.19713092781603336334228515625">
        <ele>40.200000762939453125</ele>
        <time>2022-05-15T04:52:54.000Z</time>
      </trkpt>
      <trkpt lat="41.44755941815674304962158203125" lon="2.1974324248731136322021484375">
        <ele>40</ele>
        <time>2022-05-15T04:52:59.000Z</time>
      </trkpt>
      <trkpt lat="41.44757433794438838958740234375" lon="2.19749621115624904632568359375">
        <ele>40</ele>
        <time>2022-05-15T04:53:00.000Z</time>
      </trkpt>
      <trkpt lat="41.44759059883654117584228515625" lon="2.1975608356297016143798828125">
        <ele>40</ele>
        <time>2022-05-15T04:53:01.000Z</time>
      </trkpt>
      <trkpt lat="41.44769252277910709381103515625" lon="2.1978146396577358245849609375">
        <ele>39.59999847412109375</ele>
        <time>2022-05-15T04:53:05.000Z</time>
      </trkpt>
      <trkpt lat="41.44775790162384510040283203125" lon="2.1979350037872791290283203125">
        <ele>39.40000152587890625</ele>
        <time>2022-05-15T04:53:07.000Z</time>
      </trkpt>
      <trkpt lat="41.44785404205322265625" lon="2.19820448197424411773681640625">
        <ele>39.200000762939453125</ele>
        <time>2022-05-15T04:53:11.000Z</time>
      </trkpt>
      <trkpt lat="41.447905004024505615234375" lon="2.1983406879007816314697265625">
        <ele>39</ele>
        <time>2022-05-15T04:53:13.000Z</time>
      </trkpt>
      <trkpt lat="41.44808865152299404144287109375" lon="2.19880521297454833984375">
        <ele>37.799999237060546875</ele>
        <time>2022-05-15T04:53:20.000Z</time>
      </trkpt>
      <trkpt lat="41.44820650108158588409423828125" lon="2.19914694316685199737548828125">
        <ele>37.200000762939453125</ele>
        <time>2022-05-15T04:53:25.000Z</time>
      </trkpt>
      <trkpt lat="41.448344886302947998046875" lon="2.1995708160102367401123046875">
        <ele>37</ele>
        <time>2022-05-15T04:53:31.000Z</time>
      </trkpt>
      <trkpt lat="41.44845259375870227813720703125" lon="2.19986133277416229248046875">
        <ele>37</ele>
        <time>2022-05-15T04:53:35.000Z</time>
      </trkpt>
      <trkpt lat="41.44850254990160465240478515625" lon="2.20000885426998138427734375">
        <ele>37</ele>
        <time>2022-05-15T04:53:37.000Z</time>
      </trkpt>
      <trkpt lat="41.4487507380545139312744140625" lon="2.2006996907293796539306640625">
        <ele>36.799999237060546875</ele>
        <time>2022-05-15T04:53:46.000Z</time>
      </trkpt>
      <trkpt lat="41.4487802423536777496337890625" lon="2.20077940262854099273681640625">
        <ele>36.799999237060546875</ele>
        <time>2022-05-15T04:53:47.000Z</time>
      </trkpt>
      <trkpt lat="41.4488084055483341217041015625" lon="2.20086087472736835479736328125">
        <ele>36.799999237060546875</ele>
        <time>2022-05-15T04:53:48.000Z</time>
      </trkpt>
      <trkpt lat="41.44889314658939838409423828125" lon="2.2010990045964717864990234375">
        <ele>36.59999847412109375</ele>
        <time>2022-05-15T04:53:51.000Z</time>
      </trkpt>
      <trkpt lat="41.44900077022612094879150390625" lon="2.2013994120061397552490234375">
        <ele>36.40000152587890625</ele>
        <time>2022-05-15T04:53:55.000Z</time>
      </trkpt>
      <trkpt lat="41.449178047478199005126953125" lon="2.2018942795693874359130859375">
        <ele>35.59999847412109375</ele>
        <time>2022-05-15T04:54:02.000Z</time>
      </trkpt>
      <trkpt lat="41.44924954511225223541259765625" lon="2.20210022293031215667724609375">
        <ele>35.59999847412109375</ele>
        <time>2022-05-15T04:54:05.000Z</time>
      </trkpt>
      <trkpt lat="41.44927385263144969940185546875" lon="2.2021682001650333404541015625">
        <ele>35.799999237060546875</ele>
        <time>2022-05-15T04:54:06.000Z</time>
      </trkpt>
      <trkpt lat="41.44929908215999603271484375" lon="2.202232740819454193115234375">
        <ele>35.799999237060546875</ele>
        <time>2022-05-15T04:54:07.000Z</time>
      </trkpt>
      <trkpt lat="41.4494108967483043670654296875" lon="2.20254798419773578643798828125">
        <ele>35.799999237060546875</ele>
        <time>2022-05-15T04:54:12.000Z</time>
      </trkpt>
      <trkpt lat="41.44947216846048831939697265625" lon="2.202713191509246826171875">
        <ele>36</ele>
        <time>2022-05-15T04:54:15.000Z</time>
      </trkpt>
      <trkpt lat="41.449507288634777069091796875" lon="2.20281234942376613616943359375">
        <ele>36.200000762939453125</ele>
        <time>2022-05-15T04:54:17.000Z</time>
      </trkpt>
      <trkpt lat="41.44953084178268909454345703125" lon="2.20285275019705295562744140625">
        <ele>36.200000762939453125</ele>
        <time>2022-05-15T04:54:18.000Z</time>
      </trkpt>
      <trkpt lat="41.4495989866554737091064453125" lon="2.20289583317935466766357421875">
        <ele>36.200000762939453125</ele>
        <time>2022-05-15T04:54:21.000Z</time>
      </trkpt>
      <trkpt lat="41.44960887730121612548828125" lon="2.2028915584087371826171875">
        <ele>36.40000152587890625</ele>
        <time>2022-05-15T04:54:22.000Z</time>
      </trkpt>
      <trkpt lat="41.4496135711669921875" lon="2.2028759680688381195068359375">
        <ele>36.40000152587890625</ele>
        <time>2022-05-15T04:54:24.000Z</time>
      </trkpt>
      <trkpt lat="41.44961030222475528717041015625" lon="2.2028739564120769500732421875">
        <ele>36.200000762939453125</ele>
        <time>2022-05-15T04:54:26.000Z</time>
      </trkpt>
      <trkpt lat="41.44960778765380382537841796875" lon="2.20281234942376613616943359375">
        <ele>34</ele>
        <time>2022-05-15T05:06:01.000Z</time>
      </trkpt>
      <trkpt lat="41.44960887730121612548828125" lon="2.2028149478137493133544921875">
        <ele>34</ele>
        <time>2022-05-15T05:06:02.000Z</time>
      </trkpt>
      <trkpt lat="41.44957593642175197601318359375" lon="2.2028565220534801483154296875">
        <ele>34</ele>
        <time>2022-05-15T05:06:05.000Z</time>
      </trkpt>
      <trkpt lat="41.4495587535202503204345703125" lon="2.20287152566015720367431640625">
        <ele>33.799999237060546875</ele>
        <time>2022-05-15T05:06:06.000Z</time>
      </trkpt>
      <trkpt lat="41.44954509101808071136474609375" lon="2.20288929529488086700439453125">
        <ele>33.799999237060546875</ele>
        <time>2022-05-15T05:06:07.000Z</time>
      </trkpt>
      <trkpt lat="41.449468396604061126708984375" lon="2.20298049040138721466064453125">
        <ele>34</ele>
        <time>2022-05-15T05:06:11.000Z</time>
      </trkpt>
      <trkpt lat="41.44938868470489978790283203125" lon="2.2030659019947052001953125">
        <ele>34</ele>
        <time>2022-05-15T05:06:14.000Z</time>
      </trkpt>
      <trkpt lat="41.44935364834964275360107421875" lon="2.2030989266932010650634765625">
        <ele>34.200000762939453125</ele>
        <time>2022-05-15T05:06:15.000Z</time>
      </trkpt>
      <trkpt lat="41.449195481836795806884765625" lon="2.2032417543232440948486328125">
        <ele>33.799999237060546875</ele>
        <time>2022-05-15T05:06:19.000Z</time>
      </trkpt>
      <trkpt lat="41.449090875685214996337890625" lon="2.2033272497355937957763671875">
        <ele>33.799999237060546875</ele>
        <time>2022-05-15T05:06:21.000Z</time>
      </trkpt>
      <trkpt lat="41.4487839303910732269287109375" lon="2.20361776649951934814453125">
        <ele>32.59999847412109375</ele>
        <time>2022-05-15T05:06:27.000Z</time>
      </trkpt>
      <trkpt lat="41.44873045384883880615234375" lon="2.20366562716662883758544921875">
        <ele>32.200000762939453125</ele>
        <time>2022-05-15T05:06:28.000Z</time>
      </trkpt>
      <trkpt lat="41.4486260153353214263916015625" lon="2.20375682227313518524169921875">
        <ele>31.200000762939453125</ele>
        <time>2022-05-15T05:06:30.000Z</time>
      </trkpt>
      <trkpt lat="41.44857413135468959808349609375" lon="2.20379034988582134246826171875">
        <ele>30.799999237060546875</ele>
        <time>2022-05-15T05:06:31.000Z</time>
      </trkpt>
      <trkpt lat="41.4484771527349948883056640625" lon="2.2038437426090240478515625">
        <ele>30</ele>
        <time>2022-05-15T05:06:33.000Z</time>
      </trkpt>
      <trkpt lat="41.44838805310428142547607421875" lon="2.20390166155993938446044921875">
        <ele>29.799999237060546875</ele>
        <time>2022-05-15T05:06:35.000Z</time>
      </trkpt>
      <trkpt lat="41.44822888076305389404296875" lon="2.20403828658163547515869140625">
        <ele>29.3999996185302734375</ele>
        <time>2022-05-15T05:06:39.000Z</time>
      </trkpt>
      <trkpt lat="41.4480565488338470458984375" lon="2.2041915915906429290771484375">
        <ele>29.3999996185302734375</ele>
        <time>2022-05-15T05:06:45.000Z</time>
      </trkpt>
      <trkpt lat="41.44803768955171108245849609375" lon="2.20421858131885528564453125">
        <ele>29.3999996185302734375</ele>
        <time>2022-05-15T05:06:47.000Z</time>
      </trkpt>
      <trkpt lat="41.4480312354862689971923828125" lon="2.20422922633588314056396484375">
        <ele>29.6000003814697265625</ele>
        <time>2022-05-15T05:06:48.000Z</time>
      </trkpt>
      <trkpt lat="41.44802914001047611236572265625" lon="2.20423207618296146392822265625">
        <ele>29.799999237060546875</ele>
        <time>2022-05-15T05:06:50.000Z</time>
      </trkpt>
      <trkpt lat="41.44802176393568515777587890625" lon="2.20424531958997249603271484375">
        <ele>29.6000003814697265625</ele>
        <time>2022-05-15T05:06:54.000Z</time>
      </trkpt>
      <trkpt lat="41.44801941700279712677001953125" lon="2.20425101928412914276123046875">
        <ele>29.799999237060546875</ele>
        <time>2022-05-15T05:06:56.000Z</time>
      </trkpt>
      <trkpt lat="41.4480208419263362884521484375" lon="2.2042485885322093963623046875">
        <ele>29.6000003814697265625</ele>
        <time>2022-05-15T05:07:05.000Z</time>
      </trkpt>
      <trkpt lat="41.4480211772024631500244140625" lon="2.20425252802670001983642578125">
        <ele>29.799999237060546875</ele>
        <time>2022-05-15T05:07:13.000Z</time>
      </trkpt>
      <trkpt lat="41.44801991991698741912841796875" lon="2.2042529471218585968017578125">
        <ele>29.799999237060546875</ele>
        <time>2022-05-15T05:07:16.000Z</time>
      </trkpt>
      <trkpt lat="41.4480198360979557037353515625" lon="2.20425252802670001983642578125">
        <ele>29.6000003814697265625</ele>
        <time>2022-05-15T05:07:17.000Z</time>
      </trkpt>
      <trkpt lat="41.4480136334896087646484375" lon="2.20425521023571491241455078125">
        <ele>29.799999237060546875</ele>
        <time>2022-05-15T05:07:18.000Z</time>
      </trkpt>
      <trkpt lat="41.44800919108092784881591796875" lon="2.20425671897828578948974609375">
        <ele>29.6000003814697265625</ele>
        <time>2022-05-15T05:07:19.000Z</time>
      </trkpt>
      <trkpt lat="41.44800734706223011016845703125" lon="2.204258479177951812744140625">
        <ele>29.799999237060546875</ele>
        <time>2022-05-15T05:07:20.000Z</time>
      </trkpt>
      <trkpt lat="41.44800667650997638702392578125" lon="2.20425956882536411285400390625">
        <ele>29.6000003814697265625</ele>
        <time>2022-05-15T05:07:21.000Z</time>
      </trkpt>
      <trkpt lat="41.44800701178610324859619140625" lon="2.2042594850063323974609375">
        <ele>29.799999237060546875</ele>
        <time>2022-05-15T05:07:22.000Z</time>
      </trkpt>
      <trkpt lat="41.4480070956051349639892578125" lon="2.2042594850063323974609375">
        <ele>29.799999237060546875</ele>
        <time>2022-05-15T05:07:23.000Z</time>
      </trkpt>
      <trkpt lat="41.447983793914318084716796875" lon="2.20428119413554668426513671875">
        <ele>29.6000003814697265625</ele>
        <time>2022-05-15T05:07:26.000Z</time>
      </trkpt>
      <trkpt lat="41.44796275533735752105712890625" lon="2.20429879613220691680908203125">
        <ele>29.799999237060546875</ele>
        <time>2022-05-15T05:07:27.000Z</time>
      </trkpt>
      <trkpt lat="41.447934843599796295166015625" lon="2.204315476119518280029296875">
        <ele>29.6000003814697265625</ele>
        <time>2022-05-15T05:07:28.000Z</time>
      </trkpt>
      <trkpt lat="41.44781473092734813690185546875" lon="2.2043769992887973785400390625">
        <ele>29.6000003814697265625</ele>
        <time>2022-05-15T05:07:31.000Z</time>
      </trkpt>
      <trkpt lat="41.4477667026221752166748046875" lon="2.20441044308245182037353515625">
        <ele>29.799999237060546875</ele>
        <time>2022-05-15T05:07:32.000Z</time>
      </trkpt>
      <trkpt lat="41.44754583947360515594482421875" lon="2.2046026401221752166748046875">
        <ele>29.200000762939453125</ele>
        <time>2022-05-15T05:07:36.000Z</time>
      </trkpt>
      <trkpt lat="41.4474840648472309112548828125" lon="2.20465066842734813690185546875">
        <ele>29</ele>
        <time>2022-05-15T05:07:37.000Z</time>
      </trkpt>
      <trkpt lat="41.44725322723388671875" lon="2.2048537619411945343017578125">
        <ele>27.200000762939453125</ele>
        <time>2022-05-15T05:07:41.000Z</time>
      </trkpt>
      <trkpt lat="41.44715289585292339324951171875" lon="2.2049563564360141754150390625">
        <ele>26.200000762939453125</ele>
        <time>2022-05-15T05:07:43.000Z</time>
      </trkpt>
      <trkpt lat="41.44710679538547992706298828125" lon="2.20500178635120391845703125">
        <ele>26</ele>
        <time>2022-05-15T05:07:44.000Z</time>
      </trkpt>
      <trkpt lat="41.44702163524925708770751953125" lon="2.20508032478392124176025390625">
        <ele>25.6000003814697265625</ele>
        <time>2022-05-15T05:07:46.000Z</time>
      </trkpt>
      <trkpt lat="41.446853913366794586181640625" lon="2.20523874275386333465576171875">
        <ele>25.6000003814697265625</ele>
        <time>2022-05-15T05:07:51.000Z</time>
      </trkpt>
      <trkpt lat="41.446558535099029541015625" lon="2.20552054233849048614501953125">
        <ele>25.3999996185302734375</ele>
        <time>2022-05-15T05:07:59.000Z</time>
      </trkpt>
      <trkpt lat="41.44630397669970989227294921875" lon="2.20577099360525608062744140625">
        <ele>25.200000762939453125</ele>
        <time>2022-05-15T05:08:06.000Z</time>
      </trkpt>
      <trkpt lat="41.44623063504695892333984375" lon="2.2058398090302944183349609375">
        <ele>25</ele>
        <time>2022-05-15T05:08:08.000Z</time>
      </trkpt>
      <trkpt lat="41.44603751599788665771484375" lon="2.20601809211075305938720703125">
        <ele>24.799999237060546875</ele>
        <time>2022-05-15T05:08:13.000Z</time>
      </trkpt>
      <trkpt lat="41.4457563869655132293701171875" lon="2.20628547482192516326904296875">
        <ele>24.799999237060546875</ele>
        <time>2022-05-15T05:08:20.000Z</time>
      </trkpt>
      <trkpt lat="41.4457178302109241485595703125" lon="2.206323780119419097900390625">
        <ele>24.799999237060546875</ele>
        <time>2022-05-15T05:08:21.000Z</time>
      </trkpt>
      <trkpt lat="41.4456398785114288330078125" lon="2.206406258046627044677734375">
        <ele>24.799999237060546875</ele>
        <time>2022-05-15T05:08:23.000Z</time>
      </trkpt>
      <trkpt lat="41.44559889100492000579833984375" lon="2.20644406042993068695068359375">
        <ele>24.799999237060546875</ele>
        <time>2022-05-15T05:08:24.000Z</time>
      </trkpt>
      <trkpt lat="41.445515491068363189697265625" lon="2.20651723444461822509765625">
        <ele>24.799999237060546875</ele>
        <time>2022-05-15T05:08:26.000Z</time>
      </trkpt>
      <trkpt lat="41.44520561210811138153076171875" lon="2.20679559744894504547119140625">
        <ele>24.6000003814697265625</ele>
        <time>2022-05-15T05:08:33.000Z</time>
      </trkpt>
      <trkpt lat="41.44510771147906780242919921875" lon="2.2068660892546176910400390625">
        <ele>24.3999996185302734375</ele>
        <time>2022-05-15T05:08:35.000Z</time>
      </trkpt>
      <trkpt lat="41.44505825825035572052001953125" lon="2.20690079033374786376953125">
        <ele>24.3999996185302734375</ele>
        <time>2022-05-15T05:08:36.000Z</time>
      </trkpt>
      <trkpt lat="41.4449024386703968048095703125" lon="2.20700497739017009735107421875">
        <ele>24.6000003814697265625</ele>
        <time>2022-05-15T05:08:39.000Z</time>
      </trkpt>
      <trkpt lat="41.44474804401397705078125" lon="2.2071131877601146697998046875">
        <ele>24.6000003814697265625</ele>
        <time>2022-05-15T05:08:42.000Z</time>
      </trkpt>
      <trkpt lat="41.444661878049373626708984375" lon="2.2072208113968372344970703125">
        <ele>24.6000003814697265625</ele>
        <time>2022-05-15T05:08:44.000Z</time>
      </trkpt>
      <trkpt lat="41.444482840597629547119140625" lon="2.20741954632103443145751953125">
        <ele>24.3999996185302734375</ele>
        <time>2022-05-15T05:08:48.000Z</time>
      </trkpt>
      <trkpt lat="41.44444000907242298126220703125" lon="2.2074692510068416595458984375">
        <ele>24.3999996185302734375</ele>
        <time>2022-05-15T05:08:49.000Z</time>
      </trkpt>
      <trkpt lat="41.44434629939496517181396484375" lon="2.20756388269364833831787109375">
        <ele>24.3999996185302734375</ele>
        <time>2022-05-15T05:08:51.000Z</time>
      </trkpt>
      <trkpt lat="41.4441906474530696868896484375" lon="2.20769866369664669036865234375">
        <ele>24.200000762939453125</ele>
        <time>2022-05-15T05:08:54.000Z</time>
      </trkpt>
      <trkpt lat="41.443825028836727142333984375" lon="2.207989431917667388916015625">
        <ele>23.799999237060546875</ele>
        <time>2022-05-15T05:09:01.000Z</time>
      </trkpt>
      <trkpt lat="41.4437705464661121368408203125" lon="2.20802824012935161590576171875">
        <ele>23.799999237060546875</ele>
        <time>2022-05-15T05:09:02.000Z</time>
      </trkpt>
      <trkpt lat="41.4437182433903217315673828125" lon="2.2080626897513866424560546875">
        <ele>23.799999237060546875</ele>
        <time>2022-05-15T05:09:03.000Z</time>
      </trkpt>
      <trkpt lat="41.44366803579032421112060546875" lon="2.2080972231924533843994140625">
        <ele>23.799999237060546875</ele>
        <time>2022-05-15T05:09:04.000Z</time>
      </trkpt>
      <trkpt lat="41.44362210296094417572021484375" lon="2.2081379592418670654296875">
        <ele>23.799999237060546875</ele>
        <time>2022-05-15T05:09:05.000Z</time>
      </trkpt>
      <trkpt lat="41.4435764215886592864990234375" lon="2.20818221569061279296875">
        <ele>23.799999237060546875</ele>
        <time>2022-05-15T05:09:06.000Z</time>
      </trkpt>
      <trkpt lat="41.44343401305377483367919921875" lon="2.20829310826957225799560546875">
        <ele>23.6000003814697265625</ele>
        <time>2022-05-15T05:09:09.000Z</time>
      </trkpt>
      <trkpt lat="41.4433787763118743896484375" lon="2.2083268873393535614013671875">
        <ele>23.6000003814697265625</ele>
        <time>2022-05-15T05:09:10.000Z</time>
      </trkpt>
      <trkpt lat="41.4433269761502742767333984375" lon="2.208363600075244903564453125">
        <ele>23.6000003814697265625</ele>
        <time>2022-05-15T05:09:11.000Z</time>
      </trkpt>
      <trkpt lat="41.44327484071254730224609375" lon="2.2083999775350093841552734375">
        <ele>23.6000003814697265625</ele>
        <time>2022-05-15T05:09:12.000Z</time>
      </trkpt>
      <trkpt lat="41.4429303444921970367431640625" lon="2.20861229114234447479248046875">
        <ele>23.200000762939453125</ele>
        <time>2022-05-15T05:09:18.000Z</time>
      </trkpt>
      <trkpt lat="41.44287024624645709991455078125" lon="2.2086477465927600860595703125">
        <ele>23</ele>
        <time>2022-05-15T05:09:19.000Z</time>
      </trkpt>
      <trkpt lat="41.4424448646605014801025390625" lon="2.2088889777660369873046875">
        <ele>22.799999237060546875</ele>
        <time>2022-05-15T05:09:26.000Z</time>
      </trkpt>
      <trkpt lat="41.44231854937970638275146484375" lon="2.20895678736269474029541015625">
        <ele>23</ele>
        <time>2022-05-15T05:09:28.000Z</time>
      </trkpt>
      <trkpt lat="41.44192828796803951263427734375" lon="2.20916013233363628387451171875">
        <ele>23</ele>
        <time>2022-05-15T05:09:34.000Z</time>
      </trkpt>
      <trkpt lat="41.44186131656169891357421875" lon="2.20919542014598846435546875">
        <ele>22.799999237060546875</ele>
        <time>2022-05-15T05:09:35.000Z</time>
      </trkpt>
      <trkpt lat="41.4415734820067882537841796875" lon="2.2093203105032444000244140625">
        <ele>22.6000003814697265625</ele>
        <time>2022-05-15T05:09:39.000Z</time>
      </trkpt>
      <trkpt lat="41.44142386503517627716064453125" lon="2.20935777761042118072509765625">
        <ele>22.3999996185302734375</ele>
        <time>2022-05-15T05:09:41.000Z</time>
      </trkpt>
      <trkpt lat="41.4412066899240016937255859375" lon="2.20942416228353977203369140625">
        <ele>22.6000003814697265625</ele>
        <time>2022-05-15T05:09:44.000Z</time>
      </trkpt>
      <trkpt lat="41.44114240072667598724365234375" lon="2.20946188084781169891357421875">
        <ele>22.3999996185302734375</ele>
        <time>2022-05-15T05:09:45.000Z</time>
      </trkpt>
      <trkpt lat="41.4410839788615703582763671875" lon="2.20950848422944545745849609375">
        <ele>22.200000762939453125</ele>
        <time>2022-05-15T05:09:46.000Z</time>
      </trkpt>
      <trkpt lat="41.44102119840681552886962890625" lon="2.2095496393740177154541015625">
        <ele>22.200000762939453125</ele>
        <time>2022-05-15T05:09:47.000Z</time>
      </trkpt>
      <trkpt lat="41.4409505389630794525146484375" lon="2.20957905985414981842041015625">
        <ele>22</ele>
        <time>2022-05-15T05:09:48.000Z</time>
      </trkpt>
      <trkpt lat="41.44087652675807476043701171875" lon="2.20960722304880619049072265625">
        <ele>22</ele>
        <time>2022-05-15T05:09:49.000Z</time>
      </trkpt>
      <trkpt lat="41.4405733533203601837158203125" lon="2.209712080657482147216796875">
        <ele>21.799999237060546875</ele>
        <time>2022-05-15T05:09:53.000Z</time>
      </trkpt>
      <trkpt lat="41.44049766473472118377685546875" lon="2.20973865129053592681884765625">
        <ele>22</ele>
        <time>2022-05-15T05:09:54.000Z</time>
      </trkpt>
      <trkpt lat="41.44034461118280887603759765625" lon="2.209789864718914031982421875">
        <ele>21.799999237060546875</ele>
        <time>2022-05-15T05:09:56.000Z</time>
      </trkpt>
      <trkpt lat="41.4402672462165355682373046875" lon="2.20981459133327007293701171875">
        <ele>22</ele>
        <time>2022-05-15T05:09:57.000Z</time>
      </trkpt>
      <trkpt lat="41.4401103369891643524169921875" lon="2.2098624520003795623779296875">
        <ele>21.799999237060546875</ele>
        <time>2022-05-15T05:09:59.000Z</time>
      </trkpt>
      <trkpt lat="41.43962678499519824981689453125" lon="2.2099952213466167449951171875">
        <ele>21.6000003814697265625</ele>
        <time>2022-05-15T05:10:05.000Z</time>
      </trkpt>
      <trkpt lat="41.43946300260722637176513671875" lon="2.21003838814795017242431640625">
        <ele>21.6000003814697265625</ele>
        <time>2022-05-15T05:10:07.000Z</time>
      </trkpt>
      <trkpt lat="41.43888138234615325927734375" lon="2.2102014161646366119384765625">
        <ele>21.6000003814697265625</ele>
        <time>2022-05-15T05:10:14.000Z</time>
      </trkpt>
      <trkpt lat="41.43863118253648281097412109375" lon="2.210266627371311187744140625">
        <ele>21.3999996185302734375</ele>
        <time>2022-05-15T05:10:17.000Z</time>
      </trkpt>
      <trkpt lat="41.4384634606540203094482421875" lon="2.21031121909618377685546875">
        <ele>21.3999996185302734375</ele>
        <time>2022-05-15T05:10:19.000Z</time>
      </trkpt>
      <trkpt lat="41.43838039599359035491943359375" lon="2.21033443696796894073486328125">
        <ele>21.3999996185302734375</ele>
        <time>2022-05-15T05:10:20.000Z</time>
      </trkpt>
      <trkpt lat="41.43796733580529689788818359375" lon="2.2104361094534397125244140625">
        <ele>21</ele>
        <time>2022-05-15T05:10:25.000Z</time>
      </trkpt>
      <trkpt lat="41.4373996295034885406494140625" lon="2.21055664122104644775390625">
        <ele>20.6000003814697265625</ele>
        <time>2022-05-15T05:10:32.000Z</time>
      </trkpt>
      <trkpt lat="41.4373171515762805938720703125" lon="2.21056276001036167144775390625">
        <ele>20.799999237060546875</ele>
        <time>2022-05-15T05:10:33.000Z</time>
      </trkpt>
      <trkpt lat="41.437073908746242523193359375" lon="2.2106050886213779449462890625">
        <ele>20.799999237060546875</ele>
        <time>2022-05-15T05:10:36.000Z</time>
      </trkpt>
      <trkpt lat="41.43699687905609607696533203125" lon="2.21063911914825439453125">
        <ele>21</ele>
        <time>2022-05-15T05:10:37.000Z</time>
      </trkpt>
      <trkpt lat="41.43692093901336193084716796875" lon="2.21067993901669979095458984375">
        <ele>20.6000003814697265625</ele>
        <time>2022-05-15T05:10:38.000Z</time>
      </trkpt>
      <trkpt lat="41.43684566952288150787353515625" lon="2.21072134561836719512939453125">
        <ele>20.799999237060546875</ele>
        <time>2022-05-15T05:10:39.000Z</time>
      </trkpt>
      <trkpt lat="41.43652933649718761444091796875" lon="2.2108293883502483367919921875">
        <ele>20.799999237060546875</ele>
        <time>2022-05-15T05:10:43.000Z</time>
      </trkpt>
      <trkpt lat="41.4361410029232501983642578125" lon="2.21096408553421497344970703125">
        <ele>20.6000003814697265625</ele>
        <time>2022-05-15T05:10:48.000Z</time>
      </trkpt>
      <trkpt lat="41.43558050505816936492919921875" lon="2.2111874632537364959716796875">
        <ele>20.3999996185302734375</ele>
        <time>2022-05-15T05:10:55.000Z</time>
      </trkpt>
      <trkpt lat="41.43542409874498844146728515625" lon="2.2112545184791088104248046875">
        <ele>20.3999996185302734375</ele>
        <time>2022-05-15T05:10:57.000Z</time>
      </trkpt>
      <trkpt lat="41.434882543981075286865234375" lon="2.2115177102386951446533203125">
        <ele>20.200000762939453125</ele>
        <time>2022-05-15T05:11:04.000Z</time>
      </trkpt>
      <trkpt lat="41.43472932279109954833984375" lon="2.2115954943001270294189453125">
        <ele>20.200000762939453125</ele>
        <time>2022-05-15T05:11:06.000Z</time>
      </trkpt>
      <trkpt lat="41.43419413827359676361083984375" lon="2.2118945606052875518798828125">
        <ele>20.200000762939453125</ele>
        <time>2022-05-15T05:11:13.000Z</time>
      </trkpt>
      <trkpt lat="41.4338135160505771636962890625" lon="2.212111987173557281494140625">
        <ele>20</ele>
        <time>2022-05-15T05:11:18.000Z</time>
      </trkpt>
      <trkpt lat="41.4332787506282329559326171875" lon="2.21237425692379474639892578125">
        <ele>20</ele>
        <time>2022-05-15T05:11:25.000Z</time>
      </trkpt>
      <trkpt lat="41.4329699613153934478759765625" lon="2.212503589689731597900390625">
        <ele>20</ele>
        <time>2022-05-15T05:11:29.000Z</time>
      </trkpt>
      <trkpt lat="41.43290248699486255645751953125" lon="2.21256251446902751922607421875">
        <ele>19.799999237060546875</ele>
        <time>2022-05-15T05:11:30.000Z</time>
      </trkpt>
      <trkpt lat="41.432836689054965972900390625" lon="2.21262973733246326446533203125">
        <ele>19.799999237060546875</ele>
        <time>2022-05-15T05:11:31.000Z</time>
      </trkpt>
      <trkpt lat="41.432696878910064697265625" lon="2.21275110729038715362548828125">
        <ele>19.799999237060546875</ele>
        <time>2022-05-15T05:11:33.000Z</time>
      </trkpt>
      <trkpt lat="41.43262336961925029754638671875" lon="2.21280257217586040496826171875">
        <ele>19.799999237060546875</ele>
        <time>2022-05-15T05:11:34.000Z</time>
      </trkpt>
      <trkpt lat="41.43254893831908702850341796875" lon="2.21285286359488964080810546875">
        <ele>19.6000003814697265625</ele>
        <time>2022-05-15T05:11:35.000Z</time>
      </trkpt>
      <trkpt lat="41.43247534520924091339111328125" lon="2.2129030711948871612548828125">
        <ele>19.799999237060546875</ele>
        <time>2022-05-15T05:11:36.000Z</time>
      </trkpt>
      <trkpt lat="41.43198005855083465576171875" lon="2.21329727210104465484619140625">
        <ele>19.799999237060546875</ele>
        <time>2022-05-15T05:11:43.000Z</time>
      </trkpt>
      <trkpt lat="41.43191208131611347198486328125" lon="2.21335820853710174560546875">
        <ele>19.6000003814697265625</ele>
        <time>2022-05-15T05:11:44.000Z</time>
      </trkpt>
      <trkpt lat="41.43152181990444660186767578125" lon="2.21374536864459514617919921875">
        <ele>19.6000003814697265625</ele>
        <time>2022-05-15T05:11:50.000Z</time>
      </trkpt>
      <trkpt lat="41.43139642663300037384033203125" lon="2.21388098783791065216064453125">
        <ele>19.6000003814697265625</ele>
        <time>2022-05-15T05:11:52.000Z</time>
      </trkpt>
      <trkpt lat="41.43122023902833461761474609375" lon="2.21410109661519527435302734375">
        <ele>19.3999996185302734375</ele>
        <time>2022-05-15T05:11:55.000Z</time>
      </trkpt>
      <trkpt lat="41.43098956905305385589599609375" lon="2.21439463086426258087158203125">
        <ele>19.3999996185302734375</ele>
        <time>2022-05-15T05:11:59.000Z</time>
      </trkpt>
      <trkpt lat="41.4308174885809421539306640625" lon="2.21462479792535305023193359375">
        <ele>19.200000762939453125</ele>
        <time>2022-05-15T05:12:02.000Z</time>
      </trkpt>
      <trkpt lat="41.43059469759464263916015625" lon="2.21493995748460292816162109375">
        <ele>19.200000762939453125</ele>
        <time>2022-05-15T05:12:06.000Z</time>
      </trkpt>
      <trkpt lat="41.43025162629783153533935546875" lon="2.215401716530323028564453125">
        <ele>19</ele>
        <time>2022-05-15T05:12:12.000Z</time>
      </trkpt>
      <trkpt lat="41.4301372133195400238037109375" lon="2.21555569209158420562744140625">
        <ele>19</ele>
        <time>2022-05-15T05:12:14.000Z</time>
      </trkpt>
      <trkpt lat="41.4297710917890071868896484375" lon="2.2159758768975734710693359375">
        <ele>18.799999237060546875</ele>
        <time>2022-05-15T05:12:20.000Z</time>
      </trkpt>
      <trkpt lat="41.4297174476087093353271484375" lon="2.2160590253770351409912109375">
        <ele>18.799999237060546875</ele>
        <time>2022-05-15T05:12:21.000Z</time>
      </trkpt>
      <trkpt lat="41.42957587726414203643798828125" lon="2.21632649190723896026611328125">
        <ele>18.799999237060546875</ele>
        <time>2022-05-15T05:12:24.000Z</time>
      </trkpt>
      <trkpt lat="41.42946548759937286376953125" lon="2.2164844907820224761962890625">
        <ele>18.6000003814697265625</ele>
        <time>2022-05-15T05:12:26.000Z</time>
      </trkpt>
      <trkpt lat="41.4291273616254329681396484375" lon="2.21693870611488819122314453125">
        <ele>18.6000003814697265625</ele>
        <time>2022-05-15T05:12:32.000Z</time>
      </trkpt>
      <trkpt lat="41.4290173910558223724365234375" lon="2.21709050238132476806640625">
        <ele>18.3999996185302734375</ele>
        <time>2022-05-15T05:12:34.000Z</time>
      </trkpt>
      <trkpt lat="41.4286284707486629486083984375" lon="2.217625267803668975830078125">
        <ele>18.6000003814697265625</ele>
        <time>2022-05-15T05:12:41.000Z</time>
      </trkpt>
      <trkpt lat="41.428572647273540496826171875" lon="2.21770112402737140655517578125">
        <ele>18.6000003814697265625</ele>
        <time>2022-05-15T05:12:42.000Z</time>
      </trkpt>
      <trkpt lat="41.4285164885222911834716796875" lon="2.217776477336883544921875">
        <ele>18.6000003814697265625</ele>
        <time>2022-05-15T05:12:43.000Z</time>
      </trkpt>
      <trkpt lat="41.42834826372563838958740234375" lon="2.2180026210844516754150390625">
        <ele>18.3999996185302734375</ele>
        <time>2022-05-15T05:12:46.000Z</time>
      </trkpt>
      <trkpt lat="41.42795540392398834228515625" lon="2.21853445284068584442138671875">
        <ele>18.3999996185302734375</ele>
        <time>2022-05-15T05:12:53.000Z</time>
      </trkpt>
      <trkpt lat="41.42773638479411602020263671875" lon="2.2188391350209712982177734375">
        <ele>18.200000762939453125</ele>
        <time>2022-05-15T05:12:57.000Z</time>
      </trkpt>
      <trkpt lat="41.42762373201549053192138671875" lon="2.2189879976212978363037109375">
        <ele>18</ele>
        <time>2022-05-15T05:12:59.000Z</time>
      </trkpt>
      <trkpt lat="41.4275666512548923492431640625" lon="2.21906335093080997467041015625">
        <ele>18</ele>
        <time>2022-05-15T05:13:00.000Z</time>
      </trkpt>
      <trkpt lat="41.427342183887958526611328125" lon="2.21936895512044429779052734375">
        <ele>17.799999237060546875</ele>
        <time>2022-05-15T05:13:04.000Z</time>
      </trkpt>
      <trkpt lat="41.42728527076542377471923828125" lon="2.219444811344146728515625">
        <ele>17.799999237060546875</ele>
        <time>2022-05-15T05:13:05.000Z</time>
      </trkpt>
      <trkpt lat="41.4271165430545806884765625" lon="2.21966081298887729644775390625">
        <ele>17.6000003814697265625</ele>
        <time>2022-05-15T05:13:08.000Z</time>
      </trkpt>
      <trkpt lat="41.4270603843033313751220703125" lon="2.21973784267902374267578125">
        <ele>17.799999237060546875</ele>
        <time>2022-05-15T05:13:09.000Z</time>
      </trkpt>
      <trkpt lat="41.42665210179984569549560546875" lon="2.22025224007666110992431640625">
        <ele>18</ele>
        <time>2022-05-15T05:13:16.000Z</time>
      </trkpt>
      <trkpt lat="41.42652855254709720611572265625" lon="2.22039540298283100128173828125">
        <ele>18</ele>
        <time>2022-05-15T05:13:18.000Z</time>
      </trkpt>
      <trkpt lat="41.426475830376148223876953125" lon="2.22047570161521434783935546875">
        <ele>18</ele>
        <time>2022-05-15T05:13:19.000Z</time>
      </trkpt>
      <trkpt lat="41.42639343626797199249267578125" lon="2.22066043876111507415771484375">
        <ele>17.799999237060546875</ele>
        <time>2022-05-15T05:13:21.000Z</time>
      </trkpt>
      <trkpt lat="41.4263522811233997344970703125" lon="2.2207528911530971527099609375">
        <ele>18</ele>
        <time>2022-05-15T05:13:22.000Z</time>
      </trkpt>
      <trkpt lat="41.42620283178985118865966796875" lon="2.2210080362856388092041015625">
        <ele>18</ele>
        <time>2022-05-15T05:13:25.000Z</time>
      </trkpt>
      <trkpt lat="41.42584006302058696746826171875" lon="2.22159166820347309112548828125">
        <ele>18</ele>
        <time>2022-05-15T05:13:32.000Z</time>
      </trkpt>
      <trkpt lat="41.42578960396349430084228515625" lon="2.2216750681400299072265625">
        <ele>17.799999237060546875</ele>
        <time>2022-05-15T05:13:33.000Z</time>
      </trkpt>
      <trkpt lat="41.4256404899060726165771484375" lon="2.22192878834903240203857421875">
        <ele>17.799999237060546875</ele>
        <time>2022-05-15T05:13:36.000Z</time>
      </trkpt>
      <trkpt lat="41.4255915395915508270263671875" lon="2.222015373408794403076171875">
        <ele>18</ele>
        <time>2022-05-15T05:13:37.000Z</time>
      </trkpt>
      <trkpt lat="41.4253035373985767364501953125" lon="2.2225414216518402099609375">
        <ele>17.6000003814697265625</ele>
        <time>2022-05-15T05:13:43.000Z</time>
      </trkpt>
      <trkpt lat="41.42498242668807506561279296875" lon="2.22316428087651729583740234375">
        <ele>17.200000762939453125</ele>
        <time>2022-05-15T05:13:50.000Z</time>
      </trkpt>
      <trkpt lat="41.42471923492848873138427734375" lon="2.223709858953952789306640625">
        <ele>17.200000762939453125</ele>
        <time>2022-05-15T05:13:56.000Z</time>
      </trkpt>
      <trkpt lat="41.4244289696216583251953125" lon="2.224232889711856842041015625">
        <ele>17.200000762939453125</ele>
        <time>2022-05-15T05:14:02.000Z</time>
      </trkpt>
      <trkpt lat="41.4242889918386936187744140625" lon="2.22449700348079204559326171875">
        <ele>17</ele>
        <time>2022-05-15T05:14:05.000Z</time>
      </trkpt>
      <trkpt lat="41.42423241399228572845458984375" lon="2.2246994264423847198486328125">
        <ele>17</ele>
        <time>2022-05-15T05:14:07.000Z</time>
      </trkpt>
      <trkpt lat="41.42420341260731220245361328125" lon="2.2248003445565700531005859375">
        <ele>17</ele>
        <time>2022-05-15T05:14:08.000Z</time>
      </trkpt>
      <trkpt lat="41.42408506013453006744384765625" lon="2.2250772826373577117919921875">
        <ele>16.799999237060546875</ele>
        <time>2022-05-15T05:14:11.000Z</time>
      </trkpt>
      <trkpt lat="41.4237917773425579071044921875" lon="2.22571372054517269134521484375">
        <ele>16.799999237060546875</ele>
        <time>2022-05-15T05:14:18.000Z</time>
      </trkpt>
      <trkpt lat="41.42375028692185878753662109375" lon="2.2258041612803936004638671875">
        <ele>16.799999237060546875</ele>
        <time>2022-05-15T05:14:19.000Z</time>
      </trkpt>
      <trkpt lat="41.42345675267279148101806640625" lon="2.2264344803988933563232421875">
        <ele>16.799999237060546875</ele>
        <time>2022-05-15T05:14:26.000Z</time>
      </trkpt>
      <trkpt lat="41.4231601171195507049560546875" lon="2.22706387750804424285888671875">
        <ele>16.799999237060546875</ele>
        <time>2022-05-15T05:14:33.000Z</time>
      </trkpt>
      <trkpt lat="41.4230789802968502044677734375" lon="2.227242998778820037841796875">
        <ele>17</ele>
        <time>2022-05-15T05:14:35.000Z</time>
      </trkpt>
      <trkpt lat="41.42300027422606945037841796875" lon="2.227416671812534332275390625">
        <ele>17</ele>
        <time>2022-05-15T05:14:37.000Z</time>
      </trkpt>
      <trkpt lat="41.4228335581719875335693359375" lon="2.22772588022053241729736328125">
        <ele>17</ele>
        <time>2022-05-15T05:14:41.000Z</time>
      </trkpt>
      <trkpt lat="41.42275451682507991790771484375" lon="2.2278728149831295013427734375">
        <ele>17</ele>
        <time>2022-05-15T05:14:43.000Z</time>
      </trkpt>
      <trkpt lat="41.4227145351469516754150390625" lon="2.2279432229697704315185546875">
        <ele>17</ele>
        <time>2022-05-15T05:14:44.000Z</time>
      </trkpt>
      <trkpt lat="41.422594003379344940185546875" lon="2.22818420268595218658447265625">
        <ele>17</ele>
        <time>2022-05-15T05:14:48.000Z</time>
      </trkpt>
      <trkpt lat="41.422622501850128173828125" lon="2.2282496653497219085693359375">
        <ele>17.200000762939453125</ele>
        <time>2022-05-15T05:14:50.000Z</time>
      </trkpt>
      <trkpt lat="41.42264873720705509185791015625" lon="2.2282399423420429229736328125">
        <ele>17.200000762939453125</ele>
        <time>2022-05-15T05:14:51.000Z</time>
      </trkpt>
      <trkpt lat="41.42267136834561824798583984375" lon="2.22820800729095935821533203125">
        <ele>17.3999996185302734375</ele>
        <time>2022-05-15T05:14:52.000Z</time>
      </trkpt>
      <trkpt lat="41.42271034419536590576171875" lon="2.22812351770699024200439453125">
        <ele>17.200000762939453125</ele>
        <time>2022-05-15T05:14:54.000Z</time>
      </trkpt>
      <trkpt lat="41.42275770194828510284423828125" lon="2.22803902812302112579345703125">
        <ele>17.3999996185302734375</ele>
        <time>2022-05-15T05:14:56.000Z</time>
      </trkpt>
      <trkpt lat="41.42278552986681461334228515625" lon="2.22799929790198802947998046875">
        <ele>17.3999996185302734375</ele>
        <time>2022-05-15T05:14:57.000Z</time>
      </trkpt>
      <trkpt lat="41.42283883877098560333251953125" lon="2.22791665233671665191650390625">
        <ele>17.3999996185302734375</ele>
        <time>2022-05-15T05:14:59.000Z</time>
      </trkpt>
      <trkpt lat="41.42286431975662708282470703125" lon="2.2278728149831295013427734375">
        <ele>17.6000003814697265625</ele>
        <time>2022-05-15T05:15:00.000Z</time>
      </trkpt>
      <trkpt lat="41.42293774522840976715087890625" lon="2.227724455296993255615234375">
        <ele>18</ele>
        <time>2022-05-15T05:15:04.000Z</time>
      </trkpt>
      <trkpt lat="41.42294780351221561431884765625" lon="2.22770308144390583038330078125">
        <ele>18.6000003814697265625</ele>
        <time>2022-05-15T05:15:05.000Z</time>
      </trkpt>
      <trkpt lat="41.422964148223400115966796875" lon="2.2276676259934902191162109375">
        <ele>20.3999996185302734375</ele>
        <time>2022-05-15T05:15:09.000Z</time>
      </trkpt>
      <trkpt lat="41.422968842089176177978515625" lon="2.22766368649899959564208984375">
        <ele>20.799999237060546875</ele>
        <time>2022-05-15T05:15:11.000Z</time>
      </trkpt>
      <trkpt lat="41.42296926118433475494384765625" lon="2.227663435041904449462890625">
        <ele>20.799999237060546875</ele>
        <time>2022-05-15T05:15:12.000Z</time>
      </trkpt>
      <trkpt lat="41.4229693450033664703369140625" lon="2.2276632674038410186767578125">
        <ele>21.3999996185302734375</ele>
        <time>2022-05-15T05:15:13.000Z</time>
      </trkpt>
      <trkpt lat="41.4229703508317470550537109375" lon="2.22766301594674587249755859375">
        <ele>21.799999237060546875</ele>
        <time>2022-05-15T05:15:16.000Z</time>
      </trkpt>
      <trkpt lat="41.422974877059459686279296875" lon="2.22765815444290637969970703125">
        <ele>22</ele>
        <time>2022-05-15T05:15:17.000Z</time>
      </trkpt>
      <trkpt lat="41.42297722399234771728515625" lon="2.22765128128230571746826171875">
        <ele>22.200000762939453125</ele>
        <time>2022-05-15T05:15:18.000Z</time>
      </trkpt>
      <trkpt lat="41.4229753799736499786376953125" lon="2.2276408039033412933349609375">
        <ele>22</ele>
        <time>2022-05-15T05:15:26.000Z</time>
      </trkpt>
      <trkpt lat="41.42297915183007717132568359375" lon="2.22764306701719760894775390625">
        <ele>22</ele>
        <time>2022-05-15T05:15:29.000Z</time>
      </trkpt>
      <trkpt lat="41.4229881204664707183837890625" lon="2.22763468511402606964111328125">
        <ele>22.200000762939453125</ele>
        <time>2022-05-15T05:15:33.000Z</time>
      </trkpt>
      <trkpt lat="41.42298937775194644927978515625" lon="2.2276344336569309234619140625">
        <ele>22</ele>
        <time>2022-05-15T05:15:38.000Z</time>
      </trkpt>
      <trkpt lat="41.42299289815127849578857421875" lon="2.2276273928582668304443359375">
        <ele>22</ele>
        <time>2022-05-15T05:15:45.000Z</time>
      </trkpt>
      <trkpt lat="41.42300463281571865081787109375" lon="2.22761540673673152923583984375">
        <ele>22</ele>
        <time>2022-05-15T05:15:51.000Z</time>
      </trkpt>
      <trkpt lat="41.4230052195489406585693359375" lon="2.2276143170893192291259765625">
        <ele>22.200000762939453125</ele>
        <time>2022-05-15T05:15:52.000Z</time>
      </trkpt>
      <trkpt lat="41.42300530336797237396240234375" lon="2.22761020995676517486572265625">
        <ele>22.200000762939453125</ele>
        <time>2022-05-15T05:16:04.000Z</time>
      </trkpt>
      <trkpt lat="41.42302189953625202178955078125" lon="2.22760878503322601318359375">
        <ele>22.200000762939453125</ele>
        <time>2022-05-15T05:16:07.000Z</time>
      </trkpt>
      <trkpt lat="41.42305509187281131744384765625" lon="2.22760073840618133544921875">
        <ele>22.200000762939453125</ele>
        <time>2022-05-15T05:16:09.000Z</time>
      </trkpt>
      <trkpt lat="41.42312608659267425537109375" lon="2.22759814001619815826416015625">
        <ele>22.200000762939453125</ele>
        <time>2022-05-15T05:16:12.000Z</time>
      </trkpt>
      <trkpt lat="41.423148214817047119140625" lon="2.22758171148598194122314453125">
        <ele>22.200000762939453125</ele>
        <time>2022-05-15T05:16:13.000Z</time>
      </trkpt>
      <trkpt lat="41.4232097379863262176513671875" lon="2.227513901889324188232421875">
        <ele>22.200000762939453125</ele>
        <time>2022-05-15T05:16:16.000Z</time>
      </trkpt>
      <trkpt lat="41.42323463223874568939208984375" lon="2.22751557826995849609375">
        <ele>22.200000762939453125</ele>
        <time>2022-05-15T05:16:17.000Z</time>
      </trkpt>
      <trkpt lat="41.42334326170384883880615234375" lon="2.22757148556411266326904296875">
        <ele>21.799999237060546875</ele>
        <time>2022-05-15T05:16:21.000Z</time>
      </trkpt>
      <trkpt lat="41.42336622811853885650634765625" lon="2.22759244032204151153564453125">
        <ele>21.6000003814697265625</ele>
        <time>2022-05-15T05:16:22.000Z</time>
      </trkpt>
      <trkpt lat="41.42337687313556671142578125" lon="2.22762596793472766876220703125">
        <ele>21.6000003814697265625</ele>
        <time>2022-05-15T05:16:23.000Z</time>
      </trkpt>
      <trkpt lat="41.423293389379978179931640625" lon="2.227814979851245880126953125">
        <ele>21.200000762939453125</ele>
        <time>2022-05-15T05:16:27.000Z</time>
      </trkpt>
      <trkpt lat="41.42326422035694122314453125" lon="2.2278736531734466552734375">
        <ele>21.200000762939453125</ele>
        <time>2022-05-15T05:16:28.000Z</time>
      </trkpt>
      <trkpt lat="41.42323178239166736602783203125" lon="2.227935679256916046142578125">
        <ele>21</ele>
        <time>2022-05-15T05:16:29.000Z</time>
      </trkpt>
      <trkpt lat="41.423198841512203216552734375" lon="2.22800164483487606048583984375">
        <ele>21</ele>
        <time>2022-05-15T05:16:30.000Z</time>
      </trkpt>
      <trkpt lat="41.4231644757091999053955078125" lon="2.22807104699313640594482421875">
        <ele>20.6000003814697265625</ele>
        <time>2022-05-15T05:16:31.000Z</time>
      </trkpt>
      <trkpt lat="41.42309130169451236724853515625" lon="2.2282181493937969207763671875">
        <ele>20.3999996185302734375</ele>
        <time>2022-05-15T05:16:33.000Z</time>
      </trkpt>
      <trkpt lat="41.42305190674960613250732421875" lon="2.2282962687313556671142578125">
        <ele>20.3999996185302734375</ele>
        <time>2022-05-15T05:16:34.000Z</time>
      </trkpt>
      <trkpt lat="41.42296993173658847808837890625" lon="2.22846231423318386077880859375">
        <ele>19.799999237060546875</ele>
        <time>2022-05-15T05:16:36.000Z</time>
      </trkpt>
      <trkpt lat="41.42288443632423877716064453125" lon="2.22864571027457714080810546875">
        <ele>19.200000762939453125</ele>
        <time>2022-05-15T05:16:38.000Z</time>
      </trkpt>
      <trkpt lat="41.422838084399700164794921875" lon="2.228742353618144989013671875">
        <ele>18.799999237060546875</ele>
        <time>2022-05-15T05:16:39.000Z</time>
      </trkpt>
      <trkpt lat="41.42279240302741527557373046875" lon="2.2288404218852519989013671875">
        <ele>18.3999996185302734375</ele>
        <time>2022-05-15T05:16:40.000Z</time>
      </trkpt>
      <trkpt lat="41.422743536531925201416015625" lon="2.2289371490478515625">
        <ele>18</ele>
        <time>2022-05-15T05:16:41.000Z</time>
      </trkpt>
      <trkpt lat="41.4226967655122280120849609375" lon="2.22903429530560970306396484375">
        <ele>17.6000003814697265625</ele>
        <time>2022-05-15T05:16:42.000Z</time>
      </trkpt>
      <trkpt lat="41.422504819929599761962890625" lon="2.2293989919126033782958984375">
        <ele>16</ele>
        <time>2022-05-15T05:16:46.000Z</time>
      </trkpt>
      <trkpt lat="41.42235738225281238555908203125" lon="2.22972328774631023406982421875">
        <ele>15</ele>
        <time>2022-05-15T05:16:50.000Z</time>
      </trkpt>
      <trkpt lat="41.4223209209740161895751953125" lon="2.2297949530184268951416015625">
        <ele>15.19999980926513671875</ele>
        <time>2022-05-15T05:16:51.000Z</time>
      </trkpt>
      <trkpt lat="41.42228362150490283966064453125" lon="2.22986225970089435577392578125">
        <ele>15.19999980926513671875</ele>
        <time>2022-05-15T05:16:52.000Z</time>
      </trkpt>
      <trkpt lat="41.42221539281308650970458984375" lon="2.22999192774295806884765625">
        <ele>15.19999980926513671875</ele>
        <time>2022-05-15T05:16:54.000Z</time>
      </trkpt>
      <trkpt lat="41.422088406980037689208984375" lon="2.23025889135897159576416015625">
        <ele>15.19999980926513671875</ele>
        <time>2022-05-15T05:16:58.000Z</time>
      </trkpt>
      <trkpt lat="41.42206971533596515655517578125" lon="2.230332233011722564697265625">
        <ele>15.3999996185302734375</ele>
        <time>2022-05-15T05:16:59.000Z</time>
      </trkpt>
      <trkpt lat="41.4220614172518253326416015625" lon="2.23040792159736156463623046875">
        <ele>15.80000019073486328125</ele>
        <time>2022-05-15T05:17:00.000Z</time>
      </trkpt>
      <trkpt lat="41.42209368757903575897216796875" lon="2.230560891330242156982421875">
        <ele>17</ele>
        <time>2022-05-15T05:17:02.000Z</time>
      </trkpt>
      <trkpt lat="41.4221717230975627899169921875" lon="2.23069340921938419342041015625">
        <ele>17.6000003814697265625</ele>
        <time>2022-05-15T05:17:04.000Z</time>
      </trkpt>
      <trkpt lat="41.4222220145165920257568359375" lon="2.23074956797063350677490234375">
        <ele>17.799999237060546875</ele>
        <time>2022-05-15T05:17:05.000Z</time>
      </trkpt>
      <trkpt lat="41.4222756586968898773193359375" lon="2.23080061376094818115234375">
        <ele>17.799999237060546875</ele>
        <time>2022-05-15T05:17:06.000Z</time>
      </trkpt>
      <trkpt lat="41.42233240418136119842529296875" lon="2.2308493964374065399169921875">
        <ele>18</ele>
        <time>2022-05-15T05:17:07.000Z</time>
      </trkpt>
      <trkpt lat="41.422440446913242340087890625" lon="2.230947129428386688232421875">
        <ele>18.200000762939453125</ele>
        <time>2022-05-15T05:17:09.000Z</time>
      </trkpt>
      <trkpt lat="41.42249518074095249176025390625" lon="2.23099381662905216217041015625">
        <ele>18.3999996185302734375</ele>
        <time>2022-05-15T05:17:10.000Z</time>
      </trkpt>
      <trkpt lat="41.4225485734641551971435546875" lon="2.23103798925876617431640625">
        <ele>18.6000003814697265625</ele>
        <time>2022-05-15T05:17:11.000Z</time>
      </trkpt>
      <trkpt lat="41.422601379454135894775390625" lon="2.23108316771686077117919921875">
        <ele>18.799999237060546875</ele>
        <time>2022-05-15T05:17:12.000Z</time>
      </trkpt>
      <trkpt lat="41.42270271666347980499267578125" lon="2.23117520101368427276611328125">
        <ele>19</ele>
        <time>2022-05-15T05:17:14.000Z</time>
      </trkpt>
      <trkpt lat="41.42275166697800159454345703125" lon="2.2312212176620960235595703125">
        <ele>19</ele>
        <time>2022-05-15T05:17:15.000Z</time>
      </trkpt>
      <trkpt lat="41.42280179075896739959716796875" lon="2.23126321099698543548583984375">
        <ele>19.200000762939453125</ele>
        <time>2022-05-15T05:17:16.000Z</time>
      </trkpt>
      <trkpt lat="41.42290958203375339508056640625" lon="2.23129170946776866912841796875">
        <ele>19.200000762939453125</ele>
        <time>2022-05-15T05:17:18.000Z</time>
      </trkpt>
      <trkpt lat="41.42295853234827518463134765625" lon="2.2312684915959835052490234375">
        <ele>19</ele>
        <time>2022-05-15T05:17:19.000Z</time>
      </trkpt>
      <trkpt lat="41.4229993522167205810546875" lon="2.231219708919525146484375">
        <ele>19</ele>
        <time>2022-05-15T05:17:20.000Z</time>
      </trkpt>
      <trkpt lat="41.42303380183875560760498046875" lon="2.23115743137896060943603515625">
        <ele>19.200000762939453125</ele>
        <time>2022-05-15T05:17:21.000Z</time>
      </trkpt>
      <trkpt lat="41.4231681637465953826904296875" lon="2.23089071922004222869873046875">
        <ele>19.200000762939453125</ele>
        <time>2022-05-15T05:17:25.000Z</time>
      </trkpt>
      <trkpt lat="41.4232908748090267181396484375" lon="2.230650074779987335205078125">
        <ele>19.200000762939453125</ele>
        <time>2022-05-15T05:17:29.000Z</time>
      </trkpt>
      <trkpt lat="41.4233176968991756439208984375" lon="2.23059684969484806060791015625">
        <ele>19.200000762939453125</ele>
        <time>2022-05-15T05:17:30.000Z</time>
      </trkpt>
      <trkpt lat="41.42335918731987476348876953125" lon="2.23051487468183040618896484375">
        <ele>19</ele>
        <time>2022-05-15T05:17:32.000Z</time>
      </trkpt>
      <trkpt lat="41.423389613628387451171875" lon="2.23045335151255130767822265625">
        <ele>19.200000762939453125</ele>
        <time>2022-05-15T05:17:34.000Z</time>
      </trkpt>
      <trkpt lat="41.42347075045108795166015625" lon="2.23038059659302234649658203125">
        <ele>19.3999996185302734375</ele>
        <time>2022-05-15T05:17:38.000Z</time>
      </trkpt>
      <trkpt lat="41.423575691878795623779296875" lon="2.23042535595595836639404296875">
        <ele>19.6000003814697265625</ele>
        <time>2022-05-15T05:17:42.000Z</time>
      </trkpt>
      <trkpt lat="41.42364643514156341552734375" lon="2.2304718755185604095458984375">
        <ele>20</ele>
        <time>2022-05-15T05:17:46.000Z</time>
      </trkpt>
      <trkpt lat="41.42367702908813953399658203125" lon="2.2304953448474407196044921875">
        <ele>20</ele>
        <time>2022-05-15T05:17:48.000Z</time>
      </trkpt>
      <trkpt lat="41.4237716607749462127685546875" lon="2.2305701114237308502197265625">
        <ele>20</ele>
        <time>2022-05-15T05:17:53.000Z</time>
      </trkpt>
      <trkpt lat="41.423927061259746551513671875" lon="2.230704724788665771484375">
        <ele>20</ele>
        <time>2022-05-15T05:17:59.000Z</time>
      </trkpt>
      <trkpt lat="41.42412093468010425567626953125" lon="2.23086607642471790313720703125">
        <ele>19.799999237060546875</ele>
        <time>2022-05-15T05:18:06.000Z</time>
      </trkpt>
      <trkpt lat="41.424338109791278839111328125" lon="2.23103673197329044342041015625">
        <ele>19.6000003814697265625</ele>
        <time>2022-05-15T05:18:14.000Z</time>
      </trkpt>
      <trkpt lat="41.42440893687307834625244140625" lon="2.23109389655292034149169921875">
        <ele>19.6000003814697265625</ele>
        <time>2022-05-15T05:18:16.000Z</time>
      </trkpt>
      <trkpt lat="41.4244448952376842498779296875" lon="2.231126166880130767822265625">
        <ele>19.6000003814697265625</ele>
        <time>2022-05-15T05:18:17.000Z</time>
      </trkpt>
      <trkpt lat="41.42452091909945011138916015625" lon="2.2311923839151859283447265625">
        <ele>19.6000003814697265625</ele>
        <time>2022-05-15T05:18:19.000Z</time>
      </trkpt>
      <trkpt lat="41.42456282861530780792236328125" lon="2.2312245704233646392822265625">
        <ele>19.6000003814697265625</ele>
        <time>2022-05-15T05:18:20.000Z</time>
      </trkpt>
      <trkpt lat="41.4247362501919269561767578125" lon="2.23135289736092090606689453125">
        <ele>19.6000003814697265625</ele>
        <time>2022-05-15T05:18:24.000Z</time>
      </trkpt>
      <trkpt lat="41.4247734658420085906982421875" lon="2.23138659261167049407958984375">
        <ele>19.3999996185302734375</ele>
        <time>2022-05-15T05:18:25.000Z</time>
      </trkpt>
      <trkpt lat="41.42484915442764759063720703125" lon="2.2314542345702648162841796875">
        <ele>19.200000762939453125</ele>
        <time>2022-05-15T05:18:27.000Z</time>
      </trkpt>
      <trkpt lat="41.4251067303121089935302734375" lon="2.2316748462617397308349609375">
        <ele>19</ele>
        <time>2022-05-15T05:18:33.000Z</time>
      </trkpt>
      <trkpt lat="41.4252026192843914031982421875" lon="2.23175338469445705413818359375">
        <ele>18.799999237060546875</ele>
        <time>2022-05-15T05:18:35.000Z</time>
      </trkpt>
      <trkpt lat="41.4253454469144344329833984375" lon="2.23187358118593692779541015625">
        <ele>18.799999237060546875</ele>
        <time>2022-05-15T05:18:38.000Z</time>
      </trkpt>
      <trkpt lat="41.42559112049639225006103515625" lon="2.2320869006216526031494140625">
        <ele>18.799999237060546875</ele>
        <time>2022-05-15T05:18:43.000Z</time>
      </trkpt>
      <trkpt lat="41.42608917318284511566162109375" lon="2.2325004637241363525390625">
        <ele>18.3999996185302734375</ele>
        <time>2022-05-15T05:18:52.000Z</time>
      </trkpt>
      <trkpt lat="41.42614566721022129058837890625" lon="2.23254815675318241119384765625">
        <ele>18.200000762939453125</ele>
        <time>2022-05-15T05:18:53.000Z</time>
      </trkpt>
      <trkpt lat="41.42659259028732776641845703125" lon="2.23292031325399875640869140625">
        <ele>18</ele>
        <time>2022-05-15T05:19:01.000Z</time>
      </trkpt>
      <trkpt lat="41.4267049916088581085205078125" lon="2.23301209509372711181640625">
        <ele>18</ele>
        <time>2022-05-15T05:19:03.000Z</time>
      </trkpt>
      <trkpt lat="41.42715275287628173828125" lon="2.2333830781280994415283203125">
        <ele>18</ele>
        <time>2022-05-15T05:19:11.000Z</time>
      </trkpt>
      <trkpt lat="41.42726339399814605712890625" lon="2.23347938619554042816162109375">
        <ele>17.799999237060546875</ele>
        <time>2022-05-15T05:19:13.000Z</time>
      </trkpt>
      <trkpt lat="41.42737395130097866058349609375" lon="2.2335795499384403228759765625">
        <ele>17.799999237060546875</ele>
        <time>2022-05-15T05:19:15.000Z</time>
      </trkpt>
      <trkpt lat="41.42742994241416454315185546875" lon="2.23362724296748638153076171875">
        <ele>17.799999237060546875</ele>
        <time>2022-05-15T05:19:16.000Z</time>
      </trkpt>
      <trkpt lat="41.4276434294879436492919921875" lon="2.2337984852492809295654296875">
        <ele>17.3999996185302734375</ele>
        <time>2022-05-15T05:19:20.000Z</time>
      </trkpt>
      <trkpt lat="41.42797074280679225921630859375" lon="2.23407919518649578094482421875">
        <ele>17.6000003814697265625</ele>
        <time>2022-05-15T05:19:27.000Z</time>
      </trkpt>
      <trkpt lat="41.42805540002882480621337890625" lon="2.23414809443056583404541015625">
        <ele>17.3999996185302734375</ele>
        <time>2022-05-15T05:19:29.000Z</time>
      </trkpt>
      <trkpt lat="41.42817802727222442626953125" lon="2.23423845134675502777099609375">
        <ele>17.799999237060546875</ele>
        <time>2022-05-15T05:19:33.000Z</time>
      </trkpt>
      <trkpt lat="41.42820728011429309844970703125" lon="2.2342578135430812835693359375">
        <ele>18</ele>
        <time>2022-05-15T05:19:35.000Z</time>
      </trkpt>
      <trkpt lat="41.4282201044261455535888671875" lon="2.2342651896178722381591796875">
        <ele>18.200000762939453125</ele>
        <time>2022-05-15T05:19:37.000Z</time>
      </trkpt>
      <trkpt lat="41.4282204397022724151611328125" lon="2.23426493816077709197998046875">
        <ele>18.200000762939453125</ele>
        <time>2022-05-15T05:19:38.000Z</time>
      </trkpt>
      <trkpt lat="41.42821851186454296112060546875" lon="2.23426401615142822265625">
        <ele>18.6000003814697265625</ele>
        <time>2022-05-15T05:19:50.000Z</time>
      </trkpt>
      <trkpt lat="41.42821800895035266876220703125" lon="2.23426334559917449951171875">
        <ele>18.6000003814697265625</ele>
        <time>2022-05-15T05:19:55.000Z</time>
      </trkpt>
      <trkpt lat="41.428217925131320953369140625" lon="2.234262339770793914794921875">
        <ele>18.799999237060546875</ele>
        <time>2022-05-15T05:20:11.000Z</time>
      </trkpt>
      <trkpt lat="41.42821784131228923797607421875" lon="2.23426208831369876861572265625">
        <ele>19</ele>
        <time>2022-05-15T05:20:13.000Z</time>
      </trkpt>
      <trkpt lat="41.42821784131228923797607421875" lon="2.2342618368566036224365234375">
        <ele>19</ele>
        <time>2022-05-15T05:20:14.000Z</time>
      </trkpt>
      <trkpt lat="41.42821784131228923797607421875" lon="2.23426141776144504547119140625">
        <ele>19</ele>
        <time>2022-05-15T05:20:19.000Z</time>
      </trkpt>
      <trkpt lat="41.4282177574932575225830078125" lon="2.23426125012338161468505859375">
        <ele>19</ele>
        <time>2022-05-15T05:20:22.000Z</time>
      </trkpt>
      <trkpt lat="41.42821750603616237640380859375" lon="2.234260998666286468505859375">
        <ele>19</ele>
        <time>2022-05-15T05:20:26.000Z</time>
      </trkpt>
      <trkpt lat="41.428217254579067230224609375" lon="2.2342608310282230377197265625">
        <ele>19.200000762939453125</ele>
        <time>2022-05-15T05:20:33.000Z</time>
      </trkpt>
      <trkpt lat="41.428216584026813507080078125" lon="2.23426041193306446075439453125">
        <ele>19.200000762939453125</ele>
        <time>2022-05-15T05:20:41.000Z</time>
      </trkpt>
      <trkpt lat="41.42821633256971836090087890625" lon="2.234260328114032745361328125">
        <ele>19.3999996185302734375</ele>
        <time>2022-05-15T05:20:44.000Z</time>
      </trkpt>
      <trkpt lat="41.4282162487506866455078125" lon="2.234260328114032745361328125">
        <ele>19.200000762939453125</ele>
        <time>2022-05-15T05:20:45.000Z</time>
      </trkpt>
      <trkpt lat="41.4282157458364963531494140625" lon="2.23425923846662044525146484375">
        <ele>19.200000762939453125</ele>
        <time>2022-05-15T05:20:54.000Z</time>
      </trkpt>
      <trkpt lat="41.42821566201746463775634765625" lon="2.23425923846662044525146484375">
        <ele>19</ele>
        <time>2022-05-15T05:20:58.000Z</time>
      </trkpt>
      <trkpt lat="41.42821566201746463775634765625" lon="2.23425923846662044525146484375">
        <ele>19.200000762939453125</ele>
        <time>2022-05-15T05:21:01.000Z</time>
      </trkpt>
      <trkpt lat="41.42822764813899993896484375" lon="2.23426057957112789154052734375">
        <ele>19.200000762939453125</ele>
        <time>2022-05-15T05:21:02.000Z</time>
      </trkpt>
      <trkpt lat="41.42824198119342327117919921875" lon="2.23426225595176219940185546875">
        <ele>19.200000762939453125</ele>
        <time>2022-05-15T05:21:03.000Z</time>
      </trkpt>
      <trkpt lat="41.4283005706965923309326171875" lon="2.2342883236706256866455078125">
        <ele>19.200000762939453125</ele>
        <time>2022-05-15T05:21:06.000Z</time>
      </trkpt>
      <trkpt lat="41.42836955375969409942626953125" lon="2.2343161515891551971435546875">
        <ele>19.200000762939453125</ele>
        <time>2022-05-15T05:21:08.000Z</time>
      </trkpt>
      <trkpt lat="41.4285017363727092742919921875" lon="2.2343724779784679412841796875">
        <ele>19.200000762939453125</ele>
        <time>2022-05-15T05:21:11.000Z</time>
      </trkpt>
      <trkpt lat="41.4285946078598499298095703125" lon="2.234426625072956085205078125">
        <ele>19.200000762939453125</ele>
        <time>2022-05-15T05:21:13.000Z</time>
      </trkpt>
      <trkpt lat="41.42864246852695941925048828125" lon="2.23445554263889789581298828125">
        <ele>19.200000762939453125</ele>
        <time>2022-05-15T05:21:14.000Z</time>
      </trkpt>
      <trkpt lat="41.42868991009891033172607421875" lon="2.2344874776899814605712890625">
        <ele>19.200000762939453125</ele>
        <time>2022-05-15T05:21:15.000Z</time>
      </trkpt>
      <trkpt lat="41.4288318157196044921875" lon="2.234600968658924102783203125">
        <ele>19.200000762939453125</ele>
        <time>2022-05-15T05:21:18.000Z</time>
      </trkpt>
      <trkpt lat="41.42898377962410449981689453125" lon="2.23472745157778263092041015625">
        <ele>19.200000762939453125</ele>
        <time>2022-05-15T05:21:21.000Z</time>
      </trkpt>
      <trkpt lat="41.42903708852827548980712890625" lon="2.2347717918455600738525390625">
        <ele>19</ele>
        <time>2022-05-15T05:21:22.000Z</time>
      </trkpt>
      <trkpt lat="41.429090984165668487548828125" lon="2.2348173893988132476806640625">
        <ele>19.200000762939453125</ele>
        <time>2022-05-15T05:21:23.000Z</time>
      </trkpt>
      <trkpt lat="41.429145298898220062255859375" lon="2.23486457951366901397705078125">
        <ele>19</ele>
        <time>2022-05-15T05:21:24.000Z</time>
      </trkpt>
      <trkpt lat="41.42942718230187892913818359375" lon="2.23510111682116985321044921875">
        <ele>19</ele>
        <time>2022-05-15T05:21:29.000Z</time>
      </trkpt>
      <trkpt lat="41.42954268492758274078369140625" lon="2.23519901745021343231201171875">
        <ele>19</ele>
        <time>2022-05-15T05:21:31.000Z</time>
      </trkpt>
      <trkpt lat="41.42959968186914920806884765625" lon="2.23524930886924266815185546875">
        <ele>19</ele>
        <time>2022-05-15T05:21:32.000Z</time>
      </trkpt>
      <trkpt lat="41.429709233343601226806640625" lon="2.235351316630840301513671875">
        <ele>19</ele>
        <time>2022-05-15T05:21:34.000Z</time>
      </trkpt>
      <trkpt lat="41.4298113249242305755615234375" lon="2.23546606488525867462158203125">
        <ele>19.200000762939453125</ele>
        <time>2022-05-15T05:21:36.000Z</time>
      </trkpt>
      <trkpt lat="41.4298631250858306884765625" lon="2.23552532494068145751953125">
        <ele>19.200000762939453125</ele>
        <time>2022-05-15T05:21:37.000Z</time>
      </trkpt>
      <trkpt lat="41.42991743981838226318359375" lon="2.23558307625353336334228515625">
        <ele>19.200000762939453125</ele>
        <time>2022-05-15T05:21:38.000Z</time>
      </trkpt>
      <trkpt lat="41.4302186854183673858642578125" lon="2.23584274761378765106201171875">
        <ele>19</ele>
        <time>2022-05-15T05:21:43.000Z</time>
      </trkpt>
      <trkpt lat="41.43034282140433788299560546875" lon="2.235947437584400177001953125">
        <ele>18.799999237060546875</ele>
        <time>2022-05-15T05:21:45.000Z</time>
      </trkpt>
      <trkpt lat="41.43053091131150722503662109375" lon="2.23611013032495975494384765625">
        <ele>18.799999237060546875</ele>
        <time>2022-05-15T05:21:48.000Z</time>
      </trkpt>
      <trkpt lat="41.430784799158573150634765625" lon="2.23632085137069225311279296875">
        <ele>18.799999237060546875</ele>
        <time>2022-05-15T05:21:52.000Z</time>
      </trkpt>
      <trkpt lat="41.4309673570096492767333984375" lon="2.23647541366517543792724609375">
        <ele>18.799999237060546875</ele>
        <time>2022-05-15T05:21:55.000Z</time>
      </trkpt>
      <trkpt lat="41.43108378164470195770263671875" lon="2.23657582886517047882080078125">
        <ele>19</ele>
        <time>2022-05-15T05:21:57.000Z</time>
      </trkpt>
      <trkpt lat="41.43120213411748409271240234375" lon="2.2366775013506412506103515625">
        <ele>19</ele>
        <time>2022-05-15T05:21:59.000Z</time>
      </trkpt>
      <trkpt lat="41.43132283352315425872802734375" lon="2.23677783273160457611083984375">
        <ele>18.799999237060546875</ele>
        <time>2022-05-15T05:22:01.000Z</time>
      </trkpt>
      <trkpt lat="41.4316871948540210723876953125" lon="2.2370667569339275360107421875">
        <ele>19</ele>
        <time>2022-05-15T05:22:07.000Z</time>
      </trkpt>
      <trkpt lat="41.4317475445568561553955078125" lon="2.237113527953624725341796875">
        <ele>18.799999237060546875</ele>
        <time>2022-05-15T05:22:08.000Z</time>
      </trkpt>
      <trkpt lat="41.43192348070442676544189453125" lon="2.23725736141204833984375">
        <ele>19</ele>
        <time>2022-05-15T05:22:11.000Z</time>
      </trkpt>
      <trkpt lat="41.43227334134280681610107421875" lon="2.237558104097843170166015625">
        <ele>19.200000762939453125</ele>
        <time>2022-05-15T05:22:17.000Z</time>
      </trkpt>
      <trkpt lat="41.43233151175081729888916015625" lon="2.237607054412364959716796875">
        <ele>19.200000762939453125</ele>
        <time>2022-05-15T05:22:18.000Z</time>
      </trkpt>
      <trkpt lat="41.43250552006065845489501953125" lon="2.23775030113756656646728515625">
        <ele>19.200000762939453125</ele>
        <time>2022-05-15T05:22:21.000Z</time>
      </trkpt>
      <trkpt lat="41.4325646124780178070068359375" lon="2.23779556341469287872314453125">
        <ele>19.200000762939453125</ele>
        <time>2022-05-15T05:22:22.000Z</time>
      </trkpt>
      <trkpt lat="41.43306492827832698822021484375" lon="2.2381936199963092803955078125">
        <ele>19.6000003814697265625</ele>
        <time>2022-05-15T05:22:31.000Z</time>
      </trkpt>
      <trkpt lat="41.43321529962122440338134765625" lon="2.2383223660290241241455078125">
        <ele>19.799999237060546875</ele>
        <time>2022-05-15T05:22:34.000Z</time>
      </trkpt>
      <trkpt lat="41.43335997126996517181396484375" lon="2.238432504236698150634765625">
        <ele>19.799999237060546875</ele>
        <time>2022-05-15T05:22:37.000Z</time>
      </trkpt>
      <trkpt lat="41.4333997853100299835205078125" lon="2.23846770823001861572265625">
        <ele>20</ele>
        <time>2022-05-15T05:22:38.000Z</time>
      </trkpt>
      <trkpt lat="41.43347346223890781402587890625" lon="2.2385345958173274993896484375">
        <ele>20</ele>
        <time>2022-05-15T05:22:40.000Z</time>
      </trkpt>
      <trkpt lat="41.433554179966449737548828125" lon="2.238596118986606597900390625">
        <ele>20</ele>
        <time>2022-05-15T05:22:42.000Z</time>
      </trkpt>
      <trkpt lat="41.43364713527262210845947265625" lon="2.23865940235555171966552734375">
        <ele>20</ele>
        <time>2022-05-15T05:22:44.000Z</time>
      </trkpt>
      <trkpt lat="41.43374168314039707183837890625" lon="2.23873483948409557342529296875">
        <ele>20</ele>
        <time>2022-05-15T05:22:46.000Z</time>
      </trkpt>
      <trkpt lat="41.4339476265013217926025390625" lon="2.23889795131981372833251953125">
        <ele>19.799999237060546875</ele>
        <time>2022-05-15T05:22:50.000Z</time>
      </trkpt>
      <trkpt lat="41.4341707527637481689453125" lon="2.23908595740795135498046875">
        <ele>19.799999237060546875</ele>
        <time>2022-05-15T05:22:54.000Z</time>
      </trkpt>
      <trkpt lat="41.43426136113703250885009765625" lon="2.23915745504200458526611328125">
        <ele>19.200000762939453125</ele>
        <time>2022-05-15T05:22:56.000Z</time>
      </trkpt>
      <trkpt lat="41.43430377356708049774169921875" lon="2.23921428434550762176513671875">
        <ele>19</ele>
        <time>2022-05-15T05:22:58.000Z</time>
      </trkpt>
      <trkpt lat="41.43430947326123714447021484375" lon="2.23925451748073101043701171875">
        <ele>18.799999237060546875</ele>
        <time>2022-05-15T05:22:59.000Z</time>
      </trkpt>
      <trkpt lat="41.43428516574203968048095703125" lon="2.23940270952880382537841796875">
        <ele>18.6000003814697265625</ele>
        <time>2022-05-15T05:23:02.000Z</time>
      </trkpt>
      <trkpt lat="41.434283070266246795654296875" lon="2.23946222104132175445556640625">
        <ele>18.6000003814697265625</ele>
        <time>2022-05-15T05:23:03.000Z</time>
      </trkpt>
      <trkpt lat="41.4342929609119892120361328125" lon="2.23951938562095165252685546875">
        <ele>18.6000003814697265625</ele>
        <time>2022-05-15T05:23:04.000Z</time>
      </trkpt>
      <trkpt lat="41.43435741774737834930419921875" lon="2.23958610557019710540771484375">
        <ele>18.3999996185302734375</ele>
        <time>2022-05-15T05:23:06.000Z</time>
      </trkpt>
      <trkpt lat="41.43444861285388469696044921875" lon="2.23957789130508899688720703125">
        <ele>18.200000762939453125</ele>
        <time>2022-05-15T05:23:08.000Z</time>
      </trkpt>
      <trkpt lat="41.43449571914970874786376953125" lon="2.23957286216318607330322265625">
        <ele>18.3999996185302734375</ele>
        <time>2022-05-15T05:23:09.000Z</time>
      </trkpt>
      <trkpt lat="41.4345420710742473602294921875" lon="2.2395897097885608673095703125">
        <ele>18.200000762939453125</ele>
        <time>2022-05-15T05:23:10.000Z</time>
      </trkpt>
      <trkpt lat="41.43462697975337505340576171875" lon="2.23967009223997592926025390625">
        <ele>18.200000762939453125</ele>
        <time>2022-05-15T05:23:12.000Z</time>
      </trkpt>
      <trkpt lat="41.43466905690729618072509765625" lon="2.2397120855748653411865234375">
        <ele>18.200000762939453125</ele>
        <time>2022-05-15T05:23:13.000Z</time>
      </trkpt>
      <trkpt lat="41.434714235365390777587890625" lon="2.23975055851042270660400390625">
        <ele>18.200000762939453125</ele>
        <time>2022-05-15T05:23:14.000Z</time>
      </trkpt>
      <trkpt lat="41.434809453785419464111328125" lon="2.2398233972489833831787109375">
        <ele>18.200000762939453125</ele>
        <time>2022-05-15T05:23:16.000Z</time>
      </trkpt>
      <trkpt lat="41.434855721890926361083984375" lon="2.2398649714887142181396484375">
        <ele>18.200000762939453125</ele>
        <time>2022-05-15T05:23:17.000Z</time>
      </trkpt>
      <trkpt lat="41.43516920506954193115234375" lon="2.240137048065662384033203125">
        <ele>17.799999237060546875</ele>
        <time>2022-05-15T05:23:23.000Z</time>
      </trkpt>
      <trkpt lat="41.4352221786975860595703125" lon="2.24018205888569355010986328125">
        <ele>17.799999237060546875</ele>
        <time>2022-05-15T05:23:24.000Z</time>
      </trkpt>
      <trkpt lat="41.43570053391158580780029296875" lon="2.24058422259986400604248046875">
        <ele>17.6000003814697265625</ele>
        <time>2022-05-15T05:23:33.000Z</time>
      </trkpt>
      <trkpt lat="41.43575333990156650543212890625" lon="2.2406260482966899871826171875">
        <ele>17.6000003814697265625</ele>
        <time>2022-05-15T05:23:34.000Z</time>
      </trkpt>
      <trkpt lat="41.43580597825348377227783203125" lon="2.240665443241596221923828125">
        <ele>17.6000003814697265625</ele>
        <time>2022-05-15T05:23:35.000Z</time>
      </trkpt>
      <trkpt lat="41.43586146645247936248779296875" lon="2.2406972944736480712890625">
        <ele>17.3999996185302734375</ele>
        <time>2022-05-15T05:23:36.000Z</time>
      </trkpt>
      <trkpt lat="41.435978226363658905029296875" lon="2.24075605161488056182861328125">
        <ele>17</ele>
        <time>2022-05-15T05:23:38.000Z</time>
      </trkpt>
      <trkpt lat="41.43603329546749591827392578125" lon="2.240793518722057342529296875">
        <ele>17</ele>
        <time>2022-05-15T05:23:39.000Z</time>
      </trkpt>
      <trkpt lat="41.43619255162775516510009765625" lon="2.24092595279216766357421875">
        <ele>16.799999237060546875</ele>
        <time>2022-05-15T05:23:42.000Z</time>
      </trkpt>
      <trkpt lat="41.4362449385225772857666015625" lon="2.24096895195543766021728515625">
        <ele>17</ele>
        <time>2022-05-15T05:23:43.000Z</time>
      </trkpt>
      <trkpt lat="41.4362969063222408294677734375" lon="2.241012118756771087646484375">
        <ele>17</ele>
        <time>2022-05-15T05:23:44.000Z</time>
      </trkpt>
      <trkpt lat="41.43634929321706295013427734375" lon="2.2410552017390727996826171875">
        <ele>17</ele>
        <time>2022-05-15T05:23:45.000Z</time>
      </trkpt>
      <trkpt lat="41.436454989016056060791015625" lon="2.241142876446247100830078125">
        <ele>17</ele>
        <time>2022-05-15T05:23:47.000Z</time>
      </trkpt>
      <trkpt lat="41.43666327930986881256103515625" lon="2.241321243345737457275390625">
        <ele>17</ele>
        <time>2022-05-15T05:23:51.000Z</time>
      </trkpt>
      <trkpt lat="41.43671642057597637176513671875" lon="2.24136608652770519256591796875">
        <ele>16.799999237060546875</ele>
        <time>2022-05-15T05:23:52.000Z</time>
      </trkpt>
      <trkpt lat="41.4367696456611156463623046875" lon="2.24141134880483150482177734375">
        <ele>16.799999237060546875</ele>
        <time>2022-05-15T05:23:53.000Z</time>
      </trkpt>
      <trkpt lat="41.4368229545652866363525390625" lon="2.24145594052970409393310546875">
        <ele>16.799999237060546875</ele>
        <time>2022-05-15T05:23:54.000Z</time>
      </trkpt>
      <trkpt lat="41.436874754726886749267578125" lon="2.24149885587394237518310546875">
        <ele>16.799999237060546875</ele>
        <time>2022-05-15T05:23:55.000Z</time>
      </trkpt>
      <trkpt lat="41.43692613579332828521728515625" lon="2.2415396757423877716064453125">
        <ele>16.799999237060546875</ele>
        <time>2022-05-15T05:23:56.000Z</time>
      </trkpt>
      <trkpt lat="41.43697743304073810577392578125" lon="2.24157747812569141387939453125">
        <ele>16.799999237060546875</ele>
        <time>2022-05-15T05:23:57.000Z</time>
      </trkpt>
      <trkpt lat="41.43707332201302051544189453125" lon="2.24166347645223140716552734375">
        <ele>16.6000003814697265625</ele>
        <time>2022-05-15T05:23:59.000Z</time>
      </trkpt>
      <trkpt lat="41.437144987285137176513671875" lon="2.2417609579861164093017578125">
        <ele>16.6000003814697265625</ele>
        <time>2022-05-15T05:24:01.000Z</time>
      </trkpt>
      <trkpt lat="41.4372366853058338165283203125" lon="2.2419316135346889495849609375">
        <ele>16.799999237060546875</ele>
        <time>2022-05-15T05:24:04.000Z</time>
      </trkpt>
      <trkpt lat="41.4372782595455646514892578125" lon="2.241980396211147308349609375">
        <ele>16.799999237060546875</ele>
        <time>2022-05-15T05:24:05.000Z</time>
      </trkpt>
      <trkpt lat="41.437328048050403594970703125" lon="2.24201652221381664276123046875">
        <ele>16.799999237060546875</ele>
        <time>2022-05-15T05:24:06.000Z</time>
      </trkpt>
      <trkpt lat="41.43750138580799102783203125" lon="2.24209983833134174346923828125">
        <ele>16.6000003814697265625</ele>
        <time>2022-05-15T05:24:09.000Z</time>
      </trkpt>
      <trkpt lat="41.437619738280773162841796875" lon="2.24215708673000335693359375">
        <ele>16.6000003814697265625</ele>
        <time>2022-05-15T05:24:11.000Z</time>
      </trkpt>
      <trkpt lat="41.43780841492116451263427734375" lon="2.2422575019299983978271484375">
        <ele>16.799999237060546875</ele>
        <time>2022-05-15T05:24:14.000Z</time>
      </trkpt>
      <trkpt lat="41.43787194974720478057861328125" lon="2.2422883473336696624755859375">
        <ele>16.799999237060546875</ele>
        <time>2022-05-15T05:24:15.000Z</time>
      </trkpt>
      <trkpt lat="41.43799985758960247039794921875" lon="2.24235079251229763031005859375">
        <ele>16.6000003814697265625</ele>
        <time>2022-05-15T05:24:17.000Z</time>
      </trkpt>
      <trkpt lat="41.43813061527907848358154296875" lon="2.2424123995006084442138671875">
        <ele>16.799999237060546875</ele>
        <time>2022-05-15T05:24:19.000Z</time>
      </trkpt>
      <trkpt lat="41.43818593584001064300537109375" lon="2.24244651384651660919189453125">
        <ele>16.799999237060546875</ele>
        <time>2022-05-15T05:24:20.000Z</time>
      </trkpt>
      <trkpt lat="41.43838760443031787872314453125" lon="2.24261130206286907196044921875">
        <ele>16.799999237060546875</ele>
        <time>2022-05-15T05:24:24.000Z</time>
      </trkpt>
      <trkpt lat="41.43848483450710773468017578125" lon="2.24269981496036052703857421875">
        <ele>17.200000762939453125</ele>
        <time>2022-05-15T05:24:26.000Z</time>
      </trkpt>
      <trkpt lat="41.43853160552680492401123046875" lon="2.242744825780391693115234375">
        <ele>17.200000762939453125</ele>
        <time>2022-05-15T05:24:27.000Z</time>
      </trkpt>
      <trkpt lat="41.43858072347939014434814453125" lon="2.2427858971059322357177734375">
        <ele>17.6000003814697265625</ele>
        <time>2022-05-15T05:24:28.000Z</time>
      </trkpt>
      <trkpt lat="41.438723467290401458740234375" lon="2.24290131591260433197021484375">
        <ele>18.3999996185302734375</ele>
        <time>2022-05-15T05:24:31.000Z</time>
      </trkpt>
      <trkpt lat="41.43886336125433444976806640625" lon="2.243030481040477752685546875">
        <ele>19</ele>
        <time>2022-05-15T05:24:34.000Z</time>
      </trkpt>
      <trkpt lat="41.43891298212110996246337890625" lon="2.2430712170898914337158203125">
        <ele>19.200000762939453125</ele>
        <time>2022-05-15T05:24:35.000Z</time>
      </trkpt>
      <trkpt lat="41.43906586803495883941650390625" lon="2.24319116212427616119384765625">
        <ele>19.3999996185302734375</ele>
        <time>2022-05-15T05:24:38.000Z</time>
      </trkpt>
      <trkpt lat="41.4392138086259365081787109375" lon="2.2433146275579929351806640625">
        <ele>19.3999996185302734375</ele>
        <time>2022-05-15T05:24:41.000Z</time>
      </trkpt>
      <trkpt lat="41.439263932406902313232421875" lon="2.24335712380707263946533203125">
        <ele>19.6000003814697265625</ele>
        <time>2022-05-15T05:24:42.000Z</time>
      </trkpt>
      <trkpt lat="41.43931229598820209503173828125" lon="2.24340070970356464385986328125">
        <ele>19.799999237060546875</ele>
        <time>2022-05-15T05:24:43.000Z</time>
      </trkpt>
      <trkpt lat="41.439458392560482025146484375" lon="2.2435258515179157257080078125">
        <ele>19.6000003814697265625</ele>
        <time>2022-05-15T05:24:46.000Z</time>
      </trkpt>
      <trkpt lat="41.43978486768901348114013671875" lon="2.24380019120872020721435546875">
        <ele>19.6000003814697265625</ele>
        <time>2022-05-15T05:24:52.000Z</time>
      </trkpt>
      <trkpt lat="41.43983968533575534820556640625" lon="2.2438470460474491119384765625">
        <ele>19.799999237060546875</ele>
        <time>2022-05-15T05:24:53.000Z</time>
      </trkpt>
      <trkpt lat="41.43989483825862407684326171875" lon="2.24389323033392429351806640625">
        <ele>19.799999237060546875</ele>
        <time>2022-05-15T05:24:54.000Z</time>
      </trkpt>
      <trkpt lat="41.44000648520886898040771484375" lon="2.2439865209162235260009765625">
        <ele>19.6000003814697265625</ele>
        <time>2022-05-15T05:24:56.000Z</time>
      </trkpt>
      <trkpt lat="41.4400623925030231475830078125" lon="2.2440326213836669921875">
        <ele>19.799999237060546875</ele>
        <time>2022-05-15T05:24:57.000Z</time>
      </trkpt>
      <trkpt lat="41.44011930562555789947509765625" lon="2.2440797276794910430908203125">
        <ele>19.799999237060546875</ele>
        <time>2022-05-15T05:24:58.000Z</time>
      </trkpt>
      <trkpt lat="41.44017412327229976654052734375" lon="2.24412524141371250152587890625">
        <ele>19.799999237060546875</ele>
        <time>2022-05-15T05:24:59.000Z</time>
      </trkpt>
      <trkpt lat="41.44033824093639850616455078125" lon="2.2442597709596157073974609375">
        <ele>19.6000003814697265625</ele>
        <time>2022-05-15T05:25:02.000Z</time>
      </trkpt>
      <trkpt lat="41.44049162976443767547607421875" lon="2.24438759498298168182373046875">
        <ele>19.6000003814697265625</ele>
        <time>2022-05-15T05:25:05.000Z</time>
      </trkpt>
      <trkpt lat="41.44075079821050167083740234375" lon="2.2445940412580966949462890625">
        <ele>19.6000003814697265625</ele>
        <time>2022-05-15T05:25:10.000Z</time>
      </trkpt>
      <trkpt lat="41.44100795499980449676513671875" lon="2.24479596130549907684326171875">
        <ele>19.6000003814697265625</ele>
        <time>2022-05-15T05:25:15.000Z</time>
      </trkpt>
      <trkpt lat="41.441052295267581939697265625" lon="2.244840972125530242919921875">
        <ele>19.6000003814697265625</ele>
        <time>2022-05-15T05:25:16.000Z</time>
      </trkpt>
      <trkpt lat="41.44114977680146694183349609375" lon="2.24491699598729610443115234375">
        <ele>19.6000003814697265625</ele>
        <time>2022-05-15T05:25:18.000Z</time>
      </trkpt>
      <trkpt lat="41.44130685366690158843994140625" lon="2.2450315766036510467529296875">
        <ele>19.6000003814697265625</ele>
        <time>2022-05-15T05:25:21.000Z</time>
      </trkpt>
      <trkpt lat="41.4415707997977733612060546875" lon="2.24524833261966705322265625">
        <ele>20</ele>
        <time>2022-05-15T05:25:26.000Z</time>
      </trkpt>
      <trkpt lat="41.44162486307322978973388671875" lon="2.24528999067842960357666015625">
        <ele>20</ele>
        <time>2022-05-15T05:25:27.000Z</time>
      </trkpt>
      <trkpt lat="41.44189895130693912506103515625" lon="2.24551387131214141845703125">
        <ele>20.200000762939453125</ele>
        <time>2022-05-15T05:25:32.000Z</time>
      </trkpt>
      <trkpt lat="41.44195343367755413055419921875" lon="2.245561145246028900146484375">
        <ele>20.200000762939453125</ele>
        <time>2022-05-15T05:25:33.000Z</time>
      </trkpt>
      <trkpt lat="41.4420079998672008514404296875" lon="2.2456089220941066741943359375">
        <ele>20</ele>
        <time>2022-05-15T05:25:34.000Z</time>
      </trkpt>
      <trkpt lat="41.4421142823994159698486328125" lon="2.24570573307573795318603515625">
        <ele>20</ele>
        <time>2022-05-15T05:25:36.000Z</time>
      </trkpt>
      <trkpt lat="41.44249959848821163177490234375" lon="2.246041260659694671630859375">
        <ele>19.799999237060546875</ele>
        <time>2022-05-15T05:25:43.000Z</time>
      </trkpt>
      <trkpt lat="41.442759521305561065673828125" lon="2.2462902031838893890380859375">
        <ele>19.799999237060546875</ele>
        <time>2022-05-15T05:25:48.000Z</time>
      </trkpt>
      <trkpt lat="41.44281215965747833251953125" lon="2.2463341243565082550048828125">
        <ele>19.6000003814697265625</ele>
        <time>2022-05-15T05:25:49.000Z</time>
      </trkpt>
      <trkpt lat="41.44286287017166614532470703125" lon="2.24638022482395172119140625">
        <ele>19.799999237060546875</ele>
        <time>2022-05-15T05:25:50.000Z</time>
      </trkpt>
      <trkpt lat="41.44322044216096401214599609375" lon="2.24669094197452068328857421875">
        <ele>19.6000003814697265625</ele>
        <time>2022-05-15T05:25:57.000Z</time>
      </trkpt>
      <trkpt lat="41.44366770051419734954833984375" lon="2.24712830968201160430908203125">
        <ele>19.799999237060546875</ele>
        <time>2022-05-15T05:26:06.000Z</time>
      </trkpt>
      <trkpt lat="41.44376057200133800506591796875" lon="2.24722989834845066070556640625">
        <ele>19.799999237060546875</ele>
        <time>2022-05-15T05:26:08.000Z</time>
      </trkpt>
      <trkpt lat="41.443813629448413848876953125" lon="2.24727566353976726531982421875">
        <ele>19.6000003814697265625</ele>
        <time>2022-05-15T05:26:09.000Z</time>
      </trkpt>
      <trkpt lat="41.44386266358196735382080078125" lon="2.24732838571071624755859375">
        <ele>19.799999237060546875</ele>
        <time>2022-05-15T05:26:10.000Z</time>
      </trkpt>
      <trkpt lat="41.44416189752519130706787109375" lon="2.2476427070796489715576171875">
        <ele>20</ele>
        <time>2022-05-15T05:26:16.000Z</time>
      </trkpt>
      <trkpt lat="41.44461594521999359130859375" lon="2.24809407256543636322021484375">
        <ele>20</ele>
        <time>2022-05-15T05:26:25.000Z</time>
      </trkpt>
      <trkpt lat="41.4446633867919445037841796875" lon="2.2481456212699413299560546875">
        <ele>20</ele>
        <time>2022-05-15T05:26:26.000Z</time>
      </trkpt>
      <trkpt lat="41.44496572203934192657470703125" lon="2.248487435281276702880859375">
        <ele>19.799999237060546875</ele>
        <time>2022-05-15T05:26:33.000Z</time>
      </trkpt>
      <trkpt lat="41.4450041949748992919921875" lon="2.2485311888158321380615234375">
        <ele>19.799999237060546875</ele>
        <time>2022-05-15T05:26:34.000Z</time>
      </trkpt>
      <trkpt lat="41.445209719240665435791015625" lon="2.2487548179924488067626953125">
        <ele>19.799999237060546875</ele>
        <time>2022-05-15T05:26:40.000Z</time>
      </trkpt>
      <trkpt lat="41.445281468331813812255859375" lon="2.24883570335805416107177734375">
        <ele>20</ele>
        <time>2022-05-15T05:26:42.000Z</time>
      </trkpt>
      <trkpt lat="41.44539789296686649322509765625" lon="2.24898138083517551422119140625">
        <ele>20</ele>
        <time>2022-05-15T05:26:45.000Z</time>
      </trkpt>
      <trkpt lat="41.4456371963024139404296875" lon="2.24926167167723178863525390625">
        <ele>19.799999237060546875</ele>
        <time>2022-05-15T05:26:50.000Z</time>
      </trkpt>
      <trkpt lat="41.4459136314690113067626953125" lon="2.24958051927387714385986328125">
        <ele>19.6000003814697265625</ele>
        <time>2022-05-15T05:26:56.000Z</time>
      </trkpt>
      <trkpt lat="41.44605101086199283599853515625" lon="2.2497401945292949676513671875">
        <ele>19.6000003814697265625</ele>
        <time>2022-05-15T05:26:59.000Z</time>
      </trkpt>
      <trkpt lat="41.4465035498142242431640625" lon="2.250249646604061126708984375">
        <ele>19.3999996185302734375</ele>
        <time>2022-05-15T05:27:09.000Z</time>
      </trkpt>
      <trkpt lat="41.44667428918182849884033203125" lon="2.25044284947216510772705078125">
        <ele>19.200000762939453125</ele>
        <time>2022-05-15T05:27:13.000Z</time>
      </trkpt>
      <trkpt lat="41.4467581920325756072998046875" lon="2.25053706206381320953369140625">
        <ele>19.200000762939453125</ele>
        <time>2022-05-15T05:27:15.000Z</time>
      </trkpt>
      <trkpt lat="41.446841172873973846435546875" lon="2.2506135888397693634033203125">
        <ele>19.200000762939453125</ele>
        <time>2022-05-15T05:27:17.000Z</time>
      </trkpt>
      <trkpt lat="41.44700453616678714752197265625" lon="2.25075230933725833892822265625">
        <ele>19.3999996185302734375</ele>
        <time>2022-05-15T05:27:21.000Z</time>
      </trkpt>
      <trkpt lat="41.4472077973186969757080078125" lon="2.2509575821459293365478515625">
        <ele>19.200000762939453125</ele>
        <time>2022-05-15T05:27:26.000Z</time>
      </trkpt>
      <trkpt lat="41.44746981561183929443359375" lon="2.25121482275426387786865234375">
        <ele>19.3999996185302734375</ele>
        <time>2022-05-15T05:27:32.000Z</time>
      </trkpt>
      <trkpt lat="41.44751834683120250701904296875" lon="2.25124667398631572723388671875">
        <ele>19.3999996185302734375</ele>
        <time>2022-05-15T05:27:33.000Z</time>
      </trkpt>
      <trkpt lat="41.447565369307994842529296875" lon="2.251282967627048492431640625">
        <ele>19.3999996185302734375</ele>
        <time>2022-05-15T05:27:34.000Z</time>
      </trkpt>
      <trkpt lat="41.44773057661950588226318359375" lon="2.25145571865141391754150390625">
        <ele>19.3999996185302734375</ele>
        <time>2022-05-15T05:27:38.000Z</time>
      </trkpt>
      <trkpt lat="41.4478119648993015289306640625" lon="2.251534424722194671630859375">
        <ele>19.3999996185302734375</ele>
        <time>2022-05-15T05:27:40.000Z</time>
      </trkpt>
      <trkpt lat="41.44804473035037517547607421875" lon="2.25177012383937835693359375">
        <ele>19.6000003814697265625</ele>
        <time>2022-05-15T05:27:46.000Z</time>
      </trkpt>
      <trkpt lat="41.44837212748825550079345703125" lon="2.25212476216256618499755859375">
        <ele>19.3999996185302734375</ele>
        <time>2022-05-15T05:27:54.000Z</time>
      </trkpt>
      <trkpt lat="41.448604054749011993408203125" lon="2.252376973628997802734375">
        <ele>19.3999996185302734375</ele>
        <time>2022-05-15T05:27:59.000Z</time>
      </trkpt>
      <trkpt lat="41.4486907236278057098388671875" lon="2.25247881375253200531005859375">
        <ele>19.3999996185302734375</ele>
        <time>2022-05-15T05:28:01.000Z</time>
      </trkpt>
      <trkpt lat="41.44873070530593395233154296875" lon="2.25252893753349781036376953125">
        <ele>19.3999996185302734375</ele>
        <time>2022-05-15T05:28:02.000Z</time>
      </trkpt>
      <trkpt lat="41.44881502725183963775634765625" lon="2.2526282630860805511474609375">
        <ele>19.3999996185302734375</ele>
        <time>2022-05-15T05:28:04.000Z</time>
      </trkpt>
      <trkpt lat="41.4489384926855564117431640625" lon="2.25279799662530422210693359375">
        <ele>19.200000762939453125</ele>
        <time>2022-05-15T05:28:07.000Z</time>
      </trkpt>
      <trkpt lat="41.449125073850154876708984375" lon="2.2530121542513370513916015625">
        <ele>19.3999996185302734375</ele>
        <time>2022-05-15T05:28:12.000Z</time>
      </trkpt>
      <trkpt lat="41.4491750299930572509765625" lon="2.25308281369507312774658203125">
        <ele>19.3999996185302734375</ele>
        <time>2022-05-15T05:28:14.000Z</time>
      </trkpt>
      <trkpt lat="41.4492177776992321014404296875" lon="2.25313377566635608673095703125">
        <ele>19.6000003814697265625</ele>
        <time>2022-05-15T05:28:16.000Z</time>
      </trkpt>
      <trkpt lat="41.44924216903746128082275390625" lon="2.2531526349484920501708984375">
        <ele>19.6000003814697265625</ele>
        <time>2022-05-15T05:28:17.000Z</time>
      </trkpt>
      <trkpt lat="41.449332274496555328369140625" lon="2.253235615789890289306640625">
        <ele>19.6000003814697265625</ele>
        <time>2022-05-15T05:28:20.000Z</time>
      </trkpt>
      <trkpt lat="41.4493669755756855010986328125" lon="2.2532741725444793701171875">
        <ele>19.799999237060546875</ele>
        <time>2022-05-15T05:28:21.000Z</time>
      </trkpt>
      <trkpt lat="41.44943847320973873138427734375" lon="2.25334784947335720062255859375">
        <ele>19.799999237060546875</ele>
        <time>2022-05-15T05:28:23.000Z</time>
      </trkpt>
      <trkpt lat="41.449513994157314300537109375" lon="2.25342613644897937774658203125">
        <ele>19.799999237060546875</ele>
        <time>2022-05-15T05:28:25.000Z</time>
      </trkpt>
      <trkpt lat="41.4495547302067279815673828125" lon="2.25346251390874385833740234375">
        <ele>19.799999237060546875</ele>
        <time>2022-05-15T05:28:26.000Z</time>
      </trkpt>
      <trkpt lat="41.44959546625614166259765625" lon="2.2535019926726818084716796875">
        <ele>19.799999237060546875</ele>
        <time>2022-05-15T05:28:27.000Z</time>
      </trkpt>
      <trkpt lat="41.44963569939136505126953125" lon="2.25354599766433238983154296875">
        <ele>19.799999237060546875</ele>
        <time>2022-05-15T05:28:28.000Z</time>
      </trkpt>
      <trkpt lat="41.44998413510620594024658203125" lon="2.2539418749511241912841796875">
        <ele>19.799999237060546875</ele>
        <time>2022-05-15T05:28:37.000Z</time>
      </trkpt>
      <trkpt lat="41.45025663077831268310546875" lon="2.25427958182990550994873046875">
        <ele>19.6000003814697265625</ele>
        <time>2022-05-15T05:28:44.000Z</time>
      </trkpt>
      <trkpt lat="41.45063021220266819000244140625" lon="2.254700772464275360107421875">
        <ele>19.3999996185302734375</ele>
        <time>2022-05-15T05:28:53.000Z</time>
      </trkpt>
      <trkpt lat="41.45081226713955402374267578125" lon="2.25489682517945766448974609375">
        <ele>19.3999996185302734375</ele>
        <time>2022-05-15T05:28:57.000Z</time>
      </trkpt>
      <trkpt lat="41.45105458796024322509765625" lon="2.255139648914337158203125">
        <ele>19.6000003814697265625</ele>
        <time>2022-05-15T05:29:02.000Z</time>
      </trkpt>
      <trkpt lat="41.45115315914154052734375" lon="2.25524283014237880706787109375">
        <ele>19.6000003814697265625</ele>
        <time>2022-05-15T05:29:04.000Z</time>
      </trkpt>
      <trkpt lat="41.4514470286667346954345703125" lon="2.2555582411587238311767578125">
        <ele>19.3999996185302734375</ele>
        <time>2022-05-15T05:29:10.000Z</time>
      </trkpt>
      <trkpt lat="41.451874673366546630859375" lon="2.25603642873466014862060546875">
        <ele>19.200000762939453125</ele>
        <time>2022-05-15T05:29:19.000Z</time>
      </trkpt>
      <trkpt lat="41.4519217796623706817626953125" lon="2.2560883127152919769287109375">
        <ele>19.200000762939453125</ele>
        <time>2022-05-15T05:29:20.000Z</time>
      </trkpt>
      <trkpt lat="41.4520136453211307525634765625" lon="2.25618428550660610198974609375">
        <ele>19</ele>
        <time>2022-05-15T05:29:22.000Z</time>
      </trkpt>
      <trkpt lat="41.45205580629408359527587890625" lon="2.2562311403453350067138671875">
        <ele>19</ele>
        <time>2022-05-15T05:29:23.000Z</time>
      </trkpt>
      <trkpt lat="41.45223199389874935150146484375" lon="2.25643473677337169647216796875">
        <ele>19</ele>
        <time>2022-05-15T05:29:27.000Z</time>
      </trkpt>
      <trkpt lat="41.452550254762172698974609375" lon="2.25681125186383724212646484375">
        <ele>19.200000762939453125</ele>
        <time>2022-05-15T05:29:34.000Z</time>
      </trkpt>
      <trkpt lat="41.45259811542928218841552734375" lon="2.25686556659638881683349609375">
        <ele>19.200000762939453125</ele>
        <time>2022-05-15T05:29:35.000Z</time>
      </trkpt>
      <trkpt lat="41.452789641916751861572265625" lon="2.25708986632525920867919921875">
        <ele>19.200000762939453125</ele>
        <time>2022-05-15T05:29:39.000Z</time>
      </trkpt>
      <trkpt lat="41.452888548374176025390625" lon="2.257201932370662689208984375">
        <ele>19.200000762939453125</ele>
        <time>2022-05-15T05:29:41.000Z</time>
      </trkpt>
      <trkpt lat="41.45298443734645843505859375" lon="2.2573137469589710235595703125">
        <ele>19</ele>
        <time>2022-05-15T05:29:43.000Z</time>
      </trkpt>
      <trkpt lat="41.4533607847988605499267578125" lon="2.2577834688127040863037109375">
        <ele>19</ele>
        <time>2022-05-15T05:29:51.000Z</time>
      </trkpt>
      <trkpt lat="41.45345575176179409027099609375" lon="2.25789838470518589019775390625">
        <ele>19.200000762939453125</ele>
        <time>2022-05-15T05:29:53.000Z</time>
      </trkpt>
      <trkpt lat="41.45358449779450893402099609375" lon="2.258076332509517669677734375">
        <ele>19.200000762939453125</ele>
        <time>2022-05-15T05:29:56.000Z</time>
      </trkpt>
      <trkpt lat="41.4536226354539394378662109375" lon="2.258132658898830413818359375">
        <ele>19.3999996185302734375</ele>
        <time>2022-05-15T05:29:57.000Z</time>
      </trkpt>
      <trkpt lat="41.453657336533069610595703125" lon="2.25818403996527194976806640625">
        <ele>19.3999996185302734375</ele>
        <time>2022-05-15T05:29:58.000Z</time>
      </trkpt>
      <trkpt lat="41.45368943922221660614013671875" lon="2.25822980515658855438232421875">
        <ele>19.3999996185302734375</ele>
        <time>2022-05-15T05:29:59.000Z</time>
      </trkpt>
      <trkpt lat="41.4538831450045108795166015625" lon="2.2585207410156726837158203125">
        <ele>20.200000762939453125</ele>
        <time>2022-05-15T05:30:06.000Z</time>
      </trkpt>
      <trkpt lat="41.45391692407429218292236328125" lon="2.2585693560540676116943359375">
        <ele>20.3999996185302734375</ele>
        <time>2022-05-15T05:30:07.000Z</time>
      </trkpt>
      <trkpt lat="41.45399688743054866790771484375" lon="2.258676476776599884033203125">
        <ele>20.6000003814697265625</ele>
        <time>2022-05-15T05:30:09.000Z</time>
      </trkpt>
      <trkpt lat="41.4540410600602626800537109375" lon="2.2587255947291851043701171875">
        <ele>20.3999996185302734375</ele>
        <time>2022-05-15T05:30:10.000Z</time>
      </trkpt>
      <trkpt lat="41.45408389158546924591064453125" lon="2.258756943047046661376953125">
        <ele>20.799999237060546875</ele>
        <time>2022-05-15T05:30:11.000Z</time>
      </trkpt>
      <trkpt lat="41.45412504673004150390625" lon="2.25877211429178714752197265625">
        <ele>20.6000003814697265625</ele>
        <time>2022-05-15T05:30:12.000Z</time>
      </trkpt>
      <trkpt lat="41.4542130567133426666259765625" lon="2.25879013538360595703125">
        <ele>20</ele>
        <time>2022-05-15T05:30:14.000Z</time>
      </trkpt>
      <trkpt lat="41.454307772219181060791015625" lon="2.2587272711098194122314453125">
        <ele>19.200000762939453125</ele>
        <time>2022-05-15T05:30:16.000Z</time>
      </trkpt>
      <trkpt lat="41.454379521310329437255859375" lon="2.258638925850391387939453125">
        <ele>18.799999237060546875</ele>
        <time>2022-05-15T05:30:18.000Z</time>
      </trkpt>
      <trkpt lat="41.45444951020181179046630859375" lon="2.25859701633453369140625">
        <ele>18.6000003814697265625</ele>
        <time>2022-05-15T05:30:20.000Z</time>
      </trkpt>
      <trkpt lat="41.4544759131968021392822265625" lon="2.25860715843737125396728515625">
        <ele>18.6000003814697265625</ele>
        <time>2022-05-15T05:30:21.000Z</time>
      </trkpt>
      <trkpt lat="41.454500891268253326416015625" lon="2.258630208671092987060546875">
        <ele>18.6000003814697265625</ele>
        <time>2022-05-15T05:30:22.000Z</time>
      </trkpt>
      <trkpt lat="41.45460608415305614471435546875" lon="2.2587926499545574188232421875">
        <ele>18.6000003814697265625</ele>
        <time>2022-05-15T05:30:26.000Z</time>
      </trkpt>
      <trkpt lat="41.4546676911413669586181640625" lon="2.2588989324867725372314453125">
        <ele>19.3999996185302734375</ele>
        <time>2022-05-15T05:30:28.000Z</time>
      </trkpt>
      <trkpt lat="41.454700715839862823486328125" lon="2.258955426514148712158203125">
        <ele>19.6000003814697265625</ele>
        <time>2022-05-15T05:30:29.000Z</time>
      </trkpt>
      <trkpt lat="41.45477355457842350006103515625" lon="2.2590669058263301849365234375">
        <ele>20.3999996185302734375</ele>
        <time>2022-05-15T05:30:31.000Z</time>
      </trkpt>
      <trkpt lat="41.45493448711931705474853515625" lon="2.2592922113835811614990234375">
        <ele>20.6000003814697265625</ele>
        <time>2022-05-15T05:30:35.000Z</time>
      </trkpt>
      <trkpt lat="41.4551360718905925750732421875" lon="2.25959144532680511474609375">
        <ele>21.200000762939453125</ele>
        <time>2022-05-15T05:30:40.000Z</time>
      </trkpt>
      <trkpt lat="41.4552618004381656646728515625" lon="2.25977442227303981781005859375">
        <ele>21</ele>
        <time>2022-05-15T05:30:43.000Z</time>
      </trkpt>
      <trkpt lat="41.45536213181912899017333984375" lon="2.25988690741360187530517578125">
        <ele>20.799999237060546875</ele>
        <time>2022-05-15T05:30:45.000Z</time>
      </trkpt>
      <trkpt lat="41.4554622955620288848876953125" lon="2.25999754853546619415283203125">
        <ele>20.799999237060546875</ele>
        <time>2022-05-15T05:30:47.000Z</time>
      </trkpt>
      <trkpt lat="41.45550445653498172760009765625" lon="2.26006058044731616973876953125">
        <ele>20.799999237060546875</ele>
        <time>2022-05-15T05:30:48.000Z</time>
      </trkpt>
      <trkpt lat="41.45574216730892658233642578125" lon="2.26048470474779605865478515625">
        <ele>20.6000003814697265625</ele>
        <time>2022-05-15T05:30:54.000Z</time>
      </trkpt>
      <trkpt lat="41.45603436045348644256591796875" lon="2.2609407640993595123291015625">
        <ele>20.3999996185302734375</ele>
        <time>2022-05-15T05:31:01.000Z</time>
      </trkpt>
      <trkpt lat="41.45616763271391391754150390625" lon="2.26110697723925113677978515625">
        <ele>20.3999996185302734375</ele>
        <time>2022-05-15T05:31:04.000Z</time>
      </trkpt>
      <trkpt lat="41.45620518364012241363525390625" lon="2.2611571848392486572265625">
        <ele>20.3999996185302734375</ele>
        <time>2022-05-15T05:31:05.000Z</time>
      </trkpt>
      <trkpt lat="41.45627190358936786651611328125" lon="2.261233963072299957275390625">
        <ele>20.3999996185302734375</ele>
        <time>2022-05-15T05:31:07.000Z</time>
      </trkpt>
      <trkpt lat="41.4563229493796825408935546875" lon="2.2612752020359039306640625">
        <ele>20.3999996185302734375</ele>
        <time>2022-05-15T05:31:09.000Z</time>
      </trkpt>
      <trkpt lat="41.4563977159559726715087890625" lon="2.2612599469721317291259765625">
        <ele>20.3999996185302734375</ele>
        <time>2022-05-15T05:31:11.000Z</time>
      </trkpt>
      <trkpt lat="41.4564265497028827667236328125" lon="2.2612591087818145751953125">
        <ele>20.3999996185302734375</ele>
        <time>2022-05-15T05:31:12.000Z</time>
      </trkpt>
      <trkpt lat="41.4564599096775054931640625" lon="2.26127210073173046112060546875">
        <ele>20.3999996185302734375</ele>
        <time>2022-05-15T05:31:13.000Z</time>
      </trkpt>
      <trkpt lat="41.45653341896831989288330078125" lon="2.261327840387821197509765625">
        <ele>20.6000003814697265625</ele>
        <time>2022-05-15T05:31:15.000Z</time>
      </trkpt>
      <trkpt lat="41.45666048862040042877197265625" lon="2.261506877839565277099609375">
        <ele>20.6000003814697265625</ele>
        <time>2022-05-15T05:31:19.000Z</time>
      </trkpt>
      <trkpt lat="41.45673290826380252838134765625" lon="2.26160469464957714080810546875">
        <ele>20.6000003814697265625</ele>
        <time>2022-05-15T05:31:21.000Z</time>
      </trkpt>
      <trkpt lat="41.45695704035460948944091796875" lon="2.2619294933974742889404296875">
        <ele>20.6000003814697265625</ele>
        <time>2022-05-15T05:31:27.000Z</time>
      </trkpt>
      <trkpt lat="41.4572162926197052001953125" lon="2.262282706797122955322265625">
        <ele>20.200000762939453125</ele>
        <time>2022-05-15T05:31:33.000Z</time>
      </trkpt>
      <trkpt lat="41.45725987851619720458984375" lon="2.2623449005186557769775390625">
        <ele>20.200000762939453125</ele>
        <time>2022-05-15T05:31:34.000Z</time>
      </trkpt>
      <trkpt lat="41.45751343108713626861572265625" lon="2.26271764375269412994384765625">
        <ele>20.200000762939453125</ele>
        <time>2022-05-15T05:31:40.000Z</time>
      </trkpt>
      <trkpt lat="41.45760328508913516998291015625" lon="2.26284169591963291168212890625">
        <ele>20</ele>
        <time>2022-05-15T05:31:42.000Z</time>
      </trkpt>
      <trkpt lat="41.45792498253285884857177734375" lon="2.2633597813546657562255859375">
        <ele>20</ele>
        <time>2022-05-15T05:31:50.000Z</time>
      </trkpt>
      <trkpt lat="41.45808390341699123382568359375" lon="2.263627834618091583251953125">
        <ele>19.799999237060546875</ele>
        <time>2022-05-15T05:31:54.000Z</time>
      </trkpt>
      <trkpt lat="41.4582420699298381805419921875" lon="2.2638952173292636871337890625">
        <ele>20</ele>
        <time>2022-05-15T05:31:58.000Z</time>
      </trkpt>
      <trkpt lat="41.45857240073382854461669921875" lon="2.26443274877965450286865234375">
        <ele>20</ele>
        <time>2022-05-15T05:32:06.000Z</time>
      </trkpt>
      <trkpt lat="41.45861305296421051025390625" lon="2.26450399495661258697509765625">
        <ele>20</ele>
        <time>2022-05-15T05:32:07.000Z</time>
      </trkpt>
      <trkpt lat="41.4589944295585155487060546875" lon="2.26512509398162364959716796875">
        <ele>20</ele>
        <time>2022-05-15T05:32:16.000Z</time>
      </trkpt>
      <trkpt lat="41.45936071872711181640625" lon="2.26576094515621662139892578125">
        <ele>20.200000762939453125</ele>
        <time>2022-05-15T05:32:25.000Z</time>
      </trkpt>
      <trkpt lat="41.45973019301891326904296875" lon="2.2663782723248004913330078125">
        <ele>20.200000762939453125</ele>
        <time>2022-05-15T05:32:34.000Z</time>
      </trkpt>
      <trkpt lat="41.45977118052542209625244140625" lon="2.26644591428339481353759765625">
        <ele>20.3999996185302734375</ele>
        <time>2022-05-15T05:32:35.000Z</time>
      </trkpt>
      <trkpt lat="41.460118778049945831298828125" lon="2.26698537357151508331298828125">
        <ele>20.200000762939453125</ele>
        <time>2022-05-15T05:32:43.000Z</time>
      </trkpt>
      <trkpt lat="41.4604455046355724334716796875" lon="2.2674967534840106964111328125">
        <ele>20.3999996185302734375</ele>
        <time>2022-05-15T05:32:51.000Z</time>
      </trkpt>
      <trkpt lat="41.46077918820083141326904296875" lon="2.26800687611103057861328125">
        <ele>20.3999996185302734375</ele>
        <time>2022-05-15T05:32:59.000Z</time>
      </trkpt>
      <trkpt lat="41.46102192811667919158935546875" lon="2.26840384304523468017578125">
        <ele>20.3999996185302734375</ele>
        <time>2022-05-15T05:33:05.000Z</time>
      </trkpt>
      <trkpt lat="41.46130708046257495880126953125" lon="2.268872559070587158203125">
        <ele>20.200000762939453125</ele>
        <time>2022-05-15T05:33:12.000Z</time>
      </trkpt>
      <trkpt lat="41.4615173824131488800048828125" lon="2.26922585628926753997802734375">
        <ele>20.200000762939453125</ele>
        <time>2022-05-15T05:33:17.000Z</time>
      </trkpt>
      <trkpt lat="41.46163548342883586883544921875" lon="2.26945468224585056304931640625">
        <ele>20.3999996185302734375</ele>
        <time>2022-05-15T05:33:20.000Z</time>
      </trkpt>
      <trkpt lat="41.4617894589900970458984375" lon="2.2697598673403263092041015625">
        <ele>20.6000003814697265625</ele>
        <time>2022-05-15T05:33:24.000Z</time>
      </trkpt>
      <trkpt lat="41.461954414844512939453125" lon="2.27005734108388423919677734375">
        <ele>20.6000003814697265625</ele>
        <time>2022-05-15T05:33:28.000Z</time>
      </trkpt>
      <trkpt lat="41.46199456416070461273193359375" lon="2.27013378404080867767333984375">
        <ele>20.6000003814697265625</ele>
        <time>2022-05-15T05:33:29.000Z</time>
      </trkpt>
      <trkpt lat="41.462037228047847747802734375" lon="2.27020922116935253143310546875">
        <ele>20.6000003814697265625</ele>
        <time>2022-05-15T05:33:30.000Z</time>
      </trkpt>
      <trkpt lat="41.46207938902080059051513671875" lon="2.2702849097549915313720703125">
        <ele>20.799999237060546875</ele>
        <time>2022-05-15T05:33:31.000Z</time>
      </trkpt>
      <trkpt lat="41.46220578812062740325927734375" lon="2.27050627581775188446044921875">
        <ele>20.6000003814697265625</ele>
        <time>2022-05-15T05:33:34.000Z</time>
      </trkpt>
      <trkpt lat="41.462249457836151123046875" lon="2.27057936601340770721435546875">
        <ele>20.6000003814697265625</ele>
        <time>2022-05-15T05:33:35.000Z</time>
      </trkpt>
      <trkpt lat="41.462291367352008819580078125" lon="2.27065287530422210693359375">
        <ele>20.6000003814697265625</ele>
        <time>2022-05-15T05:33:36.000Z</time>
      </trkpt>
      <trkpt lat="41.4626258052885532379150390625" lon="2.271246649324893951416015625">
        <ele>20.6000003814697265625</ele>
        <time>2022-05-15T05:33:44.000Z</time>
      </trkpt>
      <trkpt lat="41.462668217718601226806640625" lon="2.2713215835392475128173828125">
        <ele>20.6000003814697265625</ele>
        <time>2022-05-15T05:33:45.000Z</time>
      </trkpt>
      <trkpt lat="41.4629885740578174591064453125" lon="2.27191410027444362640380859375">
        <ele>20.799999237060546875</ele>
        <time>2022-05-15T05:33:53.000Z</time>
      </trkpt>
      <trkpt lat="41.46302587352693080902099609375" lon="2.271990291774272918701171875">
        <ele>20.6000003814697265625</ele>
        <time>2022-05-15T05:33:54.000Z</time>
      </trkpt>
      <trkpt lat="41.4631015621125698089599609375" lon="2.27214477024972438812255859375">
        <ele>20.6000003814697265625</ele>
        <time>2022-05-15T05:33:56.000Z</time>
      </trkpt>
      <trkpt lat="41.46338738501071929931640625" lon="2.27267920039594173431396484375">
        <ele>21</ele>
        <time>2022-05-15T05:34:03.000Z</time>
      </trkpt>
      <trkpt lat="41.46360338665544986724853515625" lon="2.27306141518056392669677734375">
        <ele>21.3999996185302734375</ele>
        <time>2022-05-15T05:34:08.000Z</time>
      </trkpt>
      <trkpt lat="41.46373364143073558807373046875" lon="2.2732960246503353118896484375">
        <ele>21.6000003814697265625</ele>
        <time>2022-05-15T05:34:11.000Z</time>
      </trkpt>
      <trkpt lat="41.46377588622272014617919921875" lon="2.2733746469020843505859375">
        <ele>21.3999996185302734375</ele>
        <time>2022-05-15T05:34:12.000Z</time>
      </trkpt>
      <trkpt lat="41.464108563959598541259765625" lon="2.27397990413010120391845703125">
        <ele>21.6000003814697265625</ele>
        <time>2022-05-15T05:34:20.000Z</time>
      </trkpt>
      <trkpt lat="41.464150808751583099365234375" lon="2.274052910506725311279296875">
        <ele>21.6000003814697265625</ele>
        <time>2022-05-15T05:34:21.000Z</time>
      </trkpt>
      <trkpt lat="41.4643256552517414093017578125" lon="2.2743357159197330474853515625">
        <ele>21.6000003814697265625</ele>
        <time>2022-05-15T05:34:25.000Z</time>
      </trkpt>
      <trkpt lat="41.4643685705959796905517578125" lon="2.27440486662089824676513671875">
        <ele>21.799999237060546875</ele>
        <time>2022-05-15T05:34:26.000Z</time>
      </trkpt>
      <trkpt lat="41.4644523896276950836181640625" lon="2.2745516337454319000244140625">
        <ele>21.799999237060546875</ele>
        <time>2022-05-15T05:34:28.000Z</time>
      </trkpt>
      <trkpt lat="41.4646451734006404876708984375" lon="2.27494901977479457855224609375">
        <ele>21.799999237060546875</ele>
        <time>2022-05-15T05:34:33.000Z</time>
      </trkpt>
      <trkpt lat="41.46476226858794689178466796875" lon="2.2751846350729465484619140625">
        <ele>22</ele>
        <time>2022-05-15T05:34:36.000Z</time>
      </trkpt>
      <trkpt lat="41.46484541706740856170654296875" lon="2.2753324918448925018310546875">
        <ele>22</ele>
        <time>2022-05-15T05:34:38.000Z</time>
      </trkpt>
      <trkpt lat="41.46503685973584651947021484375" lon="2.2756952606141567230224609375">
        <ele>22.3999996185302734375</ele>
        <time>2022-05-15T05:34:43.000Z</time>
      </trkpt>
      <trkpt lat="41.465072147548198699951171875" lon="2.27576491422951221466064453125">
        <ele>22.6000003814697265625</ele>
        <time>2022-05-15T05:34:44.000Z</time>
      </trkpt>
      <trkpt lat="41.46525864489376544952392578125" lon="2.276110164821147918701171875">
        <ele>23.200000762939453125</ele>
        <time>2022-05-15T05:34:49.000Z</time>
      </trkpt>
      <trkpt lat="41.4653656817972660064697265625" lon="2.27630571462213993072509765625">
        <ele>24</ele>
        <time>2022-05-15T05:34:52.000Z</time>
      </trkpt>
      <trkpt lat="41.4654307253658771514892578125" lon="2.27643244899809360504150390625">
        <ele>24.200000762939453125</ele>
        <time>2022-05-15T05:34:54.000Z</time>
      </trkpt>
      <trkpt lat="41.46551529876887798309326171875" lon="2.27663327939808368682861328125">
        <ele>25.200000762939453125</ele>
        <time>2022-05-15T05:34:57.000Z</time>
      </trkpt>
      <trkpt lat="41.4655673503875732421875" lon="2.2767730057239532470703125">
        <ele>25.6000003814697265625</ele>
        <time>2022-05-15T05:34:59.000Z</time>
      </trkpt>
      <trkpt lat="41.46569701842963695526123046875" lon="2.2771270573139190673828125">
        <ele>27.6000003814697265625</ele>
        <time>2022-05-15T05:35:04.000Z</time>
      </trkpt>
      <trkpt lat="41.465793661773204803466796875" lon="2.27739586494863033294677734375">
        <ele>28.200000762939453125</ele>
        <time>2022-05-15T05:35:08.000Z</time>
      </trkpt>
      <trkpt lat="41.465841270983219146728515625" lon="2.277531735599040985107421875">
        <ele>28.6000003814697265625</ele>
        <time>2022-05-15T05:35:10.000Z</time>
      </trkpt>
      <trkpt lat="41.46593439392745494842529296875" lon="2.2778024710714817047119140625">
        <ele>29.6000003814697265625</ele>
        <time>2022-05-15T05:35:14.000Z</time>
      </trkpt>
      <trkpt lat="41.46603061817586421966552734375" lon="2.27807681076228618621826171875">
        <ele>30.6000003814697265625</ele>
        <time>2022-05-15T05:35:18.000Z</time>
      </trkpt>
      <trkpt lat="41.4660781435668468475341796875" lon="2.278217710554599761962890625">
        <ele>31.200000762939453125</ele>
        <time>2022-05-15T05:35:20.000Z</time>
      </trkpt>
      <trkpt lat="41.4662286825478076934814453125" lon="2.278638146817684173583984375">
        <ele>32.59999847412109375</ele>
        <time>2022-05-15T05:35:26.000Z</time>
      </trkpt>
      <trkpt lat="41.46633219905197620391845703125" lon="2.27893796749413013458251953125">
        <ele>33</ele>
        <time>2022-05-15T05:35:30.000Z</time>
      </trkpt>
      <trkpt lat="41.46636061370372772216796875" lon="2.2790134884417057037353515625">
        <ele>33.40000152587890625</ele>
        <time>2022-05-15T05:35:31.000Z</time>
      </trkpt>
      <trkpt lat="41.4663855917751789093017578125" lon="2.27908515371382236480712890625">
        <ele>33.40000152587890625</ele>
        <time>2022-05-15T05:35:32.000Z</time>
      </trkpt>
      <trkpt lat="41.46645574830472469329833984375" lon="2.279295623302459716796875">
        <ele>33.59999847412109375</ele>
        <time>2022-05-15T05:35:35.000Z</time>
      </trkpt>
      <trkpt lat="41.46648961119353771209716796875" lon="2.27941204793751239776611328125">
        <ele>33.59999847412109375</ele>
        <time>2022-05-15T05:35:37.000Z</time>
      </trkpt>
      <trkpt lat="41.466522216796875" lon="2.27953894995152950286865234375">
        <ele>33.799999237060546875</ele>
        <time>2022-05-15T05:35:41.000Z</time>
      </trkpt>
      <trkpt lat="41.46653202362358570098876953125" lon="2.279564850032329559326171875">
        <ele>34</ele>
        <time>2022-05-15T05:35:44.000Z</time>
      </trkpt>
      <trkpt lat="41.4665334485471248626708984375" lon="2.2795656882226467132568359375">
        <ele>34.200000762939453125</ele>
        <time>2022-05-15T05:35:46.000Z</time>
      </trkpt>
      <trkpt lat="41.46653319709002971649169921875" lon="2.27956719696521759033203125">
        <ele>34.40000152587890625</ele>
        <time>2022-05-15T05:35:55.000Z</time>
      </trkpt>
      <trkpt lat="41.46653319709002971649169921875" lon="2.27956719696521759033203125">
        <ele>34.40000152587890625</ele>
        <time>2022-05-15T05:35:56.000Z</time>
      </trkpt>
      <trkpt lat="41.46653302945196628570556640625" lon="2.27956719696521759033203125">
        <ele>34.40000152587890625</ele>
        <time>2022-05-15T05:35:59.000Z</time>
      </trkpt>
      <trkpt lat="41.46653319709002971649169921875" lon="2.2795670293271541595458984375">
        <ele>34.40000152587890625</ele>
        <time>2022-05-15T05:36:00.000Z</time>
      </trkpt>
      <trkpt lat="41.46653336472809314727783203125" lon="2.27956711314618587493896484375">
        <ele>34.40000152587890625</ele>
        <time>2022-05-15T05:36:01.000Z</time>
      </trkpt>
      <trkpt lat="41.46654929034411907196044921875" lon="2.27968479506671428680419921875">
        <ele>34.40000152587890625</ele>
        <time>2022-05-15T05:36:06.000Z</time>
      </trkpt>
      <trkpt lat="41.46659396588802337646484375" lon="2.27995620109140872955322265625">
        <ele>34.200000762939453125</ele>
        <time>2022-05-15T05:36:11.000Z</time>
      </trkpt>
      <trkpt lat="41.46665808744728565216064453125" lon="2.28029147721827030181884765625">
        <ele>34.200000762939453125</ele>
        <time>2022-05-15T05:36:16.000Z</time>
      </trkpt>
      <trkpt lat="41.46669211797416210174560546875" lon="2.28043598122894763946533203125">
        <ele>34.200000762939453125</ele>
        <time>2022-05-15T05:36:18.000Z</time>
      </trkpt>
      <trkpt lat="41.46671240217983722686767578125" lon="2.280513010919094085693359375">
        <ele>34</ele>
        <time>2022-05-15T05:36:19.000Z</time>
      </trkpt>
      <trkpt lat="41.46673520095646381378173828125" lon="2.2805892862379550933837890625">
        <ele>34</ele>
        <time>2022-05-15T05:36:20.000Z</time>
      </trkpt>
      <trkpt lat="41.46681725978851318359375" lon="2.28081383742392063140869140625">
        <ele>34</ele>
        <time>2022-05-15T05:36:23.000Z</time>
      </trkpt>
      <trkpt lat="41.466890685260295867919921875" lon="2.280951552093029022216796875">
        <ele>34</ele>
        <time>2022-05-15T05:36:25.000Z</time>
      </trkpt>
      <trkpt lat="41.46702102385461330413818359375" lon="2.2811476886272430419921875">
        <ele>33.799999237060546875</ele>
        <time>2022-05-15T05:36:28.000Z</time>
      </trkpt>
      <trkpt lat="41.46734707988798618316650390625" lon="2.28161565028131008148193359375">
        <ele>33.40000152587890625</ele>
        <time>2022-05-15T05:36:35.000Z</time>
      </trkpt>
      <trkpt lat="41.467432491481304168701171875" lon="2.28177792392671108245849609375">
        <ele>33.200000762939453125</ele>
        <time>2022-05-15T05:36:37.000Z</time>
      </trkpt>
      <trkpt lat="41.467502899467945098876953125" lon="2.2819625772535800933837890625">
        <ele>32.799999237060546875</ele>
        <time>2022-05-15T05:36:39.000Z</time>
      </trkpt>
      <trkpt lat="41.4675335772335529327392578125" lon="2.282060645520687103271484375">
        <ele>32.799999237060546875</ele>
        <time>2022-05-15T05:36:40.000Z</time>
      </trkpt>
      <trkpt lat="41.4676395244896411895751953125" lon="2.28246188722550868988037109375">
        <ele>32.59999847412109375</ele>
        <time>2022-05-15T05:36:44.000Z</time>
      </trkpt>
      <trkpt lat="41.46768964827060699462890625" lon="2.2826669923961162567138671875">
        <ele>32.40000152587890625</ele>
        <time>2022-05-15T05:36:46.000Z</time>
      </trkpt>
      <trkpt lat="41.4677895605564117431640625" lon="2.2830914519727230072021484375">
        <ele>31.200000762939453125</ele>
        <time>2022-05-15T05:36:50.000Z</time>
      </trkpt>
      <trkpt lat="41.46784764714539051055908203125" lon="2.2833070345222949981689453125">
        <ele>31</ele>
        <time>2022-05-15T05:36:52.000Z</time>
      </trkpt>
      <trkpt lat="41.4679156243801116943359375" lon="2.28353150188922882080078125">
        <ele>30.3999996185302734375</ele>
        <time>2022-05-15T05:36:54.000Z</time>
      </trkpt>
      <trkpt lat="41.467946134507656097412109375" lon="2.28365027345716953277587890625">
        <ele>30.200000762939453125</ele>
        <time>2022-05-15T05:36:55.000Z</time>
      </trkpt>
      <trkpt lat="41.4680203981697559356689453125" lon="2.2838927619159221649169921875">
        <ele>29.799999237060546875</ele>
        <time>2022-05-15T05:36:57.000Z</time>
      </trkpt>
      <trkpt lat="41.468059457838535308837890625" lon="2.28401388041675090789794921875">
        <ele>29.799999237060546875</ele>
        <time>2022-05-15T05:36:58.000Z</time>
      </trkpt>
      <trkpt lat="41.468139588832855224609375" lon="2.2842644155025482177734375">
        <ele>29.6000003814697265625</ele>
        <time>2022-05-15T05:37:00.000Z</time>
      </trkpt>
      <trkpt lat="41.46817982196807861328125" lon="2.28439190424978733062744140625">
        <ele>29</ele>
        <time>2022-05-15T05:37:01.000Z</time>
      </trkpt>
      <trkpt lat="41.4682212285697460174560546875" lon="2.28451863862574100494384765625">
        <ele>28.799999237060546875</ele>
        <time>2022-05-15T05:37:02.000Z</time>
      </trkpt>
      <trkpt lat="41.46826171316206455230712890625" lon="2.284646295011043548583984375">
        <ele>28</ele>
        <time>2022-05-15T05:37:03.000Z</time>
      </trkpt>
      <trkpt lat="41.46835458464920520782470703125" lon="2.2849009372293949127197265625">
        <ele>26.799999237060546875</ele>
        <time>2022-05-15T05:37:05.000Z</time>
      </trkpt>
      <trkpt lat="41.46844544447958469390869140625" lon="2.2851644642651081085205078125">
        <ele>25.6000003814697265625</ele>
        <time>2022-05-15T05:37:07.000Z</time>
      </trkpt>
      <trkpt lat="41.468530856072902679443359375" lon="2.28541952557861804962158203125">
        <ele>24.799999237060546875</ele>
        <time>2022-05-15T05:37:09.000Z</time>
      </trkpt>
      <trkpt lat="41.4685714244842529296875" lon="2.28554743342101573944091796875">
        <ele>24.200000762939453125</ele>
        <time>2022-05-15T05:37:10.000Z</time>
      </trkpt>
      <trkpt lat="41.46861190907657146453857421875" lon="2.28567659854888916015625">
        <ele>23.6000003814697265625</ele>
        <time>2022-05-15T05:37:11.000Z</time>
      </trkpt>
      <trkpt lat="41.4687717519700527191162109375" lon="2.2861830331385135650634765625">
        <ele>21.799999237060546875</ele>
        <time>2022-05-15T05:37:15.000Z</time>
      </trkpt>
      <trkpt lat="41.468809135258197784423828125" lon="2.28631136007606983184814453125">
        <ele>21.6000003814697265625</ele>
        <time>2022-05-15T05:37:16.000Z</time>
      </trkpt>
      <trkpt lat="41.4689397253096103668212890625" lon="2.28668284602463245391845703125">
        <ele>21.200000762939453125</ele>
        <time>2022-05-15T05:37:19.000Z</time>
      </trkpt>
      <trkpt lat="41.468979455530643463134765625" lon="2.28680606000125408172607421875">
        <ele>21</ele>
        <time>2022-05-15T05:37:20.000Z</time>
      </trkpt>
      <trkpt lat="41.46901574917137622833251953125" lon="2.28693128563463687896728515625">
        <ele>21</ele>
        <time>2022-05-15T05:37:21.000Z</time>
      </trkpt>
      <trkpt lat="41.469240300357341766357421875" lon="2.28766587562859058380126953125">
        <ele>20.200000762939453125</ele>
        <time>2022-05-15T05:37:27.000Z</time>
      </trkpt>
      <trkpt lat="41.4692847244441509246826171875" lon="2.287788502871990203857421875">
        <ele>20</ele>
        <time>2022-05-15T05:37:28.000Z</time>
      </trkpt>
      <trkpt lat="41.4695636741816997528076171875" lon="2.28851898573338985443115234375">
        <ele>19.3999996185302734375</ele>
        <time>2022-05-15T05:37:34.000Z</time>
      </trkpt>
      <trkpt lat="41.46965797059237957000732421875" lon="2.2887592948973178863525390625">
        <ele>19.200000762939453125</ele>
        <time>2022-05-15T05:37:36.000Z</time>
      </trkpt>
      <trkpt lat="41.46992870606482028961181640625" lon="2.28945926763117313385009765625">
        <ele>18.6000003814697265625</ele>
        <time>2022-05-15T05:37:42.000Z</time>
      </trkpt>
      <trkpt lat="41.469974555075168609619140625" lon="2.2895743511617183685302734375">
        <ele>18.3999996185302734375</ele>
        <time>2022-05-15T05:37:43.000Z</time>
      </trkpt>
      <trkpt lat="41.47006717510521411895751953125" lon="2.28980108164250850677490234375">
        <ele>18.3999996185302734375</ele>
        <time>2022-05-15T05:37:45.000Z</time>
      </trkpt>
      <trkpt lat="41.470297761261463165283203125" lon="2.29034297168254852294921875">
        <ele>18.3999996185302734375</ele>
        <time>2022-05-15T05:37:50.000Z</time>
      </trkpt>
      <trkpt lat="41.47042709402740001678466796875" lon="2.29066877625882625579833984375">
        <ele>18.200000762939453125</ele>
        <time>2022-05-15T05:37:53.000Z</time>
      </trkpt>
      <trkpt lat="41.47046975791454315185546875" lon="2.29077958501875400543212890625">
        <ele>18.200000762939453125</ele>
        <time>2022-05-15T05:37:54.000Z</time>
      </trkpt>
      <trkpt lat="41.47056019864976406097412109375" lon="2.29099835269153118133544921875">
        <ele>18.3999996185302734375</ele>
        <time>2022-05-15T05:37:56.000Z</time>
      </trkpt>
      <trkpt lat="41.47071844898164272308349609375" lon="2.2913077287375926971435546875">
        <ele>18.3999996185302734375</ele>
        <time>2022-05-15T05:37:59.000Z</time>
      </trkpt>
      <trkpt lat="41.4708414115011692047119140625" lon="2.29148953221738338470458984375">
        <ele>18.6000003814697265625</ele>
        <time>2022-05-15T05:38:01.000Z</time>
      </trkpt>
      <trkpt lat="41.47108666598796844482421875" lon="2.29182682000100612640380859375">
        <ele>18.6000003814697265625</ele>
        <time>2022-05-15T05:38:05.000Z</time>
      </trkpt>
      <trkpt lat="41.4711424894630908966064453125" lon="2.29190804064273834228515625">
        <ele>18.799999237060546875</ele>
        <time>2022-05-15T05:38:06.000Z</time>
      </trkpt>
      <trkpt lat="41.47119739092886447906494140625" lon="2.291990853846073150634765625">
        <ele>18.799999237060546875</ele>
        <time>2022-05-15T05:38:07.000Z</time>
      </trkpt>
      <trkpt lat="41.47136167623102664947509765625" lon="2.29223401285707950592041015625">
        <ele>19.799999237060546875</ele>
        <time>2022-05-15T05:38:10.000Z</time>
      </trkpt>
      <trkpt lat="41.471411883831024169921875" lon="2.29231229983270168304443359375">
        <ele>20</ele>
        <time>2022-05-15T05:38:11.000Z</time>
      </trkpt>
      <trkpt lat="41.4714576490223407745361328125" lon="2.2923859767615795135498046875">
        <ele>20.3999996185302734375</ele>
        <time>2022-05-15T05:38:12.000Z</time>
      </trkpt>
      <trkpt lat="41.47154121659696102142333984375" lon="2.29253291152417659759521484375">
        <ele>20.6000003814697265625</ele>
        <time>2022-05-15T05:38:14.000Z</time>
      </trkpt>
      <trkpt lat="41.471585221588611602783203125" lon="2.292707003653049468994140625">
        <ele>21.200000762939453125</ele>
        <time>2022-05-15T05:38:16.000Z</time>
      </trkpt>
      <trkpt lat="41.471597962081432342529296875" lon="2.29289651848375797271728515625">
        <ele>22.200000762939453125</ele>
        <time>2022-05-15T05:38:18.000Z</time>
      </trkpt>
      <trkpt lat="41.4716142229735851287841796875" lon="2.29298938997089862823486328125">
        <ele>22.799999237060546875</ele>
        <time>2022-05-15T05:38:19.000Z</time>
      </trkpt>
      <trkpt lat="41.471644230186939239501953125" lon="2.29307505302131175994873046875">
        <ele>23</ele>
        <time>2022-05-15T05:38:20.000Z</time>
      </trkpt>
      <trkpt lat="41.47168488241732120513916015625" lon="2.29315199889242649078369140625">
        <ele>23.200000762939453125</ele>
        <time>2022-05-15T05:38:21.000Z</time>
      </trkpt>
      <trkpt lat="41.47176182828843593597412109375" lon="2.29330220259726047515869140625">
        <ele>23.200000762939453125</ele>
        <time>2022-05-15T05:38:23.000Z</time>
      </trkpt>
      <trkpt lat="41.4717892371118068695068359375" lon="2.29338468052446842193603515625">
        <ele>23.3999996185302734375</ele>
        <time>2022-05-15T05:38:24.000Z</time>
      </trkpt>
      <trkpt lat="41.47180876694619655609130859375" lon="2.29347168467938899993896484375">
        <ele>23.3999996185302734375</ele>
        <time>2022-05-15T05:38:25.000Z</time>
      </trkpt>
      <trkpt lat="41.47183709777891635894775390625" lon="2.2936600260436534881591796875">
        <ele>23.799999237060546875</ele>
        <time>2022-05-15T05:38:27.000Z</time>
      </trkpt>
      <trkpt lat="41.47186375223100185394287109375" lon="2.29386848397552967071533203125">
        <ele>23.6000003814697265625</ele>
        <time>2022-05-15T05:38:29.000Z</time>
      </trkpt>
      <trkpt lat="41.47189442999660968780517578125" lon="2.29409513063728809356689453125">
        <ele>23.799999237060546875</ele>
        <time>2022-05-15T05:38:31.000Z</time>
      </trkpt>
      <trkpt lat="41.47194773890078067779541015625" lon="2.29446209035813808441162109375">
        <ele>23.200000762939453125</ele>
        <time>2022-05-15T05:38:34.000Z</time>
      </trkpt>
      <trkpt lat="41.47197120822966098785400390625" lon="2.29458614252507686614990234375">
        <ele>23.200000762939453125</ele>
        <time>2022-05-15T05:38:35.000Z</time>
      </trkpt>
      <trkpt lat="41.47199861705303192138671875" lon="2.29470851831138134002685546875">
        <ele>23.200000762939453125</ele>
        <time>2022-05-15T05:38:36.000Z</time>
      </trkpt>
      <trkpt lat="41.472100205719470977783203125" lon="2.29506106115877628326416015625">
        <ele>21.6000003814697265625</ele>
        <time>2022-05-15T05:38:39.000Z</time>
      </trkpt>
      <trkpt lat="41.4721402712166309356689453125" lon="2.2951714508235454559326171875">
        <ele>21</ele>
        <time>2022-05-15T05:38:40.000Z</time>
      </trkpt>
      <trkpt lat="41.4721805043518543243408203125" lon="2.2952794097363948822021484375">
        <ele>20.200000762939453125</ele>
        <time>2022-05-15T05:38:41.000Z</time>
      </trkpt>
      <trkpt lat="41.472222246229648590087890625" lon="2.29538393206894397735595703125">
        <ele>19.6000003814697265625</ele>
        <time>2022-05-15T05:38:42.000Z</time>
      </trkpt>
      <trkpt lat="41.472344286739826202392578125" lon="2.29569590650498867034912109375">
        <ele>18.3999996185302734375</ele>
        <time>2022-05-15T05:38:45.000Z</time>
      </trkpt>
      <trkpt lat="41.47238527424633502960205078125" lon="2.2957987524569034576416015625">
        <ele>18.200000762939453125</ele>
        <time>2022-05-15T05:38:46.000Z</time>
      </trkpt>
      <trkpt lat="41.4724259264767169952392578125" lon="2.29590042494237422943115234375">
        <ele>18</ele>
        <time>2022-05-15T05:38:47.000Z</time>
      </trkpt>
      <trkpt lat="41.47246523760259151458740234375" lon="2.29600268416106700897216796875">
        <ele>18</ele>
        <time>2022-05-15T05:38:48.000Z</time>
      </trkpt>
      <trkpt lat="41.472694985568523406982421875" lon="2.29659377597272396087646484375">
        <ele>18</ele>
        <time>2022-05-15T05:38:54.000Z</time>
      </trkpt>
      <trkpt lat="41.47280151955783367156982421875" lon="2.2968847118318080902099609375">
        <ele>18</ele>
        <time>2022-05-15T05:38:57.000Z</time>
      </trkpt>
      <trkpt lat="41.4730451814830303192138671875" lon="2.29756222106516361236572265625">
        <ele>18</ele>
        <time>2022-05-15T05:39:04.000Z</time>
      </trkpt>
      <trkpt lat="41.4732158370316028594970703125" lon="2.29804635979235172271728515625">
        <ele>18.3999996185302734375</ele>
        <time>2022-05-15T05:39:09.000Z</time>
      </trkpt>
      <trkpt lat="41.47344826720654964447021484375" lon="2.29872613213956356048583984375">
        <ele>18.3999996185302734375</ele>
        <time>2022-05-15T05:39:16.000Z</time>
      </trkpt>
      <trkpt lat="41.473507024347782135009765625" lon="2.29892243631184101104736328125">
        <ele>18.3999996185302734375</ele>
        <time>2022-05-15T05:39:18.000Z</time>
      </trkpt>
      <trkpt lat="41.47370777092874050140380859375" lon="2.29961545206606388092041015625">
        <ele>18.3999996185302734375</ele>
        <time>2022-05-15T05:39:25.000Z</time>
      </trkpt>
      <trkpt lat="41.47379293106496334075927734375" lon="2.2999223135411739349365234375">
        <ele>18.6000003814697265625</ele>
        <time>2022-05-15T05:39:28.000Z</time>
      </trkpt>
      <trkpt lat="41.4739071764051914215087890625" lon="2.3003427498042583465576171875">
        <ele>18.3999996185302734375</ele>
        <time>2022-05-15T05:39:32.000Z</time>
      </trkpt>
      <trkpt lat="41.47411479614675045013427734375" lon="2.30108748190104961395263671875">
        <ele>18.200000762939453125</ele>
        <time>2022-05-15T05:39:39.000Z</time>
      </trkpt>
      <trkpt lat="41.47417657077312469482421875" lon="2.301299460232257843017578125">
        <ele>18</ele>
        <time>2022-05-15T05:39:41.000Z</time>
      </trkpt>
      <trkpt lat="41.4742062427103519439697265625" lon="2.3014035634696483612060546875">
        <ele>18</ele>
        <time>2022-05-15T05:39:42.000Z</time>
      </trkpt>
      <trkpt lat="41.4743882976472377777099609375" lon="2.30200429446995258331298828125">
        <ele>17.6000003814697265625</ele>
        <time>2022-05-15T05:39:48.000Z</time>
      </trkpt>
      <trkpt lat="41.4746310375630855560302734375" lon="2.3027503676712512969970703125">
        <ele>18.200000762939453125</ele>
        <time>2022-05-15T05:39:56.000Z</time>
      </trkpt>
      <trkpt lat="41.47485776804387569427490234375" lon="2.303416728973388671875">
        <ele>18.799999237060546875</ele>
        <time>2022-05-15T05:40:03.000Z</time>
      </trkpt>
      <trkpt lat="41.4749230630695819854736328125" lon="2.3036096803843975067138671875">
        <ele>18.799999237060546875</ele>
        <time>2022-05-15T05:40:05.000Z</time>
      </trkpt>
      <trkpt lat="41.474954076111316680908203125" lon="2.30370682664215564727783203125">
        <ele>18.799999237060546875</ele>
        <time>2022-05-15T05:40:06.000Z</time>
      </trkpt>
      <trkpt lat="41.47501652128994464874267578125" lon="2.3039008677005767822265625">
        <ele>18.799999237060546875</ele>
        <time>2022-05-15T05:40:08.000Z</time>
      </trkpt>
      <trkpt lat="41.47504854016005992889404296875" lon="2.30399633757770061492919921875">
        <ele>18.799999237060546875</ele>
        <time>2022-05-15T05:40:09.000Z</time>
      </trkpt>
      <trkpt lat="41.475080810487270355224609375" lon="2.30409222654998302459716796875">
        <ele>18.799999237060546875</ele>
        <time>2022-05-15T05:40:10.000Z</time>
      </trkpt>
      <trkpt lat="41.47524450905621051788330078125" lon="2.30457452125847339630126953125">
        <ele>18.6000003814697265625</ele>
        <time>2022-05-15T05:40:15.000Z</time>
      </trkpt>
      <trkpt lat="41.47546830587089061737060546875" lon="2.3052478395402431488037109375">
        <ele>18</ele>
        <time>2022-05-15T05:40:22.000Z</time>
      </trkpt>
      <trkpt lat="41.4755312539637088775634765625" lon="2.30543986894190311431884765625">
        <ele>18</ele>
        <time>2022-05-15T05:40:24.000Z</time>
      </trkpt>
      <trkpt lat="41.4755947887897491455078125" lon="2.30563156306743621826171875">
        <ele>18</ele>
        <time>2022-05-15T05:40:26.000Z</time>
      </trkpt>
      <trkpt lat="41.4757230319082736968994140625" lon="2.306013442575931549072265625">
        <ele>18</ele>
        <time>2022-05-15T05:40:30.000Z</time>
      </trkpt>
      <trkpt lat="41.47575530223548412322998046875" lon="2.30610975064337253570556640625">
        <ele>18</ele>
        <time>2022-05-15T05:40:31.000Z</time>
      </trkpt>
      <trkpt lat="41.4758185856044292449951171875" lon="2.30629943311214447021484375">
        <ele>18.200000762939453125</ele>
        <time>2022-05-15T05:40:33.000Z</time>
      </trkpt>
      <trkpt lat="41.4758514426648616790771484375" lon="2.30639523826539516448974609375">
        <ele>18</ele>
        <time>2022-05-15T05:40:34.000Z</time>
      </trkpt>
      <trkpt lat="41.47598178125917911529541015625" lon="2.30678114108741283416748046875">
        <ele>17.799999237060546875</ele>
        <time>2022-05-15T05:40:38.000Z</time>
      </trkpt>
      <trkpt lat="41.47611002437770366668701171875" lon="2.30716285295784473419189453125">
        <ele>17.799999237060546875</ele>
        <time>2022-05-15T05:40:42.000Z</time>
      </trkpt>
      <trkpt lat="41.4761424623429775238037109375" lon="2.30725622735917568206787109375">
        <ele>17.799999237060546875</ele>
        <time>2022-05-15T05:40:43.000Z</time>
      </trkpt>
      <trkpt lat="41.47634371183812618255615234375" lon="2.307808510959148406982421875">
        <ele>18</ele>
        <time>2022-05-15T05:40:49.000Z</time>
      </trkpt>
      <trkpt lat="41.47637187503278255462646484375" lon="2.30790280736982822418212890625">
        <ele>18.200000762939453125</ele>
        <time>2022-05-15T05:40:50.000Z</time>
      </trkpt>
      <trkpt lat="41.4765655808150768280029296875" lon="2.3085643909871578216552734375">
        <ele>18.3999996185302734375</ele>
        <time>2022-05-15T05:40:57.000Z</time>
      </trkpt>
      <trkpt lat="41.47678409703075885772705078125" lon="2.30930627323687076568603515625">
        <ele>18.799999237060546875</ele>
        <time>2022-05-15T05:41:05.000Z</time>
      </trkpt>
      <trkpt lat="41.47683170624077320098876953125" lon="2.3094833828508853912353515625">
        <ele>18.6000003814697265625</ele>
        <time>2022-05-15T05:41:07.000Z</time>
      </trkpt>
      <trkpt lat="41.47699632681906223297119140625" lon="2.3101190663874149322509765625">
        <ele>18.799999237060546875</ele>
        <time>2022-05-15T05:41:14.000Z</time>
      </trkpt>
      <trkpt lat="41.47706824354827404022216796875" lon="2.310425676405429840087890625">
        <ele>18.799999237060546875</ele>
        <time>2022-05-15T05:41:17.000Z</time>
      </trkpt>
      <trkpt lat="41.47709213197231292724609375" lon="2.31052919290959835052490234375">
        <ele>18.799999237060546875</ele>
        <time>2022-05-15T05:41:18.000Z</time>
      </trkpt>
      <trkpt lat="41.47713831625878810882568359375" lon="2.3107346333563327789306640625">
        <ele>18.799999237060546875</ele>
        <time>2022-05-15T05:41:20.000Z</time>
      </trkpt>
      <trkpt lat="41.47723906673491001129150390625" lon="2.31124668382108211517333984375">
        <ele>18.6000003814697265625</ele>
        <time>2022-05-15T05:41:25.000Z</time>
      </trkpt>
      <trkpt lat="41.477292291820049285888671875" lon="2.31155782006680965423583984375">
        <ele>18.3999996185302734375</ele>
        <time>2022-05-15T05:41:28.000Z</time>
      </trkpt>
      <trkpt lat="41.47741659544408321380615234375" lon="2.31229810975492000579833984375">
        <ele>18.3999996185302734375</ele>
        <time>2022-05-15T05:41:35.000Z</time>
      </trkpt>
      <trkpt lat="41.47745531983673572540283203125" lon="2.3125052265822887420654296875">
        <ele>18.6000003814697265625</ele>
        <time>2022-05-15T05:41:37.000Z</time>
      </trkpt>
      <trkpt lat="41.47751801647245883941650390625" lon="2.3128116689622402191162109375">
        <ele>19</ele>
        <time>2022-05-15T05:41:40.000Z</time>
      </trkpt>
      <trkpt lat="41.477654390037059783935546875" lon="2.31342949904501438140869140625">
        <ele>19.799999237060546875</ele>
        <time>2022-05-15T05:41:46.000Z</time>
      </trkpt>
      <trkpt lat="41.4776773564517498016357421875" lon="2.3135365359485149383544921875">
        <ele>20</ele>
        <time>2022-05-15T05:41:47.000Z</time>
      </trkpt>
      <trkpt lat="41.477806605398654937744140625" lon="2.31408328749239444732666015625">
        <ele>20.200000762939453125</ele>
        <time>2022-05-15T05:41:52.000Z</time>
      </trkpt>
      <trkpt lat="41.47783284075558185577392578125" lon="2.3141950182616710662841796875">
        <ele>20.200000762939453125</ele>
        <time>2022-05-15T05:41:53.000Z</time>
      </trkpt>
      <trkpt lat="41.4778577350080013275146484375" lon="2.31430758722126483917236328125">
        <ele>20.200000762939453125</ele>
        <time>2022-05-15T05:41:54.000Z</time>
      </trkpt>
      <trkpt lat="41.4779348485171794891357421875" lon="2.31464303098618984222412109375">
        <ele>20.200000762939453125</ele>
        <time>2022-05-15T05:41:57.000Z</time>
      </trkpt>
      <trkpt lat="41.4780867286026477813720703125" lon="2.315313331782817840576171875">
        <ele>19.799999237060546875</ele>
        <time>2022-05-15T05:42:03.000Z</time>
      </trkpt>
      <trkpt lat="41.47811162285506725311279296875" lon="2.31542388908565044403076171875">
        <ele>19.6000003814697265625</ele>
        <time>2022-05-15T05:42:04.000Z</time>
      </trkpt>
      <trkpt lat="41.47813685238361358642578125" lon="2.31553385965526103973388671875">
        <ele>19.200000762939453125</ele>
        <time>2022-05-15T05:42:05.000Z</time>
      </trkpt>
      <trkpt lat="41.47830993868410587310791015625" lon="2.316294014453887939453125">
        <ele>18.799999237060546875</ele>
        <time>2022-05-15T05:42:12.000Z</time>
      </trkpt>
      <trkpt lat="41.4783333241939544677734375" lon="2.31640272773802280426025390625">
        <ele>18.799999237060546875</ele>
        <time>2022-05-15T05:42:13.000Z</time>
      </trkpt>
      <trkpt lat="41.47850138135254383087158203125" lon="2.317155338823795318603515625">
        <ele>18.6000003814697265625</ele>
        <time>2022-05-15T05:42:20.000Z</time>
      </trkpt>
      <trkpt lat="41.4785953424870967864990234375" lon="2.31758482754230499267578125">
        <ele>18.3999996185302734375</ele>
        <time>2022-05-15T05:42:24.000Z</time>
      </trkpt>
      <trkpt lat="41.47869667969644069671630859375" lon="2.31801423244178295135498046875">
        <ele>18.3999996185302734375</ele>
        <time>2022-05-15T05:42:28.000Z</time>
      </trkpt>
      <trkpt lat="41.4787462167441844940185546875" lon="2.3182324133813381195068359375">
        <ele>18.200000762939453125</ele>
        <time>2022-05-15T05:42:30.000Z</time>
      </trkpt>
      <trkpt lat="41.4787978492677211761474609375" lon="2.31844849884510040283203125">
        <ele>18.3999996185302734375</ele>
        <time>2022-05-15T05:42:32.000Z</time>
      </trkpt>
      <trkpt lat="41.47892533801496028900146484375" lon="2.3189867846667766571044921875">
        <ele>18.200000762939453125</ele>
        <time>2022-05-15T05:42:37.000Z</time>
      </trkpt>
      <trkpt lat="41.47895048372447490692138671875" lon="2.31909600086510181427001953125">
        <ele>18</ele>
        <time>2022-05-15T05:42:38.000Z</time>
      </trkpt>
      <trkpt lat="41.478975377976894378662109375" lon="2.31920513324439525604248046875">
        <ele>18</ele>
        <time>2022-05-15T05:42:39.000Z</time>
      </trkpt>
      <trkpt lat="41.47907990030944347381591796875" lon="2.31963529251515865325927734375">
        <ele>17.3999996185302734375</ele>
        <time>2022-05-15T05:42:43.000Z</time>
      </trkpt>
      <trkpt lat="41.47913119755685329437255859375" lon="2.319851629436016082763671875">
        <ele>17.3999996185302734375</ele>
        <time>2022-05-15T05:42:45.000Z</time>
      </trkpt>
      <trkpt lat="41.4791549183428287506103515625" lon="2.319959588348865509033203125">
        <ele>17.3999996185302734375</ele>
        <time>2022-05-15T05:42:46.000Z</time>
      </trkpt>
      <trkpt lat="41.47920294664800167083740234375" lon="2.32016871683299541473388671875">
        <ele>17.3999996185302734375</ele>
        <time>2022-05-15T05:42:48.000Z</time>
      </trkpt>
      <trkpt lat="41.47927871905267238616943359375" lon="2.320587225258350372314453125">
        <ele>17.3999996185302734375</ele>
        <time>2022-05-15T05:42:52.000Z</time>
      </trkpt>
      <trkpt lat="41.479326747357845306396484375" lon="2.32079677283763885498046875">
        <ele>17.3999996185302734375</ele>
        <time>2022-05-15T05:42:54.000Z</time>
      </trkpt>
      <trkpt lat="41.47950268350541591644287109375" lon="2.3215395770967006683349609375">
        <ele>17.200000762939453125</ele>
        <time>2022-05-15T05:43:01.000Z</time>
      </trkpt>
      <trkpt lat="41.47967400960624217987060546875" lon="2.32227643020451068878173828125">
        <ele>17</ele>
        <time>2022-05-15T05:43:08.000Z</time>
      </trkpt>
      <trkpt lat="41.4797704853117465972900390625" lon="2.3226899094879627227783203125">
        <ele>17.200000762939453125</ele>
        <time>2022-05-15T05:43:12.000Z</time>
      </trkpt>
      <trkpt lat="41.479887999594211578369140625" lon="2.32320464216172695159912109375">
        <ele>17.200000762939453125</ele>
        <time>2022-05-15T05:43:17.000Z</time>
      </trkpt>
      <trkpt lat="41.4800065197050571441650390625" lon="2.32370571233332157135009765625">
        <ele>17.3999996185302734375</ele>
        <time>2022-05-15T05:43:22.000Z</time>
      </trkpt>
      <trkpt lat="41.4801671169698238372802734375" lon="2.3244078643620014190673828125">
        <ele>17.799999237060546875</ele>
        <time>2022-05-15T05:43:29.000Z</time>
      </trkpt>
      <trkpt lat="41.48023836314678192138671875" lon="2.3247163183987140655517578125">
        <ele>18</ele>
        <time>2022-05-15T05:43:32.000Z</time>
      </trkpt>
      <trkpt lat="41.48028605617582798004150390625" lon="2.324926368892192840576171875">
        <ele>18</ele>
        <time>2022-05-15T05:43:34.000Z</time>
      </trkpt>
      <trkpt lat="41.48040809668600559234619140625" lon="2.32545250095427036285400390625">
        <ele>18</ele>
        <time>2022-05-15T05:43:39.000Z</time>
      </trkpt>
      <trkpt lat="41.48045637644827365875244140625" lon="2.3256644792854785919189453125">
        <ele>17.799999237060546875</ele>
        <time>2022-05-15T05:43:41.000Z</time>
      </trkpt>
      <trkpt lat="41.48062988184392452239990234375" lon="2.32639722526073455810546875">
        <ele>17.200000762939453125</ele>
        <time>2022-05-15T05:43:48.000Z</time>
      </trkpt>
      <trkpt lat="41.4807043969631195068359375" lon="2.32670660130679607391357421875">
        <ele>17.200000762939453125</ele>
        <time>2022-05-15T05:43:51.000Z</time>
      </trkpt>
      <trkpt lat="41.4807310514152050018310546875" lon="2.326807938516139984130859375">
        <ele>17.200000762939453125</ele>
        <time>2022-05-15T05:43:52.000Z</time>
      </trkpt>
      <trkpt lat="41.4809067361056804656982421875" lon="2.32752685435116291046142578125">
        <ele>17.200000762939453125</ele>
        <time>2022-05-15T05:43:59.000Z</time>
      </trkpt>
      <trkpt lat="41.4809573628008365631103515625" lon="2.3277338035404682159423828125">
        <ele>17.200000762939453125</ele>
        <time>2022-05-15T05:44:01.000Z</time>
      </trkpt>
      <trkpt lat="41.481130532920360565185546875" lon="2.32845716178417205810546875">
        <ele>17.200000762939453125</ele>
        <time>2022-05-15T05:44:08.000Z</time>
      </trkpt>
      <trkpt lat="41.48115458898246288299560546875" lon="2.3285592533648014068603515625">
        <ele>17.200000762939453125</ele>
        <time>2022-05-15T05:44:09.000Z</time>
      </trkpt>
      <trkpt lat="41.48131468333303928375244140625" lon="2.32927096076309680938720703125">
        <ele>17.200000762939453125</ele>
        <time>2022-05-15T05:44:16.000Z</time>
      </trkpt>
      <trkpt lat="41.48140956647694110870361328125" lon="2.32967295683920383453369140625">
        <ele>17.200000762939453125</ele>
        <time>2022-05-15T05:44:20.000Z</time>
      </trkpt>
      <trkpt lat="41.4815772883594036102294921875" lon="2.3303777910768985748291015625">
        <ele>17</ele>
        <time>2022-05-15T05:44:27.000Z</time>
      </trkpt>
      <trkpt lat="41.4816996641457080841064453125" lon="2.330879531800746917724609375">
        <ele>17.200000762939453125</ele>
        <time>2022-05-15T05:44:32.000Z</time>
      </trkpt>
      <trkpt lat="41.48186068050563335418701171875" lon="2.33160397969186305999755859375">
        <ele>17</ele>
        <time>2022-05-15T05:44:39.000Z</time>
      </trkpt>
      <trkpt lat="41.4819507859647274017333984375" lon="2.3320149444043636322021484375">
        <ele>17</ele>
        <time>2022-05-15T05:44:43.000Z</time>
      </trkpt>
      <trkpt lat="41.4821093715727329254150390625" lon="2.3327230475842952728271484375">
        <ele>16.799999237060546875</ele>
        <time>2022-05-15T05:44:50.000Z</time>
      </trkpt>
      <trkpt lat="41.48220031522214412689208984375" lon="2.3331277258694171905517578125">
        <ele>17</ele>
        <time>2022-05-15T05:44:54.000Z</time>
      </trkpt>
      <trkpt lat="41.48235940374433994293212890625" lon="2.33382736332714557647705078125">
        <ele>16.799999237060546875</ele>
        <time>2022-05-15T05:45:01.000Z</time>
      </trkpt>
      <trkpt lat="41.4824478328227996826171875" lon="2.33422634191811084747314453125">
        <ele>17</ele>
        <time>2022-05-15T05:45:05.000Z</time>
      </trkpt>
      <trkpt lat="41.4825596474111080169677734375" lon="2.33472104184329509735107421875">
        <ele>17.200000762939453125</ele>
        <time>2022-05-15T05:45:10.000Z</time>
      </trkpt>
      <trkpt lat="41.48265712894499301910400390625" lon="2.335222698748111724853515625">
        <ele>17.200000762939453125</ele>
        <time>2022-05-15T05:45:15.000Z</time>
      </trkpt>
      <trkpt lat="41.48279995657503604888916015625" lon="2.33592300675809383392333984375">
        <ele>17.3999996185302734375</ele>
        <time>2022-05-15T05:45:22.000Z</time>
      </trkpt>
      <trkpt lat="41.4828392677009105682373046875" lon="2.3361234180629253387451171875">
        <ele>17.3999996185302734375</ele>
        <time>2022-05-15T05:45:24.000Z</time>
      </trkpt>
      <trkpt lat="41.48287891410291194915771484375" lon="2.33632349409162998199462890625">
        <ele>17.3999996185302734375</ele>
        <time>2022-05-15T05:45:26.000Z</time>
      </trkpt>
      <trkpt lat="41.48296122439205646514892578125" lon="2.3367203772068023681640625">
        <ele>17.3999996185302734375</ele>
        <time>2022-05-15T05:45:30.000Z</time>
      </trkpt>
      <trkpt lat="41.48302249610424041748046875" lon="2.3370159231126308441162109375">
        <ele>17.6000003814697265625</ele>
        <time>2022-05-15T05:45:33.000Z</time>
      </trkpt>
      <trkpt lat="41.483083851635456085205078125" lon="2.3373092897236347198486328125">
        <ele>17.6000003814697265625</ele>
        <time>2022-05-15T05:45:36.000Z</time>
      </trkpt>
      <trkpt lat="41.48310271091759204864501953125" lon="2.337408028542995452880859375">
        <ele>17.799999237060546875</ele>
        <time>2022-05-15T05:45:37.000Z</time>
      </trkpt>
      <trkpt lat="41.48322056047618389129638671875" lon="2.3379925824701786041259765625">
        <ele>18.200000762939453125</ele>
        <time>2022-05-15T05:45:43.000Z</time>
      </trkpt>
      <trkpt lat="41.4833425171673297882080078125" lon="2.3385816626250743865966796875">
        <ele>18.200000762939453125</ele>
        <time>2022-05-15T05:45:49.000Z</time>
      </trkpt>
      <trkpt lat="41.48340471088886260986328125" lon="2.33887762762606143951416015625">
        <ele>18.200000762939453125</ele>
        <time>2022-05-15T05:45:52.000Z</time>
      </trkpt>
      <trkpt lat="41.4834441058337688446044921875" lon="2.3390755243599414825439453125">
        <ele>18.200000762939453125</ele>
        <time>2022-05-15T05:45:54.000Z</time>
      </trkpt>
      <trkpt lat="41.48356690071523189544677734375" lon="2.33966887928545475006103515625">
        <ele>18.200000762939453125</ele>
        <time>2022-05-15T05:46:00.000Z</time>
      </trkpt>
      <trkpt lat="41.4837200380861759185791015625" lon="2.34036616981029510498046875">
        <ele>17.799999237060546875</ele>
        <time>2022-05-15T05:46:07.000Z</time>
      </trkpt>
      <trkpt lat="41.48374090902507305145263671875" lon="2.34046616591513156890869140625">
        <ele>17.799999237060546875</ele>
        <time>2022-05-15T05:46:08.000Z</time>
      </trkpt>
      <trkpt lat="41.4837837405502796173095703125" lon="2.34066666103899478912353515625">
        <ele>17.799999237060546875</ele>
        <time>2022-05-15T05:46:10.000Z</time>
      </trkpt>
      <trkpt lat="41.4838286675512790679931640625" lon="2.340866066515445709228515625">
        <ele>17.6000003814697265625</ele>
        <time>2022-05-15T05:46:12.000Z</time>
      </trkpt>
      <trkpt lat="41.48387552239000797271728515625" lon="2.3410670645534992218017578125">
        <ele>17.3999996185302734375</ele>
        <time>2022-05-15T05:46:14.000Z</time>
      </trkpt>
      <trkpt lat="41.4840061962604522705078125" lon="2.34156645834445953369140625">
        <ele>17.3999996185302734375</ele>
        <time>2022-05-15T05:46:19.000Z</time>
      </trkpt>
      <trkpt lat="41.4840620197355747222900390625" lon="2.34176628291606903076171875">
        <ele>17.3999996185302734375</ele>
        <time>2022-05-15T05:46:21.000Z</time>
      </trkpt>
      <trkpt lat="41.4840901829302310943603515625" lon="2.341865189373493194580078125">
        <ele>17.3999996185302734375</ele>
        <time>2022-05-15T05:46:22.000Z</time>
      </trkpt>
      <trkpt lat="41.48425824008882045745849609375" lon="2.3424648307263851165771484375">
        <ele>17.6000003814697265625</ele>
        <time>2022-05-15T05:46:28.000Z</time>
      </trkpt>
      <trkpt lat="41.48444783873856067657470703125" lon="2.3431551642715930938720703125">
        <ele>17.200000762939453125</ele>
        <time>2022-05-15T05:46:35.000Z</time>
      </trkpt>
      <trkpt lat="41.4846353419125080108642578125" lon="2.3438424803316593170166015625">
        <ele>17.3999996185302734375</ele>
        <time>2022-05-15T05:46:42.000Z</time>
      </trkpt>
      <trkpt lat="41.484770290553569793701171875" lon="2.34433072619140148162841796875">
        <ele>17.3999996185302734375</ele>
        <time>2022-05-15T05:46:47.000Z</time>
      </trkpt>
      <trkpt lat="41.4847969450056552886962890625" lon="2.34442862682044506072998046875">
        <ele>17.3999996185302734375</ele>
        <time>2022-05-15T05:46:48.000Z</time>
      </trkpt>
      <trkpt lat="41.4848244376480579376220703125" lon="2.34452602453529834747314453125">
        <ele>17.3999996185302734375</ele>
        <time>2022-05-15T05:46:49.000Z</time>
      </trkpt>
      <trkpt lat="41.48502065800130367279052734375" lon="2.34521468169987201690673828125">
        <ele>17.3999996185302734375</ele>
        <time>2022-05-15T05:46:56.000Z</time>
      </trkpt>
      <trkpt lat="41.48510497994720935821533203125" lon="2.34551240690052509307861328125">
        <ele>17.3999996185302734375</ele>
        <time>2022-05-15T05:46:59.000Z</time>
      </trkpt>
      <trkpt lat="41.4852965064346790313720703125" lon="2.34619184397161006927490234375">
        <ele>17.6000003814697265625</ele>
        <time>2022-05-15T05:47:06.000Z</time>
      </trkpt>
      <trkpt lat="41.485375463962554931640625" lon="2.34648227691650390625">
        <ele>17.3999996185302734375</ele>
        <time>2022-05-15T05:47:09.000Z</time>
      </trkpt>
      <trkpt lat="41.48559951223433017730712890625" lon="2.347239665687084197998046875">
        <ele>17.6000003814697265625</ele>
        <time>2022-05-15T05:47:17.000Z</time>
      </trkpt>
      <trkpt lat="41.485630609095096588134765625" lon="2.34733195044100284576416015625">
        <ele>17.6000003814697265625</ele>
        <time>2022-05-15T05:47:18.000Z</time>
      </trkpt>
      <trkpt lat="41.48575390689074993133544921875" lon="2.34770259819924831390380859375">
        <ele>17.6000003814697265625</ele>
        <time>2022-05-15T05:47:22.000Z</time>
      </trkpt>
      <trkpt lat="41.48580394685268402099609375" lon="2.3478979803621768951416015625">
        <ele>17.799999237060546875</ele>
        <time>2022-05-15T05:47:24.000Z</time>
      </trkpt>
      <trkpt lat="41.4858607761561870574951171875" lon="2.348091602325439453125">
        <ele>17.799999237060546875</ele>
        <time>2022-05-15T05:47:26.000Z</time>
      </trkpt>
      <trkpt lat="41.4859248138964176177978515625" lon="2.34839326702058315277099609375">
        <ele>17.799999237060546875</ele>
        <time>2022-05-15T05:47:29.000Z</time>
      </trkpt>
      <trkpt lat="41.4861098863184452056884765625" lon="2.34907488338649272918701171875">
        <ele>17.799999237060546875</ele>
        <time>2022-05-15T05:47:36.000Z</time>
      </trkpt>
      <trkpt lat="41.48621625266969203948974609375" lon="2.3494620434939861297607421875">
        <ele>18</ele>
        <time>2022-05-15T05:47:40.000Z</time>
      </trkpt>
      <trkpt lat="41.48624307475984096527099609375" lon="2.349559105932712554931640625">
        <ele>17.799999237060546875</ele>
        <time>2022-05-15T05:47:41.000Z</time>
      </trkpt>
      <trkpt lat="41.48637634702026844024658203125" lon="2.3500444181263446807861328125">
        <ele>18</ele>
        <time>2022-05-15T05:47:46.000Z</time>
      </trkpt>
      <trkpt lat="41.48657030425965785980224609375" lon="2.350728549063205718994140625">
        <ele>18</ele>
        <time>2022-05-15T05:47:53.000Z</time>
      </trkpt>
      <trkpt lat="41.486737020313739776611328125" lon="2.351320646703243255615234375">
        <ele>18</ele>
        <time>2022-05-15T05:47:59.000Z</time>
      </trkpt>
      <trkpt lat="41.48679141886532306671142578125" lon="2.3515172861516475677490234375">
        <ele>18</ele>
        <time>2022-05-15T05:48:01.000Z</time>
      </trkpt>
      <trkpt lat="41.48687071166932582855224609375" lon="2.35180956311523914337158203125">
        <ele>17.799999237060546875</ele>
        <time>2022-05-15T05:48:04.000Z</time>
      </trkpt>
      <trkpt lat="41.486949585378170013427734375" lon="2.35210142098367214202880859375">
        <ele>17.799999237060546875</ele>
        <time>2022-05-15T05:48:07.000Z</time>
      </trkpt>
      <trkpt lat="41.48697607219219207763671875" lon="2.35219932161271572113037109375">
        <ele>17.799999237060546875</ele>
        <time>2022-05-15T05:48:08.000Z</time>
      </trkpt>
      <trkpt lat="41.4871626533567905426025390625" lon="2.35288311727344989776611328125">
        <ele>17.799999237060546875</ele>
        <time>2022-05-15T05:48:15.000Z</time>
      </trkpt>
      <trkpt lat="41.48719064891338348388671875" lon="2.35298068262636661529541015625">
        <ele>17.799999237060546875</ele>
        <time>2022-05-15T05:48:16.000Z</time>
      </trkpt>
      <trkpt lat="41.487218476831912994384765625" lon="2.35307724215090274810791015625">
        <ele>17.799999237060546875</ele>
        <time>2022-05-15T05:48:17.000Z</time>
      </trkpt>
      <trkpt lat="41.48732970468699932098388671875" lon="2.35346197150647640228271484375">
        <ele>17.799999237060546875</ele>
        <time>2022-05-15T05:48:21.000Z</time>
      </trkpt>
      <trkpt lat="41.487357616424560546875" lon="2.35355869866907596588134765625">
        <ele>17.6000003814697265625</ele>
        <time>2022-05-15T05:48:22.000Z</time>
      </trkpt>
      <trkpt lat="41.487526260316371917724609375" lon="2.35413973219692707061767578125">
        <ele>17.6000003814697265625</ele>
        <time>2022-05-15T05:48:28.000Z</time>
      </trkpt>
      <trkpt lat="41.48767503909766674041748046875" lon="2.35461683012545108795166015625">
        <ele>17.799999237060546875</ele>
        <time>2022-05-15T05:48:33.000Z</time>
      </trkpt>
      <trkpt lat="41.48790705017745494842529296875" lon="2.35537405125796794891357421875">
        <ele>17.799999237060546875</ele>
        <time>2022-05-15T05:48:41.000Z</time>
      </trkpt>
      <trkpt lat="41.48808457888662815093994140625" lon="2.35607142560184001922607421875">
        <ele>17.6000003814697265625</ele>
        <time>2022-05-15T05:48:48.000Z</time>
      </trkpt>
      <trkpt lat="41.48814291693270206451416015625" lon="2.35627275891602039337158203125">
        <ele>17.799999237060546875</ele>
        <time>2022-05-15T05:48:50.000Z</time>
      </trkpt>
      <trkpt lat="41.48834123276174068450927734375" lon="2.35698823817074298858642578125">
        <ele>17.3999996185302734375</ele>
        <time>2022-05-15T05:48:57.000Z</time>
      </trkpt>
      <trkpt lat="41.488368809223175048828125" lon="2.3570895753800868988037109375">
        <ele>17.3999996185302734375</ele>
        <time>2022-05-15T05:48:58.000Z</time>
      </trkpt>
      <trkpt lat="41.48845237679779529571533203125" lon="2.35739006660878658294677734375">
        <ele>17.200000762939453125</ele>
        <time>2022-05-15T05:49:01.000Z</time>
      </trkpt>
      <trkpt lat="41.48864440619945526123046875" lon="2.3580734431743621826171875">
        <ele>17.200000762939453125</ele>
        <time>2022-05-15T05:49:08.000Z</time>
      </trkpt>
      <trkpt lat="41.48875546641647815704345703125" lon="2.35846077091991901397705078125">
        <ele>17</ele>
        <time>2022-05-15T05:49:12.000Z</time>
      </trkpt>
      <trkpt lat="41.48878145031630992889404296875" lon="2.35855883918702602386474609375">
        <ele>17.200000762939453125</ele>
        <time>2022-05-15T05:49:13.000Z</time>
      </trkpt>
      <trkpt lat="41.488945484161376953125" lon="2.3591407947242259979248046875">
        <ele>17.200000762939453125</ele>
        <time>2022-05-15T05:49:19.000Z</time>
      </trkpt>
      <trkpt lat="41.48913566954433917999267578125" lon="2.359828613698482513427734375">
        <ele>17.200000762939453125</ele>
        <time>2022-05-15T05:49:26.000Z</time>
      </trkpt>
      <trkpt lat="41.4893251843750476837158203125" lon="2.36051894724369049072265625">
        <ele>17.200000762939453125</ele>
        <time>2022-05-15T05:49:33.000Z</time>
      </trkpt>
      <trkpt lat="41.489433310925960540771484375" lon="2.36090979538857936859130859375">
        <ele>17</ele>
        <time>2022-05-15T05:49:37.000Z</time>
      </trkpt>
      <trkpt lat="41.4896286092698574066162109375" lon="2.3615876398980617523193359375">
        <ele>16.799999237060546875</ele>
        <time>2022-05-15T05:49:44.000Z</time>
      </trkpt>
      <trkpt lat="41.489810161292552947998046875" lon="2.36216372810304164886474609375">
        <ele>17</ele>
        <time>2022-05-15T05:49:50.000Z</time>
      </trkpt>
      <trkpt lat="41.4900342933833599090576171875" lon="2.36282422207295894622802734375">
        <ele>16.799999237060546875</ele>
        <time>2022-05-15T05:49:57.000Z</time>
      </trkpt>
      <trkpt lat="41.49009824730455875396728515625" lon="2.363010384142398834228515625">
        <ele>16.6000003814697265625</ele>
        <time>2022-05-15T05:49:59.000Z</time>
      </trkpt>
      <trkpt lat="41.49034492671489715576171875" lon="2.3637605644762516021728515625">
        <ele>16.799999237060546875</ele>
        <time>2022-05-15T05:50:07.000Z</time>
      </trkpt>
      <trkpt lat="41.49040821008384227752685546875" lon="2.36394437961280345916748046875">
        <ele>16.6000003814697265625</ele>
        <time>2022-05-15T05:50:09.000Z</time>
      </trkpt>
      <trkpt lat="41.4904735051095485687255859375" lon="2.36413129605352878570556640625">
        <ele>16.6000003814697265625</ele>
        <time>2022-05-15T05:50:11.000Z</time>
      </trkpt>
      <trkpt lat="41.49050678126513957977294921875" lon="2.36422433517873287200927734375">
        <ele>16.6000003814697265625</ele>
        <time>2022-05-15T05:50:12.000Z</time>
      </trkpt>
      <trkpt lat="41.49053779430687427520751953125" lon="2.36431787721812725067138671875">
        <ele>16.6000003814697265625</ele>
        <time>2022-05-15T05:50:13.000Z</time>
      </trkpt>
      <trkpt lat="41.49063192307949066162109375" lon="2.36459984444081783294677734375">
        <ele>16.6000003814697265625</ele>
        <time>2022-05-15T05:50:16.000Z</time>
      </trkpt>
      <trkpt lat="41.4906934462487697601318359375" lon="2.36478642560541629791259765625">
        <ele>16.799999237060546875</ele>
        <time>2022-05-15T05:50:18.000Z</time>
      </trkpt>
      <trkpt lat="41.49078388698399066925048828125" lon="2.3650671355426311492919921875">
        <ele>16.6000003814697265625</ele>
        <time>2022-05-15T05:50:21.000Z</time>
      </trkpt>
      <trkpt lat="41.490873992443084716796875" lon="2.36534935422241687774658203125">
        <ele>16.3999996185302734375</ele>
        <time>2022-05-15T05:50:24.000Z</time>
      </trkpt>
      <trkpt lat="41.4910270459949970245361328125" lon="2.3658215068280696868896484375">
        <ele>16.3999996185302734375</ele>
        <time>2022-05-15T05:50:29.000Z</time>
      </trkpt>
      <trkpt lat="41.49115336127579212188720703125" lon="2.36619810573756694793701171875">
        <ele>16.3999996185302734375</ele>
        <time>2022-05-15T05:50:33.000Z</time>
      </trkpt>
      <trkpt lat="41.49137347005307674407958984375" lon="2.3668558336794376373291015625">
        <ele>16.6000003814697265625</ele>
        <time>2022-05-15T05:50:40.000Z</time>
      </trkpt>
      <trkpt lat="41.49143549613654613494873046875" lon="2.36704685725271701812744140625">
        <ele>16.799999237060546875</ele>
        <time>2022-05-15T05:50:42.000Z</time>
      </trkpt>
      <trkpt lat="41.4915608055889606475830078125" lon="2.36743276007473468780517578125">
        <ele>16.6000003814697265625</ele>
        <time>2022-05-15T05:50:46.000Z</time>
      </trkpt>
      <trkpt lat="41.49168561212718486785888671875" lon="2.36780592240393161773681640625">
        <ele>16.3999996185302734375</ele>
        <time>2022-05-15T05:50:50.000Z</time>
      </trkpt>
      <trkpt lat="41.49174814112484455108642578125" lon="2.36799334175884723663330078125">
        <ele>16.6000003814697265625</ele>
        <time>2022-05-15T05:50:52.000Z</time>
      </trkpt>
      <trkpt lat="41.49197378195822238922119140625" lon="2.36865769140422344207763671875">
        <ele>16.6000003814697265625</ele>
        <time>2022-05-15T05:50:59.000Z</time>
      </trkpt>
      <trkpt lat="41.4920372329652309417724609375" lon="2.368850894272327423095703125">
        <ele>16.6000003814697265625</ele>
        <time>2022-05-15T05:51:01.000Z</time>
      </trkpt>
      <trkpt lat="41.49219573475420475006103515625" lon="2.3693355359137058258056640625">
        <ele>16.799999237060546875</ele>
        <time>2022-05-15T05:51:06.000Z</time>
      </trkpt>
      <trkpt lat="41.4922280050814151763916015625" lon="2.36943201161921024322509765625">
        <ele>16.799999237060546875</ele>
        <time>2022-05-15T05:51:07.000Z</time>
      </trkpt>
      <trkpt lat="41.49228910915553569793701171875" lon="2.36962714232504367828369140625">
        <ele>17</ele>
        <time>2022-05-15T05:51:09.000Z</time>
      </trkpt>
      <trkpt lat="41.492319367825984954833984375" lon="2.369725964963436126708984375">
        <ele>16.799999237060546875</ele>
        <time>2022-05-15T05:51:10.000Z</time>
      </trkpt>
      <trkpt lat="41.49254165589809417724609375" lon="2.37042593769729137420654296875">
        <ele>16.6000003814697265625</ele>
        <time>2022-05-15T05:51:17.000Z</time>
      </trkpt>
      <trkpt lat="41.49263913743197917938232421875" lon="2.37072131596505641937255859375">
        <ele>16.6000003814697265625</ele>
        <time>2022-05-15T05:51:20.000Z</time>
      </trkpt>
      <trkpt lat="41.49286444298923015594482421875" lon="2.371409051120281219482421875">
        <ele>16.6000003814697265625</ele>
        <time>2022-05-15T05:51:27.000Z</time>
      </trkpt>
      <trkpt lat="41.49305437691509723663330078125" lon="2.371997125446796417236328125">
        <ele>16.6000003814697265625</ele>
        <time>2022-05-15T05:51:33.000Z</time>
      </trkpt>
      <trkpt lat="41.49328052066266536712646484375" lon="2.37267765216529369354248046875">
        <ele>16.799999237060546875</ele>
        <time>2022-05-15T05:51:40.000Z</time>
      </trkpt>
      <trkpt lat="41.4934427104890346527099609375" lon="2.37316413782536983489990234375">
        <ele>16.799999237060546875</ele>
        <time>2022-05-15T05:51:45.000Z</time>
      </trkpt>
      <trkpt lat="41.49360724724829196929931640625" lon="2.37365967594087123870849609375">
        <ele>16.799999237060546875</ele>
        <time>2022-05-15T05:51:50.000Z</time>
      </trkpt>
      <trkpt lat="41.493673883378505706787109375" lon="2.37385698594152927398681640625">
        <ele>16.6000003814697265625</ele>
        <time>2022-05-15T05:51:52.000Z</time>
      </trkpt>
      <trkpt lat="41.4937072433531284332275390625" lon="2.373956143856048583984375">
        <ele>16.6000003814697265625</ele>
        <time>2022-05-15T05:51:53.000Z</time>
      </trkpt>
      <trkpt lat="41.493773125112056732177734375" lon="2.37415404058992862701416015625">
        <ele>16.799999237060546875</ele>
        <time>2022-05-15T05:51:55.000Z</time>
      </trkpt>
      <trkpt lat="41.49380497634410858154296875" lon="2.37425395287573337554931640625">
        <ele>16.799999237060546875</ele>
        <time>2022-05-15T05:51:56.000Z</time>
      </trkpt>
      <trkpt lat="41.49383640848100185394287109375" lon="2.37435336224734783172607421875">
        <ele>16.6000003814697265625</ele>
        <time>2022-05-15T05:51:57.000Z</time>
      </trkpt>
      <trkpt lat="41.4940644800662994384765625" lon="2.37504688091576099395751953125">
        <ele>16.6000003814697265625</ele>
        <time>2022-05-15T05:52:04.000Z</time>
      </trkpt>
      <trkpt lat="41.494129188358783721923828125" lon="2.3752414248883724212646484375">
        <ele>16.6000003814697265625</ele>
        <time>2022-05-15T05:52:06.000Z</time>
      </trkpt>
      <trkpt lat="41.4941933937370777130126953125" lon="2.37543630413711071014404296875">
        <ele>16.6000003814697265625</ele>
        <time>2022-05-15T05:52:08.000Z</time>
      </trkpt>
      <trkpt lat="41.4944207109510898590087890625" lon="2.37612269818782806396484375">
        <ele>16.799999237060546875</ele>
        <time>2022-05-15T05:52:15.000Z</time>
      </trkpt>
      <trkpt lat="41.494485922157764434814453125" lon="2.37631707452237606048583984375">
        <ele>16.6000003814697265625</ele>
        <time>2022-05-15T05:52:17.000Z</time>
      </trkpt>
      <trkpt lat="41.4945176057517528533935546875" lon="2.3764135502278804779052734375">
        <ele>16.799999237060546875</ele>
        <time>2022-05-15T05:52:18.000Z</time>
      </trkpt>
      <trkpt lat="41.494612991809844970703125" lon="2.3767018876969814300537109375">
        <ele>17</ele>
        <time>2022-05-15T05:52:21.000Z</time>
      </trkpt>
      <trkpt lat="41.49464459158480167388916015625" lon="2.37679668702185153961181640625">
        <ele>17</ele>
        <time>2022-05-15T05:52:22.000Z</time>
      </trkpt>
      <trkpt lat="41.49467711336910724639892578125" lon="2.3768913187086582183837890625">
        <ele>17</ele>
        <time>2022-05-15T05:52:23.000Z</time>
      </trkpt>
      <trkpt lat="41.494868136942386627197265625" lon="2.37746187485754489898681640625">
        <ele>16.799999237060546875</ele>
        <time>2022-05-15T05:52:29.000Z</time>
      </trkpt>
      <trkpt lat="41.49499512277543544769287109375" lon="2.37784107215702533721923828125">
        <ele>17</ele>
        <time>2022-05-15T05:52:33.000Z</time>
      </trkpt>
      <trkpt lat="41.49518773891031742095947265625" lon="2.37840735353529453277587890625">
        <ele>17</ele>
        <time>2022-05-15T05:52:39.000Z</time>
      </trkpt>
      <trkpt lat="41.49540935643017292022705078125" lon="2.3790659196674823760986328125">
        <ele>17</ele>
        <time>2022-05-15T05:52:46.000Z</time>
      </trkpt>
      <trkpt lat="41.4955133758485317230224609375" lon="2.379343695938587188720703125">
        <ele>17</ele>
        <time>2022-05-15T05:52:49.000Z</time>
      </trkpt>
      <trkpt lat="41.4957799203693866729736328125" lon="2.3799832351505756378173828125">
        <ele>17.200000762939453125</ele>
        <time>2022-05-15T05:52:56.000Z</time>
      </trkpt>
      <trkpt lat="41.49590648710727691650390625" lon="2.3802474327385425567626953125">
        <ele>17</ele>
        <time>2022-05-15T05:52:59.000Z</time>
      </trkpt>
      <trkpt lat="41.49603791534900665283203125" lon="2.380507104098796844482421875">
        <ele>17.3999996185302734375</ele>
        <time>2022-05-15T05:53:02.000Z</time>
      </trkpt>
      <trkpt lat="41.49617336690425872802734375" lon="2.3807667754590511322021484375">
        <ele>17.3999996185302734375</ele>
        <time>2022-05-15T05:53:05.000Z</time>
      </trkpt>
      <trkpt lat="41.4964917115867137908935546875" lon="2.38137538544833660125732421875">
        <ele>17</ele>
        <time>2022-05-15T05:53:12.000Z</time>
      </trkpt>
      <trkpt lat="41.49653621949255466461181640625" lon="2.3814621381461620330810546875">
        <ele>17</ele>
        <time>2022-05-15T05:53:13.000Z</time>
      </trkpt>
      <trkpt lat="41.4968494512140750885009765625" lon="2.3820619471371173858642578125">
        <ele>16.799999237060546875</ele>
        <time>2022-05-15T05:53:20.000Z</time>
      </trkpt>
      <trkpt lat="41.497076936066150665283203125" lon="2.3824895918369293212890625">
        <ele>17</ele>
        <time>2022-05-15T05:53:25.000Z</time>
      </trkpt>
      <trkpt lat="41.49739687331020832061767578125" lon="2.38309468142688274383544921875">
        <ele>17.200000762939453125</ele>
        <time>2022-05-15T05:53:32.000Z</time>
      </trkpt>
      <trkpt lat="41.49753534235060214996337890625" lon="2.38335535861551761627197265625">
        <ele>17.200000762939453125</ele>
        <time>2022-05-15T05:53:35.000Z</time>
      </trkpt>
      <trkpt lat="41.49758161045610904693603515625" lon="2.3834416083991527557373046875">
        <ele>17.200000762939453125</ele>
        <time>2022-05-15T05:53:36.000Z</time>
      </trkpt>
      <trkpt lat="41.4979055710136890411376953125" lon="2.3840544931590557098388671875">
        <ele>17.200000762939453125</ele>
        <time>2022-05-15T05:53:43.000Z</time>
      </trkpt>
      <trkpt lat="41.49804278276860713958740234375" lon="2.3843200318515300750732421875">
        <ele>17.200000762939453125</ele>
        <time>2022-05-15T05:53:46.000Z</time>
      </trkpt>
      <trkpt lat="41.49836448021233081817626953125" lon="2.38494046032428741455078125">
        <ele>17</ele>
        <time>2022-05-15T05:53:53.000Z</time>
      </trkpt>
      <trkpt lat="41.4985047094523906707763671875" lon="2.38521111197769641876220703125">
        <ele>17.200000762939453125</ele>
        <time>2022-05-15T05:53:56.000Z</time>
      </trkpt>
      <trkpt lat="41.4988299272954463958740234375" lon="2.3858458735048770904541015625">
        <ele>17.200000762939453125</ele>
        <time>2022-05-15T05:54:03.000Z</time>
      </trkpt>
      <trkpt lat="41.498877368867397308349609375" lon="2.3859363980591297149658203125">
        <ele>17.3999996185302734375</ele>
        <time>2022-05-15T05:54:04.000Z</time>
      </trkpt>
      <trkpt lat="41.49897401221096515655517578125" lon="2.38612071610987186431884765625">
        <ele>17.3999996185302734375</ele>
        <time>2022-05-15T05:54:06.000Z</time>
      </trkpt>
      <trkpt lat="41.49928280152380466461181640625" lon="2.3867849819362163543701171875">
        <ele>17.3999996185302734375</ele>
        <time>2022-05-15T05:54:13.000Z</time>
      </trkpt>
      <trkpt lat="41.49957750923931598663330078125" lon="2.38744757138192653656005859375">
        <ele>17</ele>
        <time>2022-05-15T05:54:20.000Z</time>
      </trkpt>
      <trkpt lat="41.49974078871309757232666015625" lon="2.38782207481563091278076171875">
        <ele>17.200000762939453125</ele>
        <time>2022-05-15T05:54:24.000Z</time>
      </trkpt>
      <trkpt lat="41.4998619072139263153076171875" lon="2.38809498958289623260498046875">
        <ele>17.200000762939453125</ele>
        <time>2022-05-15T05:54:27.000Z</time>
      </trkpt>
      <trkpt lat="41.50005829520523548126220703125" lon="2.38852699287235736846923828125">
        <ele>17</ele>
        <time>2022-05-15T05:54:32.000Z</time>
      </trkpt>
      <trkpt lat="41.5000962652266025543212890625" lon="2.38860678859055042266845703125">
        <ele>17</ele>
        <time>2022-05-15T05:54:33.000Z</time>
      </trkpt>
      <trkpt lat="41.50013239122927188873291015625" lon="2.38868541084229946136474609375">
        <ele>17.200000762939453125</ele>
        <time>2022-05-15T05:54:34.000Z</time>
      </trkpt>
      <trkpt lat="41.50030371733009815216064453125" lon="2.3890598304569721221923828125">
        <ele>17.3999996185302734375</ele>
        <time>2022-05-15T05:54:39.000Z</time>
      </trkpt>
      <trkpt lat="41.50033841840922832489013671875" lon="2.38913535140454769134521484375">
        <ele>17.200000762939453125</ele>
        <time>2022-05-15T05:54:40.000Z</time>
      </trkpt>
      <trkpt lat="41.50037504732608795166015625" lon="2.38921212963759899139404296875">
        <ele>17.200000762939453125</ele>
        <time>2022-05-15T05:54:41.000Z</time>
      </trkpt>
      <trkpt lat="41.50068341754376888275146484375" lon="2.38988243043422698974609375">
        <ele>17.3999996185302734375</ele>
        <time>2022-05-15T05:54:49.000Z</time>
      </trkpt>
      <trkpt lat="41.50095985271036624908447265625" lon="2.39052792079746723175048828125">
        <ele>17.3999996185302734375</ele>
        <time>2022-05-15T05:54:56.000Z</time>
      </trkpt>
      <trkpt lat="41.50099757127463817596435546875" lon="2.3906191997230052947998046875">
        <ele>17.6000003814697265625</ele>
        <time>2022-05-15T05:54:57.000Z</time>
      </trkpt>
      <trkpt lat="41.501269899308681488037109375" lon="2.39127642475068569183349609375">
        <ele>17.200000762939453125</ele>
        <time>2022-05-15T05:55:04.000Z</time>
      </trkpt>
      <trkpt lat="41.50131273083388805389404296875" lon="2.39137097261846065521240234375">
        <ele>17.3999996185302734375</ele>
        <time>2022-05-15T05:55:05.000Z</time>
      </trkpt>
      <trkpt lat="41.501629650592803955078125" lon="2.3920114338397979736328125">
        <ele>17.200000762939453125</ele>
        <time>2022-05-15T05:55:12.000Z</time>
      </trkpt>
      <trkpt lat="41.50172042660415172576904296875" lon="2.39219239912927150726318359375">
        <ele>17.200000762939453125</ele>
        <time>2022-05-15T05:55:14.000Z</time>
      </trkpt>
      <trkpt lat="41.50198512710630893707275390625" lon="2.3927374742925167083740234375">
        <ele>17</ele>
        <time>2022-05-15T05:55:20.000Z</time>
      </trkpt>
      <trkpt lat="41.5020301379263401031494140625" lon="2.3928269930183887481689453125">
        <ele>17</ele>
        <time>2022-05-15T05:55:21.000Z</time>
      </trkpt>
      <trkpt lat="41.50207464583218097686767578125" lon="2.3929161764681339263916015625">
        <ele>17</ele>
        <time>2022-05-15T05:55:22.000Z</time>
      </trkpt>
      <trkpt lat="41.50238678790628910064697265625" lon="2.39355194382369518280029296875">
        <ele>17.200000762939453125</ele>
        <time>2022-05-15T05:55:29.000Z</time>
      </trkpt>
      <trkpt lat="41.50243154726922512054443359375" lon="2.39364129491150379180908203125">
        <ele>17</ele>
        <time>2022-05-15T05:55:30.000Z</time>
      </trkpt>
      <trkpt lat="41.502522490918636322021484375" lon="2.39382016472518444061279296875">
        <ele>17</ele>
        <time>2022-05-15T05:55:32.000Z</time>
      </trkpt>
      <trkpt lat="41.50279046036303043365478515625" lon="2.39435945637524127960205078125">
        <ele>17</ele>
        <time>2022-05-15T05:55:38.000Z</time>
      </trkpt>
      <trkpt lat="41.502834968268871307373046875" lon="2.39444931037724018096923828125">
        <ele>17</ele>
        <time>2022-05-15T05:55:39.000Z</time>
      </trkpt>
      <trkpt lat="41.50297117419540882110595703125" lon="2.39471836946904659271240234375">
        <ele>17</ele>
        <time>2022-05-15T05:55:42.000Z</time>
      </trkpt>
      <trkpt lat="41.503061950206756591796875" lon="2.39489707164466381072998046875">
        <ele>16.799999237060546875</ele>
        <time>2022-05-15T05:55:44.000Z</time>
      </trkpt>
      <trkpt lat="41.5033823065459728240966796875" lon="2.3955224454402923583984375">
        <ele>17</ele>
        <time>2022-05-15T05:55:51.000Z</time>
      </trkpt>
      <trkpt lat="41.50342882610857486724853515625" lon="2.39560894668102264404296875">
        <ele>17</ele>
        <time>2022-05-15T05:55:52.000Z</time>
      </trkpt>
      <trkpt lat="41.50376058183610439300537109375" lon="2.39620666019618511199951171875">
        <ele>16.799999237060546875</ele>
        <time>2022-05-15T05:55:59.000Z</time>
      </trkpt>
      <trkpt lat="41.50390458293259143829345703125" lon="2.39645778201520442962646484375">
        <ele>16.6000003814697265625</ele>
        <time>2022-05-15T05:56:02.000Z</time>
      </trkpt>
      <trkpt lat="41.504242457449436187744140625" lon="2.39703428931534290313720703125">
        <ele>16.6000003814697265625</ele>
        <time>2022-05-15T05:56:09.000Z</time>
      </trkpt>
      <trkpt lat="41.50438771583139896392822265625" lon="2.3972818069159984588623046875">
        <ele>16.6000003814697265625</ele>
        <time>2022-05-15T05:56:12.000Z</time>
      </trkpt>
      <trkpt lat="41.50453205220401287078857421875" lon="2.3975292406976222991943359375">
        <ele>16.799999237060546875</ele>
        <time>2022-05-15T05:56:15.000Z</time>
      </trkpt>
      <trkpt lat="41.50482189841568470001220703125" lon="2.39802989177405834197998046875">
        <ele>16.799999237060546875</ele>
        <time>2022-05-15T05:56:21.000Z</time>
      </trkpt>
      <trkpt lat="41.5048695914447307586669921875" lon="2.398113794624805450439453125">
        <ele>16.799999237060546875</ele>
        <time>2022-05-15T05:56:22.000Z</time>
      </trkpt>
      <trkpt lat="41.5051592700183391571044921875" lon="2.39861863665282726287841796875">
        <ele>17</ele>
        <time>2022-05-15T05:56:28.000Z</time>
      </trkpt>
      <trkpt lat="41.50530000217258930206298828125" lon="2.3988757096230983734130859375">
        <ele>17.200000762939453125</ele>
        <time>2022-05-15T05:56:31.000Z</time>
      </trkpt>
      <trkpt lat="41.505625136196613311767578125" lon="2.3994725011289119720458984375">
        <ele>17.200000762939453125</ele>
        <time>2022-05-15T05:56:38.000Z</time>
      </trkpt>
      <trkpt lat="41.505814902484416961669921875" lon="2.39981238730251789093017578125">
        <ele>17.200000762939453125</ele>
        <time>2022-05-15T05:56:42.000Z</time>
      </trkpt>
      <trkpt lat="41.50615009479224681854248046875" lon="2.40038788877427577972412109375">
        <ele>17.200000762939453125</ele>
        <time>2022-05-15T05:56:49.000Z</time>
      </trkpt>
      <trkpt lat="41.5062512643635272979736328125" lon="2.40055049769580364227294921875">
        <ele>17</ele>
        <time>2022-05-15T05:56:51.000Z</time>
      </trkpt>
      <trkpt lat="41.506459303200244903564453125" lon="2.40087211132049560546875">
        <ele>17</ele>
        <time>2022-05-15T05:56:55.000Z</time>
      </trkpt>
      <trkpt lat="41.506511606276035308837890625" lon="2.4009520746767520904541015625">
        <ele>17.200000762939453125</ele>
        <time>2022-05-15T05:56:56.000Z</time>
      </trkpt>
      <trkpt lat="41.50661864317953586578369140625" lon="2.40110881626605987548828125">
        <ele>17.200000762939453125</ele>
        <time>2022-05-15T05:56:58.000Z</time>
      </trkpt>
      <trkpt lat="41.50672744028270244598388671875" lon="2.40126312710344791412353515625">
        <ele>17.200000762939453125</ele>
        <time>2022-05-15T05:57:00.000Z</time>
      </trkpt>
      <trkpt lat="41.50678276084363460540771484375" lon="2.4013389833271503448486328125">
        <ele>17.200000762939453125</ele>
        <time>2022-05-15T05:57:01.000Z</time>
      </trkpt>
      <trkpt lat="41.50689725764095783233642578125" lon="2.4014911986887454986572265625">
        <ele>17.3999996185302734375</ele>
        <time>2022-05-15T05:57:03.000Z</time>
      </trkpt>
      <trkpt lat="41.50729112327098846435546875" lon="2.4020487628877162933349609375">
        <ele>17.200000762939453125</ele>
        <time>2022-05-15T05:57:10.000Z</time>
      </trkpt>
      <trkpt lat="41.50771365500986576080322265625" lon="2.40265066735446453094482421875">
        <ele>16.799999237060546875</ele>
        <time>2022-05-15T05:57:17.000Z</time>
      </trkpt>
      <trkpt lat="41.50795253925025463104248046875" lon="2.4030029587447643280029296875">
        <ele>16.799999237060546875</ele>
        <time>2022-05-15T05:57:21.000Z</time>
      </trkpt>
      <trkpt lat="41.50813040323555469512939453125" lon="2.4032611213624477386474609375">
        <ele>16.799999237060546875</ele>
        <time>2022-05-15T05:57:24.000Z</time>
      </trkpt>
      <trkpt lat="41.50824590586125850677490234375" lon="2.403427250683307647705078125">
        <ele>17</ele>
        <time>2022-05-15T05:57:26.000Z</time>
      </trkpt>
      <trkpt lat="41.50847439654171466827392578125" lon="2.40375573746860027313232421875">
        <ele>16.799999237060546875</ele>
        <time>2022-05-15T05:57:30.000Z</time>
      </trkpt>
      <trkpt lat="41.5087014622986316680908203125" lon="2.40409688092768192291259765625">
        <ele>16.799999237060546875</ele>
        <time>2022-05-15T05:57:34.000Z</time>
      </trkpt>
      <trkpt lat="41.5087564475834369659423828125" lon="2.404184974730014801025390625">
        <ele>16.799999237060546875</ele>
        <time>2022-05-15T05:57:35.000Z</time>
      </trkpt>
      <trkpt lat="41.509028188884258270263671875" lon="2.4046132899820804595947265625">
        <ele>16.6000003814697265625</ele>
        <time>2022-05-15T05:57:40.000Z</time>
      </trkpt>
      <trkpt lat="41.50920211337506771087646484375" lon="2.40485745482146739959716796875">
        <ele>16.799999237060546875</ele>
        <time>2022-05-15T05:57:43.000Z</time>
      </trkpt>
      <trkpt lat="41.509373523294925689697265625" lon="2.4051032960414886474609375">
        <ele>16.799999237060546875</ele>
        <time>2022-05-15T05:57:46.000Z</time>
      </trkpt>
      <trkpt lat="41.50970905087888240814208984375" lon="2.4055929668247699737548828125">
        <ele>17.200000762939453125</ele>
        <time>2022-05-15T05:57:52.000Z</time>
      </trkpt>
      <trkpt lat="41.5098722465336322784423828125" lon="2.40583310835063457489013671875">
        <ele>18.200000762939453125</ele>
        <time>2022-05-15T05:57:55.000Z</time>
      </trkpt>
      <trkpt lat="41.51025169529020786285400390625" lon="2.406383715569972991943359375">
        <ele>19.200000762939453125</ele>
        <time>2022-05-15T05:58:02.000Z</time>
      </trkpt>
      <trkpt lat="41.51062837801873683929443359375" lon="2.4069300480186939239501953125">
        <ele>20</ele>
        <time>2022-05-15T05:58:09.000Z</time>
      </trkpt>
      <trkpt lat="41.5106807649135589599609375" lon="2.4070061556994915008544921875">
        <ele>20</ele>
        <time>2022-05-15T05:58:10.000Z</time>
      </trkpt>
      <trkpt lat="41.5108351595699787139892578125" lon="2.4072383344173431396484375">
        <ele>20.200000762939453125</ele>
        <time>2022-05-15T05:58:13.000Z</time>
      </trkpt>
      <trkpt lat="41.51094253174960613250732421875" lon="2.40739013068377971649169921875">
        <ele>20.799999237060546875</ele>
        <time>2022-05-15T05:58:15.000Z</time>
      </trkpt>
      <trkpt lat="41.5112656541168689727783203125" lon="2.4078445136547088623046875">
        <ele>21.3999996185302734375</ele>
        <time>2022-05-15T05:58:21.000Z</time>
      </trkpt>
      <trkpt lat="41.511436142027378082275390625" lon="2.408076189458370208740234375">
        <ele>22.200000762939453125</ele>
        <time>2022-05-15T05:58:24.000Z</time>
      </trkpt>
      <trkpt lat="41.51167863048613071441650390625" lon="2.40839503705501556396484375">
        <ele>22.200000762939453125</ele>
        <time>2022-05-15T05:58:28.000Z</time>
      </trkpt>
      <trkpt lat="41.51174216531217098236083984375" lon="2.408477850258350372314453125">
        <ele>22.200000762939453125</ele>
        <time>2022-05-15T05:58:29.000Z</time>
      </trkpt>
      <trkpt lat="41.51180637069046497344970703125" lon="2.4085608310997486114501953125">
        <ele>22.200000762939453125</ele>
        <time>2022-05-15T05:58:30.000Z</time>
      </trkpt>
      <trkpt lat="41.5118708275258541107177734375" lon="2.408644147217273712158203125">
        <ele>22</ele>
        <time>2022-05-15T05:58:31.000Z</time>
      </trkpt>
      <trkpt lat="41.51200049556791782379150390625" lon="2.4088102765381336212158203125">
        <ele>22</ele>
        <time>2022-05-15T05:58:33.000Z</time>
      </trkpt>
      <trkpt lat="41.5121289901435375213623046875" lon="2.4089732207357883453369140625">
        <ele>21.799999237060546875</ele>
        <time>2022-05-15T05:58:35.000Z</time>
      </trkpt>
      <trkpt lat="41.51225781999528408050537109375" lon="2.40913742221891880035400390625">
        <ele>21.3999996185302734375</ele>
        <time>2022-05-15T05:58:37.000Z</time>
      </trkpt>
      <trkpt lat="41.512516401708126068115234375" lon="2.409460544586181640625">
        <ele>21</ele>
        <time>2022-05-15T05:58:41.000Z</time>
      </trkpt>
      <trkpt lat="41.5127096883952617645263671875" lon="2.40971242077648639678955078125">
        <ele>20.3999996185302734375</ele>
        <time>2022-05-15T05:58:44.000Z</time>
      </trkpt>
      <trkpt lat="41.51290222071111202239990234375" lon="2.4099532328546047210693359375">
        <ele>19.799999237060546875</ele>
        <time>2022-05-15T05:58:47.000Z</time>
      </trkpt>
      <trkpt lat="41.51321570388972759246826171875" lon="2.4103512056171894073486328125">
        <ele>19.3999996185302734375</ele>
        <time>2022-05-15T05:58:52.000Z</time>
      </trkpt>
      <trkpt lat="41.51346213184297084808349609375" lon="2.410664521157741546630859375">
        <ele>19.200000762939453125</ele>
        <time>2022-05-15T05:58:56.000Z</time>
      </trkpt>
      <trkpt lat="41.5137024410068988800048828125" lon="2.41096434183418750762939453125">
        <ele>19.200000762939453125</ele>
        <time>2022-05-15T05:59:00.000Z</time>
      </trkpt>
      <trkpt lat="41.51405540294945240020751953125" lon="2.41142266429960727691650390625">
        <ele>20.799999237060546875</ele>
        <time>2022-05-15T05:59:06.000Z</time>
      </trkpt>
      <trkpt lat="41.51447466574609279632568359375" lon="2.41194787435233592987060546875">
        <ele>21</ele>
        <time>2022-05-15T05:59:13.000Z</time>
      </trkpt>
      <trkpt lat="41.51470986194908618927001953125" lon="2.4122460186481475830078125">
        <ele>21.200000762939453125</ele>
        <time>2022-05-15T05:59:17.000Z</time>
      </trkpt>
      <trkpt lat="41.51476903818547725677490234375" lon="2.4123189412057399749755859375">
        <ele>21.200000762939453125</ele>
        <time>2022-05-15T05:59:18.000Z</time>
      </trkpt>
      <trkpt lat="41.51509040035307407379150390625" lon="2.412782125174999237060546875">
        <ele>21.3999996185302734375</ele>
        <time>2022-05-15T05:59:24.000Z</time>
      </trkpt>
      <trkpt lat="41.51512493379414081573486328125" lon="2.41286921314895153045654296875">
        <ele>21.3999996185302734375</ele>
        <time>2022-05-15T05:59:25.000Z</time>
      </trkpt>
      <trkpt lat="41.51521244086325168609619140625" lon="2.41313994862139225006103515625">
        <ele>21.200000762939453125</ele>
        <time>2022-05-15T05:59:28.000Z</time>
      </trkpt>
      <trkpt lat="41.51524814777076244354248046875" lon="2.41322477348148822784423828125">
        <ele>21.3999996185302734375</ele>
        <time>2022-05-15T05:59:29.000Z</time>
      </trkpt>
      <trkpt lat="41.51529709808528423309326171875" lon="2.41329451091587543487548828125">
        <ele>21.3999996185302734375</ele>
        <time>2022-05-15T05:59:30.000Z</time>
      </trkpt>
      <trkpt lat="41.51535979472100734710693359375" lon="2.4133452214300632476806640625">
        <ele>21.3999996185302734375</ele>
        <time>2022-05-15T05:59:31.000Z</time>
      </trkpt>
      <trkpt lat="41.5154311247169971466064453125" lon="2.4133824370801448822021484375">
        <ele>21.3999996185302734375</ele>
        <time>2022-05-15T05:59:32.000Z</time>
      </trkpt>
      <trkpt lat="41.51550672948360443115234375" lon="2.41341345012187957763671875">
        <ele>21.3999996185302734375</ele>
        <time>2022-05-15T05:59:33.000Z</time>
      </trkpt>
      <trkpt lat="41.51558007113635540008544921875" lon="2.4134525097906589508056640625">
        <ele>21.3999996185302734375</ele>
        <time>2022-05-15T05:59:34.000Z</time>
      </trkpt>
      <trkpt lat="41.515711583197116851806640625" lon="2.413566000759601593017578125">
        <ele>21.3999996185302734375</ele>
        <time>2022-05-15T05:59:36.000Z</time>
      </trkpt>
      <trkpt lat="41.51583664119243621826171875" lon="2.413694076240062713623046875">
        <ele>21.200000762939453125</ele>
        <time>2022-05-15T05:59:38.000Z</time>
      </trkpt>
      <trkpt lat="41.51601090095937252044677734375" lon="2.41391192190349102020263671875">
        <ele>21.200000762939453125</ele>
        <time>2022-05-15T05:59:41.000Z</time>
      </trkpt>
      <trkpt lat="41.51618155650794506072998046875" lon="2.41413152776658535003662109375">
        <ele>21.200000762939453125</ele>
        <time>2022-05-15T05:59:44.000Z</time>
      </trkpt>
      <trkpt lat="41.5162391401827335357666015625" lon="2.41420428268611431121826171875">
        <ele>21.200000762939453125</ele>
        <time>2022-05-15T05:59:45.000Z</time>
      </trkpt>
      <trkpt lat="41.516296304762363433837890625" lon="2.41427871398627758026123046875">
        <ele>21.3999996185302734375</ele>
        <time>2022-05-15T05:59:46.000Z</time>
      </trkpt>
      <trkpt lat="41.5164716541767120361328125" lon="2.4145042710006237030029296875">
        <ele>21.3999996185302734375</ele>
        <time>2022-05-15T05:59:49.000Z</time>
      </trkpt>
      <trkpt lat="41.516531668603420257568359375" lon="2.41458046250045299530029296875">
        <ele>21.3999996185302734375</ele>
        <time>2022-05-15T05:59:50.000Z</time>
      </trkpt>
      <trkpt lat="41.51659226976335048675537109375" lon="2.41465774364769458770751953125">
        <ele>21.3999996185302734375</ele>
        <time>2022-05-15T05:59:51.000Z</time>
      </trkpt>
      <trkpt lat="41.51671565137803554534912109375" lon="2.41481297649443149566650390625">
        <ele>21.3999996185302734375</ele>
        <time>2022-05-15T05:59:53.000Z</time>
      </trkpt>
      <trkpt lat="41.5168389491736888885498046875" lon="2.414972819387912750244140625">
        <ele>21.3999996185302734375</ele>
        <time>2022-05-15T05:59:55.000Z</time>
      </trkpt>
      <trkpt lat="41.516900472342967987060546875" lon="2.41505404002964496612548828125">
        <ele>21.200000762939453125</ele>
        <time>2022-05-15T05:59:56.000Z</time>
      </trkpt>
      <trkpt lat="41.517024524509906768798828125" lon="2.4152143858373165130615234375">
        <ele>21.200000762939453125</ele>
        <time>2022-05-15T05:59:58.000Z</time>
      </trkpt>
      <trkpt lat="41.51708596386015415191650390625" lon="2.41529292427003383636474609375">
        <ele>21.200000762939453125</ele>
        <time>2022-05-15T05:59:59.000Z</time>
      </trkpt>
      <trkpt lat="41.51751444675028324127197265625" lon="2.41583523340523242950439453125">
        <ele>20.799999237060546875</ele>
        <time>2022-05-15T06:00:06.000Z</time>
      </trkpt>
      <trkpt lat="41.51757496409118175506591796875" lon="2.41591050289571285247802734375">
        <ele>20.6000003814697265625</ele>
        <time>2022-05-15T06:00:07.000Z</time>
      </trkpt>
      <trkpt lat="41.51763506233692169189453125" lon="2.41598627530038356781005859375">
        <ele>20.6000003814697265625</ele>
        <time>2022-05-15T06:00:08.000Z</time>
      </trkpt>
      <trkpt lat="41.51807419024407863616943359375" lon="2.41651936434209346771240234375">
        <ele>20.3999996185302734375</ele>
        <time>2022-05-15T06:00:15.000Z</time>
      </trkpt>
      <trkpt lat="41.51813856326043605804443359375" lon="2.41659916006028652191162109375">
        <ele>20.6000003814697265625</ele>
        <time>2022-05-15T06:00:16.000Z</time>
      </trkpt>
      <trkpt lat="41.518572829663753509521484375" lon="2.4171542935073375701904296875">
        <ele>20.6000003814697265625</ele>
        <time>2022-05-15T06:00:23.000Z</time>
      </trkpt>
      <trkpt lat="41.51881380937993526458740234375" lon="2.4174748174846172332763671875">
        <ele>20.799999237060546875</ele>
        <time>2022-05-15T06:00:27.000Z</time>
      </trkpt>
      <trkpt lat="41.51887482963502407073974609375" lon="2.41755821742117404937744140625">
        <ele>20.799999237060546875</ele>
        <time>2022-05-15T06:00:28.000Z</time>
      </trkpt>
      <trkpt lat="41.5192214213311672210693359375" lon="2.418105639517307281494140625">
        <ele>21.200000762939453125</ele>
        <time>2022-05-15T06:00:34.000Z</time>
      </trkpt>
      <trkpt lat="41.5195577032864093780517578125" lon="2.41867720149457454681396484375">
        <ele>21.200000762939453125</ele>
        <time>2022-05-15T06:00:40.000Z</time>
      </trkpt>
      <trkpt lat="41.51961260475218296051025390625" lon="2.41877057589590549468994140625">
        <ele>21.200000762939453125</ele>
        <time>2022-05-15T06:00:41.000Z</time>
      </trkpt>
      <trkpt lat="41.51977538131177425384521484375" lon="2.4190465919673442840576171875">
        <ele>21.200000762939453125</ele>
        <time>2022-05-15T06:00:44.000Z</time>
      </trkpt>
      <trkpt lat="41.5201679058372974395751953125" lon="2.41967867128551006317138671875">
        <ele>20.6000003814697265625</ele>
        <time>2022-05-15T06:00:51.000Z</time>
      </trkpt>
      <trkpt lat="41.52039145119488239288330078125" lon="2.42004445753991603851318359375">
        <ele>20.6000003814697265625</ele>
        <time>2022-05-15T06:00:55.000Z</time>
      </trkpt>
      <trkpt lat="41.5206671319901943206787109375" lon="2.42047880776226520538330078125">
        <ele>20.6000003814697265625</ele>
        <time>2022-05-15T06:01:00.000Z</time>
      </trkpt>
      <trkpt lat="41.520886234939098358154296875" lon="2.42080486379563808441162109375">
        <ele>20.799999237060546875</ele>
        <time>2022-05-15T06:01:04.000Z</time>
      </trkpt>
      <trkpt lat="41.5212464891374111175537109375" lon="2.4213428981602191925048828125">
        <ele>21.200000762939453125</ele>
        <time>2022-05-15T06:01:11.000Z</time>
      </trkpt>
      <trkpt lat="41.52134832926094532012939453125" lon="2.421489246189594268798828125">
        <ele>21.6000003814697265625</ele>
        <time>2022-05-15T06:01:13.000Z</time>
      </trkpt>
      <trkpt lat="41.52145394124090671539306640625" lon="2.42163232527673244476318359375">
        <ele>21.799999237060546875</ele>
        <time>2022-05-15T06:01:15.000Z</time>
      </trkpt>
      <trkpt lat="41.52150657959282398223876953125" lon="2.42170457728207111358642578125">
        <ele>21.799999237060546875</ele>
        <time>2022-05-15T06:01:16.000Z</time>
      </trkpt>
      <trkpt lat="41.5215579606592655181884765625" lon="2.4217812716960906982421875">
        <ele>22</ele>
        <time>2022-05-15T06:01:17.000Z</time>
      </trkpt>
      <trkpt lat="41.52165628038346767425537109375" lon="2.42193139158189296722412109375">
        <ele>22.3999996185302734375</ele>
        <time>2022-05-15T06:01:19.000Z</time>
      </trkpt>
      <trkpt lat="41.5217856131494045257568359375" lon="2.42214663885533809661865234375">
        <ele>22.6000003814697265625</ele>
        <time>2022-05-15T06:01:22.000Z</time>
      </trkpt>
      <trkpt lat="41.52186264283955097198486328125" lon="2.42228913120925426483154296875">
        <ele>23</ele>
        <time>2022-05-15T06:01:24.000Z</time>
      </trkpt>
      <trkpt lat="41.52201083488762378692626953125" lon="2.4225954897701740264892578125">
        <ele>23.799999237060546875</ele>
        <time>2022-05-15T06:01:28.000Z</time>
      </trkpt>
      <trkpt lat="41.522087194025516510009765625" lon="2.42275382392108440399169921875">
        <ele>24.6000003814697265625</ele>
        <time>2022-05-15T06:01:30.000Z</time>
      </trkpt>
      <trkpt lat="41.52238567359745502471923828125" lon="2.42339386604726314544677734375">
        <ele>25.799999237060546875</ele>
        <time>2022-05-15T06:01:38.000Z</time>
      </trkpt>
      <trkpt lat="41.52246060781180858612060546875" lon="2.42355647496879100799560546875">
        <ele>26</ele>
        <time>2022-05-15T06:01:40.000Z</time>
      </trkpt>
      <trkpt lat="41.5225601010024547576904296875" lon="2.42381815798580646514892578125">
        <ele>26</ele>
        <time>2022-05-15T06:01:43.000Z</time>
      </trkpt>
      <trkpt lat="41.52266311459243297576904296875" lon="2.42409157566726207733154296875">
        <ele>25.799999237060546875</ele>
        <time>2022-05-15T06:01:46.000Z</time>
      </trkpt>
      <trkpt lat="41.5227025933563709259033203125" lon="2.42418251931667327880859375">
        <ele>25.799999237060546875</ele>
        <time>2022-05-15T06:01:47.000Z</time>
      </trkpt>
      <trkpt lat="41.5228752605617046356201171875" lon="2.42456096224486827850341796875">
        <ele>25.3999996185302734375</ele>
        <time>2022-05-15T06:01:51.000Z</time>
      </trkpt>
      <trkpt lat="41.5229674614965915679931640625" lon="2.4247583560645580291748046875">
        <ele>25</ele>
        <time>2022-05-15T06:01:53.000Z</time>
      </trkpt>
      <trkpt lat="41.52301347814500331878662109375" lon="2.42485818453133106231689453125">
        <ele>24.6000003814697265625</ele>
        <time>2022-05-15T06:01:54.000Z</time>
      </trkpt>
      <trkpt lat="41.52306108735501766204833984375" lon="2.4249570071697235107421875">
        <ele>24.3999996185302734375</ele>
        <time>2022-05-15T06:01:55.000Z</time>
      </trkpt>
      <trkpt lat="41.523157395422458648681640625" lon="2.42515557445585727691650390625">
        <ele>24</ele>
        <time>2022-05-15T06:01:57.000Z</time>
      </trkpt>
      <trkpt lat="41.52325336821377277374267578125" lon="2.42535238154232501983642578125">
        <ele>23.6000003814697265625</ele>
        <time>2022-05-15T06:01:59.000Z</time>
      </trkpt>
      <trkpt lat="41.5233486704528331756591796875" lon="2.42554776370525360107421875">
        <ele>23</ele>
        <time>2022-05-15T06:02:01.000Z</time>
      </trkpt>
      <trkpt lat="41.5235334075987339019775390625" lon="2.42594498209655284881591796875">
        <ele>21.3999996185302734375</ele>
        <time>2022-05-15T06:02:05.000Z</time>
      </trkpt>
      <trkpt lat="41.5236249379813671112060546875" lon="2.4261417053639888763427734375">
        <ele>21.200000762939453125</ele>
        <time>2022-05-15T06:02:07.000Z</time>
      </trkpt>
      <trkpt lat="41.5239442884922027587890625" lon="2.42681435309350490570068359375">
        <ele>20.6000003814697265625</ele>
        <time>2022-05-15T06:02:14.000Z</time>
      </trkpt>
      <trkpt lat="41.52398980222642421722412109375" lon="2.426909990608692169189453125">
        <ele>20.3999996185302734375</ele>
        <time>2022-05-15T06:02:15.000Z</time>
      </trkpt>
      <trkpt lat="41.52420404367148876190185546875" lon="2.42737032473087310791015625">
        <ele>20</ele>
        <time>2022-05-15T06:02:20.000Z</time>
      </trkpt>
      <trkpt lat="41.52427411638200283050537109375" lon="2.427555061876773834228515625">
        <ele>20.200000762939453125</ele>
        <time>2022-05-15T06:02:22.000Z</time>
      </trkpt>
      <trkpt lat="41.52432306669652462005615234375" lon="2.4277449958026409149169921875">
        <ele>20</ele>
        <time>2022-05-15T06:02:24.000Z</time>
      </trkpt>
      <trkpt lat="41.524323485791683197021484375" lon="2.42794029414653778076171875">
        <ele>20</ele>
        <time>2022-05-15T06:02:26.000Z</time>
      </trkpt>
      <trkpt lat="41.52431619353592395782470703125" lon="2.42804246954619884490966796875">
        <ele>19.799999237060546875</ele>
        <time>2022-05-15T06:02:27.000Z</time>
      </trkpt>
      <trkpt lat="41.5243144333362579345703125" lon="2.42814154364168643951416015625">
        <ele>19.799999237060546875</ele>
        <time>2022-05-15T06:02:28.000Z</time>
      </trkpt>
      <trkpt lat="41.52433714829385280609130859375" lon="2.4283354170620441436767578125">
        <ele>19.6000003814697265625</ele>
        <time>2022-05-15T06:02:30.000Z</time>
      </trkpt>
      <trkpt lat="41.52441057376563549041748046875" lon="2.428505904972553253173828125">
        <ele>19.6000003814697265625</ele>
        <time>2022-05-15T06:02:32.000Z</time>
      </trkpt>
      <trkpt lat="41.52446740306913852691650390625" lon="2.4285721220076084136962890625">
        <ele>19.3999996185302734375</ele>
        <time>2022-05-15T06:02:33.000Z</time>
      </trkpt>
      <trkpt lat="41.52453504502773284912109375" lon="2.42862300015985965728759765625">
        <ele>19.3999996185302734375</ele>
        <time>2022-05-15T06:02:34.000Z</time>
      </trkpt>
      <trkpt lat="41.5247516334056854248046875" lon="2.42873682640492916107177734375">
        <ele>19.3999996185302734375</ele>
        <time>2022-05-15T06:02:37.000Z</time>
      </trkpt>
      <trkpt lat="41.52482338249683380126953125" lon="2.42877672426402568817138671875">
        <ele>19.3999996185302734375</ele>
        <time>2022-05-15T06:02:38.000Z</time>
      </trkpt>
      <trkpt lat="41.52488817460834980010986328125" lon="2.428828775882720947265625">
        <ele>19.200000762939453125</ele>
        <time>2022-05-15T06:02:39.000Z</time>
      </trkpt>
      <trkpt lat="41.52494466863572597503662109375" lon="2.42889759130775928497314453125">
        <ele>19</ele>
        <time>2022-05-15T06:02:40.000Z</time>
      </trkpt>
      <trkpt lat="41.52504156343638896942138671875" lon="2.42905969731509685516357421875">
        <ele>18.799999237060546875</ele>
        <time>2022-05-15T06:02:42.000Z</time>
      </trkpt>
      <trkpt lat="41.52523434720933437347412109375" lon="2.4293985776603221893310546875">
        <ele>18.799999237060546875</ele>
        <time>2022-05-15T06:02:46.000Z</time>
      </trkpt>
      <trkpt lat="41.52560449205338954925537109375" lon="2.429952956736087799072265625">
        <ele>18.799999237060546875</ele>
        <time>2022-05-15T06:02:53.000Z</time>
      </trkpt>
      <trkpt lat="41.52565981261432170867919921875" lon="2.4300288967788219451904296875">
        <ele>18.6000003814697265625</ele>
        <time>2022-05-15T06:02:54.000Z</time>
      </trkpt>
      <trkpt lat="41.5258857049047946929931640625" lon="2.43032838217914104461669921875">
        <ele>18.6000003814697265625</ele>
        <time>2022-05-15T06:02:58.000Z</time>
      </trkpt>
      <trkpt lat="41.526115871965885162353515625" lon="2.43062778376042842864990234375">
        <ele>18.6000003814697265625</ele>
        <time>2022-05-15T06:03:02.000Z</time>
      </trkpt>
      <trkpt lat="41.52623330242931842803955078125" lon="2.43078100495040416717529296875">
        <ele>18.6000003814697265625</ele>
        <time>2022-05-15T06:03:04.000Z</time>
      </trkpt>
      <trkpt lat="41.52661719359457492828369140625" lon="2.43128073401749134063720703125">
        <ele>18.799999237060546875</ele>
        <time>2022-05-15T06:03:11.000Z</time>
      </trkpt>
      <trkpt lat="41.5267614461481571197509765625" lon="2.43148776702582836151123046875">
        <ele>19</ele>
        <time>2022-05-15T06:03:14.000Z</time>
      </trkpt>
      <trkpt lat="41.52678818441927433013916015625" lon="2.43157426826655864715576171875">
        <ele>19.200000762939453125</ele>
        <time>2022-05-15T06:03:15.000Z</time>
      </trkpt>
      <trkpt lat="41.526822634041309356689453125" lon="2.4317592568695545196533203125">
        <ele>19.200000762939453125</ele>
        <time>2022-05-15T06:03:17.000Z</time>
      </trkpt>
      <trkpt lat="41.52684836648404598236083984375" lon="2.43184651248157024383544921875">
        <ele>19.200000762939453125</ele>
        <time>2022-05-15T06:03:18.000Z</time>
      </trkpt>
      <trkpt lat="41.5268928743898868560791015625" lon="2.43192178197205066680908203125">
        <ele>19.3999996185302734375</ele>
        <time>2022-05-15T06:03:19.000Z</time>
      </trkpt>
      <trkpt lat="41.52695146389305591583251953125" lon="2.4319763481616973876953125">
        <ele>19.200000762939453125</ele>
        <time>2022-05-15T06:03:20.000Z</time>
      </trkpt>
      <trkpt lat="41.527087502181529998779296875" lon="2.43203259073197841644287109375">
        <ele>19.3999996185302734375</ele>
        <time>2022-05-15T06:03:22.000Z</time>
      </trkpt>
      <trkpt lat="41.52722370810806751251220703125" lon="2.432077266275882720947265625">
        <ele>19</ele>
        <time>2022-05-15T06:03:24.000Z</time>
      </trkpt>
      <trkpt lat="41.5272814594209194183349609375" lon="2.43213200010359287261962890625">
        <ele>19.200000762939453125</ele>
        <time>2022-05-15T06:03:25.000Z</time>
      </trkpt>
      <trkpt lat="41.527334265410900115966796875" lon="2.432200647890567779541015625">
        <ele>19.200000762939453125</ele>
        <time>2022-05-15T06:03:26.000Z</time>
      </trkpt>
      <trkpt lat="41.527442224323749542236328125" lon="2.43234624154865741729736328125">
        <ele>19</ele>
        <time>2022-05-15T06:03:28.000Z</time>
      </trkpt>
      <trkpt lat="41.52778143994510173797607421875" lon="2.43279509246349334716796875">
        <ele>18.200000762939453125</ele>
        <time>2022-05-15T06:03:34.000Z</time>
      </trkpt>
      <trkpt lat="41.527893505990505218505859375" lon="2.43293817155063152313232421875">
        <ele>18.200000762939453125</ele>
        <time>2022-05-15T06:03:36.000Z</time>
      </trkpt>
      <trkpt lat="41.52818092145025730133056640625" lon="2.433286942541599273681640625">
        <ele>18.3999996185302734375</ele>
        <time>2022-05-15T06:03:41.000Z</time>
      </trkpt>
      <trkpt lat="41.5283405967056751251220703125" lon="2.43350193835794925689697265625">
        <ele>18.200000762939453125</ele>
        <time>2022-05-15T06:03:44.000Z</time>
      </trkpt>
      <trkpt lat="41.52839382179081439971923828125" lon="2.43357486091554164886474609375">
        <ele>18.200000762939453125</ele>
        <time>2022-05-15T06:03:45.000Z</time>
      </trkpt>
      <trkpt lat="41.52844704687595367431640625" lon="2.43364459834992885589599609375">
        <ele>18</ele>
        <time>2022-05-15T06:03:46.000Z</time>
      </trkpt>
      <trkpt lat="41.5285025350749492645263671875" lon="2.4337115697562694549560546875">
        <ele>18</ele>
        <time>2022-05-15T06:03:47.000Z</time>
      </trkpt>
      <trkpt lat="41.52861476875841617584228515625" lon="2.43383922614157199859619140625">
        <ele>18</ele>
        <time>2022-05-15T06:03:49.000Z</time>
      </trkpt>
      <trkpt lat="41.5288679860532283782958984375" lon="2.43410996161401271820068359375">
        <ele>18.799999237060546875</ele>
        <time>2022-05-15T06:03:54.000Z</time>
      </trkpt>
      <trkpt lat="41.52891383506357669830322265625" lon="2.43417316116392612457275390625">
        <ele>18.799999237060546875</ele>
        <time>2022-05-15T06:03:55.000Z</time>
      </trkpt>
      <trkpt lat="41.5290131606161594390869140625" lon="2.4344166554510593414306640625">
        <ele>19.200000762939453125</ele>
        <time>2022-05-15T06:03:58.000Z</time>
      </trkpt>
      <trkpt lat="41.5291455946862697601318359375" lon="2.43480230681598186492919921875">
        <ele>20</ele>
        <time>2022-05-15T06:04:03.000Z</time>
      </trkpt>
      <trkpt lat="41.52933494187891483306884765625" lon="2.43515702895820140838623046875">
        <ele>20.200000762939453125</ele>
        <time>2022-05-15T06:04:08.000Z</time>
      </trkpt>
      <trkpt lat="41.52936813421547412872314453125" lon="2.43523414246737957000732421875">
        <ele>20.200000762939453125</ele>
        <time>2022-05-15T06:04:09.000Z</time>
      </trkpt>
      <trkpt lat="41.52939462102949619293212890625" lon="2.43531796149909496307373046875">
        <ele>20</ele>
        <time>2022-05-15T06:04:10.000Z</time>
      </trkpt>
      <trkpt lat="41.52946167625486850738525390625" lon="2.43558601476252079010009765625">
        <ele>20</ele>
        <time>2022-05-15T06:04:13.000Z</time>
      </trkpt>
      <trkpt lat="41.52948732487857341766357421875" lon="2.43567720986902713775634765625">
        <ele>19.799999237060546875</ele>
        <time>2022-05-15T06:04:14.000Z</time>
      </trkpt>
      <trkpt lat="41.5295147337019443511962890625" lon="2.43577008135616779327392578125">
        <ele>20</ele>
        <time>2022-05-15T06:04:15.000Z</time>
      </trkpt>
      <trkpt lat="41.5295418910682201385498046875" lon="2.43586496450006961822509765625">
        <ele>19.799999237060546875</ele>
        <time>2022-05-15T06:04:16.000Z</time>
      </trkpt>
      <trkpt lat="41.52968094684183597564697265625" lon="2.43636871688067913055419921875">
        <ele>19.3999996185302734375</ele>
        <time>2022-05-15T06:04:21.000Z</time>
      </trkpt>
      <trkpt lat="41.5298178233206272125244140625" lon="2.43686475791037082672119140625">
        <ele>19.200000762939453125</ele>
        <time>2022-05-15T06:04:26.000Z</time>
      </trkpt>
      <trkpt lat="41.52988848276436328887939453125" lon="2.43706374429166316986083984375">
        <ele>19.200000762939453125</ele>
        <time>2022-05-15T06:04:28.000Z</time>
      </trkpt>
      <trkpt lat="41.5301120281219482421875" lon="2.4377704225480556488037109375">
        <ele>19</ele>
        <time>2022-05-15T06:04:35.000Z</time>
      </trkpt>
      <trkpt lat="41.53014354407787322998046875" lon="2.4378716759383678436279296875">
        <ele>19.200000762939453125</ele>
        <time>2022-05-15T06:04:36.000Z</time>
      </trkpt>
      <trkpt lat="41.53017480857670307159423828125" lon="2.4379732646048069000244140625">
        <ele>19.200000762939453125</ele>
        <time>2022-05-15T06:04:37.000Z</time>
      </trkpt>
      <trkpt lat="41.53038083575665950775146484375" lon="2.4386837147176265716552734375">
        <ele>19.3999996185302734375</ele>
        <time>2022-05-15T06:04:44.000Z</time>
      </trkpt>
      <trkpt lat="41.53043565340340137481689453125" lon="2.4388897418975830078125">
        <ele>19.200000762939453125</ele>
        <time>2022-05-15T06:04:46.000Z</time>
      </trkpt>
      <trkpt lat="41.53046465478837490081787109375" lon="2.43899376131594181060791015625">
        <ele>19.200000762939453125</ele>
        <time>2022-05-15T06:04:47.000Z</time>
      </trkpt>
      <trkpt lat="41.53067219071090221405029296875" lon="2.439716868102550506591796875">
        <ele>19</ele>
        <time>2022-05-15T06:04:54.000Z</time>
      </trkpt>
      <trkpt lat="41.53070270083844661712646484375" lon="2.4398209713399410247802734375">
        <ele>19</ele>
        <time>2022-05-15T06:04:55.000Z</time>
      </trkpt>
      <trkpt lat="41.530908644199371337890625" lon="2.44055095128715038299560546875">
        <ele>18.799999237060546875</ele>
        <time>2022-05-15T06:05:02.000Z</time>
      </trkpt>
      <trkpt lat="41.5309379808604717254638671875" lon="2.44065530598163604736328125">
        <ele>18.799999237060546875</ele>
        <time>2022-05-15T06:05:03.000Z</time>
      </trkpt>
      <trkpt lat="41.5309671498835086822509765625" lon="2.44075949303805828094482421875">
        <ele>18.799999237060546875</ele>
        <time>2022-05-15T06:05:04.000Z</time>
      </trkpt>
      <trkpt lat="41.53099657036364078521728515625" lon="2.4408626742660999298095703125">
        <ele>18.3999996185302734375</ele>
        <time>2022-05-15T06:05:05.000Z</time>
      </trkpt>
      <trkpt lat="41.53120033442974090576171875" lon="2.4415848590433597564697265625">
        <ele>18.200000762939453125</ele>
        <time>2022-05-15T06:05:12.000Z</time>
      </trkpt>
      <trkpt lat="41.53143234550952911376953125" lon="2.44229757227003574371337890625">
        <ele>17.6000003814697265625</ele>
        <time>2022-05-15T06:05:19.000Z</time>
      </trkpt>
      <trkpt lat="41.5314687229692935943603515625" lon="2.442395053803920745849609375">
        <ele>17.6000003814697265625</ele>
        <time>2022-05-15T06:05:20.000Z</time>
      </trkpt>
      <trkpt lat="41.531709618866443634033203125" lon="2.44293744675815105438232421875">
        <ele>17.6000003814697265625</ele>
        <time>2022-05-15T06:05:26.000Z</time>
      </trkpt>
      <trkpt lat="41.53174809180200099945068359375" lon="2.44301942177116870880126953125">
        <ele>17.6000003814697265625</ele>
        <time>2022-05-15T06:05:27.000Z</time>
      </trkpt>
      <trkpt lat="41.53177876956760883331298828125" lon="2.44310508482158184051513671875">
        <ele>17.6000003814697265625</ele>
        <time>2022-05-15T06:05:28.000Z</time>
      </trkpt>
      <trkpt lat="41.53181984089314937591552734375" lon="2.4432870559394359588623046875">
        <ele>17.6000003814697265625</ele>
        <time>2022-05-15T06:05:30.000Z</time>
      </trkpt>
      <trkpt lat="41.531850434839725494384765625" lon="2.4433685280382633209228515625">
        <ele>17.6000003814697265625</ele>
        <time>2022-05-15T06:05:31.000Z</time>
      </trkpt>
      <trkpt lat="41.53190081007778644561767578125" lon="2.4434298835694789886474609375">
        <ele>17.799999237060546875</ele>
        <time>2022-05-15T06:05:32.000Z</time>
      </trkpt>
      <trkpt lat="41.53196216560900211334228515625" lon="2.44348369538784027099609375">
        <ele>17.6000003814697265625</ele>
        <time>2022-05-15T06:05:33.000Z</time>
      </trkpt>
      <trkpt lat="41.5320806019008159637451171875" lon="2.44361688382923603057861328125">
        <ele>17.6000003814697265625</ele>
        <time>2022-05-15T06:05:35.000Z</time>
      </trkpt>
      <trkpt lat="41.53218395076692104339599609375" lon="2.44377261959016323089599609375">
        <ele>17.799999237060546875</ele>
        <time>2022-05-15T06:05:37.000Z</time>
      </trkpt>
      <trkpt lat="41.5325756371021270751953125" lon="2.444312833249568939208984375">
        <ele>17.6000003814697265625</ele>
        <time>2022-05-15T06:05:44.000Z</time>
      </trkpt>
      <trkpt lat="41.5329752862453460693359375" lon="2.4448340199887752532958984375">
        <ele>17.200000762939453125</ele>
        <time>2022-05-15T06:05:51.000Z</time>
      </trkpt>
      <trkpt lat="41.53303354047238826751708984375" lon="2.44490660727024078369140625">
        <ele>17.200000762939453125</ele>
        <time>2022-05-15T06:05:52.000Z</time>
      </trkpt>
      <trkpt lat="41.53347124345600605010986328125" lon="2.4454663507640361785888671875">
        <ele>17.200000762939453125</ele>
        <time>2022-05-15T06:06:00.000Z</time>
      </trkpt>
      <trkpt lat="41.533727981150150299072265625" lon="2.44581109844148159027099609375">
        <ele>17.3999996185302734375</ele>
        <time>2022-05-15T06:06:06.000Z</time>
      </trkpt>
      <trkpt lat="41.53378321789205074310302734375" lon="2.44588586501777172088623046875">
        <ele>17.6000003814697265625</ele>
        <time>2022-05-15T06:06:08.000Z</time>
      </trkpt>
      <trkpt lat="41.53381942771375179290771484375" lon="2.44593347422778606414794921875">
        <ele>17.6000003814697265625</ele>
        <time>2022-05-15T06:06:10.000Z</time>
      </trkpt>
      <trkpt lat="41.53384189121425151824951171875" lon="2.4459578655660152435302734375">
        <ele>18.200000762939453125</ele>
        <time>2022-05-15T06:06:14.000Z</time>
      </trkpt>
      <trkpt lat="41.53383702971041202545166015625" lon="2.44595694355666637420654296875">
        <ele>19</ele>
        <time>2022-05-15T06:06:29.000Z</time>
      </trkpt>
      <trkpt lat="41.53384088538587093353271484375" lon="2.4459640681743621826171875">
        <ele>19</ele>
        <time>2022-05-15T06:06:32.000Z</time>
      </trkpt>
      <trkpt lat="41.53386854566633701324462890625" lon="2.4459967575967311859130859375">
        <ele>19</ele>
        <time>2022-05-15T06:06:34.000Z</time>
      </trkpt>
      <trkpt lat="41.53397365473210811614990234375" lon="2.44614922441542148590087890625">
        <ele>19</ele>
        <time>2022-05-15T06:06:38.000Z</time>
      </trkpt>
      <trkpt lat="41.5341210924088954925537109375" lon="2.44636480696499347686767578125">
        <ele>18.799999237060546875</ele>
        <time>2022-05-15T06:06:42.000Z</time>
      </trkpt>
      <trkpt lat="41.53416409157216548919677734375" lon="2.4464222230017185211181640625">
        <ele>18.799999237060546875</ele>
        <time>2022-05-15T06:06:43.000Z</time>
      </trkpt>
      <trkpt lat="41.534448824822902679443359375" lon="2.44681156240403652191162109375">
        <ele>18</ele>
        <time>2022-05-15T06:06:49.000Z</time>
      </trkpt>
      <trkpt lat="41.53449668549001216888427734375" lon="2.4468788690865039825439453125">
        <ele>17.799999237060546875</ele>
        <time>2022-05-15T06:06:50.000Z</time>
      </trkpt>
      <trkpt lat="41.53463867492973804473876953125" lon="2.44708615355193614959716796875">
        <ele>17.6000003814697265625</ele>
        <time>2022-05-15T06:06:53.000Z</time>
      </trkpt>
      <trkpt lat="41.53487789444625377655029296875" lon="2.44743182323873043060302734375">
        <ele>17.200000762939453125</ele>
        <time>2022-05-15T06:06:58.000Z</time>
      </trkpt>
      <trkpt lat="41.5352563373744487762451171875" lon="2.447995841503143310546875">
        <ele>17</ele>
        <time>2022-05-15T06:07:06.000Z</time>
      </trkpt>
      <trkpt lat="41.53535197488963603973388671875" lon="2.44814403355121612548828125">
        <ele>16.799999237060546875</ele>
        <time>2022-05-15T06:07:08.000Z</time>
      </trkpt>
      <trkpt lat="41.5357642807066440582275390625" lon="2.44874392636120319366455078125">
        <ele>16.799999237060546875</ele>
        <time>2022-05-15T06:07:16.000Z</time>
      </trkpt>
      <trkpt lat="41.53586712665855884552001953125" lon="2.448893375694751739501953125">
        <ele>16.799999237060546875</ele>
        <time>2022-05-15T06:07:18.000Z</time>
      </trkpt>
      <trkpt lat="41.5362752415239810943603515625" lon="2.44949410669505596160888671875">
        <ele>16.6000003814697265625</ele>
        <time>2022-05-15T06:07:26.000Z</time>
      </trkpt>
      <trkpt lat="41.53632611967623233795166015625" lon="2.449569292366504669189453125">
        <ele>16.6000003814697265625</ele>
        <time>2022-05-15T06:07:27.000Z</time>
      </trkpt>
      <trkpt lat="41.53673348017036914825439453125" lon="2.4501706101000308990478515625">
        <ele>17</ele>
        <time>2022-05-15T06:07:35.000Z</time>
      </trkpt>
      <trkpt lat="41.536785699427127838134765625" lon="2.45024579577147960662841796875">
        <ele>17</ele>
        <time>2022-05-15T06:07:36.000Z</time>
      </trkpt>
      <trkpt lat="41.5371513180434703826904296875" lon="2.45078173466026782989501953125">
        <ele>17.200000762939453125</ele>
        <time>2022-05-15T06:07:43.000Z</time>
      </trkpt>
      <trkpt lat="41.5373038686811923980712890625" lon="2.45101240463554859161376953125">
        <ele>17.200000762939453125</ele>
        <time>2022-05-15T06:07:46.000Z</time>
      </trkpt>
      <trkpt lat="41.53770997188985347747802734375" lon="2.451624535024166107177734375">
        <ele>17.3999996185302734375</ele>
        <time>2022-05-15T06:07:54.000Z</time>
      </trkpt>
      <trkpt lat="41.53785984031856060028076171875" lon="2.45185218751430511474609375">
        <ele>17.200000762939453125</ele>
        <time>2022-05-15T06:07:57.000Z</time>
      </trkpt>
      <trkpt lat="41.53826032765209674835205078125" lon="2.45245610363781452178955078125">
        <ele>17.3999996185302734375</ele>
        <time>2022-05-15T06:08:05.000Z</time>
      </trkpt>
      <trkpt lat="41.538362838327884674072265625" lon="2.4526070617139339447021484375">
        <ele>17.3999996185302734375</ele>
        <time>2022-05-15T06:08:07.000Z</time>
      </trkpt>
      <trkpt lat="41.5387663431465625762939453125" lon="2.453211061656475067138671875">
        <ele>17.3999996185302734375</ele>
        <time>2022-05-15T06:08:15.000Z</time>
      </trkpt>
      <trkpt lat="41.5388662554323673248291015625" lon="2.45336302556097507476806640625">
        <ele>17.6000003814697265625</ele>
        <time>2022-05-15T06:08:17.000Z</time>
      </trkpt>
      <trkpt lat="41.53922072611749172210693359375" lon="2.45388739742338657379150390625">
        <ele>17.6000003814697265625</ele>
        <time>2022-05-15T06:08:24.000Z</time>
      </trkpt>
      <trkpt lat="41.53927219100296497344970703125" lon="2.45396099053323268890380859375">
        <ele>17.3999996185302734375</ele>
        <time>2022-05-15T06:08:25.000Z</time>
      </trkpt>
      <trkpt lat="41.5396793000400066375732421875" lon="2.4545640684664249420166015625">
        <ele>17.799999237060546875</ele>
        <time>2022-05-15T06:08:33.000Z</time>
      </trkpt>
      <trkpt lat="41.5397815592586994171142578125" lon="2.454715780913829803466796875">
        <ele>18</ele>
        <time>2022-05-15T06:08:35.000Z</time>
      </trkpt>
      <trkpt lat="41.5401751734316349029541015625" lon="2.45533612556755542755126953125">
        <ele>18.200000762939453125</ele>
        <time>2022-05-15T06:08:43.000Z</time>
      </trkpt>
      <trkpt lat="41.5402226150035858154296875" lon="2.4554116465151309967041015625">
        <ele>18.200000762939453125</ele>
        <time>2022-05-15T06:08:44.000Z</time>
      </trkpt>
      <trkpt lat="41.540363766252994537353515625" lon="2.45564256794750690460205078125">
        <ele>18.200000762939453125</ele>
        <time>2022-05-15T06:08:47.000Z</time>
      </trkpt>
      <trkpt lat="41.54067699797451496124267578125" lon="2.45618906803429126739501953125">
        <ele>18.799999237060546875</ele>
        <time>2022-05-15T06:08:54.000Z</time>
      </trkpt>
      <trkpt lat="41.5409868769347667694091796875" lon="2.4568565189838409423828125">
        <ele>19.799999237060546875</ele>
        <time>2022-05-15T06:09:02.000Z</time>
      </trkpt>
      <trkpt lat="41.54102434404194355010986328125" lon="2.4569425173103809356689453125">
        <ele>20.200000762939453125</ele>
        <time>2022-05-15T06:09:03.000Z</time>
      </trkpt>
      <trkpt lat="41.54106172733008861541748046875" lon="2.4570281803607940673828125">
        <ele>20.200000762939453125</ele>
        <time>2022-05-15T06:09:04.000Z</time>
      </trkpt>
      <trkpt lat="41.54128736816346645355224609375" lon="2.45755062438547611236572265625">
        <ele>20.6000003814697265625</ele>
        <time>2022-05-15T06:09:10.000Z</time>
      </trkpt>
      <trkpt lat="41.54140220023691654205322265625" lon="2.457812726497650146484375">
        <ele>20.6000003814697265625</ele>
        <time>2022-05-15T06:09:13.000Z</time>
      </trkpt>
      <trkpt lat="41.5416731871664524078369140625" lon="2.458435334265232086181640625">
        <ele>20.3999996185302734375</ele>
        <time>2022-05-15T06:09:20.000Z</time>
      </trkpt>
      <trkpt lat="41.54178525321185588836669921875" lon="2.458708249032497406005859375">
        <ele>20.200000762939453125</ele>
        <time>2022-05-15T06:09:23.000Z</time>
      </trkpt>
      <trkpt lat="41.5418238937854766845703125" lon="2.45879776775836944580078125">
        <ele>20.200000762939453125</ele>
        <time>2022-05-15T06:09:24.000Z</time>
      </trkpt>
      <trkpt lat="41.5421070344746112823486328125" lon="2.459421046078205108642578125">
        <ele>19.799999237060546875</ele>
        <time>2022-05-15T06:09:31.000Z</time>
      </trkpt>
      <trkpt lat="41.542189009487628936767578125" lon="2.4595977365970611572265625">
        <ele>19.799999237060546875</ele>
        <time>2022-05-15T06:09:33.000Z</time>
      </trkpt>
      <trkpt lat="41.5424728207290172576904296875" lon="2.46022243984043598175048828125">
        <ele>19.3999996185302734375</ele>
        <time>2022-05-15T06:09:40.000Z</time>
      </trkpt>
      <trkpt lat="41.542707346379756927490234375" lon="2.4607576243579387664794921875">
        <ele>19.3999996185302734375</ele>
        <time>2022-05-15T06:09:46.000Z</time>
      </trkpt>
      <trkpt lat="41.5429834462702274322509765625" lon="2.4613805674016475677490234375">
        <ele>19.3999996185302734375</ele>
        <time>2022-05-15T06:09:53.000Z</time>
      </trkpt>
      <trkpt lat="41.543225683271884918212890625" lon="2.46192312799394130706787109375">
        <ele>19.6000003814697265625</ele>
        <time>2022-05-15T06:09:59.000Z</time>
      </trkpt>
      <trkpt lat="41.54351410456001758575439453125" lon="2.4625580571591854095458984375">
        <ele>19.799999237060546875</ele>
        <time>2022-05-15T06:10:06.000Z</time>
      </trkpt>
      <trkpt lat="41.54355551116168498992919921875" lon="2.46264933608472347259521484375">
        <ele>19.799999237060546875</ele>
        <time>2022-05-15T06:10:07.000Z</time>
      </trkpt>
      <trkpt lat="41.54359725303947925567626953125" lon="2.46274053119122982025146484375">
        <ele>19.799999237060546875</ele>
        <time>2022-05-15T06:10:08.000Z</time>
      </trkpt>
      <trkpt lat="41.54389581643044948577880859375" lon="2.463380657136440277099609375">
        <ele>19.6000003814697265625</ele>
        <time>2022-05-15T06:10:15.000Z</time>
      </trkpt>
      <trkpt lat="41.54402741231024265289306640625" lon="2.4636510573327541351318359375">
        <ele>19.799999237060546875</ele>
        <time>2022-05-15T06:10:18.000Z</time>
      </trkpt>
      <trkpt lat="41.54431172646582126617431640625" lon="2.46429788880050182342529296875">
        <ele>19.799999237060546875</ele>
        <time>2022-05-15T06:10:25.000Z</time>
      </trkpt>
      <trkpt lat="41.5443520434200763702392578125" lon="2.46439042501151561737060546875">
        <ele>19.799999237060546875</ele>
        <time>2022-05-15T06:10:26.000Z</time>
      </trkpt>
      <trkpt lat="41.54464398510754108428955078125" lon="2.465029545128345489501953125">
        <ele>19.6000003814697265625</ele>
        <time>2022-05-15T06:10:33.000Z</time>
      </trkpt>
      <trkpt lat="41.54481229372322559356689453125" lon="2.465389631688594818115234375">
        <ele>19.6000003814697265625</ele>
        <time>2022-05-15T06:10:37.000Z</time>
      </trkpt>
      <trkpt lat="41.5451101027429103851318359375" lon="2.4660127423703670501708984375">
        <ele>19.6000003814697265625</ele>
        <time>2022-05-15T06:10:44.000Z</time>
      </trkpt>
      <trkpt lat="41.5452834405004978179931640625" lon="2.46636386029422283172607421875">
        <ele>19.6000003814697265625</ele>
        <time>2022-05-15T06:10:48.000Z</time>
      </trkpt>
      <trkpt lat="41.54545451514422893524169921875" lon="2.4667158164083957672119140625">
        <ele>19.6000003814697265625</ele>
        <time>2022-05-15T06:10:52.000Z</time>
      </trkpt>
      <trkpt lat="41.5454963408410549163818359375" lon="2.46680374257266521453857421875">
        <ele>19.6000003814697265625</ele>
        <time>2022-05-15T06:10:53.000Z</time>
      </trkpt>
      <trkpt lat="41.545753665268421173095703125" lon="2.46733280830085277557373046875">
        <ele>19.6000003814697265625</ele>
        <time>2022-05-15T06:10:59.000Z</time>
      </trkpt>
      <trkpt lat="41.54605365358293056488037109375" lon="2.46795441024005413055419921875">
        <ele>19.3999996185302734375</ele>
        <time>2022-05-15T06:11:06.000Z</time>
      </trkpt>
      <trkpt lat="41.5462218783795833587646484375" lon="2.468321956694126129150390625">
        <ele>19.3999996185302734375</ele>
        <time>2022-05-15T06:11:10.000Z</time>
      </trkpt>
      <trkpt lat="41.54651180841028690338134765625" lon="2.46899561025202274322509765625">
        <ele>19.200000762939453125</ele>
        <time>2022-05-15T06:11:17.000Z</time>
      </trkpt>
      <trkpt lat="41.546588502824306488037109375" lon="2.46919644065201282501220703125">
        <ele>19.200000762939453125</ele>
        <time>2022-05-15T06:11:19.000Z</time>
      </trkpt>
      <trkpt lat="41.5467670373618602752685546875" lon="2.469713352620601654052734375">
        <ele>19.200000762939453125</ele>
        <time>2022-05-15T06:11:24.000Z</time>
      </trkpt>
      <trkpt lat="41.54686150141060352325439453125" lon="2.47002792544662952423095703125">
        <ele>18.6000003814697265625</ele>
        <time>2022-05-15T06:11:27.000Z</time>
      </trkpt>
      <trkpt lat="41.54689201153814792633056640625" lon="2.4701336212456226348876953125">
        <ele>18.6000003814697265625</ele>
        <time>2022-05-15T06:11:28.000Z</time>
      </trkpt>
      <trkpt lat="41.5470919199287891387939453125" lon="2.4708688817918300628662109375">
        <ele>18</ele>
        <time>2022-05-15T06:11:35.000Z</time>
      </trkpt>
      <trkpt lat="41.54717733152210712432861328125" lon="2.4711833707988262176513671875">
        <ele>17.3999996185302734375</ele>
        <time>2022-05-15T06:11:38.000Z</time>
      </trkpt>
      <trkpt lat="41.5473639965057373046875" lon="2.471899352967739105224609375">
        <ele>17.200000762939453125</ele>
        <time>2022-05-15T06:11:45.000Z</time>
      </trkpt>
      <trkpt lat="41.547414958477020263671875" lon="2.47209892608225345611572265625">
        <ele>17.200000762939453125</ele>
        <time>2022-05-15T06:11:47.000Z</time>
      </trkpt>
      <trkpt lat="41.5474406071007251739501953125" lon="2.4721979163587093353271484375">
        <ele>17.200000762939453125</ele>
        <time>2022-05-15T06:11:48.000Z</time>
      </trkpt>
      <trkpt lat="41.54751612804830074310302734375" lon="2.472492121160030364990234375">
        <ele>17</ele>
        <time>2022-05-15T06:11:51.000Z</time>
      </trkpt>
      <trkpt lat="41.547541357576847076416015625" lon="2.47259094379842281341552734375">
        <ele>17</ele>
        <time>2022-05-15T06:11:52.000Z</time>
      </trkpt>
      <trkpt lat="41.54764520935714244842529296875" lon="2.47298086993396282196044921875">
        <ele>17.6000003814697265625</ele>
        <time>2022-05-15T06:11:56.000Z</time>
      </trkpt>
      <trkpt lat="41.54769432730972766876220703125" lon="2.47317616827785968780517578125">
        <ele>17.799999237060546875</ele>
        <time>2022-05-15T06:11:58.000Z</time>
      </trkpt>
      <trkpt lat="41.5477440319955348968505859375" lon="2.47336962260305881500244140625">
        <ele>17.6000003814697265625</ele>
        <time>2022-05-15T06:12:00.000Z</time>
      </trkpt>
      <trkpt lat="41.5478426031768321990966796875" lon="2.47376122511923313140869140625">
        <ele>18</ele>
        <time>2022-05-15T06:12:04.000Z</time>
      </trkpt>
      <trkpt lat="41.54791711829602718353271484375" lon="2.4740573577582836151123046875">
        <ele>18.200000762939453125</ele>
        <time>2022-05-15T06:12:07.000Z</time>
      </trkpt>
      <trkpt lat="41.54804117046296596527099609375" lon="2.47455113567411899566650390625">
        <ele>18.200000762939453125</ele>
        <time>2022-05-15T06:12:12.000Z</time>
      </trkpt>
      <trkpt lat="41.54822054319083690643310546875" lon="2.475235350430011749267578125">
        <ele>18.3999996185302734375</ele>
        <time>2022-05-15T06:12:19.000Z</time>
      </trkpt>
      <trkpt lat="41.5483606047928333282470703125" lon="2.47572242282330989837646484375">
        <ele>18.3999996185302734375</ele>
        <time>2022-05-15T06:12:24.000Z</time>
      </trkpt>
      <trkpt lat="41.5483924560248851776123046875" lon="2.475817389786243438720703125">
        <ele>18.3999996185302734375</ele>
        <time>2022-05-15T06:12:25.000Z</time>
      </trkpt>
      <trkpt lat="41.5484269894659519195556640625" lon="2.475909925997257232666015625">
        <ele>18.200000762939453125</ele>
        <time>2022-05-15T06:12:26.000Z</time>
      </trkpt>
      <trkpt lat="41.54854944907128810882568359375" lon="2.4762944877147674560546875">
        <ele>18.3999996185302734375</ele>
        <time>2022-05-15T06:12:30.000Z</time>
      </trkpt>
      <trkpt lat="41.5486824698746204376220703125" lon="2.47688926756381988525390625">
        <ele>18.3999996185302734375</ele>
        <time>2022-05-15T06:12:36.000Z</time>
      </trkpt>
      <trkpt lat="41.54882068745791912078857421875" lon="2.47748295776546001434326171875">
        <ele>18.200000762939453125</ele>
        <time>2022-05-15T06:12:42.000Z</time>
      </trkpt>
      <trkpt lat="41.5488467551767826080322265625" lon="2.47758136130869388580322265625">
        <ele>18.3999996185302734375</ele>
        <time>2022-05-15T06:12:43.000Z</time>
      </trkpt>
      <trkpt lat="41.5488725714385509490966796875" lon="2.47768026776611804962158203125">
        <ele>18.3999996185302734375</ele>
        <time>2022-05-15T06:12:44.000Z</time>
      </trkpt>
      <trkpt lat="41.54889780096709728240966796875" lon="2.4777789227664470672607421875">
        <ele>18.3999996185302734375</ele>
        <time>2022-05-15T06:12:45.000Z</time>
      </trkpt>
      <trkpt lat="41.549072898924350738525390625" lon="2.4784602038562297821044921875">
        <ele>18.6000003814697265625</ele>
        <time>2022-05-15T06:12:52.000Z</time>
      </trkpt>
      <trkpt lat="41.54912193305790424346923828125" lon="2.478651814162731170654296875">
        <ele>18.6000003814697265625</ele>
        <time>2022-05-15T06:12:54.000Z</time>
      </trkpt>
      <trkpt lat="41.54928605072200298309326171875" lon="2.47932161204516887664794921875">
        <ele>18.799999237060546875</ele>
        <time>2022-05-15T06:13:01.000Z</time>
      </trkpt>
      <trkpt lat="41.5493325702846050262451171875" lon="2.4795163236558437347412109375">
        <ele>18.799999237060546875</ele>
        <time>2022-05-15T06:13:03.000Z</time>
      </trkpt>
      <trkpt lat="41.54937908984720706939697265625" lon="2.4797141365706920623779296875">
        <ele>18.799999237060546875</ele>
        <time>2022-05-15T06:13:05.000Z</time>
      </trkpt>
      <trkpt lat="41.5495417825877666473388671875" lon="2.48040539212524890899658203125">
        <ele>19</ele>
        <time>2022-05-15T06:13:12.000Z</time>
      </trkpt>
      <trkpt lat="41.54961177147924900054931640625" lon="2.4807005189359188079833984375">
        <ele>18.6000003814697265625</ele>
        <time>2022-05-15T06:13:15.000Z</time>
      </trkpt>
      <trkpt lat="41.5497868694365024566650390625" lon="2.48140552081167697906494140625">
        <ele>18.6000003814697265625</ele>
        <time>2022-05-15T06:13:22.000Z</time>
      </trkpt>
      <trkpt lat="41.54989239759743213653564453125" lon="2.48180902563035488128662109375">
        <ele>18</ele>
        <time>2022-05-15T06:13:26.000Z</time>
      </trkpt>
      <trkpt lat="41.5499702654778957366943359375" lon="2.48211110942065715789794921875">
        <ele>18</ele>
        <time>2022-05-15T06:13:29.000Z</time>
      </trkpt>
      <trkpt lat="41.5501560084521770477294921875" lon="2.48281351290643215179443359375">
        <ele>18</ele>
        <time>2022-05-15T06:13:36.000Z</time>
      </trkpt>
      <trkpt lat="41.55034149996936321258544921875" lon="2.4835057742893695831298828125">
        <ele>17.799999237060546875</ele>
        <time>2022-05-15T06:13:43.000Z</time>
      </trkpt>
      <trkpt lat="41.5504238940775394439697265625" lon="2.48379553668200969696044921875">
        <ele>17.799999237060546875</ele>
        <time>2022-05-15T06:13:46.000Z</time>
      </trkpt>
      <trkpt lat="41.5506223775446414947509765625" lon="2.4844747222959995269775390625">
        <ele>18</ele>
        <time>2022-05-15T06:13:53.000Z</time>
      </trkpt>
      <trkpt lat="41.5507688932120800018310546875" lon="2.48496196232736110687255859375">
        <ele>18</ele>
        <time>2022-05-15T06:13:58.000Z</time>
      </trkpt>
      <trkpt lat="41.55096444301307201385498046875" lon="2.48565162532031536102294921875">
        <ele>18</ele>
        <time>2022-05-15T06:14:05.000Z</time>
      </trkpt>
      <trkpt lat="41.55101959593594074249267578125" lon="2.485849857330322265625">
        <ele>17.799999237060546875</ele>
        <time>2022-05-15T06:14:07.000Z</time>
      </trkpt>
      <trkpt lat="41.55121053569018840789794921875" lon="2.4865430407226085662841796875">
        <ele>17.3999996185302734375</ele>
        <time>2022-05-15T06:14:14.000Z</time>
      </trkpt>
      <trkpt lat="41.5512644313275814056396484375" lon="2.48674227856099605560302734375">
        <ele>17.3999996185302734375</ele>
        <time>2022-05-15T06:14:16.000Z</time>
      </trkpt>
      <trkpt lat="41.551425866782665252685546875" lon="2.48734007589519023895263671875">
        <ele>17</ele>
        <time>2022-05-15T06:14:22.000Z</time>
      </trkpt>
      <trkpt lat="41.5514521859586238861083984375" lon="2.48743998818099498748779296875">
        <ele>17.200000762939453125</ele>
        <time>2022-05-15T06:14:23.000Z</time>
      </trkpt>
      <trkpt lat="41.55150574631989002227783203125" lon="2.487638890743255615234375">
        <ele>17</ele>
        <time>2022-05-15T06:14:25.000Z</time>
      </trkpt>
      <trkpt lat="41.55169668607413768768310546875" lon="2.48832846991717815399169921875">
        <ele>16.6000003814697265625</ele>
        <time>2022-05-15T06:14:32.000Z</time>
      </trkpt>
      <trkpt lat="41.55180246569216251373291015625" lon="2.48872292228043079376220703125">
        <ele>16.6000003814697265625</ele>
        <time>2022-05-15T06:14:36.000Z</time>
      </trkpt>
      <trkpt lat="41.55198485590517520904541015625" lon="2.4894116632640361785888671875">
        <ele>16.3999996185302734375</ele>
        <time>2022-05-15T06:14:43.000Z</time>
      </trkpt>
      <trkpt lat="41.55208594165742397308349609375" lon="2.489799745380878448486328125">
        <ele>16.200000762939453125</ele>
        <time>2022-05-15T06:14:47.000Z</time>
      </trkpt>
      <trkpt lat="41.55227738432586193084716796875" lon="2.4905489198863506317138671875">
        <ele>16.200000762939453125</ele>
        <time>2022-05-15T06:14:55.000Z</time>
      </trkpt>
      <trkpt lat="41.55229330994188785552978515625" lon="2.490642964839935302734375">
        <ele>16.200000762939453125</ele>
        <time>2022-05-15T06:14:56.000Z</time>
      </trkpt>
      <trkpt lat="41.5523032844066619873046875" lon="2.4907393567264080047607421875">
        <ele>16.200000762939453125</ele>
        <time>2022-05-15T06:14:57.000Z</time>
      </trkpt>
      <trkpt lat="41.55231091193854808807373046875" lon="2.49083465896546840667724609375">
        <ele>16.200000762939453125</ele>
        <time>2022-05-15T06:14:58.000Z</time>
      </trkpt>
      <trkpt lat="41.55232532881200313568115234375" lon="2.49092769809067249298095703125">
        <ele>16.3999996185302734375</ele>
        <time>2022-05-15T06:14:59.000Z</time>
      </trkpt>
      <trkpt lat="41.5523497201502323150634765625" lon="2.49101939611136913299560546875">
        <ele>16.200000762939453125</ele>
        <time>2022-05-15T06:15:00.000Z</time>
      </trkpt>
      <trkpt lat="41.552377045154571533203125" lon="2.491110004484653472900390625">
        <ele>16.200000762939453125</ele>
        <time>2022-05-15T06:15:01.000Z</time>
      </trkpt>
      <trkpt lat="41.55247050337493419647216796875" lon="2.4915902875363826751708984375">
        <ele>16.799999237060546875</ele>
        <time>2022-05-15T06:15:06.000Z</time>
      </trkpt>
      <trkpt lat="41.5526293404400348663330078125" lon="2.4922776035964488983154296875">
        <ele>17.799999237060546875</ele>
        <time>2022-05-15T06:15:13.000Z</time>
      </trkpt>
      <trkpt lat="41.55265532433986663818359375" lon="2.4923714809119701385498046875">
        <ele>17.799999237060546875</ele>
        <time>2022-05-15T06:15:14.000Z</time>
      </trkpt>
      <trkpt lat="41.55289026908576488494873046875" lon="2.49311520718038082122802734375">
        <ele>18</ele>
        <time>2022-05-15T06:15:22.000Z</time>
      </trkpt>
      <trkpt lat="41.552952714264392852783203125" lon="2.49329457990825176239013671875">
        <ele>18</ele>
        <time>2022-05-15T06:15:24.000Z</time>
      </trkpt>
      <trkpt lat="41.55318514443933963775634765625" lon="2.49390847049653530120849609375">
        <ele>18.3999996185302734375</ele>
        <time>2022-05-15T06:15:31.000Z</time>
      </trkpt>
      <trkpt lat="41.5534819476306438446044921875" lon="2.49458857811987400054931640625">
        <ele>18.200000762939453125</ele>
        <time>2022-05-15T06:15:39.000Z</time>
      </trkpt>
      <trkpt lat="41.5535617433488368988037109375" lon="2.49475504271686077117919921875">
        <ele>18.3999996185302734375</ele>
        <time>2022-05-15T06:15:41.000Z</time>
      </trkpt>
      <trkpt lat="41.5538950078189373016357421875" lon="2.49540966935455799102783203125">
        <ele>18.6000003814697265625</ele>
        <time>2022-05-15T06:15:49.000Z</time>
      </trkpt>
      <trkpt lat="41.5541652403771877288818359375" lon="2.49577729962766170501708984375">
        <ele>18.6000003814697265625</ele>
        <time>2022-05-15T06:15:54.000Z</time>
      </trkpt>
      <trkpt lat="41.55447562225162982940673828125" lon="2.49612070620059967041015625">
        <ele>18.3999996185302734375</ele>
        <time>2022-05-15T06:15:59.000Z</time>
      </trkpt>
      <trkpt lat="41.5545363910496234893798828125" lon="2.49618851579725742340087890625">
        <ele>18.200000762939453125</ele>
        <time>2022-05-15T06:16:00.000Z</time>
      </trkpt>
      <trkpt lat="41.55484191142022609710693359375" lon="2.49652027152478694915771484375">
        <ele>17.799999237060546875</ele>
        <time>2022-05-15T06:16:05.000Z</time>
      </trkpt>
      <trkpt lat="41.5551693923771381378173828125" lon="2.496975995600223541259765625">
        <ele>17.3999996185302734375</ele>
        <time>2022-05-15T06:16:11.000Z</time>
      </trkpt>
      <trkpt lat="41.5552599169313907623291015625" lon="2.49714707024395465850830078125">
        <ele>17.200000762939453125</ele>
        <time>2022-05-15T06:16:13.000Z</time>
      </trkpt>
      <trkpt lat="41.5554218553006649017333984375" lon="2.49749802052974700927734375">
        <ele>17.3999996185302734375</ele>
        <time>2022-05-15T06:16:17.000Z</time>
      </trkpt>
      <trkpt lat="41.5554620884358882904052734375" lon="2.49758795835077762603759765625">
        <ele>17.3999996185302734375</ele>
        <time>2022-05-15T06:16:18.000Z</time>
      </trkpt>
      <trkpt lat="41.555654369294643402099609375" lon="2.4980342946946620941162109375">
        <ele>17.3999996185302734375</ele>
        <time>2022-05-15T06:16:23.000Z</time>
      </trkpt>
      <trkpt lat="41.55580800957977771759033203125" lon="2.49839094467461109161376953125">
        <ele>17.3999996185302734375</ele>
        <time>2022-05-15T06:16:27.000Z</time>
      </trkpt>
      <trkpt lat="41.5559519268572330474853515625" lon="2.498748935759067535400390625">
        <ele>17.6000003814697265625</ele>
        <time>2022-05-15T06:16:31.000Z</time>
      </trkpt>
      <trkpt lat="41.5560632385313510894775390625" lon="2.49901070259511470794677734375">
        <ele>17.6000003814697265625</ele>
        <time>2022-05-15T06:16:34.000Z</time>
      </trkpt>
      <trkpt lat="41.556098945438861846923828125" lon="2.4990971200168132781982421875">
        <ele>17.6000003814697265625</ele>
        <time>2022-05-15T06:16:35.000Z</time>
      </trkpt>
      <trkpt lat="41.556133814156055450439453125" lon="2.4991832859814167022705078125">
        <ele>17.6000003814697265625</ele>
        <time>2022-05-15T06:16:36.000Z</time>
      </trkpt>
      <trkpt lat="41.556304804980754852294921875" lon="2.49962392263114452362060546875">
        <ele>18.3999996185302734375</ele>
        <time>2022-05-15T06:16:41.000Z</time>
      </trkpt>
      <trkpt lat="41.55647571198642253875732421875" lon="2.50005994923412799835205078125">
        <ele>18.799999237060546875</ele>
        <time>2022-05-15T06:16:46.000Z</time>
      </trkpt>
      <trkpt lat="41.55680327676236629486083984375" lon="2.50072044320404529571533203125">
        <ele>19.3999996185302734375</ele>
        <time>2022-05-15T06:16:54.000Z</time>
      </trkpt>
      <trkpt lat="41.55706311576068401336669921875" lon="2.5012096948921680450439453125">
        <ele>20.200000762939453125</ele>
        <time>2022-05-15T06:17:00.000Z</time>
      </trkpt>
      <trkpt lat="41.55719496309757232666015625" lon="2.50145989470183849334716796875">
        <ele>20.200000762939453125</ele>
        <time>2022-05-15T06:17:03.000Z</time>
      </trkpt>
      <trkpt lat="41.5572868287563323974609375" lon="2.50163507647812366485595703125">
        <ele>20.200000762939453125</ele>
        <time>2022-05-15T06:17:05.000Z</time>
      </trkpt>
      <trkpt lat="41.55738330446183681488037109375" lon="2.50181545503437519073486328125">
        <ele>20.200000762939453125</ele>
        <time>2022-05-15T06:17:07.000Z</time>
      </trkpt>
      <trkpt lat="41.55752847902476787567138671875" lon="2.50209423713386058807373046875">
        <ele>20</ele>
        <time>2022-05-15T06:17:10.000Z</time>
      </trkpt>
      <trkpt lat="41.55772511847317218780517578125" lon="2.502472512423992156982421875">
        <ele>19</ele>
        <time>2022-05-15T06:17:14.000Z</time>
      </trkpt>
      <trkpt lat="41.558067686855792999267578125" lon="2.50310459174215793609619140625">
        <ele>17.200000762939453125</ele>
        <time>2022-05-15T06:17:21.000Z</time>
      </trkpt>
      <trkpt lat="41.55825720168650150299072265625" lon="2.5034617446362972259521484375">
        <ele>17.200000762939453125</ele>
        <time>2022-05-15T06:17:25.000Z</time>
      </trkpt>
      <trkpt lat="41.5585804916918277740478515625" lon="2.50407286919653415679931640625">
        <ele>17.200000762939453125</ele>
        <time>2022-05-15T06:17:32.000Z</time>
      </trkpt>
      <trkpt lat="41.55885499902069568634033203125" lon="2.504586093127727508544921875">
        <ele>17</ele>
        <time>2022-05-15T06:17:38.000Z</time>
      </trkpt>
      <trkpt lat="41.559170074760913848876953125" lon="2.50517450273036956787109375">
        <ele>17.200000762939453125</ele>
        <time>2022-05-15T06:17:45.000Z</time>
      </trkpt>
      <trkpt lat="41.55944257043302059173583984375" lon="2.5056874752044677734375">
        <ele>17.6000003814697265625</ele>
        <time>2022-05-15T06:17:51.000Z</time>
      </trkpt>
      <trkpt lat="41.559756807982921600341796875" lon="2.5063032098114490509033203125">
        <ele>17.3999996185302734375</ele>
        <time>2022-05-15T06:17:58.000Z</time>
      </trkpt>
      <trkpt lat="41.5599735639989376068115234375" lon="2.50674359500408172607421875">
        <ele>17.6000003814697265625</ele>
        <time>2022-05-15T06:18:03.000Z</time>
      </trkpt>
      <trkpt lat="41.56018420122563838958740234375" lon="2.5071799568831920623779296875">
        <ele>17.3999996185302734375</ele>
        <time>2022-05-15T06:18:08.000Z</time>
      </trkpt>
      <trkpt lat="41.56030674465000629425048828125" lon="2.50743702985346317291259765625">
        <ele>17.3999996185302734375</ele>
        <time>2022-05-15T06:18:11.000Z</time>
      </trkpt>
      <trkpt lat="41.5603473968803882598876953125" lon="2.50752151943743228912353515625">
        <ele>17.799999237060546875</ele>
        <time>2022-05-15T06:18:12.000Z</time>
      </trkpt>
      <trkpt lat="41.560468263924121856689453125" lon="2.5077723897993564605712890625">
        <ele>17.799999237060546875</ele>
        <time>2022-05-15T06:18:15.000Z</time>
      </trkpt>
      <trkpt lat="41.560708321630954742431640625" lon="2.50826683826744556427001953125">
        <ele>18.3999996185302734375</ele>
        <time>2022-05-15T06:18:21.000Z</time>
      </trkpt>
      <trkpt lat="41.56074964441359043121337890625" lon="2.508349232375621795654296875">
        <ele>18.3999996185302734375</ele>
        <time>2022-05-15T06:18:22.000Z</time>
      </trkpt>
      <trkpt lat="41.56079105101525783538818359375" lon="2.5084328837692737579345703125">
        <ele>18.3999996185302734375</ele>
        <time>2022-05-15T06:18:23.000Z</time>
      </trkpt>
      <trkpt lat="41.56087419949471950531005859375" lon="2.50860244967043399810791015625">
        <ele>18.799999237060546875</ele>
        <time>2022-05-15T06:18:25.000Z</time>
      </trkpt>
      <trkpt lat="41.56121383421123027801513671875" lon="2.50929445959627628326416015625">
        <ele>19.3999996185302734375</ele>
        <time>2022-05-15T06:18:33.000Z</time>
      </trkpt>
      <trkpt lat="41.5613025985658168792724609375" lon="2.50947550870478153228759765625">
        <ele>19.3999996185302734375</ele>
        <time>2022-05-15T06:18:35.000Z</time>
      </trkpt>
      <trkpt lat="41.56139262020587921142578125" lon="2.509661503136157989501953125">
        <ele>19.3999996185302734375</ele>
        <time>2022-05-15T06:18:37.000Z</time>
      </trkpt>
      <trkpt lat="41.56171993352472782135009765625" lon="2.51031872816383838653564453125">
        <ele>18.200000762939453125</ele>
        <time>2022-05-15T06:18:44.000Z</time>
      </trkpt>
      <trkpt lat="41.56176418997347354888916015625" lon="2.51041176728904247283935546875">
        <ele>18</ele>
        <time>2022-05-15T06:18:45.000Z</time>
      </trkpt>
      <trkpt lat="41.56207532621920108795166015625" lon="2.51104493625462055206298828125">
        <ele>17</ele>
        <time>2022-05-15T06:18:52.000Z</time>
      </trkpt>
      <trkpt lat="41.5621639229357242584228515625" lon="2.51122020184993743896484375">
        <ele>17</ele>
        <time>2022-05-15T06:18:54.000Z</time>
      </trkpt>
      <trkpt lat="41.56250196509063243865966796875" lon="2.51190341077744960784912109375">
        <ele>16.799999237060546875</ele>
        <time>2022-05-15T06:19:02.000Z</time>
      </trkpt>
      <trkpt lat="41.5625840239226818084716796875" lon="2.512068115174770355224609375">
        <ele>17.200000762939453125</ele>
        <time>2022-05-15T06:19:04.000Z</time>
      </trkpt>
      <trkpt lat="41.56266641803085803985595703125" lon="2.51223541796207427978515625">
        <ele>17.200000762939453125</ele>
        <time>2022-05-15T06:19:06.000Z</time>
      </trkpt>
      <trkpt lat="41.5627491474151611328125" lon="2.51239928416907787322998046875">
        <ele>17.3999996185302734375</ele>
        <time>2022-05-15T06:19:08.000Z</time>
      </trkpt>
      <trkpt lat="41.56297822482883930206298828125" lon="2.51277211122214794158935546875">
        <ele>18.200000762939453125</ele>
        <time>2022-05-15T06:19:13.000Z</time>
      </trkpt>
      <trkpt lat="41.5630923025310039520263671875" lon="2.51301585696637630462646484375">
        <ele>18.799999237060546875</ele>
        <time>2022-05-15T06:19:16.000Z</time>
      </trkpt>
      <trkpt lat="41.5631742775440216064453125" lon="2.51317461021244525909423828125">
        <ele>19.200000762939453125</ele>
        <time>2022-05-15T06:19:18.000Z</time>
      </trkpt>
      <trkpt lat="41.5632780455052852630615234375" lon="2.513434030115604400634765625">
        <ele>19.799999237060546875</ele>
        <time>2022-05-15T06:19:21.000Z</time>
      </trkpt>
      <trkpt lat="41.56335775740444660186767578125" lon="2.5136015005409717559814453125">
        <ele>20</ele>
        <time>2022-05-15T06:19:23.000Z</time>
      </trkpt>
      <trkpt lat="41.5634416602551937103271484375" lon="2.51376955769956111907958984375">
        <ele>20</ele>
        <time>2022-05-15T06:19:25.000Z</time>
      </trkpt>
      <trkpt lat="41.5637025050818920135498046875" lon="2.51429736614227294921875">
        <ele>20.200000762939453125</ele>
        <time>2022-05-15T06:19:31.000Z</time>
      </trkpt>
      <trkpt lat="41.56374751590192317962646484375" lon="2.51438696868717670440673828125">
        <ele>20.200000762939453125</ele>
        <time>2022-05-15T06:19:32.000Z</time>
      </trkpt>
      <trkpt lat="41.56401556916534900665283203125" lon="2.5149338878691196441650390625">
        <ele>19.200000762939453125</ele>
        <time>2022-05-15T06:19:38.000Z</time>
      </trkpt>
      <trkpt lat="41.56406016089022159576416015625" lon="2.5150254182517528533935546875">
        <ele>19.200000762939453125</ele>
        <time>2022-05-15T06:19:39.000Z</time>
      </trkpt>
      <trkpt lat="41.5641960315406322479248046875" lon="2.51529724337160587310791015625">
        <ele>18.799999237060546875</ele>
        <time>2022-05-15T06:19:42.000Z</time>
      </trkpt>
      <trkpt lat="41.5645031444728374481201171875" lon="2.51592119224369525909423828125">
        <ele>18</ele>
        <time>2022-05-15T06:19:49.000Z</time>
      </trkpt>
      <trkpt lat="41.56468243338167667388916015625" lon="2.5162756629288196563720703125">
        <ele>17.6000003814697265625</ele>
        <time>2022-05-15T06:19:53.000Z</time>
      </trkpt>
      <trkpt lat="41.56490497291088104248046875" lon="2.516713701188564300537109375">
        <ele>17.3999996185302734375</ele>
        <time>2022-05-15T06:19:58.000Z</time>
      </trkpt>
      <trkpt lat="41.56516690738499164581298828125" lon="2.5172311998903751373291015625">
        <ele>17.3999996185302734375</ele>
        <time>2022-05-15T06:20:04.000Z</time>
      </trkpt>
      <trkpt lat="41.565470583736896514892578125" lon="2.51785732805728912353515625">
        <ele>17.3999996185302734375</ele>
        <time>2022-05-15T06:20:11.000Z</time>
      </trkpt>
      <trkpt lat="41.56556077301502227783203125" lon="2.5180435739457607269287109375">
        <ele>17.200000762939453125</ele>
        <time>2022-05-15T06:20:13.000Z</time>
      </trkpt>
      <trkpt lat="41.56564735807478427886962890625" lon="2.51823149621486663818359375">
        <ele>17.200000762939453125</ele>
        <time>2022-05-15T06:20:15.000Z</time>
      </trkpt>
      <trkpt lat="41.565959751605987548828125" lon="2.51889291219413280487060546875">
        <ele>17.3999996185302734375</ele>
        <time>2022-05-15T06:20:22.000Z</time>
      </trkpt>
      <trkpt lat="41.56628840602934360504150390625" lon="2.51954250968992710113525390625">
        <ele>17.799999237060546875</ele>
        <time>2022-05-15T06:20:29.000Z</time>
      </trkpt>
      <trkpt lat="41.56632914207875728607177734375" lon="2.5196294300258159637451171875">
        <ele>17.799999237060546875</ele>
        <time>2022-05-15T06:20:30.000Z</time>
      </trkpt>
      <trkpt lat="41.56641463749110698699951171875" lon="2.51980536617338657379150390625">
        <ele>18</ele>
        <time>2022-05-15T06:20:32.000Z</time>
      </trkpt>
      <trkpt lat="41.5665453113615512847900390625" lon="2.52006637863814830780029296875">
        <ele>18.200000762939453125</ele>
        <time>2022-05-15T06:20:35.000Z</time>
      </trkpt>
      <trkpt lat="41.56658546067774295806884765625" lon="2.5201507844030857086181640625">
        <ele>18.200000762939453125</ele>
        <time>2022-05-15T06:20:36.000Z</time>
      </trkpt>
      <trkpt lat="41.56675008125603199005126953125" lon="2.52047776244580745697021484375">
        <ele>18.799999237060546875</ele>
        <time>2022-05-15T06:20:40.000Z</time>
      </trkpt>
      <trkpt lat="41.56687237322330474853515625" lon="2.5207199156284332275390625">
        <ele>19.3999996185302734375</ele>
        <time>2022-05-15T06:20:43.000Z</time>
      </trkpt>
      <trkpt lat="41.56708233989775180816650390625" lon="2.52112652175128459930419921875">
        <ele>20.6000003814697265625</ele>
        <time>2022-05-15T06:20:48.000Z</time>
      </trkpt>
      <trkpt lat="41.56720186583697795867919921875" lon="2.5213765539228916168212890625">
        <ele>21.3999996185302734375</ele>
        <time>2022-05-15T06:20:51.000Z</time>
      </trkpt>
      <trkpt lat="41.56736950390040874481201171875" lon="2.5219483673572540283203125">
        <ele>22</ele>
        <time>2022-05-15T06:20:57.000Z</time>
      </trkpt>
      <trkpt lat="41.5675462782382965087890625" lon="2.5226532854139804840087890625">
        <ele>22.200000762939453125</ele>
        <time>2022-05-15T06:21:04.000Z</time>
      </trkpt>
      <trkpt lat="41.56759765930473804473876953125" lon="2.52285470254719257354736328125">
        <ele>22.200000762939453125</ele>
        <time>2022-05-15T06:21:06.000Z</time>
      </trkpt>
      <trkpt lat="41.5677734278142452239990234375" lon="2.5235481373965740203857421875">
        <ele>22.200000762939453125</ele>
        <time>2022-05-15T06:21:13.000Z</time>
      </trkpt>
      <trkpt lat="41.56779748387634754180908203125" lon="2.5236436910927295684814453125">
        <ele>22.200000762939453125</ele>
        <time>2022-05-15T06:21:14.000Z</time>
      </trkpt>
      <trkpt lat="41.56786881387233734130859375" lon="2.523922137916088104248046875">
        <ele>22.200000762939453125</ele>
        <time>2022-05-15T06:21:17.000Z</time>
      </trkpt>
      <trkpt lat="41.56791466288268566131591796875" lon="2.52410352230072021484375">
        <ele>22.3999996185302734375</ele>
        <time>2022-05-15T06:21:19.000Z</time>
      </trkpt>
      <trkpt lat="41.5680612623691558837890625" lon="2.52474012784659862518310546875">
        <ele>23.6000003814697265625</ele>
        <time>2022-05-15T06:21:26.000Z</time>
      </trkpt>
      <trkpt lat="41.5680988132953643798828125" lon="2.52492520026862621307373046875">
        <ele>24.200000762939453125</ele>
        <time>2022-05-15T06:21:28.000Z</time>
      </trkpt>
      <trkpt lat="41.5681873261928558349609375" lon="2.5254109315574169158935546875">
        <ele>25</ele>
        <time>2022-05-15T06:21:33.000Z</time>
      </trkpt>
      <trkpt lat="41.56820819713175296783447265625" lon="2.52550891600549221038818359375">
        <ele>25</ele>
        <time>2022-05-15T06:21:34.000Z</time>
      </trkpt>
      <trkpt lat="41.56840919516980648040771484375" lon="2.52618466503918170928955078125">
        <ele>26.200000762939453125</ele>
        <time>2022-05-15T06:21:41.000Z</time>
      </trkpt>
      <trkpt lat="41.56865947879850864410400390625" lon="2.52684800885617733001708984375">
        <ele>26.3999996185302734375</ele>
        <time>2022-05-15T06:21:48.000Z</time>
      </trkpt>
      <trkpt lat="41.5686967782676219940185546875" lon="2.526943981647491455078125">
        <ele>26.3999996185302734375</ele>
        <time>2022-05-15T06:21:49.000Z</time>
      </trkpt>
      <trkpt lat="41.5687344968318939208984375" lon="2.527041547000408172607421875">
        <ele>26.200000762939453125</ele>
        <time>2022-05-15T06:21:50.000Z</time>
      </trkpt>
      <trkpt lat="41.568810939788818359375" lon="2.5272355042397975921630859375">
        <ele>26.3999996185302734375</ele>
        <time>2022-05-15T06:21:52.000Z</time>
      </trkpt>
      <trkpt lat="41.56893054954707622528076171875" lon="2.527528703212738037109375">
        <ele>26.3999996185302734375</ele>
        <time>2022-05-15T06:21:55.000Z</time>
      </trkpt>
      <trkpt lat="41.56903959810733795166015625" lon="2.52783053554594516754150390625">
        <ele>26.6000003814697265625</ele>
        <time>2022-05-15T06:21:58.000Z</time>
      </trkpt>
      <trkpt lat="41.56915250234305858612060546875" lon="2.52812742255628108978271484375">
        <ele>26.6000003814697265625</ele>
        <time>2022-05-15T06:22:01.000Z</time>
      </trkpt>
      <trkpt lat="41.569191478192806243896484375" lon="2.528226077556610107421875">
        <ele>26.6000003814697265625</ele>
        <time>2022-05-15T06:22:02.000Z</time>
      </trkpt>
      <trkpt lat="41.56934411264955997467041015625" lon="2.5286218710243701934814453125">
        <ele>26.6000003814697265625</ele>
        <time>2022-05-15T06:22:06.000Z</time>
      </trkpt>
      <trkpt lat="41.56945911236107349395751953125" lon="2.52891867421567440032958984375">
        <ele>26.6000003814697265625</ele>
        <time>2022-05-15T06:22:09.000Z</time>
      </trkpt>
      <trkpt lat="41.56949683092534542083740234375" lon="2.52901774831116199493408203125">
        <ele>26.3999996185302734375</ele>
        <time>2022-05-15T06:22:10.000Z</time>
      </trkpt>
      <trkpt lat="41.5697602741420269012451171875" lon="2.5297098420560359954833984375">
        <ele>26.3999996185302734375</ele>
        <time>2022-05-15T06:22:17.000Z</time>
      </trkpt>
      <trkpt lat="41.57001013867557048797607421875" lon="2.53035114146769046783447265625">
        <ele>26</ele>
        <time>2022-05-15T06:22:23.000Z</time>
      </trkpt>
      <trkpt lat="41.5700556524097919464111328125" lon="2.5304652191698551177978515625">
        <ele>26</ele>
        <time>2022-05-15T06:22:24.000Z</time>
      </trkpt>
      <trkpt lat="41.57019554637372493743896484375" lon="2.5307998247444629669189453125">
        <ele>26.200000762939453125</ele>
        <time>2022-05-15T06:22:27.000Z</time>
      </trkpt>
      <trkpt lat="41.5702484361827373504638671875" lon="2.5309040956199169158935546875">
        <ele>26.200000762939453125</ele>
        <time>2022-05-15T06:22:28.000Z</time>
      </trkpt>
      <trkpt lat="41.57030015252530574798583984375" lon="2.53100291825830936431884765625">
        <ele>26.200000762939453125</ele>
        <time>2022-05-15T06:22:29.000Z</time>
      </trkpt>
      <trkpt lat="41.57050282694399356842041015625" lon="2.53138102591037750244140625">
        <ele>26.200000762939453125</ele>
        <time>2022-05-15T06:22:33.000Z</time>
      </trkpt>
      <trkpt lat="41.5706013143062591552734375" lon="2.5315806828439235687255859375">
        <ele>26.200000762939453125</ele>
        <time>2022-05-15T06:22:35.000Z</time>
      </trkpt>
      <trkpt lat="41.5706963650882244110107421875" lon="2.53179852850735187530517578125">
        <ele>26.200000762939453125</ele>
        <time>2022-05-15T06:22:37.000Z</time>
      </trkpt>
      <trkpt lat="41.5707899071276187896728515625" lon="2.5320326350629329681396484375">
        <ele>26.200000762939453125</ele>
        <time>2022-05-15T06:22:39.000Z</time>
      </trkpt>
      <trkpt lat="41.5708365105092525482177734375" lon="2.532151155173778533935546875">
        <ele>26.3999996185302734375</ele>
        <time>2022-05-15T06:22:40.000Z</time>
      </trkpt>
      <trkpt lat="41.5709712915122509002685546875" lon="2.5325117446482181549072265625">
        <ele>25.200000762939453125</ele>
        <time>2022-05-15T06:22:43.000Z</time>
      </trkpt>
      <trkpt lat="41.5712468884885311126708984375" lon="2.5332785211503505706787109375">
        <ele>21.799999237060546875</ele>
        <time>2022-05-15T06:22:49.000Z</time>
      </trkpt>
      <trkpt lat="41.5712955035269260406494140625" lon="2.53340852446854114532470703125">
        <ele>21.3999996185302734375</ele>
        <time>2022-05-15T06:22:50.000Z</time>
      </trkpt>
      <trkpt lat="41.57157562673091888427734375" lon="2.53414613194763660430908203125">
        <ele>20.200000762939453125</ele>
        <time>2022-05-15T06:22:56.000Z</time>
      </trkpt>
      <trkpt lat="41.5716227330267429351806640625" lon="2.5342635624110698699951171875">
        <ele>20</ele>
        <time>2022-05-15T06:22:57.000Z</time>
      </trkpt>
      <trkpt lat="41.57180436886847019195556640625" lon="2.5347094796597957611083984375">
        <ele>20</ele>
        <time>2022-05-15T06:23:01.000Z</time>
      </trkpt>
      <trkpt lat="41.57191199250519275665283203125" lon="2.53490989096462726593017578125">
        <ele>19.799999237060546875</ele>
        <time>2022-05-15T06:23:03.000Z</time>
      </trkpt>
      <trkpt lat="41.5719673968851566314697265625" lon="2.53500829450786113739013671875">
        <ele>20</ele>
        <time>2022-05-15T06:23:04.000Z</time>
      </trkpt>
      <trkpt lat="41.57202263362705707550048828125" lon="2.53510602749884128570556640625">
        <ele>20</ele>
        <time>2022-05-15T06:23:05.000Z</time>
      </trkpt>
      <trkpt lat="41.57207409851253032684326171875" lon="2.53520895726978778839111328125">
        <ele>19.799999237060546875</ele>
        <time>2022-05-15T06:23:06.000Z</time>
      </trkpt>
      <trkpt lat="41.5721544809639453887939453125" lon="2.53542906604707241058349609375">
        <ele>19.799999237060546875</ele>
        <time>2022-05-15T06:23:08.000Z</time>
      </trkpt>
      <trkpt lat="41.57228163443505764007568359375" lon="2.5355999730527400970458984375">
        <ele>19.799999237060546875</ele>
        <time>2022-05-15T06:23:10.000Z</time>
      </trkpt>
      <trkpt lat="41.57235472463071346282958984375" lon="2.53567264415323734283447265625">
        <ele>19.799999237060546875</ele>
        <time>2022-05-15T06:23:11.000Z</time>
      </trkpt>
      <trkpt lat="41.57242362387478351593017578125" lon="2.53575059585273265838623046875">
        <ele>20</ele>
        <time>2022-05-15T06:23:12.000Z</time>
      </trkpt>
      <trkpt lat="41.57254482619464397430419921875" lon="2.53593348897993564605712890625">
        <ele>19.3999996185302734375</ele>
        <time>2022-05-15T06:23:14.000Z</time>
      </trkpt>
      <trkpt lat="41.57260157167911529541015625" lon="2.53603189252316951751708984375">
        <ele>19.200000762939453125</ele>
        <time>2022-05-15T06:23:15.000Z</time>
      </trkpt>
      <trkpt lat="41.57282629050314426422119140625" lon="2.53654159605503082275390625">
        <ele>19.200000762939453125</ele>
        <time>2022-05-15T06:23:20.000Z</time>
      </trkpt>
      <trkpt lat="41.57286266796290874481201171875" lon="2.536756508052349090576171875">
        <ele>19.200000762939453125</ele>
        <time>2022-05-15T06:23:22.000Z</time>
      </trkpt>
      <trkpt lat="41.5728666074573993682861328125" lon="2.53696002066135406494140625">
        <ele>19.799999237060546875</ele>
        <time>2022-05-15T06:23:24.000Z</time>
      </trkpt>
      <trkpt lat="41.57283869571983814239501953125" lon="2.5372475199401378631591796875">
        <ele>20</ele>
        <time>2022-05-15T06:23:27.000Z</time>
      </trkpt>
      <trkpt lat="41.5728129632771015167236328125" lon="2.537436448037624359130859375">
        <ele>20.6000003814697265625</ele>
        <time>2022-05-15T06:23:29.000Z</time>
      </trkpt>
      <trkpt lat="41.5727821178734302520751953125" lon="2.53762395121157169342041015625">
        <ele>21.200000762939453125</ele>
        <time>2022-05-15T06:23:31.000Z</time>
      </trkpt>
      <trkpt lat="41.57274213619530200958251953125" lon="2.537898458540439605712890625">
        <ele>23.200000762939453125</ele>
        <time>2022-05-15T06:23:34.000Z</time>
      </trkpt>
      <trkpt lat="41.5727375261485576629638671875" lon="2.53799057565629482269287109375">
        <ele>23.799999237060546875</ele>
        <time>2022-05-15T06:23:35.000Z</time>
      </trkpt>
      <trkpt lat="41.572740711271762847900390625" lon="2.5380833633244037628173828125">
        <ele>24.3999996185302734375</ele>
        <time>2022-05-15T06:23:36.000Z</time>
      </trkpt>
      <trkpt lat="41.57275521196424961090087890625" lon="2.5381725467741489410400390625">
        <ele>24.799999237060546875</ele>
        <time>2022-05-15T06:23:37.000Z</time>
      </trkpt>
      <trkpt lat="41.57281212508678436279296875" lon="2.53834362141788005828857421875">
        <ele>25.3999996185302734375</ele>
        <time>2022-05-15T06:23:39.000Z</time>
      </trkpt>
      <trkpt lat="41.57303332351148128509521484375" lon="2.53874125890433788299560546875">
        <ele>27.6000003814697265625</ele>
        <time>2022-05-15T06:23:44.000Z</time>
      </trkpt>
      <trkpt lat="41.573082692921161651611328125" lon="2.53882147371768951416015625">
        <ele>27.799999237060546875</ele>
        <time>2022-05-15T06:23:45.000Z</time>
      </trkpt>
      <trkpt lat="41.57345543615520000457763671875" lon="2.5393413193523883819580078125">
        <ele>28.3999996185302734375</ele>
        <time>2022-05-15T06:23:52.000Z</time>
      </trkpt>
      <trkpt lat="41.57358988188207149505615234375" lon="2.5394660420715808868408203125">
        <ele>28.3999996185302734375</ele>
        <time>2022-05-15T06:23:54.000Z</time>
      </trkpt>
      <trkpt lat="41.57373053021728992462158203125" lon="2.539613060653209686279296875">
        <ele>28.200000762939453125</ele>
        <time>2022-05-15T06:23:56.000Z</time>
      </trkpt>
      <trkpt lat="41.57379423268139362335205078125" lon="2.5397067703306674957275390625">
        <ele>28.3999996185302734375</ele>
        <time>2022-05-15T06:23:57.000Z</time>
      </trkpt>
      <trkpt lat="41.57385156489908695220947265625" lon="2.53981766290962696075439453125">
        <ele>28.200000762939453125</ele>
        <time>2022-05-15T06:23:58.000Z</time>
      </trkpt>
      <trkpt lat="41.57390085048973560333251953125" lon="2.53993920050561428070068359375">
        <ele>28</ele>
        <time>2022-05-15T06:23:59.000Z</time>
      </trkpt>
      <trkpt lat="41.573940999805927276611328125" lon="2.5400651805102825164794921875">
        <ele>28</ele>
        <time>2022-05-15T06:24:00.000Z</time>
      </trkpt>
      <trkpt lat="41.5740467794239521026611328125" lon="2.5404289551079273223876953125">
        <ele>26.6000003814697265625</ele>
        <time>2022-05-15T06:24:03.000Z</time>
      </trkpt>
      <trkpt lat="41.57409363426268100738525390625" lon="2.54053900949656963348388671875">
        <ele>25.799999237060546875</ele>
        <time>2022-05-15T06:24:04.000Z</time>
      </trkpt>
      <trkpt lat="41.57414308749139308929443359375" lon="2.540649063885211944580078125">
        <ele>25.3999996185302734375</ele>
        <time>2022-05-15T06:24:05.000Z</time>
      </trkpt>
      <trkpt lat="41.57424534671008586883544921875" lon="2.54086129367351531982421875">
        <ele>23.6000003814697265625</ele>
        <time>2022-05-15T06:24:07.000Z</time>
      </trkpt>
      <trkpt lat="41.57430586405098438262939453125" lon="2.54095307551324367523193359375">
        <ele>23</ele>
        <time>2022-05-15T06:24:08.000Z</time>
      </trkpt>
      <trkpt lat="41.574554555118083953857421875" lon="2.54131215624511241912841796875">
        <ele>21.799999237060546875</ele>
        <time>2022-05-15T06:24:12.000Z</time>
      </trkpt>
      <trkpt lat="41.57460543327033519744873046875" lon="2.54141173325479030609130859375">
        <ele>21.6000003814697265625</ele>
        <time>2022-05-15T06:24:13.000Z</time>
      </trkpt>
      <trkpt lat="41.57465404830873012542724609375" lon="2.54151382483541965484619140625">
        <ele>21.3999996185302734375</ele>
        <time>2022-05-15T06:24:14.000Z</time>
      </trkpt>
      <trkpt lat="41.5747897513210773468017578125" lon="2.54181406460702419281005859375">
        <ele>20.799999237060546875</ele>
        <time>2022-05-15T06:24:17.000Z</time>
      </trkpt>
      <trkpt lat="41.57483342103660106658935546875" lon="2.5419105403125286102294921875">
        <ele>20.6000003814697265625</ele>
        <time>2022-05-15T06:24:18.000Z</time>
      </trkpt>
      <trkpt lat="41.57487608492374420166015625" lon="2.54200735129415988922119140625">
        <ele>20.6000003814697265625</ele>
        <time>2022-05-15T06:24:19.000Z</time>
      </trkpt>
      <trkpt lat="41.57516785897314548492431640625" lon="2.54268092103302478790283203125">
        <ele>19.799999237060546875</ele>
        <time>2022-05-15T06:24:26.000Z</time>
      </trkpt>
      <trkpt lat="41.57525234855711460113525390625" lon="2.54287336952984333038330078125">
        <ele>19.3999996185302734375</ele>
        <time>2022-05-15T06:24:28.000Z</time>
      </trkpt>
      <trkpt lat="41.5754894725978374481201171875" lon="2.5434266589581966400146484375">
        <ele>19.3999996185302734375</ele>
        <time>2022-05-15T06:24:34.000Z</time>
      </trkpt>
      <trkpt lat="41.57571469433605670928955078125" lon="2.5439201854169368743896484375">
        <ele>19.3999996185302734375</ele>
        <time>2022-05-15T06:24:40.000Z</time>
      </trkpt>
      <trkpt lat="41.5757871977984905242919921875" lon="2.544209025800228118896484375">
        <ele>19.6000003814697265625</ele>
        <time>2022-05-15T06:24:43.000Z</time>
      </trkpt>
      <trkpt lat="41.575820557773113250732421875" lon="2.54440675489604473114013671875">
        <ele>19.6000003814697265625</ele>
        <time>2022-05-15T06:24:45.000Z</time>
      </trkpt>
      <trkpt lat="41.575927175581455230712890625" lon="2.544762231409549713134765625">
        <ele>19.799999237060546875</ele>
        <time>2022-05-15T06:24:49.000Z</time>
      </trkpt>
      <trkpt lat="41.57594888471066951751708984375" lon="2.5449313782155513763427734375">
        <ele>20</ele>
        <time>2022-05-15T06:24:51.000Z</time>
      </trkpt>
      <trkpt lat="41.57603119499981403350830078125" lon="2.54549749195575714111328125">
        <ele>20.200000762939453125</ele>
        <time>2022-05-15T06:24:58.000Z</time>
      </trkpt>
      <trkpt lat="41.5760461986064910888671875" lon="2.54557435400784015655517578125">
        <ele>20.3999996185302734375</ele>
        <time>2022-05-15T06:24:59.000Z</time>
      </trkpt>
      <trkpt lat="41.576074026525020599365234375" lon="2.54572858102619647979736328125">
        <ele>20.799999237060546875</ele>
        <time>2022-05-15T06:25:01.000Z</time>
      </trkpt>
      <trkpt lat="41.5761834941804409027099609375" lon="2.54611968062818050384521484375">
        <ele>21.6000003814697265625</ele>
        <time>2022-05-15T06:25:06.000Z</time>
      </trkpt>
      <trkpt lat="41.5764416567981243133544921875" lon="2.54674446769058704376220703125">
        <ele>21.799999237060546875</ele>
        <time>2022-05-15T06:25:14.000Z</time>
      </trkpt>
      <trkpt lat="41.57660485245287418365478515625" lon="2.5470496527850627899169921875">
        <ele>21.799999237060546875</ele>
        <time>2022-05-15T06:25:18.000Z</time>
      </trkpt>
      <trkpt lat="41.57665045000612735748291015625" lon="2.5471277721226215362548828125">
        <ele>21.799999237060546875</ele>
        <time>2022-05-15T06:25:19.000Z</time>
      </trkpt>
      <trkpt lat="41.57669839449226856231689453125" lon="2.54720513708889484405517578125">
        <ele>21.6000003814697265625</ele>
        <time>2022-05-15T06:25:20.000Z</time>
      </trkpt>
      <trkpt lat="41.576799564063549041748046875" lon="2.54736187867820262908935546875">
        <ele>21.6000003814697265625</ele>
        <time>2022-05-15T06:25:22.000Z</time>
      </trkpt>
      <trkpt lat="41.576853208243846893310546875" lon="2.54744251258671283721923828125">
        <ele>21.3999996185302734375</ele>
        <time>2022-05-15T06:25:23.000Z</time>
      </trkpt>
      <trkpt lat="41.5769086964428424835205078125" lon="2.54752448759973049163818359375">
        <ele>21.200000762939453125</ele>
        <time>2022-05-15T06:25:24.000Z</time>
      </trkpt>
      <trkpt lat="41.57701841555535793304443359375" lon="2.54769246093928813934326171875">
        <ele>21</ele>
        <time>2022-05-15T06:25:26.000Z</time>
      </trkpt>
      <trkpt lat="41.5770739875733852386474609375" lon="2.5477785430848598480224609375">
        <ele>21</ele>
        <time>2022-05-15T06:25:27.000Z</time>
      </trkpt>
      <trkpt lat="41.577128469944000244140625" lon="2.54786613397300243377685546875">
        <ele>20.799999237060546875</ele>
        <time>2022-05-15T06:25:28.000Z</time>
      </trkpt>
      <trkpt lat="41.57723366282880306243896484375" lon="2.54804265685379505157470703125">
        <ele>20.3999996185302734375</ele>
        <time>2022-05-15T06:25:30.000Z</time>
      </trkpt>
      <trkpt lat="41.57728361897170543670654296875" lon="2.5481325946748256683349609375">
        <ele>20.200000762939453125</ele>
        <time>2022-05-15T06:25:31.000Z</time>
      </trkpt>
      <trkpt lat="41.577472127974033355712890625" lon="2.5484987162053585052490234375">
        <ele>18.799999237060546875</ele>
        <time>2022-05-15T06:25:35.000Z</time>
      </trkpt>
      <trkpt lat="41.57764353789389133453369140625" lon="2.5488886423408985137939453125">
        <ele>17.6000003814697265625</ele>
        <time>2022-05-15T06:25:39.000Z</time>
      </trkpt>
      <trkpt lat="41.5777225792407989501953125" lon="2.54909894429147243499755859375">
        <ele>17.3999996185302734375</ele>
        <time>2022-05-15T06:25:41.000Z</time>
      </trkpt>
      <trkpt lat="41.57783313654363155364990234375" lon="2.54941913299262523651123046875">
        <ele>17.3999996185302734375</ele>
        <time>2022-05-15T06:25:44.000Z</time>
      </trkpt>
      <trkpt lat="41.577969677746295928955078125" lon="2.5498381443321704864501953125">
        <ele>17.200000762939453125</ele>
        <time>2022-05-15T06:25:48.000Z</time>
      </trkpt>
      <trkpt lat="41.57818215899169445037841796875" lon="2.55045899190008640289306640625">
        <ele>17.200000762939453125</ele>
        <time>2022-05-15T06:25:54.000Z</time>
      </trkpt>
      <trkpt lat="41.5784006752073764801025390625" lon="2.55101504735648632049560546875">
        <ele>17</ele>
        <time>2022-05-15T06:26:00.000Z</time>
      </trkpt>
      <trkpt lat="41.57843663357198238372802734375" lon="2.55110288970172405242919921875">
        <ele>17</ele>
        <time>2022-05-15T06:26:01.000Z</time>
      </trkpt>
      <trkpt lat="41.57861642539501190185546875" lon="2.55154260434210300445556640625">
        <ele>17</ele>
        <time>2022-05-15T06:26:06.000Z</time>
      </trkpt>
      <trkpt lat="41.5786531381309032440185546875" lon="2.55162575282156467437744140625">
        <ele>17</ele>
        <time>2022-05-15T06:26:07.000Z</time>
      </trkpt>
      <trkpt lat="41.57868993468582630157470703125" lon="2.55169549025595188140869140625">
        <ele>17</ele>
        <time>2022-05-15T06:26:08.000Z</time>
      </trkpt>
      <trkpt lat="41.57878716476261615753173828125" lon="2.551746368408203125">
        <ele>17</ele>
        <time>2022-05-15T06:26:10.000Z</time>
      </trkpt>
      <trkpt lat="41.5788784436881542205810546875" lon="2.55168006755411624908447265625">
        <ele>17</ele>
        <time>2022-05-15T06:26:12.000Z</time>
      </trkpt>
      <trkpt lat="41.578921191394329071044921875" lon="2.55163983441889286041259765625">
        <ele>17</ele>
        <time>2022-05-15T06:26:13.000Z</time>
      </trkpt>
      <trkpt lat="41.57903912477195262908935546875" lon="2.55154193378984928131103515625">
        <ele>17</ele>
        <time>2022-05-15T06:26:16.000Z</time>
      </trkpt>
      <trkpt lat="41.57910919748246669769287109375" lon="2.551513016223907470703125">
        <ele>17.3999996185302734375</ele>
        <time>2022-05-15T06:26:18.000Z</time>
      </trkpt>
      <trkpt lat="41.579207517206668853759765625" lon="2.5515088252723217010498046875">
        <ele>17.799999237060546875</ele>
        <time>2022-05-15T06:26:23.000Z</time>
      </trkpt>
      <trkpt lat="41.57921254634857177734375" lon="2.551510334014892578125">
        <ele>17.799999237060546875</ele>
        <time>2022-05-15T06:26:24.000Z</time>
      </trkpt>
      <trkpt lat="41.57924045808613300323486328125" lon="2.551457025110721588134765625">
        <ele>18.6000003814697265625</ele>
        <time>2022-05-15T06:30:53.000Z</time>
      </trkpt>
      <trkpt lat="41.57924146391451358795166015625" lon="2.55145744420588016510009765625">
        <ele>18.3999996185302734375</ele>
        <time>2022-05-15T06:30:54.000Z</time>
      </trkpt>
      <trkpt lat="41.579243056476116180419921875" lon="2.551457695662975311279296875">
        <ele>18.3999996185302734375</ele>
        <time>2022-05-15T06:30:56.000Z</time>
      </trkpt>
      <trkpt lat="41.5792433917522430419921875" lon="2.55145727656781673431396484375">
        <ele>18.3999996185302734375</ele>
        <time>2022-05-15T06:30:59.000Z</time>
      </trkpt>
      <trkpt lat="41.57924464903771877288818359375" lon="2.55145627073943614959716796875">
        <ele>18.3999996185302734375</ele>
        <time>2022-05-15T06:31:11.000Z</time>
      </trkpt>
      <trkpt lat="41.57924246974289417266845703125" lon="2.55144889466464519500732421875">
        <ele>18.3999996185302734375</ele>
        <time>2022-05-15T06:31:12.000Z</time>
      </trkpt>
      <trkpt lat="41.57924548722803592681884765625" lon="2.551432885229587554931640625">
        <ele>18.3999996185302734375</ele>
        <time>2022-05-15T06:31:14.000Z</time>
      </trkpt>
      <trkpt lat="41.5792522765696048736572265625" lon="2.5514196418225765228271484375">
        <ele>18.3999996185302734375</ele>
        <time>2022-05-15T06:31:15.000Z</time>
      </trkpt>
      <trkpt lat="41.57927063293755054473876953125" lon="2.55139960907399654388427734375">
        <ele>18.6000003814697265625</ele>
        <time>2022-05-15T06:31:16.000Z</time>
      </trkpt>
      <trkpt lat="41.57928924076259136199951171875" lon="2.551375888288021087646484375">
        <ele>18.3999996185302734375</ele>
        <time>2022-05-15T06:31:17.000Z</time>
      </trkpt>
      <trkpt lat="41.57931555993854999542236328125" lon="2.551350407302379608154296875">
        <ele>18.3999996185302734375</ele>
        <time>2022-05-15T06:31:18.000Z</time>
      </trkpt>
      <trkpt lat="41.57941496931016445159912109375" lon="2.55127119831740856170654296875">
        <ele>18.3999996185302734375</ele>
        <time>2022-05-15T06:31:21.000Z</time>
      </trkpt>
      <trkpt lat="41.579481102526187896728515625" lon="2.55120523273944854736328125">
        <ele>18.3999996185302734375</ele>
        <time>2022-05-15T06:31:23.000Z</time>
      </trkpt>
      <trkpt lat="41.57959216274321079254150390625" lon="2.55111110396683216094970703125">
        <ele>18.3999996185302734375</ele>
        <time>2022-05-15T06:31:26.000Z</time>
      </trkpt>
      <trkpt lat="41.57963273115456104278564453125" lon="2.55108227021992206573486328125">
        <ele>18.6000003814697265625</ele>
        <time>2022-05-15T06:31:27.000Z</time>
      </trkpt>
      <trkpt lat="41.5796703658998012542724609375" lon="2.55105360411107540130615234375">
        <ele>18.6000003814697265625</ele>
        <time>2022-05-15T06:31:28.000Z</time>
      </trkpt>
      <trkpt lat="41.57970632426440715789794921875" lon="2.5510203279554843902587890625">
        <ele>18.6000003814697265625</ele>
        <time>2022-05-15T06:31:29.000Z</time>
      </trkpt>
      <trkpt lat="41.57978796400129795074462890625" lon="2.55096022970974445343017578125">
        <ele>18.799999237060546875</ele>
        <time>2022-05-15T06:31:31.000Z</time>
      </trkpt>
      <trkpt lat="41.5799114294350147247314453125" lon="2.55087607540190219879150390625">
        <ele>19.200000762939453125</ele>
        <time>2022-05-15T06:31:34.000Z</time>
      </trkpt>
      <trkpt lat="41.579948477447032928466796875" lon="2.55084581673145294189453125">
        <ele>19.3999996185302734375</ele>
        <time>2022-05-15T06:31:35.000Z</time>
      </trkpt>
      <trkpt lat="41.579987704753875732421875" lon="2.550815306603908538818359375">
        <ele>19.3999996185302734375</ele>
        <time>2022-05-15T06:31:36.000Z</time>
      </trkpt>
      <trkpt lat="41.5800230763852596282958984375" lon="2.5507836230099201202392578125">
        <ele>19.6000003814697265625</ele>
        <time>2022-05-15T06:31:37.000Z</time>
      </trkpt>
      <trkpt lat="41.58006289042532444000244140625" lon="2.5507537834346294403076171875">
        <ele>20</ele>
        <time>2022-05-15T06:31:38.000Z</time>
      </trkpt>
      <trkpt lat="41.5800988487899303436279296875" lon="2.55071765743196010589599609375">
        <ele>19.799999237060546875</ele>
        <time>2022-05-15T06:31:39.000Z</time>
      </trkpt>
      <trkpt lat="41.58020831644535064697265625" lon="2.55062319338321685791015625">
        <ele>20.200000762939453125</ele>
        <time>2022-05-15T06:31:42.000Z</time>
      </trkpt>
      <trkpt lat="41.58036832697689533233642578125" lon="2.5504976324737071990966796875">
        <ele>21</ele>
        <time>2022-05-15T06:31:46.000Z</time>
      </trkpt>
      <trkpt lat="41.58044963143765926361083984375" lon="2.55043946206569671630859375">
        <ele>21.3999996185302734375</ele>
        <time>2022-05-15T06:31:48.000Z</time>
      </trkpt>
      <trkpt lat="41.5805702470242977142333984375" lon="2.5503326766192913055419921875">
        <ele>21.6000003814697265625</ele>
        <time>2022-05-15T06:31:51.000Z</time>
      </trkpt>
      <trkpt lat="41.58068097196519374847412109375" lon="2.55019848234951496124267578125">
        <ele>22.200000762939453125</ele>
        <time>2022-05-15T06:31:54.000Z</time>
      </trkpt>
      <trkpt lat="41.58071952871978282928466796875" lon="2.5501576624810695648193359375">
        <ele>22.200000762939453125</ele>
        <time>2022-05-15T06:31:55.000Z</time>
      </trkpt>
      <trkpt lat="41.58075842075049877166748046875" lon="2.5501214526593685150146484375">
        <ele>22.3999996185302734375</ele>
        <time>2022-05-15T06:31:56.000Z</time>
      </trkpt>
      <trkpt lat="41.5807958878576755523681640625" lon="2.5500892661511898040771484375">
        <ele>22.6000003814697265625</ele>
        <time>2022-05-15T06:31:57.000Z</time>
      </trkpt>
      <trkpt lat="41.58094324171543121337890625" lon="2.54998725838959217071533203125">
        <ele>23.3999996185302734375</ele>
        <time>2022-05-15T06:32:00.000Z</time>
      </trkpt>
      <trkpt lat="41.5810691379010677337646484375" lon="2.54988751374185085296630859375">
        <ele>24</ele>
        <time>2022-05-15T06:32:03.000Z</time>
      </trkpt>
      <trkpt lat="41.58120073378086090087890625" lon="2.54978441633284091949462890625">
        <ele>24.3999996185302734375</ele>
        <time>2022-05-15T06:32:06.000Z</time>
      </trkpt>
      <trkpt lat="41.58124096691608428955078125" lon="2.5497439317405223846435546875">
        <ele>24.6000003814697265625</ele>
        <time>2022-05-15T06:32:07.000Z</time>
      </trkpt>
      <trkpt lat="41.58132201991975307464599609375" lon="2.54966975189745426177978515625">
        <ele>24.799999237060546875</ele>
        <time>2022-05-15T06:32:09.000Z</time>
      </trkpt>
      <trkpt lat="41.58140768297016620635986328125" lon="2.5496314465999603271484375">
        <ele>25</ele>
        <time>2022-05-15T06:32:11.000Z</time>
      </trkpt>
      <trkpt lat="41.58145512454211711883544921875" lon="2.5496198795735836029052734375">
        <ele>24.799999237060546875</ele>
        <time>2022-05-15T06:32:12.000Z</time>
      </trkpt>
      <trkpt lat="41.58149535767734050750732421875" lon="2.5495980866253376007080078125">
        <ele>25</ele>
        <time>2022-05-15T06:32:13.000Z</time>
      </trkpt>
      <trkpt lat="41.58160851337015628814697265625" lon="2.54949943162500858306884765625">
        <ele>25.6000003814697265625</ele>
        <time>2022-05-15T06:32:16.000Z</time>
      </trkpt>
      <trkpt lat="41.58164598047733306884765625" lon="2.54946506582200527191162109375">
        <ele>25.6000003814697265625</ele>
        <time>2022-05-15T06:32:17.000Z</time>
      </trkpt>
      <trkpt lat="41.58168395049870014190673828125" lon="2.5494275987148284912109375">
        <ele>26</ele>
        <time>2022-05-15T06:32:18.000Z</time>
      </trkpt>
      <trkpt lat="41.58183909952640533447265625" lon="2.549295164644718170166015625">
        <ele>27</ele>
        <time>2022-05-15T06:32:22.000Z</time>
      </trkpt>
      <trkpt lat="41.581905819475650787353515625" lon="2.54923456348478794097900390625">
        <ele>27.799999237060546875</ele>
        <time>2022-05-15T06:32:24.000Z</time>
      </trkpt>
      <trkpt lat="41.58202576451003551483154296875" lon="2.54912107251584529876708984375">
        <ele>29</ele>
        <time>2022-05-15T06:32:28.000Z</time>
      </trkpt>
      <trkpt lat="41.58211628906428813934326171875" lon="2.5490341521799564361572265625">
        <ele>29.200000762939453125</ele>
        <time>2022-05-15T06:32:31.000Z</time>
      </trkpt>
      <trkpt lat="41.5822127647697925567626953125" lon="2.5489302165806293487548828125">
        <ele>30</ele>
        <time>2022-05-15T06:32:34.000Z</time>
      </trkpt>
      <trkpt lat="41.58228811807930469512939453125" lon="2.54886441864073276519775390625">
        <ele>30.3999996185302734375</ele>
        <time>2022-05-15T06:32:36.000Z</time>
      </trkpt>
      <trkpt lat="41.5823971666395664215087890625" lon="2.54877422936260700225830078125">
        <ele>30.799999237060546875</ele>
        <time>2022-05-15T06:32:39.000Z</time>
      </trkpt>
      <trkpt lat="41.58251057378947734832763671875" lon="2.548672892153263092041015625">
        <ele>31.6000003814697265625</ele>
        <time>2022-05-15T06:32:43.000Z</time>
      </trkpt>
      <trkpt lat="41.58256036229431629180908203125" lon="2.548650093376636505126953125">
        <ele>31.799999237060546875</ele>
        <time>2022-05-15T06:32:44.000Z</time>
      </trkpt>
      <trkpt lat="41.58260193653404712677001953125" lon="2.54862402565777301788330078125">
        <ele>32</ele>
        <time>2022-05-15T06:32:45.000Z</time>
      </trkpt>
      <trkpt lat="41.5827683173120021820068359375" lon="2.548476420342922210693359375">
        <ele>32.799999237060546875</ele>
        <time>2022-05-15T06:32:50.000Z</time>
      </trkpt>
      <trkpt lat="41.5828393958508968353271484375" lon="2.54842503927648067474365234375">
        <ele>33</ele>
        <time>2022-05-15T06:32:52.000Z</time>
      </trkpt>
      <trkpt lat="41.583010889589786529541015625" lon="2.54830132238566875457763671875">
        <ele>33.40000152587890625</ele>
        <time>2022-05-15T06:32:56.000Z</time>
      </trkpt>
      <trkpt lat="41.5830583311617374420166015625" lon="2.54827165044844150543212890625">
        <ele>33.799999237060546875</ele>
        <time>2022-05-15T06:32:57.000Z</time>
      </trkpt>
      <trkpt lat="41.58329947851598262786865234375" lon="2.5481111370027065277099609375">
        <ele>34.799999237060546875</ele>
        <time>2022-05-15T06:33:02.000Z</time>
      </trkpt>
      <trkpt lat="41.5834328345954418182373046875" lon="2.54801918752491474151611328125">
        <ele>35.40000152587890625</ele>
        <time>2022-05-15T06:33:05.000Z</time>
      </trkpt>
      <trkpt lat="41.58358446322381496429443359375" lon="2.5478965602815151214599609375">
        <ele>36.200000762939453125</ele>
        <time>2022-05-15T06:33:09.000Z</time>
      </trkpt>
      <trkpt lat="41.58361606299877166748046875" lon="2.54786990582942962646484375">
        <ele>36.40000152587890625</ele>
        <time>2022-05-15T06:33:10.000Z</time>
      </trkpt>
      <trkpt lat="41.5837369300425052642822265625" lon="2.54776136018335819244384765625">
        <ele>37.200000762939453125</ele>
        <time>2022-05-15T06:33:15.000Z</time>
      </trkpt>
      <trkpt lat="41.58379719592630863189697265625" lon="2.54771073348820209503173828125">
        <ele>38</ele>
        <time>2022-05-15T06:33:19.000Z</time>
      </trkpt>
      <trkpt lat="41.5838458947837352752685546875" lon="2.54767276346683502197265625">
        <ele>38.59999847412109375</ele>
        <time>2022-05-15T06:33:22.000Z</time>
      </trkpt>
      <trkpt lat="41.58400054089725017547607421875" lon="2.5475344620645046234130859375">
        <ele>39.200000762939453125</ele>
        <time>2022-05-15T06:33:27.000Z</time>
      </trkpt>
      <trkpt lat="41.58403582870960235595703125" lon="2.5475103221833705902099609375">
        <ele>39.200000762939453125</ele>
        <time>2022-05-15T06:33:28.000Z</time>
      </trkpt>
      <trkpt lat="41.58407262526452541351318359375" lon="2.54748324863612651824951171875">
        <ele>39.200000762939453125</ele>
        <time>2022-05-15T06:33:29.000Z</time>
      </trkpt>
      <trkpt lat="41.5841878764331340789794921875" lon="2.54740010015666484832763671875">
        <ele>39.40000152587890625</ele>
        <time>2022-05-15T06:33:32.000Z</time>
      </trkpt>
      <trkpt lat="41.58426959998905658721923828125" lon="2.54733907990157604217529296875">
        <ele>39.200000762939453125</ele>
        <time>2022-05-15T06:33:34.000Z</time>
      </trkpt>
      <trkpt lat="41.5844651497900485992431640625" lon="2.5471879541873931884765625">
        <ele>40.200000762939453125</ele>
        <time>2022-05-15T06:33:39.000Z</time>
      </trkpt>
      <trkpt lat="41.58457889221608638763427734375" lon="2.5470905564725399017333984375">
        <ele>40.40000152587890625</ele>
        <time>2022-05-15T06:33:42.000Z</time>
      </trkpt>
      <trkpt lat="41.58478290773928165435791015625" lon="2.546936832368373870849609375">
        <ele>41.200000762939453125</ele>
        <time>2022-05-15T06:33:47.000Z</time>
      </trkpt>
      <trkpt lat="41.58486505039036273956298828125" lon="2.54687639884650707244873046875">
        <ele>41.59999847412109375</ele>
        <time>2022-05-15T06:33:49.000Z</time>
      </trkpt>
      <trkpt lat="41.58503017388284206390380859375" lon="2.5467400252819061279296875">
        <ele>42</ele>
        <time>2022-05-15T06:33:53.000Z</time>
      </trkpt>
      <trkpt lat="41.58506956882774829864501953125" lon="2.54670021124184131622314453125">
        <ele>42.200000762939453125</ele>
        <time>2022-05-15T06:33:54.000Z</time>
      </trkpt>
      <trkpt lat="41.58510879613459110260009765625" lon="2.54666215740144252777099609375">
        <ele>42.40000152587890625</ele>
        <time>2022-05-15T06:33:55.000Z</time>
      </trkpt>
      <trkpt lat="41.5852761827409267425537109375" lon="2.5465039908885955810546875">
        <ele>43</ele>
        <time>2022-05-15T06:33:59.000Z</time>
      </trkpt>
      <trkpt lat="41.58553912304341793060302734375" lon="2.5463100336492061614990234375">
        <ele>44</ele>
        <time>2022-05-15T06:34:05.000Z</time>
      </trkpt>
      <trkpt lat="41.58566719852387905120849609375" lon="2.54621364176273345947265625">
        <ele>44.40000152587890625</ele>
        <time>2022-05-15T06:34:08.000Z</time>
      </trkpt>
      <trkpt lat="41.5857531130313873291015625" lon="2.5461534596979618072509765625">
        <ele>45</ele>
        <time>2022-05-15T06:34:10.000Z</time>
      </trkpt>
      <trkpt lat="41.58599794842302799224853515625" lon="2.54595237784087657928466796875">
        <ele>46</ele>
        <time>2022-05-15T06:34:16.000Z</time>
      </trkpt>
      <trkpt lat="41.58603868447244167327880859375" lon="2.54591935314238071441650390625">
        <ele>46.40000152587890625</ele>
        <time>2022-05-15T06:34:17.000Z</time>
      </trkpt>
      <trkpt lat="41.58637312240898609161376953125" lon="2.545655407011508941650390625">
        <ele>48</ele>
        <time>2022-05-15T06:34:25.000Z</time>
      </trkpt>
      <trkpt lat="41.5864104218780994415283203125" lon="2.5456083007156848907470703125">
        <ele>47.799999237060546875</ele>
        <time>2022-05-15T06:34:26.000Z</time>
      </trkpt>
      <trkpt lat="41.5864503197371959686279296875" lon="2.5455747731029987335205078125">
        <ele>48.40000152587890625</ele>
        <time>2022-05-15T06:34:27.000Z</time>
      </trkpt>
      <trkpt lat="41.586490385234355926513671875" lon="2.545545436441898345947265625">
        <ele>48.59999847412109375</ele>
        <time>2022-05-15T06:34:28.000Z</time>
      </trkpt>
      <trkpt lat="41.58653086982667446136474609375" lon="2.54551517777144908905029296875">
        <ele>48.59999847412109375</ele>
        <time>2022-05-15T06:34:29.000Z</time>
      </trkpt>
      <trkpt lat="41.58669389784336090087890625" lon="2.5453950650990009307861328125">
        <ele>49.40000152587890625</ele>
        <time>2022-05-15T06:34:33.000Z</time>
      </trkpt>
      <trkpt lat="41.586849130690097808837890625" lon="2.54527193494141101837158203125">
        <ele>49.799999237060546875</ele>
        <time>2022-05-15T06:34:37.000Z</time>
      </trkpt>
      <trkpt lat="41.58707066439092159271240234375" lon="2.545084767043590545654296875">
        <ele>51.200000762939453125</ele>
        <time>2022-05-15T06:34:42.000Z</time>
      </trkpt>
      <trkpt lat="41.587374508380889892578125" lon="2.54487513564527034759521484375">
        <ele>52.40000152587890625</ele>
        <time>2022-05-15T06:34:49.000Z</time>
      </trkpt>
      <trkpt lat="41.587416417896747589111328125" lon="2.5448475591838359832763671875">
        <ele>52.40000152587890625</ele>
        <time>2022-05-15T06:34:50.000Z</time>
      </trkpt>
      <trkpt lat="41.587514989078044891357421875" lon="2.5447976030409336090087890625">
        <ele>52.799999237060546875</ele>
        <time>2022-05-15T06:34:52.000Z</time>
      </trkpt>
      <trkpt lat="41.58777323551476001739501953125" lon="2.54469660110771656036376953125">
        <ele>53.59999847412109375</ele>
        <time>2022-05-15T06:34:57.000Z</time>
      </trkpt>
      <trkpt lat="41.58782017417252063751220703125" lon="2.5446701981127262115478515625">
        <ele>54</ele>
        <time>2022-05-15T06:34:58.000Z</time>
      </trkpt>
      <trkpt lat="41.58802301622927188873291015625" lon="2.54459870047867298126220703125">
        <ele>54.799999237060546875</ele>
        <time>2022-05-15T06:35:02.000Z</time>
      </trkpt>
      <trkpt lat="41.58826768398284912109375" lon="2.54450398497283458709716796875">
        <ele>55.59999847412109375</ele>
        <time>2022-05-15T06:35:07.000Z</time>
      </trkpt>
      <trkpt lat="41.58831395208835601806640625" lon="2.54448831081390380859375">
        <ele>55.799999237060546875</ele>
        <time>2022-05-15T06:35:08.000Z</time>
      </trkpt>
      <trkpt lat="41.58835845999419689178466796875" lon="2.54447246901690959930419921875">
        <ele>56</ele>
        <time>2022-05-15T06:35:09.000Z</time>
      </trkpt>
      <trkpt lat="41.58840179443359375" lon="2.5444556213915348052978515625">
        <ele>56</ele>
        <time>2022-05-15T06:35:10.000Z</time>
      </trkpt>
      <trkpt lat="41.58864093013107776641845703125" lon="2.544357217848300933837890625">
        <ele>56.799999237060546875</ele>
        <time>2022-05-15T06:35:16.000Z</time>
      </trkpt>
      <trkpt lat="41.58871016465127468109130859375" lon="2.54432410933077335357666015625">
        <ele>57.200000762939453125</ele>
        <time>2022-05-15T06:35:18.000Z</time>
      </trkpt>
      <trkpt lat="41.58879750408232212066650390625" lon="2.54428789950907230377197265625">
        <ele>57.799999237060546875</ele>
        <time>2022-05-15T06:35:21.000Z</time>
      </trkpt>
      <trkpt lat="41.58885441720485687255859375" lon="2.54427415318787097930908203125">
        <ele>58.40000152587890625</ele>
        <time>2022-05-15T06:35:24.000Z</time>
      </trkpt>
      <trkpt lat="41.58889020793139934539794921875" lon="2.5442779250442981719970703125">
        <ele>59.59999847412109375</ele>
        <time>2022-05-15T06:35:29.000Z</time>
      </trkpt>
      <trkpt lat="41.589042842388153076171875" lon="2.54423073492944240570068359375">
        <ele>60.200000762939453125</ele>
        <time>2022-05-15T06:35:34.000Z</time>
      </trkpt>
      <trkpt lat="41.5892984904348850250244140625" lon="2.5441340915858745574951171875">
        <ele>60.40000152587890625</ele>
        <time>2022-05-15T06:35:40.000Z</time>
      </trkpt>
      <trkpt lat="41.58938323147594928741455078125" lon="2.54409595392644405364990234375">
        <ele>60.59999847412109375</ele>
        <time>2022-05-15T06:35:42.000Z</time>
      </trkpt>
      <trkpt lat="41.58956092782318592071533203125" lon="2.5440095365047454833984375">
        <ele>61.200000762939453125</ele>
        <time>2022-05-15T06:35:46.000Z</time>
      </trkpt>
      <trkpt lat="41.58969520591199398040771484375" lon="2.54394181072711944580078125">
        <ele>61.799999237060546875</ele>
        <time>2022-05-15T06:35:49.000Z</time>
      </trkpt>
      <trkpt lat="41.58990408293902873992919921875" lon="2.543812058866024017333984375">
        <ele>62.59999847412109375</ele>
        <time>2022-05-15T06:35:54.000Z</time>
      </trkpt>
      <trkpt lat="41.5900434739887714385986328125" lon="2.543749697506427764892578125">
        <ele>63</ele>
        <time>2022-05-15T06:35:57.000Z</time>
      </trkpt>
      <trkpt lat="41.5903866291046142578125" lon="2.5435969792306423187255859375">
        <ele>64.1999969482421875</ele>
        <time>2022-05-15T06:36:04.000Z</time>
      </trkpt>
      <trkpt lat="41.59053356386721134185791015625" lon="2.54353470169007778167724609375">
        <ele>64.8000030517578125</ele>
        <time>2022-05-15T06:36:07.000Z</time>
      </trkpt>
      <trkpt lat="41.5909700095653533935546875" lon="2.54335348494350910186767578125">
        <ele>66.59999847412109375</ele>
        <time>2022-05-15T06:36:16.000Z</time>
      </trkpt>
      <trkpt lat="41.59101803787052631378173828125" lon="2.5433314405381679534912109375">
        <ele>66.59999847412109375</ele>
        <time>2022-05-15T06:36:17.000Z</time>
      </trkpt>
      <trkpt lat="41.5910660661756992340087890625" lon="2.5433096475899219512939453125">
        <ele>66.8000030517578125</ele>
        <time>2022-05-15T06:36:18.000Z</time>
      </trkpt>
      <trkpt lat="41.5913587622344493865966796875" lon="2.54317335784435272216796875">
        <ele>67.40000152587890625</ele>
        <time>2022-05-15T06:36:24.000Z</time>
      </trkpt>
      <trkpt lat="41.5914036892354488372802734375" lon="2.54315131343901157379150390625">
        <ele>67.59999847412109375</ele>
        <time>2022-05-15T06:36:25.000Z</time>
      </trkpt>
      <trkpt lat="41.591608040034770965576171875" lon="2.54308342002332210540771484375">
        <ele>69</ele>
        <time>2022-05-15T06:36:29.000Z</time>
      </trkpt>
      <trkpt lat="41.5916620194911956787109375" lon="2.543065734207630157470703125">
        <ele>69.1999969482421875</ele>
        <time>2022-05-15T06:36:30.000Z</time>
      </trkpt>
      <trkpt lat="41.591927222907543182373046875" lon="2.54298484884202480316162109375">
        <ele>70.1999969482421875</ele>
        <time>2022-05-15T06:36:35.000Z</time>
      </trkpt>
      <trkpt lat="41.59203149378299713134765625" lon="2.542955093085765838623046875">
        <ele>70.40000152587890625</ele>
        <time>2022-05-15T06:36:37.000Z</time>
      </trkpt>
      <trkpt lat="41.59234187565743923187255859375" lon="2.54288108088076114654541015625">
        <ele>71.8000030517578125</ele>
        <time>2022-05-15T06:36:43.000Z</time>
      </trkpt>
      <trkpt lat="41.59249627031385898590087890625" lon="2.54284822382032871246337890625">
        <ele>72.1999969482421875</ele>
        <time>2022-05-15T06:36:46.000Z</time>
      </trkpt>
      <trkpt lat="41.59259987063705921173095703125" lon="2.542835064232349395751953125">
        <ele>72.40000152587890625</ele>
        <time>2022-05-15T06:36:48.000Z</time>
      </trkpt>
      <trkpt lat="41.59290648065507411956787109375" lon="2.5428231619298458099365234375">
        <ele>73.59999847412109375</ele>
        <time>2022-05-15T06:36:54.000Z</time>
      </trkpt>
      <trkpt lat="41.593205630779266357421875" lon="2.5428412668406963348388671875">
        <ele>74.40000152587890625</ele>
        <time>2022-05-15T06:37:00.000Z</time>
      </trkpt>
      <trkpt lat="41.59325416199862957000732421875" lon="2.54284202121198177337646484375">
        <ele>74.8000030517578125</ele>
        <time>2022-05-15T06:37:01.000Z</time>
      </trkpt>
      <trkpt lat="41.5935873426496982574462890625" lon="2.54285392351448535919189453125">
        <ele>76.1999969482421875</ele>
        <time>2022-05-15T06:37:08.000Z</time>
      </trkpt>
      <trkpt lat="41.59363436512649059295654296875" lon="2.5428573600947856903076171875">
        <ele>76.59999847412109375</ele>
        <time>2022-05-15T06:37:09.000Z</time>
      </trkpt>
      <trkpt lat="41.593873165547847747802734375" lon="2.5428768061101436614990234375">
        <ele>77.59999847412109375</ele>
        <time>2022-05-15T06:37:14.000Z</time>
      </trkpt>
      <trkpt lat="41.5940701402723789215087890625" lon="2.54289214499294757843017578125">
        <ele>78.40000152587890625</ele>
        <time>2022-05-15T06:37:18.000Z</time>
      </trkpt>
      <trkpt lat="41.5943118743598461151123046875" lon="2.5429017841815948486328125">
        <ele>79.1999969482421875</ele>
        <time>2022-05-15T06:37:23.000Z</time>
      </trkpt>
      <trkpt lat="41.5943594835698604583740234375" lon="2.54290421493351459503173828125">
        <ele>79.40000152587890625</ele>
        <time>2022-05-15T06:37:24.000Z</time>
      </trkpt>
      <trkpt lat="41.59445344470441341400146484375" lon="2.54290706478059291839599609375">
        <ele>79.59999847412109375</ele>
        <time>2022-05-15T06:37:26.000Z</time>
      </trkpt>
      <trkpt lat="41.5945019759237766265869140625" lon="2.5429113395512104034423828125">
        <ele>79.8000030517578125</ele>
        <time>2022-05-15T06:37:27.000Z</time>
      </trkpt>
      <trkpt lat="41.5945502556860446929931640625" lon="2.54291645251214504241943359375">
        <ele>80</ele>
        <time>2022-05-15T06:37:28.000Z</time>
      </trkpt>
      <trkpt lat="41.59493959508836269378662109375" lon="2.54293153993785381317138671875">
        <ele>81.40000152587890625</ele>
        <time>2022-05-15T06:37:36.000Z</time>
      </trkpt>
      <trkpt lat="41.59498854540288448333740234375" lon="2.542930953204631805419921875">
        <ele>81.59999847412109375</ele>
        <time>2022-05-15T06:37:37.000Z</time>
      </trkpt>
      <trkpt lat="41.59531527198851108551025390625" lon="2.54289063625037670135498046875">
        <ele>82.1999969482421875</ele>
        <time>2022-05-15T06:37:44.000Z</time>
      </trkpt>
      <trkpt lat="41.59545709379017353057861328125" lon="2.54287697374820709228515625">
        <ele>82.59999847412109375</ele>
        <time>2022-05-15T06:37:47.000Z</time>
      </trkpt>
      <trkpt lat="41.59578834660351276397705078125" lon="2.54283682443201541900634765625">
        <ele>83.8000030517578125</ele>
        <time>2022-05-15T06:37:54.000Z</time>
      </trkpt>
      <trkpt lat="41.5958353690803050994873046875" lon="2.54283137619495391845703125">
        <ele>83.8000030517578125</ele>
        <time>2022-05-15T06:37:55.000Z</time>
      </trkpt>
      <trkpt lat="41.59617257304489612579345703125" lon="2.54277228377759456634521484375">
        <ele>84.8000030517578125</ele>
        <time>2022-05-15T06:38:02.000Z</time>
      </trkpt>
      <trkpt lat="41.59626427106559276580810546875" lon="2.54274797625839710235595703125">
        <ele>85.1999969482421875</ele>
        <time>2022-05-15T06:38:04.000Z</time>
      </trkpt>
      <trkpt lat="41.5963946096599102020263671875" lon="2.5427192263305187225341796875">
        <ele>85.8000030517578125</ele>
        <time>2022-05-15T06:38:07.000Z</time>
      </trkpt>
      <trkpt lat="41.59670800901949405670166015625" lon="2.54269081167876720428466796875">
        <ele>87.40000152587890625</ele>
        <time>2022-05-15T06:38:14.000Z</time>
      </trkpt>
      <trkpt lat="41.59698209725320339202880859375" lon="2.5426605530083179473876953125">
        <ele>88</ele>
        <time>2022-05-15T06:38:20.000Z</time>
      </trkpt>
      <trkpt lat="41.5970286168158054351806640625" lon="2.54265367984771728515625">
        <ele>88</ele>
        <time>2022-05-15T06:38:21.000Z</time>
      </trkpt>
      <trkpt lat="41.59707798622548580169677734375" lon="2.5426447950303554534912109375">
        <ele>88.40000152587890625</ele>
        <time>2022-05-15T06:38:22.000Z</time>
      </trkpt>
      <trkpt lat="41.59722751937806606292724609375" lon="2.54263079725205898284912109375">
        <ele>89.1999969482421875</ele>
        <time>2022-05-15T06:38:25.000Z</time>
      </trkpt>
      <trkpt lat="41.5973219834268093109130859375" lon="2.54262258298695087432861328125">
        <ele>89.8000030517578125</ele>
        <time>2022-05-15T06:38:27.000Z</time>
      </trkpt>
      <trkpt lat="41.5974151901900768280029296875" lon="2.54260967485606670379638671875">
        <ele>90</ele>
        <time>2022-05-15T06:38:29.000Z</time>
      </trkpt>
      <trkpt lat="41.59755541943013668060302734375" lon="2.54258905537426471710205078125">
        <ele>90.40000152587890625</ele>
        <time>2022-05-15T06:38:32.000Z</time>
      </trkpt>
      <trkpt lat="41.59768718294799327850341796875" lon="2.5425680167973041534423828125">
        <ele>91</ele>
        <time>2022-05-15T06:38:35.000Z</time>
      </trkpt>
      <trkpt lat="41.5978715009987354278564453125" lon="2.54253960214555263519287109375">
        <ele>92</ele>
        <time>2022-05-15T06:38:39.000Z</time>
      </trkpt>
      <trkpt lat="41.59791936166584491729736328125" lon="2.54253289662301540374755859375">
        <ele>92.1999969482421875</ele>
        <time>2022-05-15T06:38:40.000Z</time>
      </trkpt>
      <trkpt lat="41.59811281599104404449462890625" lon="2.54251160658895969390869140625">
        <ele>92.59999847412109375</ele>
        <time>2022-05-15T06:38:44.000Z</time>
      </trkpt>
      <trkpt lat="41.5982590802013874053955078125" lon="2.54249668680131435394287109375">
        <ele>92.8000030517578125</ele>
        <time>2022-05-15T06:38:47.000Z</time>
      </trkpt>
      <trkpt lat="41.5983076952397823333740234375" lon="2.54249165765941143035888671875">
        <ele>93</ele>
        <time>2022-05-15T06:38:48.000Z</time>
      </trkpt>
      <trkpt lat="41.59835605882108211517333984375" lon="2.54248545505106449127197265625">
        <ele>93</ele>
        <time>2022-05-15T06:38:49.000Z</time>
      </trkpt>
      <trkpt lat="41.59840433858335018157958984375" lon="2.54247866570949554443359375">
        <ele>93.1999969482421875</ele>
        <time>2022-05-15T06:38:50.000Z</time>
      </trkpt>
      <trkpt lat="41.59854817204177379608154296875" lon="2.54246056079864501953125">
        <ele>94</ele>
        <time>2022-05-15T06:38:53.000Z</time>
      </trkpt>
      <trkpt lat="41.59864573739469051361083984375" lon="2.54244840703904628753662109375">
        <ele>94.59999847412109375</ele>
        <time>2022-05-15T06:38:55.000Z</time>
      </trkpt>
      <trkpt lat="41.5988870523869991302490234375" lon="2.5424231775104999542236328125">
        <ele>95.1999969482421875</ele>
        <time>2022-05-15T06:39:00.000Z</time>
      </trkpt>
      <trkpt lat="41.59898101352155208587646484375" lon="2.54241161048412322998046875">
        <ele>95.8000030517578125</ele>
        <time>2022-05-15T06:39:02.000Z</time>
      </trkpt>
      <trkpt lat="41.5990748070180416107177734375" lon="2.54240146838128566741943359375">
        <ele>95.8000030517578125</ele>
        <time>2022-05-15T06:39:04.000Z</time>
      </trkpt>
      <trkpt lat="41.59912199713289737701416015625" lon="2.54239643923938274383544921875">
        <ele>96</ele>
        <time>2022-05-15T06:39:05.000Z</time>
      </trkpt>
      <trkpt lat="41.59916885197162628173828125" lon="2.54239191301167011260986328125">
        <ele>96.1999969482421875</ele>
        <time>2022-05-15T06:39:06.000Z</time>
      </trkpt>
      <trkpt lat="41.59921654500067234039306640625" lon="2.542387135326862335205078125">
        <ele>96</ele>
        <time>2022-05-15T06:39:07.000Z</time>
      </trkpt>
      <trkpt lat="41.599403880536556243896484375" lon="2.5423638336360454559326171875">
        <ele>97</ele>
        <time>2022-05-15T06:39:11.000Z</time>
      </trkpt>
      <trkpt lat="41.599589623510837554931640625" lon="2.54233005456626415252685546875">
        <ele>97.59999847412109375</ele>
        <time>2022-05-15T06:39:15.000Z</time>
      </trkpt>
      <trkpt lat="41.59968249499797821044921875" lon="2.54230490885674953460693359375">
        <ele>97.8000030517578125</ele>
        <time>2022-05-15T06:39:17.000Z</time>
      </trkpt>
      <trkpt lat="41.59995096735656261444091796875" lon="2.5422017276287078857421875">
        <ele>99.1999969482421875</ele>
        <time>2022-05-15T06:39:23.000Z</time>
      </trkpt>
      <trkpt lat="41.6001349501311779022216796875" lon="2.5421314872801303863525390625">
        <ele>99.8000030517578125</ele>
        <time>2022-05-15T06:39:27.000Z</time>
      </trkpt>
      <trkpt lat="41.60042186267673969268798828125" lon="2.54202403128147125244140625">
        <ele>100.8000030517578125</ele>
        <time>2022-05-15T06:39:33.000Z</time>
      </trkpt>
      <trkpt lat="41.60051691345870494842529296875" lon="2.54199276678264141082763671875">
        <ele>101</ele>
        <time>2022-05-15T06:39:35.000Z</time>
      </trkpt>
      <trkpt lat="41.6008380241692066192626953125" lon="2.54191112704575061798095703125">
        <ele>102.59999847412109375</ele>
        <time>2022-05-15T06:39:42.000Z</time>
      </trkpt>
      <trkpt lat="41.6008842922747135162353515625" lon="2.5419034995138645172119140625">
        <ele>102.59999847412109375</ele>
        <time>2022-05-15T06:39:43.000Z</time>
      </trkpt>
      <trkpt lat="41.6012641601264476776123046875" lon="2.5418535433709621429443359375">
        <ele>104.1999969482421875</ele>
        <time>2022-05-15T06:39:51.000Z</time>
      </trkpt>
      <trkpt lat="41.601357869803905487060546875" lon="2.541840635240077972412109375">
        <ele>104.59999847412109375</ele>
        <time>2022-05-15T06:39:53.000Z</time>
      </trkpt>
      <trkpt lat="41.6015977598726749420166015625" lon="2.541809119284152984619140625">
        <ele>105.1999969482421875</ele>
        <time>2022-05-15T06:39:58.000Z</time>
      </trkpt>
      <trkpt lat="41.60178191028535366058349609375" lon="2.5417807884514331817626953125">
        <ele>105.40000152587890625</ele>
        <time>2022-05-15T06:40:02.000Z</time>
      </trkpt>
      <trkpt lat="41.601829268038272857666015625" lon="2.54177316091954708099365234375">
        <ele>105.59999847412109375</ele>
        <time>2022-05-15T06:40:03.000Z</time>
      </trkpt>
      <trkpt lat="41.60215507261455059051513671875" lon="2.54171230830252170562744140625">
        <ele>107.1999969482421875</ele>
        <time>2022-05-15T06:40:10.000Z</time>
      </trkpt>
      <trkpt lat="41.60224408842623233795166015625" lon="2.54168464802205562591552734375">
        <ele>107.59999847412109375</ele>
        <time>2022-05-15T06:40:12.000Z</time>
      </trkpt>
      <trkpt lat="41.60237903706729412078857421875" lon="2.54163318313658237457275390625">
        <ele>108</ele>
        <time>2022-05-15T06:40:15.000Z</time>
      </trkpt>
      <trkpt lat="41.60260467790067195892333984375" lon="2.54153327085077762603759765625">
        <ele>109</ele>
        <time>2022-05-15T06:40:20.000Z</time>
      </trkpt>
      <trkpt lat="41.60264641977846622467041015625" lon="2.541511394083499908447265625">
        <ele>109.59999847412109375</ele>
        <time>2022-05-15T06:40:21.000Z</time>
      </trkpt>
      <trkpt lat="41.60286418162286281585693359375" lon="2.54141508601605892181396484375">
        <ele>110.1999969482421875</ele>
        <time>2022-05-15T06:40:26.000Z</time>
      </trkpt>
      <trkpt lat="41.60300575196743011474609375" lon="2.5413583405315876007080078125">
        <ele>110.59999847412109375</ele>
        <time>2022-05-15T06:40:29.000Z</time>
      </trkpt>
      <trkpt lat="41.603245474398136138916015625" lon="2.54126354120671749114990234375">
        <ele>112</ele>
        <time>2022-05-15T06:40:34.000Z</time>
      </trkpt>
      <trkpt lat="41.60346281714737415313720703125" lon="2.54115105606615543365478515625">
        <ele>112.8000030517578125</ele>
        <time>2022-05-15T06:40:39.000Z</time>
      </trkpt>
      <trkpt lat="41.60355149768292903900146484375" lon="2.5411055423319339752197265625">
        <ele>113</ele>
        <time>2022-05-15T06:40:41.000Z</time>
      </trkpt>
      <trkpt lat="41.60379440523684024810791015625" lon="2.5409375689923763275146484375">
        <ele>113.40000152587890625</ele>
        <time>2022-05-15T06:40:47.000Z</time>
      </trkpt>
      <trkpt lat="41.60383732058107852935791015625" lon="2.54091049544513225555419921875">
        <ele>113.59999847412109375</ele>
        <time>2022-05-15T06:40:48.000Z</time>
      </trkpt>
      <trkpt lat="41.60408609546720981597900390625" lon="2.5407347269356250762939453125">
        <ele>114.59999847412109375</ele>
        <time>2022-05-15T06:40:54.000Z</time>
      </trkpt>
      <trkpt lat="41.604288853704929351806640625" lon="2.5406089983880519866943359375">
        <ele>115.8000030517578125</ele>
        <time>2022-05-15T06:41:00.000Z</time>
      </trkpt>
      <trkpt lat="41.60444249399006366729736328125" lon="2.5405245088040828704833984375">
        <ele>116.8000030517578125</ele>
        <time>2022-05-15T06:41:04.000Z</time>
      </trkpt>
      <trkpt lat="41.6044858284294605255126953125" lon="2.54050598479807376861572265625">
        <ele>117</ele>
        <time>2022-05-15T06:41:05.000Z</time>
      </trkpt>
      <trkpt lat="41.604656316339969635009765625" lon="2.540437169373035430908203125">
        <ele>117</ele>
        <time>2022-05-15T06:41:09.000Z</time>
      </trkpt>
      <trkpt lat="41.6047835536301136016845703125" lon="2.5404064916074275970458984375">
        <ele>117.40000152587890625</ele>
        <time>2022-05-15T06:41:12.000Z</time>
      </trkpt>
      <trkpt lat="41.60500190220773220062255859375" lon="2.54038897342979907989501953125">
        <ele>118</ele>
        <time>2022-05-15T06:41:17.000Z</time>
      </trkpt>
      <trkpt lat="41.605094857513904571533203125" lon="2.54038947634398937225341796875">
        <ele>118.8000030517578125</ele>
        <time>2022-05-15T06:41:19.000Z</time>
      </trkpt>
      <trkpt lat="41.60518865101039409637451171875" lon="2.54038922488689422607421875">
        <ele>119.1999969482421875</ele>
        <time>2022-05-15T06:41:21.000Z</time>
      </trkpt>
      <trkpt lat="41.605326198041439056396484375" lon="2.54039215855300426483154296875">
        <ele>119.8000030517578125</ele>
        <time>2022-05-15T06:41:24.000Z</time>
      </trkpt>
      <trkpt lat="41.60547011531889438629150390625" lon="2.54040825180709362030029296875">
        <ele>120.1999969482421875</ele>
        <time>2022-05-15T06:41:27.000Z</time>
      </trkpt>
      <trkpt lat="41.6056985221803188323974609375" lon="2.54048368893563747406005859375">
        <ele>120.59999847412109375</ele>
        <time>2022-05-15T06:41:32.000Z</time>
      </trkpt>
      <trkpt lat="41.6060384921729564666748046875" lon="2.54060916602611541748046875">
        <ele>122</ele>
        <time>2022-05-15T06:41:39.000Z</time>
      </trkpt>
      <trkpt lat="41.60608224570751190185546875" lon="2.5406205654144287109375">
        <ele>122.1999969482421875</ele>
        <time>2022-05-15T06:41:40.000Z</time>
      </trkpt>
      <trkpt lat="41.60617067478597164154052734375" lon="2.54064998589456081390380859375">
        <ele>122.40000152587890625</ele>
        <time>2022-05-15T06:41:42.000Z</time>
      </trkpt>
      <trkpt lat="41.60649555735290050506591796875" lon="2.540767751634120941162109375">
        <ele>123.1999969482421875</ele>
        <time>2022-05-15T06:41:49.000Z</time>
      </trkpt>
      <trkpt lat="41.60667777992784976959228515625" lon="2.54084327258169651031494140625">
        <ele>123.8000030517578125</ele>
        <time>2022-05-15T06:41:53.000Z</time>
      </trkpt>
      <trkpt lat="41.60691280849277973175048828125" lon="2.54092566668987274169921875">
        <ele>124.8000030517578125</ele>
        <time>2022-05-15T06:41:58.000Z</time>
      </trkpt>
      <trkpt lat="41.60696309991180896759033203125" lon="2.54094301722943782806396484375">
        <ele>125</ele>
        <time>2022-05-15T06:41:59.000Z</time>
      </trkpt>
      <trkpt lat="41.6072954423725605010986328125" lon="2.54103421233594417572021484375">
        <ele>127</ele>
        <time>2022-05-15T06:42:06.000Z</time>
      </trkpt>
      <trkpt lat="41.60739309154450893402099609375" lon="2.541048713028430938720703125">
        <ele>127</ele>
        <time>2022-05-15T06:42:08.000Z</time>
      </trkpt>
      <trkpt lat="41.60753441043198108673095703125" lon="2.5410522334277629852294921875">
        <ele>127.40000152587890625</ele>
        <time>2022-05-15T06:42:11.000Z</time>
      </trkpt>
      <trkpt lat="41.60758084617555141448974609375" lon="2.54105307161808013916015625">
        <ele>127.59999847412109375</ele>
        <time>2022-05-15T06:42:12.000Z</time>
      </trkpt>
      <trkpt lat="41.6078694351017475128173828125" lon="2.54105801694095134735107421875">
        <ele>128.1999969482421875</ele>
        <time>2022-05-15T06:42:18.000Z</time>
      </trkpt>
      <trkpt lat="41.6079190559685230255126953125" lon="2.541068829596042633056640625">
        <ele>128.1999969482421875</ele>
        <time>2022-05-15T06:42:19.000Z</time>
      </trkpt>
      <trkpt lat="41.6080181300640106201171875" lon="2.54109690897166728973388671875">
        <ele>128.399993896484375</ele>
        <time>2022-05-15T06:42:21.000Z</time>
      </trkpt>
      <trkpt lat="41.60827486775815486907958984375" lon="2.54119246266782283782958984375">
        <ele>129</ele>
        <time>2022-05-15T06:42:26.000Z</time>
      </trkpt>
      <trkpt lat="41.608320213854312896728515625" lon="2.54121668636798858642578125">
        <ele>129.1999969482421875</ele>
        <time>2022-05-15T06:42:27.000Z</time>
      </trkpt>
      <trkpt lat="41.60840093158185482025146484375" lon="2.54128164611756801605224609375">
        <ele>129.399993896484375</ele>
        <time>2022-05-15T06:42:29.000Z</time>
      </trkpt>
      <trkpt lat="41.60847201012074947357177734375" lon="2.54136429168283939361572265625">
        <ele>129.399993896484375</ele>
        <time>2022-05-15T06:42:31.000Z</time>
      </trkpt>
      <trkpt lat="41.608507297933101654052734375" lon="2.54140770994126796722412109375">
        <ele>129.600006103515625</ele>
        <time>2022-05-15T06:42:32.000Z</time>
      </trkpt>
      <trkpt lat="41.60854727961122989654541015625" lon="2.54144794307649135589599609375">
        <ele>129.600006103515625</ele>
        <time>2022-05-15T06:42:33.000Z</time>
      </trkpt>
      <trkpt lat="41.6086341999471187591552734375" lon="2.54150410182774066925048828125">
        <ele>130</ele>
        <time>2022-05-15T06:42:35.000Z</time>
      </trkpt>
      <trkpt lat="41.608675606548786163330078125" lon="2.54152321256697177886962890625">
        <ele>130</ele>
        <time>2022-05-15T06:42:36.000Z</time>
      </trkpt>
      <trkpt lat="41.6087139956653118133544921875" lon="2.541538216173648834228515625">
        <ele>130.399993896484375</ele>
        <time>2022-05-15T06:42:37.000Z</time>
      </trkpt>
      <trkpt lat="41.608757078647613525390625" lon="2.5415392220020294189453125">
        <ele>130.399993896484375</ele>
        <time>2022-05-15T06:42:38.000Z</time>
      </trkpt>
      <trkpt lat="41.60885472781956195831298828125" lon="2.5415434129536151885986328125">
        <ele>130.8000030517578125</ele>
        <time>2022-05-15T06:42:40.000Z</time>
      </trkpt>
      <trkpt lat="41.60889194346964359283447265625" lon="2.54154282622039318084716796875">
        <ele>131</ele>
        <time>2022-05-15T06:42:41.000Z</time>
      </trkpt>
      <trkpt lat="41.6091042570769786834716796875" lon="2.54153008572757244110107421875">
        <ele>132.1999969482421875</ele>
        <time>2022-05-15T06:42:46.000Z</time>
      </trkpt>
      <trkpt lat="41.60914490930736064910888671875" lon="2.541522793471813201904296875">
        <ele>132.600006103515625</ele>
        <time>2022-05-15T06:42:47.000Z</time>
      </trkpt>
      <trkpt lat="41.6092735715210437774658203125" lon="2.54151047207415103912353515625">
        <ele>132.8000030517578125</ele>
        <time>2022-05-15T06:42:50.000Z</time>
      </trkpt>
      <trkpt lat="41.609409861266613006591796875" lon="2.54149689339101314544677734375">
        <ele>133.1999969482421875</ele>
        <time>2022-05-15T06:42:53.000Z</time>
      </trkpt>
      <trkpt lat="41.6096577979624271392822265625" lon="2.541453726589679718017578125">
        <ele>134</ele>
        <time>2022-05-15T06:42:59.000Z</time>
      </trkpt>
      <trkpt lat="41.60969140939414501190185546875" lon="2.5414502061903476715087890625">
        <ele>134.1999969482421875</ele>
        <time>2022-05-15T06:43:00.000Z</time>
      </trkpt>
      <trkpt lat="41.60981881432235240936279296875" lon="2.54144391976296901702880859375">
        <ele>135.399993896484375</ele>
        <time>2022-05-15T06:43:05.000Z</time>
      </trkpt>
      <trkpt lat="41.60984043963253498077392578125" lon="2.54144459031522274017333984375">
        <ele>135.600006103515625</ele>
        <time>2022-05-15T06:43:06.000Z</time>
      </trkpt>
      <trkpt lat="41.60995963029563426971435546875" lon="2.54145850427448749542236328125">
        <ele>136.600006103515625</ele>
        <time>2022-05-15T06:43:12.000Z</time>
      </trkpt>
      <trkpt lat="41.61007932387292385101318359375" lon="2.54144509322941303253173828125">
        <ele>137.600006103515625</ele>
        <time>2022-05-15T06:43:19.000Z</time>
      </trkpt>
      <trkpt lat="41.6101895458996295928955078125" lon="2.54140217788517475128173828125">
        <ele>138.600006103515625</ele>
        <time>2022-05-15T06:43:24.000Z</time>
      </trkpt>
      <trkpt lat="41.610221229493618011474609375" lon="2.5413888506591320037841796875">
        <ele>138.600006103515625</ele>
        <time>2022-05-15T06:43:25.000Z</time>
      </trkpt>
      <trkpt lat="41.61044485867023468017578125" lon="2.5413046963512897491455078125">
        <ele>139</ele>
        <time>2022-05-15T06:43:31.000Z</time>
      </trkpt>
      <trkpt lat="41.6104832477867603302001953125" lon="2.5412916205823421478271484375">
        <ele>139.1999969482421875</ele>
        <time>2022-05-15T06:43:32.000Z</time>
      </trkpt>
      <trkpt lat="41.61073177121579647064208984375" lon="2.541208975017070770263671875">
        <ele>139.8000030517578125</ele>
        <time>2022-05-15T06:43:38.000Z</time>
      </trkpt>
      <trkpt lat="41.6108936257660388946533203125" lon="2.5411464460194110870361328125">
        <ele>140.399993896484375</ele>
        <time>2022-05-15T06:43:42.000Z</time>
      </trkpt>
      <trkpt lat="41.61101357080042362213134765625" lon="2.5411031953990459442138671875">
        <ele>140.8000030517578125</ele>
        <time>2022-05-15T06:43:45.000Z</time>
      </trkpt>
      <trkpt lat="41.61131079308688640594482421875" lon="2.54099431447684764862060546875">
        <ele>142.1999969482421875</ele>
        <time>2022-05-15T06:43:52.000Z</time>
      </trkpt>
      <trkpt lat="41.61149494349956512451171875" lon="2.54092960618436336517333984375">
        <ele>142.8000030517578125</ele>
        <time>2022-05-15T06:43:56.000Z</time>
      </trkpt>
      <trkpt lat="41.61163550801575183868408203125" lon="2.540886104106903076171875">
        <ele>143.399993896484375</ele>
        <time>2022-05-15T06:43:59.000Z</time>
      </trkpt>
      <trkpt lat="41.61178537644445896148681640625" lon="2.54086799919605255126953125">
        <ele>144</ele>
        <time>2022-05-15T06:44:02.000Z</time>
      </trkpt>
      <trkpt lat="41.61193558014929294586181640625" lon="2.5408715195953845977783203125">
        <ele>144.399993896484375</ele>
        <time>2022-05-15T06:44:05.000Z</time>
      </trkpt>
      <trkpt lat="41.61203616298735141754150390625" lon="2.54087378270924091339111328125">
        <ele>144.8000030517578125</ele>
        <time>2022-05-15T06:44:07.000Z</time>
      </trkpt>
      <trkpt lat="41.61208662204444408416748046875" lon="2.54087663255631923675537109375">
        <ele>145</ele>
        <time>2022-05-15T06:44:08.000Z</time>
      </trkpt>
      <trkpt lat="41.61213657818734645843505859375" lon="2.54087914712727069854736328125">
        <ele>145</ele>
        <time>2022-05-15T06:44:09.000Z</time>
      </trkpt>
      <trkpt lat="41.61218653433024883270263671875" lon="2.5408809073269367218017578125">
        <ele>145.1999969482421875</ele>
        <time>2022-05-15T06:44:10.000Z</time>
      </trkpt>
      <trkpt lat="41.61223498173058032989501953125" lon="2.5408819131553173065185546875">
        <ele>145.399993896484375</ele>
        <time>2022-05-15T06:44:11.000Z</time>
      </trkpt>
      <trkpt lat="41.61228326149284839630126953125" lon="2.54088115878403186798095703125">
        <ele>145.8000030517578125</ele>
        <time>2022-05-15T06:44:12.000Z</time>
      </trkpt>
      <trkpt lat="41.612380407750606536865234375" lon="2.5408825837075710296630859375">
        <ele>146</ele>
        <time>2022-05-15T06:44:14.000Z</time>
      </trkpt>
      <trkpt lat="41.61247923038899898529052734375" lon="2.54088786430656909942626953125">
        <ele>146.399993896484375</ele>
        <time>2022-05-15T06:44:16.000Z</time>
      </trkpt>
      <trkpt lat="41.6125770471990108489990234375" lon="2.540891468524932861328125">
        <ele>147</ele>
        <time>2022-05-15T06:44:18.000Z</time>
      </trkpt>
      <trkpt lat="41.612673439085483551025390625" lon="2.54089255817234516143798828125">
        <ele>147.600006103515625</ele>
        <time>2022-05-15T06:44:20.000Z</time>
      </trkpt>
      <trkpt lat="41.61281098611652851104736328125" lon="2.54089775495231151580810546875">
        <ele>148</ele>
        <time>2022-05-15T06:44:23.000Z</time>
      </trkpt>
      <trkpt lat="41.61285926587879657745361328125" lon="2.54090026952326297760009765625">
        <ele>148.1999969482421875</ele>
        <time>2022-05-15T06:44:24.000Z</time>
      </trkpt>
      <trkpt lat="41.6129056178033351898193359375" lon="2.540901191532611846923828125">
        <ele>148.600006103515625</ele>
        <time>2022-05-15T06:44:25.000Z</time>
      </trkpt>
      <trkpt lat="41.61307476460933685302734375" lon="2.54090496338903903961181640625">
        <ele>149.8000030517578125</ele>
        <time>2022-05-15T06:44:29.000Z</time>
      </trkpt>
      <trkpt lat="41.61311893723905086517333984375" lon="2.54090714268386363983154296875">
        <ele>150</ele>
        <time>2022-05-15T06:44:30.000Z</time>
      </trkpt>
      <trkpt lat="41.613240726292133331298828125" lon="2.54091485403478145599365234375">
        <ele>150.600006103515625</ele>
        <time>2022-05-15T06:44:33.000Z</time>
      </trkpt>
      <trkpt lat="41.6134873218834400177001953125" lon="2.5409529916942119598388671875">
        <ele>152.600006103515625</ele>
        <time>2022-05-15T06:44:39.000Z</time>
      </trkpt>
      <trkpt lat="41.61356803961098194122314453125" lon="2.54096514545381069183349609375">
        <ele>153.1999969482421875</ele>
        <time>2022-05-15T06:44:41.000Z</time>
      </trkpt>
      <trkpt lat="41.61365236155688762664794921875" lon="2.5409866869449615478515625">
        <ele>154</ele>
        <time>2022-05-15T06:44:43.000Z</time>
      </trkpt>
      <trkpt lat="41.61374389193952083587646484375" lon="2.54101158119738101959228515625">
        <ele>154.399993896484375</ele>
        <time>2022-05-15T06:44:45.000Z</time>
      </trkpt>
      <trkpt lat="41.61383441649377346038818359375" lon="2.54103840328752994537353515625">
        <ele>154.8000030517578125</ele>
        <time>2022-05-15T06:44:47.000Z</time>
      </trkpt>
      <trkpt lat="41.61395930685102939605712890625" lon="2.54107628948986530303955078125">
        <ele>155.8000030517578125</ele>
        <time>2022-05-15T06:44:50.000Z</time>
      </trkpt>
      <trkpt lat="41.6140002943575382232666015625" lon="2.541088946163654327392578125">
        <ele>155.8000030517578125</ele>
        <time>2022-05-15T06:44:51.000Z</time>
      </trkpt>
      <trkpt lat="41.61412308923900127410888671875" lon="2.54112490452826023101806640625">
        <ele>156.8000030517578125</ele>
        <time>2022-05-15T06:44:54.000Z</time>
      </trkpt>
      <trkpt lat="41.614291481673717498779296875" lon="2.54115826450288295745849609375">
        <ele>157.600006103515625</ele>
        <time>2022-05-15T06:44:58.000Z</time>
      </trkpt>
      <trkpt lat="41.6143815033137798309326171875" lon="2.5411782972514629364013671875">
        <ele>158.399993896484375</ele>
        <time>2022-05-15T06:45:00.000Z</time>
      </trkpt>
      <trkpt lat="41.6144715249538421630859375" lon="2.541194893419742584228515625">
        <ele>159</ele>
        <time>2022-05-15T06:45:02.000Z</time>
      </trkpt>
      <trkpt lat="41.61451687105000019073486328125" lon="2.54120620898902416229248046875">
        <ele>159.1999969482421875</ele>
        <time>2022-05-15T06:45:03.000Z</time>
      </trkpt>
      <trkpt lat="41.61464528180658817291259765625" lon="2.5412500463426113128662109375">
        <ele>160</ele>
        <time>2022-05-15T06:45:06.000Z</time>
      </trkpt>
      <trkpt lat="41.61468300037086009979248046875" lon="2.54126437939703464508056640625">
        <ele>160.1999969482421875</ele>
        <time>2022-05-15T06:45:07.000Z</time>
      </trkpt>
      <trkpt lat="41.61480210721492767333984375" lon="2.54129069857299327850341796875">
        <ele>161</ele>
        <time>2022-05-15T06:45:10.000Z</time>
      </trkpt>
      <trkpt lat="41.614920459687709808349609375" lon="2.5412986613810062408447265625">
        <ele>161.8000030517578125</ele>
        <time>2022-05-15T06:45:13.000Z</time>
      </trkpt>
      <trkpt lat="41.6149588488042354583740234375" lon="2.5413063727319240570068359375">
        <ele>162</ele>
        <time>2022-05-15T06:45:14.000Z</time>
      </trkpt>
      <trkpt lat="41.61500436253845691680908203125" lon="2.54133093170821666717529296875">
        <ele>162.600006103515625</ele>
        <time>2022-05-15T06:45:15.000Z</time>
      </trkpt>
      <trkpt lat="41.6150527261197566986083984375" lon="2.5413499586284160614013671875">
        <ele>162.600006103515625</ele>
        <time>2022-05-15T06:45:16.000Z</time>
      </trkpt>
      <trkpt lat="41.61518272943794727325439453125" lon="2.54139983095228672027587890625">
        <ele>163.399993896484375</ele>
        <time>2022-05-15T06:45:19.000Z</time>
      </trkpt>
      <trkpt lat="41.6154225356876850128173828125" lon="2.54149722866714000701904296875">
        <ele>165.1999969482421875</ele>
        <time>2022-05-15T06:45:24.000Z</time>
      </trkpt>
      <trkpt lat="41.61558128893375396728515625" lon="2.541579790413379669189453125">
        <ele>166</ele>
        <time>2022-05-15T06:45:28.000Z</time>
      </trkpt>
      <trkpt lat="41.61572537384927272796630859375" lon="2.54168339073657989501953125">
        <ele>166.8000030517578125</ele>
        <time>2022-05-15T06:45:32.000Z</time>
      </trkpt>
      <trkpt lat="41.61587507463991641998291015625" lon="2.54177718423306941986083984375">
        <ele>167.8000030517578125</ele>
        <time>2022-05-15T06:45:36.000Z</time>
      </trkpt>
      <trkpt lat="41.616022177040576934814453125" lon="2.54186670295894145965576171875">
        <ele>169</ele>
        <time>2022-05-15T06:45:40.000Z</time>
      </trkpt>
      <trkpt lat="41.61609224975109100341796875" lon="2.54191565327346324920654296875">
        <ele>169.399993896484375</ele>
        <time>2022-05-15T06:45:42.000Z</time>
      </trkpt>
      <trkpt lat="41.6161588020622730255126953125" lon="2.5419683754444122314453125">
        <ele>169.8000030517578125</ele>
        <time>2022-05-15T06:45:44.000Z</time>
      </trkpt>
      <trkpt lat="41.616301126778125762939453125" lon="2.54206283949315547943115234375">
        <ele>171</ele>
        <time>2022-05-15T06:45:48.000Z</time>
      </trkpt>
      <trkpt lat="41.616368852555751800537109375" lon="2.54210843704640865325927734375">
        <ele>171.600006103515625</ele>
        <time>2022-05-15T06:45:50.000Z</time>
      </trkpt>
      <trkpt lat="41.61647588945925235748291015625" lon="2.54215545952320098876953125">
        <ele>172.600006103515625</ele>
        <time>2022-05-15T06:45:53.000Z</time>
      </trkpt>
      <trkpt lat="41.6165138594806194305419921875" lon="2.54216342233121395111083984375">
        <ele>172.8000030517578125</ele>
        <time>2022-05-15T06:45:54.000Z</time>
      </trkpt>
      <trkpt lat="41.616551242768764495849609375" lon="2.542169205844402313232421875">
        <ele>172.8000030517578125</ele>
        <time>2022-05-15T06:45:55.000Z</time>
      </trkpt>
      <trkpt lat="41.61659357137978076934814453125" lon="2.54217079840600490570068359375">
        <ele>173.1999969482421875</ele>
        <time>2022-05-15T06:45:56.000Z</time>
      </trkpt>
      <trkpt lat="41.616635732352733612060546875" lon="2.5421683676540851593017578125">
        <ele>173.600006103515625</ele>
        <time>2022-05-15T06:45:57.000Z</time>
      </trkpt>
      <trkpt lat="41.61667671985924243927001953125" lon="2.5421630032360553741455078125">
        <ele>173.8000030517578125</ele>
        <time>2022-05-15T06:45:58.000Z</time>
      </trkpt>
      <trkpt lat="41.61683983169496059417724609375" lon="2.54210022278130054473876953125">
        <ele>175</ele>
        <time>2022-05-15T06:46:02.000Z</time>
      </trkpt>
      <trkpt lat="41.61696505732834339141845703125" lon="2.54201724193990230560302734375">
        <ele>175.600006103515625</ele>
        <time>2022-05-15T06:46:05.000Z</time>
      </trkpt>
      <trkpt lat="41.61700696684420108795166015625" lon="2.54198656417429447174072265625">
        <ele>175.8000030517578125</ele>
        <time>2022-05-15T06:46:06.000Z</time>
      </trkpt>
      <trkpt lat="41.61704803816974163055419921875" lon="2.5419531203806400299072265625">
        <ele>176</ele>
        <time>2022-05-15T06:46:07.000Z</time>
      </trkpt>
      <trkpt lat="41.6170878522098064422607421875" lon="2.541916072368621826171875">
        <ele>176</ele>
        <time>2022-05-15T06:46:08.000Z</time>
      </trkpt>
      <trkpt lat="41.61716404370963573455810546875" lon="2.54183895885944366455078125">
        <ele>176</ele>
        <time>2022-05-15T06:46:10.000Z</time>
      </trkpt>
      <trkpt lat="41.61722925491631031036376953125" lon="2.5417606718838214874267578125">
        <ele>176.399993896484375</ele>
        <time>2022-05-15T06:46:12.000Z</time>
      </trkpt>
      <trkpt lat="41.61732849664986133575439453125" lon="2.5416456721723079681396484375">
        <ele>176.8000030517578125</ele>
        <time>2022-05-15T06:46:15.000Z</time>
      </trkpt>
      <trkpt lat="41.6173922829329967498779296875" lon="2.54156763665378093719482421875">
        <ele>177.1999969482421875</ele>
        <time>2022-05-15T06:46:17.000Z</time>
      </trkpt>
      <trkpt lat="41.61741918884217739105224609375" lon="2.54152270965278148651123046875">
        <ele>177.1999969482421875</ele>
        <time>2022-05-15T06:46:18.000Z</time>
      </trkpt>
      <trkpt lat="41.61749630235135555267333984375" lon="2.5413777865469455718994140625">
        <ele>177.600006103515625</ele>
        <time>2022-05-15T06:46:21.000Z</time>
      </trkpt>
      <trkpt lat="41.61754592321813106536865234375" lon="2.54128483124077320098876953125">
        <ele>177.8000030517578125</ele>
        <time>2022-05-15T06:46:23.000Z</time>
      </trkpt>
      <trkpt lat="41.61761038005352020263671875" lon="2.54114367999136447906494140625">
        <ele>178</ele>
        <time>2022-05-15T06:46:26.000Z</time>
      </trkpt>
      <trkpt lat="41.6176303289830684661865234375" lon="2.54109959118068218231201171875">
        <ele>178.1999969482421875</ele>
        <time>2022-05-15T06:46:27.000Z</time>
      </trkpt>
      <trkpt lat="41.61769897677004337310791015625" lon="2.54094083793461322784423828125">
        <ele>178.8000030517578125</ele>
        <time>2022-05-15T06:46:31.000Z</time>
      </trkpt>
      <trkpt lat="41.61774826236069202423095703125" lon="2.54082910716533660888671875">
        <ele>180.399993896484375</ele>
        <time>2022-05-15T06:46:34.000Z</time>
      </trkpt>
      <trkpt lat="41.617762930691242218017578125" lon="2.54079532809555530548095703125">
        <ele>181</ele>
        <time>2022-05-15T06:46:35.000Z</time>
      </trkpt>
      <trkpt lat="41.61781146191060543060302734375" lon="2.54065182991325855255126953125">
        <ele>181.8000030517578125</ele>
        <time>2022-05-15T06:46:39.000Z</time>
      </trkpt>
      <trkpt lat="41.61783702671527862548828125" lon="2.54058645106852054595947265625">
        <ele>182.600006103515625</ele>
        <time>2022-05-15T06:46:41.000Z</time>
      </trkpt>
      <trkpt lat="41.61786024458706378936767578125" lon="2.54052509553730487823486328125">
        <ele>183.1999969482421875</ele>
        <time>2022-05-15T06:46:43.000Z</time>
      </trkpt>
      <trkpt lat="41.61793082021176815032958984375" lon="2.54038746468722820281982421875">
        <ele>184.8000030517578125</ele>
        <time>2022-05-15T06:46:47.000Z</time>
      </trkpt>
      <trkpt lat="41.618011705577373504638671875" lon="2.5402743928134441375732421875">
        <ele>185.8000030517578125</ele>
        <time>2022-05-15T06:46:51.000Z</time>
      </trkpt>
      <trkpt lat="41.618072055280208587646484375" lon="2.54019820131361484527587890625">
        <ele>187</ele>
        <time>2022-05-15T06:46:54.000Z</time>
      </trkpt>
      <trkpt lat="41.618113629519939422607421875" lon="2.54014271311461925506591796875">
        <ele>187.399993896484375</ele>
        <time>2022-05-15T06:46:56.000Z</time>
      </trkpt>
      <trkpt lat="41.618209183216094970703125" lon="2.54004548303782939910888671875">
        <ele>188.600006103515625</ele>
        <time>2022-05-15T06:47:00.000Z</time>
      </trkpt>
      <trkpt lat="41.61823156289756298065185546875" lon="2.54001966677606105804443359375">
        <ele>189</ele>
        <time>2022-05-15T06:47:01.000Z</time>
      </trkpt>
      <trkpt lat="41.61830767057836055755615234375" lon="2.539958395063877105712890625">
        <ele>189.600006103515625</ele>
        <time>2022-05-15T06:47:04.000Z</time>
      </trkpt>
      <trkpt lat="41.61841101944446563720703125" lon="2.539873905479907989501953125">
        <ele>190.399993896484375</ele>
        <time>2022-05-15T06:47:08.000Z</time>
      </trkpt>
      <trkpt lat="41.61846323870122432708740234375" lon="2.53983358852565288543701171875">
        <ele>191.1999969482421875</ele>
        <time>2022-05-15T06:47:10.000Z</time>
      </trkpt>
      <trkpt lat="41.61860757507383823394775390625" lon="2.53967978060245513916015625">
        <ele>192.600006103515625</ele>
        <time>2022-05-15T06:47:16.000Z</time>
      </trkpt>
      <trkpt lat="41.61862953566014766693115234375" lon="2.53965086303651332855224609375">
        <ele>193</ele>
        <time>2022-05-15T06:47:17.000Z</time>
      </trkpt>
      <trkpt lat="41.6186509095132350921630859375" lon="2.53961808979511260986328125">
        <ele>193.1999969482421875</ele>
        <time>2022-05-15T06:47:18.000Z</time>
      </trkpt>
      <trkpt lat="41.618713103234767913818359375" lon="2.53951138816773891448974609375">
        <ele>193.399993896484375</ele>
        <time>2022-05-15T06:47:21.000Z</time>
      </trkpt>
      <trkpt lat="41.61875342018902301788330078125" lon="2.5394378788769245147705078125">
        <ele>193.8000030517578125</ele>
        <time>2022-05-15T06:47:23.000Z</time>
      </trkpt>
      <trkpt lat="41.61881712265312671661376953125" lon="2.539327405393123626708984375">
        <ele>194.399993896484375</ele>
        <time>2022-05-15T06:47:26.000Z</time>
      </trkpt>
      <trkpt lat="41.6189164482057094573974609375" lon="2.5391994975507259368896484375">
        <ele>195.399993896484375</ele>
        <time>2022-05-15T06:47:30.000Z</time>
      </trkpt>
      <trkpt lat="41.6189627163112163543701171875" lon="2.539120204746723175048828125">
        <ele>195.8000030517578125</ele>
        <time>2022-05-15T06:47:32.000Z</time>
      </trkpt>
      <trkpt lat="41.619057767093181610107421875" lon="2.53895248286426067352294921875">
        <ele>196.8000030517578125</ele>
        <time>2022-05-15T06:47:36.000Z</time>
      </trkpt>
      <trkpt lat="41.6191343776881694793701171875" lon="2.53882541321218013763427734375">
        <ele>197</ele>
        <time>2022-05-15T06:47:39.000Z</time>
      </trkpt>
      <trkpt lat="41.6192041151225566864013671875" lon="2.5386942364275455474853515625">
        <ele>198</ele>
        <time>2022-05-15T06:47:42.000Z</time>
      </trkpt>
      <trkpt lat="41.61922498606145381927490234375" lon="2.5386483035981655120849609375">
        <ele>198.1999969482421875</ele>
        <time>2022-05-15T06:47:43.000Z</time>
      </trkpt>
      <trkpt lat="41.61924912594258785247802734375" lon="2.53860631026327610015869140625">
        <ele>198.1999969482421875</ele>
        <time>2022-05-15T06:47:44.000Z</time>
      </trkpt>
      <trkpt lat="41.61927427165210247039794921875" lon="2.53856532275676727294921875">
        <ele>198.399993896484375</ele>
        <time>2022-05-15T06:47:45.000Z</time>
      </trkpt>
      <trkpt lat="41.61941810511052608489990234375" lon="2.5384166277945041656494140625">
        <ele>199.399993896484375</ele>
        <time>2022-05-15T06:47:50.000Z</time>
      </trkpt>
      <trkpt lat="41.61944978870451450347900390625" lon="2.538397349417209625244140625">
        <ele>199.600006103515625</ele>
        <time>2022-05-15T06:47:51.000Z</time>
      </trkpt>
      <trkpt lat="41.61959865130484104156494140625" lon="2.538348734378814697265625">
        <ele>200.8000030517578125</ele>
        <time>2022-05-15T06:47:55.000Z</time>
      </trkpt>
      <trkpt lat="41.61967165768146514892578125" lon="2.5383334793150424957275390625">
        <ele>200.8000030517578125</ele>
        <time>2022-05-15T06:47:57.000Z</time>
      </trkpt>
      <trkpt lat="41.619806773960590362548828125" lon="2.53830137662589550018310546875">
        <ele>201.8000030517578125</ele>
        <time>2022-05-15T06:48:01.000Z</time>
      </trkpt>
      <trkpt lat="41.61984122358262538909912109375" lon="2.5382945872843265533447265625">
        <ele>202</ele>
        <time>2022-05-15T06:48:02.000Z</time>
      </trkpt>
      <trkpt lat="41.62003375589847564697265625" lon="2.53828612156212329864501953125">
        <ele>203.399993896484375</ele>
        <time>2022-05-15T06:48:08.000Z</time>
      </trkpt>
      <trkpt lat="41.6201988793909549713134765625" lon="2.53819844685494899749755859375">
        <ele>204.8000030517578125</ele>
        <time>2022-05-15T06:48:13.000Z</time>
      </trkpt>
      <trkpt lat="41.620221175253391265869140625" lon="2.5381668470799922943115234375">
        <ele>204.8000030517578125</ele>
        <time>2022-05-15T06:48:14.000Z</time>
      </trkpt>
      <trkpt lat="41.620267443358898162841796875" lon="2.53801287151873111724853515625">
        <ele>205.600006103515625</ele>
        <time>2022-05-15T06:48:17.000Z</time>
      </trkpt>
      <trkpt lat="41.62026316858828067779541015625" lon="2.5379626639187335968017578125">
        <ele>205.8000030517578125</ele>
        <time>2022-05-15T06:48:18.000Z</time>
      </trkpt>
      <trkpt lat="41.62021882832050323486328125" lon="2.5378526933491230010986328125">
        <ele>206.399993896484375</ele>
        <time>2022-05-15T06:48:21.000Z</time>
      </trkpt>
      <trkpt lat="41.620146743953227996826171875" lon="2.53776057623326778411865234375">
        <ele>207</ele>
        <time>2022-05-15T06:48:24.000Z</time>
      </trkpt>
      <trkpt lat="41.62008295767009258270263671875" lon="2.53765027038753032684326171875">
        <ele>207.8000030517578125</ele>
        <time>2022-05-15T06:48:27.000Z</time>
      </trkpt>
      <trkpt lat="41.62003082223236560821533203125" lon="2.5374989770352840423583984375">
        <ele>208.600006103515625</ele>
        <time>2022-05-15T06:48:30.000Z</time>
      </trkpt>
      <trkpt lat="41.62001791410148143768310546875" lon="2.5374456681311130523681640625">
        <ele>208.600006103515625</ele>
        <time>2022-05-15T06:48:31.000Z</time>
      </trkpt>
      <trkpt lat="41.62000852636992931365966796875" lon="2.5373937003314495086669921875">
        <ele>208.8000030517578125</ele>
        <time>2022-05-15T06:48:32.000Z</time>
      </trkpt>
      <trkpt lat="41.62000425159931182861328125" lon="2.537344582378864288330078125">
        <ele>209.1999969482421875</ele>
        <time>2022-05-15T06:48:33.000Z</time>
      </trkpt>
      <trkpt lat="41.62000433541834354400634765625" lon="2.53729454241693019866943359375">
        <ele>209.1999969482421875</ele>
        <time>2022-05-15T06:48:34.000Z</time>
      </trkpt>
      <trkpt lat="41.62001623772084712982177734375" lon="2.53719530068337917327880859375">
        <ele>209.600006103515625</ele>
        <time>2022-05-15T06:48:36.000Z</time>
      </trkpt>
      <trkpt lat="41.6200349293649196624755859375" lon="2.5371476076543331146240234375">
        <ele>209.8000030517578125</ele>
        <time>2022-05-15T06:48:37.000Z</time>
      </trkpt>
      <trkpt lat="41.62012268789112567901611328125" lon="2.53697603009641170501708984375">
        <ele>210.600006103515625</ele>
        <time>2022-05-15T06:48:41.000Z</time>
      </trkpt>
      <trkpt lat="41.62015018053352832794189453125" lon="2.53693412058055400848388671875">
        <ele>210.600006103515625</ele>
        <time>2022-05-15T06:48:42.000Z</time>
      </trkpt>
      <trkpt lat="41.62017499096691608428955078125" lon="2.53689271397888660430908203125">
        <ele>210.8000030517578125</ele>
        <time>2022-05-15T06:48:43.000Z</time>
      </trkpt>
      <trkpt lat="41.62020047195255756378173828125" lon="2.53685432486236095428466796875">
        <ele>211</ele>
        <time>2022-05-15T06:48:44.000Z</time>
      </trkpt>
      <trkpt lat="41.620224528014659881591796875" lon="2.536816187202930450439453125">
        <ele>211</ele>
        <time>2022-05-15T06:48:45.000Z</time>
      </trkpt>
      <trkpt lat="41.62025235593318939208984375" lon="2.53677872009575366973876953125">
        <ele>211.600006103515625</ele>
        <time>2022-05-15T06:48:46.000Z</time>
      </trkpt>
      <trkpt lat="41.62041169591248035430908203125" lon="2.5365528278052806854248046875">
        <ele>213.1999969482421875</ele>
        <time>2022-05-15T06:48:52.000Z</time>
      </trkpt>
      <trkpt lat="41.62047229707241058349609375" lon="2.53648661077022552490234375">
        <ele>213.399993896484375</ele>
        <time>2022-05-15T06:48:54.000Z</time>
      </trkpt>
      <trkpt lat="41.62050582468509674072265625" lon="2.53645735792815685272216796875">
        <ele>213.600006103515625</ele>
        <time>2022-05-15T06:48:55.000Z</time>
      </trkpt>
      <trkpt lat="41.6205425374209880828857421875" lon="2.53642919473350048065185546875">
        <ele>213.600006103515625</ele>
        <time>2022-05-15T06:48:56.000Z</time>
      </trkpt>
      <trkpt lat="41.62058017216622829437255859375" lon="2.53640086390078067779541015625">
        <ele>213.8000030517578125</ele>
        <time>2022-05-15T06:48:57.000Z</time>
      </trkpt>
      <trkpt lat="41.62061738781630992889404296875" lon="2.53637119196355342864990234375">
        <ele>214</ele>
        <time>2022-05-15T06:48:58.000Z</time>
      </trkpt>
      <trkpt lat="41.620688550174236297607421875" lon="2.5363177992403507232666015625">
        <ele>214.399993896484375</ele>
        <time>2022-05-15T06:49:00.000Z</time>
      </trkpt>
      <trkpt lat="41.62086658179759979248046875" lon="2.53620707429945468902587890625">
        <ele>215.1999969482421875</ele>
        <time>2022-05-15T06:49:05.000Z</time>
      </trkpt>
      <trkpt lat="41.62090270780026912689208984375" lon="2.53618947230279445648193359375">
        <ele>215.600006103515625</ele>
        <time>2022-05-15T06:49:06.000Z</time>
      </trkpt>
      <trkpt lat="41.62093891762197017669677734375" lon="2.5361719541251659393310546875">
        <ele>216</ele>
        <time>2022-05-15T06:49:07.000Z</time>
      </trkpt>
      <trkpt lat="41.62114343605935573577880859375" lon="2.53608603961765766143798828125">
        <ele>217</ele>
        <time>2022-05-15T06:49:13.000Z</time>
      </trkpt>
      <trkpt lat="41.62117294035851955413818359375" lon="2.5360723771154880523681640625">
        <ele>217.1999969482421875</ele>
        <time>2022-05-15T06:49:14.000Z</time>
      </trkpt>
      <trkpt lat="41.62125441245734691619873046875" lon="2.5360113568603992462158203125">
        <ele>218.1999969482421875</ele>
        <time>2022-05-15T06:49:17.000Z</time>
      </trkpt>
      <trkpt lat="41.6212771274149417877197265625" lon="2.53597699105739593505859375">
        <ele>218.399993896484375</ele>
        <time>2022-05-15T06:49:18.000Z</time>
      </trkpt>
      <trkpt lat="41.621328927576541900634765625" lon="2.53584162332117557525634765625">
        <ele>218.8000030517578125</ele>
        <time>2022-05-15T06:49:21.000Z</time>
      </trkpt>
      <trkpt lat="41.62134527228772640228271484375" lon="2.53573425114154815673828125">
        <ele>219</ele>
        <time>2022-05-15T06:49:23.000Z</time>
      </trkpt>
      <trkpt lat="41.62133722566068172454833984375" lon="2.53557055257260799407958984375">
        <ele>219.600006103515625</ele>
        <time>2022-05-15T06:49:26.000Z</time>
      </trkpt>
      <trkpt lat="41.62131576798856258392333984375" lon="2.5354604981839656829833984375">
        <ele>220</ele>
        <time>2022-05-15T06:49:28.000Z</time>
      </trkpt>
      <trkpt lat="41.62125944159924983978271484375" lon="2.53508943133056163787841796875">
        <ele>222</ele>
        <time>2022-05-15T06:49:35.000Z</time>
      </trkpt>
      <trkpt lat="41.62127838470041751861572265625" lon="2.53498951904475688934326171875">
        <ele>222.1999969482421875</ele>
        <time>2022-05-15T06:49:37.000Z</time>
      </trkpt>
      <trkpt lat="41.62134577520191669464111328125" lon="2.53481291234493255615234375">
        <ele>222.600006103515625</ele>
        <time>2022-05-15T06:49:41.000Z</time>
      </trkpt>
      <trkpt lat="41.6214095614850521087646484375" lon="2.5346953980624675750732421875">
        <ele>223.1999969482421875</ele>
        <time>2022-05-15T06:49:44.000Z</time>
      </trkpt>
      <trkpt lat="41.62152414210140705108642578125" lon="2.53450102172791957855224609375">
        <ele>224.600006103515625</ele>
        <time>2022-05-15T06:49:49.000Z</time>
      </trkpt>
      <trkpt lat="41.62157024256885051727294921875" lon="2.53442239947617053985595703125">
        <ele>225.399993896484375</ele>
        <time>2022-05-15T06:49:51.000Z</time>
      </trkpt>
      <trkpt lat="41.62171608768403530120849609375" lon="2.5341827608644962310791015625">
        <ele>226.8000030517578125</ele>
        <time>2022-05-15T06:49:57.000Z</time>
      </trkpt>
      <trkpt lat="41.62185019813477993011474609375" lon="2.534073628485202789306640625">
        <ele>227.600006103515625</ele>
        <time>2022-05-15T06:50:01.000Z</time>
      </trkpt>
      <trkpt lat="41.62188640795648097991943359375" lon="2.53405711613595485687255859375">
        <ele>227.8000030517578125</ele>
        <time>2022-05-15T06:50:02.000Z</time>
      </trkpt>
      <trkpt lat="41.622117497026920318603515625" lon="2.53403842449188232421875">
        <ele>228.8000030517578125</ele>
        <time>2022-05-15T06:50:08.000Z</time>
      </trkpt>
      <trkpt lat="41.62222553975880146026611328125" lon="2.53404705785214900970458984375">
        <ele>229.8000030517578125</ele>
        <time>2022-05-15T06:50:11.000Z</time>
      </trkpt>
      <trkpt lat="41.62229217588901519775390625" lon="2.53404982388019561767578125">
        <ele>230</ele>
        <time>2022-05-15T06:50:13.000Z</time>
      </trkpt>
      <trkpt lat="41.62232696078717708587646484375" lon="2.53404370509088039398193359375">
        <ele>230.1999969482421875</ele>
        <time>2022-05-15T06:50:14.000Z</time>
      </trkpt>
      <trkpt lat="41.62236199714243412017822265625" lon="2.534034065902233123779296875">
        <ele>230.399993896484375</ele>
        <time>2022-05-15T06:50:15.000Z</time>
      </trkpt>
      <trkpt lat="41.622397117316722869873046875" lon="2.53402073867619037628173828125">
        <ele>230.600006103515625</ele>
        <time>2022-05-15T06:50:16.000Z</time>
      </trkpt>
      <trkpt lat="41.6225196607410907745361328125" lon="2.533912695944309234619140625">
        <ele>231.600006103515625</ele>
        <time>2022-05-15T06:50:20.000Z</time>
      </trkpt>
      <trkpt lat="41.622536592185497283935546875" lon="2.5338702835142612457275390625">
        <ele>231.8000030517578125</ele>
        <time>2022-05-15T06:50:21.000Z</time>
      </trkpt>
      <trkpt lat="41.62254371680319309234619140625" lon="2.53372888080775737762451171875">
        <ele>232.8000030517578125</ele>
        <time>2022-05-15T06:50:24.000Z</time>
      </trkpt>
      <trkpt lat="41.6224710457026958465576171875" lon="2.53351061604917049407958984375">
        <ele>234</ele>
        <time>2022-05-15T06:50:29.000Z</time>
      </trkpt>
      <trkpt lat="41.6224479116499423980712890625" lon="2.53346803598105907440185546875">
        <ele>234.1999969482421875</ele>
        <time>2022-05-15T06:50:30.000Z</time>
      </trkpt>
      <trkpt lat="41.6223691217601299285888671875" lon="2.5332446582615375518798828125">
        <ele>235.1999969482421875</ele>
        <time>2022-05-15T06:50:35.000Z</time>
      </trkpt>
      <trkpt lat="41.622363589704036712646484375" lon="2.5331967137753963470458984375">
        <ele>235.399993896484375</ele>
        <time>2022-05-15T06:50:36.000Z</time>
      </trkpt>
      <trkpt lat="41.62240390665829181671142578125" lon="2.53297635354101657867431640625">
        <ele>236</ele>
        <time>2022-05-15T06:50:41.000Z</time>
      </trkpt>
      <trkpt lat="41.622420586645603179931640625" lon="2.53293913789093494415283203125">
        <ele>236.1999969482421875</ele>
        <time>2022-05-15T06:50:42.000Z</time>
      </trkpt>
      <trkpt lat="41.622480265796184539794921875" lon="2.53283587284386157989501953125">
        <ele>237.399993896484375</ele>
        <time>2022-05-15T06:50:45.000Z</time>
      </trkpt>
      <trkpt lat="41.62256433628499507904052734375" lon="2.53270209766924381256103515625">
        <ele>238.399993896484375</ele>
        <time>2022-05-15T06:50:49.000Z</time>
      </trkpt>
      <trkpt lat="41.622584871947765350341796875" lon="2.53266756422817707061767578125">
        <ele>238.8000030517578125</ele>
        <time>2022-05-15T06:50:50.000Z</time>
      </trkpt>
      <trkpt lat="41.62270179949700832366943359375" lon="2.5324624590575695037841796875">
        <ele>240.600006103515625</ele>
        <time>2022-05-15T06:50:56.000Z</time>
      </trkpt>
      <trkpt lat="41.62280716001987457275390625" lon="2.53231133334338665008544921875">
        <ele>241.600006103515625</ele>
        <time>2022-05-15T06:51:01.000Z</time>
      </trkpt>
      <trkpt lat="41.62283800542354583740234375" lon="2.532254755496978759765625">
        <ele>242.1999969482421875</ele>
        <time>2022-05-15T06:51:03.000Z</time>
      </trkpt>
      <trkpt lat="41.622927524149417877197265625" lon="2.5320986844599246978759765625">
        <ele>243</ele>
        <time>2022-05-15T06:51:08.000Z</time>
      </trkpt>
      <trkpt lat="41.622993238270282745361328125" lon="2.5320111773908138275146484375">
        <ele>244</ele>
        <time>2022-05-15T06:51:11.000Z</time>
      </trkpt>
      <trkpt lat="41.62303791381418704986572265625" lon="2.5319582037627696990966796875">
        <ele>244.399993896484375</ele>
        <time>2022-05-15T06:51:13.000Z</time>
      </trkpt>
      <trkpt lat="41.6230611316859722137451171875" lon="2.5319297052919864654541015625">
        <ele>244.399993896484375</ele>
        <time>2022-05-15T06:51:14.000Z</time>
      </trkpt>
      <trkpt lat="41.6230829246342182159423828125" lon="2.5318995304405689239501953125">
        <ele>244.8000030517578125</ele>
        <time>2022-05-15T06:51:15.000Z</time>
      </trkpt>
      <trkpt lat="41.62314671091735363006591796875" lon="2.5318056531250476837158203125">
        <ele>245.1999969482421875</ele>
        <time>2022-05-15T06:51:18.000Z</time>
      </trkpt>
      <trkpt lat="41.62316925823688507080078125" lon="2.5317721255123615264892578125">
        <ele>245.600006103515625</ele>
        <time>2022-05-15T06:51:19.000Z</time>
      </trkpt>
      <trkpt lat="41.62319004535675048828125" lon="2.53173985518515110015869140625">
        <ele>245.600006103515625</ele>
        <time>2022-05-15T06:51:20.000Z</time>
      </trkpt>
      <trkpt lat="41.623313091695308685302734375" lon="2.53158663399517536163330078125">
        <ele>246.8000030517578125</ele>
        <time>2022-05-15T06:51:25.000Z</time>
      </trkpt>
      <trkpt lat="41.6234259121119976043701171875" lon="2.53144917078316211700439453125">
        <ele>248.1999969482421875</ele>
        <time>2022-05-15T06:51:30.000Z</time>
      </trkpt>
      <trkpt lat="41.623453237116336822509765625" lon="2.531422935426235198974609375">
        <ele>248.1999969482421875</ele>
        <time>2022-05-15T06:51:31.000Z</time>
      </trkpt>
      <trkpt lat="41.6234778799116611480712890625" lon="2.53139519132673740386962890625">
        <ele>248.600006103515625</ele>
        <time>2022-05-15T06:51:32.000Z</time>
      </trkpt>
      <trkpt lat="41.62352875806391239166259765625" lon="2.5313419662415981292724609375">
        <ele>249</ele>
        <time>2022-05-15T06:51:34.000Z</time>
      </trkpt>
      <trkpt lat="41.6236022673547267913818359375" lon="2.5312614999711513519287109375">
        <ele>249.399993896484375</ele>
        <time>2022-05-15T06:51:37.000Z</time>
      </trkpt>
      <trkpt lat="41.62367351353168487548828125" lon="2.53117709420621395111083984375">
        <ele>250.1999969482421875</ele>
        <time>2022-05-15T06:51:40.000Z</time>
      </trkpt>
      <trkpt lat="41.623720116913318634033203125" lon="2.53111775033175945281982421875">
        <ele>250.600006103515625</ele>
        <time>2022-05-15T06:51:42.000Z</time>
      </trkpt>
      <trkpt lat="41.62382111884653568267822265625" lon="2.53092278726398944854736328125">
        <ele>251.600006103515625</ele>
        <time>2022-05-15T06:51:47.000Z</time>
      </trkpt>
      <trkpt lat="41.62377233617007732391357421875" lon="2.53075984306633472442626953125">
        <ele>252.600006103515625</ele>
        <time>2022-05-15T06:51:51.000Z</time>
      </trkpt>
      <trkpt lat="41.62371131591498851776123046875" lon="2.53072413615882396697998046875">
        <ele>253</ele>
        <time>2022-05-15T06:51:53.000Z</time>
      </trkpt>
      <trkpt lat="41.62364459596574306488037109375" lon="2.53071206621825695037841796875">
        <ele>253.399993896484375</ele>
        <time>2022-05-15T06:51:55.000Z</time>
      </trkpt>
      <trkpt lat="41.62357586435973644256591796875" lon="2.53070200793445110321044921875">
        <ele>253.8000030517578125</ele>
        <time>2022-05-15T06:51:57.000Z</time>
      </trkpt>
      <trkpt lat="41.6234041191637516021728515625" lon="2.530647777020931243896484375">
        <ele>255</ele>
        <time>2022-05-15T06:52:02.000Z</time>
      </trkpt>
      <trkpt lat="41.62335223518311977386474609375" lon="2.53061533905565738677978515625">
        <ele>255.399993896484375</ele>
        <time>2022-05-15T06:52:04.000Z</time>
      </trkpt>
      <trkpt lat="41.623262129724025726318359375" lon="2.53051559440791606903076171875">
        <ele>256.399993896484375</ele>
        <time>2022-05-15T06:52:08.000Z</time>
      </trkpt>
      <trkpt lat="41.6232405044138431549072265625" lon="2.5304930470883846282958984375">
        <ele>256.399993896484375</ele>
        <time>2022-05-15T06:52:09.000Z</time>
      </trkpt>
      <trkpt lat="41.6231144405901432037353515625" lon="2.53039992414414882659912109375">
        <ele>257.20001220703125</ele>
        <time>2022-05-15T06:52:14.000Z</time>
      </trkpt>
      <trkpt lat="41.62307982333004474639892578125" lon="2.53039531409740447998046875">
        <ele>257.79998779296875</ele>
        <time>2022-05-15T06:52:15.000Z</time>
      </trkpt>
      <trkpt lat="41.622962057590484619140625" lon="2.53044200129806995391845703125">
        <ele>258.600006103515625</ele>
        <time>2022-05-15T06:52:19.000Z</time>
      </trkpt>
      <trkpt lat="41.6229001991450786590576171875" lon="2.530468404293060302734375">
        <ele>259</ele>
        <time>2022-05-15T06:52:21.000Z</time>
      </trkpt>
      <trkpt lat="41.62277673371136188507080078125" lon="2.53052481450140476226806640625">
        <ele>259.79998779296875</ele>
        <time>2022-05-15T06:52:25.000Z</time>
      </trkpt>
      <trkpt lat="41.622743122279644012451171875" lon="2.53052649088203907012939453125">
        <ele>260.20001220703125</ele>
        <time>2022-05-15T06:52:26.000Z</time>
      </trkpt>
      <trkpt lat="41.6226038150489330291748046875" lon="2.53050134517252445220947265625">
        <ele>260.600006103515625</ele>
        <time>2022-05-15T06:52:30.000Z</time>
      </trkpt>
      <trkpt lat="41.62247749976813793182373046875" lon="2.53046681173145771026611328125">
        <ele>261.399993896484375</ele>
        <time>2022-05-15T06:52:34.000Z</time>
      </trkpt>
      <trkpt lat="41.6223706305027008056640625" lon="2.5304276682436466217041015625">
        <ele>262.399993896484375</ele>
        <time>2022-05-15T06:52:37.000Z</time>
      </trkpt>
      <trkpt lat="41.6222762502729892730712890625" lon="2.53038735128939151763916015625">
        <ele>263</ele>
        <time>2022-05-15T06:52:40.000Z</time>
      </trkpt>
      <trkpt lat="41.62221447564661502838134765625" lon="2.53037008456885814666748046875">
        <ele>263.399993896484375</ele>
        <time>2022-05-15T06:52:42.000Z</time>
      </trkpt>
      <trkpt lat="41.62208103574812412261962890625" lon="2.530337981879711151123046875">
        <ele>264.20001220703125</ele>
        <time>2022-05-15T06:52:46.000Z</time>
      </trkpt>
      <trkpt lat="41.621906273066997528076171875" lon="2.53029431216418743133544921875">
        <ele>265</ele>
        <time>2022-05-15T06:52:51.000Z</time>
      </trkpt>
      <trkpt lat="41.621873416006565093994140625" lon="2.53029112704098224639892578125">
        <ele>265.399993896484375</ele>
        <time>2022-05-15T06:52:52.000Z</time>
      </trkpt>
      <trkpt lat="41.62173687480390071868896484375" lon="2.530286349356174468994140625">
        <ele>266</ele>
        <time>2022-05-15T06:52:56.000Z</time>
      </trkpt>
      <trkpt lat="41.62163612432777881622314453125" lon="2.53029347397387027740478515625">
        <ele>266.79998779296875</ele>
        <time>2022-05-15T06:52:59.000Z</time>
      </trkpt>
      <trkpt lat="41.62154090590775012969970703125" lon="2.53031694330275058746337890625">
        <ele>267.600006103515625</ele>
        <time>2022-05-15T06:53:02.000Z</time>
      </trkpt>
      <trkpt lat="41.6214132495224475860595703125" lon="2.53034695051610469818115234375">
        <ele>268.600006103515625</ele>
        <time>2022-05-15T06:53:06.000Z</time>
      </trkpt>
      <trkpt lat="41.621378548443317413330078125" lon="2.53034510649740695953369140625">
        <ele>268.79998779296875</ele>
        <time>2022-05-15T06:53:07.000Z</time>
      </trkpt>
      <trkpt lat="41.62122792564332485198974609375" lon="2.53025927580893039703369140625">
        <ele>269.600006103515625</ele>
        <time>2022-05-15T06:53:12.000Z</time>
      </trkpt>
      <trkpt lat="41.62120495922863483428955078125" lon="2.53018333576619625091552734375">
        <ele>269.79998779296875</ele>
        <time>2022-05-15T06:53:14.000Z</time>
      </trkpt>
      <trkpt lat="41.6212114132940769195556640625" lon="2.53010622225701808929443359375">
        <ele>270.20001220703125</ele>
        <time>2022-05-15T06:53:16.000Z</time>
      </trkpt>
      <trkpt lat="41.62125592119991779327392578125" lon="2.5299968384206295013427734375">
        <ele>271</ele>
        <time>2022-05-15T06:53:19.000Z</time>
      </trkpt>
      <trkpt lat="41.62128995172679424285888671875" lon="2.52992869354784488677978515625">
        <ele>271.399993896484375</ele>
        <time>2022-05-15T06:53:21.000Z</time>
      </trkpt>
      <trkpt lat="41.6213512234389781951904296875" lon="2.5298302061855792999267578125">
        <ele>272.20001220703125</ele>
        <time>2022-05-15T06:53:24.000Z</time>
      </trkpt>
      <trkpt lat="41.62143462337553501129150390625" lon="2.529692240059375762939453125">
        <ele>273.399993896484375</ele>
        <time>2022-05-15T06:53:28.000Z</time>
      </trkpt>
      <trkpt lat="41.6215594299137592315673828125" lon="2.52945511601865291595458984375">
        <ele>274.600006103515625</ele>
        <time>2022-05-15T06:53:35.000Z</time>
      </trkpt>
      <trkpt lat="41.62164936773478984832763671875" lon="2.52930323593318462371826171875">
        <ele>275.79998779296875</ele>
        <time>2022-05-15T06:53:40.000Z</time>
      </trkpt>
      <trkpt lat="41.6216911934316158294677734375" lon="2.52923986874520778656005859375">
        <ele>276.20001220703125</ele>
        <time>2022-05-15T06:53:42.000Z</time>
      </trkpt>
      <trkpt lat="41.62185925059020519256591796875" lon="2.52901607193052768707275390625">
        <ele>277</ele>
        <time>2022-05-15T06:53:49.000Z</time>
      </trkpt>
      <trkpt lat="41.62191825918853282928466796875" lon="2.5289628468453884124755859375">
        <ele>277.399993896484375</ele>
        <time>2022-05-15T06:53:51.000Z</time>
      </trkpt>
      <trkpt lat="41.622004173696041107177734375" lon="2.52889302559196949005126953125">
        <ele>277.600006103515625</ele>
        <time>2022-05-15T06:53:54.000Z</time>
      </trkpt>
      <trkpt lat="41.62202822975814342498779296875" lon="2.5288709811866283416748046875">
        <ele>278</ele>
        <time>2022-05-15T06:53:55.000Z</time>
      </trkpt>
      <trkpt lat="41.62213769741356372833251953125" lon="2.52879202365875244140625">
        <ele>278.399993896484375</ele>
        <time>2022-05-15T06:53:59.000Z</time>
      </trkpt>
      <trkpt lat="41.6221656091511249542236328125" lon="2.52876964397728443145751953125">
        <ele>278.79998779296875</ele>
        <time>2022-05-15T06:54:00.000Z</time>
      </trkpt>
      <trkpt lat="41.622253619134426116943359375" lon="2.5287056900560855865478515625">
        <ele>279.79998779296875</ele>
        <time>2022-05-15T06:54:03.000Z</time>
      </trkpt>
      <trkpt lat="41.622318662703037261962890625" lon="2.52866973169147968292236328125">
        <ele>280.399993896484375</ele>
        <time>2022-05-15T06:54:05.000Z</time>
      </trkpt>
      <trkpt lat="41.622351519763469696044921875" lon="2.52865615300834178924560546875">
        <ele>280.600006103515625</ele>
        <time>2022-05-15T06:54:06.000Z</time>
      </trkpt>
      <trkpt lat="41.622454114258289337158203125" lon="2.5286393053829669952392578125">
        <ele>281</ele>
        <time>2022-05-15T06:54:09.000Z</time>
      </trkpt>
      <trkpt lat="41.62251790054142475128173828125" lon="2.52864324487745761871337890625">
        <ele>281.399993896484375</ele>
        <time>2022-05-15T06:54:11.000Z</time>
      </trkpt>
      <trkpt lat="41.62260574288666248321533203125" lon="2.52867694012820720672607421875">
        <ele>281.79998779296875</ele>
        <time>2022-05-15T06:54:14.000Z</time>
      </trkpt>
      <trkpt lat="41.62263306789100170135498046875" lon="2.5286989845335483551025390625">
        <ele>281.79998779296875</ele>
        <time>2022-05-15T06:54:15.000Z</time>
      </trkpt>
      <trkpt lat="41.622688136994838714599609375" lon="2.5287506170570850372314453125">
        <ele>282</ele>
        <time>2022-05-15T06:54:17.000Z</time>
      </trkpt>
      <trkpt lat="41.62271194159984588623046875" lon="2.52878121100366115570068359375">
        <ele>282.20001220703125</ele>
        <time>2022-05-15T06:54:18.000Z</time>
      </trkpt>
      <trkpt lat="41.62279634736478328704833984375" lon="2.52890610136091709136962890625">
        <ele>283.600006103515625</ele>
        <time>2022-05-15T06:54:22.000Z</time>
      </trkpt>
      <trkpt lat="41.62290732376277446746826171875" lon="2.52906988374888896942138671875">
        <ele>284.79998779296875</ele>
        <time>2022-05-15T06:54:27.000Z</time>
      </trkpt>
      <trkpt lat="41.62293079309165477752685546875" lon="2.52910408191382884979248046875">
        <ele>285</ele>
        <time>2022-05-15T06:54:28.000Z</time>
      </trkpt>
      <trkpt lat="41.6230225749313831329345703125" lon="2.52924372442066669464111328125">
        <ele>285.79998779296875</ele>
        <time>2022-05-15T06:54:32.000Z</time>
      </trkpt>
      <trkpt lat="41.62306875921785831451416015625" lon="2.52931245602667331695556640625">
        <ele>285.79998779296875</ele>
        <time>2022-05-15T06:54:34.000Z</time>
      </trkpt>
      <trkpt lat="41.62313883192837238311767578125" lon="2.5294141285121440887451171875">
        <ele>286.600006103515625</ele>
        <time>2022-05-15T06:54:37.000Z</time>
      </trkpt>
      <trkpt lat="41.62316028960049152374267578125" lon="2.52944958396255970001220703125">
        <ele>287</ele>
        <time>2022-05-15T06:54:38.000Z</time>
      </trkpt>
      <trkpt lat="41.623183675110340118408203125" lon="2.52948462031781673431396484375">
        <ele>287</ele>
        <time>2022-05-15T06:54:39.000Z</time>
      </trkpt>
      <trkpt lat="41.62320722825825214385986328125" lon="2.529518567025661468505859375">
        <ele>287.20001220703125</ele>
        <time>2022-05-15T06:54:40.000Z</time>
      </trkpt>
      <trkpt lat="41.6233685798943042755126953125" lon="2.52967916429042816162109375">
        <ele>288.600006103515625</ele>
        <time>2022-05-15T06:54:46.000Z</time>
      </trkpt>
      <trkpt lat="41.6235191188752651214599609375" lon="2.52974043600261211395263671875">
        <ele>289.600006103515625</ele>
        <time>2022-05-15T06:54:51.000Z</time>
      </trkpt>
      <trkpt lat="41.62358642555773258209228515625" lon="2.529747895896434783935546875">
        <ele>290</ele>
        <time>2022-05-15T06:54:53.000Z</time>
      </trkpt>
      <trkpt lat="41.623620875179767608642578125" lon="2.529749907553195953369140625">
        <ele>290.20001220703125</ele>
        <time>2022-05-15T06:54:54.000Z</time>
      </trkpt>
      <trkpt lat="41.62381567060947418212890625" lon="2.52973356284201145172119140625">
        <ele>291.399993896484375</ele>
        <time>2022-05-15T06:55:00.000Z</time>
      </trkpt>
      <trkpt lat="41.6238490305840969085693359375" lon="2.52972618676722049713134765625">
        <ele>291.600006103515625</ele>
        <time>2022-05-15T06:55:01.000Z</time>
      </trkpt>
      <trkpt lat="41.623951457440853118896484375" lon="2.52971059642732143402099609375">
        <ele>292.20001220703125</ele>
        <time>2022-05-15T06:55:04.000Z</time>
      </trkpt>
      <trkpt lat="41.6240515373647212982177734375" lon="2.52968989312648773193359375">
        <ele>292.79998779296875</ele>
        <time>2022-05-15T06:55:07.000Z</time>
      </trkpt>
      <trkpt lat="41.6241140663623809814453125" lon="2.52966969273984432220458984375">
        <ele>293.20001220703125</ele>
        <time>2022-05-15T06:55:09.000Z</time>
      </trkpt>
      <trkpt lat="41.6242704726755619049072265625" lon="2.52962409518659114837646484375">
        <ele>294.20001220703125</ele>
        <time>2022-05-15T06:55:14.000Z</time>
      </trkpt>
      <trkpt lat="41.62429980933666229248046875" lon="2.52961286343634128570556640625">
        <ele>294.399993896484375</ele>
        <time>2022-05-15T06:55:15.000Z</time>
      </trkpt>
      <trkpt lat="41.6244810260832309722900390625" lon="2.52951814793050289154052734375">
        <ele>295.79998779296875</ele>
        <time>2022-05-15T06:55:21.000Z</time>
      </trkpt>
      <trkpt lat="41.62450826726853847503662109375" lon="2.52949836663901805877685546875">
        <ele>296</ele>
        <time>2022-05-15T06:55:22.000Z</time>
      </trkpt>
      <trkpt lat="41.6245933435857295989990234375" lon="2.52943868748843669891357421875">
        <ele>296.79998779296875</ele>
        <time>2022-05-15T06:55:25.000Z</time>
      </trkpt>
      <trkpt lat="41.624621339142322540283203125" lon="2.52941588871181011199951171875">
        <ele>297</ele>
        <time>2022-05-15T06:55:26.000Z</time>
      </trkpt>
      <trkpt lat="41.62468194030225276947021484375" lon="2.52937473356723785400390625">
        <ele>297.399993896484375</ele>
        <time>2022-05-15T06:55:28.000Z</time>
      </trkpt>
      <trkpt lat="41.62471110932528972625732421875" lon="2.529354281723499298095703125">
        <ele>297.399993896484375</ele>
        <time>2022-05-15T06:55:29.000Z</time>
      </trkpt>
      <trkpt lat="41.6247375123202800750732421875" lon="2.5293323211371898651123046875">
        <ele>297.600006103515625</ele>
        <time>2022-05-15T06:55:30.000Z</time>
      </trkpt>
      <trkpt lat="41.62484656088054180145263671875" lon="2.52925026230514049530029296875">
        <ele>298.600006103515625</ele>
        <time>2022-05-15T06:55:34.000Z</time>
      </trkpt>
      <trkpt lat="41.624872796237468719482421875" lon="2.52923282794654369354248046875">
        <ele>298.79998779296875</ele>
        <time>2022-05-15T06:55:35.000Z</time>
      </trkpt>
      <trkpt lat="41.62492744624614715576171875" lon="2.529193349182605743408203125">
        <ele>299.20001220703125</ele>
        <time>2022-05-15T06:55:37.000Z</time>
      </trkpt>
      <trkpt lat="41.62506331689655780792236328125" lon="2.52912185154855251312255859375">
        <ele>299.399993896484375</ele>
        <time>2022-05-15T06:55:42.000Z</time>
      </trkpt>
      <trkpt lat="41.6251398436725139617919921875" lon="2.52911950461566448211669921875">
        <ele>300</ele>
        <time>2022-05-15T06:55:44.000Z</time>
      </trkpt>
      <trkpt lat="41.62519943900406360626220703125" lon="2.52915051765739917755126953125">
        <ele>300.399993896484375</ele>
        <time>2022-05-15T06:55:46.000Z</time>
      </trkpt>
      <trkpt lat="41.62525861524045467376708984375" lon="2.5293598137795925140380859375">
        <ele>301.20001220703125</ele>
        <time>2022-05-15T06:55:51.000Z</time>
      </trkpt>
      <trkpt lat="41.62529214285314083099365234375" lon="2.52954010851681232452392578125">
        <ele>302</ele>
        <time>2022-05-15T06:55:55.000Z</time>
      </trkpt>
      <trkpt lat="41.625328771770000457763671875" lon="2.52962191589176654815673828125">
        <ele>302.399993896484375</ele>
        <time>2022-05-15T06:55:57.000Z</time>
      </trkpt>
      <trkpt lat="41.62547319196164608001708984375" lon="2.52974211238324642181396484375">
        <ele>303.600006103515625</ele>
        <time>2022-05-15T06:56:02.000Z</time>
      </trkpt>
      <trkpt lat="41.6255371458828449249267578125" lon="2.5297509133815765380859375">
        <ele>304.20001220703125</ele>
        <time>2022-05-15T06:56:04.000Z</time>
      </trkpt>
      <trkpt lat="41.62563881836831569671630859375" lon="2.5297460518777370452880859375">
        <ele>304.600006103515625</ele>
        <time>2022-05-15T06:56:07.000Z</time>
      </trkpt>
      <trkpt lat="41.6256724298000335693359375" lon="2.52973842434585094451904296875">
        <ele>304.79998779296875</ele>
        <time>2022-05-15T06:56:08.000Z</time>
      </trkpt>
      <trkpt lat="41.625783741474151611328125" lon="2.5297321379184722900390625">
        <ele>305.399993896484375</ele>
        <time>2022-05-15T06:56:11.000Z</time>
      </trkpt>
      <trkpt lat="41.62581835873425006866455078125" lon="2.5297426991164684295654296875">
        <ele>305.600006103515625</ele>
        <time>2022-05-15T06:56:12.000Z</time>
      </trkpt>
      <trkpt lat="41.62584752775728702545166015625" lon="2.529761977493762969970703125">
        <ele>305.79998779296875</ele>
        <time>2022-05-15T06:56:13.000Z</time>
      </trkpt>
      <trkpt lat="41.62589513696730136871337890625" lon="2.52982391975820064544677734375">
        <ele>306.20001220703125</ele>
        <time>2022-05-15T06:56:15.000Z</time>
      </trkpt>
      <trkpt lat="41.6259139962494373321533203125" lon="2.52986113540828227996826171875">
        <ele>306.399993896484375</ele>
        <time>2022-05-15T06:56:16.000Z</time>
      </trkpt>
      <trkpt lat="41.6259299218654632568359375" lon="2.530028522014617919921875">
        <ele>307</ele>
        <time>2022-05-15T06:56:20.000Z</time>
      </trkpt>
      <trkpt lat="41.6258895210921764373779296875" lon="2.5302452780306339263916015625">
        <ele>308</ele>
        <time>2022-05-15T06:56:25.000Z</time>
      </trkpt>
      <trkpt lat="41.625869572162628173828125" lon="2.530328929424285888671875">
        <ele>308.399993896484375</ele>
        <time>2022-05-15T06:56:27.000Z</time>
      </trkpt>
      <trkpt lat="41.6258308477699756622314453125" lon="2.53053453750908374786376953125">
        <ele>309.79998779296875</ele>
        <time>2022-05-15T06:56:32.000Z</time>
      </trkpt>
      <trkpt lat="41.6258063726127147674560546875" lon="2.530708126723766326904296875">
        <ele>310.600006103515625</ele>
        <time>2022-05-15T06:56:36.000Z</time>
      </trkpt>
      <trkpt lat="41.6257912851870059967041015625" lon="2.5308839790523052215576171875">
        <ele>311.399993896484375</ele>
        <time>2022-05-15T06:56:40.000Z</time>
      </trkpt>
      <trkpt lat="41.62579338066279888153076171875" lon="2.53092798404395580291748046875">
        <ele>311.600006103515625</ele>
        <time>2022-05-15T06:56:41.000Z</time>
      </trkpt>
      <trkpt lat="41.62580897100269794464111328125" lon="2.53101222217082977294921875">
        <ele>312</ele>
        <time>2022-05-15T06:56:43.000Z</time>
      </trkpt>
      <trkpt lat="41.6258234716951847076416015625" lon="2.5310512818396091461181640625">
        <ele>312.20001220703125</ele>
        <time>2022-05-15T06:56:44.000Z</time>
      </trkpt>
      <trkpt lat="41.62586756050586700439453125" lon="2.531117834150791168212890625">
        <ele>312.399993896484375</ele>
        <time>2022-05-15T06:56:46.000Z</time>
      </trkpt>
      <trkpt lat="41.62589429877698421478271484375" lon="2.53114691935479640960693359375">
        <ele>312.79998779296875</ele>
        <time>2022-05-15T06:56:47.000Z</time>
      </trkpt>
      <trkpt lat="41.6260206140577793121337890625" lon="2.5312006473541259765625">
        <ele>313.79998779296875</ele>
        <time>2022-05-15T06:56:51.000Z</time>
      </trkpt>
      <trkpt lat="41.62605263292789459228515625" lon="2.53120341338217258453369140625">
        <ele>314</ele>
        <time>2022-05-15T06:56:52.000Z</time>
      </trkpt>
      <trkpt lat="41.62618095986545085906982421875" lon="2.5311833806335926055908203125">
        <ele>314.79998779296875</ele>
        <time>2022-05-15T06:56:56.000Z</time>
      </trkpt>
      <trkpt lat="41.6262120567262172698974609375" lon="2.53117323853075504302978515625">
        <ele>315.20001220703125</ele>
        <time>2022-05-15T06:56:57.000Z</time>
      </trkpt>
      <trkpt lat="41.62624181248247623443603515625" lon="2.5311622582376003265380859375">
        <ele>315.20001220703125</ele>
        <time>2022-05-15T06:56:58.000Z</time>
      </trkpt>
      <trkpt lat="41.62641447968780994415283203125" lon="2.5311129726469516754150390625">
        <ele>316.600006103515625</ele>
        <time>2022-05-15T06:57:04.000Z</time>
      </trkpt>
      <trkpt lat="41.62644498981535434722900390625" lon="2.53110785968601703643798828125">
        <ele>317</ele>
        <time>2022-05-15T06:57:05.000Z</time>
      </trkpt>
      <trkpt lat="41.6265775077044963836669921875" lon="2.531058155000209808349609375">
        <ele>317.600006103515625</ele>
        <time>2022-05-15T06:57:10.000Z</time>
      </trkpt>
      <trkpt lat="41.62663173861801624298095703125" lon="2.5310412235558032989501953125">
        <ele>318</ele>
        <time>2022-05-15T06:57:12.000Z</time>
      </trkpt>
      <trkpt lat="41.626722514629364013671875" lon="2.531003840267658233642578125">
        <ele>318.79998779296875</ele>
        <time>2022-05-15T06:57:15.000Z</time>
      </trkpt>
      <trkpt lat="41.62675377912819385528564453125" lon="2.53099185414612293243408203125">
        <ele>319</ele>
        <time>2022-05-15T06:57:16.000Z</time>
      </trkpt>
      <trkpt lat="41.62678060121834278106689453125" lon="2.53098137676715850830078125">
        <ele>319.20001220703125</ele>
        <time>2022-05-15T06:57:17.000Z</time>
      </trkpt>
      <trkpt lat="41.626836843788623809814453125" lon="2.5309540517628192901611328125">
        <ele>319.399993896484375</ele>
        <time>2022-05-15T06:57:19.000Z</time>
      </trkpt>
      <trkpt lat="41.6268685273826122283935546875" lon="2.53093955107033252716064453125">
        <ele>319.600006103515625</ele>
        <time>2022-05-15T06:57:20.000Z</time>
      </trkpt>
      <trkpt lat="41.62691630423069000244140625" lon="2.5309203565120697021484375">
        <ele>320</ele>
        <time>2022-05-15T06:57:22.000Z</time>
      </trkpt>
      <trkpt lat="41.626943461596965789794921875" lon="2.53091038204729557037353515625">
        <ele>320.20001220703125</ele>
        <time>2022-05-15T06:57:23.000Z</time>
      </trkpt>
      <trkpt lat="41.62697170861065387725830078125" lon="2.53090334124863147735595703125">
        <ele>320.399993896484375</ele>
        <time>2022-05-15T06:57:24.000Z</time>
      </trkpt>
      <trkpt lat="41.62703004665672779083251953125" lon="2.53088875673711299896240234375">
        <ele>320.600006103515625</ele>
        <time>2022-05-15T06:57:26.000Z</time>
      </trkpt>
      <trkpt lat="41.627057455480098724365234375" lon="2.53087945282459259033203125">
        <ele>321</ele>
        <time>2022-05-15T06:57:27.000Z</time>
      </trkpt>
      <trkpt lat="41.62709274329245090484619140625" lon="2.53087081946432590484619140625">
        <ele>321.20001220703125</ele>
        <time>2022-05-15T06:57:28.000Z</time>
      </trkpt>
      <trkpt lat="41.62712325341999530792236328125" lon="2.5308584980666637420654296875">
        <ele>321.20001220703125</ele>
        <time>2022-05-15T06:57:29.000Z</time>
      </trkpt>
      <trkpt lat="41.62715376354753971099853515625" lon="2.5308460928499698638916015625">
        <ele>321.20001220703125</ele>
        <time>2022-05-15T06:57:30.000Z</time>
      </trkpt>
      <trkpt lat="41.627246551215648651123046875" lon="2.530818767845630645751953125">
        <ele>322.20001220703125</ele>
        <time>2022-05-15T06:57:33.000Z</time>
      </trkpt>
      <trkpt lat="41.62727840244770050048828125" lon="2.5308155827224254608154296875">
        <ele>322.399993896484375</ele>
        <time>2022-05-15T06:57:34.000Z</time>
      </trkpt>
      <trkpt lat="41.62742055952548980712890625" lon="2.53082538954913616180419921875">
        <ele>323</ele>
        <time>2022-05-15T06:57:38.000Z</time>
      </trkpt>
      <trkpt lat="41.6274901293218135833740234375" lon="2.53083427436649799346923828125">
        <ele>323.20001220703125</ele>
        <time>2022-05-15T06:57:40.000Z</time>
      </trkpt>
      <trkpt lat="41.62757470272481441497802734375" lon="2.5308085419237613677978515625">
        <ele>324</ele>
        <time>2022-05-15T06:57:43.000Z</time>
      </trkpt>
      <trkpt lat="41.62761560641229152679443359375" lon="2.5307686440646648406982421875">
        <ele>324.600006103515625</ele>
        <time>2022-05-15T06:57:45.000Z</time>
      </trkpt>
      <trkpt lat="41.62762080319225788116455078125" lon="2.53071089275181293487548828125">
        <ele>324.79998779296875</ele>
        <time>2022-05-15T06:57:47.000Z</time>
      </trkpt>
      <trkpt lat="41.6276081465184688568115234375" lon="2.53068742342293262481689453125">
        <ele>325.20001220703125</ele>
        <time>2022-05-15T06:57:48.000Z</time>
      </trkpt>
      <trkpt lat="41.6274990141391754150390625" lon="2.53061793744564056396484375">
        <ele>326</ele>
        <time>2022-05-15T06:57:53.000Z</time>
      </trkpt>
      <trkpt lat="41.627420894801616668701171875" lon="2.5305936299264430999755859375">
        <ele>327.399993896484375</ele>
        <time>2022-05-15T06:57:56.000Z</time>
      </trkpt>
      <trkpt lat="41.6273305378854274749755859375" lon="2.5305818952620029449462890625">
        <ele>328</ele>
        <time>2022-05-15T06:57:59.000Z</time>
      </trkpt>
      <trkpt lat="41.62721344269812107086181640625" lon="2.53059103153645992279052734375">
        <ele>328.600006103515625</ele>
        <time>2022-05-15T06:58:03.000Z</time>
      </trkpt>
      <trkpt lat="41.627180166542530059814453125" lon="2.530597150325775146484375">
        <ele>328.79998779296875</ele>
        <time>2022-05-15T06:58:04.000Z</time>
      </trkpt>
      <trkpt lat="41.6271504946053028106689453125" lon="2.5306033529341220855712890625">
        <ele>329</ele>
        <time>2022-05-15T06:58:05.000Z</time>
      </trkpt>
      <trkpt lat="41.627119146287441253662109375" lon="2.5306113995611667633056640625">
        <ele>329.20001220703125</ele>
        <time>2022-05-15T06:58:06.000Z</time>
      </trkpt>
      <trkpt lat="41.62706357426941394805908203125" lon="2.5306253135204315185546875">
        <ele>329.399993896484375</ele>
        <time>2022-05-15T06:58:08.000Z</time>
      </trkpt>
      <trkpt lat="41.62693382240831851959228515625" lon="2.53061835654079914093017578125">
        <ele>330</ele>
        <time>2022-05-15T06:58:12.000Z</time>
      </trkpt>
      <trkpt lat="41.62677641026675701141357421875" lon="2.5305393151938915252685546875">
        <ele>330.600006103515625</ele>
        <time>2022-05-15T06:58:17.000Z</time>
      </trkpt>
      <trkpt lat="41.62675210274755954742431640625" lon="2.5305104814469814300537109375">
        <ele>331</ele>
        <time>2022-05-15T06:58:18.000Z</time>
      </trkpt>
      <trkpt lat="41.62664674222469329833984375" lon="2.530287019908428192138671875">
        <ele>331.79998779296875</ele>
        <time>2022-05-15T06:58:24.000Z</time>
      </trkpt>
      <trkpt lat="41.62659586407244205474853515625" lon="2.52994059585034847259521484375">
        <ele>333.600006103515625</ele>
        <time>2022-05-15T06:58:32.000Z</time>
      </trkpt>
      <trkpt lat="41.62659175693988800048828125" lon="2.5298975966870784759521484375">
        <ele>334.20001220703125</ele>
        <time>2022-05-15T06:58:33.000Z</time>
      </trkpt>
      <trkpt lat="41.62658731453120708465576171875" lon="2.52981461584568023681640625">
        <ele>334.600006103515625</ele>
        <time>2022-05-15T06:58:35.000Z</time>
      </trkpt>
      <trkpt lat="41.626584716141223907470703125" lon="2.5297728739678859710693359375">
        <ele>334.79998779296875</ele>
        <time>2022-05-15T06:58:36.000Z</time>
      </trkpt>
      <trkpt lat="41.6265815310180187225341796875" lon="2.52973088063299655914306640625">
        <ele>335</ele>
        <time>2022-05-15T06:58:37.000Z</time>
      </trkpt>
      <trkpt lat="41.6265781782567501068115234375" lon="2.5296880491077899932861328125">
        <ele>335.20001220703125</ele>
        <time>2022-05-15T06:58:38.000Z</time>
      </trkpt>
      <trkpt lat="41.62657105363905429840087890625" lon="2.52952217124402523040771484375">
        <ele>335.600006103515625</ele>
        <time>2022-05-15T06:58:42.000Z</time>
      </trkpt>
      <trkpt lat="41.62656937725841999053955078125" lon="2.52940549515187740325927734375">
        <ele>336.20001220703125</ele>
        <time>2022-05-15T06:58:45.000Z</time>
      </trkpt>
      <trkpt lat="41.62653006613254547119140625" lon="2.52920307219028472900390625">
        <ele>337.600006103515625</ele>
        <time>2022-05-15T06:58:50.000Z</time>
      </trkpt>
      <trkpt lat="41.62651455961167812347412109375" lon="2.529165856540203094482421875">
        <ele>337.79998779296875</ele>
        <time>2022-05-15T06:58:51.000Z</time>
      </trkpt>
      <trkpt lat="41.62643007002770900726318359375" lon="2.5290362723171710968017578125">
        <ele>339</ele>
        <time>2022-05-15T06:58:55.000Z</time>
      </trkpt>
      <trkpt lat="41.62625304423272609710693359375" lon="2.5288481824100017547607421875">
        <ele>340.399993896484375</ele>
        <time>2022-05-15T06:59:02.000Z</time>
      </trkpt>
      <trkpt lat="41.6262209415435791015625" lon="2.528765536844730377197265625">
        <ele>341</ele>
        <time>2022-05-15T06:59:04.000Z</time>
      </trkpt>
      <trkpt lat="41.62621180526912212371826171875" lon="2.5286872498691082000732421875">
        <ele>341.20001220703125</ele>
        <time>2022-05-15T06:59:06.000Z</time>
      </trkpt>
      <trkpt lat="41.62620945833623409271240234375" lon="2.528649531304836273193359375">
        <ele>341.600006103515625</ele>
        <time>2022-05-15T06:59:07.000Z</time>
      </trkpt>
      <trkpt lat="41.626219265162944793701171875" lon="2.52849631011486053466796875">
        <ele>342.20001220703125</ele>
        <time>2022-05-15T06:59:11.000Z</time>
      </trkpt>
      <trkpt lat="41.6262201033532619476318359375" lon="2.52837452106177806854248046875">
        <ele>342.79998779296875</ele>
        <time>2022-05-15T06:59:14.000Z</time>
      </trkpt>
      <trkpt lat="41.62621892988681793212890625" lon="2.5283348746597766876220703125">
        <ele>343.20001220703125</ele>
        <time>2022-05-15T06:59:15.000Z</time>
      </trkpt>
      <trkpt lat="41.62617140449583530426025390625" lon="2.52814167179167270660400390625">
        <ele>344.79998779296875</ele>
        <time>2022-05-15T06:59:20.000Z</time>
      </trkpt>
      <trkpt lat="41.626158915460109710693359375" lon="2.52810738980770111083984375">
        <ele>345.20001220703125</ele>
        <time>2022-05-15T06:59:21.000Z</time>
      </trkpt>
      <trkpt lat="41.626060009002685546875" lon="2.52792072482407093048095703125">
        <ele>346.20001220703125</ele>
        <time>2022-05-15T06:59:27.000Z</time>
      </trkpt>
      <trkpt lat="41.62594174034893512725830078125" lon="2.5277910567820072174072265625">
        <ele>347.600006103515625</ele>
        <time>2022-05-15T06:59:32.000Z</time>
      </trkpt>
      <trkpt lat="41.625917851924896240234375" lon="2.527773790061473846435546875">
        <ele>347.79998779296875</ele>
        <time>2022-05-15T06:59:33.000Z</time>
      </trkpt>
      <trkpt lat="41.6258006729185581207275390625" lon="2.52765552140772342681884765625">
        <ele>348.600006103515625</ele>
        <time>2022-05-15T06:59:38.000Z</time>
      </trkpt>
      <trkpt lat="41.62577678449451923370361328125" lon="2.52762886695563793182373046875">
        <ele>348.79998779296875</ele>
        <time>2022-05-15T06:59:39.000Z</time>
      </trkpt>
      <trkpt lat="41.62575163878500461578369140625" lon="2.52760405652225017547607421875">
        <ele>349</ele>
        <time>2022-05-15T06:59:40.000Z</time>
      </trkpt>
      <trkpt lat="41.62565172649919986724853515625" lon="2.527496851980686187744140625">
        <ele>349.79998779296875</ele>
        <time>2022-05-15T06:59:44.000Z</time>
      </trkpt>
      <trkpt lat="41.62563152611255645751953125" lon="2.52745720557868480682373046875">
        <ele>350</ele>
        <time>2022-05-15T06:59:45.000Z</time>
      </trkpt>
      <trkpt lat="41.62563663907349109649658203125" lon="2.52737808041274547576904296875">
        <ele>350</ele>
        <time>2022-05-15T06:59:47.000Z</time>
      </trkpt>
      <trkpt lat="41.62568156607449054718017578125" lon="2.5273323990404605865478515625">
        <ele>350.600006103515625</ele>
        <time>2022-05-15T06:59:49.000Z</time>
      </trkpt>
      <trkpt lat="41.6257379762828350067138671875" lon="2.52730348147451877593994140625">
        <ele>351</ele>
        <time>2022-05-15T06:59:51.000Z</time>
      </trkpt>
      <trkpt lat="41.62579187192022800445556640625" lon="2.52728286199271678924560546875">
        <ele>351.399993896484375</ele>
        <time>2022-05-15T06:59:53.000Z</time>
      </trkpt>
      <trkpt lat="41.625916175544261932373046875" lon="2.52726710401475429534912109375">
        <ele>352.600006103515625</ele>
        <time>2022-05-15T06:59:57.000Z</time>
      </trkpt>
      <trkpt lat="41.625979207456111907958984375" lon="2.5272613205015659332275390625">
        <ele>353.20001220703125</ele>
        <time>2022-05-15T06:59:59.000Z</time>
      </trkpt>
      <trkpt lat="41.62607140839099884033203125" lon="2.52725780010223388671875">
        <ele>354</ele>
        <time>2022-05-15T07:00:02.000Z</time>
      </trkpt>
      <trkpt lat="41.62610200233757495880126953125" lon="2.5272576324641704559326171875">
        <ele>354</ele>
        <time>2022-05-15T07:00:03.000Z</time>
      </trkpt>
      <trkpt lat="41.62613184191286563873291015625" lon="2.52725788392126560211181640625">
        <ele>354.399993896484375</ele>
        <time>2022-05-15T07:00:04.000Z</time>
      </trkpt>
      <trkpt lat="41.6261949576437473297119140625" lon="2.52725712954998016357421875">
        <ele>355</ele>
        <time>2022-05-15T07:00:06.000Z</time>
      </trkpt>
      <trkpt lat="41.62630652077496051788330078125" lon="2.5272591412067413330078125">
        <ele>355.79998779296875</ele>
        <time>2022-05-15T07:00:10.000Z</time>
      </trkpt>
      <trkpt lat="41.6263324208557605743408203125" lon="2.52726878039538860321044921875">
        <ele>356</ele>
        <time>2022-05-15T07:00:11.000Z</time>
      </trkpt>
      <trkpt lat="41.62638665176928043365478515625" lon="2.5272940099239349365234375">
        <ele>356.399993896484375</ele>
        <time>2022-05-15T07:00:13.000Z</time>
      </trkpt>
      <trkpt lat="41.6264755837619304656982421875" lon="2.5273310579359531402587890625">
        <ele>357.600006103515625</ele>
        <time>2022-05-15T07:00:18.000Z</time>
      </trkpt>
      <trkpt lat="41.62649628706276416778564453125" lon="2.5273337401449680328369140625">
        <ele>358.20001220703125</ele>
        <time>2022-05-15T07:00:21.000Z</time>
      </trkpt>
      <trkpt lat="41.626511625945568084716796875" lon="2.52731404267251491546630859375">
        <ele>359</ele>
        <time>2022-05-15T07:06:26.000Z</time>
      </trkpt>
      <trkpt lat="41.62651187740266323089599609375" lon="2.5273139588534832000732421875">
        <ele>363.399993896484375</ele>
        <time>2022-05-15T07:06:27.000Z</time>
      </trkpt>
      <trkpt lat="41.6265386156737804412841796875" lon="2.5272914953529834747314453125">
        <ele>363.20001220703125</ele>
        <time>2022-05-15T07:06:32.000Z</time>
      </trkpt>
      <trkpt lat="41.62655412219464778900146484375" lon="2.527288310229778289794921875">
        <ele>363.399993896484375</ele>
        <time>2022-05-15T07:06:33.000Z</time>
      </trkpt>
      <trkpt lat="41.6266338340938091278076171875" lon="2.52722737379372119903564453125">
        <ele>363.399993896484375</ele>
        <time>2022-05-15T07:06:38.000Z</time>
      </trkpt>
      <trkpt lat="41.62670181132853031158447265625" lon="2.5272215902805328369140625">
        <ele>364.600006103515625</ele>
        <time>2022-05-15T07:06:40.000Z</time>
      </trkpt>
      <trkpt lat="41.62676752544939517974853515625" lon="2.527222931385040283203125">
        <ele>364.600006103515625</ele>
        <time>2022-05-15T07:06:42.000Z</time>
      </trkpt>
      <trkpt lat="41.626917980611324310302734375" lon="2.52722569741308689117431640625">
        <ele>364.20001220703125</ele>
        <time>2022-05-15T07:06:47.000Z</time>
      </trkpt>
      <trkpt lat="41.62694455124437808990478515625" lon="2.52722628414630889892578125">
        <ele>364.399993896484375</ele>
        <time>2022-05-15T07:06:48.000Z</time>
      </trkpt>
      <trkpt lat="41.6269733011722564697265625" lon="2.5272264517843723297119140625">
        <ele>364.399993896484375</ele>
        <time>2022-05-15T07:06:49.000Z</time>
      </trkpt>
      <trkpt lat="41.62720304913818836212158203125" lon="2.5272214226424694061279296875">
        <ele>365.79998779296875</ele>
        <time>2022-05-15T07:06:55.000Z</time>
      </trkpt>
      <trkpt lat="41.62730447016656398773193359375" lon="2.5272200815379619598388671875">
        <ele>366</ele>
        <time>2022-05-15T07:06:57.000Z</time>
      </trkpt>
      <trkpt lat="41.6274693422019481658935546875" lon="2.5272153876721858978271484375">
        <ele>366</ele>
        <time>2022-05-15T07:07:00.000Z</time>
      </trkpt>
      <trkpt lat="41.6275350563228130340576171875" lon="2.5272133760154247283935546875">
        <ele>366</ele>
        <time>2022-05-15T07:07:01.000Z</time>
      </trkpt>
      <trkpt lat="41.6276000998914241790771484375" lon="2.5272108614444732666015625">
        <ele>366</ele>
        <time>2022-05-15T07:07:02.000Z</time>
      </trkpt>
      <trkpt lat="41.627822220325469970703125" lon="2.527201473712921142578125">
        <ele>365.79998779296875</ele>
        <time>2022-05-15T07:07:05.000Z</time>
      </trkpt>
      <trkpt lat="41.62789925001561641693115234375" lon="2.52720222808420658111572265625">
        <ele>365.79998779296875</ele>
        <time>2022-05-15T07:07:06.000Z</time>
      </trkpt>
      <trkpt lat="41.6283330135047435760498046875" lon="2.52719677984714508056640625">
        <ele>363.20001220703125</ele>
        <time>2022-05-15T07:07:11.000Z</time>
      </trkpt>
      <trkpt lat="41.6284351050853729248046875" lon="2.527175657451152801513671875">
        <ele>363</ele>
        <time>2022-05-15T07:07:12.000Z</time>
      </trkpt>
      <trkpt lat="41.62853258661925792694091796875" lon="2.5271466560661792755126953125">
        <ele>362.399993896484375</ele>
        <time>2022-05-15T07:07:13.000Z</time>
      </trkpt>
      <trkpt lat="41.6286263801157474517822265625" lon="2.527102567255496978759765625">
        <ele>361.79998779296875</ele>
        <time>2022-05-15T07:07:14.000Z</time>
      </trkpt>
      <trkpt lat="41.628720425069332122802734375" lon="2.52704322338104248046875">
        <ele>361.600006103515625</ele>
        <time>2022-05-15T07:07:15.000Z</time>
      </trkpt>
      <trkpt lat="41.62890055216848850250244140625" lon="2.52691573463380336761474609375">
        <ele>360.600006103515625</ele>
        <time>2022-05-15T07:07:17.000Z</time>
      </trkpt>
      <trkpt lat="41.62914781831204891204833984375" lon="2.52676787786185741424560546875">
        <ele>359.20001220703125</ele>
        <time>2022-05-15T07:07:20.000Z</time>
      </trkpt>
      <trkpt lat="41.62932417355477809906005859375" lon="2.52676586620509624481201171875">
        <ele>358.399993896484375</ele>
        <time>2022-05-15T07:07:22.000Z</time>
      </trkpt>
      <trkpt lat="41.62940531037747859954833984375" lon="2.52682370133697986602783203125">
        <ele>357.79998779296875</ele>
        <time>2022-05-15T07:07:23.000Z</time>
      </trkpt>
      <trkpt lat="41.62947085686028003692626953125" lon="2.52691070549190044403076171875">
        <ele>356.79998779296875</ele>
        <time>2022-05-15T07:07:24.000Z</time>
      </trkpt>
      <trkpt lat="41.629506982862949371337890625" lon="2.52701883204281330108642578125">
        <ele>356.20001220703125</ele>
        <time>2022-05-15T07:07:25.000Z</time>
      </trkpt>
      <trkpt lat="41.6295514069497585296630859375" lon="2.527253441512584686279296875">
        <ele>355.20001220703125</ele>
        <time>2022-05-15T07:07:27.000Z</time>
      </trkpt>
      <trkpt lat="41.6295725293457508087158203125" lon="2.5274862907826900482177734375">
        <ele>354.399993896484375</ele>
        <time>2022-05-15T07:07:29.000Z</time>
      </trkpt>
      <trkpt lat="41.6296067275106906890869140625" lon="2.52790312282741069793701171875">
        <ele>351.79998779296875</ele>
        <time>2022-05-15T07:07:33.000Z</time>
      </trkpt>
      <trkpt lat="41.6296369023621082305908203125" lon="2.5279806554317474365234375">
        <ele>351.399993896484375</ele>
        <time>2022-05-15T07:07:34.000Z</time>
      </trkpt>
      <trkpt lat="41.6296734474599361419677734375" lon="2.52803673036396503448486328125">
        <ele>351</ele>
        <time>2022-05-15T07:07:35.000Z</time>
      </trkpt>
      <trkpt lat="41.62975852377712726593017578125" lon="2.5280217267572879791259765625">
        <ele>350.79998779296875</ele>
        <time>2022-05-15T07:07:37.000Z</time>
      </trkpt>
      <trkpt lat="41.6298595257103443145751953125" lon="2.527784518897533416748046875">
        <ele>350.600006103515625</ele>
        <time>2022-05-15T07:07:40.000Z</time>
      </trkpt>
      <trkpt lat="41.629894562065601348876953125" lon="2.52769944258034229278564453125">
        <ele>350.600006103515625</ele>
        <time>2022-05-15T07:07:41.000Z</time>
      </trkpt>
      <trkpt lat="41.6300067119300365447998046875" lon="2.52740859054028987884521484375">
        <ele>350.600006103515625</ele>
        <time>2022-05-15T07:07:44.000Z</time>
      </trkpt>
      <trkpt lat="41.63009581156075000762939453125" lon="2.52718647010624408721923828125">
        <ele>350.399993896484375</ele>
        <time>2022-05-15T07:07:46.000Z</time>
      </trkpt>
      <trkpt lat="41.630145348608493804931640625" lon="2.5270685367286205291748046875">
        <ele>350.399993896484375</ele>
        <time>2022-05-15T07:07:47.000Z</time>
      </trkpt>
      <trkpt lat="41.63019186817109584808349609375" lon="2.5269464962184429168701171875">
        <ele>350</ele>
        <time>2022-05-15T07:07:48.000Z</time>
      </trkpt>
      <trkpt lat="41.63023822009563446044921875" lon="2.52682353369891643524169921875">
        <ele>350</ele>
        <time>2022-05-15T07:07:49.000Z</time>
      </trkpt>
      <trkpt lat="41.6302916966378688812255859375" lon="2.526702247560024261474609375">
        <ele>349</ele>
        <time>2022-05-15T07:07:50.000Z</time>
      </trkpt>
      <trkpt lat="41.6303577460348606109619140625" lon="2.52658599056303501129150390625">
        <ele>348.399993896484375</ele>
        <time>2022-05-15T07:07:51.000Z</time>
      </trkpt>
      <trkpt lat="41.63042941130697727203369140625" lon="2.5264707393944263458251953125">
        <ele>347.79998779296875</ele>
        <time>2022-05-15T07:07:52.000Z</time>
      </trkpt>
      <trkpt lat="41.63065019063651561737060546875" lon="2.52611995674669742584228515625">
        <ele>345.79998779296875</ele>
        <time>2022-05-15T07:07:55.000Z</time>
      </trkpt>
      <trkpt lat="41.63072076626121997833251953125" lon="2.5260134227573871612548828125">
        <ele>345.20001220703125</ele>
        <time>2022-05-15T07:07:56.000Z</time>
      </trkpt>
      <trkpt lat="41.6309434734284877777099609375" lon="2.5257549248635768890380859375">
        <ele>343</ele>
        <time>2022-05-15T07:07:59.000Z</time>
      </trkpt>
      <trkpt lat="41.6310276277363300323486328125" lon="2.52570522017776966094970703125">
        <ele>342.600006103515625</ele>
        <time>2022-05-15T07:08:00.000Z</time>
      </trkpt>
      <trkpt lat="41.631114967167377471923828125" lon="2.525677978992462158203125">
        <ele>341.399993896484375</ele>
        <time>2022-05-15T07:08:01.000Z</time>
      </trkpt>
      <trkpt lat="41.63131554611027240753173828125" lon="2.52573631703853607177734375">
        <ele>340.399993896484375</ele>
        <time>2022-05-15T07:08:03.000Z</time>
      </trkpt>
      <trkpt lat="41.63151738233864307403564453125" lon="2.52581619657576084136962890625">
        <ele>338.79998779296875</ele>
        <time>2022-05-15T07:08:05.000Z</time>
      </trkpt>
      <trkpt lat="41.6316217370331287384033203125" lon="2.52584737725555896759033203125">
        <ele>338</ele>
        <time>2022-05-15T07:08:06.000Z</time>
      </trkpt>
      <trkpt lat="41.63183975033462047576904296875" lon="2.5259044580161571502685546875">
        <ele>337</ele>
        <time>2022-05-15T07:08:08.000Z</time>
      </trkpt>
      <trkpt lat="41.6319425962865352630615234375" lon="2.5259299390017986297607421875">
        <ele>336.20001220703125</ele>
        <time>2022-05-15T07:08:09.000Z</time>
      </trkpt>
      <trkpt lat="41.63203488104045391082763671875" lon="2.52598232589662075042724609375">
        <ele>335.20001220703125</ele>
        <time>2022-05-15T07:08:10.000Z</time>
      </trkpt>
      <trkpt lat="41.6321070492267608642578125" lon="2.5260543264448642730712890625">
        <ele>334.399993896484375</ele>
        <time>2022-05-15T07:08:11.000Z</time>
      </trkpt>
      <trkpt lat="41.6321679018437862396240234375" lon="2.5261540710926055908203125">
        <ele>333.399993896484375</ele>
        <time>2022-05-15T07:08:12.000Z</time>
      </trkpt>
      <trkpt lat="41.63224878720939159393310546875" lon="2.5263614393770694732666015625">
        <ele>331.399993896484375</ele>
        <time>2022-05-15T07:08:14.000Z</time>
      </trkpt>
      <trkpt lat="41.63228650577366352081298828125" lon="2.526440061628818511962890625">
        <ele>331.399993896484375</ele>
        <time>2022-05-15T07:08:15.000Z</time>
      </trkpt>
      <trkpt lat="41.63232271559536457061767578125" lon="2.52648574300110340118408203125">
        <ele>330.20001220703125</ele>
        <time>2022-05-15T07:08:16.000Z</time>
      </trkpt>
      <trkpt lat="41.63235439918935298919677734375" lon="2.52648138441145420074462890625">
        <ele>329.20001220703125</ele>
        <time>2022-05-15T07:08:17.000Z</time>
      </trkpt>
      <trkpt lat="41.6323878429830074310302734375" lon="2.52645188011229038238525390625">
        <ele>328.399993896484375</ele>
        <time>2022-05-15T07:08:18.000Z</time>
      </trkpt>
      <trkpt lat="41.63242396898567676544189453125" lon="2.5263973139226436614990234375">
        <ele>327.399993896484375</ele>
        <time>2022-05-15T07:08:19.000Z</time>
      </trkpt>
      <trkpt lat="41.632501669228076934814453125" lon="2.52626211382448673248291015625">
        <ele>325.79998779296875</ele>
        <time>2022-05-15T07:08:21.000Z</time>
      </trkpt>
      <trkpt lat="41.6326381266117095947265625" lon="2.5260177813470363616943359375">
        <ele>325</ele>
        <time>2022-05-15T07:08:24.000Z</time>
      </trkpt>
      <trkpt lat="41.632690094411373138427734375" lon="2.52593815326690673828125">
        <ele>325</ele>
        <time>2022-05-15T07:08:25.000Z</time>
      </trkpt>
      <trkpt lat="41.6327462531626224517822265625" lon="2.52585223875939846038818359375">
        <ele>324.79998779296875</ele>
        <time>2022-05-15T07:08:26.000Z</time>
      </trkpt>
      <trkpt lat="41.63280970416963100433349609375" lon="2.52576573751866817474365234375">
        <ele>323.79998779296875</ele>
        <time>2022-05-15T07:08:27.000Z</time>
      </trkpt>
      <trkpt lat="41.632880531251430511474609375" lon="2.5256878696382045745849609375">
        <ele>323</ele>
        <time>2022-05-15T07:08:28.000Z</time>
      </trkpt>
      <trkpt lat="41.63296041078865528106689453125" lon="2.525614611804485321044921875">
        <ele>322.399993896484375</ele>
        <time>2022-05-15T07:08:29.000Z</time>
      </trkpt>
      <trkpt lat="41.63303911685943603515625" lon="2.52554227598011493682861328125">
        <ele>322</ele>
        <time>2022-05-15T07:08:30.000Z</time>
      </trkpt>
      <trkpt lat="41.63312695920467376708984375" lon="2.52546851523220539093017578125">
        <ele>321.600006103515625</ele>
        <time>2022-05-15T07:08:31.000Z</time>
      </trkpt>
      <trkpt lat="41.6333111934363842010498046875" lon="2.5253532640635967254638671875">
        <ele>320.20001220703125</ele>
        <time>2022-05-15T07:08:33.000Z</time>
      </trkpt>
      <trkpt lat="41.63340733386576175689697265625" lon="2.52534094266593456268310546875">
        <ele>319.600006103515625</ele>
        <time>2022-05-15T07:08:34.000Z</time>
      </trkpt>
      <trkpt lat="41.63349886424839496612548828125" lon="2.52536089159548282623291015625">
        <ele>319</ele>
        <time>2022-05-15T07:08:35.000Z</time>
      </trkpt>
      <trkpt lat="41.633577905595302581787109375" lon="2.5254260189831256866455078125">
        <ele>318.399993896484375</ele>
        <time>2022-05-15T07:08:36.000Z</time>
      </trkpt>
      <trkpt lat="41.63364035077393054962158203125" lon="2.52551444806158542633056640625">
        <ele>317.600006103515625</ele>
        <time>2022-05-15T07:08:37.000Z</time>
      </trkpt>
      <trkpt lat="41.63368712179362773895263671875" lon="2.5257629714906215667724609375">
        <ele>315.600006103515625</ele>
        <time>2022-05-15T07:08:39.000Z</time>
      </trkpt>
      <trkpt lat="41.63368343375623226165771484375" lon="2.52618131227791309356689453125">
        <ele>313</ele>
        <time>2022-05-15T07:08:42.000Z</time>
      </trkpt>
      <trkpt lat="41.63368259556591510772705078125" lon="2.52631827257573604583740234375">
        <ele>312.20001220703125</ele>
        <time>2022-05-15T07:08:43.000Z</time>
      </trkpt>
      <trkpt lat="41.63369449786841869354248046875" lon="2.52646277658641338348388671875">
        <ele>311.399993896484375</ele>
        <time>2022-05-15T07:08:44.000Z</time>
      </trkpt>
      <trkpt lat="41.6337115131318569183349609375" lon="2.5266061909496784210205078125">
        <ele>310.600006103515625</ele>
        <time>2022-05-15T07:08:45.000Z</time>
      </trkpt>
      <trkpt lat="41.633736826479434967041015625" lon="2.52674642018973827362060546875">
        <ele>309.20001220703125</ele>
        <time>2022-05-15T07:08:46.000Z</time>
      </trkpt>
      <trkpt lat="41.63380044512450695037841796875" lon="2.527009360492229461669921875">
        <ele>307.79998779296875</ele>
        <time>2022-05-15T07:08:48.000Z</time>
      </trkpt>
      <trkpt lat="41.6338384151458740234375" lon="2.52712779678404331207275390625">
        <ele>306.79998779296875</ele>
        <time>2022-05-15T07:08:49.000Z</time>
      </trkpt>
      <trkpt lat="41.63388443179428577423095703125" lon="2.52724028192460536956787109375">
        <ele>306.399993896484375</ele>
        <time>2022-05-15T07:08:50.000Z</time>
      </trkpt>
      <trkpt lat="41.63393698632717132568359375" lon="2.52733499743044376373291015625">
        <ele>305.399993896484375</ele>
        <time>2022-05-15T07:08:51.000Z</time>
      </trkpt>
      <trkpt lat="41.63400362245738506317138671875" lon="2.52738947980105876922607421875">
        <ele>304.399993896484375</ele>
        <time>2022-05-15T07:08:52.000Z</time>
      </trkpt>
      <trkpt lat="41.63406841456890106201171875" lon="2.52741160802543163299560546875">
        <ele>303.600006103515625</ele>
        <time>2022-05-15T07:08:53.000Z</time>
      </trkpt>
      <trkpt lat="41.63414083421230316162109375" lon="2.52736173570156097412109375">
        <ele>302.600006103515625</ele>
        <time>2022-05-15T07:08:54.000Z</time>
      </trkpt>
      <trkpt lat="41.63422976620495319366455078125" lon="2.52718261443078517913818359375">
        <ele>301.600006103515625</ele>
        <time>2022-05-15T07:08:56.000Z</time>
      </trkpt>
      <trkpt lat="41.6342332027852535247802734375" lon="2.527054958045482635498046875">
        <ele>301</ele>
        <time>2022-05-15T07:08:57.000Z</time>
      </trkpt>
      <trkpt lat="41.6342435963451862335205078125" lon="2.5267875753343105316162109375">
        <ele>300</ele>
        <time>2022-05-15T07:08:59.000Z</time>
      </trkpt>
      <trkpt lat="41.6342576779425144195556640625" lon="2.52633470110595226287841796875">
        <ele>298.600006103515625</ele>
        <time>2022-05-15T07:09:02.000Z</time>
      </trkpt>
      <trkpt lat="41.6342509724199771881103515625" lon="2.5260258279740810394287109375">
        <ele>297.600006103515625</ele>
        <time>2022-05-15T07:09:04.000Z</time>
      </trkpt>
      <trkpt lat="41.63427972234785556793212890625" lon="2.5257136858999729156494140625">
        <ele>296.399993896484375</ele>
        <time>2022-05-15T07:09:06.000Z</time>
      </trkpt>
      <trkpt lat="41.63434468209743499755859375" lon="2.52540347166359424591064453125">
        <ele>294.20001220703125</ele>
        <time>2022-05-15T07:09:08.000Z</time>
      </trkpt>
      <trkpt lat="41.634391956031322479248046875" lon="2.5252530165016651153564453125">
        <ele>293</ele>
        <time>2022-05-15T07:09:09.000Z</time>
      </trkpt>
      <trkpt lat="41.63445272482931613922119140625" lon="2.52510809339582920074462890625">
        <ele>292.399993896484375</ele>
        <time>2022-05-15T07:09:10.000Z</time>
      </trkpt>
      <trkpt lat="41.634522378444671630859375" lon="2.5249713845551013946533203125">
        <ele>292</ele>
        <time>2022-05-15T07:09:11.000Z</time>
      </trkpt>
      <trkpt lat="41.63460426963865756988525390625" lon="2.5248423032462596893310546875">
        <ele>291.600006103515625</ele>
        <time>2022-05-15T07:09:12.000Z</time>
      </trkpt>
      <trkpt lat="41.634703092277050018310546875" lon="2.5247244536876678466796875">
        <ele>291</ele>
        <time>2022-05-15T07:09:13.000Z</time>
      </trkpt>
      <trkpt lat="41.63481281138956546783447265625" lon="2.52461590804159641265869140625">
        <ele>290.20001220703125</ele>
        <time>2022-05-15T07:09:14.000Z</time>
      </trkpt>
      <trkpt lat="41.63493116386234760284423828125" lon="2.52452169544994831085205078125">
        <ele>288.79998779296875</ele>
        <time>2022-05-15T07:09:15.000Z</time>
      </trkpt>
      <trkpt lat="41.63505454547703266143798828125" lon="2.52444349229335784912109375">
        <ele>288.20001220703125</ele>
        <time>2022-05-15T07:09:16.000Z</time>
      </trkpt>
      <trkpt lat="41.635185889899730682373046875" lon="2.52438004128634929656982421875">
        <ele>287</ele>
        <time>2022-05-15T07:09:17.000Z</time>
      </trkpt>
      <trkpt lat="41.635317988693714141845703125" lon="2.5243323482573032379150390625">
        <ele>285.79998779296875</ele>
        <time>2022-05-15T07:09:18.000Z</time>
      </trkpt>
      <trkpt lat="41.6354599781334400177001953125" lon="2.52429840154945850372314453125">
        <ele>285</ele>
        <time>2022-05-15T07:09:19.000Z</time>
      </trkpt>
      <trkpt lat="41.6355954296886920928955078125" lon="2.5242827273905277252197265625">
        <ele>284.399993896484375</ele>
        <time>2022-05-15T07:09:20.000Z</time>
      </trkpt>
      <trkpt lat="41.6357389278709888458251953125" lon="2.52427241764962673187255859375">
        <ele>283.399993896484375</ele>
        <time>2022-05-15T07:09:21.000Z</time>
      </trkpt>
      <trkpt lat="41.6360165365040302276611328125" lon="2.5242595933377742767333984375">
        <ele>280.79998779296875</ele>
        <time>2022-05-15T07:09:23.000Z</time>
      </trkpt>
      <trkpt lat="41.63643102161586284637451171875" lon="2.52424609847366809844970703125">
        <ele>278</ele>
        <time>2022-05-15T07:09:26.000Z</time>
      </trkpt>
      <trkpt lat="41.636565215885639190673828125" lon="2.524241320788860321044921875">
        <ele>277.399993896484375</ele>
        <time>2022-05-15T07:09:27.000Z</time>
      </trkpt>
      <trkpt lat="41.63683352060616016387939453125" lon="2.52422212623059749603271484375">
        <ele>275.20001220703125</ele>
        <time>2022-05-15T07:09:29.000Z</time>
      </trkpt>
      <trkpt lat="41.63709671236574649810791015625" lon="2.5242052786052227020263671875">
        <ele>274.399993896484375</ele>
        <time>2022-05-15T07:09:31.000Z</time>
      </trkpt>
      <trkpt lat="41.6372278891503810882568359375" lon="2.52419882453978061676025390625">
        <ele>273.79998779296875</ele>
        <time>2022-05-15T07:09:32.000Z</time>
      </trkpt>
      <trkpt lat="41.63749569095671176910400390625" lon="2.524187006056308746337890625">
        <ele>273</ele>
        <time>2022-05-15T07:09:34.000Z</time>
      </trkpt>
      <trkpt lat="41.63763114251196384429931640625" lon="2.524182982742786407470703125">
        <ele>272.20001220703125</ele>
        <time>2022-05-15T07:09:35.000Z</time>
      </trkpt>
      <trkpt lat="41.63776852190494537353515625" lon="2.5241787917912006378173828125">
        <ele>270.79998779296875</ele>
        <time>2022-05-15T07:09:36.000Z</time>
      </trkpt>
      <trkpt lat="41.6378994472324848175048828125" lon="2.52416613511741161346435546875">
        <ele>270.399993896484375</ele>
        <time>2022-05-15T07:09:37.000Z</time>
      </trkpt>
      <trkpt lat="41.638029031455516815185546875" lon="2.52413109876215457916259765625">
        <ele>269.20001220703125</ele>
        <time>2022-05-15T07:09:38.000Z</time>
      </trkpt>
      <trkpt lat="41.63814813829958438873291015625" lon="2.52406236715614795684814453125">
        <ele>268.20001220703125</ele>
        <time>2022-05-15T07:09:39.000Z</time>
      </trkpt>
      <trkpt lat="41.63823430426418781280517578125" lon="2.5239504687488079071044921875">
        <ele>267.399993896484375</ele>
        <time>2022-05-15T07:09:40.000Z</time>
      </trkpt>
      <trkpt lat="41.63829280994832515716552734375" lon="2.52380738966166973114013671875">
        <ele>266.79998779296875</ele>
        <time>2022-05-15T07:09:41.000Z</time>
      </trkpt>
      <trkpt lat="41.63834444247186183929443359375" lon="2.52366472966969013214111328125">
        <ele>266.399993896484375</ele>
        <time>2022-05-15T07:09:42.000Z</time>
      </trkpt>
      <trkpt lat="41.638474278151988983154296875" lon="2.52339919097721576690673828125">
        <ele>265.20001220703125</ele>
        <time>2022-05-15T07:09:44.000Z</time>
      </trkpt>
      <trkpt lat="41.63856589235365390777587890625" lon="2.52330481074750423431396484375">
        <ele>264.20001220703125</ele>
        <time>2022-05-15T07:09:45.000Z</time>
      </trkpt>
      <trkpt lat="41.63866647519171237945556640625" lon="2.52322685904800891876220703125">
        <ele>263.79998779296875</ele>
        <time>2022-05-15T07:09:46.000Z</time>
      </trkpt>
      <trkpt lat="41.63887166418135166168212890625" lon="2.5230559520423412322998046875">
        <ele>262.79998779296875</ele>
        <time>2022-05-15T07:09:48.000Z</time>
      </trkpt>
      <trkpt lat="41.63896067999303340911865234375" lon="2.5229456461966037750244140625">
        <ele>262.79998779296875</ele>
        <time>2022-05-15T07:09:49.000Z</time>
      </trkpt>
      <trkpt lat="41.6390346921980381011962890625" lon="2.5228148885071277618408203125">
        <ele>262.600006103515625</ele>
        <time>2022-05-15T07:09:50.000Z</time>
      </trkpt>
      <trkpt lat="41.63909814320504665374755859375" lon="2.52267482690513134002685546875">
        <ele>262.20001220703125</ele>
        <time>2022-05-15T07:09:51.000Z</time>
      </trkpt>
      <trkpt lat="41.639160253107547760009765625" lon="2.5225330889225006103515625">
        <ele>262</ele>
        <time>2022-05-15T07:09:52.000Z</time>
      </trkpt>
      <trkpt lat="41.63935211487114429473876953125" lon="2.52210435457527637481689453125">
        <ele>261</ele>
        <time>2022-05-15T07:09:55.000Z</time>
      </trkpt>
      <trkpt lat="41.6394906677305698394775390625" lon="2.5218254886567592620849609375">
        <ele>260.20001220703125</ele>
        <time>2022-05-15T07:09:57.000Z</time>
      </trkpt>
      <trkpt lat="41.63956702686846256256103515625" lon="2.52169154584407806396484375">
        <ele>260</ele>
        <time>2022-05-15T07:09:58.000Z</time>
      </trkpt>
      <trkpt lat="41.63990364409983158111572265625" lon="2.521213777363300323486328125">
        <ele>257.79998779296875</ele>
        <time>2022-05-15T07:10:02.000Z</time>
      </trkpt>
      <trkpt lat="41.639989726245403289794921875" lon="2.521096765995025634765625">
        <ele>257.399993896484375</ele>
        <time>2022-05-15T07:10:03.000Z</time>
      </trkpt>
      <trkpt lat="41.64007362909615039825439453125" lon="2.5209826044738292694091796875">
        <ele>256.600006103515625</ele>
        <time>2022-05-15T07:10:04.000Z</time>
      </trkpt>
      <trkpt lat="41.64043472148478031158447265625" lon="2.52052118070423603057861328125">
        <ele>254.399993896484375</ele>
        <time>2022-05-15T07:10:08.000Z</time>
      </trkpt>
      <trkpt lat="41.640522144734859466552734375" lon="2.52040768973529338836669921875">
        <ele>254.1999969482421875</ele>
        <time>2022-05-15T07:10:09.000Z</time>
      </trkpt>
      <trkpt lat="41.64077402092516422271728515625" lon="2.52007224597036838531494140625">
        <ele>253.399993896484375</ele>
        <time>2022-05-15T07:10:12.000Z</time>
      </trkpt>
      <trkpt lat="41.64093621075153350830078125" lon="2.5198497064411640167236328125">
        <ele>252.399993896484375</ele>
        <time>2022-05-15T07:10:14.000Z</time>
      </trkpt>
      <trkpt lat="41.64101391099393367767333984375" lon="2.519736550748348236083984375">
        <ele>252.1999969482421875</ele>
        <time>2022-05-15T07:10:15.000Z</time>
      </trkpt>
      <trkpt lat="41.6414107941091060638427734375" lon="2.51921494491398334503173828125">
        <ele>250.399993896484375</ele>
        <time>2022-05-15T07:10:20.000Z</time>
      </trkpt>
      <trkpt lat="41.64148128591477870941162109375" lon="2.51911100931465625762939453125">
        <ele>250</ele>
        <time>2022-05-15T07:10:21.000Z</time>
      </trkpt>
      <trkpt lat="41.64155404083430767059326171875" lon="2.5190095044672489166259765625">
        <ele>249.8000030517578125</ele>
        <time>2022-05-15T07:10:22.000Z</time>
      </trkpt>
      <trkpt lat="41.64162696339190006256103515625" lon="2.5189105980098247528076171875">
        <ele>249.1999969482421875</ele>
        <time>2022-05-15T07:10:23.000Z</time>
      </trkpt>
      <trkpt lat="41.64177398197352886199951171875" lon="2.5187208317220211029052734375">
        <ele>248.8000030517578125</ele>
        <time>2022-05-15T07:10:25.000Z</time>
      </trkpt>
      <trkpt lat="41.6418483294546604156494140625" lon="2.51863407902419567108154296875">
        <ele>248.600006103515625</ele>
        <time>2022-05-15T07:10:26.000Z</time>
      </trkpt>
      <trkpt lat="41.64192955009639263153076171875" lon="2.51855478622019290924072265625">
        <ele>248.1999969482421875</ele>
        <time>2022-05-15T07:10:27.000Z</time>
      </trkpt>
      <trkpt lat="41.64201839827001094818115234375" lon="2.51848898828029632568359375">
        <ele>247.8000030517578125</ele>
        <time>2022-05-15T07:10:28.000Z</time>
      </trkpt>
      <trkpt lat="41.64220212958753108978271484375" lon="2.5183783471584320068359375">
        <ele>247.399993896484375</ele>
        <time>2022-05-15T07:10:30.000Z</time>
      </trkpt>
      <trkpt lat="41.64265223778784275054931640625" lon="2.5181180052459239959716796875">
        <ele>246.8000030517578125</ele>
        <time>2022-05-15T07:10:35.000Z</time>
      </trkpt>
      <trkpt lat="41.642841584980487823486328125" lon="2.51799973659217357635498046875">
        <ele>245.8000030517578125</ele>
        <time>2022-05-15T07:10:37.000Z</time>
      </trkpt>
      <trkpt lat="41.64303897880017757415771484375" lon="2.5178859941661357879638671875">
        <ele>245.1999969482421875</ele>
        <time>2022-05-15T07:10:39.000Z</time>
      </trkpt>
      <trkpt lat="41.64344466291368007659912109375" lon="2.51767762005329132080078125">
        <ele>244.399993896484375</ele>
        <time>2022-05-15T07:10:43.000Z</time>
      </trkpt>
      <trkpt lat="41.64375546388328075408935546875" lon="2.517527081072330474853515625">
        <ele>243.399993896484375</ele>
        <time>2022-05-15T07:10:46.000Z</time>
      </trkpt>
      <trkpt lat="41.6438599862158298492431640625" lon="2.5174759514629840850830078125">
        <ele>242.8000030517578125</ele>
        <time>2022-05-15T07:10:47.000Z</time>
      </trkpt>
      <trkpt lat="41.644275225698947906494140625" lon="2.51727201975882053375244140625">
        <ele>241.8000030517578125</ele>
        <time>2022-05-15T07:10:51.000Z</time>
      </trkpt>
      <trkpt lat="41.64437723346054553985595703125" lon="2.51721904613077640533447265625">
        <ele>241.600006103515625</ele>
        <time>2022-05-15T07:10:52.000Z</time>
      </trkpt>
      <trkpt lat="41.6446812450885772705078125" lon="2.517060376703739166259765625">
        <ele>240.8000030517578125</ele>
        <time>2022-05-15T07:10:55.000Z</time>
      </trkpt>
      <trkpt lat="41.64516513235867023468017578125" lon="2.516792826354503631591796875">
        <ele>239</ele>
        <time>2022-05-15T07:11:00.000Z</time>
      </trkpt>
      <trkpt lat="41.645531170070171356201171875" lon="2.5165626592934131622314453125">
        <ele>238</ele>
        <time>2022-05-15T07:11:04.000Z</time>
      </trkpt>
      <trkpt lat="41.64561104960739612579345703125" lon="2.51647708006203174591064453125">
        <ele>238</ele>
        <time>2022-05-15T07:11:05.000Z</time>
      </trkpt>
      <trkpt lat="41.64568581618368625640869140625" lon="2.516379095613956451416015625">
        <ele>237.8000030517578125</ele>
        <time>2022-05-15T07:11:06.000Z</time>
      </trkpt>
      <trkpt lat="41.645891927182674407958984375" lon="2.51605077646672725677490234375">
        <ele>237.600006103515625</ele>
        <time>2022-05-15T07:11:09.000Z</time>
      </trkpt>
      <trkpt lat="41.64595521055161952972412109375" lon="2.51594357192516326904296875">
        <ele>237.1999969482421875</ele>
        <time>2022-05-15T07:11:10.000Z</time>
      </trkpt>
      <trkpt lat="41.646022014319896697998046875" lon="2.51583737321197986602783203125">
        <ele>237.1999969482421875</ele>
        <time>2022-05-15T07:11:11.000Z</time>
      </trkpt>
      <trkpt lat="41.64608739316463470458984375" lon="2.51572907902300357818603515625">
        <ele>237.1999969482421875</ele>
        <time>2022-05-15T07:11:12.000Z</time>
      </trkpt>
      <trkpt lat="41.6462994553148746490478515625" lon="2.5153885222971439361572265625">
        <ele>236.600006103515625</ele>
        <time>2022-05-15T07:11:15.000Z</time>
      </trkpt>
      <trkpt lat="41.6465110145509243011474609375" lon="2.515066824853420257568359375">
        <ele>236.1999969482421875</ele>
        <time>2022-05-15T07:11:18.000Z</time>
      </trkpt>
      <trkpt lat="41.6467041335999965667724609375" lon="2.5147555209696292877197265625">
        <ele>235.600006103515625</ele>
        <time>2022-05-15T07:11:21.000Z</time>
      </trkpt>
      <trkpt lat="41.64686850272119045257568359375" lon="2.51443658955395221710205078125">
        <ele>234.8000030517578125</ele>
        <time>2022-05-15T07:11:24.000Z</time>
      </trkpt>
      <trkpt lat="41.646893061697483062744140625" lon="2.5143126212060451507568359375">
        <ele>234.8000030517578125</ele>
        <time>2022-05-15T07:11:25.000Z</time>
      </trkpt>
      <trkpt lat="41.6469381563365459442138671875" lon="2.51395747996866703033447265625">
        <ele>234.8000030517578125</ele>
        <time>2022-05-15T07:11:28.000Z</time>
      </trkpt>
      <trkpt lat="41.6469490528106689453125" lon="2.513831667602062225341796875">
        <ele>234.600006103515625</ele>
        <time>2022-05-15T07:11:29.000Z</time>
      </trkpt>
      <trkpt lat="41.646964810788631439208984375" lon="2.51344987191259860992431640625">
        <ele>235</ele>
        <time>2022-05-15T07:11:32.000Z</time>
      </trkpt>
      <trkpt lat="41.64700848050415515899658203125" lon="2.51298299990594387054443359375">
        <ele>235.8000030517578125</ele>
        <time>2022-05-15T07:11:36.000Z</time>
      </trkpt>
      <trkpt lat="41.647017113864421844482421875" lon="2.51287286169826984405517578125">
        <ele>236</ele>
        <time>2022-05-15T07:11:37.000Z</time>
      </trkpt>
      <trkpt lat="41.64704586379230022430419921875" lon="2.51241646707057952880859375">
        <ele>236</ele>
        <time>2022-05-15T07:11:41.000Z</time>
      </trkpt>
      <trkpt lat="41.64706396870315074920654296875" lon="2.51206300221383571624755859375">
        <ele>236</ele>
        <time>2022-05-15T07:11:44.000Z</time>
      </trkpt>
      <trkpt lat="41.6470715962350368499755859375" lon="2.51194532029330730438232421875">
        <ele>235.8000030517578125</ele>
        <time>2022-05-15T07:11:45.000Z</time>
      </trkpt>
      <trkpt lat="41.64710772223770618438720703125" lon="2.511595375835895538330078125">
        <ele>235.8000030517578125</ele>
        <time>2022-05-15T07:11:48.000Z</time>
      </trkpt>
      <trkpt lat="41.64715466089546680450439453125" lon="2.51123755238950252532958984375">
        <ele>235</ele>
        <time>2022-05-15T07:11:51.000Z</time>
      </trkpt>
      <trkpt lat="41.6471943072974681854248046875" lon="2.5109953992068767547607421875">
        <ele>234.600006103515625</ele>
        <time>2022-05-15T07:11:53.000Z</time>
      </trkpt>
      <trkpt lat="41.64729413576424121856689453125" lon="2.5106547586619853973388671875">
        <ele>233.399993896484375</ele>
        <time>2022-05-15T07:11:56.000Z</time>
      </trkpt>
      <trkpt lat="41.647379882633686065673828125" lon="2.510435990989208221435546875">
        <ele>233</ele>
        <time>2022-05-15T07:11:58.000Z</time>
      </trkpt>
      <trkpt lat="41.64742573164403438568115234375" lon="2.51033063046634197235107421875">
        <ele>233</ele>
        <time>2022-05-15T07:11:59.000Z</time>
      </trkpt>
      <trkpt lat="41.64753176271915435791015625" lon="2.51011907123029232025146484375">
        <ele>232.399993896484375</ele>
        <time>2022-05-15T07:12:01.000Z</time>
      </trkpt>
      <trkpt lat="41.6478849761188030242919921875" lon="2.5094715692102909088134765625">
        <ele>229.8000030517578125</ele>
        <time>2022-05-15T07:12:07.000Z</time>
      </trkpt>
      <trkpt lat="41.648105084896087646484375" lon="2.50904669053852558135986328125">
        <ele>228.1999969482421875</ele>
        <time>2022-05-15T07:12:11.000Z</time>
      </trkpt>
      <trkpt lat="41.6482236050069332122802734375" lon="2.50882674939930438995361328125">
        <ele>228</ele>
        <time>2022-05-15T07:12:13.000Z</time>
      </trkpt>
      <trkpt lat="41.64850867353379726409912109375" lon="2.5083245895802974700927734375">
        <ele>226.600006103515625</ele>
        <time>2022-05-15T07:12:18.000Z</time>
      </trkpt>
      <trkpt lat="41.648732721805572509765625" lon="2.5079356692731380462646484375">
        <ele>225.399993896484375</ele>
        <time>2022-05-15T07:12:22.000Z</time>
      </trkpt>
      <trkpt lat="41.6488465480506420135498046875" lon="2.50775001011788845062255859375">
        <ele>225</ele>
        <time>2022-05-15T07:12:24.000Z</time>
      </trkpt>
      <trkpt lat="41.648955680429935455322265625" lon="2.50756912864744663238525390625">
        <ele>224.600006103515625</ele>
        <time>2022-05-15T07:12:26.000Z</time>
      </trkpt>
      <trkpt lat="41.6491885297000408172607421875" lon="2.507179118692874908447265625">
        <ele>224.1999969482421875</ele>
        <time>2022-05-15T07:12:30.000Z</time>
      </trkpt>
      <trkpt lat="41.64954467676579952239990234375" lon="2.5065560080111026763916015625">
        <ele>223.399993896484375</ele>
        <time>2022-05-15T07:12:36.000Z</time>
      </trkpt>
      <trkpt lat="41.64959396235644817352294921875" lon="2.5064540840685367584228515625">
        <ele>223</ele>
        <time>2022-05-15T07:12:37.000Z</time>
      </trkpt>
      <trkpt lat="41.649708710610866546630859375" lon="2.50614948570728302001953125">
        <ele>222.8000030517578125</ele>
        <time>2022-05-15T07:12:40.000Z</time>
      </trkpt>
      <trkpt lat="41.64977618493139743804931640625" lon="2.50569091178476810455322265625">
        <ele>222.600006103515625</ele>
        <time>2022-05-15T07:12:44.000Z</time>
      </trkpt>
      <trkpt lat="41.64979286491870880126953125" lon="2.50545353628695011138916015625">
        <ele>222.399993896484375</ele>
        <time>2022-05-15T07:12:46.000Z</time>
      </trkpt>
      <trkpt lat="41.64980770088732242584228515625" lon="2.5052380375564098358154296875">
        <ele>222.399993896484375</ele>
        <time>2022-05-15T07:12:48.000Z</time>
      </trkpt>
      <trkpt lat="41.64981893263757228851318359375" lon="2.5051351077854633331298828125">
        <ele>222.399993896484375</ele>
        <time>2022-05-15T07:12:49.000Z</time>
      </trkpt>
      <trkpt lat="41.649879701435565948486328125" lon="2.50457025133073329925537109375">
        <ele>222</ele>
        <time>2022-05-15T07:12:54.000Z</time>
      </trkpt>
      <trkpt lat="41.6498721577227115631103515625" lon="2.50445122830569744110107421875">
        <ele>222</ele>
        <time>2022-05-15T07:12:55.000Z</time>
      </trkpt>
      <trkpt lat="41.64981809444725513458251953125" lon="2.50423061661422252655029296875">
        <ele>222</ele>
        <time>2022-05-15T07:12:57.000Z</time>
      </trkpt>
      <trkpt lat="41.64972354657948017120361328125" lon="2.50403565354645252227783203125">
        <ele>222</ele>
        <time>2022-05-15T07:12:59.000Z</time>
      </trkpt>
      <trkpt lat="41.64961156435310840606689453125" lon="2.5038533471524715423583984375">
        <ele>222</ele>
        <time>2022-05-15T07:13:01.000Z</time>
      </trkpt>
      <trkpt lat="41.649311743676662445068359375" lon="2.5033973716199398040771484375">
        <ele>221.8000030517578125</ele>
        <time>2022-05-15T07:13:06.000Z</time>
      </trkpt>
      <trkpt lat="41.64924846030771732330322265625" lon="2.5033071823418140411376953125">
        <ele>221.8000030517578125</ele>
        <time>2022-05-15T07:13:07.000Z</time>
      </trkpt>
      <trkpt lat="41.64887295104563236236572265625" lon="2.50277166254818439483642578125">
        <ele>221.399993896484375</ele>
        <time>2022-05-15T07:13:13.000Z</time>
      </trkpt>
      <trkpt lat="41.64881394244730472564697265625" lon="2.5026834011077880859375">
        <ele>221.1999969482421875</ele>
        <time>2022-05-15T07:13:14.000Z</time>
      </trkpt>
      <trkpt lat="41.64863658137619495391845703125" lon="2.50242817215621471405029296875">
        <ele>221.1999969482421875</ele>
        <time>2022-05-15T07:13:17.000Z</time>
      </trkpt>
      <trkpt lat="41.64842703379690647125244140625" lon="2.50206490047276020050048828125">
        <ele>221</ele>
        <time>2022-05-15T07:13:21.000Z</time>
      </trkpt>
      <trkpt lat="41.648382358253002166748046875" lon="2.50196649692952632904052734375">
        <ele>221</ele>
        <time>2022-05-15T07:13:22.000Z</time>
      </trkpt>
      <trkpt lat="41.64832209236919879913330078125" lon="2.50174806453287601470947265625">
        <ele>221</ele>
        <time>2022-05-15T07:13:24.000Z</time>
      </trkpt>
      <trkpt lat="41.64830851368606090545654296875" lon="2.5016338191926479339599609375">
        <ele>221.1999969482421875</ele>
        <time>2022-05-15T07:13:25.000Z</time>
      </trkpt>
      <trkpt lat="41.648307256400585174560546875" lon="2.50151856802403926849365234375">
        <ele>221</ele>
        <time>2022-05-15T07:13:26.000Z</time>
      </trkpt>
      <trkpt lat="41.64834916591644287109375" lon="2.50117507763206958770751953125">
        <ele>221.1999969482421875</ele>
        <time>2022-05-15T07:13:29.000Z</time>
      </trkpt>
      <trkpt lat="41.648376993834972381591796875" lon="2.50106225721538066864013671875">
        <ele>221</ele>
        <time>2022-05-15T07:13:30.000Z</time>
      </trkpt>
      <trkpt lat="41.64841546677052974700927734375" lon="2.50095245428383350372314453125">
        <ele>221</ele>
        <time>2022-05-15T07:13:31.000Z</time>
      </trkpt>
      <trkpt lat="41.64846248924732208251953125" lon="2.5008469261229038238525390625">
        <ele>221</ele>
        <time>2022-05-15T07:13:32.000Z</time>
      </trkpt>
      <trkpt lat="41.64851621724665164947509765625" lon="2.50074458308517932891845703125">
        <ele>221</ele>
        <time>2022-05-15T07:13:33.000Z</time>
      </trkpt>
      <trkpt lat="41.64863926358520984649658203125" lon="2.50054190866649150848388671875">
        <ele>220</ele>
        <time>2022-05-15T07:13:35.000Z</time>
      </trkpt>
      <trkpt lat="41.64884545840322971343994140625" lon="2.5002383999526500701904296875">
        <ele>219.600006103515625</ele>
        <time>2022-05-15T07:13:38.000Z</time>
      </trkpt>
      <trkpt lat="41.6489139385521411895751953125" lon="2.50013622455298900604248046875">
        <ele>219.399993896484375</ele>
        <time>2022-05-15T07:13:39.000Z</time>
      </trkpt>
      <trkpt lat="41.64918827824294567108154296875" lon="2.499733306467533111572265625">
        <ele>218.600006103515625</ele>
        <time>2022-05-15T07:13:43.000Z</time>
      </trkpt>
      <trkpt lat="41.6493850015103816986083984375" lon="2.49943499453365802764892578125">
        <ele>217.8000030517578125</ele>
        <time>2022-05-15T07:13:46.000Z</time>
      </trkpt>
      <trkpt lat="41.64951282553374767303466796875" lon="2.4992412887513637542724609375">
        <ele>217.600006103515625</ele>
        <time>2022-05-15T07:13:48.000Z</time>
      </trkpt>
      <trkpt lat="41.649647019803524017333984375" lon="2.4990438111126422882080078125">
        <ele>217.1999969482421875</ele>
        <time>2022-05-15T07:13:50.000Z</time>
      </trkpt>
      <trkpt lat="41.64999277330935001373291015625" lon="2.49852706678211688995361328125">
        <ele>216.600006103515625</ele>
        <time>2022-05-15T07:13:55.000Z</time>
      </trkpt>
      <trkpt lat="41.6501299850642681121826171875" lon="2.498320452868938446044921875">
        <ele>215.8000030517578125</ele>
        <time>2022-05-15T07:13:57.000Z</time>
      </trkpt>
      <trkpt lat="41.65031430311501026153564453125" lon="2.4979987554252147674560546875">
        <ele>214.600006103515625</ele>
        <time>2022-05-15T07:14:00.000Z</time>
      </trkpt>
      <trkpt lat="41.65036325342953205108642578125" lon="2.4978884495794773101806640625">
        <ele>214.399993896484375</ele>
        <time>2022-05-15T07:14:01.000Z</time>
      </trkpt>
      <trkpt lat="41.6505028121173381805419921875" lon="2.49740607105195522308349609375">
        <ele>213.399993896484375</ele>
        <time>2022-05-15T07:14:05.000Z</time>
      </trkpt>
      <trkpt lat="41.65058889426290988922119140625" lon="2.49701463617384433746337890625">
        <ele>213</ele>
        <time>2022-05-15T07:14:08.000Z</time>
      </trkpt>
      <trkpt lat="41.65062108077108860015869140625" lon="2.4968832917511463165283203125">
        <ele>213</ele>
        <time>2022-05-15T07:14:09.000Z</time>
      </trkpt>
      <trkpt lat="41.65070213377475738525390625" lon="2.49662739224731922149658203125">
        <ele>212.399993896484375</ele>
        <time>2022-05-15T07:14:11.000Z</time>
      </trkpt>
      <trkpt lat="41.65082040242850780487060546875" lon="2.49639068730175495147705078125">
        <ele>212.1999969482421875</ele>
        <time>2022-05-15T07:14:13.000Z</time>
      </trkpt>
      <trkpt lat="41.65088913403451442718505859375" lon="2.4962808005511760711669921875">
        <ele>212</ele>
        <time>2022-05-15T07:14:14.000Z</time>
      </trkpt>
      <trkpt lat="41.6509614698588848114013671875" lon="2.4961772002279758453369140625">
        <ele>211.8000030517578125</ele>
        <time>2022-05-15T07:14:15.000Z</time>
      </trkpt>
      <trkpt lat="41.65134988725185394287109375" lon="2.49567956663668155670166015625">
        <ele>209.1999969482421875</ele>
        <time>2022-05-15T07:14:20.000Z</time>
      </trkpt>
      <trkpt lat="41.65142037905752658843994140625" lon="2.4955820851027965545654296875">
        <ele>208.8000030517578125</ele>
        <time>2022-05-15T07:14:21.000Z</time>
      </trkpt>
      <trkpt lat="41.65183897130191326141357421875" lon="2.49501764774322509765625">
        <ele>207.8000030517578125</ele>
        <time>2022-05-15T07:14:27.000Z</time>
      </trkpt>
      <trkpt lat="41.6519049368798732757568359375" lon="2.494926117360591888427734375">
        <ele>207.8000030517578125</ele>
        <time>2022-05-15T07:14:28.000Z</time>
      </trkpt>
      <trkpt lat="41.65225722827017307281494140625" lon="2.4944870732724666595458984375">
        <ele>207</ele>
        <time>2022-05-15T07:14:33.000Z</time>
      </trkpt>
      <trkpt lat="41.65249326266348361968994140625" lon="2.494263611733913421630859375">
        <ele>206.399993896484375</ele>
        <time>2022-05-15T07:14:36.000Z</time>
      </trkpt>
      <trkpt lat="41.652667187154293060302734375" lon="2.4941434152424335479736328125">
        <ele>205.8000030517578125</ele>
        <time>2022-05-15T07:14:38.000Z</time>
      </trkpt>
      <trkpt lat="41.652861647307872772216796875" lon="2.49407459981739521026611328125">
        <ele>205.600006103515625</ele>
        <time>2022-05-15T07:14:40.000Z</time>
      </trkpt>
      <trkpt lat="41.65296482853591442108154296875" lon="2.49405666254460811614990234375">
        <ele>205.399993896484375</ele>
        <time>2022-05-15T07:14:41.000Z</time>
      </trkpt>
      <trkpt lat="41.65349137969315052032470703125" lon="2.49402464367449283599853515625">
        <ele>204.600006103515625</ele>
        <time>2022-05-15T07:14:46.000Z</time>
      </trkpt>
      <trkpt lat="41.65388935245573520660400390625" lon="2.49401994980871677398681640625">
        <ele>204.399993896484375</ele>
        <time>2022-05-15T07:14:50.000Z</time>
      </trkpt>
      <trkpt lat="41.65398783981800079345703125" lon="2.49402045272290706634521484375">
        <ele>204.1999969482421875</ele>
        <time>2022-05-15T07:14:51.000Z</time>
      </trkpt>
      <trkpt lat="41.65408632718026638031005859375" lon="2.4940193630754947662353515625">
        <ele>204.1999969482421875</ele>
        <time>2022-05-15T07:14:52.000Z</time>
      </trkpt>
      <trkpt lat="41.654184646904468536376953125" lon="2.49401894398033618927001953125">
        <ele>204.1999969482421875</ele>
        <time>2022-05-15T07:14:53.000Z</time>
      </trkpt>
      <trkpt lat="41.65428154170513153076171875" lon="2.49401986598968505859375">
        <ele>204</ele>
        <time>2022-05-15T07:14:54.000Z</time>
      </trkpt>
      <trkpt lat="41.65465839207172393798828125" lon="2.49401994980871677398681640625">
        <ele>203.600006103515625</ele>
        <time>2022-05-15T07:14:58.000Z</time>
      </trkpt>
      <trkpt lat="41.65474950335919857025146484375" lon="2.49401994980871677398681640625">
        <ele>203.399993896484375</ele>
        <time>2022-05-15T07:14:59.000Z</time>
      </trkpt>
      <trkpt lat="41.6548402793705463409423828125" lon="2.494020201265811920166015625">
        <ele>203.1999969482421875</ele>
        <time>2022-05-15T07:15:00.000Z</time>
      </trkpt>
      <trkpt lat="41.65493206121027469635009765625" lon="2.49402112327516078948974609375">
        <ele>202.8000030517578125</ele>
        <time>2022-05-15T07:15:01.000Z</time>
      </trkpt>
      <trkpt lat="41.65502325631678104400634765625" lon="2.4940230511128902435302734375">
        <ele>202.600006103515625</ele>
        <time>2022-05-15T07:15:02.000Z</time>
      </trkpt>
      <trkpt lat="41.65511243976652622222900390625" lon="2.49402497895061969757080078125">
        <ele>202.399993896484375</ele>
        <time>2022-05-15T07:15:03.000Z</time>
      </trkpt>
      <trkpt lat="41.6552013717591762542724609375" lon="2.4940265715122222900390625">
        <ele>202.1999969482421875</ele>
        <time>2022-05-15T07:15:04.000Z</time>
      </trkpt>
      <trkpt lat="41.655637733638286590576171875" lon="2.49402699060738086700439453125">
        <ele>201.600006103515625</ele>
        <time>2022-05-15T07:15:09.000Z</time>
      </trkpt>
      <trkpt lat="41.65571593679487705230712890625" lon="2.494024895131587982177734375">
        <ele>201.600006103515625</ele>
        <time>2022-05-15T07:15:10.000Z</time>
      </trkpt>
      <trkpt lat="41.65592950768768787384033203125" lon="2.49402497895061969757080078125">
        <ele>202</ele>
        <time>2022-05-15T07:15:13.000Z</time>
      </trkpt>
      <trkpt lat="41.655993796885013580322265625" lon="2.494026236236095428466796875">
        <ele>202.1999969482421875</ele>
        <time>2022-05-15T07:15:14.000Z</time>
      </trkpt>
      <trkpt lat="41.6562370397150516510009765625" lon="2.494010142982006072998046875">
        <ele>202.399993896484375</ele>
        <time>2022-05-15T07:15:18.000Z</time>
      </trkpt>
      <trkpt lat="41.656300909817218780517578125" lon="2.49400184489786624908447265625">
        <ele>202.600006103515625</ele>
        <time>2022-05-15T07:15:19.000Z</time>
      </trkpt>
      <trkpt lat="41.6563641093671321868896484375" lon="2.4939928762614727020263671875">
        <ele>203</ele>
        <time>2022-05-15T07:15:20.000Z</time>
      </trkpt>
      <trkpt lat="41.6564856469631195068359375" lon="2.493967898190021514892578125">
        <ele>203.1999969482421875</ele>
        <time>2022-05-15T07:15:22.000Z</time>
      </trkpt>
      <trkpt lat="41.6565441526472568511962890625" lon="2.493955828249454498291015625">
        <ele>203.399993896484375</ele>
        <time>2022-05-15T07:15:23.000Z</time>
      </trkpt>
      <trkpt lat="41.65670935995876789093017578125" lon="2.49391785822808742523193359375">
        <ele>204.1999969482421875</ele>
        <time>2022-05-15T07:15:26.000Z</time>
      </trkpt>
      <trkpt lat="41.65681228972971439361572265625" lon="2.49388449825346469879150390625">
        <ele>204.8000030517578125</ele>
        <time>2022-05-15T07:15:28.000Z</time>
      </trkpt>
      <trkpt lat="41.65696400217711925506591796875" lon="2.4938091449439525604248046875">
        <ele>205.600006103515625</ele>
        <time>2022-05-15T07:15:31.000Z</time>
      </trkpt>
      <trkpt lat="41.657011024653911590576171875" lon="2.49377100728452205657958984375">
        <ele>206</ele>
        <time>2022-05-15T07:15:32.000Z</time>
      </trkpt>
      <trkpt lat="41.65705494582653045654296875" lon="2.49372390098869800567626953125">
        <ele>206.399993896484375</ele>
        <time>2022-05-15T07:15:33.000Z</time>
      </trkpt>
      <trkpt lat="41.65712359361350536346435546875" lon="2.4935989268124103546142578125">
        <ele>206.8000030517578125</ele>
        <time>2022-05-15T07:15:35.000Z</time>
      </trkpt>
      <trkpt lat="41.6571496613323688507080078125" lon="2.4935268424451351165771484375">
        <ele>206.8000030517578125</ele>
        <time>2022-05-15T07:15:36.000Z</time>
      </trkpt>
      <trkpt lat="41.65717069990932941436767578125" lon="2.493448220193386077880859375">
        <ele>206.8000030517578125</ele>
        <time>2022-05-15T07:15:37.000Z</time>
      </trkpt>
      <trkpt lat="41.65723037905991077423095703125" lon="2.493191398680210113525390625">
        <ele>207</ele>
        <time>2022-05-15T07:15:40.000Z</time>
      </trkpt>
      <trkpt lat="41.657247729599475860595703125" lon="2.49309643171727657318115234375">
        <ele>206.8000030517578125</ele>
        <time>2022-05-15T07:15:41.000Z</time>
      </trkpt>
      <trkpt lat="41.65733917616307735443115234375" lon="2.492695860564708709716796875">
        <ele>206.8000030517578125</ele>
        <time>2022-05-15T07:15:45.000Z</time>
      </trkpt>
      <trkpt lat="41.65736197493970394134521484375" lon="2.49259117059409618377685546875">
        <ele>206.600006103515625</ele>
        <time>2022-05-15T07:15:46.000Z</time>
      </trkpt>
      <trkpt lat="41.65740069933235645294189453125" lon="2.4923808686435222625732421875">
        <ele>206.399993896484375</ele>
        <time>2022-05-15T07:15:48.000Z</time>
      </trkpt>
      <trkpt lat="41.6574493981897830963134765625" lon="2.4920653738081455230712890625">
        <ele>204.8000030517578125</ele>
        <time>2022-05-15T07:15:51.000Z</time>
      </trkpt>
      <trkpt lat="41.65746456943452358245849609375" lon="2.491950877010822296142578125">
        <ele>204.8000030517578125</ele>
        <time>2022-05-15T07:15:52.000Z</time>
      </trkpt>
      <trkpt lat="41.6574742086231708526611328125" lon="2.4918343685567378997802734375">
        <ele>204.399993896484375</ele>
        <time>2022-05-15T07:15:53.000Z</time>
      </trkpt>
      <trkpt lat="41.65747471153736114501953125" lon="2.491714172065258026123046875">
        <ele>204.1999969482421875</ele>
        <time>2022-05-15T07:15:54.000Z</time>
      </trkpt>
      <trkpt lat="41.65745803155004978179931640625" lon="2.49147637747228145599365234375">
        <ele>203.8000030517578125</ele>
        <time>2022-05-15T07:15:56.000Z</time>
      </trkpt>
      <trkpt lat="41.65738175623118877410888671875" lon="2.4910042248666286468505859375">
        <ele>202.399993896484375</ele>
        <time>2022-05-15T07:16:00.000Z</time>
      </trkpt>
      <trkpt lat="41.6573662497103214263916015625" lon="2.4908825196325778961181640625">
        <ele>202.1999969482421875</ele>
        <time>2022-05-15T07:16:01.000Z</time>
      </trkpt>
      <trkpt lat="41.65734839625656604766845703125" lon="2.49076190404593944549560546875">
        <ele>202</ele>
        <time>2022-05-15T07:16:02.000Z</time>
      </trkpt>
      <trkpt lat="41.65730615146458148956298828125" lon="2.49051891267299652099609375">
        <ele>201.600006103515625</ele>
        <time>2022-05-15T07:16:04.000Z</time>
      </trkpt>
      <trkpt lat="41.65728603489696979522705078125" lon="2.49039896763861179351806640625">
        <ele>201.1999969482421875</ele>
        <time>2022-05-15T07:16:05.000Z</time>
      </trkpt>
      <trkpt lat="41.65726575069129467010498046875" lon="2.4902790226042270660400390625">
        <ele>200.600006103515625</ele>
        <time>2022-05-15T07:16:06.000Z</time>
      </trkpt>
      <trkpt lat="41.65724563412368297576904296875" lon="2.490157149732112884521484375">
        <ele>200.1999969482421875</ele>
        <time>2022-05-15T07:16:07.000Z</time>
      </trkpt>
      <trkpt lat="41.65718528442084789276123046875" lon="2.48976328410208225250244140625">
        <ele>199</ele>
        <time>2022-05-15T07:16:10.000Z</time>
      </trkpt>
      <trkpt lat="41.65716416202485561370849609375" lon="2.4896319396793842315673828125">
        <ele>198.600006103515625</ele>
        <time>2022-05-15T07:16:11.000Z</time>
      </trkpt>
      <trkpt lat="41.6570971906185150146484375" lon="2.48923187144100666046142578125">
        <ele>198</ele>
        <time>2022-05-15T07:16:14.000Z</time>
      </trkpt>
      <trkpt lat="41.65702007710933685302734375" lon="2.48882065527141094207763671875">
        <ele>197.399993896484375</ele>
        <time>2022-05-15T07:16:17.000Z</time>
      </trkpt>
      <trkpt lat="41.656895689666271209716796875" lon="2.4882740713655948638916015625">
        <ele>194.8000030517578125</ele>
        <time>2022-05-15T07:16:21.000Z</time>
      </trkpt>
      <trkpt lat="41.65686978958547115325927734375" lon="2.48813468031585216522216796875">
        <ele>194.1999969482421875</ele>
        <time>2022-05-15T07:16:22.000Z</time>
      </trkpt>
      <trkpt lat="41.6568200848996639251708984375" lon="2.487865872681140899658203125">
        <ele>193.399993896484375</ele>
        <time>2022-05-15T07:16:24.000Z</time>
      </trkpt>
      <trkpt lat="41.65679736994206905364990234375" lon="2.48773335479199886322021484375">
        <ele>193</ele>
        <time>2022-05-15T07:16:25.000Z</time>
      </trkpt>
      <trkpt lat="41.6567741520702838897705078125" lon="2.487601675093173980712890625">
        <ele>192.8000030517578125</ele>
        <time>2022-05-15T07:16:26.000Z</time>
      </trkpt>
      <trkpt lat="41.6567319072782993316650390625" lon="2.48733873479068279266357421875">
        <ele>192.600006103515625</ele>
        <time>2022-05-15T07:16:28.000Z</time>
      </trkpt>
      <trkpt lat="41.65671137161552906036376953125" lon="2.48721200041472911834716796875">
        <ele>192.600006103515625</ele>
        <time>2022-05-15T07:16:29.000Z</time>
      </trkpt>
      <trkpt lat="41.6566903330385684967041015625" lon="2.4870858527719974517822265625">
        <ele>192.1999969482421875</ele>
        <time>2022-05-15T07:16:30.000Z</time>
      </trkpt>
      <trkpt lat="41.65664951317012310028076171875" lon="2.48683783225715160369873046875">
        <ele>192</ele>
        <time>2022-05-15T07:16:32.000Z</time>
      </trkpt>
      <trkpt lat="41.65656133554875850677490234375" lon="2.48633726499974727630615234375">
        <ele>191</ele>
        <time>2022-05-15T07:16:36.000Z</time>
      </trkpt>
      <trkpt lat="41.6564911790192127227783203125" lon="2.48595220036804676055908203125">
        <ele>190.600006103515625</ele>
        <time>2022-05-15T07:16:39.000Z</time>
      </trkpt>
      <trkpt lat="41.656465865671634674072265625" lon="2.485824041068553924560546875">
        <ele>190.600006103515625</ele>
        <time>2022-05-15T07:16:40.000Z</time>
      </trkpt>
      <trkpt lat="41.65640853345394134521484375" lon="2.48542900197207927703857421875">
        <ele>190.399993896484375</ele>
        <time>2022-05-15T07:16:43.000Z</time>
      </trkpt>
      <trkpt lat="41.65639646351337432861328125" lon="2.48515457846224308013916015625">
        <ele>190.1999969482421875</ele>
        <time>2022-05-15T07:16:45.000Z</time>
      </trkpt>
      <trkpt lat="41.65640308521687984466552734375" lon="2.4850178696215152740478515625">
        <ele>190</ele>
        <time>2022-05-15T07:16:46.000Z</time>
      </trkpt>
      <trkpt lat="41.65641683153808116912841796875" lon="2.48488216660916805267333984375">
        <ele>190.1999969482421875</ele>
        <time>2022-05-15T07:16:47.000Z</time>
      </trkpt>
      <trkpt lat="41.65643745101988315582275390625" lon="2.48474738560616970062255859375">
        <ele>190</ele>
        <time>2022-05-15T07:16:48.000Z</time>
      </trkpt>
      <trkpt lat="41.6564643569290637969970703125" lon="2.4846155382692813873291015625">
        <ele>189.8000030517578125</ele>
        <time>2022-05-15T07:16:49.000Z</time>
      </trkpt>
      <trkpt lat="41.65649763308465480804443359375" lon="2.48448821716010570526123046875">
        <ele>189.8000030517578125</ele>
        <time>2022-05-15T07:16:50.000Z</time>
      </trkpt>
      <trkpt lat="41.65653568692505359649658203125" lon="2.48436391353607177734375">
        <ele>189.8000030517578125</ele>
        <time>2022-05-15T07:16:51.000Z</time>
      </trkpt>
      <trkpt lat="41.65658011101186275482177734375" lon="2.484243214130401611328125">
        <ele>189.8000030517578125</ele>
        <time>2022-05-15T07:16:52.000Z</time>
      </trkpt>
      <trkpt lat="41.65668614208698272705078125" lon="2.48401816003024578094482421875">
        <ele>189.399993896484375</ele>
        <time>2022-05-15T07:16:54.000Z</time>
      </trkpt>
      <trkpt lat="41.6567456535995006561279296875" lon="2.48391355387866497039794921875">
        <ele>189.399993896484375</ele>
        <time>2022-05-15T07:16:55.000Z</time>
      </trkpt>
      <trkpt lat="41.65681488811969757080078125" lon="2.48381674289703369140625">
        <ele>189</ele>
        <time>2022-05-15T07:16:56.000Z</time>
      </trkpt>
      <trkpt lat="41.656890325248241424560546875" lon="2.4837280623614788055419921875">
        <ele>188.8000030517578125</ele>
        <time>2022-05-15T07:16:57.000Z</time>
      </trkpt>
      <trkpt lat="41.6569706238806247711181640625" lon="2.4836472608149051666259765625">
        <ele>188.399993896484375</ele>
        <time>2022-05-15T07:16:58.000Z</time>
      </trkpt>
      <trkpt lat="41.657052934169769287109375" lon="2.48356821946799755096435546875">
        <ele>188.399993896484375</ele>
        <time>2022-05-15T07:16:59.000Z</time>
      </trkpt>
      <trkpt lat="41.65713784284889698028564453125" lon="2.48349060304462909698486328125">
        <ele>188.1999969482421875</ele>
        <time>2022-05-15T07:17:00.000Z</time>
      </trkpt>
      <trkpt lat="41.6576492227613925933837890625" lon="2.48306480236351490020751953125">
        <ele>187</ele>
        <time>2022-05-15T07:17:06.000Z</time>
      </trkpt>
      <trkpt lat="41.6577380709350109100341796875" lon="2.48300747014582157135009765625">
        <ele>186.8000030517578125</ele>
        <time>2022-05-15T07:17:07.000Z</time>
      </trkpt>
      <trkpt lat="41.65792473591864109039306640625" lon="2.4829287640750408172607421875">
        <ele>186.600006103515625</ele>
        <time>2022-05-15T07:17:09.000Z</time>
      </trkpt>
      <trkpt lat="41.65801827795803546905517578125" lon="2.48290219344198703765869140625">
        <ele>186.399993896484375</ele>
        <time>2022-05-15T07:17:10.000Z</time>
      </trkpt>
      <trkpt lat="41.6582108102738857269287109375" lon="2.482860200107097625732421875">
        <ele>186.1999969482421875</ele>
        <time>2022-05-15T07:17:12.000Z</time>
      </trkpt>
      <trkpt lat="41.65840409696102142333984375" lon="2.4828231520950794219970703125">
        <ele>186.1999969482421875</ele>
        <time>2022-05-15T07:17:14.000Z</time>
      </trkpt>
      <trkpt lat="41.65869821794331073760986328125" lon="2.48277269303798675537109375">
        <ele>186</ele>
        <time>2022-05-15T07:17:17.000Z</time>
      </trkpt>
      <trkpt lat="41.65898823179304599761962890625" lon="2.4827389977872371673583984375">
        <ele>185.8000030517578125</ele>
        <time>2022-05-15T07:17:20.000Z</time>
      </trkpt>
      <trkpt lat="41.65917389094829559326171875" lon="2.48275282792747020721435546875">
        <ele>186</ele>
        <time>2022-05-15T07:17:22.000Z</time>
      </trkpt>
      <trkpt lat="41.65934647433459758758544921875" lon="2.48281585983932018280029296875">
        <ele>185.8000030517578125</ele>
        <time>2022-05-15T07:17:24.000Z</time>
      </trkpt>
      <trkpt lat="41.65943196974694728851318359375" lon="2.48286380432546138763427734375">
        <ele>185.8000030517578125</ele>
        <time>2022-05-15T07:17:25.000Z</time>
      </trkpt>
      <trkpt lat="41.65951796807348728179931640625" lon="2.48291292227804660797119140625">
        <ele>185.8000030517578125</ele>
        <time>2022-05-15T07:17:26.000Z</time>
      </trkpt>
      <trkpt lat="41.65977898053824901580810546875" lon="2.48304921202361583709716796875">
        <ele>185.600006103515625</ele>
        <time>2022-05-15T07:17:29.000Z</time>
      </trkpt>
      <trkpt lat="41.66004619561135768890380859375" lon="2.483186088502407073974609375">
        <ele>185.399993896484375</ele>
        <time>2022-05-15T07:17:32.000Z</time>
      </trkpt>
      <trkpt lat="41.66022489778697490692138671875" lon="2.4832868389785289764404296875">
        <ele>185.399993896484375</ele>
        <time>2022-05-15T07:17:34.000Z</time>
      </trkpt>
      <trkpt lat="41.66031475178897380828857421875" lon="2.48333738185465335845947265625">
        <ele>185.399993896484375</ele>
        <time>2022-05-15T07:17:35.000Z</time>
      </trkpt>
      <trkpt lat="41.6608474217355251312255859375" lon="2.4836013279855251312255859375">
        <ele>185.1999969482421875</ele>
        <time>2022-05-15T07:17:41.000Z</time>
      </trkpt>
      <trkpt lat="41.66102117858827114105224609375" lon="2.48366125859320163726806640625">
        <ele>185.399993896484375</ele>
        <time>2022-05-15T07:17:43.000Z</time>
      </trkpt>
      <trkpt lat="41.661186553537845611572265625" lon="2.4836724065244197845458984375">
        <ele>185.600006103515625</ele>
        <time>2022-05-15T07:17:45.000Z</time>
      </trkpt>
      <trkpt lat="41.66127112694084644317626953125" lon="2.4836596660315990447998046875">
        <ele>185.399993896484375</ele>
        <time>2022-05-15T07:17:46.000Z</time>
      </trkpt>
      <trkpt lat="41.66135444305837154388427734375" lon="2.48363812454044818878173828125">
        <ele>185.399993896484375</ele>
        <time>2022-05-15T07:17:47.000Z</time>
      </trkpt>
      <trkpt lat="41.66152023710310459136962890625" lon="2.4835634417831897735595703125">
        <ele>185.399993896484375</ele>
        <time>2022-05-15T07:17:49.000Z</time>
      </trkpt>
      <trkpt lat="41.6616027988493442535400390625" lon="2.48352027498185634613037109375">
        <ele>185.600006103515625</ele>
        <time>2022-05-15T07:17:50.000Z</time>
      </trkpt>
      <trkpt lat="41.66168569587171077728271484375" lon="2.4834739230573177337646484375">
        <ele>185.399993896484375</ele>
        <time>2022-05-15T07:17:51.000Z</time>
      </trkpt>
      <trkpt lat="41.66176733560860157012939453125" lon="2.48342270962893962860107421875">
        <ele>185.600006103515625</ele>
        <time>2022-05-15T07:17:52.000Z</time>
      </trkpt>
      <trkpt lat="41.66185065172612667083740234375" lon="2.48336990363895893096923828125">
        <ele>185.399993896484375</ele>
        <time>2022-05-15T07:17:53.000Z</time>
      </trkpt>
      <trkpt lat="41.6619454510509967803955078125" lon="2.48333285562694072723388671875">
        <ele>185.600006103515625</ele>
        <time>2022-05-15T07:17:54.000Z</time>
      </trkpt>
      <trkpt lat="41.66201493702828884124755859375" lon="2.483310140669345855712890625">
        <ele>185.399993896484375</ele>
        <time>2022-05-15T07:17:55.000Z</time>
      </trkpt>
      <trkpt lat="41.662050895392894744873046875" lon="2.48329563997685909271240234375">
        <ele>185.600006103515625</ele>
        <time>2022-05-15T07:17:57.000Z</time>
      </trkpt>
      <trkpt lat="41.6620453633368015289306640625" lon="2.48329061083495616912841796875">
        <ele>185.399993896484375</ele>
        <time>2022-05-15T07:17:59.000Z</time>
      </trkpt>
      <trkpt lat="41.66204117238521575927734375" lon="2.48328910209238529205322265625">
        <ele>185.1999969482421875</ele>
        <time>2022-05-15T07:18:00.000Z</time>
      </trkpt>
      <trkpt lat="41.66203538887202739715576171875" lon="2.4832868389785289764404296875">
        <ele>184.8000030517578125</ele>
        <time>2022-05-15T07:18:04.000Z</time>
      </trkpt>
      <trkpt lat="41.66203455068171024322509765625" lon="2.48328759334981441497802734375">
        <ele>184.8000030517578125</ele>
        <time>2022-05-15T07:18:15.000Z</time>
      </trkpt>
      <trkpt lat="41.6620336286723613739013671875" lon="2.48328457586467266082763671875">
        <ele>184.8000030517578125</ele>
        <time>2022-05-15T07:18:20.000Z</time>
      </trkpt>
      <trkpt lat="41.66203253902494907379150390625" lon="2.48328306712210178375244140625">
        <ele>184.8000030517578125</ele>
        <time>2022-05-15T07:18:24.000Z</time>
      </trkpt>
      <trkpt lat="41.6620217263698577880859375" lon="2.48326965607702732086181640625">
        <ele>185</ele>
        <time>2022-05-15T07:18:32.000Z</time>
      </trkpt>
      <trkpt lat="41.66203689761459827423095703125" lon="2.48323964886367321014404296875">
        <ele>185.399993896484375</ele>
        <time>2022-05-15T07:18:39.000Z</time>
      </trkpt>
      <trkpt lat="41.66204812936484813690185546875" lon="2.48322472907602787017822265625">
        <ele>185.600006103515625</ele>
        <time>2022-05-15T07:18:41.000Z</time>
      </trkpt>
      <trkpt lat="41.66207578964531421661376953125" lon="2.48320318758487701416015625">
        <ele>185.8000030517578125</ele>
        <time>2022-05-15T07:18:45.000Z</time>
      </trkpt>
      <trkpt lat="41.66207696311175823211669921875" lon="2.4831993319094181060791015625">
        <ele>185.600006103515625</ele>
        <time>2022-05-15T07:18:46.000Z</time>
      </trkpt>
      <trkpt lat="41.6620725207030773162841796875" lon="2.48320050537586212158203125">
        <ele>185.8000030517578125</ele>
        <time>2022-05-15T07:18:47.000Z</time>
      </trkpt>
      <trkpt lat="41.66207143105566501617431640625" lon="2.4832016788423061370849609375">
        <ele>185.8000030517578125</ele>
        <time>2022-05-15T07:18:48.000Z</time>
      </trkpt>
      <trkpt lat="41.66207126341760158538818359375" lon="2.48320193029940128326416015625">
        <ele>185.600006103515625</ele>
        <time>2022-05-15T07:18:50.000Z</time>
      </trkpt>
      <trkpt lat="41.6620889492332935333251953125" lon="2.48319522477686405181884765625">
        <ele>185.8000030517578125</ele>
        <time>2022-05-15T07:18:52.000Z</time>
      </trkpt>
      <trkpt lat="41.6621033661067485809326171875" lon="2.48319254256784915924072265625">
        <ele>185.8000030517578125</ele>
        <time>2022-05-15T07:18:53.000Z</time>
      </trkpt>
      <trkpt lat="41.662123985588550567626953125" lon="2.48318265192210674285888671875">
        <ele>185.8000030517578125</ele>
        <time>2022-05-15T07:18:54.000Z</time>
      </trkpt>
      <trkpt lat="41.662145443260669708251953125" lon="2.48317209072411060333251953125">
        <ele>186</ele>
        <time>2022-05-15T07:18:55.000Z</time>
      </trkpt>
      <trkpt lat="41.66217251680791378021240234375" lon="2.48315549455583095550537109375">
        <ele>185.8000030517578125</ele>
        <time>2022-05-15T07:18:56.000Z</time>
      </trkpt>
      <trkpt lat="41.662240326404571533203125" lon="2.48311794362962245941162109375">
        <ele>185.8000030517578125</ele>
        <time>2022-05-15T07:18:58.000Z</time>
      </trkpt>
      <trkpt lat="41.66232414543628692626953125" lon="2.483072765171527862548828125">
        <ele>185.8000030517578125</ele>
        <time>2022-05-15T07:19:00.000Z</time>
      </trkpt>
      <trkpt lat="41.6623665578663349151611328125" lon="2.483042590320110321044921875">
        <ele>185.8000030517578125</ele>
        <time>2022-05-15T07:19:01.000Z</time>
      </trkpt>
      <trkpt lat="41.66246202774345874786376953125" lon="2.4829731881618499755859375">
        <ele>185.600006103515625</ele>
        <time>2022-05-15T07:19:03.000Z</time>
      </trkpt>
      <trkpt lat="41.66250946931540966033935546875" lon="2.48293069191277027130126953125">
        <ele>185.600006103515625</ele>
        <time>2022-05-15T07:19:04.000Z</time>
      </trkpt>
      <trkpt lat="41.662556491792201995849609375" lon="2.4828819930553436279296875">
        <ele>185.8000030517578125</ele>
        <time>2022-05-15T07:19:05.000Z</time>
      </trkpt>
      <trkpt lat="41.66260116733610630035400390625" lon="2.48282943852245807647705078125">
        <ele>185.8000030517578125</ele>
        <time>2022-05-15T07:19:06.000Z</time>
      </trkpt>
      <trkpt lat="41.66268565692007541656494140625" lon="2.482707984745502471923828125">
        <ele>185.8000030517578125</ele>
        <time>2022-05-15T07:19:08.000Z</time>
      </trkpt>
      <trkpt lat="41.66272136382758617401123046875" lon="2.48264051042497158050537109375">
        <ele>185.600006103515625</ele>
        <time>2022-05-15T07:19:09.000Z</time>
      </trkpt>
      <trkpt lat="41.6627548076212406158447265625" lon="2.4825723655521869659423828125">
        <ele>185.600006103515625</ele>
        <time>2022-05-15T07:19:10.000Z</time>
      </trkpt>
      <trkpt lat="41.6627873294055461883544921875" lon="2.48250053264200687408447265625">
        <ele>185.600006103515625</ele>
        <time>2022-05-15T07:19:11.000Z</time>
      </trkpt>
      <trkpt lat="41.66284591890871524810791015625" lon="2.482352592051029205322265625">
        <ele>185.600006103515625</ele>
        <time>2022-05-15T07:19:13.000Z</time>
      </trkpt>
      <trkpt lat="41.66290392167866230010986328125" lon="2.4822149612009525299072265625">
        <ele>185.600006103515625</ele>
        <time>2022-05-15T07:19:15.000Z</time>
      </trkpt>
      <trkpt lat="41.662929989397525787353515625" lon="2.4821448884904384613037109375">
        <ele>185.399993896484375</ele>
        <time>2022-05-15T07:19:16.000Z</time>
      </trkpt>
      <trkpt lat="41.66295848786830902099609375" lon="2.4820724688470363616943359375">
        <ele>185.399993896484375</ele>
        <time>2022-05-15T07:19:17.000Z</time>
      </trkpt>
      <trkpt lat="41.66298665106296539306640625" lon="2.481992505490779876708984375">
        <ele>185.600006103515625</ele>
        <time>2022-05-15T07:19:18.000Z</time>
      </trkpt>
      <trkpt lat="41.66312822140753269195556640625" lon="2.48168430291116237640380859375">
        <ele>186.8000030517578125</ele>
        <time>2022-05-15T07:19:22.000Z</time>
      </trkpt>
      <trkpt lat="41.66337531991302967071533203125" lon="2.4812654592096805572509765625">
        <ele>187.600006103515625</ele>
        <time>2022-05-15T07:19:27.000Z</time>
      </trkpt>
      <trkpt lat="41.66343919001519680023193359375" lon="2.48119077645242214202880859375">
        <ele>187.8000030517578125</ele>
        <time>2022-05-15T07:19:28.000Z</time>
      </trkpt>
      <trkpt lat="41.6636027209460735321044921875" lon="2.48111098073422908782958984375">
        <ele>187.8000030517578125</ele>
        <time>2022-05-15T07:19:30.000Z</time>
      </trkpt>
      <trkpt lat="41.6636992804706096649169921875" lon="2.4811125732958316802978515625">
        <ele>188</ele>
        <time>2022-05-15T07:19:31.000Z</time>
      </trkpt>
      <trkpt lat="41.66379005648195743560791015625" lon="2.481149621307849884033203125">
        <ele>187.8000030517578125</ele>
        <time>2022-05-15T07:19:32.000Z</time>
      </trkpt>
      <trkpt lat="41.66387303732335567474365234375" lon="2.48121458105742931365966796875">
        <ele>188</ele>
        <time>2022-05-15T07:19:33.000Z</time>
      </trkpt>
      <trkpt lat="41.66394294239580631256103515625" lon="2.481304518878459930419921875">
        <ele>188</ele>
        <time>2022-05-15T07:19:34.000Z</time>
      </trkpt>
      <trkpt lat="41.664004884660243988037109375" lon="2.48140635900199413299560546875">
        <ele>187.8000030517578125</ele>
        <time>2022-05-15T07:19:35.000Z</time>
      </trkpt>
      <trkpt lat="41.66406246833503246307373046875" lon="2.48151381500065326690673828125">
        <ele>187.8000030517578125</ele>
        <time>2022-05-15T07:19:36.000Z</time>
      </trkpt>
      <trkpt lat="41.66424251161515712738037109375" lon="2.48184775002300739288330078125">
        <ele>187.399993896484375</ele>
        <time>2022-05-15T07:19:39.000Z</time>
      </trkpt>
      <trkpt lat="41.664375029504299163818359375" lon="2.48208562843501567840576171875">
        <ele>187.1999969482421875</ele>
        <time>2022-05-15T07:19:41.000Z</time>
      </trkpt>
      <trkpt lat="41.66443579830229282379150390625" lon="2.4822079204022884368896484375">
        <ele>186.8000030517578125</ele>
        <time>2022-05-15T07:19:42.000Z</time>
      </trkpt>
      <trkpt lat="41.66457342915236949920654296875" lon="2.48244839720427989959716796875">
        <ele>186</ele>
        <time>2022-05-15T07:19:44.000Z</time>
      </trkpt>
      <trkpt lat="41.6646501235663890838623046875" lon="2.4825633130967617034912109375">
        <ele>185.399993896484375</ele>
        <time>2022-05-15T07:19:45.000Z</time>
      </trkpt>
      <trkpt lat="41.66482262313365936279296875" lon="2.48275400139391422271728515625">
        <ele>184.8000030517578125</ele>
        <time>2022-05-15T07:19:47.000Z</time>
      </trkpt>
      <trkpt lat="41.6650418937206268310546875" lon="2.482864558696746826171875">
        <ele>184.399993896484375</ele>
        <time>2022-05-15T07:19:49.000Z</time>
      </trkpt>
      <trkpt lat="41.665156893432140350341796875" lon="2.48289196752011775970458984375">
        <ele>184</ele>
        <time>2022-05-15T07:19:50.000Z</time>
      </trkpt>
      <trkpt lat="41.66527189314365386962890625" lon="2.48290236108005046844482421875">
        <ele>183.600006103515625</ele>
        <time>2022-05-15T07:19:51.000Z</time>
      </trkpt>
      <trkpt lat="41.665499210357666015625" lon="2.48286724090576171875">
        <ele>182.600006103515625</ele>
        <time>2022-05-15T07:19:53.000Z</time>
      </trkpt>
      <trkpt lat="41.66561387479305267333984375" lon="2.4828258343040943145751953125">
        <ele>182.399993896484375</ele>
        <time>2022-05-15T07:19:54.000Z</time>
      </trkpt>
      <trkpt lat="41.665722168982028961181640625" lon="2.48276724480092525482177734375">
        <ele>181.399993896484375</ele>
        <time>2022-05-15T07:19:55.000Z</time>
      </trkpt>
      <trkpt lat="41.66582333855330944061279296875" lon="2.48269935138523578643798828125">
        <ele>181</ele>
        <time>2022-05-15T07:19:56.000Z</time>
      </trkpt>
      <trkpt lat="41.6659235022962093353271484375" lon="2.48262123204767704010009765625">
        <ele>180.600006103515625</ele>
        <time>2022-05-15T07:19:57.000Z</time>
      </trkpt>
      <trkpt lat="41.6660200618207454681396484375" lon="2.48254512436687946319580078125">
        <ele>180.1999969482421875</ele>
        <time>2022-05-15T07:19:58.000Z</time>
      </trkpt>
      <trkpt lat="41.6663214750587940216064453125" lon="2.48234932310879230499267578125">
        <ele>179.600006103515625</ele>
        <time>2022-05-15T07:20:01.000Z</time>
      </trkpt>
      <trkpt lat="41.66673143394291400909423828125" lon="2.48215050436556339263916015625">
        <ele>178.8000030517578125</ele>
        <time>2022-05-15T07:20:05.000Z</time>
      </trkpt>
      <trkpt lat="41.666933856904506683349609375" lon="2.4820546992123126983642578125">
        <ele>178.399993896484375</ele>
        <time>2022-05-15T07:20:07.000Z</time>
      </trkpt>
      <trkpt lat="41.6671496070921421051025390625" lon="2.48197850771248340606689453125">
        <ele>177.600006103515625</ele>
        <time>2022-05-15T07:20:09.000Z</time>
      </trkpt>
      <trkpt lat="41.6674862243235111236572265625" lon="2.481877170503139495849609375">
        <ele>176.399993896484375</ele>
        <time>2022-05-15T07:20:12.000Z</time>
      </trkpt>
      <trkpt lat="41.66760030202567577362060546875" lon="2.48184925876557826995849609375">
        <ele>176.1999969482421875</ele>
        <time>2022-05-15T07:20:13.000Z</time>
      </trkpt>
      <trkpt lat="41.66771412827074527740478515625" lon="2.4818176589906215667724609375">
        <ele>175.8000030517578125</ele>
        <time>2022-05-15T07:20:14.000Z</time>
      </trkpt>
      <trkpt lat="41.66783013381063938140869140625" lon="2.48178287409245967864990234375">
        <ele>175.600006103515625</ele>
        <time>2022-05-15T07:20:15.000Z</time>
      </trkpt>
      <trkpt lat="41.66806130670011043548583984375" lon="2.48170643113553524017333984375">
        <ele>175.399993896484375</ele>
        <time>2022-05-15T07:20:17.000Z</time>
      </trkpt>
      <trkpt lat="41.6681758873164653778076171875" lon="2.48166653327643871307373046875">
        <ele>175</ele>
        <time>2022-05-15T07:20:18.000Z</time>
      </trkpt>
      <trkpt lat="41.6682905517518520355224609375" lon="2.4816245399415493011474609375">
        <ele>174.600006103515625</ele>
        <time>2022-05-15T07:20:19.000Z</time>
      </trkpt>
      <trkpt lat="41.6684058867394924163818359375" lon="2.48158908449113368988037109375">
        <ele>174.1999969482421875</ele>
        <time>2022-05-15T07:20:20.000Z</time>
      </trkpt>
      <trkpt lat="41.668520383536815643310546875" lon="2.48156092129647731781005859375">
        <ele>173.8000030517578125</ele>
        <time>2022-05-15T07:20:21.000Z</time>
      </trkpt>
      <trkpt lat="41.6686362214386463165283203125" lon="2.48153485357761383056640625">
        <ele>173.1999969482421875</ele>
        <time>2022-05-15T07:20:22.000Z</time>
      </trkpt>
      <trkpt lat="41.66886362247169017791748046875" lon="2.48150208033621311187744140625">
        <ele>172.399993896484375</ele>
        <time>2022-05-15T07:20:24.000Z</time>
      </trkpt>
      <trkpt lat="41.669089011847972869873046875" lon="2.4814872443675994873046875">
        <ele>172</ele>
        <time>2022-05-15T07:20:25.000Z</time>
      </trkpt>
      <trkpt lat="41.669089011847972869873046875" lon="2.4814872443675994873046875">
        <ele>171.8000030517578125</ele>
        <time>2022-05-15T07:20:26.000Z</time>
      </trkpt>
      <trkpt lat="41.6696410439908504486083984375" lon="2.48148984275758266448974609375">
        <ele>170.1999969482421875</ele>
        <time>2022-05-15T07:20:30.000Z</time>
      </trkpt>
      <trkpt lat="41.669966094195842742919921875" lon="2.48148984275758266448974609375">
        <ele>169.600006103515625</ele>
        <time>2022-05-15T07:20:33.000Z</time>
      </trkpt>
      <trkpt lat="41.67007413692772388458251953125" lon="2.48149059712886810302734375">
        <ele>169</ele>
        <time>2022-05-15T07:20:34.000Z</time>
      </trkpt>
      <trkpt lat="41.67007413692772388458251953125" lon="2.48149059712886810302734375">
        <ele>168.8000030517578125</ele>
        <time>2022-05-15T07:20:35.000Z</time>
      </trkpt>
      <trkpt lat="41.6705895401537418365478515625" lon="2.481462098658084869384765625">
        <ele>167.399993896484375</ele>
        <time>2022-05-15T07:20:40.000Z</time>
      </trkpt>
      <trkpt lat="41.67115238495171070098876953125" lon="2.4814880825579166412353515625">
        <ele>166.399993896484375</ele>
        <time>2022-05-15T07:20:46.000Z</time>
      </trkpt>
      <trkpt lat="41.671238131821155548095703125" lon="2.48151876032352447509765625">
        <ele>166.1999969482421875</ele>
        <time>2022-05-15T07:20:47.000Z</time>
      </trkpt>
      <trkpt lat="41.671319939196109771728515625" lon="2.48155689798295497894287109375">
        <ele>166.1999969482421875</ele>
        <time>2022-05-15T07:20:48.000Z</time>
      </trkpt>
      <trkpt lat="41.671396382153034210205078125" lon="2.4816054292023181915283203125">
        <ele>166</ele>
        <time>2022-05-15T07:20:49.000Z</time>
      </trkpt>
      <trkpt lat="41.671550273895263671875" lon="2.48170877806842327117919921875">
        <ele>165.8000030517578125</ele>
        <time>2022-05-15T07:20:51.000Z</time>
      </trkpt>
      <trkpt lat="41.67162864468991756439208984375" lon="2.4817586503922939300537109375">
        <ele>166</ele>
        <time>2022-05-15T07:20:52.000Z</time>
      </trkpt>
      <trkpt lat="41.67170559056103229522705078125" lon="2.4818055890500545501708984375">
        <ele>166</ele>
        <time>2022-05-15T07:20:53.000Z</time>
      </trkpt>
      <trkpt lat="41.67193089611828327178955078125" lon="2.48196543194353580474853515625">
        <ele>165.8000030517578125</ele>
        <time>2022-05-15T07:20:56.000Z</time>
      </trkpt>
      <trkpt lat="41.67200901545584201812744140625" lon="2.48201672919094562530517578125">
        <ele>166</ele>
        <time>2022-05-15T07:20:57.000Z</time>
      </trkpt>
      <trkpt lat="41.67225426994264125823974609375" lon="2.48216341249644756317138671875">
        <ele>166</ele>
        <time>2022-05-15T07:21:00.000Z</time>
      </trkpt>
      <trkpt lat="41.6724154539406299591064453125" lon="2.482257373631000518798828125">
        <ele>166</ele>
        <time>2022-05-15T07:21:02.000Z</time>
      </trkpt>
      <trkpt lat="41.67249239981174468994140625" lon="2.48230489902198314666748046875">
        <ele>166</ele>
        <time>2022-05-15T07:21:03.000Z</time>
      </trkpt>
      <trkpt lat="41.672706641256809234619140625" lon="2.48246281407773494720458984375">
        <ele>166.1999969482421875</ele>
        <time>2022-05-15T07:21:06.000Z</time>
      </trkpt>
      <trkpt lat="41.67284016497433185577392578125" lon="2.48258284293115139007568359375">
        <ele>166.399993896484375</ele>
        <time>2022-05-15T07:21:08.000Z</time>
      </trkpt>
      <trkpt lat="41.6729602776467800140380859375" lon="2.48271527700126171112060546875">
        <ele>166.600006103515625</ele>
        <time>2022-05-15T07:21:10.000Z</time>
      </trkpt>
      <trkpt lat="41.67312406003475189208984375" lon="2.48291275463998317718505859375">
        <ele>166.600006103515625</ele>
        <time>2022-05-15T07:21:13.000Z</time>
      </trkpt>
      <trkpt lat="41.67344416491687297821044921875" lon="2.48334945179522037506103515625">
        <ele>167.1999969482421875</ele>
        <time>2022-05-15T07:21:20.000Z</time>
      </trkpt>
      <trkpt lat="41.6734953783452510833740234375" lon="2.48340661637485027313232421875">
        <ele>167.1999969482421875</ele>
        <time>2022-05-15T07:21:21.000Z</time>
      </trkpt>
      <trkpt lat="41.67354709468781948089599609375" lon="2.48345841653645038604736328125">
        <ele>167.8000030517578125</ele>
        <time>2022-05-15T07:21:22.000Z</time>
      </trkpt>
      <trkpt lat="41.67364700697362422943115234375" lon="2.483552210032939910888671875">
        <ele>168.399993896484375</ele>
        <time>2022-05-15T07:21:24.000Z</time>
      </trkpt>
      <trkpt lat="41.67374826036393642425537109375" lon="2.48362270183861255645751953125">
        <ele>168.600006103515625</ele>
        <time>2022-05-15T07:21:26.000Z</time>
      </trkpt>
      <trkpt lat="41.67390433140099048614501953125" lon="2.48369134962558746337890625">
        <ele>169</ele>
        <time>2022-05-15T07:21:29.000Z</time>
      </trkpt>
      <trkpt lat="41.6739604063332080841064453125" lon="2.48371280729770660400390625">
        <ele>169</ele>
        <time>2022-05-15T07:21:30.000Z</time>
      </trkpt>
      <trkpt lat="41.674022935330867767333984375" lon="2.48373518697917461395263671875">
        <ele>169.1999969482421875</ele>
        <time>2022-05-15T07:21:31.000Z</time>
      </trkpt>
      <trkpt lat="41.6740834526717662811279296875" lon="2.48375379480421543121337890625">
        <ele>169</ele>
        <time>2022-05-15T07:21:32.000Z</time>
      </trkpt>
      <trkpt lat="41.6741498373448848724365234375" lon="2.4837622605264186859130859375">
        <ele>169</ele>
        <time>2022-05-15T07:21:33.000Z</time>
      </trkpt>
      <trkpt lat="41.6742225922644138336181640625" lon="2.48377122916281223297119140625">
        <ele>169</ele>
        <time>2022-05-15T07:21:34.000Z</time>
      </trkpt>
      <trkpt lat="41.67429710738360881805419921875" lon="2.483771480619907379150390625">
        <ele>169.1999969482421875</ele>
        <time>2022-05-15T07:21:35.000Z</time>
      </trkpt>
      <trkpt lat="41.674618385732173919677734375" lon="2.48372429050505161285400390625">
        <ele>169.1999969482421875</ele>
        <time>2022-05-15T07:21:39.000Z</time>
      </trkpt>
      <trkpt lat="41.67469717562198638916015625" lon="2.4837052635848522186279296875">
        <ele>169</ele>
        <time>2022-05-15T07:21:40.000Z</time>
      </trkpt>
      <trkpt lat="41.67477370239794254302978515625" lon="2.48368975706398487091064453125">
        <ele>168.8000030517578125</ele>
        <time>2022-05-15T07:21:41.000Z</time>
      </trkpt>
      <trkpt lat="41.675033457577228546142578125" lon="2.4836120568215847015380859375">
        <ele>167.8000030517578125</ele>
        <time>2022-05-15T07:21:45.000Z</time>
      </trkpt>
      <trkpt lat="41.67518307454884052276611328125" lon="2.483585737645626068115234375">
        <ele>166.600006103515625</ele>
        <time>2022-05-15T07:21:48.000Z</time>
      </trkpt>
      <trkpt lat="41.6752274148166179656982421875" lon="2.48359671793878078460693359375">
        <ele>166.1999969482421875</ele>
        <time>2022-05-15T07:21:49.000Z</time>
      </trkpt>
      <trkpt lat="41.675265468657016754150390625" lon="2.48361566103994846343994140625">
        <ele>165.600006103515625</ele>
        <time>2022-05-15T07:21:50.000Z</time>
      </trkpt>
      <trkpt lat="41.675291955471038818359375" lon="2.4836345203220844268798828125">
        <ele>165.1999969482421875</ele>
        <time>2022-05-15T07:21:51.000Z</time>
      </trkpt>
      <trkpt lat="41.67533260770142078399658203125" lon="2.48368062078952789306640625">
        <ele>164.1999969482421875</ele>
        <time>2022-05-15T07:21:53.000Z</time>
      </trkpt>
      <trkpt lat="41.67534886859357357025146484375" lon="2.4836878292262554168701171875">
        <ele>163.600006103515625</ele>
        <time>2022-05-15T07:21:54.000Z</time>
      </trkpt>
      <trkpt lat="41.67536848224699497222900390625" lon="2.4836973845958709716796875">
        <ele>162.8000030517578125</ele>
        <time>2022-05-15T07:21:56.000Z</time>
      </trkpt>
      <trkpt lat="41.67537175118923187255859375" lon="2.4836947023868560791015625">
        <ele>162.399993896484375</ele>
        <time>2022-05-15T07:21:57.000Z</time>
      </trkpt>
      <trkpt lat="41.67537434957921504974365234375" lon="2.483690343797206878662109375">
        <ele>162.399993896484375</ele>
        <time>2022-05-15T07:21:58.000Z</time>
      </trkpt>
      <trkpt lat="41.67537820525467395782470703125" lon="2.48368866741657257080078125">
        <ele>162</ele>
        <time>2022-05-15T07:22:00.000Z</time>
      </trkpt>
      <trkpt lat="41.67537971399724483489990234375" lon="2.483691684901714324951171875">
        <ele>161.600006103515625</ele>
        <time>2022-05-15T07:22:02.000Z</time>
      </trkpt>
      <trkpt lat="41.6753791272640228271484375" lon="2.48369612731039524078369140625">
        <ele>161.1999969482421875</ele>
        <time>2022-05-15T07:22:04.000Z</time>
      </trkpt>
      <trkpt lat="41.67537535540759563446044921875" lon="2.48370601795613765716552734375">
        <ele>161</ele>
        <time>2022-05-15T07:22:08.000Z</time>
      </trkpt>
      <trkpt lat="41.6753689013421535491943359375" lon="2.483716495335102081298828125">
        <ele>161.1999969482421875</ele>
        <time>2022-05-15T07:22:12.000Z</time>
      </trkpt>
      <trkpt lat="41.67536144144833087921142578125" lon="2.48372814618051052093505859375">
        <ele>161</ele>
        <time>2022-05-15T07:22:17.000Z</time>
      </trkpt>
      <trkpt lat="41.675360687077045440673828125" lon="2.48372965492308139801025390625">
        <ele>160.600006103515625</ele>
        <time>2022-05-15T07:22:22.000Z</time>
      </trkpt>
      <trkpt lat="41.67535540647804737091064453125" lon="2.48373149894177913665771484375">
        <ele>160.8000030517578125</ele>
        <time>2022-05-15T07:22:24.000Z</time>
      </trkpt>
      <trkpt lat="41.6753528080880641937255859375" lon="2.483730576932430267333984375">
        <ele>160.8000030517578125</ele>
        <time>2022-05-15T07:22:26.000Z</time>
      </trkpt>
      <trkpt lat="41.67534953914582729339599609375" lon="2.48372999019920825958251953125">
        <ele>160.8000030517578125</ele>
        <time>2022-05-15T07:22:29.000Z</time>
      </trkpt>
      <trkpt lat="41.67535163462162017822265625" lon="2.48373200185596942901611328125">
        <ele>160.8000030517578125</ele>
        <time>2022-05-15T07:22:30.000Z</time>
      </trkpt>
      <trkpt lat="41.67535406537353992462158203125" lon="2.483734600245952606201171875">
        <ele>160.8000030517578125</ele>
        <time>2022-05-15T07:22:33.000Z</time>
      </trkpt>
      <trkpt lat="41.67534886859357357025146484375" lon="2.48373652808368206024169921875">
        <ele>160.600006103515625</ele>
        <time>2022-05-15T07:22:37.000Z</time>
      </trkpt>
      <trkpt lat="41.6753484494984149932861328125" lon="2.4837364442646503448486328125">
        <ele>160.600006103515625</ele>
        <time>2022-05-15T07:22:38.000Z</time>
      </trkpt>
      <trkpt lat="41.67534836567938327789306640625" lon="2.4837367795407772064208984375">
        <ele>160.600006103515625</ele>
        <time>2022-05-15T07:22:41.000Z</time>
      </trkpt>
      <trkpt lat="41.67534652166068553924560546875" lon="2.4837357737123966217041015625">
        <ele>160.600006103515625</ele>
        <time>2022-05-15T07:22:42.000Z</time>
      </trkpt>
      <trkpt lat="41.67534199543297290802001953125" lon="2.48372747562825679779052734375">
        <ele>160.600006103515625</ele>
        <time>2022-05-15T07:22:51.000Z</time>
      </trkpt>
      <trkpt lat="41.67534233070909976959228515625" lon="2.48372613452374935150146484375">
        <ele>160.600006103515625</ele>
        <time>2022-05-15T07:22:52.000Z</time>
      </trkpt>
      <trkpt lat="41.6753427498042583465576171875" lon="2.48372563160955905914306640625">
        <ele>160.600006103515625</ele>
        <time>2022-05-15T07:22:53.000Z</time>
      </trkpt>
      <trkpt lat="41.6753427498042583465576171875" lon="2.4837250448763370513916015625">
        <ele>160.8000030517578125</ele>
        <time>2022-05-15T07:22:54.000Z</time>
      </trkpt>
      <trkpt lat="41.67533931322395801544189453125" lon="2.4837223626673221588134765625">
        <ele>161</ele>
        <time>2022-05-15T07:22:56.000Z</time>
      </trkpt>
      <trkpt lat="41.67533897794783115386962890625" lon="2.48372194357216358184814453125">
        <ele>160.8000030517578125</ele>
        <time>2022-05-15T07:22:57.000Z</time>
      </trkpt>
      <trkpt lat="41.67534199543297290802001953125" lon="2.48372294940054416656494140625">
        <ele>160.8000030517578125</ele>
        <time>2022-05-15T07:23:03.000Z</time>
      </trkpt>
      <trkpt lat="41.67534316889941692352294921875" lon="2.4837220273911952972412109375">
        <ele>160.8000030517578125</ele>
        <time>2022-05-15T07:23:04.000Z</time>
      </trkpt>
      <trkpt lat="41.67534400708973407745361328125" lon="2.48372194357216358184814453125">
        <ele>160.8000030517578125</ele>
        <time>2022-05-15T07:23:09.000Z</time>
      </trkpt>
      <trkpt lat="41.67534283362329006195068359375" lon="2.4837226979434490203857421875">
        <ele>160.8000030517578125</ele>
        <time>2022-05-15T07:23:10.000Z</time>
      </trkpt>
      <trkpt lat="41.6753404028713703155517578125" lon="2.48372512869536876678466796875">
        <ele>160.8000030517578125</ele>
        <time>2022-05-15T07:23:12.000Z</time>
      </trkpt>
      <trkpt lat="41.67533596046268939971923828125" lon="2.48372563160955905914306640625">
        <ele>160.8000030517578125</ele>
        <time>2022-05-15T07:23:13.000Z</time>
      </trkpt>
      <trkpt lat="41.67533428408205509185791015625" lon="2.4837290681898593902587890625">
        <ele>160.8000030517578125</ele>
        <time>2022-05-15T07:23:16.000Z</time>
      </trkpt>
      <trkpt lat="41.6753335297107696533203125" lon="2.48373158276081085205078125">
        <ele>160.600006103515625</ele>
        <time>2022-05-15T07:23:19.000Z</time>
      </trkpt>
      <trkpt lat="41.67533285915851593017578125" lon="2.4837324209511280059814453125">
        <ele>160.8000030517578125</ele>
        <time>2022-05-15T07:23:20.000Z</time>
      </trkpt>
      <trkpt lat="41.67533176951110363006591796875" lon="2.48373250477015972137451171875">
        <ele>160.600006103515625</ele>
        <time>2022-05-15T07:23:21.000Z</time>
      </trkpt>
      <trkpt lat="41.67533093132078647613525390625" lon="2.48373351059854030609130859375">
        <ele>160.8000030517578125</ele>
        <time>2022-05-15T07:23:22.000Z</time>
      </trkpt>
      <trkpt lat="41.6753296740353107452392578125" lon="2.4837340973317623138427734375">
        <ele>160.8000030517578125</ele>
        <time>2022-05-15T07:23:23.000Z</time>
      </trkpt>
      <trkpt lat="41.67532741092145442962646484375" lon="2.4837367795407772064208984375">
        <ele>160.8000030517578125</ele>
        <time>2022-05-15T07:23:28.000Z</time>
      </trkpt>
      <trkpt lat="41.6753259859979152679443359375" lon="2.48373652808368206024169921875">
        <ele>160.8000030517578125</ele>
        <time>2022-05-15T07:23:29.000Z</time>
      </trkpt>
      <trkpt lat="41.6753229685127735137939453125" lon="2.48373568989336490631103515625">
        <ele>160.8000030517578125</ele>
        <time>2022-05-15T07:23:30.000Z</time>
      </trkpt>
      <trkpt lat="41.67532254941761493682861328125" lon="2.48373686335980892181396484375">
        <ele>160.8000030517578125</ele>
        <time>2022-05-15T07:23:31.000Z</time>
      </trkpt>
      <trkpt lat="41.67532204650342464447021484375" lon="2.48373686335980892181396484375">
        <ele>160.8000030517578125</ele>
        <time>2022-05-15T07:23:33.000Z</time>
      </trkpt>
      <trkpt lat="41.6753269918262958526611328125" lon="2.4837297387421131134033203125">
        <ele>161</ele>
        <time>2022-05-15T07:23:38.000Z</time>
      </trkpt>
      <trkpt lat="41.67532690800726413726806640625" lon="2.4837297387421131134033203125">
        <ele>161</ele>
        <time>2022-05-15T07:23:39.000Z</time>
      </trkpt>
      <trkpt lat="41.675326488912105560302734375" lon="2.48372982256114482879638671875">
        <ele>160.8000030517578125</ele>
        <time>2022-05-15T07:23:41.000Z</time>
      </trkpt>
      <trkpt lat="41.67532674036920070648193359375" lon="2.48373024165630340576171875">
        <ele>160.8000030517578125</ele>
        <time>2022-05-15T07:23:42.000Z</time>
      </trkpt>
      <trkpt lat="41.675326824188232421875" lon="2.48373049311339855194091796875">
        <ele>160.8000030517578125</ele>
        <time>2022-05-15T07:23:44.000Z</time>
      </trkpt>
      <trkpt lat="41.675326824188232421875" lon="2.48372999019920825958251953125">
        <ele>160.8000030517578125</ele>
        <time>2022-05-15T07:23:46.000Z</time>
      </trkpt>
      <trkpt lat="41.675325147807598114013671875" lon="2.48373015783727169036865234375">
        <ele>160.8000030517578125</ele>
        <time>2022-05-15T07:23:47.000Z</time>
      </trkpt>
      <trkpt lat="41.675325147807598114013671875" lon="2.48373015783727169036865234375">
        <ele>160.600006103515625</ele>
        <time>2022-05-15T07:23:48.000Z</time>
      </trkpt>
      <trkpt lat="41.67532724328339099884033203125" lon="2.48372890055179595947265625">
        <ele>160.8000030517578125</ele>
        <time>2022-05-15T07:23:49.000Z</time>
      </trkpt>
      <trkpt lat="41.67532908730208873748779296875" lon="2.48372848145663738250732421875">
        <ele>160.8000030517578125</ele>
        <time>2022-05-15T07:23:50.000Z</time>
      </trkpt>
      <trkpt lat="41.67532808147370815277099609375" lon="2.48372915200889110565185546875">
        <ele>161.1999969482421875</ele>
        <time>2022-05-15T07:24:00.000Z</time>
      </trkpt>
      <trkpt lat="41.67532824911177158355712890625" lon="2.48372948728501796722412109375">
        <ele>161.1999969482421875</ele>
        <time>2022-05-15T07:24:02.000Z</time>
      </trkpt>
      <trkpt lat="41.6753283329308032989501953125" lon="2.483729235827922821044921875">
        <ele>161.1999969482421875</ele>
        <time>2022-05-15T07:24:03.000Z</time>
      </trkpt>
      <trkpt lat="41.6753259859979152679443359375" lon="2.4837283976376056671142578125">
        <ele>161</ele>
        <time>2022-05-15T07:24:13.000Z</time>
      </trkpt>
      <trkpt lat="41.67532623745501041412353515625" lon="2.48372831381857395172119140625">
        <ele>161</ele>
        <time>2022-05-15T07:24:14.000Z</time>
      </trkpt>
      <trkpt lat="41.67532606981694698333740234375" lon="2.48372915200889110565185546875">
        <ele>161</ele>
        <time>2022-05-15T07:24:22.000Z</time>
      </trkpt>
      <trkpt lat="41.675326824188232421875" lon="2.4837297387421131134033203125">
        <ele>161</ele>
        <time>2022-05-15T07:24:24.000Z</time>
      </trkpt>
      <trkpt lat="41.67532657273113727569580078125" lon="2.4837304092943668365478515625">
        <ele>161</ele>
        <time>2022-05-15T07:24:25.000Z</time>
      </trkpt>
      <trkpt lat="41.6753273271024227142333984375" lon="2.48372915200889110565185546875">
        <ele>161</ele>
        <time>2022-05-15T07:24:26.000Z</time>
      </trkpt>
      <trkpt lat="41.67532690800726413726806640625" lon="2.48372764326632022857666015625">
        <ele>161.1999969482421875</ele>
        <time>2022-05-15T07:24:29.000Z</time>
      </trkpt>
      <trkpt lat="41.6753279976546764373779296875" lon="2.48372864909470081329345703125">
        <ele>161</ele>
        <time>2022-05-15T07:24:33.000Z</time>
      </trkpt>
      <trkpt lat="41.67532925494015216827392578125" lon="2.48372831381857395172119140625">
        <ele>161.1999969482421875</ele>
        <time>2022-05-15T07:24:34.000Z</time>
      </trkpt>
      <trkpt lat="41.67533176951110363006591796875" lon="2.4837283976376056671142578125">
        <ele>161.1999969482421875</ele>
        <time>2022-05-15T07:24:38.000Z</time>
      </trkpt>
      <trkpt lat="41.67533294297754764556884765625" lon="2.48372881673276424407958984375">
        <ele>161.1999969482421875</ele>
        <time>2022-05-15T07:24:40.000Z</time>
      </trkpt>
      <trkpt lat="41.6753336973488330841064453125" lon="2.483730576932430267333984375">
        <ele>161.1999969482421875</ele>
        <time>2022-05-15T07:24:42.000Z</time>
      </trkpt>
      <trkpt lat="41.67533311061561107635498046875" lon="2.483731247484683990478515625">
        <ele>161.1999969482421875</ele>
        <time>2022-05-15T07:24:43.000Z</time>
      </trkpt>
      <trkpt lat="41.67533378116786479949951171875" lon="2.48373267240822315216064453125">
        <ele>161.399993896484375</ele>
        <time>2022-05-15T07:24:45.000Z</time>
      </trkpt>
      <trkpt lat="41.67533394880592823028564453125" lon="2.48373284004628658294677734375">
        <ele>161.399993896484375</ele>
        <time>2022-05-15T07:24:46.000Z</time>
      </trkpt>
      <trkpt lat="41.67533411644399166107177734375" lon="2.4837327562272548675537109375">
        <ele>161.399993896484375</ele>
        <time>2022-05-15T07:24:47.000Z</time>
      </trkpt>
      <trkpt lat="41.67533428408205509185791015625" lon="2.48373267240822315216064453125">
        <ele>161.1999969482421875</ele>
        <time>2022-05-15T07:24:48.000Z</time>
      </trkpt>
      <trkpt lat="41.6753357090055942535400390625" lon="2.48373367823660373687744140625">
        <ele>161.399993896484375</ele>
        <time>2022-05-15T07:24:49.000Z</time>
      </trkpt>
      <trkpt lat="41.67537502013146877288818359375" lon="2.48375035822391510009765625">
        <ele>161.399993896484375</ele>
        <time>2022-05-15T07:24:52.000Z</time>
      </trkpt>
      <trkpt lat="41.6754523850977420806884765625" lon="2.48374407179653644561767578125">
        <ele>161.600006103515625</ele>
        <time>2022-05-15T07:24:55.000Z</time>
      </trkpt>
      <trkpt lat="41.67548180557787418365478515625" lon="2.4837268888950347900390625">
        <ele>161.399993896484375</ele>
        <time>2022-05-15T07:24:56.000Z</time>
      </trkpt>
      <trkpt lat="41.6755103878676891326904296875" lon="2.48370350338518619537353515625">
        <ele>161.399993896484375</ele>
        <time>2022-05-15T07:24:57.000Z</time>
      </trkpt>
      <trkpt lat="41.6755373775959014892578125" lon="2.48367383144795894622802734375">
        <ele>161.399993896484375</ele>
        <time>2022-05-15T07:24:58.000Z</time>
      </trkpt>
      <trkpt lat="41.67558456771075725555419921875" lon="2.483588419854640960693359375">
        <ele>161.399993896484375</ele>
        <time>2022-05-15T07:25:00.000Z</time>
      </trkpt>
      <trkpt lat="41.67560451664030551910400390625" lon="2.48353284783661365509033203125">
        <ele>161.399993896484375</ele>
        <time>2022-05-15T07:25:01.000Z</time>
      </trkpt>
      <trkpt lat="41.67564843781292438507080078125" lon="2.4834179319441318511962890625">
        <ele>161.399993896484375</ele>
        <time>2022-05-15T07:25:03.000Z</time>
      </trkpt>
      <trkpt lat="41.675736866891384124755859375" lon="2.48332279734313488006591796875">
        <ele>161</ele>
        <time>2022-05-15T07:25:05.000Z</time>
      </trkpt>
      <trkpt lat="41.67583577334880828857421875" lon="2.48325658030807971954345703125">
        <ele>161</ele>
        <time>2022-05-15T07:25:07.000Z</time>
      </trkpt>
      <trkpt lat="41.676000058650970458984375" lon="2.48317074961960315704345703125">
        <ele>160.8000030517578125</ele>
        <time>2022-05-15T07:25:10.000Z</time>
      </trkpt>
      <trkpt lat="41.67605864815413951873779296875" lon="2.48315482400357723236083984375">
        <ele>160.600006103515625</ele>
        <time>2022-05-15T07:25:11.000Z</time>
      </trkpt>
      <trkpt lat="41.67618186213076114654541015625" lon="2.48316471464931964874267578125">
        <ele>160.1999969482421875</ele>
        <time>2022-05-15T07:25:13.000Z</time>
      </trkpt>
      <trkpt lat="41.6762392781674861907958984375" lon="2.4831815622746944427490234375">
        <ele>160.399993896484375</ele>
        <time>2022-05-15T07:25:14.000Z</time>
      </trkpt>
      <trkpt lat="41.67639635503292083740234375" lon="2.483232021331787109375">
        <ele>160</ele>
        <time>2022-05-15T07:25:17.000Z</time>
      </trkpt>
      <trkpt lat="41.676418147981166839599609375" lon="2.48322238214313983917236328125">
        <ele>160</ele>
        <time>2022-05-15T07:25:18.000Z</time>
      </trkpt>
      <trkpt lat="41.67646349407732486724853515625" lon="2.483091540634632110595703125">
        <ele>159.8000030517578125</ele>
        <time>2022-05-15T07:25:20.000Z</time>
      </trkpt>
      <trkpt lat="41.6764699481427669525146484375" lon="2.4829812347888946533203125">
        <ele>159.600006103515625</ele>
        <time>2022-05-15T07:25:21.000Z</time>
      </trkpt>
      <trkpt lat="41.6764588840305805206298828125" lon="2.48286464251577854156494140625">
        <ele>159.600006103515625</ele>
        <time>2022-05-15T07:25:22.000Z</time>
      </trkpt>
      <trkpt lat="41.6764176450669765472412109375" lon="2.48267638497054576873779296875">
        <ele>159.600006103515625</ele>
        <time>2022-05-15T07:25:24.000Z</time>
      </trkpt>
      <trkpt lat="41.67620365507900714874267578125" lon="2.48215553350746631622314453125">
        <ele>159.399993896484375</ele>
        <time>2022-05-15T07:25:31.000Z</time>
      </trkpt>
      <trkpt lat="41.676139198243618011474609375" lon="2.48203919269144535064697265625">
        <ele>159.600006103515625</ele>
        <time>2022-05-15T07:25:33.000Z</time>
      </trkpt>
      <trkpt lat="41.6761001385748386383056640625" lon="2.4819869734346866607666015625">
        <ele>159.600006103515625</ele>
        <time>2022-05-15T07:25:34.000Z</time>
      </trkpt>
      <trkpt lat="41.6760632582008838653564453125" lon="2.48193609528243541717529296875">
        <ele>159.600006103515625</ele>
        <time>2022-05-15T07:25:35.000Z</time>
      </trkpt>
      <trkpt lat="41.6759925149381160736083984375" lon="2.48184087686240673065185546875">
        <ele>159.8000030517578125</ele>
        <time>2022-05-15T07:25:37.000Z</time>
      </trkpt>
      <trkpt lat="41.67591615580022335052490234375" lon="2.48174968175590038299560546875">
        <ele>160.1999969482421875</ele>
        <time>2022-05-15T07:25:39.000Z</time>
      </trkpt>
      <trkpt lat="41.675877012312412261962890625" lon="2.481703497469425201416015625">
        <ele>160.399993896484375</ele>
        <time>2022-05-15T07:25:40.000Z</time>
      </trkpt>
      <trkpt lat="41.67570007033646106719970703125" lon="2.48152135871350765228271484375">
        <ele>161.1999969482421875</ele>
        <time>2022-05-15T07:25:44.000Z</time>
      </trkpt>
      <trkpt lat="41.67549001984298229217529296875" lon="2.48136042617261409759521484375">
        <ele>161.600006103515625</ele>
        <time>2022-05-15T07:25:48.000Z</time>
      </trkpt>
      <trkpt lat="41.67531467042863368988037109375" lon="2.48123587109148502349853515625">
        <ele>162</ele>
        <time>2022-05-15T07:25:51.000Z</time>
      </trkpt>
      <trkpt lat="41.67492440901696681976318359375" lon="2.48098709620535373687744140625">
        <ele>161.8000030517578125</ele>
        <time>2022-05-15T07:25:57.000Z</time>
      </trkpt>
      <trkpt lat="41.67464713566005229949951171875" lon="2.48082264326512813568115234375">
        <ele>161.399993896484375</ele>
        <time>2022-05-15T07:26:01.000Z</time>
      </trkpt>
      <trkpt lat="41.6743813455104827880859375" lon="2.4806643091142177581787109375">
        <ele>161</ele>
        <time>2022-05-15T07:26:05.000Z</time>
      </trkpt>
      <trkpt lat="41.67397691868245601654052734375" lon="2.4804634787142276763916015625">
        <ele>160.600006103515625</ele>
        <time>2022-05-15T07:26:11.000Z</time>
      </trkpt>
      <trkpt lat="41.6737555526196956634521484375" lon="2.48030749149620532989501953125">
        <ele>160.600006103515625</ele>
        <time>2022-05-15T07:26:15.000Z</time>
      </trkpt>
      <trkpt lat="41.67363124899566173553466796875" lon="2.4802334792912006378173828125">
        <ele>160.600006103515625</ele>
        <time>2022-05-15T07:26:17.000Z</time>
      </trkpt>
      <trkpt lat="41.67356603778898715972900390625" lon="2.48019986785948276519775390625">
        <ele>160.600006103515625</ele>
        <time>2022-05-15T07:26:18.000Z</time>
      </trkpt>
      <trkpt lat="41.6735054366290569305419921875" lon="2.4801694415509700775146484375">
        <ele>160.600006103515625</ele>
        <time>2022-05-15T07:26:19.000Z</time>
      </trkpt>
      <trkpt lat="41.67344726622104644775390625" lon="2.480129040777683258056640625">
        <ele>160.600006103515625</ele>
        <time>2022-05-15T07:26:20.000Z</time>
      </trkpt>
      <trkpt lat="41.673389934003353118896484375" lon="2.48008721508085727691650390625">
        <ele>160.399993896484375</ele>
        <time>2022-05-15T07:26:21.000Z</time>
      </trkpt>
      <trkpt lat="41.67333352379500865936279296875" lon="2.48004346154630184173583984375">
        <ele>160.600006103515625</ele>
        <time>2022-05-15T07:26:22.000Z</time>
      </trkpt>
      <trkpt lat="41.6732777841389179229736328125" lon="2.47999669052660465240478515625">
        <ele>160.399993896484375</ele>
        <time>2022-05-15T07:26:23.000Z</time>
      </trkpt>
      <trkpt lat="41.67321517132222652435302734375" lon="2.47994556091725826263427734375">
        <ele>160.600006103515625</ele>
        <time>2022-05-15T07:26:24.000Z</time>
      </trkpt>
      <trkpt lat="41.67315918020904064178466796875" lon="2.4798938445746898651123046875">
        <ele>160.600006103515625</ele>
        <time>2022-05-15T07:26:25.000Z</time>
      </trkpt>
      <trkpt lat="41.67310302145779132843017578125" lon="2.4798408709466457366943359375">
        <ele>160.600006103515625</ele>
        <time>2022-05-15T07:26:26.000Z</time>
      </trkpt>
      <trkpt lat="41.6729961521923542022705078125" lon="2.4797362647950649261474609375">
        <ele>160.600006103515625</ele>
        <time>2022-05-15T07:26:28.000Z</time>
      </trkpt>
      <trkpt lat="41.6729485429823398590087890625" lon="2.4796829558908939361572265625">
        <ele>160.600006103515625</ele>
        <time>2022-05-15T07:26:29.000Z</time>
      </trkpt>
      <trkpt lat="41.67290420271456241607666015625" lon="2.479629479348659515380859375">
        <ele>160.8000030517578125</ele>
        <time>2022-05-15T07:26:30.000Z</time>
      </trkpt>
      <trkpt lat="41.67268174700438976287841796875" lon="2.479340136051177978515625">
        <ele>162.399993896484375</ele>
        <time>2022-05-15T07:26:35.000Z</time>
      </trkpt>
      <trkpt lat="41.6724716126918792724609375" lon="2.4789726734161376953125">
        <ele>163</ele>
        <time>2022-05-15T07:26:41.000Z</time>
      </trkpt>
      <trkpt lat="41.6724407672882080078125" lon="2.4789074622094631195068359375">
        <ele>163.1999969482421875</ele>
        <time>2022-05-15T07:26:42.000Z</time>
      </trkpt>
      <trkpt lat="41.67232610285282135009765625" lon="2.47863831929862499237060546875">
        <ele>163.399993896484375</ele>
        <time>2022-05-15T07:26:46.000Z</time>
      </trkpt>
      <trkpt lat="41.67226265184581279754638671875" lon="2.47843044809997081756591796875">
        <ele>163.8000030517578125</ele>
        <time>2022-05-15T07:26:49.000Z</time>
      </trkpt>
      <trkpt lat="41.67218218557536602020263671875" lon="2.47815954498946666717529296875">
        <ele>164.8000030517578125</ele>
        <time>2022-05-15T07:26:53.000Z</time>
      </trkpt>
      <trkpt lat="41.67210280895233154296875" lon="2.477893419563770294189453125">
        <ele>165.600006103515625</ele>
        <time>2022-05-15T07:26:57.000Z</time>
      </trkpt>
      <trkpt lat="41.672030724585056304931640625" lon="2.47763601131737232208251953125">
        <ele>166.1999969482421875</ele>
        <time>2022-05-15T07:27:01.000Z</time>
      </trkpt>
      <trkpt lat="41.67200951837003231048583984375" lon="2.47757348231971263885498046875">
        <ele>166.600006103515625</ele>
        <time>2022-05-15T07:27:02.000Z</time>
      </trkpt>
      <trkpt lat="41.6719876416027545928955078125" lon="2.47751145623624324798583984375">
        <ele>166.8000030517578125</ele>
        <time>2022-05-15T07:27:03.000Z</time>
      </trkpt>
      <trkpt lat="41.6719671897590160369873046875" lon="2.4774469994008541107177734375">
        <ele>166.600006103515625</ele>
        <time>2022-05-15T07:27:04.000Z</time>
      </trkpt>
      <trkpt lat="41.6718414612114429473876953125" lon="2.47708565555512905120849609375">
        <ele>167.600006103515625</ele>
        <time>2022-05-15T07:27:10.000Z</time>
      </trkpt>
      <trkpt lat="41.67175076901912689208984375" lon="2.4768663011491298675537109375">
        <ele>168.1999969482421875</ele>
        <time>2022-05-15T07:27:14.000Z</time>
      </trkpt>
      <trkpt lat="41.67166518978774547576904296875" lon="2.476701848208904266357421875">
        <ele>168.399993896484375</ele>
        <time>2022-05-15T07:27:17.000Z</time>
      </trkpt>
      <trkpt lat="41.6716003976762294769287109375" lon="2.47658886015415191650390625">
        <ele>168.399993896484375</ele>
        <time>2022-05-15T07:27:18.000Z</time>
      </trkpt>
      <trkpt lat="41.67156611569225788116455078125" lon="2.47653144411742687225341796875">
        <ele>168.8000030517578125</ele>
        <time>2022-05-15T07:27:20.000Z</time>
      </trkpt>
      <trkpt lat="41.67133091948926448822021484375" lon="2.47617538087069988250732421875">
        <ele>169</ele>
        <time>2022-05-15T07:27:25.000Z</time>
      </trkpt>
      <trkpt lat="41.67128867469727993011474609375" lon="2.47611754573881626129150390625">
        <ele>169</ele>
        <time>2022-05-15T07:27:26.000Z</time>
      </trkpt>
      <trkpt lat="41.67115741409361362457275390625" lon="2.4759459681808948516845703125">
        <ele>169.1999969482421875</ele>
        <time>2022-05-15T07:27:30.000Z</time>
      </trkpt>
      <trkpt lat="41.67089858092367649078369140625" lon="2.47559736482799053192138671875">
        <ele>169.399993896484375</ele>
        <time>2022-05-15T07:27:35.000Z</time>
      </trkpt>
      <trkpt lat="41.67064125649631023406982421875" lon="2.4752495996654033660888671875">
        <ele>169.8000030517578125</ele>
        <time>2022-05-15T07:27:42.000Z</time>
      </trkpt>
      <trkpt lat="41.67059817351400852203369140625" lon="2.4751905910670757293701171875">
        <ele>169.600006103515625</ele>
        <time>2022-05-15T07:27:43.000Z</time>
      </trkpt>
      <trkpt lat="41.67055475525557994842529296875" lon="2.47513166628777980804443359375">
        <ele>169.8000030517578125</ele>
        <time>2022-05-15T07:27:44.000Z</time>
      </trkpt>
      <trkpt lat="41.6702802479267120361328125" lon="2.474760599434375762939453125">
        <ele>170</ele>
        <time>2022-05-15T07:27:50.000Z</time>
      </trkpt>
      <trkpt lat="41.67001831345260143280029296875" lon="2.47436824254691600799560546875">
        <ele>170</ele>
        <time>2022-05-15T07:27:56.000Z</time>
      </trkpt>
      <trkpt lat="41.66976459324359893798828125" lon="2.47386096976697444915771484375">
        <ele>170.399993896484375</ele>
        <time>2022-05-15T07:28:03.000Z</time>
      </trkpt>
      <trkpt lat="41.669594608247280120849609375" lon="2.47337565757334232330322265625">
        <ele>170.399993896484375</ele>
        <time>2022-05-15T07:28:09.000Z</time>
      </trkpt>
      <trkpt lat="41.66957139037549495697021484375" lon="2.47328882105648517608642578125">
        <ele>170.399993896484375</ele>
        <time>2022-05-15T07:28:10.000Z</time>
      </trkpt>
      <trkpt lat="41.66953417472541332244873046875" lon="2.47310995124280452728271484375">
        <ele>170.399993896484375</ele>
        <time>2022-05-15T07:28:12.000Z</time>
      </trkpt>
      <trkpt lat="41.6695163212716579437255859375" lon="2.47301808558404445648193359375">
        <ele>170.399993896484375</ele>
        <time>2022-05-15T07:28:13.000Z</time>
      </trkpt>
      <trkpt lat="41.66949980892241001129150390625" lon="2.47292437590658664703369140625">
        <ele>170.399993896484375</ele>
        <time>2022-05-15T07:28:14.000Z</time>
      </trkpt>
      <trkpt lat="41.66947231628000736236572265625" lon="2.47272874228656291961669921875">
        <ele>170.399993896484375</ele>
        <time>2022-05-15T07:28:16.000Z</time>
      </trkpt>
      <trkpt lat="41.66944968514144420623779296875" lon="2.47252623550593852996826171875">
        <ele>170.399993896484375</ele>
        <time>2022-05-15T07:28:18.000Z</time>
      </trkpt>
      <trkpt lat="41.6694224439561367034912109375" lon="2.47221526689827442169189453125">
        <ele>170.1999969482421875</ele>
        <time>2022-05-15T07:28:21.000Z</time>
      </trkpt>
      <trkpt lat="41.6694016568362712860107421875" lon="2.471910081803798675537109375">
        <ele>170.1999969482421875</ele>
        <time>2022-05-15T07:28:24.000Z</time>
      </trkpt>
      <trkpt lat="41.66933720000088214874267578125" lon="2.47112696059048175811767578125">
        <ele>169.8000030517578125</ele>
        <time>2022-05-15T07:28:32.000Z</time>
      </trkpt>
      <trkpt lat="41.669331081211566925048828125" lon="2.47103660367429256439208984375">
        <ele>169.600006103515625</ele>
        <time>2022-05-15T07:28:33.000Z</time>
      </trkpt>
      <trkpt lat="41.66926159523427486419677734375" lon="2.47034023515880107879638671875">
        <ele>169.600006103515625</ele>
        <time>2022-05-15T07:28:41.000Z</time>
      </trkpt>
      <trkpt lat="41.66916822083294391632080078125" lon="2.46991711668670177459716796875">
        <ele>169.8000030517578125</ele>
        <time>2022-05-15T07:28:46.000Z</time>
      </trkpt>
      <trkpt lat="41.6691431589424610137939453125" lon="2.4698355607688426971435546875">
        <ele>169.8000030517578125</ele>
        <time>2022-05-15T07:28:47.000Z</time>
      </trkpt>
      <trkpt lat="41.66911692358553409576416015625" lon="2.46975593268871307373046875">
        <ele>170</ele>
        <time>2022-05-15T07:28:48.000Z</time>
      </trkpt>
      <trkpt lat="41.6688772849738597869873046875" lon="2.46923935599625110626220703125">
        <ele>170.399993896484375</ele>
        <time>2022-05-15T07:28:55.000Z</time>
      </trkpt>
      <trkpt lat="41.66863580234348773956298828125" lon="2.46879327110946178436279296875">
        <ele>171</ele>
        <time>2022-05-15T07:29:02.000Z</time>
      </trkpt>
      <trkpt lat="41.668583415448665618896484375" lon="2.46864952147006988525390625">
        <ele>171</ele>
        <time>2022-05-15T07:29:04.000Z</time>
      </trkpt>
      <trkpt lat="41.66854628361761569976806640625" lon="2.46849504299461841583251953125">
        <ele>171</ele>
        <time>2022-05-15T07:29:06.000Z</time>
      </trkpt>
      <trkpt lat="41.66851795278489589691162109375" lon="2.46842295862734317779541015625">
        <ele>170.8000030517578125</ele>
        <time>2022-05-15T07:29:07.000Z</time>
      </trkpt>
      <trkpt lat="41.66847889311611652374267578125" lon="2.46836252510547637939453125">
        <ele>171</ele>
        <time>2022-05-15T07:29:08.000Z</time>
      </trkpt>
      <trkpt lat="41.668427847325801849365234375" lon="2.4683234654366970062255859375">
        <ele>171</ele>
        <time>2022-05-15T07:29:09.000Z</time>
      </trkpt>
      <trkpt lat="41.66837160475552082061767578125" lon="2.46830309741199016571044921875">
        <ele>171.1999969482421875</ele>
        <time>2022-05-15T07:29:10.000Z</time>
      </trkpt>
      <trkpt lat="41.668191812932491302490234375" lon="2.46829010546207427978515625">
        <ele>171.1999969482421875</ele>
        <time>2022-05-15T07:29:13.000Z</time>
      </trkpt>
      <trkpt lat="41.66812869720160961151123046875" lon="2.468279711902141571044921875">
        <ele>171.1999969482421875</ele>
        <time>2022-05-15T07:29:14.000Z</time>
      </trkpt>
      <trkpt lat="41.667825691401958465576171875" lon="2.46815599501132965087890625">
        <ele>171.600006103515625</ele>
        <time>2022-05-15T07:29:19.000Z</time>
      </trkpt>
      <trkpt lat="41.66756861843168735504150390625" lon="2.46795088984072208404541015625">
        <ele>171.600006103515625</ele>
        <time>2022-05-15T07:29:24.000Z</time>
      </trkpt>
      <trkpt lat="41.66751782409846782684326171875" lon="2.4679070524871349334716796875">
        <ele>171.399993896484375</ele>
        <time>2022-05-15T07:29:25.000Z</time>
      </trkpt>
      <trkpt lat="41.66746585629880428314208984375" lon="2.467863298952579498291015625">
        <ele>171.8000030517578125</ele>
        <time>2022-05-15T07:29:26.000Z</time>
      </trkpt>
      <trkpt lat="41.66741372086107730865478515625" lon="2.467819713056087493896484375">
        <ele>171.8000030517578125</ele>
        <time>2022-05-15T07:29:27.000Z</time>
      </trkpt>
      <trkpt lat="41.6673081927001476287841796875" lon="2.4677300266921520233154296875">
        <ele>172</ele>
        <time>2022-05-15T07:29:29.000Z</time>
      </trkpt>
      <trkpt lat="41.66704826988279819488525390625" lon="2.46750765480101108551025390625">
        <ele>172.399993896484375</ele>
        <time>2022-05-15T07:29:34.000Z</time>
      </trkpt>
      <trkpt lat="41.66694383136928081512451171875" lon="2.46741947717964649200439453125">
        <ele>172.600006103515625</ele>
        <time>2022-05-15T07:29:35.000Z</time>
      </trkpt>
      <trkpt lat="41.6667854972183704376220703125" lon="2.46728695929050445556640625">
        <ele>172.8000030517578125</ele>
        <time>2022-05-15T07:29:38.000Z</time>
      </trkpt>
      <trkpt lat="41.6665782965719699859619140625" lon="2.4671131186187267303466796875">
        <ele>173.1999969482421875</ele>
        <time>2022-05-15T07:29:43.000Z</time>
      </trkpt>
      <trkpt lat="41.666327677667140960693359375" lon="2.466897033154964447021484375">
        <ele>173.399993896484375</ele>
        <time>2022-05-15T07:29:48.000Z</time>
      </trkpt>
      <trkpt lat="41.66608460247516632080078125" lon="2.46669444255530834197998046875">
        <ele>173.600006103515625</ele>
        <time>2022-05-15T07:29:53.000Z</time>
      </trkpt>
      <trkpt lat="41.665807999670505523681640625" lon="2.46645807288587093353271484375">
        <ele>173.600006103515625</ele>
        <time>2022-05-15T07:29:58.000Z</time>
      </trkpt>
      <trkpt lat="41.665616892278194427490234375" lon="2.466295547783374786376953125">
        <ele>174.399993896484375</ele>
        <time>2022-05-15T07:30:03.000Z</time>
      </trkpt>
      <trkpt lat="41.6653766669332981109619140625" lon="2.46608390472829341888427734375">
        <ele>175</ele>
        <time>2022-05-15T07:30:08.000Z</time>
      </trkpt>
      <trkpt lat="41.66532880626618862152099609375" lon="2.46604316867887973785400390625">
        <ele>175</ele>
        <time>2022-05-15T07:30:09.000Z</time>
      </trkpt>
      <trkpt lat="41.66513937525451183319091796875" lon="2.4658809788525104522705078125">
        <ele>175.399993896484375</ele>
        <time>2022-05-15T07:30:13.000Z</time>
      </trkpt>
      <trkpt lat="41.6647577472031116485595703125" lon="2.465545870363712310791015625">
        <ele>176.1999969482421875</ele>
        <time>2022-05-15T07:30:21.000Z</time>
      </trkpt>
      <trkpt lat="41.66443093679845333099365234375" lon="2.4652732908725738525390625">
        <ele>176.8000030517578125</ele>
        <time>2022-05-15T07:30:28.000Z</time>
      </trkpt>
      <trkpt lat="41.66430336423218250274658203125" lon="2.46515552513301372528076171875">
        <ele>177</ele>
        <time>2022-05-15T07:30:31.000Z</time>
      </trkpt>
      <trkpt lat="41.6641767136752605438232421875" lon="2.4650451354682445526123046875">
        <ele>177.1999969482421875</ele>
        <time>2022-05-15T07:30:34.000Z</time>
      </trkpt>
      <trkpt lat="41.66400731541216373443603515625" lon="2.46489987708628177642822265625">
        <ele>177.399993896484375</ele>
        <time>2022-05-15T07:30:38.000Z</time>
      </trkpt>
      <trkpt lat="41.663924753665924072265625" lon="2.464824020862579345703125">
        <ele>177.600006103515625</ele>
        <time>2022-05-15T07:30:40.000Z</time>
      </trkpt>
      <trkpt lat="41.6636659204959869384765625" lon="2.46458672918379306793212890625">
        <ele>178.1999969482421875</ele>
        <time>2022-05-15T07:30:45.000Z</time>
      </trkpt>
      <trkpt lat="41.6635800898075103759765625" lon="2.4645127169787883758544921875">
        <ele>178.8000030517578125</ele>
        <time>2022-05-15T07:30:48.000Z</time>
      </trkpt>
      <trkpt lat="41.66341303847730159759521484375" lon="2.46436544694006443023681640625">
        <ele>179.1999969482421875</ele>
        <time>2022-05-15T07:30:52.000Z</time>
      </trkpt>
      <trkpt lat="41.6632925905287265777587890625" lon="2.46425799094140529632568359375">
        <ele>180.1999969482421875</ele>
        <time>2022-05-15T07:30:55.000Z</time>
      </trkpt>
      <trkpt lat="41.6631822846829891204833984375" lon="2.464150451123714447021484375">
        <ele>180.600006103515625</ele>
        <time>2022-05-15T07:30:58.000Z</time>
      </trkpt>
      <trkpt lat="41.6630746610462665557861328125" lon="2.46403335593640804290771484375">
        <ele>181.399993896484375</ele>
        <time>2022-05-15T07:31:01.000Z</time>
      </trkpt>
      <trkpt lat="41.66304054670035839080810546875" lon="2.4639960564672946929931640625">
        <ele>181.600006103515625</ele>
        <time>2022-05-15T07:31:02.000Z</time>
      </trkpt>
      <trkpt lat="41.66297256946563720703125" lon="2.46391475200653076171875">
        <ele>182</ele>
        <time>2022-05-15T07:31:03.000Z</time>
      </trkpt>
      <trkpt lat="41.66293912567198276519775390625" lon="2.4638720043003559112548828125">
        <ele>182.600006103515625</ele>
        <time>2022-05-15T07:31:05.000Z</time>
      </trkpt>
      <trkpt lat="41.66290559805929660797119140625" lon="2.4638302624225616455078125">
        <ele>183</ele>
        <time>2022-05-15T07:31:06.000Z</time>
      </trkpt>
      <trkpt lat="41.6628731600940227508544921875" lon="2.46378935873508453369140625">
        <ele>183.1999969482421875</ele>
        <time>2022-05-15T07:31:07.000Z</time>
      </trkpt>
      <trkpt lat="41.66268297471106052398681640625" lon="2.46352289803326129913330078125">
        <ele>184.8000030517578125</ele>
        <time>2022-05-15T07:31:13.000Z</time>
      </trkpt>
      <trkpt lat="41.66265179403126239776611328125" lon="2.46347486972808837890625">
        <ele>184.8000030517578125</ele>
        <time>2022-05-15T07:31:14.000Z</time>
      </trkpt>
      <trkpt lat="41.66258834302425384521484375" lon="2.46337722055613994598388671875">
        <ele>185</ele>
        <time>2022-05-15T07:31:15.000Z</time>
      </trkpt>
      <trkpt lat="41.66247158311307430267333984375" lon="2.46318477205932140350341796875">
        <ele>186</ele>
        <time>2022-05-15T07:31:19.000Z</time>
      </trkpt>
      <trkpt lat="41.66233998723328113555908203125" lon="2.46293918229639530181884765625">
        <ele>186.600006103515625</ele>
        <time>2022-05-15T07:31:24.000Z</time>
      </trkpt>
      <trkpt lat="41.66217327117919921875" lon="2.46258915401995182037353515625">
        <ele>188</ele>
        <time>2022-05-15T07:31:32.000Z</time>
      </trkpt>
      <trkpt lat="41.6621271707117557525634765625" lon="2.4624806083738803863525390625">
        <ele>188.1999969482421875</ele>
        <time>2022-05-15T07:31:33.000Z</time>
      </trkpt>
      <trkpt lat="41.6621043719351291656494140625" lon="2.46242822147905826568603515625">
        <ele>188.1999969482421875</ele>
        <time>2022-05-15T07:31:34.000Z</time>
      </trkpt>
      <trkpt lat="41.66197545826435089111328125" lon="2.46208908967673778533935546875">
        <ele>188.600006103515625</ele>
        <time>2022-05-15T07:31:40.000Z</time>
      </trkpt>
      <trkpt lat="41.66195592842996120452880859375" lon="2.46202689595520496368408203125">
        <ele>188.600006103515625</ele>
        <time>2022-05-15T07:31:41.000Z</time>
      </trkpt>
      <trkpt lat="41.66188585571944713592529296875" lon="2.461778707802295684814453125">
        <ele>189.1999969482421875</ele>
        <time>2022-05-15T07:31:45.000Z</time>
      </trkpt>
      <trkpt lat="41.66179717518389225006103515625" lon="2.4614779651165008544921875">
        <ele>189.600006103515625</ele>
        <time>2022-05-15T07:31:50.000Z</time>
      </trkpt>
      <trkpt lat="41.661746799945831298828125" lon="2.4613011069595813751220703125">
        <ele>190</ele>
        <time>2022-05-15T07:31:54.000Z</time>
      </trkpt>
      <trkpt lat="41.6616802476346492767333984375" lon="2.461069263517856597900390625">
        <ele>190.399993896484375</ele>
        <time>2022-05-15T07:31:57.000Z</time>
      </trkpt>
      <trkpt lat="41.66166373528540134429931640625" lon="2.46101201511919498443603515625">
        <ele>190.399993896484375</ele>
        <time>2022-05-15T07:31:58.000Z</time>
      </trkpt>
      <trkpt lat="41.66164831258356571197509765625" lon="2.46095434762537479400634765625">
        <ele>190.600006103515625</ele>
        <time>2022-05-15T07:31:59.000Z</time>
      </trkpt>
      <trkpt lat="41.6616336442530155181884765625" lon="2.4608959257602691650390625">
        <ele>190.8000030517578125</ele>
        <time>2022-05-15T07:32:00.000Z</time>
      </trkpt>
      <trkpt lat="41.66153046302497386932373046875" lon="2.46053718030452728271484375">
        <ele>191.399993896484375</ele>
        <time>2022-05-15T07:32:06.000Z</time>
      </trkpt>
      <trkpt lat="41.66147262789309024810791015625" lon="2.46035051532089710235595703125">
        <ele>191.600006103515625</ele>
        <time>2022-05-15T07:32:09.000Z</time>
      </trkpt>
      <trkpt lat="41.66141378693282604217529296875" lon="2.46016359888017177581787109375">
        <ele>192</ele>
        <time>2022-05-15T07:32:12.000Z</time>
      </trkpt>
      <trkpt lat="41.66135578416287899017333984375" lon="2.4599747546017169952392578125">
        <ele>192.399993896484375</ele>
        <time>2022-05-15T07:32:16.000Z</time>
      </trkpt>
      <trkpt lat="41.66131831705570220947265625" lon="2.4598503671586513519287109375">
        <ele>192.1999969482421875</ele>
        <time>2022-05-15T07:32:17.000Z</time>
      </trkpt>
      <trkpt lat="41.6612802632153034210205078125" lon="2.4597219564020633697509765625">
        <ele>192.600006103515625</ele>
        <time>2022-05-15T07:32:19.000Z</time>
      </trkpt>
      <trkpt lat="41.66109544225037097930908203125" lon="2.45917336083948612213134765625">
        <ele>193</ele>
        <time>2022-05-15T07:32:27.000Z</time>
      </trkpt>
      <trkpt lat="41.66101413778960704803466796875" lon="2.45888334698975086212158203125">
        <ele>193</ele>
        <time>2022-05-15T07:32:31.000Z</time>
      </trkpt>
      <trkpt lat="41.66096602566540241241455078125" lon="2.45865695178508758544921875">
        <ele>193</ele>
        <time>2022-05-15T07:32:34.000Z</time>
      </trkpt>
      <trkpt lat="41.66091305203735828399658203125" lon="2.45818077586591243743896484375">
        <ele>192.8000030517578125</ele>
        <time>2022-05-15T07:32:40.000Z</time>
      </trkpt>
      <trkpt lat="41.66090031154453754425048828125" lon="2.45802235789597034454345703125">
        <ele>192.8000030517578125</ele>
        <time>2022-05-15T07:32:42.000Z</time>
      </trkpt>
      <trkpt lat="41.66090031154453754425048828125" lon="2.45802235789597034454345703125">
        <ele>192.8000030517578125</ele>
        <time>2022-05-15T07:32:43.000Z</time>
      </trkpt>
      <trkpt lat="41.6608963720500469207763671875" lon="2.45786813087761402130126953125">
        <ele>192.8000030517578125</ele>
        <time>2022-05-15T07:32:44.000Z</time>
      </trkpt>
      <trkpt lat="41.66089997626841068267822265625" lon="2.45779369957745075225830078125">
        <ele>192.600006103515625</ele>
        <time>2022-05-15T07:32:45.000Z</time>
      </trkpt>
      <trkpt lat="41.660906933248043060302734375" lon="2.45757208205759525299072265625">
        <ele>192.8000030517578125</ele>
        <time>2022-05-15T07:32:48.000Z</time>
      </trkpt>
      <trkpt lat="41.66088044643402099609375" lon="2.45687386952340602874755859375">
        <ele>193.600006103515625</ele>
        <time>2022-05-15T07:32:58.000Z</time>
      </trkpt>
      <trkpt lat="41.660844571888446807861328125" lon="2.45631462894380092620849609375">
        <ele>194</ele>
        <time>2022-05-15T07:33:06.000Z</time>
      </trkpt>
      <trkpt lat="41.6608390398323535919189453125" lon="2.45624606497585773468017578125">
        <ele>193.8000030517578125</ele>
        <time>2022-05-15T07:33:07.000Z</time>
      </trkpt>
      <trkpt lat="41.6607565619051456451416015625" lon="2.4556869082152843475341796875">
        <ele>194.8000030517578125</ele>
        <time>2022-05-15T07:33:15.000Z</time>
      </trkpt>
      <trkpt lat="41.6606435738503932952880859375" lon="2.455281727015972137451171875">
        <ele>195.399993896484375</ele>
        <time>2022-05-15T07:33:21.000Z</time>
      </trkpt>
      <trkpt lat="41.66059680283069610595703125" lon="2.4551504664123058319091796875">
        <ele>195.8000030517578125</ele>
        <time>2022-05-15T07:33:23.000Z</time>
      </trkpt>
      <trkpt lat="41.66048146784305572509765625" lon="2.45490261353552341461181640625">
        <ele>196.1999969482421875</ele>
        <time>2022-05-15T07:33:27.000Z</time>
      </trkpt>
      <trkpt lat="41.6604499518871307373046875" lon="2.4548435211181640625">
        <ele>196.399993896484375</ele>
        <time>2022-05-15T07:33:28.000Z</time>
      </trkpt>
      <trkpt lat="41.66038281284272670745849609375" lon="2.45472977869212627410888671875">
        <ele>196.600006103515625</ele>
        <time>2022-05-15T07:33:30.000Z</time>
      </trkpt>
      <trkpt lat="41.66015163995325565338134765625" lon="2.45440321974456310272216796875">
        <ele>197.399993896484375</ele>
        <time>2022-05-15T07:33:36.000Z</time>
      </trkpt>
      <trkpt lat="41.65999691002070903778076171875" lon="2.4542093463242053985595703125">
        <ele>198</ele>
        <time>2022-05-15T07:33:40.000Z</time>
      </trkpt>
      <trkpt lat="41.65995902381837368011474609375" lon="2.4541647545993328094482421875">
        <ele>198</ele>
        <time>2022-05-15T07:33:41.000Z</time>
      </trkpt>
      <trkpt lat="41.659887023270130157470703125" lon="2.45407112874090671539306640625">
        <ele>198.399993896484375</ele>
        <time>2022-05-15T07:33:43.000Z</time>
      </trkpt>
      <trkpt lat="41.659554429352283477783203125" lon="2.4536432325839996337890625">
        <ele>199</ele>
        <time>2022-05-15T07:33:52.000Z</time>
      </trkpt>
      <trkpt lat="41.6594476439058780670166015625" lon="2.45349696837365627288818359375">
        <ele>199.1999969482421875</ele>
        <time>2022-05-15T07:33:55.000Z</time>
      </trkpt>
      <trkpt lat="41.65922644548118114471435546875" lon="2.45316982269287109375">
        <ele>199.600006103515625</ele>
        <time>2022-05-15T07:34:01.000Z</time>
      </trkpt>
      <trkpt lat="41.6591881401836872100830078125" lon="2.453113831579685211181640625">
        <ele>199.600006103515625</ele>
        <time>2022-05-15T07:34:02.000Z</time>
      </trkpt>
      <trkpt lat="41.65907322429120540618896484375" lon="2.4529470317065715789794921875">
        <ele>200.1999969482421875</ele>
        <time>2022-05-15T07:34:05.000Z</time>
      </trkpt>
      <trkpt lat="41.65899208746850490570068359375" lon="2.45283815078437328338623046875">
        <ele>200.399993896484375</ele>
        <time>2022-05-15T07:34:07.000Z</time>
      </trkpt>
      <trkpt lat="41.65895135141909122467041015625" lon="2.45278500951826572418212890625">
        <ele>200.399993896484375</ele>
        <time>2022-05-15T07:34:08.000Z</time>
      </trkpt>
      <trkpt lat="41.65869704447686672210693359375" lon="2.45239273644983768463134765625">
        <ele>201</ele>
        <time>2022-05-15T07:34:16.000Z</time>
      </trkpt>
      <trkpt lat="41.65866385214030742645263671875" lon="2.45234060101211071014404296875">
        <ele>201.1999969482421875</ele>
        <time>2022-05-15T07:34:17.000Z</time>
      </trkpt>
      <trkpt lat="41.6585616767406463623046875" lon="2.45218486525118350982666015625">
        <ele>201.399993896484375</ele>
        <time>2022-05-15T07:34:19.000Z</time>
      </trkpt>
      <trkpt lat="41.6583858244121074676513671875" lon="2.45192284695804119110107421875">
        <ele>202</ele>
        <time>2022-05-15T07:34:24.000Z</time>
      </trkpt>
      <trkpt lat="41.65835120715200901031494140625" lon="2.45187289081513881683349609375">
        <ele>202.399993896484375</ele>
        <time>2022-05-15T07:34:25.000Z</time>
      </trkpt>
      <trkpt lat="41.65825230069458484649658203125" lon="2.4517132155597209930419921875">
        <ele>203</ele>
        <time>2022-05-15T07:34:28.000Z</time>
      </trkpt>
      <trkpt lat="41.658186502754688262939453125" lon="2.4516015686094760894775390625">
        <ele>203.399993896484375</ele>
        <time>2022-05-15T07:34:30.000Z</time>
      </trkpt>
      <trkpt lat="41.658120453357696533203125" lon="2.45148849673569202423095703125">
        <ele>203.399993896484375</ele>
        <time>2022-05-15T07:34:32.000Z</time>
      </trkpt>
      <trkpt lat="41.6580160148441791534423828125" lon="2.45131147094070911407470703125">
        <ele>203.600006103515625</ele>
        <time>2022-05-15T07:34:35.000Z</time>
      </trkpt>
      <trkpt lat="41.65787964127957820892333984375" lon="2.45106889866292476654052734375">
        <ele>204.1999969482421875</ele>
        <time>2022-05-15T07:34:39.000Z</time>
      </trkpt>
      <trkpt lat="41.6576143540441989898681640625" lon="2.45057880878448486328125">
        <ele>205</ele>
        <time>2022-05-15T07:34:47.000Z</time>
      </trkpt>
      <trkpt lat="41.65743389166891574859619140625" lon="2.4502688460052013397216796875">
        <ele>205.1999969482421875</ele>
        <time>2022-05-15T07:34:52.000Z</time>
      </trkpt>
      <trkpt lat="41.65736298076808452606201171875" lon="2.45014353655278682708740234375">
        <ele>205.1999969482421875</ele>
        <time>2022-05-15T07:34:54.000Z</time>
      </trkpt>
      <trkpt lat="41.65732794441282749176025390625" lon="2.450082600116729736328125">
        <ele>205.1999969482421875</ele>
        <time>2022-05-15T07:34:55.000Z</time>
      </trkpt>
      <trkpt lat="41.65729206986725330352783203125" lon="2.45002434588968753814697265625">
        <ele>205.1999969482421875</ele>
        <time>2022-05-15T07:34:56.000Z</time>
      </trkpt>
      <trkpt lat="41.65722216479480266571044921875" lon="2.44990398176014423370361328125">
        <ele>205.1999969482421875</ele>
        <time>2022-05-15T07:34:58.000Z</time>
      </trkpt>
      <trkpt lat="41.65718997828662395477294921875" lon="2.4498477391898632049560546875">
        <ele>205.1999969482421875</ele>
        <time>2022-05-15T07:34:59.000Z</time>
      </trkpt>
      <trkpt lat="41.6571583785116672515869140625" lon="2.44978529401123523712158203125">
        <ele>205.1999969482421875</ele>
        <time>2022-05-15T07:35:00.000Z</time>
      </trkpt>
      <trkpt lat="41.6571583785116672515869140625" lon="2.44978529401123523712158203125">
        <ele>205</ele>
        <time>2022-05-15T07:35:01.000Z</time>
      </trkpt>
      <trkpt lat="41.6569335758686065673828125" lon="2.4493518657982349395751953125">
        <ele>205.1999969482421875</ele>
        <time>2022-05-15T07:35:08.000Z</time>
      </trkpt>
      <trkpt lat="41.65685017593204975128173828125" lon="2.449229992926120758056640625">
        <ele>205.1999969482421875</ele>
        <time>2022-05-15T07:35:09.000Z</time>
      </trkpt>
      <trkpt lat="41.6566926799714565277099609375" lon="2.44898314587771892547607421875">
        <ele>205.399993896484375</ele>
        <time>2022-05-15T07:35:13.000Z</time>
      </trkpt>
      <trkpt lat="41.6565055958926677703857421875" lon="2.448674105107784271240234375">
        <ele>205.399993896484375</ele>
        <time>2022-05-15T07:35:18.000Z</time>
      </trkpt>
      <trkpt lat="41.656468212604522705078125" lon="2.44861266575753688812255859375">
        <ele>205.1999969482421875</ele>
        <time>2022-05-15T07:35:19.000Z</time>
      </trkpt>
      <trkpt lat="41.65643309243023395538330078125" lon="2.448552735149860382080078125">
        <ele>205.399993896484375</ele>
        <time>2022-05-15T07:35:20.000Z</time>
      </trkpt>
      <trkpt lat="41.65639839135110378265380859375" lon="2.44849163107573986053466796875">
        <ele>205.399993896484375</ele>
        <time>2022-05-15T07:35:21.000Z</time>
      </trkpt>
      <trkpt lat="41.656363271176815032958984375" lon="2.4484288506209850311279296875">
        <ele>205.399993896484375</ele>
        <time>2022-05-15T07:35:22.000Z</time>
      </trkpt>
      <trkpt lat="41.6562219522893428802490234375" lon="2.448167838156223297119140625">
        <ele>205.600006103515625</ele>
        <time>2022-05-15T07:35:26.000Z</time>
      </trkpt>
      <trkpt lat="41.65604903362691402435302734375" lon="2.44784790091216564178466796875">
        <ele>206</ele>
        <time>2022-05-15T07:35:31.000Z</time>
      </trkpt>
      <trkpt lat="41.6559104807674884796142578125" lon="2.4475920014083385467529296875">
        <ele>206</ele>
        <time>2022-05-15T07:35:35.000Z</time>
      </trkpt>
      <trkpt lat="41.65574208833277225494384765625" lon="2.447285391390323638916015625">
        <ele>206.1999969482421875</ele>
        <time>2022-05-15T07:35:40.000Z</time>
      </trkpt>
      <trkpt lat="41.65570604614913463592529296875" lon="2.4472265504300594329833984375">
        <ele>206.1999969482421875</ele>
        <time>2022-05-15T07:35:41.000Z</time>
      </trkpt>
      <trkpt lat="41.655671261250972747802734375" lon="2.44716712273657321929931640625">
        <ele>206.399993896484375</ele>
        <time>2022-05-15T07:35:42.000Z</time>
      </trkpt>
      <trkpt lat="41.65560428984463214874267578125" lon="2.44705329649150371551513671875">
        <ele>206.1999969482421875</ele>
        <time>2022-05-15T07:35:44.000Z</time>
      </trkpt>
      <trkpt lat="41.6555353067815303802490234375" lon="2.44693896733224391937255859375">
        <ele>206.1999969482421875</ele>
        <time>2022-05-15T07:35:46.000Z</time>
      </trkpt>
      <trkpt lat="41.65549884550273418426513671875" lon="2.446880042552947998046875">
        <ele>206.399993896484375</ele>
        <time>2022-05-15T07:35:47.000Z</time>
      </trkpt>
      <trkpt lat="41.65532902814447879791259765625" lon="2.44661291129887104034423828125">
        <ele>206.600006103515625</ele>
        <time>2022-05-15T07:35:52.000Z</time>
      </trkpt>
      <trkpt lat="41.6552959196269512176513671875" lon="2.44656127877533435821533203125">
        <ele>207</ele>
        <time>2022-05-15T07:35:53.000Z</time>
      </trkpt>
      <trkpt lat="41.65523129515349864959716796875" lon="2.44645549915730953216552734375">
        <ele>207</ele>
        <time>2022-05-15T07:35:55.000Z</time>
      </trkpt>
      <trkpt lat="41.6551338136196136474609375" lon="2.44630009867250919342041015625">
        <ele>207.600006103515625</ele>
        <time>2022-05-15T07:35:58.000Z</time>
      </trkpt>
      <trkpt lat="41.6550669260323047637939453125" lon="2.44620001874864101409912109375">
        <ele>207.8000030517578125</ele>
        <time>2022-05-15T07:36:00.000Z</time>
      </trkpt>
      <trkpt lat="41.6550012119114398956298828125" lon="2.4460990168154239654541015625">
        <ele>208.1999969482421875</ele>
        <time>2022-05-15T07:36:02.000Z</time>
      </trkpt>
      <trkpt lat="41.6549033112823963165283203125" lon="2.4459451250731945037841796875">
        <ele>209</ele>
        <time>2022-05-15T07:36:05.000Z</time>
      </trkpt>
      <trkpt lat="41.65487171150743961334228515625" lon="2.445898689329624176025390625">
        <ele>209.1999969482421875</ele>
        <time>2022-05-15T07:36:06.000Z</time>
      </trkpt>
      <trkpt lat="41.6548414528369903564453125" lon="2.44584864936769008636474609375">
        <ele>209.1999969482421875</ele>
        <time>2022-05-15T07:36:07.000Z</time>
      </trkpt>
      <trkpt lat="41.65473072789609432220458984375" lon="2.44564413093030452728271484375">
        <ele>209.8000030517578125</ele>
        <time>2022-05-15T07:36:11.000Z</time>
      </trkpt>
      <trkpt lat="41.65464699268341064453125" lon="2.4454884789884090423583984375">
        <ele>210.399993896484375</ele>
        <time>2022-05-15T07:36:14.000Z</time>
      </trkpt>
      <trkpt lat="41.654593683779239654541015625" lon="2.44538429193198680877685546875">
        <ele>210.8000030517578125</ele>
        <time>2022-05-15T07:36:16.000Z</time>
      </trkpt>
      <trkpt lat="41.6545670293271541595458984375" lon="2.4453310668468475341796875">
        <ele>211</ele>
        <time>2022-05-15T07:36:17.000Z</time>
      </trkpt>
      <trkpt lat="41.6545190848410129547119140625" lon="2.44522587396204471588134765625">
        <ele>211.399993896484375</ele>
        <time>2022-05-15T07:36:19.000Z</time>
      </trkpt>
      <trkpt lat="41.65441774763166904449462890625" lon="2.44501481764018535614013671875">
        <ele>212</ele>
        <time>2022-05-15T07:36:23.000Z</time>
      </trkpt>
      <trkpt lat="41.65431372821331024169921875" lon="2.44480141438543796539306640625">
        <ele>211.8000030517578125</ele>
        <time>2022-05-15T07:36:27.000Z</time>
      </trkpt>
      <trkpt lat="41.65428749285638332366943359375" lon="2.44475103914737701416015625">
        <ele>213.399993896484375</ele>
        <time>2022-05-15T07:36:28.000Z</time>
      </trkpt>
      <trkpt lat="41.6542381234467029571533203125" lon="2.44465372525155544281005859375">
        <ele>214</ele>
        <time>2022-05-15T07:36:30.000Z</time>
      </trkpt>
      <trkpt lat="41.65421473793685436248779296875" lon="2.4446030147373676300048828125">
        <ele>214.1999969482421875</ele>
        <time>2022-05-15T07:36:31.000Z</time>
      </trkpt>
      <trkpt lat="41.65404684841632843017578125" lon="2.444262206554412841796875">
        <ele>215.600006103515625</ele>
        <time>2022-05-15T07:36:38.000Z</time>
      </trkpt>
      <trkpt lat="41.65387460030615329742431640625" lon="2.4439202249050140380859375">
        <ele>216.8000030517578125</ele>
        <time>2022-05-15T07:36:45.000Z</time>
      </trkpt>
      <trkpt lat="41.653850041329860687255859375" lon="2.44387253187596797943115234375">
        <ele>217</ele>
        <time>2022-05-15T07:36:46.000Z</time>
      </trkpt>
      <trkpt lat="41.65369908325374126434326171875" lon="2.44356676004827022552490234375">
        <ele>217.8000030517578125</ele>
        <time>2022-05-15T07:36:52.000Z</time>
      </trkpt>
      <trkpt lat="41.6536721773445606231689453125" lon="2.4435138702392578125">
        <ele>218.1999969482421875</ele>
        <time>2022-05-15T07:36:53.000Z</time>
      </trkpt>
      <trkpt lat="41.65361627005040645599365234375" lon="2.44340633042156696319580078125">
        <ele>218.8000030517578125</ele>
        <time>2022-05-15T07:36:55.000Z</time>
      </trkpt>
      <trkpt lat="41.65358928032219409942626953125" lon="2.44335201568901538848876953125">
        <ele>219</ele>
        <time>2022-05-15T07:36:56.000Z</time>
      </trkpt>
      <trkpt lat="41.6534482128918170928955078125" lon="2.4430795200169086456298828125">
        <ele>219.600006103515625</ele>
        <time>2022-05-15T07:37:01.000Z</time>
      </trkpt>
      <trkpt lat="41.653418876230716705322265625" lon="2.4430252052843570709228515625">
        <ele>219.600006103515625</ele>
        <time>2022-05-15T07:37:02.000Z</time>
      </trkpt>
      <trkpt lat="41.6532790660858154296875" lon="2.442747093737125396728515625">
        <ele>220.399993896484375</ele>
        <time>2022-05-15T07:37:07.000Z</time>
      </trkpt>
      <trkpt lat="41.65322131477296352386474609375" lon="2.442637123167514801025390625">
        <ele>220.600006103515625</ele>
        <time>2022-05-15T07:37:09.000Z</time>
      </trkpt>
      <trkpt lat="41.65319197811186313629150390625" lon="2.44258205406367778778076171875">
        <ele>220.8000030517578125</ele>
        <time>2022-05-15T07:37:10.000Z</time>
      </trkpt>
      <trkpt lat="41.65316280908882617950439453125" lon="2.44252706877887248992919921875">
        <ele>220.8000030517578125</ele>
        <time>2022-05-15T07:37:11.000Z</time>
      </trkpt>
      <trkpt lat="41.65296533145010471343994140625" lon="2.4421417526900768280029296875">
        <ele>221</ele>
        <time>2022-05-15T07:37:18.000Z</time>
      </trkpt>
      <trkpt lat="41.65293482132256031036376953125" lon="2.44208165444433689117431640625">
        <ele>221</ele>
        <time>2022-05-15T07:37:19.000Z</time>
      </trkpt>
      <trkpt lat="41.65290464647114276885986328125" lon="2.442020885646343231201171875">
        <ele>221.1999969482421875</ele>
        <time>2022-05-15T07:37:20.000Z</time>
      </trkpt>
      <trkpt lat="41.652740277349948883056640625" lon="2.4417127668857574462890625">
        <ele>221.1999969482421875</ele>
        <time>2022-05-15T07:37:25.000Z</time>
      </trkpt>
      <trkpt lat="41.6524008102715015411376953125" lon="2.4402005039155483245849609375">
        <ele>222.8000030517578125</ele>
        <time>2022-05-15T07:37:47.000Z</time>
      </trkpt>
      <trkpt lat="41.65241539478302001953125" lon="2.44015046395361423492431640625">
        <ele>222.600006103515625</ele>
        <time>2022-05-15T07:37:48.000Z</time>
      </trkpt>
      <trkpt lat="41.65240424685180187225341796875" lon="2.43984418921172618865966796875">
        <ele>223.1999969482421875</ele>
        <time>2022-05-15T07:37:52.000Z</time>
      </trkpt>
      <trkpt lat="41.652402319014072418212890625" lon="2.4396265111863613128662109375">
        <ele>223.600006103515625</ele>
        <time>2022-05-15T07:37:55.000Z</time>
      </trkpt>
      <trkpt lat="41.65238798595964908599853515625" lon="2.43942526169121265411376953125">
        <ele>223.8000030517578125</ele>
        <time>2022-05-15T07:37:58.000Z</time>
      </trkpt>
      <trkpt lat="41.65237440727651119232177734375" lon="2.4389326572418212890625">
        <ele>224.8000030517578125</ele>
        <time>2022-05-15T07:38:05.000Z</time>
      </trkpt>
      <trkpt lat="41.65238128043711185455322265625" lon="2.43885814212262630462646484375">
        <ele>225</ele>
        <time>2022-05-15T07:38:06.000Z</time>
      </trkpt>
      <trkpt lat="41.6524140536785125732421875" lon="2.438558153808116912841796875">
        <ele>225.8000030517578125</ele>
        <time>2022-05-15T07:38:10.000Z</time>
      </trkpt>
      <trkpt lat="41.65243157185614109039306640625" lon="2.4384828843176364898681640625">
        <ele>226</ele>
        <time>2022-05-15T07:38:11.000Z</time>
      </trkpt>
      <trkpt lat="41.65249410085380077362060546875" lon="2.4381642043590545654296875">
        <ele>226.399993896484375</ele>
        <time>2022-05-15T07:38:15.000Z</time>
      </trkpt>
      <trkpt lat="41.65252427570521831512451171875" lon="2.43800184689462184906005859375">
        <ele>226.600006103515625</ele>
        <time>2022-05-15T07:38:17.000Z</time>
      </trkpt>
      <trkpt lat="41.65253944694995880126953125" lon="2.43791945278644561767578125">
        <ele>226.600006103515625</ele>
        <time>2022-05-15T07:38:18.000Z</time>
      </trkpt>
      <trkpt lat="41.6525557078421115875244140625" lon="2.4378369748592376708984375">
        <ele>226.8000030517578125</ele>
        <time>2022-05-15T07:38:19.000Z</time>
      </trkpt>
      <trkpt lat="41.6526938416063785552978515625" lon="2.4371665902435779571533203125">
        <ele>227.399993896484375</ele>
        <time>2022-05-15T07:38:27.000Z</time>
      </trkpt>
      <trkpt lat="41.6528598032891750335693359375" lon="2.43646007962524890899658203125">
        <ele>227.399993896484375</ele>
        <time>2022-05-15T07:38:35.000Z</time>
      </trkpt>
      <trkpt lat="41.65292761288583278656005859375" lon="2.43618833832442760467529296875">
        <ele>227.1999969482421875</ele>
        <time>2022-05-15T07:38:38.000Z</time>
      </trkpt>
      <trkpt lat="41.65311117656528949737548828125" lon="2.4354405887424945831298828125">
        <ele>227.1999969482421875</ele>
        <time>2022-05-15T07:38:46.000Z</time>
      </trkpt>
      <trkpt lat="41.6533023677766323089599609375" lon="2.43466836400330066680908203125">
        <ele>226.600006103515625</ele>
        <time>2022-05-15T07:38:54.000Z</time>
      </trkpt>
      <trkpt lat="41.65332801640033721923828125" lon="2.43457138538360595703125">
        <ele>226.399993896484375</ele>
        <time>2022-05-15T07:38:55.000Z</time>
      </trkpt>
      <trkpt lat="41.653353162109851837158203125" lon="2.43447415530681610107421875">
        <ele>226.399993896484375</ele>
        <time>2022-05-15T07:38:56.000Z</time>
      </trkpt>
      <trkpt lat="41.65337763726711273193359375" lon="2.43437985889613628387451171875">
        <ele>226.1999969482421875</ele>
        <time>2022-05-15T07:38:57.000Z</time>
      </trkpt>
      <trkpt lat="41.65345349349081516265869140625" lon="2.43409001268446445465087890625">
        <ele>226</ele>
        <time>2022-05-15T07:39:00.000Z</time>
      </trkpt>
      <trkpt lat="41.6535042040050029754638671875" lon="2.43389488197863101959228515625">
        <ele>225.8000030517578125</ele>
        <time>2022-05-15T07:39:02.000Z</time>
      </trkpt>
      <trkpt lat="41.653556339442729949951171875" lon="2.433700673282146453857421875">
        <ele>225.600006103515625</ele>
        <time>2022-05-15T07:39:04.000Z</time>
      </trkpt>
      <trkpt lat="41.65358391590416431427001953125" lon="2.4336019344627857208251953125">
        <ele>225.399993896484375</ele>
        <time>2022-05-15T07:39:05.000Z</time>
      </trkpt>
      <trkpt lat="41.6537093929946422576904296875" lon="2.4330980144441127777099609375">
        <ele>224.8000030517578125</ele>
        <time>2022-05-15T07:39:10.000Z</time>
      </trkpt>
      <trkpt lat="41.65386755950748920440673828125" lon="2.43247850798070430755615234375">
        <ele>224</ele>
        <time>2022-05-15T07:39:16.000Z</time>
      </trkpt>
      <trkpt lat="41.65392606519162654876708984375" lon="2.4322658590972423553466796875">
        <ele>223.600006103515625</ele>
        <time>2022-05-15T07:39:18.000Z</time>
      </trkpt>
      <trkpt lat="41.6541211120784282684326171875" lon="2.43147619999945163726806640625">
        <ele>222.600006103515625</ele>
        <time>2022-05-15T07:39:25.000Z</time>
      </trkpt>
      <trkpt lat="41.65414609014987945556640625" lon="2.4313609488308429718017578125">
        <ele>222.399993896484375</ele>
        <time>2022-05-15T07:39:26.000Z</time>
      </trkpt>
      <trkpt lat="41.65426972322165966033935546875" lon="2.43057413958013057708740234375">
        <ele>220.600006103515625</ele>
        <time>2022-05-15T07:39:33.000Z</time>
      </trkpt>
      <trkpt lat="41.65431180037558078765869140625" lon="2.43014506995677947998046875">
        <ele>219.8000030517578125</ele>
        <time>2022-05-15T07:39:37.000Z</time>
      </trkpt>
      <trkpt lat="41.65432034991681575775146484375" lon="2.42993057705461978912353515625">
        <ele>219.600006103515625</ele>
        <time>2022-05-15T07:39:39.000Z</time>
      </trkpt>
      <trkpt lat="41.65432202629745006561279296875" lon="2.42971516214311122894287109375">
        <ele>219.1999969482421875</ele>
        <time>2022-05-15T07:39:41.000Z</time>
      </trkpt>
      <trkpt lat="41.65428279899060726165771484375" lon="2.42905617691576480865478515625">
        <ele>218.600006103515625</ele>
        <time>2022-05-15T07:39:47.000Z</time>
      </trkpt>
      <trkpt lat="41.65425513871014118194580078125" lon="2.42883481085300445556640625">
        <ele>218.399993896484375</ele>
        <time>2022-05-15T07:39:49.000Z</time>
      </trkpt>
      <trkpt lat="41.654116250574588775634765625" lon="2.42807499133050441741943359375">
        <ele>217</ele>
        <time>2022-05-15T07:39:56.000Z</time>
      </trkpt>
      <trkpt lat="41.65408817119896411895751953125" lon="2.4279716424643993377685546875">
        <ele>217</ele>
        <time>2022-05-15T07:39:57.000Z</time>
      </trkpt>
      <trkpt lat="41.65389270521700382232666015625" lon="2.42737434804439544677734375">
        <ele>216.399993896484375</ele>
        <time>2022-05-15T07:40:03.000Z</time>
      </trkpt>
      <trkpt lat="41.65377334691584110260009765625" lon="2.42709212936460971832275390625">
        <ele>216</ele>
        <time>2022-05-15T07:40:06.000Z</time>
      </trkpt>
      <trkpt lat="41.6536155156791210174560546875" lon="2.42673397064208984375">
        <ele>216.1999969482421875</ele>
        <time>2022-05-15T07:40:10.000Z</time>
      </trkpt>
      <trkpt lat="41.65347361005842685699462890625" lon="2.42648326791822910308837890625">
        <ele>215.8000030517578125</ele>
        <time>2022-05-15T07:40:13.000Z</time>
      </trkpt>
      <trkpt lat="41.65327076800167560577392578125" lon="2.42616492323577404022216796875">
        <ele>215.600006103515625</ele>
        <time>2022-05-15T07:40:17.000Z</time>
      </trkpt>
      <trkpt lat="41.6531095840036869049072265625" lon="2.4259408749639987945556640625">
        <ele>215.399993896484375</ele>
        <time>2022-05-15T07:40:20.000Z</time>
      </trkpt>
      <trkpt lat="41.6528349928557872772216796875" lon="2.42555237375199794769287109375">
        <ele>215.399993896484375</ele>
        <time>2022-05-15T07:40:25.000Z</time>
      </trkpt>
      <trkpt lat="41.65277606807649135589599609375" lon="2.42547961883246898651123046875">
        <ele>215.1999969482421875</ele>
        <time>2022-05-15T07:40:26.000Z</time>
      </trkpt>
      <trkpt lat="41.65271303616464138031005859375" lon="2.42540921084582805633544921875">
        <ele>215.1999969482421875</ele>
        <time>2022-05-15T07:40:27.000Z</time>
      </trkpt>
      <trkpt lat="41.6524584777653217315673828125" lon="2.42514048703014850616455078125">
        <ele>214.8000030517578125</ele>
        <time>2022-05-15T07:40:31.000Z</time>
      </trkpt>
      <trkpt lat="41.65238949470221996307373046875" lon="2.4250751920044422149658203125">
        <ele>215</ele>
        <time>2022-05-15T07:40:32.000Z</time>
      </trkpt>
      <trkpt lat="41.6523220203816890716552734375" lon="2.42501056753098964691162109375">
        <ele>214.8000030517578125</ele>
        <time>2022-05-15T07:40:33.000Z</time>
      </trkpt>
      <trkpt lat="41.6522556357085704803466796875" lon="2.4249437637627124786376953125">
        <ele>214.8000030517578125</ele>
        <time>2022-05-15T07:40:34.000Z</time>
      </trkpt>
      <trkpt lat="41.65218950249254703521728515625" lon="2.42487763054668903350830078125">
        <ele>214.8000030517578125</ele>
        <time>2022-05-15T07:40:35.000Z</time>
      </trkpt>
      <trkpt lat="41.65212378837168216705322265625" lon="2.4248130060732364654541015625">
        <ele>214.600006103515625</ele>
        <time>2022-05-15T07:40:36.000Z</time>
      </trkpt>
      <trkpt lat="41.65185816586017608642578125" lon="2.4245625548064708709716796875">
        <ele>214.399993896484375</ele>
        <time>2022-05-15T07:40:40.000Z</time>
      </trkpt>
      <trkpt lat="41.65158784948289394378662109375" lon="2.42431838996708393096923828125">
        <ele>213.8000030517578125</ele>
        <time>2022-05-15T07:40:44.000Z</time>
      </trkpt>
      <trkpt lat="41.65144636295735836029052734375" lon="2.42419995367527008056640625">
        <ele>213.8000030517578125</ele>
        <time>2022-05-15T07:40:46.000Z</time>
      </trkpt>
      <trkpt lat="41.65123681537806987762451171875" lon="2.42402200587093830108642578125">
        <ele>213.600006103515625</ele>
        <time>2022-05-15T07:40:49.000Z</time>
      </trkpt>
      <trkpt lat="41.650818474590778350830078125" lon="2.42367482744157314300537109375">
        <ele>213.1999969482421875</ele>
        <time>2022-05-15T07:40:55.000Z</time>
      </trkpt>
      <trkpt lat="41.65060289204120635986328125" lon="2.4234977178275585174560546875">
        <ele>213.1999969482421875</ele>
        <time>2022-05-15T07:40:58.000Z</time>
      </trkpt>
      <trkpt lat="41.65007717907428741455078125" lon="2.4230901896953582763671875">
        <ele>212.8000030517578125</ele>
        <time>2022-05-15T07:41:05.000Z</time>
      </trkpt>
      <trkpt lat="41.64984407834708690643310546875" lon="2.42291475646197795867919921875">
        <ele>212.399993896484375</ele>
        <time>2022-05-15T07:41:08.000Z</time>
      </trkpt>
      <trkpt lat="41.6497655399143695831298828125" lon="2.42285616695880889892578125">
        <ele>212.1999969482421875</ele>
        <time>2022-05-15T07:41:09.000Z</time>
      </trkpt>
      <trkpt lat="41.64928458631038665771484375" lon="2.4225173704326152801513671875">
        <ele>211.600006103515625</ele>
        <time>2022-05-15T07:41:15.000Z</time>
      </trkpt>
      <trkpt lat="41.6492066346108913421630859375" lon="2.42246280424296855926513671875">
        <ele>211.600006103515625</ele>
        <time>2022-05-15T07:41:16.000Z</time>
      </trkpt>
      <trkpt lat="41.6487342305481433868408203125" lon="2.42214378900825977325439453125">
        <ele>210.8000030517578125</ele>
        <time>2022-05-15T07:41:22.000Z</time>
      </trkpt>
      <trkpt lat="41.64832125417888164520263671875" lon="2.4218805134296417236328125">
        <ele>210.1999969482421875</ele>
        <time>2022-05-15T07:41:28.000Z</time>
      </trkpt>
      <trkpt lat="41.64825671352446079254150390625" lon="2.42184153757989406585693359375">
        <ele>210</ele>
        <time>2022-05-15T07:41:29.000Z</time>
      </trkpt>
      <trkpt lat="41.6481910832226276397705078125" lon="2.42180348373949527740478515625">
        <ele>209.8000030517578125</ele>
        <time>2022-05-15T07:41:30.000Z</time>
      </trkpt>
      <trkpt lat="41.64799821563065052032470703125" lon="2.42168898694217205047607421875">
        <ele>209.8000030517578125</ele>
        <time>2022-05-15T07:41:33.000Z</time>
      </trkpt>
      <trkpt lat="41.6478125564754009246826171875" lon="2.42158052511513233184814453125">
        <ele>210</ele>
        <time>2022-05-15T07:41:36.000Z</time>
      </trkpt>
      <trkpt lat="41.64756537415087223052978515625" lon="2.421447671949863433837890625">
        <ele>210.1999969482421875</ele>
        <time>2022-05-15T07:41:40.000Z</time>
      </trkpt>
      <trkpt lat="41.64725876413285732269287109375" lon="2.42129243910312652587890625">
        <ele>210.600006103515625</ele>
        <time>2022-05-15T07:41:45.000Z</time>
      </trkpt>
      <trkpt lat="41.64714158512651920318603515625" lon="2.42123535834252834320068359375">
        <ele>211.1999969482421875</ele>
        <time>2022-05-15T07:41:47.000Z</time>
      </trkpt>
      <trkpt lat="41.64684712886810302734375" lon="2.421098649501800537109375">
        <ele>212.1999969482421875</ele>
        <time>2022-05-15T07:41:52.000Z</time>
      </trkpt>
      <trkpt lat="41.64678568951785564422607421875" lon="2.42107207886874675750732421875">
        <ele>212.399993896484375</ele>
        <time>2022-05-15T07:41:53.000Z</time>
      </trkpt>
      <trkpt lat="41.6463018022477626800537109375" lon="2.4208704940974712371826171875">
        <ele>213.399993896484375</ele>
        <time>2022-05-15T07:42:01.000Z</time>
      </trkpt>
      <trkpt lat="41.6459660232067108154296875" lon="2.42072473280131816864013671875">
        <ele>214.1999969482421875</ele>
        <time>2022-05-15T07:42:06.000Z</time>
      </trkpt>
      <trkpt lat="41.64589486084878444671630859375" lon="2.420689277350902557373046875">
        <ele>214.399993896484375</ele>
        <time>2022-05-15T07:42:07.000Z</time>
      </trkpt>
      <trkpt lat="41.64582311175763607025146484375" lon="2.4206518940627574920654296875">
        <ele>214.600006103515625</ele>
        <time>2022-05-15T07:42:08.000Z</time>
      </trkpt>
      <trkpt lat="41.645752452313899993896484375" lon="2.4206123314797878265380859375">
        <ele>214.600006103515625</ele>
        <time>2022-05-15T07:42:09.000Z</time>
      </trkpt>
      <trkpt lat="41.6455377079546451568603515625" lon="2.42048450745642185211181640625">
        <ele>214.8000030517578125</ele>
        <time>2022-05-15T07:42:12.000Z</time>
      </trkpt>
      <trkpt lat="41.64538658224046230316162109375" lon="2.42038392461836338043212890625">
        <ele>214.8000030517578125</ele>
        <time>2022-05-15T07:42:14.000Z</time>
      </trkpt>
      <trkpt lat="41.6453113965690135955810546875" lon="2.420328520238399505615234375">
        <ele>215.1999969482421875</ele>
        <time>2022-05-15T07:42:15.000Z</time>
      </trkpt>
      <trkpt lat="41.64495055563747882843017578125" lon="2.4200041405856609344482421875">
        <ele>215.600006103515625</ele>
        <time>2022-05-15T07:42:20.000Z</time>
      </trkpt>
      <trkpt lat="41.6448792256414890289306640625" lon="2.4199320562183856964111328125">
        <ele>215.600006103515625</ele>
        <time>2022-05-15T07:42:21.000Z</time>
      </trkpt>
      <trkpt lat="41.6446656547486782073974609375" lon="2.4196811020374298095703125">
        <ele>215.600006103515625</ele>
        <time>2022-05-15T07:42:24.000Z</time>
      </trkpt>
      <trkpt lat="41.64459600113332271575927734375" lon="2.41959166713058948516845703125">
        <ele>215.600006103515625</ele>
        <time>2022-05-15T07:42:25.000Z</time>
      </trkpt>
      <trkpt lat="41.644257120788097381591796875" lon="2.41911138407886028289794921875">
        <ele>215.399993896484375</ele>
        <time>2022-05-15T07:42:30.000Z</time>
      </trkpt>
      <trkpt lat="41.64412267506122589111328125" lon="2.418902926146984100341796875">
        <ele>215.1999969482421875</ele>
        <time>2022-05-15T07:42:32.000Z</time>
      </trkpt>
      <trkpt lat="41.64405251853168010711669921875" lon="2.4187981523573398590087890625">
        <ele>214.8000030517578125</ele>
        <time>2022-05-15T07:42:33.000Z</time>
      </trkpt>
      <trkpt lat="41.643693856894969940185546875" lon="2.418250143527984619140625">
        <ele>214.1999969482421875</ele>
        <time>2022-05-15T07:42:38.000Z</time>
      </trkpt>
      <trkpt lat="41.64354801177978515625" lon="2.418033219873905181884765625">
        <ele>213.600006103515625</ele>
        <time>2022-05-15T07:42:40.000Z</time>
      </trkpt>
      <trkpt lat="41.6434784419834613800048828125" lon="2.41793137975037097930908203125">
        <ele>213.1999969482421875</ele>
        <time>2022-05-15T07:42:41.000Z</time>
      </trkpt>
      <trkpt lat="41.6432704031467437744140625" lon="2.4176347441971302032470703125">
        <ele>212.1999969482421875</ele>
        <time>2022-05-15T07:42:44.000Z</time>
      </trkpt>
      <trkpt lat="41.643197648227214813232421875" lon="2.4175378493964672088623046875">
        <ele>212</ele>
        <time>2022-05-15T07:42:45.000Z</time>
      </trkpt>
      <trkpt lat="41.64312531240284442901611328125" lon="2.4174426309764385223388671875">
        <ele>211.8000030517578125</ele>
        <time>2022-05-15T07:42:46.000Z</time>
      </trkpt>
      <trkpt lat="41.64276002906262874603271484375" lon="2.4169685505330562591552734375">
        <ele>209</ele>
        <time>2022-05-15T07:42:51.000Z</time>
      </trkpt>
      <trkpt lat="41.642531119287014007568359375" lon="2.4166849069297313690185546875">
        <ele>207.1999969482421875</ele>
        <time>2022-05-15T07:42:54.000Z</time>
      </trkpt>
      <trkpt lat="41.6424538381397724151611328125" lon="2.41659362800419330596923828125">
        <ele>206.8000030517578125</ele>
        <time>2022-05-15T07:42:55.000Z</time>
      </trkpt>
      <trkpt lat="41.64221403189003467559814453125" lon="2.41632238961756229400634765625">
        <ele>206</ele>
        <time>2022-05-15T07:42:58.000Z</time>
      </trkpt>
      <trkpt lat="41.64173307828605175018310546875" lon="2.4157873727381229400634765625">
        <ele>204</ele>
        <time>2022-05-15T07:43:04.000Z</time>
      </trkpt>
      <trkpt lat="41.64133049547672271728515625" lon="2.41534472443163394927978515625">
        <ele>202.600006103515625</ele>
        <time>2022-05-15T07:43:09.000Z</time>
      </trkpt>
      <trkpt lat="41.641025729477405548095703125" lon="2.4149964563548564910888671875">
        <ele>202.1999969482421875</ele>
        <time>2022-05-15T07:43:13.000Z</time>
      </trkpt>
      <trkpt lat="41.64087510667741298675537109375" lon="2.41482269950211048126220703125">
        <ele>202</ele>
        <time>2022-05-15T07:43:15.000Z</time>
      </trkpt>
      <trkpt lat="41.6407315246760845184326171875" lon="2.41464919410645961761474609375">
        <ele>201.8000030517578125</ele>
        <time>2022-05-15T07:43:17.000Z</time>
      </trkpt>
      <trkpt lat="41.6406604461371898651123046875" lon="2.41456135176122188568115234375">
        <ele>201.600006103515625</ele>
        <time>2022-05-15T07:43:18.000Z</time>
      </trkpt>
      <trkpt lat="41.6405881941318511962890625" lon="2.41447283886373043060302734375">
        <ele>201.8000030517578125</ele>
        <time>2022-05-15T07:43:19.000Z</time>
      </trkpt>
      <trkpt lat="41.64044712670147418975830078125" lon="2.41429187357425689697265625">
        <ele>201.600006103515625</ele>
        <time>2022-05-15T07:43:21.000Z</time>
      </trkpt>
      <trkpt lat="41.64037738926708698272705078125" lon="2.41420126520097255706787109375">
        <ele>201.399993896484375</ele>
        <time>2022-05-15T07:43:22.000Z</time>
      </trkpt>
      <trkpt lat="41.6402416862547397613525390625" lon="2.41401703096926212310791015625">
        <ele>201</ele>
        <time>2022-05-15T07:43:24.000Z</time>
      </trkpt>
      <trkpt lat="41.64017538540065288543701171875" lon="2.41392449475824832916259765625">
        <ele>200.8000030517578125</ele>
        <time>2022-05-15T07:43:25.000Z</time>
      </trkpt>
      <trkpt lat="41.6400472261011600494384765625" lon="2.4137371592223644256591796875">
        <ele>200.8000030517578125</ele>
        <time>2022-05-15T07:43:27.000Z</time>
      </trkpt>
      <trkpt lat="41.63998402655124664306640625" lon="2.41364319808781147003173828125">
        <ele>200.600006103515625</ele>
        <time>2022-05-15T07:43:28.000Z</time>
      </trkpt>
      <trkpt lat="41.6399214975535869598388671875" lon="2.41354621946811676025390625">
        <ele>200.600006103515625</ele>
        <time>2022-05-15T07:43:29.000Z</time>
      </trkpt>
      <trkpt lat="41.6398577950894832611083984375" lon="2.4134468100965023040771484375">
        <ele>200.399993896484375</ele>
        <time>2022-05-15T07:43:30.000Z</time>
      </trkpt>
      <trkpt lat="41.63973198272287845611572265625" lon="2.4132392741739749908447265625">
        <ele>200.1999969482421875</ele>
        <time>2022-05-15T07:43:32.000Z</time>
      </trkpt>
      <trkpt lat="41.63942872546613216400146484375" lon="2.41271473467350006103515625">
        <ele>199.8000030517578125</ele>
        <time>2022-05-15T07:43:37.000Z</time>
      </trkpt>
      <trkpt lat="41.6393193416297435760498046875" lon="2.412501163780689239501953125">
        <ele>199.399993896484375</ele>
        <time>2022-05-15T07:43:39.000Z</time>
      </trkpt>
      <trkpt lat="41.63909881375730037689208984375" lon="2.41207377053797245025634765625">
        <ele>199</ele>
        <time>2022-05-15T07:43:43.000Z</time>
      </trkpt>
      <trkpt lat="41.6389386355876922607421875" lon="2.4117519892752170562744140625">
        <ele>199</ele>
        <time>2022-05-15T07:43:46.000Z</time>
      </trkpt>
      <trkpt lat="41.63888457231223583221435546875" lon="2.41164713166654109954833984375">
        <ele>198.8000030517578125</ele>
        <time>2022-05-15T07:43:47.000Z</time>
      </trkpt>
      <trkpt lat="41.63867217488586902618408203125" lon="2.41123122163116931915283203125">
        <ele>198.600006103515625</ele>
        <time>2022-05-15T07:43:51.000Z</time>
      </trkpt>
      <trkpt lat="41.63840797729790210723876953125" lon="2.41072361357510089874267578125">
        <ele>198.8000030517578125</ele>
        <time>2022-05-15T07:43:56.000Z</time>
      </trkpt>
      <trkpt lat="41.6383570991456508636474609375" lon="2.41062805987894535064697265625">
        <ele>198.600006103515625</ele>
        <time>2022-05-15T07:43:57.000Z</time>
      </trkpt>
      <trkpt lat="41.6382531635463237762451171875" lon="2.41043745540082454681396484375">
        <ele>198.600006103515625</ele>
        <time>2022-05-15T07:43:59.000Z</time>
      </trkpt>
      <trkpt lat="41.63820111192762851715087890625" lon="2.41034273989498615264892578125">
        <ele>198.600006103515625</ele>
        <time>2022-05-15T07:44:00.000Z</time>
      </trkpt>
      <trkpt lat="41.6381488926708698272705078125" lon="2.41024819202721118927001953125">
        <ele>198.600006103515625</ele>
        <time>2022-05-15T07:44:01.000Z</time>
      </trkpt>
      <trkpt lat="41.637819819152355194091796875" lon="2.40967688150703907012939453125">
        <ele>198.8000030517578125</ele>
        <time>2022-05-15T07:44:07.000Z</time>
      </trkpt>
      <trkpt lat="41.6377096809446811676025390625" lon="2.40948476828634738922119140625">
        <ele>199</ele>
        <time>2022-05-15T07:44:09.000Z</time>
      </trkpt>
      <trkpt lat="41.637370884418487548828125" lon="2.4089122004806995391845703125">
        <ele>199</ele>
        <time>2022-05-15T07:44:15.000Z</time>
      </trkpt>
      <trkpt lat="41.63714113645255565643310546875" lon="2.4085376970469951629638671875">
        <ele>199</ele>
        <time>2022-05-15T07:44:19.000Z</time>
      </trkpt>
      <trkpt lat="41.636794544756412506103515625" lon="2.40797451697289943695068359375">
        <ele>199.1999969482421875</ele>
        <time>2022-05-15T07:44:25.000Z</time>
      </trkpt>
      <trkpt lat="41.63667661137878894805908203125" lon="2.4077881872653961181640625">
        <ele>199.399993896484375</ele>
        <time>2022-05-15T07:44:27.000Z</time>
      </trkpt>
      <trkpt lat="41.636498831212520599365234375" lon="2.40751150064170360565185546875">
        <ele>199.600006103515625</ele>
        <time>2022-05-15T07:44:30.000Z</time>
      </trkpt>
      <trkpt lat="41.6364386491477489471435546875" lon="2.40742080844938755035400390625">
        <ele>199.600006103515625</ele>
        <time>2022-05-15T07:44:31.000Z</time>
      </trkpt>
      <trkpt lat="41.636378131806850433349609375" lon="2.407330535352230072021484375">
        <ele>199.600006103515625</ele>
        <time>2022-05-15T07:44:32.000Z</time>
      </trkpt>
      <trkpt lat="41.6362612880766391754150390625" lon="2.4071489833295345306396484375">
        <ele>199.600006103515625</ele>
        <time>2022-05-15T07:44:34.000Z</time>
      </trkpt>
      <trkpt lat="41.63608409464359283447265625" lon="2.40687279962003231048583984375">
        <ele>199.8000030517578125</ele>
        <time>2022-05-15T07:44:37.000Z</time>
      </trkpt>
      <trkpt lat="41.63590396754443645477294921875" lon="2.4065937660634517669677734375">
        <ele>200.1999969482421875</ele>
        <time>2022-05-15T07:44:40.000Z</time>
      </trkpt>
      <trkpt lat="41.63584495894610881805419921875" lon="2.40650030784308910369873046875">
        <ele>200</ele>
        <time>2022-05-15T07:44:41.000Z</time>
      </trkpt>
      <trkpt lat="41.63578578270971775054931640625" lon="2.40640508942306041717529296875">
        <ele>200.399993896484375</ele>
        <time>2022-05-15T07:44:42.000Z</time>
      </trkpt>
      <trkpt lat="41.63561546243727207183837890625" lon="2.4061156623065471649169921875">
        <ele>200.399993896484375</ele>
        <time>2022-05-15T07:44:45.000Z</time>
      </trkpt>
      <trkpt lat="41.63556366227567195892333984375" lon="2.40602136589586734771728515625">
        <ele>200.399993896484375</ele>
        <time>2022-05-15T07:44:46.000Z</time>
      </trkpt>
      <trkpt lat="41.63551152683794498443603515625" lon="2.40592983551323413848876953125">
        <ele>200.399993896484375</ele>
        <time>2022-05-15T07:44:47.000Z</time>
      </trkpt>
      <trkpt lat="41.63539820350706577301025390625" lon="2.40575037896633148193359375">
        <ele>200.399993896484375</ele>
        <time>2022-05-15T07:44:49.000Z</time>
      </trkpt>
      <trkpt lat="41.63535361178219318389892578125" lon="2.40565122105181217193603515625">
        <ele>200.399993896484375</ele>
        <time>2022-05-15T07:44:50.000Z</time>
      </trkpt>
      <trkpt lat="41.6351850517094135284423828125" lon="2.40524201653897762298583984375">
        <ele>200.8000030517578125</ele>
        <time>2022-05-15T07:44:54.000Z</time>
      </trkpt>
      <trkpt lat="41.63514657877385616302490234375" lon="2.4051383323967456817626953125">
        <ele>200.8000030517578125</ele>
        <time>2022-05-15T07:44:55.000Z</time>
      </trkpt>
      <trkpt lat="41.63510869257152080535888671875" lon="2.40503766573965549468994140625">
        <ele>201</ele>
        <time>2022-05-15T07:44:56.000Z</time>
      </trkpt>
      <trkpt lat="41.635069549083709716796875" lon="2.40493875928223133087158203125">
        <ele>200.8000030517578125</ele>
        <time>2022-05-15T07:44:57.000Z</time>
      </trkpt>
      <trkpt lat="41.63480325601994991302490234375" lon="2.40422797389328479766845703125">
        <ele>201.1999969482421875</ele>
        <time>2022-05-15T07:45:04.000Z</time>
      </trkpt>
      <trkpt lat="41.6347666271030902862548828125" lon="2.40412789396941661834716796875">
        <ele>201</ele>
        <time>2022-05-15T07:45:05.000Z</time>
      </trkpt>
      <trkpt lat="41.6346895135939121246337890625" lon="2.40392840467393398284912109375">
        <ele>201.1999969482421875</ele>
        <time>2022-05-15T07:45:07.000Z</time>
      </trkpt>
      <trkpt lat="41.63464986719191074371337890625" lon="2.40382949821650981903076171875">
        <ele>201.399993896484375</ele>
        <time>2022-05-15T07:45:08.000Z</time>
      </trkpt>
      <trkpt lat="41.6345225460827350616455078125" lon="2.403539232909679412841796875">
        <ele>201.399993896484375</ele>
        <time>2022-05-15T07:45:11.000Z</time>
      </trkpt>
      <trkpt lat="41.634437553584575653076171875" lon="2.40334066562354564666748046875">
        <ele>201.8000030517578125</ele>
        <time>2022-05-15T07:45:13.000Z</time>
      </trkpt>
      <trkpt lat="41.6343978233635425567626953125" lon="2.40323790349066257476806640625">
        <ele>201.600006103515625</ele>
        <time>2022-05-15T07:45:14.000Z</time>
      </trkpt>
      <trkpt lat="41.63422440178692340850830078125" lon="2.40283004008233547210693359375">
        <ele>201.8000030517578125</ele>
        <time>2022-05-15T07:45:18.000Z</time>
      </trkpt>
      <trkpt lat="41.63407419808208942413330078125" lon="2.40251890383660793304443359375">
        <ele>201.8000030517578125</ele>
        <time>2022-05-15T07:45:21.000Z</time>
      </trkpt>
      <trkpt lat="41.63402306847274303436279296875" lon="2.40241681225597858428955078125">
        <ele>202</ele>
        <time>2022-05-15T07:45:22.000Z</time>
      </trkpt>
      <trkpt lat="41.63371503353118896484375" lon="2.4018214456737041473388671875">
        <ele>201.8000030517578125</ele>
        <time>2022-05-15T07:45:28.000Z</time>
      </trkpt>
      <trkpt lat="41.633611433207988739013671875" lon="2.4016286619007587432861328125">
        <ele>201.399993896484375</ele>
        <time>2022-05-15T07:45:30.000Z</time>
      </trkpt>
      <trkpt lat="41.63356038741767406463623046875" lon="2.4015334434807300567626953125">
        <ele>201.399993896484375</ele>
        <time>2022-05-15T07:45:31.000Z</time>
      </trkpt>
      <trkpt lat="41.63346198387444019317626953125" lon="2.4013430066406726837158203125">
        <ele>201.399993896484375</ele>
        <time>2022-05-15T07:45:33.000Z</time>
      </trkpt>
      <trkpt lat="41.63341127336025238037109375" lon="2.40124854259192943572998046875">
        <ele>201.1999969482421875</ele>
        <time>2022-05-15T07:45:34.000Z</time>
      </trkpt>
      <trkpt lat="41.63331312127411365509033203125" lon="2.401058189570903778076171875">
        <ele>201</ele>
        <time>2022-05-15T07:45:36.000Z</time>
      </trkpt>
      <trkpt lat="41.633262746036052703857421875" lon="2.40096456371247768402099609375">
        <ele>201</ele>
        <time>2022-05-15T07:45:37.000Z</time>
      </trkpt>
      <trkpt lat="41.63316241465508937835693359375" lon="2.4007763899862766265869140625">
        <ele>201</ele>
        <time>2022-05-15T07:45:39.000Z</time>
      </trkpt>
      <trkpt lat="41.633011288940906524658203125" lon="2.400482185184955596923828125">
        <ele>200.600006103515625</ele>
        <time>2022-05-15T07:45:42.000Z</time>
      </trkpt>
      <trkpt lat="41.6329615004360675811767578125" lon="2.40038193762302398681640625">
        <ele>200.600006103515625</ele>
        <time>2022-05-15T07:45:43.000Z</time>
      </trkpt>
      <trkpt lat="41.63280953653156757354736328125" lon="2.40007490850985050201416015625">
        <ele>199.8000030517578125</ele>
        <time>2022-05-15T07:45:46.000Z</time>
      </trkpt>
      <trkpt lat="41.63275823928415775299072265625" lon="2.39997348748147487640380859375">
        <ele>199.8000030517578125</ele>
        <time>2022-05-15T07:45:47.000Z</time>
      </trkpt>
      <trkpt lat="41.63270778022706508636474609375" lon="2.39987189881503582000732421875">
        <ele>199.8000030517578125</ele>
        <time>2022-05-15T07:45:48.000Z</time>
      </trkpt>
      <trkpt lat="41.632606275379657745361328125" lon="2.39966721273958683013916015625">
        <ele>199.399993896484375</ele>
        <time>2022-05-15T07:45:50.000Z</time>
      </trkpt>
      <trkpt lat="41.632299162447452545166015625" lon="2.39905214868485927581787109375">
        <ele>199</ele>
        <time>2022-05-15T07:45:56.000Z</time>
      </trkpt>
      <trkpt lat="41.632247529923915863037109375" lon="2.39894938655197620391845703125">
        <ele>198.8000030517578125</ele>
        <time>2022-05-15T07:45:57.000Z</time>
      </trkpt>
      <trkpt lat="41.6321970708668231964111328125" lon="2.398847043514251708984375">
        <ele>198.8000030517578125</ele>
        <time>2022-05-15T07:45:58.000Z</time>
      </trkpt>
      <trkpt lat="41.6320991702377796173095703125" lon="2.39863690920174121856689453125">
        <ele>198.600006103515625</ele>
        <time>2022-05-15T07:46:00.000Z</time>
      </trkpt>
      <trkpt lat="41.63204996846616268157958984375" lon="2.39852945320308208465576171875">
        <ele>198.600006103515625</ele>
        <time>2022-05-15T07:46:01.000Z</time>
      </trkpt>
      <trkpt lat="41.63200319744646549224853515625" lon="2.3984205722808837890625">
        <ele>198.399993896484375</ele>
        <time>2022-05-15T07:46:02.000Z</time>
      </trkpt>
      <trkpt lat="41.63195885717868804931640625" lon="2.398310936987400054931640625">
        <ele>198.399993896484375</ele>
        <time>2022-05-15T07:46:03.000Z</time>
      </trkpt>
      <trkpt lat="41.631915606558322906494140625" lon="2.39820130169391632080078125">
        <ele>198.1999969482421875</ele>
        <time>2022-05-15T07:46:04.000Z</time>
      </trkpt>
      <trkpt lat="41.63180002011358737945556640625" lon="2.39786996506154537200927734375">
        <ele>198.1999969482421875</ele>
        <time>2022-05-15T07:46:07.000Z</time>
      </trkpt>
      <trkpt lat="41.6317655704915523529052734375" lon="2.39775747992098331451416015625">
        <ele>198</ele>
        <time>2022-05-15T07:46:08.000Z</time>
      </trkpt>
      <trkpt lat="41.6317025385797023773193359375" lon="2.39752714522182941436767578125">
        <ele>197.8000030517578125</ele>
        <time>2022-05-15T07:46:10.000Z</time>
      </trkpt>
      <trkpt lat="41.63162064738571643829345703125" lon="2.39716487936675548553466796875">
        <ele>197.1999969482421875</ele>
        <time>2022-05-15T07:46:13.000Z</time>
      </trkpt>
      <trkpt lat="41.631548143923282623291015625" lon="2.39665903151035308837890625">
        <ele>197</ele>
        <time>2022-05-15T07:46:17.000Z</time>
      </trkpt>
      <trkpt lat="41.6315419413149356842041015625" lon="2.396112196147441864013671875">
        <ele>195.8000030517578125</ele>
        <time>2022-05-15T07:46:21.000Z</time>
      </trkpt>
      <trkpt lat="41.63156415335834026336669921875" lon="2.395700477063655853271484375">
        <ele>195.399993896484375</ele>
        <time>2022-05-15T07:46:24.000Z</time>
      </trkpt>
      <trkpt lat="41.6315818391740322113037109375" lon="2.39542362280189990997314453125">
        <ele>195.1999969482421875</ele>
        <time>2022-05-15T07:46:26.000Z</time>
      </trkpt>
      <trkpt lat="41.63158913142979145050048828125" lon="2.395284734666347503662109375">
        <ele>195</ele>
        <time>2022-05-15T07:46:27.000Z</time>
      </trkpt>
      <trkpt lat="41.6315947473049163818359375" lon="2.395147271454334259033203125">
        <ele>194.8000030517578125</ele>
        <time>2022-05-15T07:46:28.000Z</time>
      </trkpt>
      <trkpt lat="41.63160212337970733642578125" lon="2.39501156844198703765869140625">
        <ele>194.8000030517578125</ele>
        <time>2022-05-15T07:46:29.000Z</time>
      </trkpt>
      <trkpt lat="41.63161092437803745269775390625" lon="2.39487745799124240875244140625">
        <ele>194.399993896484375</ele>
        <time>2022-05-15T07:46:30.000Z</time>
      </trkpt>
      <trkpt lat="41.6316193901002407073974609375" lon="2.3947427608072757720947265625">
        <ele>194.399993896484375</ele>
        <time>2022-05-15T07:46:31.000Z</time>
      </trkpt>
      <trkpt lat="41.631625927984714508056640625" lon="2.39460772834718227386474609375">
        <ele>194.399993896484375</ele>
        <time>2022-05-15T07:46:32.000Z</time>
      </trkpt>
      <trkpt lat="41.63163238205015659332275390625" lon="2.39447311498224735260009765625">
        <ele>194</ele>
        <time>2022-05-15T07:46:33.000Z</time>
      </trkpt>
      <trkpt lat="41.63165668956935405731201171875" lon="2.39393114112317562103271484375">
        <ele>193.399993896484375</ele>
        <time>2022-05-15T07:46:37.000Z</time>
      </trkpt>
      <trkpt lat="41.6316619701683521270751953125" lon="2.393792085349559783935546875">
        <ele>193</ele>
        <time>2022-05-15T07:46:38.000Z</time>
      </trkpt>
      <trkpt lat="41.6316794045269489288330078125" lon="2.39337332546710968017578125">
        <ele>192.1999969482421875</ele>
        <time>2022-05-15T07:46:41.000Z</time>
      </trkpt>
      <trkpt lat="41.63168066181242465972900390625" lon="2.39323141984641551971435546875">
        <ele>192.1999969482421875</ele>
        <time>2022-05-15T07:46:42.000Z</time>
      </trkpt>
      <trkpt lat="41.63168124854564666748046875" lon="2.39308708347380161285400390625">
        <ele>192</ele>
        <time>2022-05-15T07:46:43.000Z</time>
      </trkpt>
      <trkpt lat="41.63168066181242465972900390625" lon="2.39293972961604595184326171875">
        <ele>191.8000030517578125</ele>
        <time>2022-05-15T07:46:44.000Z</time>
      </trkpt>
      <trkpt lat="41.63167831487953662872314453125" lon="2.39279128611087799072265625">
        <ele>191.600006103515625</ele>
        <time>2022-05-15T07:46:45.000Z</time>
      </trkpt>
      <trkpt lat="41.63167881779372692108154296875" lon="2.39264250732958316802978515625">
        <ele>191.399993896484375</ele>
        <time>2022-05-15T07:46:46.000Z</time>
      </trkpt>
      <trkpt lat="41.63167797960340976715087890625" lon="2.3924970813095569610595703125">
        <ele>191</ele>
        <time>2022-05-15T07:46:47.000Z</time>
      </trkpt>
      <trkpt lat="41.63164646364748477935791015625" lon="2.39180146716535091400146484375">
        <ele>190.399993896484375</ele>
        <time>2022-05-15T07:46:52.000Z</time>
      </trkpt>
      <trkpt lat="41.6315848566591739654541015625" lon="2.39099982194602489471435546875">
        <ele>189.600006103515625</ele>
        <time>2022-05-15T07:46:58.000Z</time>
      </trkpt>
      <trkpt lat="41.63154101930558681488037109375" lon="2.3905994184315204620361328125">
        <ele>188.8000030517578125</ele>
        <time>2022-05-15T07:47:01.000Z</time>
      </trkpt>
      <trkpt lat="41.6314353235065937042236328125" lon="2.3899154551327228546142578125">
        <ele>188</ele>
        <time>2022-05-15T07:47:06.000Z</time>
      </trkpt>
      <trkpt lat="41.6314091719686985015869140625" lon="2.3897675983607769012451171875">
        <ele>188</ele>
        <time>2022-05-15T07:47:07.000Z</time>
      </trkpt>
      <trkpt lat="41.6313561983406543731689453125" lon="2.38946735858917236328125">
        <ele>188</ele>
        <time>2022-05-15T07:47:09.000Z</time>
      </trkpt>
      <trkpt lat="41.6312750615179538726806640625" lon="2.38903175108134746551513671875">
        <ele>187.8000030517578125</ele>
        <time>2022-05-15T07:47:12.000Z</time>
      </trkpt>
      <trkpt lat="41.63118143565952777862548828125" lon="2.388608045876026153564453125">
        <ele>187.600006103515625</ele>
        <time>2022-05-15T07:47:15.000Z</time>
      </trkpt>
      <trkpt lat="41.63114614784717559814453125" lon="2.38846697844564914703369140625">
        <ele>187.399993896484375</ele>
        <time>2022-05-15T07:47:16.000Z</time>
      </trkpt>
      <trkpt lat="41.631072051823139190673828125" lon="2.38818752579391002655029296875">
        <ele>187.399993896484375</ele>
        <time>2022-05-15T07:47:18.000Z</time>
      </trkpt>
      <trkpt lat="41.63103525526821613311767578125" lon="2.38804939202964305877685546875">
        <ele>187.1999969482421875</ele>
        <time>2022-05-15T07:47:19.000Z</time>
      </trkpt>
      <trkpt lat="41.63096350617706775665283203125" lon="2.38777144812047481536865234375">
        <ele>186.8000030517578125</ele>
        <time>2022-05-15T07:47:21.000Z</time>
      </trkpt>
      <trkpt lat="41.6309277154505252838134765625" lon="2.387631721794605255126953125">
        <ele>186.8000030517578125</ele>
        <time>2022-05-15T07:47:22.000Z</time>
      </trkpt>
      <trkpt lat="41.63089041598141193389892578125" lon="2.38749115727841854095458984375">
        <ele>186.600006103515625</ele>
        <time>2022-05-15T07:47:23.000Z</time>
      </trkpt>
      <trkpt lat="41.6308509372174739837646484375" lon="2.3873515985906124114990234375">
        <ele>186.600006103515625</ele>
        <time>2022-05-15T07:47:24.000Z</time>
      </trkpt>
      <trkpt lat="41.63080810569226741790771484375" lon="2.3872154764831066131591796875">
        <ele>186.600006103515625</ele>
        <time>2022-05-15T07:47:25.000Z</time>
      </trkpt>
      <trkpt lat="41.630764268338680267333984375" lon="2.387078516185283660888671875">
        <ele>186.399993896484375</ele>
        <time>2022-05-15T07:47:26.000Z</time>
      </trkpt>
      <trkpt lat="41.63067215122282505035400390625" lon="2.38680819980800151824951171875">
        <ele>186.1999969482421875</ele>
        <time>2022-05-15T07:47:28.000Z</time>
      </trkpt>
      <trkpt lat="41.63053183816373348236083984375" lon="2.38641190342605113983154296875">
        <ele>186</ele>
        <time>2022-05-15T07:47:31.000Z</time>
      </trkpt>
      <trkpt lat="41.63048255257308483123779296875" lon="2.38628332503139972686767578125">
        <ele>185.8000030517578125</ele>
        <time>2022-05-15T07:47:32.000Z</time>
      </trkpt>
      <trkpt lat="41.63043226115405559539794921875" lon="2.3861570097506046295166015625">
        <ele>185.8000030517578125</ele>
        <time>2022-05-15T07:47:33.000Z</time>
      </trkpt>
      <trkpt lat="41.63038247264921665191650390625" lon="2.386031448841094970703125">
        <ele>185.8000030517578125</ele>
        <time>2022-05-15T07:47:34.000Z</time>
      </trkpt>
      <trkpt lat="41.63028004579246044158935546875" lon="2.38577957265079021453857421875">
        <ele>185.8000030517578125</ele>
        <time>2022-05-15T07:47:36.000Z</time>
      </trkpt>
      <trkpt lat="41.63022757507860660552978515625" lon="2.38565417937934398651123046875">
        <ele>185.600006103515625</ele>
        <time>2022-05-15T07:47:37.000Z</time>
      </trkpt>
      <trkpt lat="41.63006261922419071197509765625" lon="2.385281436145305633544921875">
        <ele>185.399993896484375</ele>
        <time>2022-05-15T07:47:40.000Z</time>
      </trkpt>
      <trkpt lat="41.62982943467795848846435546875" lon="2.38478983752429485321044921875">
        <ele>185.1999969482421875</ele>
        <time>2022-05-15T07:47:44.000Z</time>
      </trkpt>
      <trkpt lat="41.62951712496578693389892578125" lon="2.38419757224619388580322265625">
        <ele>184.8000030517578125</ele>
        <time>2022-05-15T07:47:49.000Z</time>
      </trkpt>
      <trkpt lat="41.629454679787158966064453125" lon="2.3840829916298389434814453125">
        <ele>184.600006103515625</ele>
        <time>2022-05-15T07:47:50.000Z</time>
      </trkpt>
      <trkpt lat="41.62939307279884815216064453125" lon="2.3839686624705791473388671875">
        <ele>184.600006103515625</ele>
        <time>2022-05-15T07:47:51.000Z</time>
      </trkpt>
      <trkpt lat="41.629330627620220184326171875" lon="2.383855171501636505126953125">
        <ele>184.399993896484375</ele>
        <time>2022-05-15T07:47:52.000Z</time>
      </trkpt>
      <trkpt lat="41.62894095294177532196044921875" lon="2.38320775330066680908203125">
        <ele>184.1999969482421875</ele>
        <time>2022-05-15T07:47:58.000Z</time>
      </trkpt>
      <trkpt lat="41.62887725047767162322998046875" lon="2.38310515880584716796875">
        <ele>184</ele>
        <time>2022-05-15T07:47:59.000Z</time>
      </trkpt>
      <trkpt lat="41.6285653598606586456298828125" lon="2.38260685466229915618896484375">
        <ele>183.600006103515625</ele>
        <time>2022-05-15T07:48:04.000Z</time>
      </trkpt>
      <trkpt lat="41.62839042954146862030029296875" lon="2.3823160864412784576416015625">
        <ele>183.399993896484375</ele>
        <time>2022-05-15T07:48:07.000Z</time>
      </trkpt>
      <trkpt lat="41.6280399821698665618896484375" lon="2.38173463381826877593994140625">
        <ele>182.399993896484375</ele>
        <time>2022-05-15T07:48:13.000Z</time>
      </trkpt>
      <trkpt lat="41.6278686560690402984619140625" lon="2.38144948147237300872802734375">
        <ele>182.1999969482421875</ele>
        <time>2022-05-15T07:48:16.000Z</time>
      </trkpt>
      <trkpt lat="41.6278101503849029541015625" lon="2.3813550174236297607421875">
        <ele>182.1999969482421875</ele>
        <time>2022-05-15T07:48:17.000Z</time>
      </trkpt>
      <trkpt lat="41.62775323726236820220947265625" lon="2.38126046955585479736328125">
        <ele>182</ele>
        <time>2022-05-15T07:48:18.000Z</time>
      </trkpt>
      <trkpt lat="41.6275893710553646087646484375" lon="2.3809826932847499847412109375">
        <ele>181.8000030517578125</ele>
        <time>2022-05-15T07:48:21.000Z</time>
      </trkpt>
      <trkpt lat="41.6274797357618808746337890625" lon="2.3808029852807521820068359375">
        <ele>182</ele>
        <time>2022-05-15T07:48:23.000Z</time>
      </trkpt>
      <trkpt lat="41.62737152539193630218505859375" lon="2.38062570802867412567138671875">
        <ele>181.8000030517578125</ele>
        <time>2022-05-15T07:48:25.000Z</time>
      </trkpt>
      <trkpt lat="41.62720925174653530120849609375" lon="2.38035924732685089111328125">
        <ele>181.600006103515625</ele>
        <time>2022-05-15T07:48:28.000Z</time>
      </trkpt>
      <trkpt lat="41.62715502083301544189453125" lon="2.3802688904106616973876953125">
        <ele>181.600006103515625</ele>
        <time>2022-05-15T07:48:29.000Z</time>
      </trkpt>
      <trkpt lat="41.62682100199162960052490234375" lon="2.3797183670103549957275390625">
        <ele>181.1999969482421875</ele>
        <time>2022-05-15T07:48:35.000Z</time>
      </trkpt>
      <trkpt lat="41.62671052850782871246337890625" lon="2.37953321076929569244384765625">
        <ele>181</ele>
        <time>2022-05-15T07:48:37.000Z</time>
      </trkpt>
      <trkpt lat="41.62665487267076969146728515625" lon="2.37944117747247219085693359375">
        <ele>181</ele>
        <time>2022-05-15T07:48:38.000Z</time>
      </trkpt>
      <trkpt lat="41.6262657009065151214599609375" lon="2.37879174761474132537841796875">
        <ele>180.600006103515625</ele>
        <time>2022-05-15T07:48:45.000Z</time>
      </trkpt>
      <trkpt lat="41.626157574355602264404296875" lon="2.3786003887653350830078125">
        <ele>180.600006103515625</ele>
        <time>2022-05-15T07:48:47.000Z</time>
      </trkpt>
      <trkpt lat="41.62601097486913204193115234375" lon="2.378303669393062591552734375">
        <ele>180.399993896484375</ele>
        <time>2022-05-15T07:48:50.000Z</time>
      </trkpt>
      <trkpt lat="41.62582707591354846954345703125" lon="2.37790167331695556640625">
        <ele>180.399993896484375</ele>
        <time>2022-05-15T07:48:54.000Z</time>
      </trkpt>
      <trkpt lat="41.625783741474151611328125" lon="2.3777985759079456329345703125">
        <ele>180.399993896484375</ele>
        <time>2022-05-15T07:48:55.000Z</time>
      </trkpt>
      <trkpt lat="41.62574191577732563018798828125" lon="2.37769313156604766845703125">
        <ele>180.1999969482421875</ele>
        <time>2022-05-15T07:48:56.000Z</time>
      </trkpt>
      <trkpt lat="41.625660359859466552734375" lon="2.377475537359714508056640625">
        <ele>180</ele>
        <time>2022-05-15T07:48:58.000Z</time>
      </trkpt>
      <trkpt lat="41.62562037818133831024169921875" lon="2.377364896237850189208984375">
        <ele>179.8000030517578125</ele>
        <time>2022-05-15T07:48:59.000Z</time>
      </trkpt>
      <trkpt lat="41.62554309703409671783447265625" lon="2.37714193761348724365234375">
        <ele>180</ele>
        <time>2022-05-15T07:49:01.000Z</time>
      </trkpt>
      <trkpt lat="41.62540345452725887298583984375" lon="2.37667732872068881988525390625">
        <ele>179.600006103515625</ele>
        <time>2022-05-15T07:49:05.000Z</time>
      </trkpt>
      <trkpt lat="41.625280492007732391357421875" lon="2.37618480809032917022705078125">
        <ele>179.600006103515625</ele>
        <time>2022-05-15T07:49:09.000Z</time>
      </trkpt>
      <trkpt lat="41.625223495066165924072265625" lon="2.37592446617782115936279296875">
        <ele>179.600006103515625</ele>
        <time>2022-05-15T07:49:11.000Z</time>
      </trkpt>
      <trkpt lat="41.62515836767852306365966796875" lon="2.3755347914993762969970703125">
        <ele>179.399993896484375</ele>
        <time>2022-05-15T07:49:14.000Z</time>
      </trkpt>
      <trkpt lat="41.62514143623411655426025390625" lon="2.37540730275213718414306640625">
        <ele>179.399993896484375</ele>
        <time>2022-05-15T07:49:15.000Z</time>
      </trkpt>
      <trkpt lat="41.6250982694327831268310546875" lon="2.37503464333713054656982421875">
        <ele>179.1999969482421875</ele>
        <time>2022-05-15T07:49:18.000Z</time>
      </trkpt>
      <trkpt lat="41.625019647181034088134765625" lon="2.3743076808750629425048828125">
        <ele>179</ele>
        <time>2022-05-15T07:49:24.000Z</time>
      </trkpt>
      <trkpt lat="41.62500657141208648681640625" lon="2.37418656237423419952392578125">
        <ele>178.8000030517578125</ele>
        <time>2022-05-15T07:49:25.000Z</time>
      </trkpt>
      <trkpt lat="41.62499207071959972381591796875" lon="2.37406502477824687957763671875">
        <ele>179</ele>
        <time>2022-05-15T07:49:26.000Z</time>
      </trkpt>
      <trkpt lat="41.62494043819606304168701171875" lon="2.37357350997626781463623046875">
        <ele>178.600006103515625</ele>
        <time>2022-05-15T07:49:30.000Z</time>
      </trkpt>
      <trkpt lat="41.624913699924945831298828125" lon="2.37332875840365886688232421875">
        <ele>178.600006103515625</ele>
        <time>2022-05-15T07:49:32.000Z</time>
      </trkpt>
      <trkpt lat="41.62488997913897037506103515625" lon="2.37308367155492305755615234375">
        <ele>178.399993896484375</ele>
        <time>2022-05-15T07:49:34.000Z</time>
      </trkpt>
      <trkpt lat="41.62486483342945575714111328125" lon="2.37284009344875812530517578125">
        <ele>178.399993896484375</ele>
        <time>2022-05-15T07:49:36.000Z</time>
      </trkpt>
      <trkpt lat="41.6247787512838840484619140625" lon="2.37210349179804325103759765625">
        <ele>177.8000030517578125</ele>
        <time>2022-05-15T07:49:42.000Z</time>
      </trkpt>
      <trkpt lat="41.62476441822946071624755859375" lon="2.37198002636432647705078125">
        <ele>177.600006103515625</ele>
        <time>2022-05-15T07:49:43.000Z</time>
      </trkpt>
      <trkpt lat="41.62469099275767803192138671875" lon="2.3712207935750484466552734375">
        <ele>177.399993896484375</ele>
        <time>2022-05-15T07:49:49.000Z</time>
      </trkpt>
      <trkpt lat="41.62466266192495822906494140625" lon="2.37096422351896762847900390625">
        <ele>177.399993896484375</ele>
        <time>2022-05-15T07:49:51.000Z</time>
      </trkpt>
      <trkpt lat="41.62458320148289203643798828125" lon="2.3701874725520610809326171875">
        <ele>177</ele>
        <time>2022-05-15T07:49:57.000Z</time>
      </trkpt>
      <trkpt lat="41.62455017678439617156982421875" lon="2.36992151476442813873291015625">
        <ele>177</ele>
        <time>2022-05-15T07:49:59.000Z</time>
      </trkpt>
      <trkpt lat="41.624535508453845977783203125" lon="2.36978908069431781768798828125">
        <ele>177</ele>
        <time>2022-05-15T07:50:00.000Z</time>
      </trkpt>
      <trkpt lat="41.6244439780712127685546875" lon="2.36898173578083515167236328125">
        <ele>176.600006103515625</ele>
        <time>2022-05-15T07:50:06.000Z</time>
      </trkpt>
      <trkpt lat="41.62442562170326709747314453125" lon="2.36884578131139278411865234375">
        <ele>176.8000030517578125</ele>
        <time>2022-05-15T07:50:07.000Z</time>
      </trkpt>
      <trkpt lat="41.624405086040496826171875" lon="2.36871133558452129364013671875">
        <ele>176.600006103515625</ele>
        <time>2022-05-15T07:50:08.000Z</time>
      </trkpt>
      <trkpt lat="41.62435747683048248291015625" lon="2.36844730563461780548095703125">
        <ele>176.399993896484375</ele>
        <time>2022-05-15T07:50:10.000Z</time>
      </trkpt>
      <trkpt lat="41.62431657314300537109375" lon="2.36818260513246059417724609375">
        <ele>176.399993896484375</ele>
        <time>2022-05-15T07:50:12.000Z</time>
      </trkpt>
      <trkpt lat="41.6242704726755619049072265625" lon="2.36792209558188915252685546875">
        <ele>176</ele>
        <time>2022-05-15T07:50:14.000Z</time>
      </trkpt>
      <trkpt lat="41.62410560064017772674560546875" lon="2.36718046478927135467529296875">
        <ele>175.8000030517578125</ele>
        <time>2022-05-15T07:50:20.000Z</time>
      </trkpt>
      <trkpt lat="41.6239772737026214599609375" lon="2.3667021095752716064453125">
        <ele>175.600006103515625</ele>
        <time>2022-05-15T07:50:24.000Z</time>
      </trkpt>
      <trkpt lat="41.6238406486809253692626953125" lon="2.36623615957796573638916015625">
        <ele>175.8000030517578125</ele>
        <time>2022-05-15T07:50:28.000Z</time>
      </trkpt>
      <trkpt lat="41.62364409305155277252197265625" lon="2.365553118288516998291015625">
        <ele>176</ele>
        <time>2022-05-15T07:50:34.000Z</time>
      </trkpt>
      <trkpt lat="41.6236156783998012542724609375" lon="2.3654399625957012176513671875">
        <ele>176.1999969482421875</ele>
        <time>2022-05-15T07:50:35.000Z</time>
      </trkpt>
      <trkpt lat="41.6234963200986385345458984375" lon="2.36487485468387603759765625">
        <ele>176.600006103515625</ele>
        <time>2022-05-15T07:50:40.000Z</time>
      </trkpt>
      <trkpt lat="41.62348039448261260986328125" lon="2.364766895771026611328125">
        <ele>176.600006103515625</ele>
        <time>2022-05-15T07:50:41.000Z</time>
      </trkpt>
      <trkpt lat="41.623410992324352264404296875" lon="2.36425836570560932159423828125">
        <ele>177</ele>
        <time>2022-05-15T07:50:46.000Z</time>
      </trkpt>
      <trkpt lat="41.6233885288238525390625" lon="2.36406424082815647125244140625">
        <ele>177.1999969482421875</ele>
        <time>2022-05-15T07:50:48.000Z</time>
      </trkpt>
      <trkpt lat="41.62338249385356903076171875" lon="2.36396902240812778472900390625">
        <ele>177</ele>
        <time>2022-05-15T07:50:49.000Z</time>
      </trkpt>
      <trkpt lat="41.62335223518311977386474609375" lon="2.3636985383927822113037109375">
        <ele>177.399993896484375</ele>
        <time>2022-05-15T07:50:52.000Z</time>
      </trkpt>
      <trkpt lat="41.62333882413804531097412109375" lon="2.3636120371520519256591796875">
        <ele>177.399993896484375</ele>
        <time>2022-05-15T07:50:53.000Z</time>
      </trkpt>
      <trkpt lat="41.62328802980482578277587890625" lon="2.36335982568562030792236328125">
        <ele>177.600006103515625</ele>
        <time>2022-05-15T07:50:56.000Z</time>
      </trkpt>
      <trkpt lat="41.62326992489397525787353515625" lon="2.36327516846358776092529296875">
        <ele>177.600006103515625</ele>
        <time>2022-05-15T07:50:57.000Z</time>
      </trkpt>
      <trkpt lat="41.62322499789297580718994140625" lon="2.363103926181793212890625">
        <ele>178.1999969482421875</ele>
        <time>2022-05-15T07:50:59.000Z</time>
      </trkpt>
      <trkpt lat="41.62320069037377834320068359375" lon="2.3630189336836338043212890625">
        <ele>178.600006103515625</ele>
        <time>2022-05-15T07:51:00.000Z</time>
      </trkpt>
      <trkpt lat="41.6231739521026611328125" lon="2.36293670721352100372314453125">
        <ele>178.600006103515625</ele>
        <time>2022-05-15T07:51:01.000Z</time>
      </trkpt>
      <trkpt lat="41.6230514086782932281494140625" lon="2.36262540332973003387451171875">
        <ele>179.1999969482421875</ele>
        <time>2022-05-15T07:51:05.000Z</time>
      </trkpt>
      <trkpt lat="41.62302115000784397125244140625" lon="2.36254845745861530303955078125">
        <ele>179.1999969482421875</ele>
        <time>2022-05-15T07:51:06.000Z</time>
      </trkpt>
      <trkpt lat="41.6228700242936611175537109375" lon="2.36215970478951930999755859375">
        <ele>179.399993896484375</ele>
        <time>2022-05-15T07:51:11.000Z</time>
      </trkpt>
      <trkpt lat="41.62283238954842090606689453125" lon="2.3620861954987049102783203125">
        <ele>179.399993896484375</ele>
        <time>2022-05-15T07:51:12.000Z</time>
      </trkpt>
      <trkpt lat="41.62258277647197246551513671875" lon="2.36165025271475315093994140625">
        <ele>179.600006103515625</ele>
        <time>2022-05-15T07:51:18.000Z</time>
      </trkpt>
      <trkpt lat="41.62246257998049259185791015625" lon="2.3614511825144290924072265625">
        <ele>179.600006103515625</ele>
        <time>2022-05-15T07:51:21.000Z</time>
      </trkpt>
      <trkpt lat="41.62242284975945949554443359375" lon="2.3613921739161014556884765625">
        <ele>179.600006103515625</ele>
        <time>2022-05-15T07:51:22.000Z</time>
      </trkpt>
      <trkpt lat="41.62238110788166522979736328125" lon="2.36133375205099582672119140625">
        <ele>179.600006103515625</ele>
        <time>2022-05-15T07:51:23.000Z</time>
      </trkpt>
      <trkpt lat="41.62217021919786930084228515625" lon="2.36103661358356475830078125">
        <ele>179.399993896484375</ele>
        <time>2022-05-15T07:51:28.000Z</time>
      </trkpt>
      <trkpt lat="41.62212713621556758880615234375" lon="2.3609767667949199676513671875">
        <ele>179.399993896484375</ele>
        <time>2022-05-15T07:51:29.000Z</time>
      </trkpt>
      <trkpt lat="41.62208438850939273834228515625" lon="2.3609165847301483154296875">
        <ele>179.399993896484375</ele>
        <time>2022-05-15T07:51:30.000Z</time>
      </trkpt>
      <trkpt lat="41.62203870713710784912109375" lon="2.36085715703666210174560546875">
        <ele>179.399993896484375</ele>
        <time>2022-05-15T07:51:31.000Z</time>
      </trkpt>
      <trkpt lat="41.62184550426900386810302734375" lon="2.3606269061565399169921875">
        <ele>179.1999969482421875</ele>
        <time>2022-05-15T07:51:35.000Z</time>
      </trkpt>
      <trkpt lat="41.62179688923060894012451171875" lon="2.3605697415769100189208984375">
        <ele>179.1999969482421875</ele>
        <time>2022-05-15T07:51:36.000Z</time>
      </trkpt>
      <trkpt lat="41.621324233710765838623046875" lon="2.3600577749311923980712890625">
        <ele>179</ele>
        <time>2022-05-15T07:51:45.000Z</time>
      </trkpt>
      <trkpt lat="41.6208918951451778411865234375" lon="2.35957506112754344940185546875">
        <ele>178.600006103515625</ele>
        <time>2022-05-15T07:51:53.000Z</time>
      </trkpt>
      <trkpt lat="41.62073188461363315582275390625" lon="2.3593972809612751007080078125">
        <ele>178.600006103515625</ele>
        <time>2022-05-15T07:51:56.000Z</time>
      </trkpt>
      <trkpt lat="41.62062576971948146820068359375" lon="2.35928085632622241973876953125">
        <ele>178.399993896484375</ele>
        <time>2022-05-15T07:51:58.000Z</time>
      </trkpt>
      <trkpt lat="41.62042946554720401763916015625" lon="2.35905806533992290496826171875">
        <ele>178.1999969482421875</ele>
        <time>2022-05-15T07:52:02.000Z</time>
      </trkpt>
      <trkpt lat="41.620292924344539642333984375" lon="2.35890065319836139678955078125">
        <ele>178</ele>
        <time>2022-05-15T07:52:05.000Z</time>
      </trkpt>
      <trkpt lat="41.62024699151515960693359375" lon="2.3588487692177295684814453125">
        <ele>177.8000030517578125</ele>
        <time>2022-05-15T07:52:06.000Z</time>
      </trkpt>
      <trkpt lat="41.6200158186256885528564453125" lon="2.35857032239437103271484375">
        <ele>177.600006103515625</ele>
        <time>2022-05-15T07:52:11.000Z</time>
      </trkpt>
      <trkpt lat="41.619833596050739288330078125" lon="2.3583414964377880096435546875">
        <ele>177.1999969482421875</ele>
        <time>2022-05-15T07:52:15.000Z</time>
      </trkpt>
      <trkpt lat="41.6197881661355495452880859375" lon="2.35828475095331668853759765625">
        <ele>177.1999969482421875</ele>
        <time>2022-05-15T07:52:16.000Z</time>
      </trkpt>
      <trkpt lat="41.6196071170270442962646484375" lon="2.35805475153028964996337890625">
        <ele>177</ele>
        <time>2022-05-15T07:52:20.000Z</time>
      </trkpt>
      <trkpt lat="41.61951751448214054107666015625" lon="2.35793723724782466888427734375">
        <ele>176.8000030517578125</ele>
        <time>2022-05-15T07:52:22.000Z</time>
      </trkpt>
      <trkpt lat="41.61947309039533138275146484375" lon="2.35787772573530673980712890625">
        <ele>176.8000030517578125</ele>
        <time>2022-05-15T07:52:23.000Z</time>
      </trkpt>
      <trkpt lat="41.61942849867045879364013671875" lon="2.357818298041820526123046875">
        <ele>176.8000030517578125</ele>
        <time>2022-05-15T07:52:24.000Z</time>
      </trkpt>
      <trkpt lat="41.61916480399668216705322265625" lon="2.35745360143482685089111328125">
        <ele>176.399993896484375</ele>
        <time>2022-05-15T07:52:30.000Z</time>
      </trkpt>
      <trkpt lat="41.61890563555061817169189453125" lon="2.357071302831172943115234375">
        <ele>176.399993896484375</ele>
        <time>2022-05-15T07:52:36.000Z</time>
      </trkpt>
      <trkpt lat="41.61870027892291545867919921875" lon="2.3567630164325237274169921875">
        <ele>176.399993896484375</ele>
        <time>2022-05-15T07:52:41.000Z</time>
      </trkpt>
      <trkpt lat="41.618624590337276458740234375" lon="2.35664038918912410736083984375">
        <ele>176.399993896484375</ele>
        <time>2022-05-15T07:52:43.000Z</time>
      </trkpt>
      <trkpt lat="41.618550829589366912841796875" lon="2.35651784576475620269775390625">
        <ele>176</ele>
        <time>2022-05-15T07:52:45.000Z</time>
      </trkpt>
      <trkpt lat="41.618514955043792724609375" lon="2.3564562387764453887939453125">
        <ele>176.1999969482421875</ele>
        <time>2022-05-15T07:52:46.000Z</time>
      </trkpt>
      <trkpt lat="41.61847866140305995941162109375" lon="2.35639496706426143646240234375">
        <ele>176.1999969482421875</ele>
        <time>2022-05-15T07:52:47.000Z</time>
      </trkpt>
      <trkpt lat="41.61825536750257015228271484375" lon="2.3560257442295551300048828125">
        <ele>175.600006103515625</ele>
        <time>2022-05-15T07:52:53.000Z</time>
      </trkpt>
      <trkpt lat="41.6182187385857105255126953125" lon="2.35596111975610256195068359375">
        <ele>175.399993896484375</ele>
        <time>2022-05-15T07:52:54.000Z</time>
      </trkpt>
      <trkpt lat="41.6181811876595020294189453125" lon="2.35589674673974514007568359375">
        <ele>175.1999969482421875</ele>
        <time>2022-05-15T07:52:55.000Z</time>
      </trkpt>
      <trkpt lat="41.61814154125750064849853515625" lon="2.35582969151437282562255859375">
        <ele>175</ele>
        <time>2022-05-15T07:52:56.000Z</time>
      </trkpt>
      <trkpt lat="41.617949344217777252197265625" lon="2.35548670403659343719482421875">
        <ele>174.600006103515625</ele>
        <time>2022-05-15T07:53:01.000Z</time>
      </trkpt>
      <trkpt lat="41.6178707219660282135009765625" lon="2.3553461395204067230224609375">
        <ele>174.1999969482421875</ele>
        <time>2022-05-15T07:53:03.000Z</time>
      </trkpt>
      <trkpt lat="41.61763242445886135101318359375" lon="2.35493190586566925048828125">
        <ele>173.399993896484375</ele>
        <time>2022-05-15T07:53:09.000Z</time>
      </trkpt>
      <trkpt lat="41.617548353970050811767578125" lon="2.35479536466300487518310546875">
        <ele>173.1999969482421875</ele>
        <time>2022-05-15T07:53:11.000Z</time>
      </trkpt>
      <trkpt lat="41.6175062768161296844482421875" lon="2.35472671687602996826171875">
        <ele>173.1999969482421875</ele>
        <time>2022-05-15T07:53:12.000Z</time>
      </trkpt>
      <trkpt lat="41.61741885356605052947998046875" lon="2.35459185205399990081787109375">
        <ele>173.1999969482421875</ele>
        <time>2022-05-15T07:53:14.000Z</time>
      </trkpt>
      <trkpt lat="41.61724559962749481201171875" lon="2.3543419875204563140869140625">
        <ele>172.8000030517578125</ele>
        <time>2022-05-15T07:53:18.000Z</time>
      </trkpt>
      <trkpt lat="41.61715063266456127166748046875" lon="2.35422086901962757110595703125">
        <ele>172.399993896484375</ele>
        <time>2022-05-15T07:53:20.000Z</time>
      </trkpt>
      <trkpt lat="41.61690588109195232391357421875" lon="2.35392616130411624908447265625">
        <ele>172</ele>
        <time>2022-05-15T07:53:25.000Z</time>
      </trkpt>
      <trkpt lat="41.61680127494037151336669921875" lon="2.35381635837256908416748046875">
        <ele>171.8000030517578125</ele>
        <time>2022-05-15T07:53:27.000Z</time>
      </trkpt>
      <trkpt lat="41.61664746701717376708984375" lon="2.35367394983768463134765625">
        <ele>171.399993896484375</ele>
        <time>2022-05-15T07:53:30.000Z</time>
      </trkpt>
      <trkpt lat="41.61659608595073223114013671875" lon="2.35363212414085865020751953125">
        <ele>171.1999969482421875</ele>
        <time>2022-05-15T07:53:31.000Z</time>
      </trkpt>
      <trkpt lat="41.6165447048842906951904296875" lon="2.35359013080596923828125">
        <ele>171.1999969482421875</ele>
        <time>2022-05-15T07:53:32.000Z</time>
      </trkpt>
      <trkpt lat="41.616492904722690582275390625" lon="2.35354796983301639556884765625">
        <ele>171</ele>
        <time>2022-05-15T07:53:33.000Z</time>
      </trkpt>
      <trkpt lat="41.6163338162004947662353515625" lon="2.3534278571605682373046875">
        <ele>170.600006103515625</ele>
        <time>2022-05-15T07:53:36.000Z</time>
      </trkpt>
      <trkpt lat="41.6162818484008312225341796875" lon="2.3533921502530574798583984375">
        <ele>170.600006103515625</ele>
        <time>2022-05-15T07:53:37.000Z</time>
      </trkpt>
      <trkpt lat="41.61617145873606204986572265625" lon="2.353326268494129180908203125">
        <ele>170</ele>
        <time>2022-05-15T07:53:39.000Z</time>
      </trkpt>
      <trkpt lat="41.6159440577030181884765625" lon="2.353201210498809814453125">
        <ele>169.399993896484375</ele>
        <time>2022-05-15T07:53:43.000Z</time>
      </trkpt>
      <trkpt lat="41.61577197723090648651123046875" lon="2.3531195707619190216064453125">
        <ele>169</ele>
        <time>2022-05-15T07:53:46.000Z</time>
      </trkpt>
      <trkpt lat="41.61540937609970569610595703125" lon="2.35298403538763523101806640625">
        <ele>168.1999969482421875</ele>
        <time>2022-05-15T07:53:52.000Z</time>
      </trkpt>
      <trkpt lat="41.6153481043875217437744140625" lon="2.35296123661100864410400390625">
        <ele>168.1999969482421875</ele>
        <time>2022-05-15T07:53:53.000Z</time>
      </trkpt>
      <trkpt lat="41.6150443442165851593017578125" lon="2.35284623689949512481689453125">
        <ele>167.399993896484375</ele>
        <time>2022-05-15T07:53:58.000Z</time>
      </trkpt>
      <trkpt lat="41.61498474888503551483154296875" lon="2.35282276757061481475830078125">
        <ele>167.399993896484375</ele>
        <time>2022-05-15T07:53:59.000Z</time>
      </trkpt>
      <trkpt lat="41.61492724902927875518798828125" lon="2.35279946587979793548583984375">
        <ele>167.1999969482421875</ele>
        <time>2022-05-15T07:54:00.000Z</time>
      </trkpt>
      <trkpt lat="41.61486941389739513397216796875" lon="2.35277532599866390228271484375">
        <ele>167.399993896484375</ele>
        <time>2022-05-15T07:54:01.000Z</time>
      </trkpt>
      <trkpt lat="41.61481090821325778961181640625" lon="2.35274850390851497650146484375">
        <ele>167.1999969482421875</ele>
        <time>2022-05-15T07:54:02.000Z</time>
      </trkpt>
      <trkpt lat="41.61475240252912044525146484375" lon="2.3527202568948268890380859375">
        <ele>167</ele>
        <time>2022-05-15T07:54:03.000Z</time>
      </trkpt>
      <trkpt lat="41.614631116390228271484375" lon="2.3526619188487529754638671875">
        <ele>166.8000030517578125</ele>
        <time>2022-05-15T07:54:05.000Z</time>
      </trkpt>
      <trkpt lat="41.614571101963520050048828125" lon="2.3526304028928279876708984375">
        <ele>166.600006103515625</ele>
        <time>2022-05-15T07:54:06.000Z</time>
      </trkpt>
      <trkpt lat="41.61434118635952472686767578125" lon="2.3524899221956729888916015625">
        <ele>166</ele>
        <time>2022-05-15T07:54:10.000Z</time>
      </trkpt>
      <trkpt lat="41.614021919667720794677734375" lon="2.3522498644888401031494140625">
        <ele>165.1999969482421875</ele>
        <time>2022-05-15T07:54:16.000Z</time>
      </trkpt>
      <trkpt lat="41.61392326466739177703857421875" lon="2.35216654837131500244140625">
        <ele>164.8000030517578125</ele>
        <time>2022-05-15T07:54:18.000Z</time>
      </trkpt>
      <trkpt lat="41.613790579140186309814453125" lon="2.3520446754992008209228515625">
        <ele>164</ele>
        <time>2022-05-15T07:54:21.000Z</time>
      </trkpt>
      <trkpt lat="41.6136883199214935302734375" lon="2.35192104242742061614990234375">
        <ele>163.399993896484375</ele>
        <time>2022-05-15T07:54:24.000Z</time>
      </trkpt>
      <trkpt lat="41.61362059414386749267578125" lon="2.35174921341240406036376953125">
        <ele>162.8000030517578125</ele>
        <time>2022-05-15T07:54:28.000Z</time>
      </trkpt>
      <trkpt lat="41.613614894449710845947265625" lon="2.3517070524394512176513671875">
        <ele>162.600006103515625</ele>
        <time>2022-05-15T07:54:29.000Z</time>
      </trkpt>
      <trkpt lat="41.6136133857071399688720703125" lon="2.35166572965681552886962890625">
        <ele>162.1999969482421875</ele>
        <time>2022-05-15T07:54:30.000Z</time>
      </trkpt>
      <trkpt lat="41.61361983977258205413818359375" lon="2.35159766860306262969970703125">
        <ele>161.8000030517578125</ele>
        <time>2022-05-15T07:54:32.000Z</time>
      </trkpt>
      <trkpt lat="41.61362570710480213165283203125" lon="2.35153866000473499298095703125">
        <ele>161.399993896484375</ele>
        <time>2022-05-15T07:54:34.000Z</time>
      </trkpt>
      <trkpt lat="41.61362838931381702423095703125" lon="2.35150915570557117462158203125">
        <ele>161.399993896484375</ele>
        <time>2022-05-15T07:54:35.000Z</time>
      </trkpt>
      <trkpt lat="41.61363459192216396331787109375" lon="2.35140991397202014923095703125">
        <ele>161</ele>
        <time>2022-05-15T07:54:39.000Z</time>
      </trkpt>
      <trkpt lat="41.61363710649311542510986328125" lon="2.3514006100594997406005859375">
        <ele>160.8000030517578125</ele>
        <time>2022-05-15T07:54:41.000Z</time>
      </trkpt>
      <trkpt lat="41.6136432252824306488037109375" lon="2.35140220262110233306884765625">
        <ele>160.399993896484375</ele>
        <time>2022-05-15T07:54:46.000Z</time>
      </trkpt>
      <trkpt lat="41.61364481784403324127197265625" lon="2.35140337608754634857177734375">
        <ele>160.1999969482421875</ele>
        <time>2022-05-15T07:54:47.000Z</time>
      </trkpt>
      <trkpt lat="41.61364582367241382598876953125" lon="2.3513814993202686309814453125">
        <ele>160.1999969482421875</ele>
        <time>2022-05-15T07:54:50.000Z</time>
      </trkpt>
      <trkpt lat="41.61359720863401889801025390625" lon="2.35123313963413238525390625">
        <ele>160.1999969482421875</ele>
        <time>2022-05-15T07:54:54.000Z</time>
      </trkpt>
      <trkpt lat="41.6135617531836032867431640625" lon="2.35117153264582157135009765625">
        <ele>160.399993896484375</ele>
        <time>2022-05-15T07:54:55.000Z</time>
      </trkpt>
      <trkpt lat="41.6134682111442089080810546875" lon="2.35104513354599475860595703125">
        <ele>160.399993896484375</ele>
        <time>2022-05-15T07:54:57.000Z</time>
      </trkpt>
      <trkpt lat="41.61341138184070587158203125" lon="2.3509950935840606689453125">
        <ele>160.399993896484375</ele>
        <time>2022-05-15T07:54:58.000Z</time>
      </trkpt>
      <trkpt lat="41.61334910430014133453369140625" lon="2.35095595009624958038330078125">
        <ele>160.399993896484375</ele>
        <time>2022-05-15T07:54:59.000Z</time>
      </trkpt>
      <trkpt lat="41.613282971084117889404296875" lon="2.35093080438673496246337890625">
        <ele>160.399993896484375</ele>
        <time>2022-05-15T07:55:00.000Z</time>
      </trkpt>
      <trkpt lat="41.61321616731584072113037109375" lon="2.35092091374099254608154296875">
        <ele>160.399993896484375</ele>
        <time>2022-05-15T07:55:01.000Z</time>
      </trkpt>
      <trkpt lat="41.6130839847028255462646484375" lon="2.35094421543180942535400390625">
        <ele>160.600006103515625</ele>
        <time>2022-05-15T07:55:03.000Z</time>
      </trkpt>
      <trkpt lat="41.6130204498767852783203125" lon="2.3509781621396541595458984375">
        <ele>160.600006103515625</ele>
        <time>2022-05-15T07:55:04.000Z</time>
      </trkpt>
      <trkpt lat="41.61296152509748935699462890625" lon="2.3510245978832244873046875">
        <ele>160.600006103515625</ele>
        <time>2022-05-15T07:55:05.000Z</time>
      </trkpt>
      <trkpt lat="41.61286094225943088531494140625" lon="2.3511452972888946533203125">
        <ele>160.8000030517578125</ele>
        <time>2022-05-15T07:55:07.000Z</time>
      </trkpt>
      <trkpt lat="41.61281400360167026519775390625" lon="2.3512158729135990142822265625">
        <ele>160.8000030517578125</ele>
        <time>2022-05-15T07:55:08.000Z</time>
      </trkpt>
      <trkpt lat="41.61271476186811923980712890625" lon="2.35135543160140514373779296875">
        <ele>160.8000030517578125</ele>
        <time>2022-05-15T07:55:10.000Z</time>
      </trkpt>
      <trkpt lat="41.61259138025343418121337890625" lon="2.35145551152527332305908203125">
        <ele>160.8000030517578125</ele>
        <time>2022-05-15T07:55:12.000Z</time>
      </trkpt>
      <trkpt lat="41.61245056428015232086181640625" lon="2.3514897935092449188232421875">
        <ele>161</ele>
        <time>2022-05-15T07:55:14.000Z</time>
      </trkpt>
      <trkpt lat="41.61237697117030620574951171875" lon="2.35149356536567211151123046875">
        <ele>160.8000030517578125</ele>
        <time>2022-05-15T07:55:15.000Z</time>
      </trkpt>
      <trkpt lat="41.6122233308851718902587890625" lon="2.351487614214420318603515625">
        <ele>160.8000030517578125</ele>
        <time>2022-05-15T07:55:17.000Z</time>
      </trkpt>
      <trkpt lat="41.61206885240972042083740234375" lon="2.3514693416655063629150390625">
        <ele>160.8000030517578125</ele>
        <time>2022-05-15T07:55:19.000Z</time>
      </trkpt>
      <trkpt lat="41.6119886375963687896728515625" lon="2.3514617979526519775390625">
        <ele>160.600006103515625</ele>
        <time>2022-05-15T07:55:20.000Z</time>
      </trkpt>
      <trkpt lat="41.6116858832538127899169921875" lon="2.35142181627452373504638671875">
        <ele>160.399993896484375</ele>
        <time>2022-05-15T07:55:24.000Z</time>
      </trkpt>
      <trkpt lat="41.61161296069622039794921875" lon="2.3514046333730220794677734375">
        <ele>160.1999969482421875</ele>
        <time>2022-05-15T07:55:25.000Z</time>
      </trkpt>
      <trkpt lat="41.6114082746207714080810546875" lon="2.35138426534831523895263671875">
        <ele>159.8000030517578125</ele>
        <time>2022-05-15T07:55:28.000Z</time>
      </trkpt>
      <trkpt lat="41.6111286543309688568115234375" lon="2.35139147378504276275634765625">
        <ele>159.600006103515625</ele>
        <time>2022-05-15T07:55:32.000Z</time>
      </trkpt>
      <trkpt lat="41.61098523996770381927490234375" lon="2.3513895459473133087158203125">
        <ele>159.600006103515625</ele>
        <time>2022-05-15T07:55:34.000Z</time>
      </trkpt>
      <trkpt lat="41.61091064102947711944580078125" lon="2.35138242132961750030517578125">
        <ele>159.600006103515625</ele>
        <time>2022-05-15T07:55:35.000Z</time>
      </trkpt>
      <trkpt lat="41.61083604209125041961669921875" lon="2.35138091258704662322998046875">
        <ele>159.600006103515625</ele>
        <time>2022-05-15T07:55:36.000Z</time>
      </trkpt>
      <trkpt lat="41.61076328717172145843505859375" lon="2.3513861931860446929931640625">
        <ele>159.600006103515625</ele>
        <time>2022-05-15T07:55:37.000Z</time>
      </trkpt>
      <trkpt lat="41.6106186993420124053955078125" lon="2.3514049686491489410400390625">
        <ele>159.600006103515625</ele>
        <time>2022-05-15T07:55:39.000Z</time>
      </trkpt>
      <trkpt lat="41.61039649508893489837646484375" lon="2.35145417042076587677001953125">
        <ele>159.600006103515625</ele>
        <time>2022-05-15T07:55:42.000Z</time>
      </trkpt>
      <trkpt lat="41.61032415926456451416015625" lon="2.351472191512584686279296875">
        <ele>159.600006103515625</ele>
        <time>2022-05-15T07:55:43.000Z</time>
      </trkpt>
      <trkpt lat="41.61025266163051128387451171875" lon="2.3514918051660060882568359375">
        <ele>159.8000030517578125</ele>
        <time>2022-05-15T07:55:44.000Z</time>
      </trkpt>
      <trkpt lat="41.60966626368463039398193359375" lon="2.351628430187702178955078125">
        <ele>159.600006103515625</ele>
        <time>2022-05-15T07:55:52.000Z</time>
      </trkpt>
      <trkpt lat="41.60943693481385707855224609375" lon="2.35166891478002071380615234375">
        <ele>159.600006103515625</ele>
        <time>2022-05-15T07:55:55.000Z</time>
      </trkpt>
      <trkpt lat="41.60910911858081817626953125" lon="2.35171434469521045684814453125">
        <ele>159.600006103515625</ele>
        <time>2022-05-15T07:55:59.000Z</time>
      </trkpt>
      <trkpt lat="41.60853185690939426422119140625" lon="2.35182465054094791412353515625">
        <ele>159.1999969482421875</ele>
        <time>2022-05-15T07:56:06.000Z</time>
      </trkpt>
      <trkpt lat="41.6084494628012180328369140625" lon="2.35183638520538806915283203125">
        <ele>159.1999969482421875</ele>
        <time>2022-05-15T07:56:07.000Z</time>
      </trkpt>
      <trkpt lat="41.60828358493745326995849609375" lon="2.3518565855920314788818359375">
        <ele>159</ele>
        <time>2022-05-15T07:56:09.000Z</time>
      </trkpt>
      <trkpt lat="41.608202196657657623291015625" lon="2.3518646322190761566162109375">
        <ele>159</ele>
        <time>2022-05-15T07:56:10.000Z</time>
      </trkpt>
      <trkpt lat="41.60788024775683879852294921875" lon="2.3518733493983745574951171875">
        <ele>158.8000030517578125</ele>
        <time>2022-05-15T07:56:14.000Z</time>
      </trkpt>
      <trkpt lat="41.607721745967864990234375" lon="2.3518619500100612640380859375">
        <ele>158.600006103515625</ele>
        <time>2022-05-15T07:56:16.000Z</time>
      </trkpt>
      <trkpt lat="41.6073420457541942596435546875" lon="2.3518150113523006439208984375">
        <ele>158.600006103515625</ele>
        <time>2022-05-15T07:56:21.000Z</time>
      </trkpt>
      <trkpt lat="41.6072697937488555908203125" lon="2.3518005944788455963134765625">
        <ele>158.600006103515625</ele>
        <time>2022-05-15T07:56:22.000Z</time>
      </trkpt>
      <trkpt lat="41.607197038829326629638671875" lon="2.35178492031991481781005859375">
        <ele>158.600006103515625</ele>
        <time>2022-05-15T07:56:23.000Z</time>
      </trkpt>
      <trkpt lat="41.60705077461898326873779296875" lon="2.3517462797462940216064453125">
        <ele>158.600006103515625</ele>
        <time>2022-05-15T07:56:25.000Z</time>
      </trkpt>
      <trkpt lat="41.60660955123603343963623046875" lon="2.3515803180634975433349609375">
        <ele>159.1999969482421875</ele>
        <time>2022-05-15T07:56:31.000Z</time>
      </trkpt>
      <trkpt lat="41.606256924569606781005859375" lon="2.3513697646558284759521484375">
        <ele>159.600006103515625</ele>
        <time>2022-05-15T07:56:36.000Z</time>
      </trkpt>
      <trkpt lat="41.6061206348240375518798828125" lon="2.3512711934745311737060546875">
        <ele>159.600006103515625</ele>
        <time>2022-05-15T07:56:38.000Z</time>
      </trkpt>
      <trkpt lat="41.60574520938098430633544921875" lon="2.35089744441211223602294921875">
        <ele>160</ele>
        <time>2022-05-15T07:56:44.000Z</time>
      </trkpt>
      <trkpt lat="41.60563741810619831085205078125" lon="2.35075193457305431365966796875">
        <ele>160</ele>
        <time>2022-05-15T07:56:46.000Z</time>
      </trkpt>
      <trkpt lat="41.60553700290620326995849609375" lon="2.35060575418174266815185546875">
        <ele>160</ele>
        <time>2022-05-15T07:56:48.000Z</time>
      </trkpt>
      <trkpt lat="41.60548721440136432647705078125" lon="2.35053366981446743011474609375">
        <ele>160</ele>
        <time>2022-05-15T07:56:49.000Z</time>
      </trkpt>
      <trkpt lat="41.60543608479201793670654296875" lon="2.35046342946588993072509765625">
        <ele>160.1999969482421875</ele>
        <time>2022-05-15T07:56:50.000Z</time>
      </trkpt>
      <trkpt lat="41.60538830794394016265869140625" lon="2.35039067454636096954345703125">
        <ele>160.1999969482421875</ele>
        <time>2022-05-15T07:56:51.000Z</time>
      </trkpt>
      <trkpt lat="41.6052415408194065093994140625" lon="2.3501691408455371856689453125">
        <ele>160.1999969482421875</ele>
        <time>2022-05-15T07:56:54.000Z</time>
      </trkpt>
      <trkpt lat="41.6051895730197429656982421875" lon="2.35009563155472278594970703125">
        <ele>160.1999969482421875</ele>
        <time>2022-05-15T07:56:55.000Z</time>
      </trkpt>
      <trkpt lat="41.60513676702976226806640625" lon="2.35002212226390838623046875">
        <ele>160.1999969482421875</ele>
        <time>2022-05-15T07:56:56.000Z</time>
      </trkpt>
      <trkpt lat="41.60508253611624240875244140625" lon="2.34994878061115741729736328125">
        <ele>160.1999969482421875</ele>
        <time>2022-05-15T07:56:57.000Z</time>
      </trkpt>
      <trkpt lat="41.60497248172760009765625" lon="2.3498016782104969024658203125">
        <ele>160.399993896484375</ele>
        <time>2022-05-15T07:56:59.000Z</time>
      </trkpt>
      <trkpt lat="41.6047972999513149261474609375" lon="2.34957461245357990264892578125">
        <ele>160.1999969482421875</ele>
        <time>2022-05-15T07:57:02.000Z</time>
      </trkpt>
      <trkpt lat="41.60467945039272308349609375" lon="2.34942172653973102569580078125">
        <ele>160</ele>
        <time>2022-05-15T07:57:04.000Z</time>
      </trkpt>
      <trkpt lat="41.6046185977756977081298828125" lon="2.34934461303055286407470703125">
        <ele>160</ele>
        <time>2022-05-15T07:57:05.000Z</time>
      </trkpt>
      <trkpt lat="41.60455397330224514007568359375" lon="2.3492685891687870025634765625">
        <ele>160</ele>
        <time>2022-05-15T07:57:06.000Z</time>
      </trkpt>
      <trkpt lat="41.60448968410491943359375" lon="2.349191643297672271728515625">
        <ele>159.8000030517578125</ele>
        <time>2022-05-15T07:57:07.000Z</time>
      </trkpt>
      <trkpt lat="41.60423110239207744598388671875" lon="2.34888293780386447906494140625">
        <ele>159.600006103515625</ele>
        <time>2022-05-15T07:57:11.000Z</time>
      </trkpt>
      <trkpt lat="41.60408877767622470855712890625" lon="2.3487324826419353485107421875">
        <ele>159.600006103515625</ele>
        <time>2022-05-15T07:57:13.000Z</time>
      </trkpt>
      <trkpt lat="41.6040194593369960784912109375" lon="2.34865511767566204071044921875">
        <ele>159.1999969482421875</ele>
        <time>2022-05-15T07:57:14.000Z</time>
      </trkpt>
      <trkpt lat="41.603949554264545440673828125" lon="2.34858035109937191009521484375">
        <ele>159.1999969482421875</ele>
        <time>2022-05-15T07:57:15.000Z</time>
      </trkpt>
      <trkpt lat="41.60360145382583141326904296875" lon="2.34822395257651805877685546875">
        <ele>159</ele>
        <time>2022-05-15T07:57:20.000Z</time>
      </trkpt>
      <trkpt lat="41.6035302914679050445556640625" lon="2.34815304167568683624267578125">
        <ele>158.600006103515625</ele>
        <time>2022-05-15T07:57:21.000Z</time>
      </trkpt>
      <trkpt lat="41.60323650576174259185791015625" lon="2.347859255969524383544921875">
        <ele>157</ele>
        <time>2022-05-15T07:57:25.000Z</time>
      </trkpt>
      <trkpt lat="41.60308144055306911468505859375" lon="2.3477068729698657989501953125">
        <ele>156.399993896484375</ele>
        <time>2022-05-15T07:57:27.000Z</time>
      </trkpt>
      <trkpt lat="41.602916903793811798095703125" lon="2.347556166350841522216796875">
        <ele>155.8000030517578125</ele>
        <time>2022-05-15T07:57:29.000Z</time>
      </trkpt>
      <trkpt lat="41.602833755314350128173828125" lon="2.3474832437932491302490234375">
        <ele>155.600006103515625</ele>
        <time>2022-05-15T07:57:30.000Z</time>
      </trkpt>
      <trkpt lat="41.60275136120617389678955078125" lon="2.34741040505468845367431640625">
        <ele>155.1999969482421875</ele>
        <time>2022-05-15T07:57:31.000Z</time>
      </trkpt>
      <trkpt lat="41.60266871564090251922607421875" lon="2.3473400808870792388916015625">
        <ele>154.8000030517578125</ele>
        <time>2022-05-15T07:57:32.000Z</time>
      </trkpt>
      <trkpt lat="41.60258674062788486480712890625" lon="2.3472710140049457550048828125">
        <ele>154.8000030517578125</ele>
        <time>2022-05-15T07:57:33.000Z</time>
      </trkpt>
      <trkpt lat="41.602421700954437255859375" lon="2.34713598154485225677490234375">
        <ele>154.600006103515625</ele>
        <time>2022-05-15T07:57:35.000Z</time>
      </trkpt>
      <trkpt lat="41.602181978523731231689453125" lon="2.34694252721965312957763671875">
        <ele>154.399993896484375</ele>
        <time>2022-05-15T07:57:38.000Z</time>
      </trkpt>
      <trkpt lat="41.60170211456716060638427734375" lon="2.34659836627542972564697265625">
        <ele>154</ele>
        <time>2022-05-15T07:57:44.000Z</time>
      </trkpt>
      <trkpt lat="41.60162508487701416015625" lon="2.34654690138995647430419921875">
        <ele>154</ele>
        <time>2022-05-15T07:57:45.000Z</time>
      </trkpt>
      <trkpt lat="41.60147018730640411376953125" lon="2.34644782729446887969970703125">
        <ele>153.600006103515625</ele>
        <time>2022-05-15T07:57:47.000Z</time>
      </trkpt>
      <trkpt lat="41.6009961068630218505859375" lon="2.34616510570049285888671875">
        <ele>153</ele>
        <time>2022-05-15T07:57:53.000Z</time>
      </trkpt>
      <trkpt lat="41.60067767836153507232666015625" lon="2.34599553979933261871337890625">
        <ele>152.600006103515625</ele>
        <time>2022-05-15T07:57:57.000Z</time>
      </trkpt>
      <trkpt lat="41.60044717602431774139404296875" lon="2.34588104300200939178466796875">
        <ele>152.600006103515625</ele>
        <time>2022-05-15T07:58:00.000Z</time>
      </trkpt>
      <trkpt lat="41.60036922432482242584228515625" lon="2.3458440788090229034423828125">
        <ele>152.399993896484375</ele>
        <time>2022-05-15T07:58:01.000Z</time>
      </trkpt>
      <trkpt lat="41.6002960503101348876953125" lon="2.34580837190151214599609375">
        <ele>152.399993896484375</ele>
        <time>2022-05-15T07:58:02.000Z</time>
      </trkpt>
      <trkpt lat="41.59975952468812465667724609375" lon="2.34559915959835052490234375">
        <ele>151.600006103515625</ele>
        <time>2022-05-15T07:58:09.000Z</time>
      </trkpt>
      <trkpt lat="41.59936867654323577880859375" lon="2.345460690557956695556640625">
        <ele>151.600006103515625</ele>
        <time>2022-05-15T07:58:14.000Z</time>
      </trkpt>
      <trkpt lat="41.599288880825042724609375" lon="2.34543596394360065460205078125">
        <ele>151.1999969482421875</ele>
        <time>2022-05-15T07:58:15.000Z</time>
      </trkpt>
      <trkpt lat="41.59921101294457912445068359375" lon="2.34541031531989574432373046875">
        <ele>151.1999969482421875</ele>
        <time>2022-05-15T07:58:16.000Z</time>
      </trkpt>
      <trkpt lat="41.59867339767515659332275390625" lon="2.3452291823923587799072265625">
        <ele>150.8000030517578125</ele>
        <time>2022-05-15T07:58:23.000Z</time>
      </trkpt>
      <trkpt lat="41.5984438173472881317138671875" lon="2.34514796175062656402587890625">
        <ele>150.399993896484375</ele>
        <time>2022-05-15T07:58:26.000Z</time>
      </trkpt>
      <trkpt lat="41.59813494421541690826416015625" lon="2.34503044746816158294677734375">
        <ele>150</ele>
        <time>2022-05-15T07:58:30.000Z</time>
      </trkpt>
      <trkpt lat="41.59805439412593841552734375" lon="2.34500060789287090301513671875">
        <ele>150</ele>
        <time>2022-05-15T07:58:31.000Z</time>
      </trkpt>
      <trkpt lat="41.59797392785549163818359375" lon="2.3449708521366119384765625">
        <ele>149.8000030517578125</ele>
        <time>2022-05-15T07:58:32.000Z</time>
      </trkpt>
      <trkpt lat="41.59750948660075664520263671875" lon="2.3447651602327823638916015625">
        <ele>149.1999969482421875</ele>
        <time>2022-05-15T07:58:38.000Z</time>
      </trkpt>
      <trkpt lat="41.5974319539964199066162109375" lon="2.3447255976498126983642578125">
        <ele>149.1999969482421875</ele>
        <time>2022-05-15T07:58:39.000Z</time>
      </trkpt>
      <trkpt lat="41.596922837197780609130859375" lon="2.3444285430014133453369140625">
        <ele>149</ele>
        <time>2022-05-15T07:58:46.000Z</time>
      </trkpt>
      <trkpt lat="41.59685318358242511749267578125" lon="2.344382107257843017578125">
        <ele>149</ele>
        <time>2022-05-15T07:58:47.000Z</time>
      </trkpt>
      <trkpt lat="41.5967825241386890411376953125" lon="2.344336844980716705322265625">
        <ele>148.8000030517578125</ele>
        <time>2022-05-15T07:58:48.000Z</time>
      </trkpt>
      <trkpt lat="41.59671421162784099578857421875" lon="2.3442917503416538238525390625">
        <ele>148.8000030517578125</ele>
        <time>2022-05-15T07:58:49.000Z</time>
      </trkpt>
      <trkpt lat="41.59644749946892261505126953125" lon="2.3441066779196262359619140625">
        <ele>148.600006103515625</ele>
        <time>2022-05-15T07:58:53.000Z</time>
      </trkpt>
      <trkpt lat="41.59638161770999431610107421875" lon="2.34405747614800930023193359375">
        <ele>148.8000030517578125</ele>
        <time>2022-05-15T07:58:54.000Z</time>
      </trkpt>
      <trkpt lat="41.59612060524523258209228515625" lon="2.34385035932064056396484375">
        <ele>149</ele>
        <time>2022-05-15T07:58:58.000Z</time>
      </trkpt>
      <trkpt lat="41.5958088822662830352783203125" lon="2.34356847591698169708251953125">
        <ele>149.1999969482421875</ele>
        <time>2022-05-15T07:59:03.000Z</time>
      </trkpt>
      <trkpt lat="41.5953445248305797576904296875" lon="2.34306975267827510833740234375">
        <ele>149.399993896484375</ele>
        <time>2022-05-15T07:59:11.000Z</time>
      </trkpt>
      <trkpt lat="41.59517311491072177886962890625" lon="2.3428799025714397430419921875">
        <ele>149.8000030517578125</ele>
        <time>2022-05-15T07:59:14.000Z</time>
      </trkpt>
      <trkpt lat="41.59506297670304775238037109375" lon="2.34275601804256439208984375">
        <ele>149.8000030517578125</ele>
        <time>2022-05-15T07:59:16.000Z</time>
      </trkpt>
      <trkpt lat="41.59500874578952789306640625" lon="2.3426938243210315704345703125">
        <ele>150</ele>
        <time>2022-05-15T07:59:17.000Z</time>
      </trkpt>
      <trkpt lat="41.59473113715648651123046875" lon="2.34238310717046260833740234375">
        <ele>150</ele>
        <time>2022-05-15T07:59:22.000Z</time>
      </trkpt>
      <trkpt lat="41.5946206636726856231689453125" lon="2.34226006083190441131591796875">
        <ele>150.1999969482421875</ele>
        <time>2022-05-15T07:59:24.000Z</time>
      </trkpt>
      <trkpt lat="41.5945643372833728790283203125" lon="2.34219803474843502044677734375">
        <ele>150</ele>
        <time>2022-05-15T07:59:25.000Z</time>
      </trkpt>
      <trkpt lat="41.59451027400791645050048828125" lon="2.34213433228433132171630859375">
        <ele>150</ele>
        <time>2022-05-15T07:59:26.000Z</time>
      </trkpt>
      <trkpt lat="41.59433844499289989471435546875" lon="2.34194624237716197967529296875">
        <ele>150.1999969482421875</ele>
        <time>2022-05-15T07:59:29.000Z</time>
      </trkpt>
      <trkpt lat="41.59417449496686458587646484375" lon="2.341764606535434722900390625">
        <ele>150</ele>
        <time>2022-05-15T07:59:32.000Z</time>
      </trkpt>
      <trkpt lat="41.5939953736960887908935546875" lon="2.34153091907501220703125">
        <ele>149.8000030517578125</ele>
        <time>2022-05-15T07:59:36.000Z</time>
      </trkpt>
      <trkpt lat="41.59396980889141559600830078125" lon="2.341452129185199737548828125">
        <ele>149.8000030517578125</ele>
        <time>2022-05-15T07:59:37.000Z</time>
      </trkpt>
      <trkpt lat="41.59395941533148288726806640625" lon="2.34136185608804225921630859375">
        <ele>149.8000030517578125</ele>
        <time>2022-05-15T07:59:38.000Z</time>
      </trkpt>
      <trkpt lat="41.5939511172473430633544921875" lon="2.34126429073512554168701171875">
        <ele>149.600006103515625</ele>
        <time>2022-05-15T07:59:39.000Z</time>
      </trkpt>
      <trkpt lat="41.59393049776554107666015625" lon="2.34116387553513050079345703125">
        <ele>149.399993896484375</ele>
        <time>2022-05-15T07:59:40.000Z</time>
      </trkpt>
      <trkpt lat="41.5938962996006011962890625" lon="2.34106563962996006011962890625">
        <ele>149.399993896484375</ele>
        <time>2022-05-15T07:59:41.000Z</time>
      </trkpt>
      <trkpt lat="41.59384827129542827606201171875" lon="2.3409751988947391510009765625">
        <ele>149.1999969482421875</ele>
        <time>2022-05-15T07:59:42.000Z</time>
      </trkpt>
      <trkpt lat="41.5937932021915912628173828125" lon="2.340889871120452880859375">
        <ele>149</ele>
        <time>2022-05-15T07:59:43.000Z</time>
      </trkpt>
      <trkpt lat="41.59360838122665882110595703125" lon="2.34067655168473720550537109375">
        <ele>148.600006103515625</ele>
        <time>2022-05-15T07:59:46.000Z</time>
      </trkpt>
      <trkpt lat="41.59354367293417453765869140625" lon="2.34063900075852870941162109375">
        <ele>148.399993896484375</ele>
        <time>2022-05-15T07:59:47.000Z</time>
      </trkpt>
      <trkpt lat="41.59347125329077243804931640625" lon="2.3406171239912509918212890625">
        <ele>148.1999969482421875</ele>
        <time>2022-05-15T07:59:48.000Z</time>
      </trkpt>
      <trkpt lat="41.59331895411014556884765625" lon="2.3406122624874114990234375">
        <ele>147.8000030517578125</ele>
        <time>2022-05-15T07:59:50.000Z</time>
      </trkpt>
      <trkpt lat="41.59324309788644313812255859375" lon="2.3405970074236392974853515625">
        <ele>147.600006103515625</ele>
        <time>2022-05-15T07:59:51.000Z</time>
      </trkpt>
      <trkpt lat="41.59311468712985515594482421875" lon="2.34050438739359378814697265625">
        <ele>147.600006103515625</ele>
        <time>2022-05-15T07:59:53.000Z</time>
      </trkpt>
      <trkpt lat="41.59295207820832729339599609375" lon="2.34031981788575649261474609375">
        <ele>147.1999969482421875</ele>
        <time>2022-05-15T07:59:56.000Z</time>
      </trkpt>
      <trkpt lat="41.59289625473320484161376953125" lon="2.3402600549161434173583984375">
        <ele>147</ele>
        <time>2022-05-15T07:59:57.000Z</time>
      </trkpt>
      <trkpt lat="41.59284194000065326690673828125" lon="2.3402020521461963653564453125">
        <ele>147</ele>
        <time>2022-05-15T07:59:58.000Z</time>
      </trkpt>
      <trkpt lat="41.59239350818097591400146484375" lon="2.33980382792651653289794921875">
        <ele>147.399993896484375</ele>
        <time>2022-05-15T08:00:06.000Z</time>
      </trkpt>
      <trkpt lat="41.5923384390771389007568359375" lon="2.33976979739964008331298828125">
        <ele>147.399993896484375</ele>
        <time>2022-05-15T08:00:07.000Z</time>
      </trkpt>
      <trkpt lat="41.59222737886011600494384765625" lon="2.339720092713832855224609375">
        <ele>147.600006103515625</ele>
        <time>2022-05-15T08:00:09.000Z</time>
      </trkpt>
      <trkpt lat="41.59211690537631511688232421875" lon="2.3396874032914638519287109375">
        <ele>147.600006103515625</ele>
        <time>2022-05-15T08:00:11.000Z</time>
      </trkpt>
      <trkpt lat="41.5919579006731510162353515625" lon="2.3396515287458896636962890625">
        <ele>148.399993896484375</ele>
        <time>2022-05-15T08:00:14.000Z</time>
      </trkpt>
      <trkpt lat="41.5919101238250732421875" lon="2.3396377824246883392333984375">
        <ele>148.8000030517578125</ele>
        <time>2022-05-15T08:00:15.000Z</time>
      </trkpt>
      <trkpt lat="41.59179277718067169189453125" lon="2.33957902528345584869384765625">
        <ele>149.600006103515625</ele>
        <time>2022-05-15T08:00:18.000Z</time>
      </trkpt>
      <trkpt lat="41.591738797724246978759765625" lon="2.3394942842423915863037109375">
        <ele>150.399993896484375</ele>
        <time>2022-05-15T08:00:20.000Z</time>
      </trkpt>
      <trkpt lat="41.59172144718468189239501953125" lon="2.33943921513855457305908203125">
        <ele>150.600006103515625</ele>
        <time>2022-05-15T08:00:21.000Z</time>
      </trkpt>
      <trkpt lat="41.59171306528151035308837890625" lon="2.33937886543571949005126953125">
        <ele>150.8000030517578125</ele>
        <time>2022-05-15T08:00:22.000Z</time>
      </trkpt>
      <trkpt lat="41.59170552156865596771240234375" lon="2.3393140733242034912109375">
        <ele>150.8000030517578125</ele>
        <time>2022-05-15T08:00:23.000Z</time>
      </trkpt>
      <trkpt lat="41.5917000733315944671630859375" lon="2.3392465151846408843994140625">
        <ele>151</ele>
        <time>2022-05-15T08:00:24.000Z</time>
      </trkpt>
      <trkpt lat="41.59169361926615238189697265625" lon="2.339174263179302215576171875">
        <ele>151.1999969482421875</ele>
        <time>2022-05-15T08:00:25.000Z</time>
      </trkpt>
      <trkpt lat="41.5916742570698261260986328125" lon="2.3389407433569431304931640625">
        <ele>151.1999969482421875</ele>
        <time>2022-05-15T08:00:28.000Z</time>
      </trkpt>
      <trkpt lat="41.59166897647082805633544921875" lon="2.33885130845010280609130859375">
        <ele>151.600006103515625</ele>
        <time>2022-05-15T08:00:29.000Z</time>
      </trkpt>
      <trkpt lat="41.5916504524648189544677734375" lon="2.338665984570980072021484375">
        <ele>151.8000030517578125</ele>
        <time>2022-05-15T08:00:31.000Z</time>
      </trkpt>
      <trkpt lat="41.59163092263042926788330078125" lon="2.33847026713192462921142578125">
        <ele>151.600006103515625</ele>
        <time>2022-05-15T08:00:33.000Z</time>
      </trkpt>
      <trkpt lat="41.5916179306805133819580078125" lon="2.33836884610354900360107421875">
        <ele>151.8000030517578125</ele>
        <time>2022-05-15T08:00:34.000Z</time>
      </trkpt>
      <trkpt lat="41.59158029593527317047119140625" lon="2.33805100433528423309326171875">
        <ele>151.1999969482421875</ele>
        <time>2022-05-15T08:00:37.000Z</time>
      </trkpt>
      <trkpt lat="41.591554395854473114013671875" lon="2.337832152843475341796875">
        <ele>151</ele>
        <time>2022-05-15T08:00:39.000Z</time>
      </trkpt>
      <trkpt lat="41.59152950160205364227294921875" lon="2.33760793693363666534423828125">
        <ele>150.8000030517578125</ele>
        <time>2022-05-15T08:00:41.000Z</time>
      </trkpt>
      <trkpt lat="41.591514833271503448486328125" lon="2.3374946974217891693115234375">
        <ele>150.600006103515625</ele>
        <time>2022-05-15T08:00:42.000Z</time>
      </trkpt>
      <trkpt lat="41.59148625098168849945068359375" lon="2.33726310543715953826904296875">
        <ele>150.399993896484375</ele>
        <time>2022-05-15T08:00:44.000Z</time>
      </trkpt>
      <trkpt lat="41.59144232980906963348388671875" lon="2.336902432143688201904296875">
        <ele>149.8000030517578125</ele>
        <time>2022-05-15T08:00:47.000Z</time>
      </trkpt>
      <trkpt lat="41.5914013423025608062744140625" lon="2.336538992822170257568359375">
        <ele>148.600006103515625</ele>
        <time>2022-05-15T08:00:50.000Z</time>
      </trkpt>
      <trkpt lat="41.591317020356655120849609375" lon="2.33584254048764705657958984375">
        <ele>146.8000030517578125</ele>
        <time>2022-05-15T08:00:56.000Z</time>
      </trkpt>
      <trkpt lat="41.59123755991458892822265625" lon="2.33508917503058910369873046875">
        <ele>146</ele>
        <time>2022-05-15T08:01:03.000Z</time>
      </trkpt>
      <trkpt lat="41.59122691489756107330322265625" lon="2.334988005459308624267578125">
        <ele>145.8000030517578125</ele>
        <time>2022-05-15T08:01:04.000Z</time>
      </trkpt>
      <trkpt lat="41.59116053022444248199462890625" lon="2.33439750038087368011474609375">
        <ele>145.600006103515625</ele>
        <time>2022-05-15T08:01:10.000Z</time>
      </trkpt>
      <trkpt lat="41.59113571979105472564697265625" lon="2.33421024866402149200439453125">
        <ele>145.8000030517578125</ele>
        <time>2022-05-15T08:01:12.000Z</time>
      </trkpt>
      <trkpt lat="41.5910721011459827423095703125" lon="2.33384798280894756317138671875">
        <ele>146</ele>
        <time>2022-05-15T08:01:16.000Z</time>
      </trkpt>
      <trkpt lat="41.59101887606084346771240234375" lon="2.33367741107940673828125">
        <ele>146.1999969482421875</ele>
        <time>2022-05-15T08:01:18.000Z</time>
      </trkpt>
      <trkpt lat="41.59095056354999542236328125" lon="2.3335199989378452301025390625">
        <ele>146.600006103515625</ele>
        <time>2022-05-15T08:01:20.000Z</time>
      </trkpt>
      <trkpt lat="41.59091376699507236480712890625" lon="2.33344347216188907623291015625">
        <ele>146.600006103515625</ele>
        <time>2022-05-15T08:01:21.000Z</time>
      </trkpt>
      <trkpt lat="41.59065577201545238494873046875" lon="2.33302270062267780303955078125">
        <ele>147</ele>
        <time>2022-05-15T08:01:27.000Z</time>
      </trkpt>
      <trkpt lat="41.5906147845089435577392578125" lon="2.33295363374054431915283203125">
        <ele>147</ele>
        <time>2022-05-15T08:01:28.000Z</time>
      </trkpt>
      <trkpt lat="41.59037581644952297210693359375" lon="2.3325882665812969207763671875">
        <ele>147.399993896484375</ele>
        <time>2022-05-15T08:01:34.000Z</time>
      </trkpt>
      <trkpt lat="41.59022594802081584930419921875" lon="2.332349717617034912109375">
        <ele>147.8000030517578125</ele>
        <time>2022-05-15T08:01:38.000Z</time>
      </trkpt>
      <trkpt lat="41.59014866687357425689697265625" lon="2.33222658745944499969482421875">
        <ele>148</ele>
        <time>2022-05-15T08:01:40.000Z</time>
      </trkpt>
      <trkpt lat="41.59011103212833404541015625" lon="2.33217126689851284027099609375">
        <ele>148.1999969482421875</ele>
        <time>2022-05-15T08:01:41.000Z</time>
      </trkpt>
      <trkpt lat="41.590038947761058807373046875" lon="2.33205559663474559783935546875">
        <ele>148.600006103515625</ele>
        <time>2022-05-15T08:01:43.000Z</time>
      </trkpt>
      <trkpt lat="41.5900025703012943267822265625" lon="2.33199591748416423797607421875">
        <ele>148.600006103515625</ele>
        <time>2022-05-15T08:01:44.000Z</time>
      </trkpt>
      <trkpt lat="41.58982831053435802459716796875" lon="2.33171512372791767120361328125">
        <ele>150.600006103515625</ele>
        <time>2022-05-15T08:01:49.000Z</time>
      </trkpt>
      <trkpt lat="41.5897226147353649139404296875" lon="2.33154463581740856170654296875">
        <ele>151.1999969482421875</ele>
        <time>2022-05-15T08:01:52.000Z</time>
      </trkpt>
      <trkpt lat="41.58963250927627086639404296875" lon="2.33137465082108974456787109375">
        <ele>151.600006103515625</ele>
        <time>2022-05-15T08:01:55.000Z</time>
      </trkpt>
      <trkpt lat="41.58960677683353424072265625" lon="2.33131648041307926177978515625">
        <ele>151.8000030517578125</ele>
        <time>2022-05-15T08:01:56.000Z</time>
      </trkpt>
      <trkpt lat="41.589579619467258453369140625" lon="2.3312567174434661865234375">
        <ele>152.1999969482421875</ele>
        <time>2022-05-15T08:01:57.000Z</time>
      </trkpt>
      <trkpt lat="41.589503176510334014892578125" lon="2.33108949847519397735595703125">
        <ele>152.8000030517578125</ele>
        <time>2022-05-15T08:02:00.000Z</time>
      </trkpt>
      <trkpt lat="41.5894795395433902740478515625" lon="2.33104021288454532623291015625">
        <ele>153.1999969482421875</ele>
        <time>2022-05-15T08:02:01.000Z</time>
      </trkpt>
      <trkpt lat="41.589454896748065948486328125" lon="2.33098858036100864410400390625">
        <ele>153.399993896484375</ele>
        <time>2022-05-15T08:02:02.000Z</time>
      </trkpt>
      <trkpt lat="41.58930175937712192535400390625" lon="2.330681718885898590087890625">
        <ele>155.399993896484375</ele>
        <time>2022-05-15T08:02:08.000Z</time>
      </trkpt>
      <trkpt lat="41.58927761949598789215087890625" lon="2.33063184656202793121337890625">
        <ele>155.399993896484375</ele>
        <time>2022-05-15T08:02:09.000Z</time>
      </trkpt>
      <trkpt lat="41.5892036072909832000732421875" lon="2.33047812245786190032958984375">
        <ele>156.1999969482421875</ele>
        <time>2022-05-15T08:02:12.000Z</time>
      </trkpt>
      <trkpt lat="41.58918022178113460540771484375" lon="2.33042732812464237213134765625">
        <ele>156.1999969482421875</ele>
        <time>2022-05-15T08:02:13.000Z</time>
      </trkpt>
      <trkpt lat="41.5891553275287151336669921875" lon="2.330375611782073974609375">
        <ele>156.399993896484375</ele>
        <time>2022-05-15T08:02:14.000Z</time>
      </trkpt>
      <trkpt lat="41.58912993036210536956787109375" lon="2.330323643982410430908203125">
        <ele>156.600006103515625</ele>
        <time>2022-05-15T08:02:15.000Z</time>
      </trkpt>
      <trkpt lat="41.5891040302813053131103515625" lon="2.33026991598308086395263671875">
        <ele>156.8000030517578125</ele>
        <time>2022-05-15T08:02:16.000Z</time>
      </trkpt>
      <trkpt lat="41.58907980658113956451416015625" lon="2.33021493069827556610107421875">
        <ele>157</ele>
        <time>2022-05-15T08:02:17.000Z</time>
      </trkpt>
      <trkpt lat="41.588969416916370391845703125" lon="2.32997101731598377227783203125">
        <ele>158</ele>
        <time>2022-05-15T08:02:21.000Z</time>
      </trkpt>
      <trkpt lat="41.58891250379383563995361328125" lon="2.32983070425689220428466796875">
        <ele>158</ele>
        <time>2022-05-15T08:02:23.000Z</time>
      </trkpt>
      <trkpt lat="41.5888820774853229522705078125" lon="2.32975644059479236602783203125">
        <ele>158.1999969482421875</ele>
        <time>2022-05-15T08:02:24.000Z</time>
      </trkpt>
      <trkpt lat="41.58884930424392223358154296875" lon="2.3296794109046459197998046875">
        <ele>158.1999969482421875</ele>
        <time>2022-05-15T08:02:25.000Z</time>
      </trkpt>
      <trkpt lat="41.58872391097247600555419921875" lon="2.32943407259881496429443359375">
        <ele>158</ele>
        <time>2022-05-15T08:02:28.000Z</time>
      </trkpt>
      <trkpt lat="41.58856582827866077423095703125" lon="2.32904900796711444854736328125">
        <ele>158.399993896484375</ele>
        <time>2022-05-15T08:02:32.000Z</time>
      </trkpt>
      <trkpt lat="41.58851922489702701568603515625" lon="2.328944317996501922607421875">
        <ele>158.1999969482421875</ele>
        <time>2022-05-15T08:02:33.000Z</time>
      </trkpt>
      <trkpt lat="41.58842165954411029815673828125" lon="2.3287302441895008087158203125">
        <ele>158.1999969482421875</ele>
        <time>2022-05-15T08:02:35.000Z</time>
      </trkpt>
      <trkpt lat="41.58833113498985767364501953125" lon="2.32850468717515468597412109375">
        <ele>157.399993896484375</ele>
        <time>2022-05-15T08:02:37.000Z</time>
      </trkpt>
      <trkpt lat="41.58823926933109760284423828125" lon="2.32828776352107524871826171875">
        <ele>157</ele>
        <time>2022-05-15T08:02:39.000Z</time>
      </trkpt>
      <trkpt lat="41.58819400705397129058837890625" lon="2.328179217875003814697265625">
        <ele>156.399993896484375</ele>
        <time>2022-05-15T08:02:40.000Z</time>
      </trkpt>
      <trkpt lat="41.58815058879554271697998046875" lon="2.3280720971524715423583984375">
        <ele>155.8000030517578125</ele>
        <time>2022-05-15T08:02:41.000Z</time>
      </trkpt>
      <trkpt lat="41.58806861378252506256103515625" lon="2.327864058315753936767578125">
        <ele>155.1999969482421875</ele>
        <time>2022-05-15T08:02:43.000Z</time>
      </trkpt>
      <trkpt lat="41.5879902429878711700439453125" lon="2.3276694305241107940673828125">
        <ele>153.8000030517578125</ele>
        <time>2022-05-15T08:02:45.000Z</time>
      </trkpt>
      <trkpt lat="41.5879543684422969818115234375" lon="2.32757697813212871551513671875">
        <ele>153.1999969482421875</ele>
        <time>2022-05-15T08:02:46.000Z</time>
      </trkpt>
      <trkpt lat="41.5879087708890438079833984375" lon="2.32750170864164829254150390625">
        <ele>152.600006103515625</ele>
        <time>2022-05-15T08:02:47.000Z</time>
      </trkpt>
      <trkpt lat="41.5878718905150890350341796875" lon="2.32742182910442352294921875">
        <ele>152.1999969482421875</ele>
        <time>2022-05-15T08:02:48.000Z</time>
      </trkpt>
      <trkpt lat="41.587846241891384124755859375" lon="2.3273348249495029449462890625">
        <ele>151.399993896484375</ele>
        <time>2022-05-15T08:02:49.000Z</time>
      </trkpt>
      <trkpt lat="41.58783609978854656219482421875" lon="2.32723935507237911224365234375">
        <ele>150.600006103515625</ele>
        <time>2022-05-15T08:02:50.000Z</time>
      </trkpt>
      <trkpt lat="41.587826125323772430419921875" lon="2.3271477408707141876220703125">
        <ele>150.399993896484375</ele>
        <time>2022-05-15T08:02:51.000Z</time>
      </trkpt>
      <trkpt lat="41.587847582995891571044921875" lon="2.3269633390009403228759765625">
        <ele>148.8000030517578125</ele>
        <time>2022-05-15T08:02:53.000Z</time>
      </trkpt>
      <trkpt lat="41.5879189968109130859375" lon="2.326781786978244781494140625">
        <ele>147.600006103515625</ele>
        <time>2022-05-15T08:02:55.000Z</time>
      </trkpt>
      <trkpt lat="41.587968952953815460205078125" lon="2.32669285498559474945068359375">
        <ele>147</ele>
        <time>2022-05-15T08:02:56.000Z</time>
      </trkpt>
      <trkpt lat="41.5880700387060642242431640625" lon="2.3265190981328487396240234375">
        <ele>145.8000030517578125</ele>
        <time>2022-05-15T08:02:58.000Z</time>
      </trkpt>
      <trkpt lat="41.5881189890205860137939453125" lon="2.32643435709178447723388671875">
        <ele>145.1999969482421875</ele>
        <time>2022-05-15T08:02:59.000Z</time>
      </trkpt>
      <trkpt lat="41.588169448077678680419921875" lon="2.32634785585105419158935546875">
        <ele>144.8000030517578125</ele>
        <time>2022-05-15T08:03:00.000Z</time>
      </trkpt>
      <trkpt lat="41.588219739496707916259765625" lon="2.326262779533863067626953125">
        <ele>144.1999969482421875</ele>
        <time>2022-05-15T08:03:01.000Z</time>
      </trkpt>
      <trkpt lat="41.58827045001089572906494140625" lon="2.326178289949893951416015625">
        <ele>143.600006103515625</ele>
        <time>2022-05-15T08:03:02.000Z</time>
      </trkpt>
      <trkpt lat="41.58831956796348094940185546875" lon="2.3260909505188465118408203125">
        <ele>143.1999969482421875</ele>
        <time>2022-05-15T08:03:03.000Z</time>
      </trkpt>
      <trkpt lat="41.58836918883025646209716796875" lon="2.32600067742168903350830078125">
        <ele>142.8000030517578125</ele>
        <time>2022-05-15T08:03:04.000Z</time>
      </trkpt>
      <trkpt lat="41.58842249773442745208740234375" lon="2.32590663246810436248779296875">
        <ele>142.1999969482421875</ele>
        <time>2022-05-15T08:03:05.000Z</time>
      </trkpt>
      <trkpt lat="41.5884810872375965118408203125" lon="2.32580504380166530609130859375">
        <ele>141.399993896484375</ele>
        <time>2022-05-15T08:03:06.000Z</time>
      </trkpt>
      <trkpt lat="41.58865015022456645965576171875" lon="2.3255022056400775909423828125">
        <ele>140.1999969482421875</ele>
        <time>2022-05-15T08:03:09.000Z</time>
      </trkpt>
      <trkpt lat="41.58876397646963596343994140625" lon="2.3252939991652965545654296875">
        <ele>139</ele>
        <time>2022-05-15T08:03:11.000Z</time>
      </trkpt>
      <trkpt lat="41.5888188779354095458984375" lon="2.3251930810511112213134765625">
        <ele>138.399993896484375</ele>
        <time>2022-05-15T08:03:12.000Z</time>
      </trkpt>
      <trkpt lat="41.589056588709354400634765625" lon="2.3247884027659893035888671875">
        <ele>136.600006103515625</ele>
        <time>2022-05-15T08:03:16.000Z</time>
      </trkpt>
      <trkpt lat="41.5891184471547603607177734375" lon="2.32468740083277225494384765625">
        <ele>136.600006103515625</ele>
        <time>2022-05-15T08:03:17.000Z</time>
      </trkpt>
      <trkpt lat="41.589179299771785736083984375" lon="2.32458648271858692169189453125">
        <ele>136</ele>
        <time>2022-05-15T08:03:18.000Z</time>
      </trkpt>
      <trkpt lat="41.5892384760081768035888671875" lon="2.324487827718257904052734375">
        <ele>135.600006103515625</ele>
        <time>2022-05-15T08:03:19.000Z</time>
      </trkpt>
      <trkpt lat="41.58940603025257587432861328125" lon="2.32421315275132656097412109375">
        <ele>134.600006103515625</ele>
        <time>2022-05-15T08:03:22.000Z</time>
      </trkpt>
      <trkpt lat="41.589512564241886138916015625" lon="2.32405238784849643707275390625">
        <ele>133.8000030517578125</ele>
        <time>2022-05-15T08:03:24.000Z</time>
      </trkpt>
      <trkpt lat="41.589713729918003082275390625" lon="2.32375390827655792236328125">
        <ele>133</ele>
        <time>2022-05-15T08:03:28.000Z</time>
      </trkpt>
      <trkpt lat="41.5897638536989688873291015625" lon="2.32369959354400634765625">
        <ele>133</ele>
        <time>2022-05-15T08:03:29.000Z</time>
      </trkpt>
      <trkpt lat="41.58988446928560733795166015625" lon="2.3236226476728916168212890625">
        <ele>132.600006103515625</ele>
        <time>2022-05-15T08:03:31.000Z</time>
      </trkpt>
      <trkpt lat="41.58994951285421848297119140625" lon="2.3235971666872501373291015625">
        <ele>132.8000030517578125</ele>
        <time>2022-05-15T08:03:32.000Z</time>
      </trkpt>
      <trkpt lat="41.59000751562416553497314453125" lon="2.3235609568655490875244140625">
        <ele>132.600006103515625</ele>
        <time>2022-05-15T08:03:33.000Z</time>
      </trkpt>
      <trkpt lat="41.5900535322725772857666015625" lon="2.323509491980075836181640625">
        <ele>132.600006103515625</ele>
        <time>2022-05-15T08:03:34.000Z</time>
      </trkpt>
      <trkpt lat="41.59008479677140712738037109375" lon="2.32344570569694042205810546875">
        <ele>132.600006103515625</ele>
        <time>2022-05-15T08:03:35.000Z</time>
      </trkpt>
      <trkpt lat="41.5900756604969501495361328125" lon="2.32329818420112133026123046875">
        <ele>132.600006103515625</ele>
        <time>2022-05-15T08:03:37.000Z</time>
      </trkpt>
      <trkpt lat="41.59003182314336299896240234375" lon="2.32323833741247653961181640625">
        <ele>132.8000030517578125</ele>
        <time>2022-05-15T08:03:38.000Z</time>
      </trkpt>
      <trkpt lat="41.58998337574303150177001953125" lon="2.32320078648626804351806640625">
        <ele>132.8000030517578125</ele>
        <time>2022-05-15T08:03:39.000Z</time>
      </trkpt>
      <trkpt lat="41.58992755226790904998779296875" lon="2.32319508679211139678955078125">
        <ele>132.8000030517578125</ele>
        <time>2022-05-15T08:03:40.000Z</time>
      </trkpt>
      <trkpt lat="41.5898622572422027587890625" lon="2.32321218587458133697509765625">
        <ele>132.8000030517578125</ele>
        <time>2022-05-15T08:03:41.000Z</time>
      </trkpt>
      <trkpt lat="41.58972454257309436798095703125" lon="2.3232662491500377655029296875">
        <ele>132.8000030517578125</ele>
        <time>2022-05-15T08:03:43.000Z</time>
      </trkpt>
      <trkpt lat="41.58965379931032657623291015625" lon="2.32327840290963649749755859375">
        <ele>132.8000030517578125</ele>
        <time>2022-05-15T08:03:44.000Z</time>
      </trkpt>
      <trkpt lat="41.58957936801016330718994140625" lon="2.32327454723417758941650390625">
        <ele>132.8000030517578125</ele>
        <time>2022-05-15T08:03:45.000Z</time>
      </trkpt>
      <trkpt lat="41.58943000249564647674560546875" lon="2.3232411034405231475830078125">
        <ele>133</ele>
        <time>2022-05-15T08:03:47.000Z</time>
      </trkpt>
      <trkpt lat="41.5893564932048320770263671875" lon="2.3232235014438629150390625">
        <ele>133</ele>
        <time>2022-05-15T08:03:48.000Z</time>
      </trkpt>
      <trkpt lat="41.589281558990478515625" lon="2.32320413924753665924072265625">
        <ele>133</ele>
        <time>2022-05-15T08:03:49.000Z</time>
      </trkpt>
      <trkpt lat="41.5888964943587779998779296875" lon="2.323104478418827056884765625">
        <ele>133</ele>
        <time>2022-05-15T08:03:54.000Z</time>
      </trkpt>
      <trkpt lat="41.58834136091172695159912109375" lon="2.322968356311321258544921875">
        <ele>131.399993896484375</ele>
        <time>2022-05-15T08:04:01.000Z</time>
      </trkpt>
      <trkpt lat="41.588261313736438751220703125" lon="2.32294899411499500274658203125">
        <ele>131.1999969482421875</ele>
        <time>2022-05-15T08:04:02.000Z</time>
      </trkpt>
      <trkpt lat="41.5880251117050647735595703125" lon="2.32289250008761882781982421875">
        <ele>130.600006103515625</ele>
        <time>2022-05-15T08:04:05.000Z</time>
      </trkpt>
      <trkpt lat="41.58794674091041088104248046875" lon="2.32287012040615081787109375">
        <ele>130.600006103515625</ele>
        <time>2022-05-15T08:04:06.000Z</time>
      </trkpt>
      <trkpt lat="41.587789915502071380615234375" lon="2.3228300549089908599853515625">
        <ele>130.399993896484375</ele>
        <time>2022-05-15T08:04:08.000Z</time>
      </trkpt>
      <trkpt lat="41.587629653513431549072265625" lon="2.32279367744922637939453125">
        <ele>130.399993896484375</ele>
        <time>2022-05-15T08:04:10.000Z</time>
      </trkpt>
      <trkpt lat="41.58747165463864803314208984375" lon="2.322754450142383575439453125">
        <ele>130.399993896484375</ele>
        <time>2022-05-15T08:04:12.000Z</time>
      </trkpt>
      <trkpt lat="41.587392278015613555908203125" lon="2.32273559086024761199951171875">
        <ele>130.399993896484375</ele>
        <time>2022-05-15T08:04:13.000Z</time>
      </trkpt>
      <trkpt lat="41.58730946481227874755859375" lon="2.32271932996809482574462890625">
        <ele>130</ele>
        <time>2022-05-15T08:04:14.000Z</time>
      </trkpt>
      <trkpt lat="41.58707141876220703125" lon="2.3226661048829555511474609375">
        <ele>129.8000030517578125</ele>
        <time>2022-05-15T08:04:17.000Z</time>
      </trkpt>
      <trkpt lat="41.58685491420328617095947265625" lon="2.32261153869330883026123046875">
        <ele>129.600006103515625</ele>
        <time>2022-05-15T08:04:20.000Z</time>
      </trkpt>
      <trkpt lat="41.58672482706606388092041015625" lon="2.322575747966766357421875">
        <ele>129.399993896484375</ele>
        <time>2022-05-15T08:04:22.000Z</time>
      </trkpt>
      <trkpt lat="41.5866672433912754058837890625" lon="2.322561331093311309814453125">
        <ele>129.600006103515625</ele>
        <time>2022-05-15T08:04:23.000Z</time>
      </trkpt>
      <trkpt lat="41.58651310019195079803466796875" lon="2.3225033283233642578125">
        <ele>129.1999969482421875</ele>
        <time>2022-05-15T08:04:26.000Z</time>
      </trkpt>
      <trkpt lat="41.586421988904476165771484375" lon="2.322474159300327301025390625">
        <ele>129</ele>
        <time>2022-05-15T08:04:28.000Z</time>
      </trkpt>
      <trkpt lat="41.5863467194139957427978515625" lon="2.3224604129791259765625">
        <ele>128.8000030517578125</ele>
        <time>2022-05-15T08:04:31.000Z</time>
      </trkpt>
      <trkpt lat="41.58629751764237880706787109375" lon="2.3224424757063388824462890625">
        <ele>128.600006103515625</ele>
        <time>2022-05-15T08:04:35.000Z</time>
      </trkpt>
      <trkpt lat="41.58626415766775608062744140625" lon="2.32243023812770843505859375">
        <ele>128.600006103515625</ele>
        <time>2022-05-15T08:04:37.000Z</time>
      </trkpt>
      <trkpt lat="41.58623926341533660888671875" lon="2.32242219150066375732421875">
        <ele>128.8000030517578125</ele>
        <time>2022-05-15T08:04:38.000Z</time>
      </trkpt>
      <trkpt lat="41.58620707690715789794921875" lon="2.3224146477878093719482421875">
        <ele>128.600006103515625</ele>
        <time>2022-05-15T08:04:39.000Z</time>
      </trkpt>
      <trkpt lat="41.5860803425312042236328125" lon="2.3223791085183620452880859375">
        <ele>128.600006103515625</ele>
        <time>2022-05-15T08:04:42.000Z</time>
      </trkpt>
      <trkpt lat="41.58575168810784816741943359375" lon="2.32229688204824924468994140625">
        <ele>128.399993896484375</ele>
        <time>2022-05-15T08:04:48.000Z</time>
      </trkpt>
      <trkpt lat="41.58563283272087574005126953125" lon="2.32226938940584659576416015625">
        <ele>128.399993896484375</ele>
        <time>2022-05-15T08:04:50.000Z</time>
      </trkpt>
      <trkpt lat="41.5855722315609455108642578125" lon="2.32225497253239154815673828125">
        <ele>128.600006103515625</ele>
        <time>2022-05-15T08:04:51.000Z</time>
      </trkpt>
      <trkpt lat="41.58514760434627532958984375" lon="2.32215262949466705322265625">
        <ele>128.600006103515625</ele>
        <time>2022-05-15T08:04:58.000Z</time>
      </trkpt>
      <trkpt lat="41.58458258025348186492919921875" lon="2.322011478245258331298828125">
        <ele>128.8000030517578125</ele>
        <time>2022-05-15T08:05:07.000Z</time>
      </trkpt>
      <trkpt lat="41.58451871015131473541259765625" lon="2.32199580408632755279541015625">
        <ele>128.600006103515625</ele>
        <time>2022-05-15T08:05:08.000Z</time>
      </trkpt>
      <trkpt lat="41.58412476070225238800048828125" lon="2.32191483490169048309326171875">
        <ele>128.600006103515625</ele>
        <time>2022-05-15T08:05:14.000Z</time>
      </trkpt>
      <trkpt lat="41.584060974419116973876953125" lon="2.32193143106997013092041015625">
        <ele>128.399993896484375</ele>
        <time>2022-05-15T08:05:15.000Z</time>
      </trkpt>
      <trkpt lat="41.584005318582057952880859375" lon="2.3219751007854938507080078125">
        <ele>128.399993896484375</ele>
        <time>2022-05-15T08:05:16.000Z</time>
      </trkpt>
      <trkpt lat="41.58396030776202678680419921875" lon="2.3220352828502655029296875">
        <ele>128.399993896484375</ele>
        <time>2022-05-15T08:05:17.000Z</time>
      </trkpt>
      <trkpt lat="41.583922840654850006103515625" lon="2.32210292480885982513427734375">
        <ele>128.399993896484375</ele>
        <time>2022-05-15T08:05:18.000Z</time>
      </trkpt>
      <trkpt lat="41.583659984171390533447265625" lon="2.32261975295841693878173828125">
        <ele>128.399993896484375</ele>
        <time>2022-05-15T08:05:26.000Z</time>
      </trkpt>
      <trkpt lat="41.58347717486321926116943359375" lon="2.32293960638344287872314453125">
        <ele>128.399993896484375</ele>
        <time>2022-05-15T08:05:32.000Z</time>
      </trkpt>
      <trkpt lat="41.5833748318254947662353515625" lon="2.3231059871613979339599609375">
        <ele>128.8000030517578125</ele>
        <time>2022-05-15T08:05:36.000Z</time>
      </trkpt>
      <trkpt lat="41.5833567269146442413330078125" lon="2.32314261607825756072998046875">
        <ele>129</ele>
        <time>2022-05-15T08:05:37.000Z</time>
      </trkpt>
      <trkpt lat="41.58325103111565113067626953125" lon="2.323311008512973785400390625">
        <ele>129.399993896484375</ele>
        <time>2022-05-15T08:05:42.000Z</time>
      </trkpt>
      <trkpt lat="41.5832038410007953643798828125" lon="2.323400191962718963623046875">
        <ele>129.600006103515625</ele>
        <time>2022-05-15T08:05:44.000Z</time>
      </trkpt>
      <trkpt lat="41.583122201263904571533203125" lon="2.32351242564618587493896484375">
        <ele>129.8000030517578125</ele>
        <time>2022-05-15T08:05:47.000Z</time>
      </trkpt>
      <trkpt lat="41.58304584212601184844970703125" lon="2.32366673648357391357421875">
        <ele>130</ele>
        <time>2022-05-15T08:05:52.000Z</time>
      </trkpt>
      <trkpt lat="41.58300577662885189056396484375" lon="2.3237584345042705535888671875">
        <ele>130.1999969482421875</ele>
        <time>2022-05-15T08:05:55.000Z</time>
      </trkpt>
      <trkpt lat="41.5829818882048130035400390625" lon="2.3238127492368221282958984375">
        <ele>130.399993896484375</ele>
        <time>2022-05-15T08:05:57.000Z</time>
      </trkpt>
      <trkpt lat="41.582964956760406494140625" lon="2.3238452710211277008056640625">
        <ele>130.399993896484375</ele>
        <time>2022-05-15T08:05:58.000Z</time>
      </trkpt>
      <trkpt lat="41.5827984921634197235107421875" lon="2.324068732559680938720703125">
        <ele>131</ele>
        <time>2022-05-15T08:06:04.000Z</time>
      </trkpt>
      <trkpt lat="41.58275146968662738800048828125" lon="2.3241222091019153594970703125">
        <ele>131</ele>
        <time>2022-05-15T08:06:06.000Z</time>
      </trkpt>
      <trkpt lat="41.58269665203988552093505859375" lon="2.3241212032735347747802734375">
        <ele>131.1999969482421875</ele>
        <time>2022-05-15T08:06:08.000Z</time>
      </trkpt>
      <trkpt lat="41.58248174004256725311279296875" lon="2.32399907894432544708251953125">
        <ele>131.1999969482421875</ele>
        <time>2022-05-15T08:06:13.000Z</time>
      </trkpt>
      <trkpt lat="41.5823844261467456817626953125" lon="2.32394292019307613372802734375">
        <ele>131.1999969482421875</ele>
        <time>2022-05-15T08:06:15.000Z</time>
      </trkpt>
      <trkpt lat="41.5822851844131946563720703125" lon="2.32386932708323001861572265625">
        <ele>131.1999969482421875</ele>
        <time>2022-05-15T08:06:17.000Z</time>
      </trkpt>
      <trkpt lat="41.5822325460612773895263671875" lon="2.32383311726152896881103515625">
        <ele>131.399993896484375</ele>
        <time>2022-05-15T08:06:18.000Z</time>
      </trkpt>
      <trkpt lat="41.582179404795169830322265625" lon="2.32379875145852565765380859375">
        <ele>131.399993896484375</ele>
        <time>2022-05-15T08:06:19.000Z</time>
      </trkpt>
      <trkpt lat="41.5821254253387451171875" lon="2.32376656495034694671630859375">
        <ele>131.1999969482421875</ele>
        <time>2022-05-15T08:06:20.000Z</time>
      </trkpt>
      <trkpt lat="41.5819039754569530487060546875" lon="2.32361518777906894683837890625">
        <ele>131.1999969482421875</ele>
        <time>2022-05-15T08:06:24.000Z</time>
      </trkpt>
      <trkpt lat="41.5817370079457759857177734375" lon="2.323511503636837005615234375">
        <ele>130.8000030517578125</ele>
        <time>2022-05-15T08:06:27.000Z</time>
      </trkpt>
      <trkpt lat="41.581573896110057830810546875" lon="2.32338988222181797027587890625">
        <ele>130.8000030517578125</ele>
        <time>2022-05-15T08:06:30.000Z</time>
      </trkpt>
      <trkpt lat="41.5813100337982177734375" lon="2.3232020437717437744140625">
        <ele>130.399993896484375</ele>
        <time>2022-05-15T08:06:35.000Z</time>
      </trkpt>
      <trkpt lat="41.5809776075184345245361328125" lon="2.32297799549996852874755859375">
        <ele>130.1999969482421875</ele>
        <time>2022-05-15T08:06:41.000Z</time>
      </trkpt>
      <trkpt lat="41.5805803053081035614013671875" lon="2.32267708517611026763916015625">
        <ele>130</ele>
        <time>2022-05-15T08:06:48.000Z</time>
      </trkpt>
      <trkpt lat="41.580161713063716888427734375" lon="2.32232605107128620147705078125">
        <ele>129.8000030517578125</ele>
        <time>2022-05-15T08:06:55.000Z</time>
      </trkpt>
      <trkpt lat="41.5799194760620594024658203125" lon="2.3221236281096935272216796875">
        <ele>129.399993896484375</ele>
        <time>2022-05-15T08:06:59.000Z</time>
      </trkpt>
      <trkpt lat="41.57958470284938812255859375" lon="2.32187007553875446319580078125">
        <ele>129.1999969482421875</ele>
        <time>2022-05-15T08:07:04.000Z</time>
      </trkpt>
      <trkpt lat="41.57938412390649318695068359375" lon="2.3217162676155567169189453125">
        <ele>129.1999969482421875</ele>
        <time>2022-05-15T08:07:07.000Z</time>
      </trkpt>
      <trkpt lat="41.5791855566203594207763671875" lon="2.32157059013843536376953125">
        <ele>128.8000030517578125</ele>
        <time>2022-05-15T08:07:10.000Z</time>
      </trkpt>
      <trkpt lat="41.579118333756923675537109375" lon="2.32152205891907215118408203125">
        <ele>128.600006103515625</ele>
        <time>2022-05-15T08:07:11.000Z</time>
      </trkpt>
      <trkpt lat="41.57904918305575847625732421875" lon="2.32147109694778919219970703125">
        <ele>128.600006103515625</ele>
        <time>2022-05-15T08:07:12.000Z</time>
      </trkpt>
      <trkpt lat="41.57883443869650363922119140625" lon="2.3213129304349422454833984375">
        <ele>128.1999969482421875</ele>
        <time>2022-05-15T08:07:15.000Z</time>
      </trkpt>
      <trkpt lat="41.57876235432922840118408203125" lon="2.3212596215307712554931640625">
        <ele>128</ele>
        <time>2022-05-15T08:07:16.000Z</time>
      </trkpt>
      <trkpt lat="41.5786249749362468719482421875" lon="2.32115224935114383697509765625">
        <ele>127.8000030517578125</ele>
        <time>2022-05-15T08:07:18.000Z</time>
      </trkpt>
      <trkpt lat="41.578494049608707427978515625" lon="2.32104965485632419586181640625">
        <ele>127.8000030517578125</ele>
        <time>2022-05-15T08:07:20.000Z</time>
      </trkpt>
      <trkpt lat="41.57842875458300113677978515625" lon="2.32100196182727813720703125">
        <ele>127.59999847412109375</ele>
        <time>2022-05-15T08:07:21.000Z</time>
      </trkpt>
      <trkpt lat="41.57830386422574520111083984375" lon="2.32090900652110576629638671875">
        <ele>127.59999847412109375</ele>
        <time>2022-05-15T08:07:23.000Z</time>
      </trkpt>
      <trkpt lat="41.5782420895993709564208984375" lon="2.32086307369172573089599609375">
        <ele>127.59999847412109375</ele>
        <time>2022-05-15T08:07:24.000Z</time>
      </trkpt>
      <trkpt lat="41.578178890049457550048828125" lon="2.32081462629139423370361328125">
        <ele>127.59999847412109375</ele>
        <time>2022-05-15T08:07:25.000Z</time>
      </trkpt>
      <trkpt lat="41.57798183150589466094970703125" lon="2.3206621594727039337158203125">
        <ele>127.1999969482421875</ele>
        <time>2022-05-15T08:07:28.000Z</time>
      </trkpt>
      <trkpt lat="41.57751764170825481414794921875" lon="2.32032093219459056854248046875">
        <ele>127</ele>
        <time>2022-05-15T08:07:35.000Z</time>
      </trkpt>
      <trkpt lat="41.5774521790444850921630859375" lon="2.3202725686132907867431640625">
        <ele>127</ele>
        <time>2022-05-15T08:07:36.000Z</time>
      </trkpt>
      <trkpt lat="41.57738755457103252410888671875" lon="2.3202249594032764434814453125">
        <ele>126.8000030517578125</ele>
        <time>2022-05-15T08:07:37.000Z</time>
      </trkpt>
      <trkpt lat="41.5773227624595165252685546875" lon="2.32017659582197666168212890625">
        <ele>127</ele>
        <time>2022-05-15T08:07:38.000Z</time>
      </trkpt>
      <trkpt lat="41.577258892357349395751953125" lon="2.32012781314551830291748046875">
        <ele>127</ele>
        <time>2022-05-15T08:07:39.000Z</time>
      </trkpt>
      <trkpt lat="41.57719351351261138916015625" lon="2.3200811259448528289794921875">
        <ele>126.8000030517578125</ele>
        <time>2022-05-15T08:07:40.000Z</time>
      </trkpt>
      <trkpt lat="41.57712805084884166717529296875" lon="2.3200345225632190704345703125">
        <ele>126.8000030517578125</ele>
        <time>2022-05-15T08:07:41.000Z</time>
      </trkpt>
      <trkpt lat="41.5769311599433422088623046875" lon="2.319889850914478302001953125">
        <ele>126.8000030517578125</ele>
        <time>2022-05-15T08:07:44.000Z</time>
      </trkpt>
      <trkpt lat="41.5768647752702236175537109375" lon="2.3198407329618930816650390625">
        <ele>126.8000030517578125</ele>
        <time>2022-05-15T08:07:45.000Z</time>
      </trkpt>
      <trkpt lat="41.57652522437274456024169921875" lon="2.31960880570113658905029296875">
        <ele>126.59999847412109375</ele>
        <time>2022-05-15T08:07:50.000Z</time>
      </trkpt>
      <trkpt lat="41.57645783387124538421630859375" lon="2.319563291966915130615234375">
        <ele>126.59999847412109375</ele>
        <time>2022-05-15T08:07:51.000Z</time>
      </trkpt>
      <trkpt lat="41.576320789754390716552734375" lon="2.319474108517169952392578125">
        <ele>126.40000152587890625</ele>
        <time>2022-05-15T08:07:53.000Z</time>
      </trkpt>
      <trkpt lat="41.57579633407294750213623046875" lon="2.319216616451740264892578125">
        <ele>126.1999969482421875</ele>
        <time>2022-05-15T08:08:00.000Z</time>
      </trkpt>
      <trkpt lat="41.57572022639214992523193359375" lon="2.31918250210583209991455078125">
        <ele>126.40000152587890625</ele>
        <time>2022-05-15T08:08:01.000Z</time>
      </trkpt>
      <trkpt lat="41.5756467171013355255126953125" lon="2.31914830394089221954345703125">
        <ele>126.1999969482421875</ele>
        <time>2022-05-15T08:08:02.000Z</time>
      </trkpt>
      <trkpt lat="41.57557345926761627197265625" lon="2.31911309994757175445556640625">
        <ele>126.1999969482421875</ele>
        <time>2022-05-15T08:08:03.000Z</time>
      </trkpt>
      <trkpt lat="41.57519183121621608734130859375" lon="2.318936996161937713623046875">
        <ele>125.8000030517578125</ele>
        <time>2022-05-15T08:08:08.000Z</time>
      </trkpt>
      <trkpt lat="41.574637033045291900634765625" lon="2.3186350800096988677978515625">
        <ele>125.40000152587890625</ele>
        <time>2022-05-15T08:08:15.000Z</time>
      </trkpt>
      <trkpt lat="41.57455380074679851531982421875" lon="2.31858126819133758544921875">
        <ele>125.40000152587890625</ele>
        <time>2022-05-15T08:08:16.000Z</time>
      </trkpt>
      <trkpt lat="41.57447199337184429168701171875" lon="2.3185261152684688568115234375">
        <ele>125.1999969482421875</ele>
        <time>2022-05-15T08:08:17.000Z</time>
      </trkpt>
      <trkpt lat="41.5742249786853790283203125" lon="2.318364679813385009765625">
        <ele>125</ele>
        <time>2022-05-15T08:08:20.000Z</time>
      </trkpt>
      <trkpt lat="41.5741430036723613739013671875" lon="2.31831179000437259674072265625">
        <ele>125</ele>
        <time>2022-05-15T08:08:21.000Z</time>
      </trkpt>
      <trkpt lat="41.5740608610212802886962890625" lon="2.3182602412998676300048828125">
        <ele>125</ele>
        <time>2022-05-15T08:08:22.000Z</time>
      </trkpt>
      <trkpt lat="41.57397863455116748809814453125" lon="2.31820969842374324798583984375">
        <ele>125</ele>
        <time>2022-05-15T08:08:23.000Z</time>
      </trkpt>
      <trkpt lat="41.5738965757191181182861328125" lon="2.3181596584618091583251953125">
        <ele>124.8000030517578125</ele>
        <time>2022-05-15T08:08:24.000Z</time>
      </trkpt>
      <trkpt lat="41.5737373195588588714599609375" lon="2.3180590756237506866455078125">
        <ele>124.8000030517578125</ele>
        <time>2022-05-15T08:08:26.000Z</time>
      </trkpt>
      <trkpt lat="41.57341939397156238555908203125" lon="2.3178615979850292205810546875">
        <ele>124.40000152587890625</ele>
        <time>2022-05-15T08:08:30.000Z</time>
      </trkpt>
      <trkpt lat="41.57301790080964565277099609375" lon="2.31760628521442413330078125">
        <ele>124</ele>
        <time>2022-05-15T08:08:35.000Z</time>
      </trkpt>
      <trkpt lat="41.5727730654180049896240234375" lon="2.31744929216802120208740234375">
        <ele>123.8000030517578125</ele>
        <time>2022-05-15T08:08:38.000Z</time>
      </trkpt>
      <trkpt lat="41.57221273519098758697509765625" lon="2.317094318568706512451171875">
        <ele>123</ele>
        <time>2022-05-15T08:08:45.000Z</time>
      </trkpt>
      <trkpt lat="41.572133861482143402099609375" lon="2.3170435242354869842529296875">
        <ele>123</ele>
        <time>2022-05-15T08:08:46.000Z</time>
      </trkpt>
      <trkpt lat="41.5720572508871555328369140625" lon="2.3169942386448383331298828125">
        <ele>123</ele>
        <time>2022-05-15T08:08:47.000Z</time>
      </trkpt>
      <trkpt lat="41.5716086514294147491455078125" lon="2.3167236708104610443115234375">
        <ele>122.8000030517578125</ele>
        <time>2022-05-15T08:08:53.000Z</time>
      </trkpt>
      <trkpt lat="41.57138074748218059539794921875" lon="2.3166090063750743865966796875">
        <ele>122.8000030517578125</ele>
        <time>2022-05-15T08:08:56.000Z</time>
      </trkpt>
      <trkpt lat="41.5713015384972095489501953125" lon="2.31657874770462512969970703125">
        <ele>123</ele>
        <time>2022-05-15T08:08:57.000Z</time>
      </trkpt>
      <trkpt lat="41.57122584991157054901123046875" lon="2.31654471717774868011474609375">
        <ele>122.8000030517578125</ele>
        <time>2022-05-15T08:08:58.000Z</time>
      </trkpt>
      <trkpt lat="41.5707077644765377044677734375" lon="2.31630817987024784088134765625">
        <ele>123.59999847412109375</ele>
        <time>2022-05-15T08:09:05.000Z</time>
      </trkpt>
      <trkpt lat="41.57063609920442104339599609375" lon="2.3162760771811008453369140625">
        <ele>123.59999847412109375</ele>
        <time>2022-05-15T08:09:06.000Z</time>
      </trkpt>
      <trkpt lat="41.57012522220611572265625" lon="2.3160407133400440216064453125">
        <ele>124</ele>
        <time>2022-05-15T08:09:13.000Z</time>
      </trkpt>
      <trkpt lat="41.56990637071430683135986328125" lon="2.31594105251133441925048828125">
        <ele>124</ele>
        <time>2022-05-15T08:09:16.000Z</time>
      </trkpt>
      <trkpt lat="41.56938434578478336334228515625" lon="2.3157010786235332489013671875">
        <ele>124</ele>
        <time>2022-05-15T08:09:23.000Z</time>
      </trkpt>
      <trkpt lat="41.56917639076709747314453125" lon="2.3155726678669452667236328125">
        <ele>124.1999969482421875</ele>
        <time>2022-05-15T08:09:26.000Z</time>
      </trkpt>
      <trkpt lat="41.5686486661434173583984375" lon="2.31518148444592952728271484375">
        <ele>124.40000152587890625</ele>
        <time>2022-05-15T08:09:34.000Z</time>
      </trkpt>
      <trkpt lat="41.56851765699684619903564453125" lon="2.31508609838783740997314453125">
        <ele>124.59999847412109375</ele>
        <time>2022-05-15T08:09:36.000Z</time>
      </trkpt>
      <trkpt lat="41.56838379800319671630859375" lon="2.31498719193041324615478515625">
        <ele>124.59999847412109375</ele>
        <time>2022-05-15T08:09:38.000Z</time>
      </trkpt>
      <trkpt lat="41.56803586520254611968994140625" lon="2.31474176980555057525634765625">
        <ele>124.59999847412109375</ele>
        <time>2022-05-15T08:09:43.000Z</time>
      </trkpt>
      <trkpt lat="41.56754300929605960845947265625" lon="2.31438671238720417022705078125">
        <ele>124.8000030517578125</ele>
        <time>2022-05-15T08:09:50.000Z</time>
      </trkpt>
      <trkpt lat="41.56726724468171596527099609375" lon="2.31418588198721408843994140625">
        <ele>125</ele>
        <time>2022-05-15T08:09:54.000Z</time>
      </trkpt>
      <trkpt lat="41.5667917393147945404052734375" lon="2.313839457929134368896484375">
        <ele>125.1999969482421875</ele>
        <time>2022-05-15T08:10:01.000Z</time>
      </trkpt>
      <trkpt lat="41.56672610901296138763427734375" lon="2.3137886635959148406982421875">
        <ele>125.1999969482421875</ele>
        <time>2022-05-15T08:10:02.000Z</time>
      </trkpt>
      <trkpt lat="41.566309444606304168701171875" lon="2.31347970664501190185546875">
        <ele>125.40000152587890625</ele>
        <time>2022-05-15T08:10:08.000Z</time>
      </trkpt>
      <trkpt lat="41.56617659144103527069091796875" lon="2.313361354172229766845703125">
        <ele>125.1999969482421875</ele>
        <time>2022-05-15T08:10:10.000Z</time>
      </trkpt>
      <trkpt lat="41.56605421565473079681396484375" lon="2.313209809362888336181640625">
        <ele>125.40000152587890625</ele>
        <time>2022-05-15T08:10:12.000Z</time>
      </trkpt>
      <trkpt lat="41.56595815904438495635986328125" lon="2.313018031418323516845703125">
        <ele>125.40000152587890625</ele>
        <time>2022-05-15T08:10:14.000Z</time>
      </trkpt>
      <trkpt lat="41.56591490842401981353759765625" lon="2.3129132576286792755126953125">
        <ele>125.1999969482421875</ele>
        <time>2022-05-15T08:10:15.000Z</time>
      </trkpt>
      <trkpt lat="41.56587400473654270172119140625" lon="2.3128056339919567108154296875">
        <ele>125.59999847412109375</ele>
        <time>2022-05-15T08:10:16.000Z</time>
      </trkpt>
      <trkpt lat="41.56583310104906558990478515625" lon="2.31269641779363155364990234375">
        <ele>125.40000152587890625</ele>
        <time>2022-05-15T08:10:17.000Z</time>
      </trkpt>
      <trkpt lat="41.56556253321468830108642578125" lon="2.31204631738364696502685546875">
        <ele>125</ele>
        <time>2022-05-15T08:10:23.000Z</time>
      </trkpt>
      <trkpt lat="41.56551358290016651153564453125" lon="2.311938442289829254150390625">
        <ele>125</ele>
        <time>2022-05-15T08:10:24.000Z</time>
      </trkpt>
      <trkpt lat="41.56546714715659618377685546875" lon="2.311830818653106689453125">
        <ele>124.8000030517578125</ele>
        <time>2022-05-15T08:10:25.000Z</time>
      </trkpt>
      <trkpt lat="41.56531895510852336883544921875" lon="2.31150836683809757232666015625">
        <ele>124.59999847412109375</ele>
        <time>2022-05-15T08:10:28.000Z</time>
      </trkpt>
      <trkpt lat="41.56509130261838436126708984375" lon="2.31109463609755039215087890625">
        <ele>124.1999969482421875</ele>
        <time>2022-05-15T08:10:32.000Z</time>
      </trkpt>
      <trkpt lat="41.5650358982384204864501953125" lon="2.31099271215498447418212890625">
        <ele>124</ele>
        <time>2022-05-15T08:10:33.000Z</time>
      </trkpt>
      <trkpt lat="41.5649767220020294189453125" lon="2.31089271605014801025390625">
        <ele>124</ele>
        <time>2022-05-15T08:10:34.000Z</time>
      </trkpt>
      <trkpt lat="41.564916707575321197509765625" lon="2.310797162353992462158203125">
        <ele>123.8000030517578125</ele>
        <time>2022-05-15T08:10:35.000Z</time>
      </trkpt>
      <trkpt lat="41.56473289243876934051513671875" lon="2.31050354428589344024658203125">
        <ele>123.40000152587890625</ele>
        <time>2022-05-15T08:10:38.000Z</time>
      </trkpt>
      <trkpt lat="41.56467237509787082672119140625" lon="2.31040321290493011474609375">
        <ele>123</ele>
        <time>2022-05-15T08:10:39.000Z</time>
      </trkpt>
      <trkpt lat="41.564613617956638336181640625" lon="2.31030221097171306610107421875">
        <ele>122.8000030517578125</ele>
        <time>2022-05-15T08:10:40.000Z</time>
      </trkpt>
      <trkpt lat="41.56455318443477153778076171875" lon="2.3102038912475109100341796875">
        <ele>122.40000152587890625</ele>
        <time>2022-05-15T08:10:41.000Z</time>
      </trkpt>
      <trkpt lat="41.564491577446460723876953125" lon="2.3101073317229747772216796875">
        <ele>122.40000152587890625</ele>
        <time>2022-05-15T08:10:42.000Z</time>
      </trkpt>
      <trkpt lat="41.5643784217536449432373046875" lon="2.3099091835319995880126953125">
        <ele>122</ele>
        <time>2022-05-15T08:10:44.000Z</time>
      </trkpt>
      <trkpt lat="41.56433408148586750030517578125" lon="2.30980399064719676971435546875">
        <ele>121.8000030517578125</ele>
        <time>2022-05-15T08:10:45.000Z</time>
      </trkpt>
      <trkpt lat="41.56423869542777538299560546875" lon="2.30946050025522708892822265625">
        <ele>121.40000152587890625</ele>
        <time>2022-05-15T08:10:48.000Z</time>
      </trkpt>
      <trkpt lat="41.56421438790857791900634765625" lon="2.30934348888695240020751953125">
        <ele>121.1999969482421875</ele>
        <time>2022-05-15T08:10:49.000Z</time>
      </trkpt>
      <trkpt lat="41.5641930140554904937744140625" lon="2.3092225380241870880126953125">
        <ele>120.8000030517578125</ele>
        <time>2022-05-15T08:10:50.000Z</time>
      </trkpt>
      <trkpt lat="41.56416024081408977508544921875" lon="2.30897535569965839385986328125">
        <ele>120.8000030517578125</ele>
        <time>2022-05-15T08:10:52.000Z</time>
      </trkpt>
      <trkpt lat="41.56415403820574283599853515625" lon="2.30885297991335391998291015625">
        <ele>120.59999847412109375</ele>
        <time>2022-05-15T08:10:53.000Z</time>
      </trkpt>
      <trkpt lat="41.5641613304615020751953125" lon="2.30861258693039417266845703125">
        <ele>120.40000152587890625</ele>
        <time>2022-05-15T08:10:55.000Z</time>
      </trkpt>
      <trkpt lat="41.564191170036792755126953125" lon="2.30837705545127391815185546875">
        <ele>120.1999969482421875</ele>
        <time>2022-05-15T08:10:57.000Z</time>
      </trkpt>
      <trkpt lat="41.56428261660039424896240234375" lon="2.30780926533043384552001953125">
        <ele>120.1999969482421875</ele>
        <time>2022-05-15T08:11:02.000Z</time>
      </trkpt>
      <trkpt lat="41.56427088193595409393310546875" lon="2.30757214128971099853515625">
        <ele>120.40000152587890625</ele>
        <time>2022-05-15T08:11:04.000Z</time>
      </trkpt>
      <trkpt lat="41.56424338929355144500732421875" lon="2.30745789594948291778564453125">
        <ele>120.1999969482421875</ele>
        <time>2022-05-15T08:11:05.000Z</time>
      </trkpt>
      <trkpt lat="41.56420516781508922576904296875" lon="2.3073486797511577606201171875">
        <ele>120.40000152587890625</ele>
        <time>2022-05-15T08:11:06.000Z</time>
      </trkpt>
      <trkpt lat="41.56409888528287410736083984375" lon="2.307166121900081634521484375">
        <ele>120.40000152587890625</ele>
        <time>2022-05-15T08:11:08.000Z</time>
      </trkpt>
      <trkpt lat="41.5638322569429874420166015625" lon="2.306847274303436279296875">
        <ele>120.40000152587890625</ele>
        <time>2022-05-15T08:11:12.000Z</time>
      </trkpt>
      <trkpt lat="41.56376863829791545867919921875" lon="2.30677108280360698699951171875">
        <ele>120.40000152587890625</ele>
        <time>2022-05-15T08:11:13.000Z</time>
      </trkpt>
      <trkpt lat="41.56359337270259857177734375" lon="2.306521721184253692626953125">
        <ele>120.40000152587890625</ele>
        <time>2022-05-15T08:11:16.000Z</time>
      </trkpt>
      <trkpt lat="41.56353838741779327392578125" lon="2.3064350523054599761962890625">
        <ele>120.40000152587890625</ele>
        <time>2022-05-15T08:11:17.000Z</time>
      </trkpt>
      <trkpt lat="41.56348113901913166046142578125" lon="2.30635265819728374481201171875">
        <ele>120.40000152587890625</ele>
        <time>2022-05-15T08:11:18.000Z</time>
      </trkpt>
      <trkpt lat="41.56341609545052051544189453125" lon="2.30627839453518390655517578125">
        <ele>120.59999847412109375</ele>
        <time>2022-05-15T08:11:19.000Z</time>
      </trkpt>
      <trkpt lat="41.56334971077740192413330078125" lon="2.306208908557891845703125">
        <ele>120.40000152587890625</ele>
        <time>2022-05-15T08:11:20.000Z</time>
      </trkpt>
      <trkpt lat="41.56320654787123203277587890625" lon="2.30607806704938411712646484375">
        <ele>120.40000152587890625</ele>
        <time>2022-05-15T08:11:22.000Z</time>
      </trkpt>
      <trkpt lat="41.5631278418004512786865234375" lon="2.30601914227008819580078125">
        <ele>120.40000152587890625</ele>
        <time>2022-05-15T08:11:23.000Z</time>
      </trkpt>
      <trkpt lat="41.5629598684608936309814453125" lon="2.30592199601233005523681640625">
        <ele>120.59999847412109375</ele>
        <time>2022-05-15T08:11:25.000Z</time>
      </trkpt>
      <trkpt lat="41.56287697143852710723876953125" lon="2.3058882169425487518310546875">
        <ele>120.40000152587890625</ele>
        <time>2022-05-15T08:11:26.000Z</time>
      </trkpt>
      <trkpt lat="41.562791056931018829345703125" lon="2.30585829354822635650634765625">
        <ele>120.40000152587890625</ele>
        <time>2022-05-15T08:11:27.000Z</time>
      </trkpt>
      <trkpt lat="41.562274061143398284912109375" lon="2.30572233907878398895263671875">
        <ele>120</ele>
        <time>2022-05-15T08:11:33.000Z</time>
      </trkpt>
      <trkpt lat="41.5621018968522548675537109375" lon="2.30574044398963451385498046875">
        <ele>120</ele>
        <time>2022-05-15T08:11:35.000Z</time>
      </trkpt>
      <trkpt lat="41.562019921839237213134765625" lon="2.3057762347161769866943359375">
        <ele>119.8000030517578125</ele>
        <time>2022-05-15T08:11:36.000Z</time>
      </trkpt>
      <trkpt lat="41.56194381415843963623046875" lon="2.305831722915172576904296875">
        <ele>119.8000030517578125</ele>
        <time>2022-05-15T08:11:37.000Z</time>
      </trkpt>
      <trkpt lat="41.561805345118045806884765625" lon="2.30597228743135929107666015625">
        <ele>119.59999847412109375</ele>
        <time>2022-05-15T08:11:39.000Z</time>
      </trkpt>
      <trkpt lat="41.5617392957210540771484375" lon="2.3060484789311885833740234375">
        <ele>119.40000152587890625</ele>
        <time>2022-05-15T08:11:40.000Z</time>
      </trkpt>
      <trkpt lat="41.5616722404956817626953125" lon="2.306126765906810760498046875">
        <ele>119.40000152587890625</ele>
        <time>2022-05-15T08:11:41.000Z</time>
      </trkpt>
      <trkpt lat="41.5616046823561191558837890625" lon="2.30620614252984523773193359375">
        <ele>119.1999969482421875</ele>
        <time>2022-05-15T08:11:42.000Z</time>
      </trkpt>
      <trkpt lat="41.5615354478359222412109375" lon="2.3062764666974544525146484375">
        <ele>119</ele>
        <time>2022-05-15T08:11:43.000Z</time>
      </trkpt>
      <trkpt lat="41.5614608488976955413818359375" lon="2.30633321218192577362060546875">
        <ele>119</ele>
        <time>2022-05-15T08:11:44.000Z</time>
      </trkpt>
      <trkpt lat="41.56138113699853420257568359375" lon="2.30637076310813426971435546875">
        <ele>119</ele>
        <time>2022-05-15T08:11:45.000Z</time>
      </trkpt>
      <trkpt lat="41.5613015927374362945556640625" lon="2.30639188550412654876708984375">
        <ele>119</ele>
        <time>2022-05-15T08:11:46.000Z</time>
      </trkpt>
      <trkpt lat="41.56122095882892608642578125" lon="2.3063926398754119873046875">
        <ele>118.8000030517578125</ele>
        <time>2022-05-15T08:11:47.000Z</time>
      </trkpt>
      <trkpt lat="41.561142839491367340087890625" lon="2.30636380612850189208984375">
        <ele>118.8000030517578125</ele>
        <time>2022-05-15T08:11:48.000Z</time>
      </trkpt>
      <trkpt lat="41.56101845204830169677734375" lon="2.30624469928443431854248046875">
        <ele>118.8000030517578125</ele>
        <time>2022-05-15T08:11:50.000Z</time>
      </trkpt>
      <trkpt lat="41.56092901714146137237548828125" lon="2.30607454665005207061767578125">
        <ele>118.59999847412109375</ele>
        <time>2022-05-15T08:11:52.000Z</time>
      </trkpt>
      <trkpt lat="41.56089481897652149200439453125" lon="2.30597664602100849151611328125">
        <ele>118.40000152587890625</ele>
        <time>2022-05-15T08:11:53.000Z</time>
      </trkpt>
      <trkpt lat="41.56073606573045253753662109375" lon="2.3054215125739574432373046875">
        <ele>118</ele>
        <time>2022-05-15T08:11:58.000Z</time>
      </trkpt>
      <trkpt lat="41.56056406907737255096435546875" lon="2.30479203164577484130859375">
        <ele>118.40000152587890625</ele>
        <time>2022-05-15T08:12:04.000Z</time>
      </trkpt>
      <trkpt lat="41.56048066914081573486328125" lon="2.30450361035764217376708984375">
        <ele>118.59999847412109375</ele>
        <time>2022-05-15T08:12:07.000Z</time>
      </trkpt>
      <trkpt lat="41.56040514819324016571044921875" lon="2.3042093217372894287109375">
        <ele>118.59999847412109375</ele>
        <time>2022-05-15T08:12:10.000Z</time>
      </trkpt>
      <trkpt lat="41.5603832714259624481201171875" lon="2.3041092418134212493896484375">
        <ele>118.8000030517578125</ele>
        <time>2022-05-15T08:12:11.000Z</time>
      </trkpt>
      <trkpt lat="41.56033256091177463531494140625" lon="2.30391251854598522186279296875">
        <ele>118.59999847412109375</ele>
        <time>2022-05-15T08:12:13.000Z</time>
      </trkpt>
      <trkpt lat="41.56017229892313480377197265625" lon="2.3033173196017742156982421875">
        <ele>119</ele>
        <time>2022-05-15T08:12:19.000Z</time>
      </trkpt>
      <trkpt lat="41.55995286069810390472412109375" lon="2.30258130468428134918212890625">
        <ele>119.1999969482421875</ele>
        <time>2022-05-15T08:12:26.000Z</time>
      </trkpt>
      <trkpt lat="41.55989033170044422149658203125" lon="2.3023604415357112884521484375">
        <ele>119.1999969482421875</ele>
        <time>2022-05-15T08:12:28.000Z</time>
      </trkpt>
      <trkpt lat="41.55985814519226551055908203125" lon="2.30225063860416412353515625">
        <ele>119.1999969482421875</ele>
        <time>2022-05-15T08:12:29.000Z</time>
      </trkpt>
      <trkpt lat="41.55979008413851261138916015625" lon="2.30202709324657917022705078125">
        <ele>119</ele>
        <time>2022-05-15T08:12:31.000Z</time>
      </trkpt>
      <trkpt lat="41.55967609025537967681884765625" lon="2.30168159119784832000732421875">
        <ele>118.8000030517578125</ele>
        <time>2022-05-15T08:12:34.000Z</time>
      </trkpt>
      <trkpt lat="41.559552289545536041259765625" lon="2.30136215686798095703125">
        <ele>118.59999847412109375</ele>
        <time>2022-05-15T08:12:37.000Z</time>
      </trkpt>
      <trkpt lat="41.5594165027141571044921875" lon="2.30104791931807994842529296875">
        <ele>118.40000152587890625</ele>
        <time>2022-05-15T08:12:40.000Z</time>
      </trkpt>
      <trkpt lat="41.55917979776859283447265625" lon="2.3004855774343013763427734375">
        <ele>118.1999969482421875</ele>
        <time>2022-05-15T08:12:45.000Z</time>
      </trkpt>
      <trkpt lat="41.5591293387115001678466796875" lon="2.30036613531410694122314453125">
        <ele>118</ele>
        <time>2022-05-15T08:12:46.000Z</time>
      </trkpt>
      <trkpt lat="41.55886975117027759552001953125" lon="2.29976356029510498046875">
        <ele>117.1999969482421875</ele>
        <time>2022-05-15T08:12:51.000Z</time>
      </trkpt>
      <trkpt lat="41.5588205493986606597900390625" lon="2.29964529164135456085205078125">
        <ele>117</ele>
        <time>2022-05-15T08:12:52.000Z</time>
      </trkpt>
      <trkpt lat="41.55877117998898029327392578125" lon="2.299529872834682464599609375">
        <ele>117</ele>
        <time>2022-05-15T08:12:53.000Z</time>
      </trkpt>
      <trkpt lat="41.55857956968247890472412109375" lon="2.29907448403537273406982421875">
        <ele>116.1999969482421875</ele>
        <time>2022-05-15T08:12:57.000Z</time>
      </trkpt>
      <trkpt lat="41.55843204818665981292724609375" lon="2.298721186816692352294921875">
        <ele>115.8000030517578125</ele>
        <time>2022-05-15T08:13:00.000Z</time>
      </trkpt>
      <trkpt lat="41.55810414813458919525146484375" lon="2.29801677167415618896484375">
        <ele>114</ele>
        <time>2022-05-15T08:13:06.000Z</time>
      </trkpt>
      <trkpt lat="41.5580376796424388885498046875" lon="2.2979163564741611480712890625">
        <ele>114</ele>
        <time>2022-05-15T08:13:07.000Z</time>
      </trkpt>
      <trkpt lat="41.557971127331256866455078125" lon="2.29781921021640300750732421875">
        <ele>113.8000030517578125</ele>
        <time>2022-05-15T08:13:08.000Z</time>
      </trkpt>
      <trkpt lat="41.55784296803176403045654296875" lon="2.29761779308319091796875">
        <ele>113.40000152587890625</ele>
        <time>2022-05-15T08:13:10.000Z</time>
      </trkpt>
      <trkpt lat="41.55778513289988040924072265625" lon="2.29750849306583404541015625">
        <ele>113.1999969482421875</ele>
        <time>2022-05-15T08:13:11.000Z</time>
      </trkpt>
      <trkpt lat="41.5577329136431217193603515625" lon="2.2973950020968914031982421875">
        <ele>113</ele>
        <time>2022-05-15T08:13:12.000Z</time>
      </trkpt>
      <trkpt lat="41.55768404714763164520263671875" lon="2.29727924801409244537353515625">
        <ele>113</ele>
        <time>2022-05-15T08:13:13.000Z</time>
      </trkpt>
      <trkpt lat="41.5575340948998928070068359375" lon="2.29678907431662082672119140625">
        <ele>112.40000152587890625</ele>
        <time>2022-05-15T08:13:17.000Z</time>
      </trkpt>
      <trkpt lat="41.55751439742743968963623046875" lon="2.2966614179313182830810546875">
        <ele>112</ele>
        <time>2022-05-15T08:13:18.000Z</time>
      </trkpt>
      <trkpt lat="41.5575014054775238037109375" lon="2.2965328395366668701171875">
        <ele>111.59999847412109375</ele>
        <time>2022-05-15T08:13:19.000Z</time>
      </trkpt>
      <trkpt lat="41.55749662779271602630615234375" lon="2.29640585370361804962158203125">
        <ele>111.1999969482421875</ele>
        <time>2022-05-15T08:13:20.000Z</time>
      </trkpt>
      <trkpt lat="41.55749629251658916473388671875" lon="2.2962808795273303985595703125">
        <ele>110.8000030517578125</ele>
        <time>2022-05-15T08:13:21.000Z</time>
      </trkpt>
      <trkpt lat="41.55749260447919368743896484375" lon="2.2961573302745819091796875">
        <ele>110.59999847412109375</ele>
        <time>2022-05-15T08:13:22.000Z</time>
      </trkpt>
      <trkpt lat="41.55743912793695926666259765625" lon="2.29538007639348506927490234375">
        <ele>110</ele>
        <time>2022-05-15T08:13:28.000Z</time>
      </trkpt>
      <trkpt lat="41.557372324168682098388671875" lon="2.2945753298699855804443359375">
        <ele>109.1999969482421875</ele>
        <time>2022-05-15T08:13:34.000Z</time>
      </trkpt>
      <trkpt lat="41.55735145322978496551513671875" lon="2.29444406926631927490234375">
        <ele>109</ele>
        <time>2022-05-15T08:13:35.000Z</time>
      </trkpt>
      <trkpt lat="41.5573292411863803863525390625" lon="2.294314317405223846435546875">
        <ele>109.1999969482421875</ele>
        <time>2022-05-15T08:13:36.000Z</time>
      </trkpt>
      <trkpt lat="41.55730853788554668426513671875" lon="2.2941840626299381256103515625">
        <ele>109</ele>
        <time>2022-05-15T08:13:37.000Z</time>
      </trkpt>
      <trkpt lat="41.55716814100742340087890625" lon="2.29339892975986003875732421875">
        <ele>108.59999847412109375</ele>
        <time>2022-05-15T08:13:43.000Z</time>
      </trkpt>
      <trkpt lat="41.55708893202245235443115234375" lon="2.29315484873950481414794921875">
        <ele>108.40000152587890625</ele>
        <time>2022-05-15T08:13:45.000Z</time>
      </trkpt>
      <trkpt lat="41.55703579075634479522705078125" lon="2.29304186068475246429443359375">
        <ele>108.40000152587890625</ele>
        <time>2022-05-15T08:13:46.000Z</time>
      </trkpt>
      <trkpt lat="41.5569755248725414276123046875" lon="2.2929351590573787689208984375">
        <ele>108.40000152587890625</ele>
        <time>2022-05-15T08:13:47.000Z</time>
      </trkpt>
      <trkpt lat="41.556908972561359405517578125" lon="2.29283382184803485870361328125">
        <ele>108.1999969482421875</ele>
        <time>2022-05-15T08:13:48.000Z</time>
      </trkpt>
      <trkpt lat="41.55657512135803699493408203125" lon="2.2923309914767742156982421875">
        <ele>107.59999847412109375</ele>
        <time>2022-05-15T08:13:53.000Z</time>
      </trkpt>
      <trkpt lat="41.5561862848699092864990234375" lon="2.29176051914691925048828125">
        <ele>107.40000152587890625</ele>
        <time>2022-05-15T08:13:59.000Z</time>
      </trkpt>
      <trkpt lat="41.5561158768832683563232421875" lon="2.29166924022138118743896484375">
        <ele>107.40000152587890625</ele>
        <time>2022-05-15T08:14:00.000Z</time>
      </trkpt>
      <trkpt lat="41.5556485019624233245849609375" lon="2.29117940180003643035888671875">
        <ele>107</ele>
        <time>2022-05-15T08:14:06.000Z</time>
      </trkpt>
      <trkpt lat="41.55557113699615001678466796875" lon="2.291103713214397430419921875">
        <ele>107</ele>
        <time>2022-05-15T08:14:07.000Z</time>
      </trkpt>
      <trkpt lat="41.55549310147762298583984375" lon="2.2910289466381072998046875">
        <ele>106.8000030517578125</ele>
        <time>2022-05-15T08:14:08.000Z</time>
      </trkpt>
      <trkpt lat="41.55533644370734691619873046875" lon="2.29088502936065196990966796875">
        <ele>106.59999847412109375</ele>
        <time>2022-05-15T08:14:10.000Z</time>
      </trkpt>
      <trkpt lat="41.5552617609500885009765625" lon="2.29081177152693271636962890625">
        <ele>106.59999847412109375</ele>
        <time>2022-05-15T08:14:11.000Z</time>
      </trkpt>
      <trkpt lat="41.55518406070768833160400390625" lon="2.2907367534935474395751953125">
        <ele>106.59999847412109375</ele>
        <time>2022-05-15T08:14:12.000Z</time>
      </trkpt>
      <trkpt lat="41.55495121143758296966552734375" lon="2.29050281457602977752685546875">
        <ele>106.40000152587890625</ele>
        <time>2022-05-15T08:14:15.000Z</time>
      </trkpt>
      <trkpt lat="41.5548218786716461181640625" lon="2.290315814316272735595703125">
        <ele>106.1999969482421875</ele>
        <time>2022-05-15T08:14:17.000Z</time>
      </trkpt>
      <trkpt lat="41.5546534024178981781005859375" lon="2.2900378704071044921875">
        <ele>105.59999847412109375</ele>
        <time>2022-05-15T08:14:20.000Z</time>
      </trkpt>
      <trkpt lat="41.55458844266831874847412109375" lon="2.289973832666873931884765625">
        <ele>105.59999847412109375</ele>
        <time>2022-05-15T08:14:21.000Z</time>
      </trkpt>
      <trkpt lat="41.55428283847868442535400390625" lon="2.28973754681646823883056640625">
        <ele>105.40000152587890625</ele>
        <time>2022-05-15T08:14:25.000Z</time>
      </trkpt>
      <trkpt lat="41.55419331975281238555908203125" lon="2.2896729223430156707763671875">
        <ele>105.40000152587890625</ele>
        <time>2022-05-15T08:14:26.000Z</time>
      </trkpt>
      <trkpt lat="41.5541089139878749847412109375" lon="2.28959522210061550140380859375">
        <ele>105.40000152587890625</ele>
        <time>2022-05-15T08:14:27.000Z</time>
      </trkpt>
      <trkpt lat="41.5540401823818683624267578125" lon="2.28949799202382564544677734375">
        <ele>105.40000152587890625</ele>
        <time>2022-05-15T08:14:28.000Z</time>
      </trkpt>
      <trkpt lat="41.5539778210222721099853515625" lon="2.2893896140158176422119140625">
        <ele>105.1999969482421875</ele>
        <time>2022-05-15T08:14:29.000Z</time>
      </trkpt>
      <trkpt lat="41.55391688458621501922607421875" lon="2.289280481636524200439453125">
        <ele>105.40000152587890625</ele>
        <time>2022-05-15T08:14:30.000Z</time>
      </trkpt>
      <trkpt lat="41.55385200865566730499267578125" lon="2.289170511066913604736328125">
        <ele>105.1999969482421875</ele>
        <time>2022-05-15T08:14:31.000Z</time>
      </trkpt>
      <trkpt lat="41.5537873841822147369384765625" lon="2.28905878029763698577880859375">
        <ele>105.1999969482421875</ele>
        <time>2022-05-15T08:14:32.000Z</time>
      </trkpt>
      <trkpt lat="41.55366090126335620880126953125" lon="2.28883297182619571685791015625">
        <ele>105.1999969482421875</ele>
        <time>2022-05-15T08:14:34.000Z</time>
      </trkpt>
      <trkpt lat="41.55359677970409393310546875" lon="2.28872358798980712890625">
        <ele>105.1999969482421875</ele>
        <time>2022-05-15T08:14:35.000Z</time>
      </trkpt>
      <trkpt lat="41.55333484522998332977294921875" lon="2.2882339172065258026123046875">
        <ele>105</ele>
        <time>2022-05-15T08:14:40.000Z</time>
      </trkpt>
      <trkpt lat="41.55328304506838321685791015625" lon="2.28814356029033660888671875">
        <ele>105</ele>
        <time>2022-05-15T08:14:41.000Z</time>
      </trkpt>
      <trkpt lat="41.5530169196426868438720703125" lon="2.2876877523958683013916015625">
        <ele>105.1999969482421875</ele>
        <time>2022-05-15T08:14:46.000Z</time>
      </trkpt>
      <trkpt lat="41.55296989716589450836181640625" lon="2.287592701613903045654296875">
        <ele>105.40000152587890625</ele>
        <time>2022-05-15T08:14:47.000Z</time>
      </trkpt>
      <trkpt lat="41.55271072871983051300048828125" lon="2.28709858842194080352783203125">
        <ele>105.8000030517578125</ele>
        <time>2022-05-15T08:14:52.000Z</time>
      </trkpt>
      <trkpt lat="41.55254795216023921966552734375" lon="2.2868098318576812744140625">
        <ele>106.1999969482421875</ele>
        <time>2022-05-15T08:14:55.000Z</time>
      </trkpt>
      <trkpt lat="41.55243596993386745452880859375" lon="2.2866182215511798858642578125">
        <ele>106.40000152587890625</ele>
        <time>2022-05-15T08:14:57.000Z</time>
      </trkpt>
      <trkpt lat="41.5523810684680938720703125" lon="2.28652006946504116058349609375">
        <ele>106.40000152587890625</ele>
        <time>2022-05-15T08:14:58.000Z</time>
      </trkpt>
      <trkpt lat="41.55232968740165233612060546875" lon="2.28642292320728302001953125">
        <ele>106.1999969482421875</ele>
        <time>2022-05-15T08:14:59.000Z</time>
      </trkpt>
      <trkpt lat="41.55204855836927890777587890625" lon="2.2858893312513828277587890625">
        <ele>106.40000152587890625</ele>
        <time>2022-05-15T08:15:05.000Z</time>
      </trkpt>
      <trkpt lat="41.55191193334758281707763671875" lon="2.2856382094323635101318359375">
        <ele>106.40000152587890625</ele>
        <time>2022-05-15T08:15:08.000Z</time>
      </trkpt>
      <trkpt lat="41.5518642403185367584228515625" lon="2.2855550609529018402099609375">
        <ele>106.40000152587890625</ele>
        <time>2022-05-15T08:15:09.000Z</time>
      </trkpt>
      <trkpt lat="41.55173121951520442962646484375" lon="2.2853012569248676300048828125">
        <ele>106.40000152587890625</ele>
        <time>2022-05-15T08:15:12.000Z</time>
      </trkpt>
      <trkpt lat="41.55169081874191761016845703125" lon="2.2852150909602642059326171875">
        <ele>106.40000152587890625</ele>
        <time>2022-05-15T08:15:13.000Z</time>
      </trkpt>
      <trkpt lat="41.5516553632915019989013671875" lon="2.28512741625308990478515625">
        <ele>106.59999847412109375</ele>
        <time>2022-05-15T08:15:14.000Z</time>
      </trkpt>
      <trkpt lat="41.55157431028783321380615234375" lon="2.284848801791667938232421875">
        <ele>106.8000030517578125</ele>
        <time>2022-05-15T08:15:17.000Z</time>
      </trkpt>
      <trkpt lat="41.5513710491359233856201171875" lon="2.2843856178224086761474609375">
        <ele>107.1999969482421875</ele>
        <time>2022-05-15T08:15:22.000Z</time>
      </trkpt>
      <trkpt lat="41.5513328276574611663818359375" lon="2.2842872142791748046875">
        <ele>107.1999969482421875</ele>
        <time>2022-05-15T08:15:23.000Z</time>
      </trkpt>
      <trkpt lat="41.551292426884174346923828125" lon="2.2841866314411163330078125">
        <ele>107.40000152587890625</ele>
        <time>2022-05-15T08:15:24.000Z</time>
      </trkpt>
      <trkpt lat="41.55125177465379238128662109375" lon="2.2840848751366138458251953125">
        <ele>107.40000152587890625</ele>
        <time>2022-05-15T08:15:25.000Z</time>
      </trkpt>
      <trkpt lat="41.55117164365947246551513671875" lon="2.28389200754463672637939453125">
        <ele>107.40000152587890625</ele>
        <time>2022-05-15T08:15:27.000Z</time>
      </trkpt>
      <trkpt lat="41.55107189901173114776611328125" lon="2.2836158238351345062255859375">
        <ele>107.59999847412109375</ele>
        <time>2022-05-15T08:15:30.000Z</time>
      </trkpt>
      <trkpt lat="41.5510399639606475830078125" lon="2.283525802195072174072265625">
        <ele>107.59999847412109375</ele>
        <time>2022-05-15T08:15:31.000Z</time>
      </trkpt>
      <trkpt lat="41.55090459622442722320556640625" lon="2.2831968963146209716796875">
        <ele>107.8000030517578125</ele>
        <time>2022-05-15T08:15:35.000Z</time>
      </trkpt>
      <trkpt lat="41.5508419834077358245849609375" lon="2.28303520940244197845458984375">
        <ele>107.8000030517578125</ele>
        <time>2022-05-15T08:15:37.000Z</time>
      </trkpt>
      <trkpt lat="41.55079546384513378143310546875" lon="2.2828694991767406463623046875">
        <ele>108</ele>
        <time>2022-05-15T08:15:39.000Z</time>
      </trkpt>
      <trkpt lat="41.550786159932613372802734375" lon="2.2827836684882640838623046875">
        <ele>108</ele>
        <time>2022-05-15T08:15:40.000Z</time>
      </trkpt>
      <trkpt lat="41.55078624375164508819580078125" lon="2.28269574232399463653564453125">
        <ele>108</ele>
        <time>2022-05-15T08:15:41.000Z</time>
      </trkpt>
      <trkpt lat="41.550785489380359649658203125" lon="2.28252139873802661895751953125">
        <ele>107.8000030517578125</ele>
        <time>2022-05-15T08:15:43.000Z</time>
      </trkpt>
      <trkpt lat="41.5507672168314456939697265625" lon="2.282439507544040679931640625">
        <ele>108</ele>
        <time>2022-05-15T08:15:44.000Z</time>
      </trkpt>
      <trkpt lat="41.5507300011813640594482421875" lon="2.28237010538578033447265625">
        <ele>108</ele>
        <time>2022-05-15T08:15:45.000Z</time>
      </trkpt>
      <trkpt lat="41.55062531121075153350830078125" lon="2.2822572849690914154052734375">
        <ele>108</ele>
        <time>2022-05-15T08:15:47.000Z</time>
      </trkpt>
      <trkpt lat="41.55057284049689769744873046875" lon="2.2821979410946369171142578125">
        <ele>108.1999969482421875</ele>
        <time>2022-05-15T08:15:48.000Z</time>
      </trkpt>
      <trkpt lat="41.55048885382711887359619140625" lon="2.28204614482820034027099609375">
        <ele>108.1999969482421875</ele>
        <time>2022-05-15T08:15:50.000Z</time>
      </trkpt>
      <trkpt lat="41.5504540689289569854736328125" lon="2.2819582186639308929443359375">
        <ele>108</ele>
        <time>2022-05-15T08:15:51.000Z</time>
      </trkpt>
      <trkpt lat="41.550382487475872039794921875" lon="2.28177197277545928955078125">
        <ele>108.1999969482421875</ele>
        <time>2022-05-15T08:15:53.000Z</time>
      </trkpt>
      <trkpt lat="41.550310738384723663330078125" lon="2.28157793171703815460205078125">
        <ele>108.1999969482421875</ele>
        <time>2022-05-15T08:15:55.000Z</time>
      </trkpt>
      <trkpt lat="41.55019297264516353607177734375" lon="2.28128154762089252471923828125">
        <ele>108.40000152587890625</ele>
        <time>2022-05-15T08:15:58.000Z</time>
      </trkpt>
      <trkpt lat="41.54991888441145420074462890625" lon="2.2808092273771762847900390625">
        <ele>108.8000030517578125</ele>
        <time>2022-05-15T08:16:03.000Z</time>
      </trkpt>
      <trkpt lat="41.54985132627189159393310546875" lon="2.28072398342192173004150390625">
        <ele>108.8000030517578125</ele>
        <time>2022-05-15T08:16:04.000Z</time>
      </trkpt>
      <trkpt lat="41.54978142119944095611572265625" lon="2.28063932619988918304443359375">
        <ele>109</ele>
        <time>2022-05-15T08:16:05.000Z</time>
      </trkpt>
      <trkpt lat="41.54936735518276691436767578125" lon="2.28012266568839550018310546875">
        <ele>108.59999847412109375</ele>
        <time>2022-05-15T08:16:11.000Z</time>
      </trkpt>
      <trkpt lat="41.54908739961683750152587890625" lon="2.27978671900928020477294921875">
        <ele>108</ele>
        <time>2022-05-15T08:16:15.000Z</time>
      </trkpt>
      <trkpt lat="41.5488030016422271728515625" lon="2.27945010177791118621826171875">
        <ele>107.8000030517578125</ele>
        <time>2022-05-15T08:16:19.000Z</time>
      </trkpt>
      <trkpt lat="41.54842087067663669586181640625" lon="2.27911231108009815216064453125">
        <ele>107.59999847412109375</ele>
        <time>2022-05-15T08:16:24.000Z</time>
      </trkpt>
      <trkpt lat="41.5483374707400798797607421875" lon="2.27906989865005016326904296875">
        <ele>107.59999847412109375</ele>
        <time>2022-05-15T08:16:25.000Z</time>
      </trkpt>
      <trkpt lat="41.548168659210205078125" lon="2.2790077887475490570068359375">
        <ele>107.59999847412109375</ele>
        <time>2022-05-15T08:16:27.000Z</time>
      </trkpt>
      <trkpt lat="41.54808408580720424652099609375" lon="2.27898960001766681671142578125">
        <ele>107.59999847412109375</ele>
        <time>2022-05-15T08:16:28.000Z</time>
      </trkpt>
      <trkpt lat="41.54766599647700786590576171875" lon="2.27897417731583118438720703125">
        <ele>107.8000030517578125</ele>
        <time>2022-05-15T08:16:33.000Z</time>
      </trkpt>
      <trkpt lat="41.547420322895050048828125" lon="2.27893193252384662628173828125">
        <ele>108.40000152587890625</ele>
        <time>2022-05-15T08:16:36.000Z</time>
      </trkpt>
      <trkpt lat="41.54725109227001667022705078125" lon="2.2788891009986400604248046875">
        <ele>109</ele>
        <time>2022-05-15T08:16:38.000Z</time>
      </trkpt>
      <trkpt lat="41.5471680276095867156982421875" lon="2.27885750122368335723876953125">
        <ele>109</ele>
        <time>2022-05-15T08:16:39.000Z</time>
      </trkpt>
      <trkpt lat="41.54701019637286663055419921875" lon="2.27876496501266956329345703125">
        <ele>109.1999969482421875</ele>
        <time>2022-05-15T08:16:41.000Z</time>
      </trkpt>
      <trkpt lat="41.546865440905094146728515625" lon="2.2786403261125087738037109375">
        <ele>109.40000152587890625</ele>
        <time>2022-05-15T08:16:43.000Z</time>
      </trkpt>
      <trkpt lat="41.54662429355084896087646484375" lon="2.27831066586077213287353515625">
        <ele>110</ele>
        <time>2022-05-15T08:16:47.000Z</time>
      </trkpt>
      <trkpt lat="41.546494625508785247802734375" lon="2.2780110128223896026611328125">
        <ele>110</ele>
        <time>2022-05-15T08:16:50.000Z</time>
      </trkpt>
      <trkpt lat="41.54646352864801883697509765625" lon="2.277904562652111053466796875">
        <ele>110.1999969482421875</ele>
        <time>2022-05-15T08:16:51.000Z</time>
      </trkpt>
      <trkpt lat="41.5464344434440135955810546875" lon="2.2777984477579593658447265625">
        <ele>110.1999969482421875</ele>
        <time>2022-05-15T08:16:52.000Z</time>
      </trkpt>
      <trkpt lat="41.54641223140060901641845703125" lon="2.27768839336931705474853515625">
        <ele>110.40000152587890625</ele>
        <time>2022-05-15T08:16:53.000Z</time>
      </trkpt>
      <trkpt lat="41.54637618921697139739990234375" lon="2.2773444838821887969970703125">
        <ele>110.59999847412109375</ele>
        <time>2022-05-15T08:16:56.000Z</time>
      </trkpt>
      <trkpt lat="41.54636529274284839630126953125" lon="2.2771121375262737274169921875">
        <ele>110.8000030517578125</ele>
        <time>2022-05-15T08:16:58.000Z</time>
      </trkpt>
      <trkpt lat="41.54635624028742313385009765625" lon="2.27688037790358066558837890625">
        <ele>111</ele>
        <time>2022-05-15T08:17:00.000Z</time>
      </trkpt>
      <trkpt lat="41.54634685255587100982666015625" lon="2.27629087865352630615234375">
        <ele>111.59999847412109375</ele>
        <time>2022-05-15T08:17:05.000Z</time>
      </trkpt>
      <trkpt lat="41.5463412366807460784912109375" lon="2.27605660445988178253173828125">
        <ele>112</ele>
        <time>2022-05-15T08:17:07.000Z</time>
      </trkpt>
      <trkpt lat="41.54633310623466968536376953125" lon="2.2754743136465549468994140625">
        <ele>112.59999847412109375</ele>
        <time>2022-05-15T08:17:12.000Z</time>
      </trkpt>
      <trkpt lat="41.5463251434266567230224609375" lon="2.27499696426093578338623046875">
        <ele>113</ele>
        <time>2022-05-15T08:17:16.000Z</time>
      </trkpt>
      <trkpt lat="41.546324305236339569091796875" lon="2.2748778574168682098388671875">
        <ele>113</ele>
        <time>2022-05-15T08:17:17.000Z</time>
      </trkpt>
      <trkpt lat="41.54631399549543857574462890625" lon="2.27441073395311832427978515625">
        <ele>113.8000030517578125</ele>
        <time>2022-05-15T08:17:21.000Z</time>
      </trkpt>
      <trkpt lat="41.546238474547863006591796875" lon="2.2738321311771869659423828125">
        <ele>114</ele>
        <time>2022-05-15T08:17:26.000Z</time>
      </trkpt>
      <trkpt lat="41.5460870973765850067138671875" lon="2.2731347568333148956298828125">
        <ele>114.59999847412109375</ele>
        <time>2022-05-15T08:17:32.000Z</time>
      </trkpt>
      <trkpt lat="41.54605935327708721160888671875" lon="2.273021601140499114990234375">
        <ele>114.59999847412109375</ele>
        <time>2022-05-15T08:17:33.000Z</time>
      </trkpt>
      <trkpt lat="41.54603186063468456268310546875" lon="2.27290995419025421142578125">
        <ele>114.59999847412109375</ele>
        <time>2022-05-15T08:17:34.000Z</time>
      </trkpt>
      <trkpt lat="41.54589473269879817962646484375" lon="2.2723887674510478973388671875">
        <ele>114.8000030517578125</ele>
        <time>2022-05-15T08:17:39.000Z</time>
      </trkpt>
      <trkpt lat="41.54581225477159023284912109375" lon="2.27220310829579830169677734375">
        <ele>114.8000030517578125</ele>
        <time>2022-05-15T08:17:41.000Z</time>
      </trkpt>
      <trkpt lat="41.54576330445706844329833984375" lon="2.27211342193186283111572265625">
        <ele>115</ele>
        <time>2022-05-15T08:17:42.000Z</time>
      </trkpt>
      <trkpt lat="41.54565475881099700927734375" lon="2.27193421684205532073974609375">
        <ele>115.1999969482421875</ele>
        <time>2022-05-15T08:17:44.000Z</time>
      </trkpt>
      <trkpt lat="41.5455949120223522186279296875" lon="2.27184712886810302734375">
        <ele>115.40000152587890625</ele>
        <time>2022-05-15T08:17:45.000Z</time>
      </trkpt>
      <trkpt lat="41.5452921576797962188720703125" lon="2.27139190770685672760009765625">
        <ele>115.40000152587890625</ele>
        <time>2022-05-15T08:17:50.000Z</time>
      </trkpt>
      <trkpt lat="41.54523977078497409820556640625" lon="2.2712878882884979248046875">
        <ele>115.40000152587890625</ele>
        <time>2022-05-15T08:17:51.000Z</time>
      </trkpt>
      <trkpt lat="41.545172296464443206787109375" lon="2.27105026133358478546142578125">
        <ele>115.1999969482421875</ele>
        <time>2022-05-15T08:17:53.000Z</time>
      </trkpt>
      <trkpt lat="41.5451583825051784515380859375" lon="2.2709246166050434112548828125">
        <ele>115</ele>
        <time>2022-05-15T08:17:54.000Z</time>
      </trkpt>
      <trkpt lat="41.5451533533632755279541015625" lon="2.2708039171993732452392578125">
        <ele>114.8000030517578125</ele>
        <time>2022-05-15T08:17:55.000Z</time>
      </trkpt>
      <trkpt lat="41.54517062008380889892578125" lon="2.270458750426769256591796875">
        <ele>114.40000152587890625</ele>
        <time>2022-05-15T08:17:58.000Z</time>
      </trkpt>
      <trkpt lat="41.54519903473556041717529296875" lon="2.2701085545122623443603515625">
        <ele>113.8000030517578125</ele>
        <time>2022-05-15T08:18:01.000Z</time>
      </trkpt>
      <trkpt lat="41.54520859010517597198486328125" lon="2.2699908725917339324951171875">
        <ele>113.59999847412109375</ele>
        <time>2022-05-15T08:18:02.000Z</time>
      </trkpt>
      <trkpt lat="41.54521915130317211151123046875" lon="2.2698728553950786590576171875">
        <ele>112.8000030517578125</ele>
        <time>2022-05-15T08:18:03.000Z</time>
      </trkpt>
      <trkpt lat="41.54522937722504138946533203125" lon="2.26975492201745510101318359375">
        <ele>112.40000152587890625</ele>
        <time>2022-05-15T08:18:04.000Z</time>
      </trkpt>
      <trkpt lat="41.545236669480800628662109375" lon="2.26963724009692668914794921875">
        <ele>112.1999969482421875</ele>
        <time>2022-05-15T08:18:05.000Z</time>
      </trkpt>
      <trkpt lat="41.54524312354624271392822265625" lon="2.26952073164284229278564453125">
        <ele>112</ele>
        <time>2022-05-15T08:18:06.000Z</time>
      </trkpt>
      <trkpt lat="41.54524840414524078369140625" lon="2.26940422318875789642333984375">
        <ele>111.8000030517578125</ele>
        <time>2022-05-15T08:18:07.000Z</time>
      </trkpt>
      <trkpt lat="41.54524966143071651458740234375" lon="2.269178330898284912109375">
        <ele>111.40000152587890625</ele>
        <time>2022-05-15T08:18:09.000Z</time>
      </trkpt>
      <trkpt lat="41.545243375003337860107421875" lon="2.269065342843532562255859375">
        <ele>111.1999969482421875</ele>
        <time>2022-05-15T08:18:10.000Z</time>
      </trkpt>
      <trkpt lat="41.54523591510951519012451171875" lon="2.2689525224268436431884765625">
        <ele>111.1999969482421875</ele>
        <time>2022-05-15T08:18:11.000Z</time>
      </trkpt>
      <trkpt lat="41.5452284552156925201416015625" lon="2.2688417136669158935546875">
        <ele>111</ele>
        <time>2022-05-15T08:18:12.000Z</time>
      </trkpt>
      <trkpt lat="41.5452090092003345489501953125" lon="2.2686231136322021484375">
        <ele>110.40000152587890625</ele>
        <time>2022-05-15T08:18:14.000Z</time>
      </trkpt>
      <trkpt lat="41.545182354748249053955078125" lon="2.26839973591268062591552734375">
        <ele>110</ele>
        <time>2022-05-15T08:18:16.000Z</time>
      </trkpt>
      <trkpt lat="41.54516533948481082916259765625" lon="2.26828272454440593719482421875">
        <ele>109.8000030517578125</ele>
        <time>2022-05-15T08:18:17.000Z</time>
      </trkpt>
      <trkpt lat="41.54507313854992389678955078125" lon="2.26792850531637668609619140625">
        <ele>108</ele>
        <time>2022-05-15T08:18:20.000Z</time>
      </trkpt>
      <trkpt lat="41.54503374360501766204833984375" lon="2.26781199686229228973388671875">
        <ele>107.40000152587890625</ele>
        <time>2022-05-15T08:18:21.000Z</time>
      </trkpt>
      <trkpt lat="41.5449545346200466156005859375" lon="2.2675638087093830108642578125">
        <ele>106.8000030517578125</ele>
        <time>2022-05-15T08:18:23.000Z</time>
      </trkpt>
      <trkpt lat="41.54478044249117374420166015625" lon="2.2670568712055683135986328125">
        <ele>106</ele>
        <time>2022-05-15T08:18:27.000Z</time>
      </trkpt>
      <trkpt lat="41.54473518021404743194580078125" lon="2.26692519150674343109130859375">
        <ele>106</ele>
        <time>2022-05-15T08:18:28.000Z</time>
      </trkpt>
      <trkpt lat="41.5446876548230648040771484375" lon="2.26679074577987194061279296875">
        <ele>105.59999847412109375</ele>
        <time>2022-05-15T08:18:29.000Z</time>
      </trkpt>
      <trkpt lat="41.54454608447849750518798828125" lon="2.2663819603621959686279296875">
        <ele>104.40000152587890625</ele>
        <time>2022-05-15T08:18:32.000Z</time>
      </trkpt>
      <trkpt lat="41.544431336224079132080078125" lon="2.2661325149238109588623046875">
        <ele>104</ele>
        <time>2022-05-15T08:18:34.000Z</time>
      </trkpt>
      <trkpt lat="41.5442977286875247955322265625" lon="2.26592154242098331451416015625">
        <ele>102.59999847412109375</ele>
        <time>2022-05-15T08:18:36.000Z</time>
      </trkpt>
      <trkpt lat="41.54416772536933422088623046875" lon="2.26575172506272792816162109375">
        <ele>101.40000152587890625</ele>
        <time>2022-05-15T08:18:38.000Z</time>
      </trkpt>
      <trkpt lat="41.54394459910690784454345703125" lon="2.2655048780143260955810546875">
        <ele>100.1999969482421875</ele>
        <time>2022-05-15T08:18:42.000Z</time>
      </trkpt>
      <trkpt lat="41.5437163598835468292236328125" lon="2.26527647115290164947509765625">
        <ele>100.1999969482421875</ele>
        <time>2022-05-15T08:18:47.000Z</time>
      </trkpt>
      <trkpt lat="41.54366916976869106292724609375" lon="2.2652393393218517303466796875">
        <ele>100.1999969482421875</ele>
        <time>2022-05-15T08:18:48.000Z</time>
      </trkpt>
      <trkpt lat="41.543617956340312957763671875" lon="2.26521058939397335052490234375">
        <ele>100.1999969482421875</ele>
        <time>2022-05-15T08:18:49.000Z</time>
      </trkpt>
      <trkpt lat="41.5435658209025859832763671875" lon="2.2651766426861286163330078125">
        <ele>100.40000152587890625</ele>
        <time>2022-05-15T08:18:50.000Z</time>
      </trkpt>
      <trkpt lat="41.54348158277571201324462890625" lon="2.26508821360766887664794921875">
        <ele>100.40000152587890625</ele>
        <time>2022-05-15T08:18:52.000Z</time>
      </trkpt>
      <trkpt lat="41.543438248336315155029296875" lon="2.26504730992019176483154296875">
        <ele>100.59999847412109375</ele>
        <time>2022-05-15T08:18:53.000Z</time>
      </trkpt>
      <trkpt lat="41.5433965064585208892822265625" lon="2.26499936543405055999755859375">
        <ele>100.59999847412109375</ele>
        <time>2022-05-15T08:18:54.000Z</time>
      </trkpt>
      <trkpt lat="41.54327739961445331573486328125" lon="2.2648541070520877838134765625">
        <ele>101.40000152587890625</ele>
        <time>2022-05-15T08:18:57.000Z</time>
      </trkpt>
      <trkpt lat="41.54322803020477294921875" lon="2.2648091800510883331298828125">
        <ele>101.59999847412109375</ele>
        <time>2022-05-15T08:18:58.000Z</time>
      </trkpt>
      <trkpt lat="41.5431872941553592681884765625" lon="2.264776490628719329833984375">
        <ele>101.8000030517578125</ele>
        <time>2022-05-15T08:18:59.000Z</time>
      </trkpt>
      <trkpt lat="41.543061733245849609375" lon="2.26462452672421932220458984375">
        <ele>102.1999969482421875</ele>
        <time>2022-05-15T08:19:02.000Z</time>
      </trkpt>
      <trkpt lat="41.5430246852338314056396484375" lon="2.2645741514861583709716796875">
        <ele>102.59999847412109375</ele>
        <time>2022-05-15T08:19:03.000Z</time>
      </trkpt>
      <trkpt lat="41.542983613908290863037109375" lon="2.26452478207647800445556640625">
        <ele>102.59999847412109375</ele>
        <time>2022-05-15T08:19:04.000Z</time>
      </trkpt>
      <trkpt lat="41.542866267263889312744140625" lon="2.2643592394888401031494140625">
        <ele>103.8000030517578125</ele>
        <time>2022-05-15T08:19:07.000Z</time>
      </trkpt>
      <trkpt lat="41.54266568832099437713623046875" lon="2.264046929776668548583984375">
        <ele>105</ele>
        <time>2022-05-15T08:19:12.000Z</time>
      </trkpt>
      <trkpt lat="41.542365364730358123779296875" lon="2.26368089206516742706298828125">
        <ele>107</ele>
        <time>2022-05-15T08:19:19.000Z</time>
      </trkpt>
      <trkpt lat="41.542280204594135284423828125" lon="2.2635819017887115478515625">
        <ele>107.40000152587890625</ele>
        <time>2022-05-15T08:19:21.000Z</time>
      </trkpt>
      <trkpt lat="41.542201079428195953369140625" lon="2.26350420154631137847900390625">
        <ele>107.8000030517578125</ele>
        <time>2022-05-15T08:19:23.000Z</time>
      </trkpt>
      <trkpt lat="41.54212170280516147613525390625" lon="2.2634187899529933929443359375">
        <ele>108</ele>
        <time>2022-05-15T08:19:25.000Z</time>
      </trkpt>
      <trkpt lat="41.54205749742686748504638671875" lon="2.26326062344014644622802734375">
        <ele>108</ele>
        <time>2022-05-15T08:19:27.000Z</time>
      </trkpt>
      <trkpt lat="41.54203402809798717498779296875" lon="2.2631844319403171539306640625">
        <ele>108.1999969482421875</ele>
        <time>2022-05-15T08:19:28.000Z</time>
      </trkpt>
      <trkpt lat="41.54202195815742015838623046875" lon="2.26309952326118946075439453125">
        <ele>108.1999969482421875</ele>
        <time>2022-05-15T08:19:29.000Z</time>
      </trkpt>
      <trkpt lat="41.54202313162386417388916015625" lon="2.26301369257271289825439453125">
        <ele>108.1999969482421875</ele>
        <time>2022-05-15T08:19:30.000Z</time>
      </trkpt>
      <trkpt lat="41.54203184880316257476806640625" lon="2.2629276104271411895751953125">
        <ele>108.40000152587890625</ele>
        <time>2022-05-15T08:19:31.000Z</time>
      </trkpt>
      <trkpt lat="41.5420409850776195526123046875" lon="2.26284454576671123504638671875">
        <ele>108.40000152587890625</ele>
        <time>2022-05-15T08:19:32.000Z</time>
      </trkpt>
      <trkpt lat="41.54204593040049076080322265625" lon="2.26276583969593048095703125">
        <ele>108.40000152587890625</ele>
        <time>2022-05-15T08:19:33.000Z</time>
      </trkpt>
      <trkpt lat="41.54206805862486362457275390625" lon="2.2626007162034511566162109375">
        <ele>108.59999847412109375</ele>
        <time>2022-05-15T08:19:35.000Z</time>
      </trkpt>
      <trkpt lat="41.54211650602519512176513671875" lon="2.26243416778743267059326171875">
        <ele>108.59999847412109375</ele>
        <time>2022-05-15T08:19:37.000Z</time>
      </trkpt>
      <trkpt lat="41.54214953072369098663330078125" lon="2.26235688664019107818603515625">
        <ele>108.8000030517578125</ele>
        <time>2022-05-15T08:19:38.000Z</time>
      </trkpt>
      <trkpt lat="41.5423702262341976165771484375" lon="2.26199411787092685699462890625">
        <ele>109</ele>
        <time>2022-05-15T08:19:43.000Z</time>
      </trkpt>
      <trkpt lat="41.54245865531265735626220703125" lon="2.261841483414173126220703125">
        <ele>108.8000030517578125</ele>
        <time>2022-05-15T08:19:45.000Z</time>
      </trkpt>
      <trkpt lat="41.542668454349040985107421875" lon="2.26146002300083637237548828125">
        <ele>109.40000152587890625</ele>
        <time>2022-05-15T08:19:50.000Z</time>
      </trkpt>
      <trkpt lat="41.5427480824291706085205078125" lon="2.261316440999507904052734375">
        <ele>109.40000152587890625</ele>
        <time>2022-05-15T08:19:52.000Z</time>
      </trkpt>
      <trkpt lat="41.54278722591698169708251953125" lon="2.2612485475838184356689453125">
        <ele>109.8000030517578125</ele>
        <time>2022-05-15T08:19:53.000Z</time>
      </trkpt>
      <trkpt lat="41.54304605908691883087158203125" lon="2.26078595034778118133544921875">
        <ele>110</ele>
        <time>2022-05-15T08:20:00.000Z</time>
      </trkpt>
      <trkpt lat="41.54308092780411243438720703125" lon="2.260721661150455474853515625">
        <ele>110.40000152587890625</ele>
        <time>2022-05-15T08:20:01.000Z</time>
      </trkpt>
      <trkpt lat="41.54331712983548641204833984375" lon="2.26029778830707073211669921875">
        <ele>110.59999847412109375</ele>
        <time>2022-05-15T08:20:07.000Z</time>
      </trkpt>
      <trkpt lat="41.5433586202561855316162109375" lon="2.26021908223628997802734375">
        <ele>110.40000152587890625</ele>
        <time>2022-05-15T08:20:08.000Z</time>
      </trkpt>
      <trkpt lat="41.54348309151828289031982421875" lon="2.259974665939807891845703125">
        <ele>110.40000152587890625</ele>
        <time>2022-05-15T08:20:11.000Z</time>
      </trkpt>
      <trkpt lat="41.54361351393163204193115234375" lon="2.2597471810877323150634765625">
        <ele>110.1999969482421875</ele>
        <time>2022-05-15T08:20:14.000Z</time>
      </trkpt>
      <trkpt lat="41.54375717975199222564697265625" lon="2.2596757672727108001708984375">
        <ele>110</ele>
        <time>2022-05-15T08:20:16.000Z</time>
      </trkpt>
      <trkpt lat="41.54391978867352008819580078125" lon="2.2596680559217929840087890625">
        <ele>109.40000152587890625</ele>
        <time>2022-05-15T08:20:18.000Z</time>
      </trkpt>
      <trkpt lat="41.54398701153695583343505859375" lon="2.2596288286149501800537109375">
        <ele>109.1999969482421875</ele>
        <time>2022-05-15T08:20:19.000Z</time>
      </trkpt>
      <trkpt lat="41.54402934014797210693359375" lon="2.25955531932413578033447265625">
        <ele>109.1999969482421875</ele>
        <time>2022-05-15T08:20:20.000Z</time>
      </trkpt>
      <trkpt lat="41.54403881169855594635009765625" lon="2.25945993326604366302490234375">
        <ele>108.59999847412109375</ele>
        <time>2022-05-15T08:20:21.000Z</time>
      </trkpt>
      <trkpt lat="41.54402573592960834503173828125" lon="2.25935985334217548370361328125">
        <ele>108.40000152587890625</ele>
        <time>2022-05-15T08:20:22.000Z</time>
      </trkpt>
      <trkpt lat="41.543970666825771331787109375" lon="2.25904569961130619049072265625">
        <ele>107.40000152587890625</ele>
        <time>2022-05-15T08:20:25.000Z</time>
      </trkpt>
      <trkpt lat="41.54397326521575450897216796875" lon="2.2589297778904438018798828125">
        <ele>107</ele>
        <time>2022-05-15T08:20:26.000Z</time>
      </trkpt>
      <trkpt lat="41.54399304650723934173583984375" lon="2.25881285034120082855224609375">
        <ele>106.59999847412109375</ele>
        <time>2022-05-15T08:20:27.000Z</time>
      </trkpt>
      <trkpt lat="41.544028334319591522216796875" lon="2.25869952701032161712646484375">
        <ele>106.1999969482421875</ele>
        <time>2022-05-15T08:20:28.000Z</time>
      </trkpt>
      <trkpt lat="41.54407225549221038818359375" lon="2.25859056226909160614013671875">
        <ele>105.8000030517578125</ele>
        <time>2022-05-15T08:20:29.000Z</time>
      </trkpt>
      <trkpt lat="41.54425975866615772247314453125" lon="2.25814850069582462310791015625">
        <ele>105.1999969482421875</ele>
        <time>2022-05-15T08:20:33.000Z</time>
      </trkpt>
      <trkpt lat="41.54430502094328403472900390625" lon="2.258038781583309173583984375">
        <ele>105.1999969482421875</ele>
        <time>2022-05-15T08:20:34.000Z</time>
      </trkpt>
      <trkpt lat="41.54439152218401432037353515625" lon="2.25782454013824462890625">
        <ele>104.8000030517578125</ele>
        <time>2022-05-15T08:20:36.000Z</time>
      </trkpt>
      <trkpt lat="41.54459838755428791046142578125" lon="2.25728801451623439788818359375">
        <ele>103.40000152587890625</ele>
        <time>2022-05-15T08:20:41.000Z</time>
      </trkpt>
      <trkpt lat="41.5447661094367504119873046875" lon="2.2566063143312931060791015625">
        <ele>101.59999847412109375</ele>
        <time>2022-05-15T08:20:47.000Z</time>
      </trkpt>
      <trkpt lat="41.544924192130565643310546875" lon="2.2559186629951000213623046875">
        <ele>101.40000152587890625</ele>
        <time>2022-05-15T08:20:53.000Z</time>
      </trkpt>
      <trkpt lat="41.54502536170184612274169921875" lon="2.25545422174036502838134765625">
        <ele>101.1999969482421875</ele>
        <time>2022-05-15T08:20:57.000Z</time>
      </trkpt>
      <trkpt lat="41.54514916241168975830078125" lon="2.25500620901584625244140625">
        <ele>101.40000152587890625</ele>
        <time>2022-05-15T08:21:01.000Z</time>
      </trkpt>
      <trkpt lat="41.5452489070594310760498046875" lon="2.25481216795742511749267578125">
        <ele>101.1999969482421875</ele>
        <time>2022-05-15T08:21:03.000Z</time>
      </trkpt>
      <trkpt lat="41.54562483541667461395263671875" lon="2.25428561680018901824951171875">
        <ele>101.40000152587890625</ele>
        <time>2022-05-15T08:21:09.000Z</time>
      </trkpt>
      <trkpt lat="41.54578459449112415313720703125" lon="2.25398990325629711151123046875">
        <ele>101.1999969482421875</ele>
        <time>2022-05-15T08:21:12.000Z</time>
      </trkpt>
      <trkpt lat="41.5458202175796031951904296875" lon="2.2538821958005428314208984375">
        <ele>101.1999969482421875</ele>
        <time>2022-05-15T08:21:13.000Z</time>
      </trkpt>
      <trkpt lat="41.54584226198494434356689453125" lon="2.253766357898712158203125">
        <ele>101.1999969482421875</ele>
        <time>2022-05-15T08:21:14.000Z</time>
      </trkpt>
      <trkpt lat="41.54584117233753204345703125" lon="2.25352303124964237213134765625">
        <ele>101</ele>
        <time>2022-05-15T08:21:16.000Z</time>
      </trkpt>
      <trkpt lat="41.5457575209438800811767578125" lon="2.2530448436737060546875">
        <ele>101.1999969482421875</ele>
        <time>2022-05-15T08:21:20.000Z</time>
      </trkpt>
      <trkpt lat="41.54573815874755382537841796875" lon="2.2529276646673679351806640625">
        <ele>101.1999969482421875</ele>
        <time>2022-05-15T08:21:21.000Z</time>
      </trkpt>
      <trkpt lat="41.5456965006887912750244140625" lon="2.25257478654384613037109375">
        <ele>101</ele>
        <time>2022-05-15T08:21:24.000Z</time>
      </trkpt>
      <trkpt lat="41.54568736441433429718017578125" lon="2.25245467387139797210693359375">
        <ele>100.8000030517578125</ele>
        <time>2022-05-15T08:21:25.000Z</time>
      </trkpt>
      <trkpt lat="41.54568468220531940460205078125" lon="2.25221402943134307861328125">
        <ele>100.8000030517578125</ele>
        <time>2022-05-15T08:21:27.000Z</time>
      </trkpt>
      <trkpt lat="41.5457533299922943115234375" lon="2.2517555393278598785400390625">
        <ele>100.1999969482421875</ele>
        <time>2022-05-15T08:21:31.000Z</time>
      </trkpt>
      <trkpt lat="41.545779816806316375732421875" lon="2.251646406948566436767578125">
        <ele>100.1999969482421875</ele>
        <time>2022-05-15T08:21:32.000Z</time>
      </trkpt>
      <trkpt lat="41.54580630362033843994140625" lon="2.251538448035717010498046875">
        <ele>100</ele>
        <time>2022-05-15T08:21:33.000Z</time>
      </trkpt>
      <trkpt lat="41.5458721853792667388916015625" lon="2.25121758878231048583984375">
        <ele>99.59999847412109375</ele>
        <time>2022-05-15T08:21:36.000Z</time>
      </trkpt>
      <trkpt lat="41.54591216705739498138427734375" lon="2.2510004974901676177978515625">
        <ele>99.59999847412109375</ele>
        <time>2022-05-15T08:21:38.000Z</time>
      </trkpt>
      <trkpt lat="41.54597821645438671112060546875" lon="2.25057511590421199798583984375">
        <ele>99.1999969482421875</ele>
        <time>2022-05-15T08:21:42.000Z</time>
      </trkpt>
      <trkpt lat="41.5460046194493770599365234375" lon="2.25036322139203548431396484375">
        <ele>99.1999969482421875</ele>
        <time>2022-05-15T08:21:44.000Z</time>
      </trkpt>
      <trkpt lat="41.546037308871746063232421875" lon="2.24994412623345851898193359375">
        <ele>98.8000030517578125</ele>
        <time>2022-05-15T08:21:48.000Z</time>
      </trkpt>
      <trkpt lat="41.5460378117859363555908203125" lon="2.2496265359222888946533203125">
        <ele>98.1999969482421875</ele>
        <time>2022-05-15T08:21:51.000Z</time>
      </trkpt>
      <trkpt lat="41.54601610265672206878662109375" lon="2.2494091093540191650390625">
        <ele>98</ele>
        <time>2022-05-15T08:21:53.000Z</time>
      </trkpt>
      <trkpt lat="41.5459647215902805328369140625" lon="2.2491920180618762969970703125">
        <ele>97.40000152587890625</ele>
        <time>2022-05-15T08:21:55.000Z</time>
      </trkpt>
      <trkpt lat="41.54593429528176784515380859375" lon="2.2490818798542022705078125">
        <ele>97.40000152587890625</ele>
        <time>2022-05-15T08:21:56.000Z</time>
      </trkpt>
      <trkpt lat="41.5459035336971282958984375" lon="2.24897065199911594390869140625">
        <ele>97</ele>
        <time>2022-05-15T08:21:57.000Z</time>
      </trkpt>
      <trkpt lat="41.54584058560431003570556640625" lon="2.248750291764736175537109375">
        <ele>96.40000152587890625</ele>
        <time>2022-05-15T08:21:59.000Z</time>
      </trkpt>
      <trkpt lat="41.54574922285974025726318359375" lon="2.2485553286969661712646484375">
        <ele>95.8000030517578125</ele>
        <time>2022-05-15T08:22:01.000Z</time>
      </trkpt>
      <trkpt lat="41.54569306410849094390869140625" lon="2.2484698332846164703369140625">
        <ele>95.40000152587890625</ele>
        <time>2022-05-15T08:22:02.000Z</time>
      </trkpt>
      <trkpt lat="41.54543942771852016448974609375" lon="2.248177640140056610107421875">
        <ele>94.8000030517578125</ele>
        <time>2022-05-15T08:22:06.000Z</time>
      </trkpt>
      <trkpt lat="41.54530162923038005828857421875" lon="2.248042859137058258056640625">
        <ele>94.1999969482421875</ele>
        <time>2022-05-15T08:22:08.000Z</time>
      </trkpt>
      <trkpt lat="41.5450755693018436431884765625" lon="2.247868515551090240478515625">
        <ele>94</ele>
        <time>2022-05-15T08:22:11.000Z</time>
      </trkpt>
      <trkpt lat="41.54491488821804523468017578125" lon="2.24776692688465118408203125">
        <ele>93.59999847412109375</ele>
        <time>2022-05-15T08:22:13.000Z</time>
      </trkpt>
      <trkpt lat="41.5447560511529445648193359375" lon="2.24767975509166717529296875">
        <ele>93.1999969482421875</ele>
        <time>2022-05-15T08:22:15.000Z</time>
      </trkpt>
      <trkpt lat="41.54459352605044841766357421875" lon="2.247599624097347259521484375">
        <ele>92.59999847412109375</ele>
        <time>2022-05-15T08:22:17.000Z</time>
      </trkpt>
      <trkpt lat="41.5445079468190670013427734375" lon="2.2475679405033588409423828125">
        <ele>92.1999969482421875</ele>
        <time>2022-05-15T08:22:18.000Z</time>
      </trkpt>
      <trkpt lat="41.54442471452057361602783203125" lon="2.2475317306816577911376953125">
        <ele>92.1999969482421875</ele>
        <time>2022-05-15T08:22:19.000Z</time>
      </trkpt>
      <trkpt lat="41.54417711310088634490966796875" lon="2.2474210895597934722900390625">
        <ele>91.8000030517578125</ele>
        <time>2022-05-15T08:22:22.000Z</time>
      </trkpt>
      <trkpt lat="41.54394124634563922882080078125" lon="2.24726476706564426422119140625">
        <ele>91</ele>
        <time>2022-05-15T08:22:25.000Z</time>
      </trkpt>
      <trkpt lat="41.54372566379606723785400390625" lon="2.24705169908702373504638671875">
        <ele>90</ele>
        <time>2022-05-15T08:22:28.000Z</time>
      </trkpt>
      <trkpt lat="41.5436016954481601715087890625" lon="2.246881462633609771728515625">
        <ele>89.40000152587890625</ele>
        <time>2022-05-15T08:22:30.000Z</time>
      </trkpt>
      <trkpt lat="41.5432382561266422271728515625" lon="2.2463482059538364410400390625">
        <ele>87.8000030517578125</ele>
        <time>2022-05-15T08:22:36.000Z</time>
      </trkpt>
      <trkpt lat="41.54316700994968414306640625" lon="2.24627452902495861053466796875">
        <ele>87.59999847412109375</ele>
        <time>2022-05-15T08:22:37.000Z</time>
      </trkpt>
      <trkpt lat="41.542851515114307403564453125" lon="2.24603824317455291748046875">
        <ele>87.1999969482421875</ele>
        <time>2022-05-15T08:22:41.000Z</time>
      </trkpt>
      <trkpt lat="41.54235656373202800750732421875" lon="2.24570606835186481475830078125">
        <ele>87.1999969482421875</ele>
        <time>2022-05-15T08:22:47.000Z</time>
      </trkpt>
      <trkpt lat="41.54227224178612232208251953125" lon="2.24565493874251842498779296875">
        <ele>87.1999969482421875</ele>
        <time>2022-05-15T08:22:48.000Z</time>
      </trkpt>
      <trkpt lat="41.5421060286462306976318359375" lon="2.24554882384836673736572265625">
        <ele>87.1999969482421875</ele>
        <time>2022-05-15T08:22:50.000Z</time>
      </trkpt>
      <trkpt lat="41.5415578521788120269775390625" lon="2.245207764208316802978515625">
        <ele>87</ele>
        <time>2022-05-15T08:22:57.000Z</time>
      </trkpt>
      <trkpt lat="41.5414832532405853271484375" lon="2.2451700456440448760986328125">
        <ele>86.8000030517578125</ele>
        <time>2022-05-15T08:22:58.000Z</time>
      </trkpt>
      <trkpt lat="41.54119960963726043701171875" lon="2.2450453229248523712158203125">
        <ele>86.8000030517578125</ele>
        <time>2022-05-15T08:23:02.000Z</time>
      </trkpt>
      <trkpt lat="41.54113364405930042266845703125" lon="2.24500785581767559051513671875">
        <ele>86.8000030517578125</ele>
        <time>2022-05-15T08:23:03.000Z</time>
      </trkpt>
      <trkpt lat="41.5410193987190723419189453125" lon="2.24488757550716400146484375">
        <ele>86.8000030517578125</ele>
        <time>2022-05-15T08:23:05.000Z</time>
      </trkpt>
      <trkpt lat="41.5409654192626476287841796875" lon="2.24482680670917034149169921875">
        <ele>86.8000030517578125</ele>
        <time>2022-05-15T08:23:06.000Z</time>
      </trkpt>
      <trkpt lat="41.5408577956259250640869140625" lon="2.24472396075725555419921875">
        <ele>86.59999847412109375</ele>
        <time>2022-05-15T08:23:09.000Z</time>
      </trkpt>
      <trkpt lat="41.54081613756716251373291015625" lon="2.2447125613689422607421875">
        <ele>86.59999847412109375</ele>
        <time>2022-05-15T08:23:11.000Z</time>
      </trkpt>
      <trkpt lat="41.540789566934108734130859375" lon="2.2447278164327144622802734375">
        <ele>86.40000152587890625</ele>
        <time>2022-05-15T08:23:13.000Z</time>
      </trkpt>
      <trkpt lat="41.5407880581915378570556640625" lon="2.24473661743104457855224609375">
        <ele>85.40000152587890625</ele>
        <time>2022-05-15T08:23:18.000Z</time>
      </trkpt>
      <trkpt lat="41.54078747145831584930419921875" lon="2.2447375394403934478759765625">
        <ele>85</ele>
        <time>2022-05-15T08:23:32.000Z</time>
      </trkpt>
      <trkpt lat="41.540787555277347564697265625" lon="2.24473745562136173248291015625">
        <ele>85</ele>
        <time>2022-05-15T08:23:33.000Z</time>
      </trkpt>
      <trkpt lat="41.54078696854412555694580078125" lon="2.24473846144974231719970703125">
        <ele>85</ele>
        <time>2022-05-15T08:23:44.000Z</time>
      </trkpt>
      <trkpt lat="41.54078696854412555694580078125" lon="2.24473846144974231719970703125">
        <ele>85</ele>
        <time>2022-05-15T08:23:45.000Z</time>
      </trkpt>
      <trkpt lat="41.5407870523631572723388671875" lon="2.244738377630710601806640625">
        <ele>85</ele>
        <time>2022-05-15T08:23:48.000Z</time>
      </trkpt>
      <trkpt lat="41.5407870523631572723388671875" lon="2.24473913200199604034423828125">
        <ele>85</ele>
        <time>2022-05-15T08:23:50.000Z</time>
      </trkpt>
      <trkpt lat="41.54078747145831584930419921875" lon="2.244738377630710601806640625">
        <ele>84.8000030517578125</ele>
        <time>2022-05-15T08:24:04.000Z</time>
      </trkpt>
      <trkpt lat="41.5407877229154109954833984375" lon="2.2447392158210277557373046875">
        <ele>84.8000030517578125</ele>
        <time>2022-05-15T08:24:15.000Z</time>
      </trkpt>
      <trkpt lat="41.54078780673444271087646484375" lon="2.2447393834590911865234375">
        <ele>84.8000030517578125</ele>
        <time>2022-05-15T08:24:16.000Z</time>
      </trkpt>
      <trkpt lat="41.54078830964863300323486328125" lon="2.24474080838263034820556640625">
        <ele>84.8000030517578125</ele>
        <time>2022-05-15T08:24:23.000Z</time>
      </trkpt>
      <trkpt lat="41.5407883934676647186279296875" lon="2.24474080838263034820556640625">
        <ele>85</ele>
        <time>2022-05-15T08:24:43.000Z</time>
      </trkpt>
      <trkpt lat="41.54078830964863300323486328125" lon="2.24474097602069377899169921875">
        <ele>85</ele>
        <time>2022-05-15T08:24:51.000Z</time>
      </trkpt>
      <trkpt lat="41.5407883934676647186279296875" lon="2.2447408922016620635986328125">
        <ele>85</ele>
        <time>2022-05-15T08:25:02.000Z</time>
      </trkpt>
      <trkpt lat="41.54078847728669643402099609375" lon="2.24474080838263034820556640625">
        <ele>85</ele>
        <time>2022-05-15T08:25:03.000Z</time>
      </trkpt>
      <trkpt lat="41.5407883934676647186279296875" lon="2.24474030546844005584716796875">
        <ele>85</ele>
        <time>2022-05-15T08:25:07.000Z</time>
      </trkpt>
      <trkpt lat="41.5407883934676647186279296875" lon="2.24474030546844005584716796875">
        <ele>85</ele>
        <time>2022-05-15T08:25:08.000Z</time>
      </trkpt>
      <trkpt lat="41.5407883934676647186279296875" lon="2.24474030546844005584716796875">
        <ele>84.8000030517578125</ele>
        <time>2022-05-15T08:25:13.000Z</time>
      </trkpt>
      <trkpt lat="41.5407883934676647186279296875" lon="2.24474013783037662506103515625">
        <ele>84.8000030517578125</ele>
        <time>2022-05-15T08:25:15.000Z</time>
      </trkpt>
      <trkpt lat="41.5407883934676647186279296875" lon="2.24474013783037662506103515625">
        <ele>85</ele>
        <time>2022-05-15T08:25:16.000Z</time>
      </trkpt>
      <trkpt lat="41.54078789055347442626953125" lon="2.24474030546844005584716796875">
        <ele>84.8000030517578125</ele>
        <time>2022-05-15T08:25:24.000Z</time>
      </trkpt>
      <trkpt lat="41.54078797437250614166259765625" lon="2.24474030546844005584716796875">
        <ele>84.8000030517578125</ele>
        <time>2022-05-15T08:25:25.000Z</time>
      </trkpt>
      <trkpt lat="41.54078780673444271087646484375" lon="2.24474047310650348663330078125">
        <ele>85</ele>
        <time>2022-05-15T08:25:30.000Z</time>
      </trkpt>
      <trkpt lat="41.54078797437250614166259765625" lon="2.2447398863732814788818359375">
        <ele>84.59999847412109375</ele>
        <time>2022-05-15T08:25:46.000Z</time>
      </trkpt>
      <trkpt lat="41.54078780673444271087646484375" lon="2.2447392158210277557373046875">
        <ele>84.59999847412109375</ele>
        <time>2022-05-15T08:25:53.000Z</time>
      </trkpt>
      <trkpt lat="41.54078210704028606414794921875" lon="2.244745083153247833251953125">
        <ele>84.59999847412109375</ele>
        <time>2022-05-15T08:26:04.000Z</time>
      </trkpt>
      <trkpt lat="41.5407716296613216400146484375" lon="2.2447693906724452972412109375">
        <ele>84.8000030517578125</ele>
        <time>2022-05-15T08:26:06.000Z</time>
      </trkpt>
      <trkpt lat="41.5407639183104038238525390625" lon="2.24478405900299549102783203125">
        <ele>84.59999847412109375</ele>
        <time>2022-05-15T08:26:07.000Z</time>
      </trkpt>
      <trkpt lat="41.5407055802643299102783203125" lon="2.2448123060166835784912109375">
        <ele>84.59999847412109375</ele>
        <time>2022-05-15T08:26:10.000Z</time>
      </trkpt>
      <trkpt lat="41.540550850331783294677734375" lon="2.24484474398195743560791015625">
        <ele>84.8000030517578125</ele>
        <time>2022-05-15T08:26:15.000Z</time>
      </trkpt>
      <trkpt lat="41.5405235253274440765380859375" lon="2.24484625272452831268310546875">
        <ele>85</ele>
        <time>2022-05-15T08:26:16.000Z</time>
      </trkpt>
      <trkpt lat="41.5403823740780353546142578125" lon="2.2447982244193553924560546875">
        <ele>85.40000152587890625</ele>
        <time>2022-05-15T08:26:22.000Z</time>
      </trkpt>
      <trkpt lat="41.5403605811297893524169921875" lon="2.2447767667472362518310546875">
        <ele>85.40000152587890625</ele>
        <time>2022-05-15T08:26:23.000Z</time>
      </trkpt>
      <trkpt lat="41.5403169952332973480224609375" lon="2.2447291575372219085693359375">
        <ele>85.40000152587890625</ele>
        <time>2022-05-15T08:26:25.000Z</time>
      </trkpt>
      <trkpt lat="41.5402308292686939239501953125" lon="2.2446651197969913482666015625">
        <ele>85.8000030517578125</ele>
        <time>2022-05-15T08:26:29.000Z</time>
      </trkpt>
      <trkpt lat="41.54006377793848514556884765625" lon="2.24456042982637882232666015625">
        <ele>86.40000152587890625</ele>
        <time>2022-05-15T08:26:35.000Z</time>
      </trkpt>
      <trkpt lat="41.5400256402790546417236328125" lon="2.24454735405743122100830078125">
        <ele>86.40000152587890625</ele>
        <time>2022-05-15T08:26:36.000Z</time>
      </trkpt>
      <trkpt lat="41.53994408436119556427001953125" lon="2.2445092163980007171630859375">
        <ele>86.59999847412109375</ele>
        <time>2022-05-15T08:26:38.000Z</time>
      </trkpt>
      <trkpt lat="41.5398630313575267791748046875" lon="2.24445196799933910369873046875">
        <ele>86.59999847412109375</ele>
        <time>2022-05-15T08:26:40.000Z</time>
      </trkpt>
      <trkpt lat="41.53949908912181854248046875" lon="2.244240827858448028564453125">
        <ele>87.1999969482421875</ele>
        <time>2022-05-15T08:26:48.000Z</time>
      </trkpt>
      <trkpt lat="41.5394536592066287994384765625" lon="2.24420403130352497100830078125">
        <ele>87</ele>
        <time>2022-05-15T08:26:49.000Z</time>
      </trkpt>
      <trkpt lat="41.53912500478327274322509765625" lon="2.2439566813409328460693359375">
        <ele>87.1999969482421875</ele>
        <time>2022-05-15T08:26:56.000Z</time>
      </trkpt>
      <trkpt lat="41.53902308084070682525634765625" lon="2.24387663416564464569091796875">
        <ele>86.8000030517578125</ele>
        <time>2022-05-15T08:26:58.000Z</time>
      </trkpt>
      <trkpt lat="41.53897471725940704345703125" lon="2.24382818676531314849853515625">
        <ele>87</ele>
        <time>2022-05-15T08:26:59.000Z</time>
      </trkpt>
      <trkpt lat="41.5389271080493927001953125" lon="2.24377588368952274322509765625">
        <ele>87</ele>
        <time>2022-05-15T08:27:00.000Z</time>
      </trkpt>
      <trkpt lat="41.5388823486864566802978515625" lon="2.2437193058431148529052734375">
        <ele>86.8000030517578125</ele>
        <time>2022-05-15T08:27:01.000Z</time>
      </trkpt>
      <trkpt lat="41.5385341644287109375" lon="2.24316685460507869720458984375">
        <ele>86</ele>
        <time>2022-05-15T08:27:10.000Z</time>
      </trkpt>
      <trkpt lat="41.53846417553722858428955078125" lon="2.24304045550525188446044921875">
        <ele>86</ele>
        <time>2022-05-15T08:27:12.000Z</time>
      </trkpt>
      <trkpt lat="41.5382711403071880340576171875" lon="2.24273703061044216156005859375">
        <ele>85.59999847412109375</ele>
        <time>2022-05-15T08:27:17.000Z</time>
      </trkpt>
      <trkpt lat="41.537941060960292816162109375" lon="2.24232740700244903564453125">
        <ele>85.1999969482421875</ele>
        <time>2022-05-15T08:27:24.000Z</time>
      </trkpt>
      <trkpt lat="41.53755658306181430816650390625" lon="2.2418410889804363250732421875">
        <ele>85</ele>
        <time>2022-05-15T08:27:32.000Z</time>
      </trkpt>
      <trkpt lat="41.53751601465046405792236328125" lon="2.24178233183920383453369140625">
        <ele>85</ele>
        <time>2022-05-15T08:27:33.000Z</time>
      </trkpt>
      <trkpt lat="41.53743923641741275787353515625" lon="2.2416613809764385223388671875">
        <ele>85</ele>
        <time>2022-05-15T08:27:35.000Z</time>
      </trkpt>
      <trkpt lat="41.53740336187183856964111328125" lon="2.2416003607213497161865234375">
        <ele>85.1999969482421875</ele>
        <time>2022-05-15T08:27:36.000Z</time>
      </trkpt>
      <trkpt lat="41.53736748732626438140869140625" lon="2.24154093302786350250244140625">
        <ele>85.1999969482421875</ele>
        <time>2022-05-15T08:27:37.000Z</time>
      </trkpt>
      <trkpt lat="41.53726673685014247894287109375" lon="2.24136491306126117706298828125">
        <ele>85.59999847412109375</ele>
        <time>2022-05-15T08:27:40.000Z</time>
      </trkpt>
      <trkpt lat="41.53720068745315074920654296875" lon="2.2412543557584285736083984375">
        <ele>86.40000152587890625</ele>
        <time>2022-05-15T08:27:42.000Z</time>
      </trkpt>
      <trkpt lat="41.5371680818498134613037109375" lon="2.2412013821303844451904296875">
        <ele>86.8000030517578125</ele>
        <time>2022-05-15T08:27:43.000Z</time>
      </trkpt>
      <trkpt lat="41.53713346458971500396728515625" lon="2.24114991724491119384765625">
        <ele>87</ele>
        <time>2022-05-15T08:27:44.000Z</time>
      </trkpt>
      <trkpt lat="41.5370978415012359619140625" lon="2.24110021255910396575927734375">
        <ele>87.40000152587890625</ele>
        <time>2022-05-15T08:27:45.000Z</time>
      </trkpt>
      <trkpt lat="41.53706037439405918121337890625" lon="2.24105478264391422271728515625">
        <ele>87.40000152587890625</ele>
        <time>2022-05-15T08:27:46.000Z</time>
      </trkpt>
      <trkpt lat="41.53702014125883579254150390625" lon="2.24101270548999309539794921875">
        <ele>87.8000030517578125</ele>
        <time>2022-05-15T08:27:47.000Z</time>
      </trkpt>
      <trkpt lat="41.53684093616902828216552734375" lon="2.2408362664282321929931640625">
        <ele>88.59999847412109375</ele>
        <time>2022-05-15T08:27:51.000Z</time>
      </trkpt>
      <trkpt lat="41.53668704442679882049560546875" lon="2.24068547599017620086669921875">
        <ele>89.40000152587890625</ele>
        <time>2022-05-15T08:27:54.000Z</time>
      </trkpt>
      <trkpt lat="41.5364492498338222503662109375" lon="2.24047844298183917999267578125">
        <ele>89.8000030517578125</ele>
        <time>2022-05-15T08:27:58.000Z</time>
      </trkpt>
      <trkpt lat="41.53630516491830348968505859375" lon="2.240405939519405364990234375">
        <ele>89.59999847412109375</ele>
        <time>2022-05-15T08:28:00.000Z</time>
      </trkpt>
      <trkpt lat="41.5359818749129772186279296875" lon="2.2402978129684925079345703125">
        <ele>89.8000030517578125</ele>
        <time>2022-05-15T08:28:04.000Z</time>
      </trkpt>
      <trkpt lat="41.53590450994670391082763671875" lon="2.2402542270720005035400390625">
        <ele>89.8000030517578125</ele>
        <time>2022-05-15T08:28:05.000Z</time>
      </trkpt>
      <trkpt lat="41.535830162465572357177734375" lon="2.240200079977512359619140625">
        <ele>89.8000030517578125</ele>
        <time>2022-05-15T08:28:06.000Z</time>
      </trkpt>
      <trkpt lat="41.53576017357409000396728515625" lon="2.24013579078018665313720703125">
        <ele>89.8000030517578125</ele>
        <time>2022-05-15T08:28:07.000Z</time>
      </trkpt>
      <trkpt lat="41.535628326237201690673828125" lon="2.23999279551208019256591796875">
        <ele>89.40000152587890625</ele>
        <time>2022-05-15T08:28:09.000Z</time>
      </trkpt>
      <trkpt lat="41.53543696738779544830322265625" lon="2.239767573773860931396484375">
        <ele>88.1999969482421875</ele>
        <time>2022-05-15T08:28:12.000Z</time>
      </trkpt>
      <trkpt lat="41.5353678166866302490234375" lon="2.239702530205249786376953125">
        <ele>88</ele>
        <time>2022-05-15T08:28:13.000Z</time>
      </trkpt>
      <trkpt lat="41.53529581613838672637939453125" lon="2.2396423481404781341552734375">
        <ele>87.8000030517578125</ele>
        <time>2022-05-15T08:28:14.000Z</time>
      </trkpt>
      <trkpt lat="41.535219959914684295654296875" lon="2.2395873628556728363037109375">
        <ele>87.59999847412109375</ele>
        <time>2022-05-15T08:28:15.000Z</time>
      </trkpt>
      <trkpt lat="41.535144187510013580322265625" lon="2.239534556865692138671875">
        <ele>87.59999847412109375</ele>
        <time>2022-05-15T08:28:16.000Z</time>
      </trkpt>
      <trkpt lat="41.5346964262425899505615234375" lon="2.2392688505351543426513671875">
        <ele>87</ele>
        <time>2022-05-15T08:28:22.000Z</time>
      </trkpt>
      <trkpt lat="41.53455669991672039031982421875" lon="2.2391679324209690093994140625">
        <ele>85.8000030517578125</ele>
        <time>2022-05-15T08:28:24.000Z</time>
      </trkpt>
      <trkpt lat="41.534492410719394683837890625" lon="2.23910431377589702606201171875">
        <ele>85.40000152587890625</ele>
        <time>2022-05-15T08:28:25.000Z</time>
      </trkpt>
      <trkpt lat="41.5344315581023693084716796875" lon="2.23903759382665157318115234375">
        <ele>85</ele>
        <time>2022-05-15T08:28:26.000Z</time>
      </trkpt>
      <trkpt lat="41.5342310629785060882568359375" lon="2.2386963665485382080078125">
        <ele>84.1999969482421875</ele>
        <time>2022-05-15T08:28:30.000Z</time>
      </trkpt>
      <trkpt lat="41.534045822918415069580078125" lon="2.2383210249245166778564453125">
        <ele>83.59999847412109375</ele>
        <time>2022-05-15T08:28:34.000Z</time>
      </trkpt>
      <trkpt lat="41.53394959867000579833984375" lon="2.23813117481768131256103515625">
        <ele>83.59999847412109375</ele>
        <time>2022-05-15T08:28:36.000Z</time>
      </trkpt>
      <trkpt lat="41.53390291146934032440185546875" lon="2.2380320169031620025634765625">
        <ele>83.40000152587890625</ele>
        <time>2022-05-15T08:28:37.000Z</time>
      </trkpt>
      <trkpt lat="41.53371079824864864349365234375" lon="2.2376410849392414093017578125">
        <ele>83.1999969482421875</ele>
        <time>2022-05-15T08:28:41.000Z</time>
      </trkpt>
      <trkpt lat="41.53351918794214725494384765625" lon="2.23725191317498683929443359375">
        <ele>82.59999847412109375</ele>
        <time>2022-05-15T08:28:45.000Z</time>
      </trkpt>
      <trkpt lat="41.5334750153124332427978515625" lon="2.23715342581272125244140625">
        <ele>82</ele>
        <time>2022-05-15T08:28:46.000Z</time>
      </trkpt>
      <trkpt lat="41.53327594511210918426513671875" lon="2.23667523823678493499755859375">
        <ele>81</ele>
        <time>2022-05-15T08:28:51.000Z</time>
      </trkpt>
      <trkpt lat="41.53317309916019439697265625" lon="2.236393354833126068115234375">
        <ele>80.1999969482421875</ele>
        <time>2022-05-15T08:28:54.000Z</time>
      </trkpt>
      <trkpt lat="41.53314501978456974029541015625" lon="2.2362976334989070892333984375">
        <ele>80</ele>
        <time>2022-05-15T08:28:55.000Z</time>
      </trkpt>
      <trkpt lat="41.533114425837993621826171875" lon="2.2360964678227901458740234375">
        <ele>79.59999847412109375</ele>
        <time>2022-05-15T08:28:57.000Z</time>
      </trkpt>
      <trkpt lat="41.53311970643699169158935546875" lon="2.23599026910960674285888671875">
        <ele>79.40000152587890625</ele>
        <time>2022-05-15T08:28:58.000Z</time>
      </trkpt>
      <trkpt lat="41.5331308543682098388671875" lon="2.235763706266880035400390625">
        <ele>79.1999969482421875</ele>
        <time>2022-05-15T08:29:00.000Z</time>
      </trkpt>
      <trkpt lat="41.53310897760093212127685546875" lon="2.235652394592761993408203125">
        <ele>79</ele>
        <time>2022-05-15T08:29:01.000Z</time>
      </trkpt>
      <trkpt lat="41.53306354768574237823486328125" lon="2.2355523146688938140869140625">
        <ele>79</ele>
        <time>2022-05-15T08:29:02.000Z</time>
      </trkpt>
      <trkpt lat="41.53299883939325809478759765625" lon="2.2354741953313350677490234375">
        <ele>78.8000030517578125</ele>
        <time>2022-05-15T08:29:03.000Z</time>
      </trkpt>
      <trkpt lat="41.5329221449792385101318359375" lon="2.2354242391884326934814453125">
        <ele>78.8000030517578125</ele>
        <time>2022-05-15T08:29:04.000Z</time>
      </trkpt>
      <trkpt lat="41.53276565484702587127685546875" lon="2.23537017591297626495361328125">
        <ele>78.1999969482421875</ele>
        <time>2022-05-15T08:29:06.000Z</time>
      </trkpt>
      <trkpt lat="41.53262601234018802642822265625" lon="2.2353092394769191741943359375">
        <ele>77.40000152587890625</ele>
        <time>2022-05-15T08:29:08.000Z</time>
      </trkpt>
      <trkpt lat="41.53256691992282867431640625" lon="2.2352643124759197235107421875">
        <ele>77.1999969482421875</ele>
        <time>2022-05-15T08:29:09.000Z</time>
      </trkpt>
      <trkpt lat="41.53251503594219684600830078125" lon="2.235214523971080780029296875">
        <ele>77.1999969482421875</ele>
        <time>2022-05-15T08:29:10.000Z</time>
      </trkpt>
      <trkpt lat="41.53242685832083225250244140625" lon="2.2351104207336902618408203125">
        <ele>77.40000152587890625</ele>
        <time>2022-05-15T08:29:12.000Z</time>
      </trkpt>
      <trkpt lat="41.532301716506481170654296875" lon="2.23497815430164337158203125">
        <ele>77.1999969482421875</ele>
        <time>2022-05-15T08:29:15.000Z</time>
      </trkpt>
      <trkpt lat="41.53209443204104900360107421875" lon="2.23480355925858020782470703125">
        <ele>78.40000152587890625</ele>
        <time>2022-05-15T08:29:20.000Z</time>
      </trkpt>
      <trkpt lat="41.53198278509080410003662109375" lon="2.23469945602118968963623046875">
        <ele>79.1999969482421875</ele>
        <time>2022-05-15T08:29:23.000Z</time>
      </trkpt>
      <trkpt lat="41.5319501794874668121337890625" lon="2.23466441966593265533447265625">
        <ele>79.59999847412109375</ele>
        <time>2022-05-15T08:29:24.000Z</time>
      </trkpt>
      <trkpt lat="41.5319206751883029937744140625" lon="2.23462946712970733642578125">
        <ele>80.1999969482421875</ele>
        <time>2022-05-15T08:29:25.000Z</time>
      </trkpt>
      <trkpt lat="41.5318204276263713836669921875" lon="2.2344624996185302734375">
        <ele>81</ele>
        <time>2022-05-15T08:29:29.000Z</time>
      </trkpt>
      <trkpt lat="41.53179720975458621978759765625" lon="2.234417237341403961181640625">
        <ele>81.1999969482421875</ele>
        <time>2022-05-15T08:29:30.000Z</time>
      </trkpt>
      <trkpt lat="41.53164424002170562744140625" lon="2.2340764291584491729736328125">
        <ele>82.8000030517578125</ele>
        <time>2022-05-15T08:29:37.000Z</time>
      </trkpt>
      <trkpt lat="41.5314901806414127349853515625" lon="2.2336637042462825775146484375">
        <ele>84.1999969482421875</ele>
        <time>2022-05-15T08:29:44.000Z</time>
      </trkpt>
      <trkpt lat="41.531470902264118194580078125" lon="2.2335932962596416473388671875">
        <ele>84.40000152587890625</ele>
        <time>2022-05-15T08:29:45.000Z</time>
      </trkpt>
      <trkpt lat="41.531398482620716094970703125" lon="2.2332016937434673309326171875">
        <ele>84.40000152587890625</ele>
        <time>2022-05-15T08:29:50.000Z</time>
      </trkpt>
      <trkpt lat="41.531358920037746429443359375" lon="2.23295048810541629791259765625">
        <ele>84.40000152587890625</ele>
        <time>2022-05-15T08:29:53.000Z</time>
      </trkpt>
      <trkpt lat="41.53130133636295795440673828125" lon="2.232788465917110443115234375">
        <ele>84.1999969482421875</ele>
        <time>2022-05-15T08:29:55.000Z</time>
      </trkpt>
      <trkpt lat="41.5310754440724849700927734375" lon="2.2324298880994319915771484375">
        <ele>83.8000030517578125</ele>
        <time>2022-05-15T08:30:00.000Z</time>
      </trkpt>
      <trkpt lat="41.53084871359169483184814453125" lon="2.23219444043934345245361328125">
        <ele>83.40000152587890625</ele>
        <time>2022-05-15T08:30:04.000Z</time>
      </trkpt>
      <trkpt lat="41.530731953680515289306640625" lon="2.23207466304302215576171875">
        <ele>83.1999969482421875</ele>
        <time>2022-05-15T08:30:06.000Z</time>
      </trkpt>
      <trkpt lat="41.5306781418621540069580078125" lon="2.23200500942766666412353515625">
        <ele>83.1999969482421875</ele>
        <time>2022-05-15T08:30:07.000Z</time>
      </trkpt>
      <trkpt lat="41.53058636002242565155029296875" lon="2.23184122703969478607177734375">
        <ele>83</ele>
        <time>2022-05-15T08:30:09.000Z</time>
      </trkpt>
      <trkpt lat="41.53055232949554920196533203125" lon="2.23174852319061756134033203125">
        <ele>83</ele>
        <time>2022-05-15T08:30:10.000Z</time>
      </trkpt>
      <trkpt lat="41.5304727852344512939453125" lon="2.23146286793053150177001953125">
        <ele>82.59999847412109375</ele>
        <time>2022-05-15T08:30:13.000Z</time>
      </trkpt>
      <trkpt lat="41.53044688515365123748779296875" lon="2.2313677333295345306396484375">
        <ele>82.40000152587890625</ele>
        <time>2022-05-15T08:30:14.000Z</time>
      </trkpt>
      <trkpt lat="41.53041888959705829620361328125" lon="2.23127293400466442108154296875">
        <ele>82.1999969482421875</ele>
        <time>2022-05-15T08:30:15.000Z</time>
      </trkpt>
      <trkpt lat="41.53035686351358890533447265625" lon="2.2310854308307170867919921875">
        <ele>82.1999969482421875</ele>
        <time>2022-05-15T08:30:17.000Z</time>
      </trkpt>
      <trkpt lat="41.53024203144013881683349609375" lon="2.2308165393769741058349609375">
        <ele>82</ele>
        <time>2022-05-15T08:30:20.000Z</time>
      </trkpt>
      <trkpt lat="41.53014195151627063751220703125" lon="2.2306599654257297515869140625">
        <ele>82</ele>
        <time>2022-05-15T08:30:22.000Z</time>
      </trkpt>
      <trkpt lat="41.53003348968923091888427734375" lon="2.23050347529351711273193359375">
        <ele>82</ele>
        <time>2022-05-15T08:30:24.000Z</time>
      </trkpt>
      <trkpt lat="41.52971263043582439422607421875" lon="2.23004481755197048187255859375">
        <ele>81.8000030517578125</ele>
        <time>2022-05-15T08:30:30.000Z</time>
      </trkpt>
      <trkpt lat="41.52937232516705989837646484375" lon="2.22978950478136539459228515625">
        <ele>81.40000152587890625</ele>
        <time>2022-05-15T08:30:35.000Z</time>
      </trkpt>
      <trkpt lat="41.52888801880180835723876953125" lon="2.22946763969957828521728515625">
        <ele>80.8000030517578125</ele>
        <time>2022-05-15T08:30:42.000Z</time>
      </trkpt>
      <trkpt lat="41.52875307016074657440185546875" lon="2.22937501966953277587890625">
        <ele>80.40000152587890625</ele>
        <time>2022-05-15T08:30:44.000Z</time>
      </trkpt>
      <trkpt lat="41.5286262519657611846923828125" lon="2.22926102578639984130859375">
        <ele>80.1999969482421875</ele>
        <time>2022-05-15T08:30:46.000Z</time>
      </trkpt>
      <trkpt lat="41.52853363193571567535400390625" lon="2.22909967415034770965576171875">
        <ele>80</ele>
        <time>2022-05-15T08:30:48.000Z</time>
      </trkpt>
      <trkpt lat="41.52844998054206371307373046875" lon="2.22868795506656169891357421875">
        <ele>79.59999847412109375</ele>
        <time>2022-05-15T08:30:52.000Z</time>
      </trkpt>
      <trkpt lat="41.52843288145959377288818359375" lon="2.22846885211765766143798828125">
        <ele>79.40000152587890625</ele>
        <time>2022-05-15T08:30:54.000Z</time>
      </trkpt>
      <trkpt lat="41.528391055762767791748046875" lon="2.22815084271132946014404296875">
        <ele>78.8000030517578125</ele>
        <time>2022-05-15T08:30:57.000Z</time>
      </trkpt>
      <trkpt lat="41.52835543267428874969482421875" lon="2.22806182689964771270751953125">
        <ele>78.59999847412109375</ele>
        <time>2022-05-15T08:30:58.000Z</time>
      </trkpt>
      <trkpt lat="41.52830966748297214508056640625" lon="2.22798471339046955108642578125">
        <ele>78.59999847412109375</ele>
        <time>2022-05-15T08:30:59.000Z</time>
      </trkpt>
      <trkpt lat="41.5281541831791400909423828125" lon="2.22779863514006137847900390625">
        <ele>78.1999969482421875</ele>
        <time>2022-05-15T08:31:02.000Z</time>
      </trkpt>
      <trkpt lat="41.5281070768833160400390625" lon="2.22774423658847808837890625">
        <ele>78</ele>
        <time>2022-05-15T08:31:03.000Z</time>
      </trkpt>
      <trkpt lat="41.52800054289400577545166015625" lon="2.22761305980384349822998046875">
        <ele>77.40000152587890625</ele>
        <time>2022-05-15T08:31:06.000Z</time>
      </trkpt>
      <trkpt lat="41.52789543382823467254638671875" lon="2.22749856300652027130126953125">
        <ele>75.8000030517578125</ele>
        <time>2022-05-15T08:31:11.000Z</time>
      </trkpt>
      <trkpt lat="41.52781069278717041015625" lon="2.22738121636211872100830078125">
        <ele>74.59999847412109375</ele>
        <time>2022-05-15T08:31:16.000Z</time>
      </trkpt>
      <trkpt lat="41.52761765755712985992431640625" lon="2.22715951502323150634765625">
        <ele>74.1999969482421875</ele>
        <time>2022-05-15T08:31:23.000Z</time>
      </trkpt>
      <trkpt lat="41.527416743338108062744140625" lon="2.2269152663648128509521484375">
        <ele>74.1999969482421875</ele>
        <time>2022-05-15T08:31:29.000Z</time>
      </trkpt>
      <trkpt lat="41.5272429026663303375244140625" lon="2.226703204214572906494140625">
        <ele>74.40000152587890625</ele>
        <time>2022-05-15T08:31:35.000Z</time>
      </trkpt>
      <trkpt lat="41.527203507721424102783203125" lon="2.22663941793143749237060546875">
        <ele>74.40000152587890625</ele>
        <time>2022-05-15T08:31:37.000Z</time>
      </trkpt>
      <trkpt lat="41.52718699537217617034912109375" lon="2.2266103327274322509765625">
        <ele>74.40000152587890625</ele>
        <time>2022-05-15T08:31:38.000Z</time>
      </trkpt>
      <trkpt lat="41.527156569063663482666015625" lon="2.22655828110873699188232421875">
        <ele>74.59999847412109375</ele>
        <time>2022-05-15T08:31:40.000Z</time>
      </trkpt>
      <trkpt lat="41.5271332673728466033935546875" lon="2.22654872573912143707275390625">
        <ele>74.59999847412109375</ele>
        <time>2022-05-15T08:31:41.000Z</time>
      </trkpt>
      <trkpt lat="41.52711356990039348602294921875" lon="2.22655207850039005279541015625">
        <ele>74.59999847412109375</ele>
        <time>2022-05-15T08:31:42.000Z</time>
      </trkpt>
      <trkpt lat="41.52709194459021091461181640625" lon="2.22654998302459716796875">
        <ele>74.59999847412109375</ele>
        <time>2022-05-15T08:31:43.000Z</time>
      </trkpt>
      <trkpt lat="41.52707182802259922027587890625" lon="2.22654738463461399078369140625">
        <ele>74.59999847412109375</ele>
        <time>2022-05-15T08:31:44.000Z</time>
      </trkpt>
      <trkpt lat="41.5270598419010639190673828125" lon="2.22655694000422954559326171875">
        <ele>74.59999847412109375</ele>
        <time>2022-05-15T08:31:45.000Z</time>
      </trkpt>
      <trkpt lat="41.52706361375749111175537109375" lon="2.22657504491508007049560546875">
        <ele>74.59999847412109375</ele>
        <time>2022-05-15T08:31:46.000Z</time>
      </trkpt>
      <trkpt lat="41.52715019881725311279296875" lon="2.22662064246833324432373046875">
        <ele>74.59999847412109375</ele>
        <time>2022-05-15T08:31:50.000Z</time>
      </trkpt>
      <trkpt lat="41.5271778590977191925048828125" lon="2.22663371823728084564208984375">
        <ele>74.8000030517578125</ele>
        <time>2022-05-15T08:31:51.000Z</time>
      </trkpt>
      <trkpt lat="41.52722253464162349700927734375" lon="2.226663641631603240966796875">
        <ele>74.59999847412109375</ele>
        <time>2022-05-15T08:31:53.000Z</time>
      </trkpt>
      <trkpt lat="41.5272345207631587982177734375" lon="2.22666137851774692535400390625">
        <ele>74.8000030517578125</ele>
        <time>2022-05-15T08:31:54.000Z</time>
      </trkpt>
      <trkpt lat="41.5272355265915393829345703125" lon="2.226654253900051116943359375">
        <ele>74.8000030517578125</ele>
        <time>2022-05-15T08:31:59.000Z</time>
      </trkpt>
      <trkpt lat="41.52723611332476139068603515625" lon="2.2266534157097339630126953125">
        <ele>74.8000030517578125</ele>
        <time>2022-05-15T08:32:00.000Z</time>
      </trkpt>
      <trkpt lat="41.52724382467567920684814453125" lon="2.22665014676749706268310546875">
        <ele>74.59999847412109375</ele>
        <time>2022-05-15T08:32:03.000Z</time>
      </trkpt>
      <trkpt lat="41.52725757099688053131103515625" lon="2.2266480512917041778564453125">
        <ele>74.1999969482421875</ele>
        <time>2022-05-15T08:32:10.000Z</time>
      </trkpt>
      <trkpt lat="41.5272613428533077239990234375" lon="2.22664654254913330078125">
        <ele>74.1999969482421875</ele>
        <time>2022-05-15T08:32:12.000Z</time>
      </trkpt>
      <trkpt lat="41.527263186872005462646484375" lon="2.2266497276723384857177734375">
        <ele>74.1999969482421875</ele>
        <time>2022-05-15T08:32:19.000Z</time>
      </trkpt>
      <trkpt lat="41.5272606723010540008544921875" lon="2.2266505658626556396484375">
        <ele>74.1999969482421875</ele>
        <time>2022-05-15T08:32:22.000Z</time>
      </trkpt>
      <trkpt lat="41.52726092375814914703369140625" lon="2.22664989531040191650390625">
        <ele>74.1999969482421875</ele>
        <time>2022-05-15T08:32:23.000Z</time>
      </trkpt>
      <trkpt lat="41.5272566489875316619873046875" lon="2.22665618173778057098388671875">
        <ele>74.1999969482421875</ele>
        <time>2022-05-15T08:32:30.000Z</time>
      </trkpt>
      <trkpt lat="41.52725690044462680816650390625" lon="2.22665517590939998626708984375">
        <ele>74.1999969482421875</ele>
        <time>2022-05-15T08:32:38.000Z</time>
      </trkpt>
      <trkpt lat="41.5272568166255950927734375" lon="2.2266745381057262420654296875">
        <ele>74.1999969482421875</ele>
        <time>2022-05-15T08:32:48.000Z</time>
      </trkpt>
      <trkpt lat="41.5272583253681659698486328125" lon="2.2266829200088977813720703125">
        <ele>74.1999969482421875</ele>
        <time>2022-05-15T08:32:50.000Z</time>
      </trkpt>
      <trkpt lat="41.52725472114980220794677734375" lon="2.2266856022179126739501953125">
        <ele>74</ele>
        <time>2022-05-15T08:32:59.000Z</time>
      </trkpt>
      <trkpt lat="41.52724650688469409942626953125" lon="2.226678393781185150146484375">
        <ele>74</ele>
        <time>2022-05-15T08:33:06.000Z</time>
      </trkpt>
      <trkpt lat="41.5272465907037258148193359375" lon="2.226677723228931427001953125">
        <ele>74.1999969482421875</ele>
        <time>2022-05-15T08:33:07.000Z</time>
      </trkpt>
      <trkpt lat="41.527247764170169830322265625" lon="2.22667864523828029632568359375">
        <ele>74.1999969482421875</ele>
        <time>2022-05-15T08:33:11.000Z</time>
      </trkpt>
      <trkpt lat="41.52724835090339183807373046875" lon="2.226689122617244720458984375">
        <ele>74</ele>
        <time>2022-05-15T08:33:26.000Z</time>
      </trkpt>
      <trkpt lat="41.527243740856647491455078125" lon="2.2266909666359424591064453125">
        <ele>74.1999969482421875</ele>
        <time>2022-05-15T08:33:36.000Z</time>
      </trkpt>
      <trkpt lat="41.52724415995180606842041015625" lon="2.22669105045497417449951171875">
        <ele>74</ele>
        <time>2022-05-15T08:33:51.000Z</time>
      </trkpt>
      <trkpt lat="41.52724281884729862213134765625" lon="2.22668333910405635833740234375">
        <ele>74</ele>
        <time>2022-05-15T08:34:13.000Z</time>
      </trkpt>
      <trkpt lat="41.52722823433578014373779296875" lon="2.22667646594345569610595703125">
        <ele>73.8000030517578125</ele>
        <time>2022-05-15T08:34:14.000Z</time>
      </trkpt>
      <trkpt lat="41.5271865762770175933837890625" lon="2.22664494998753070831298828125">
        <ele>73.8000030517578125</ele>
        <time>2022-05-15T08:34:16.000Z</time>
      </trkpt>
      <trkpt lat="41.5270207822322845458984375" lon="2.22647848539054393768310546875">
        <ele>74.1999969482421875</ele>
        <time>2022-05-15T08:34:23.000Z</time>
      </trkpt>
      <trkpt lat="41.5268254838883876800537109375" lon="2.2263597138226032257080078125">
        <ele>74.59999847412109375</ele>
        <time>2022-05-15T08:34:29.000Z</time>
      </trkpt>
      <trkpt lat="41.52655215002596378326416015625" lon="2.2262665070593357086181640625">
        <ele>75</ele>
        <time>2022-05-15T08:34:36.000Z</time>
      </trkpt>
      <trkpt lat="41.52634779922664165496826171875" lon="2.2262080013751983642578125">
        <ele>75.1999969482421875</ele>
        <time>2022-05-15T08:34:42.000Z</time>
      </trkpt>
      <trkpt lat="41.5260848589241504669189453125" lon="2.22611336968839168548583984375">
        <ele>75</ele>
        <time>2022-05-15T08:34:50.000Z</time>
      </trkpt>
      <trkpt lat="41.5260446257889270782470703125" lon="2.22610096447169780731201171875">
        <ele>75</ele>
        <time>2022-05-15T08:34:51.000Z</time>
      </trkpt>
      <trkpt lat="41.525811441242694854736328125" lon="2.22605117596685886383056640625">
        <ele>75.1999969482421875</ele>
        <time>2022-05-15T08:34:56.000Z</time>
      </trkpt>
      <trkpt lat="41.5257646702229976654052734375" lon="2.2260418720543384552001953125">
        <ele>75.1999969482421875</ele>
        <time>2022-05-15T08:34:57.000Z</time>
      </trkpt>
      <trkpt lat="41.5257200784981250762939453125" lon="2.22603139467537403106689453125">
        <ele>75.1999969482421875</ele>
        <time>2022-05-15T08:34:58.000Z</time>
      </trkpt>
      <trkpt lat="41.52567104436457157135009765625" lon="2.22602066583931446075439453125">
        <ele>75.1999969482421875</ele>
        <time>2022-05-15T08:34:59.000Z</time>
      </trkpt>
      <trkpt lat="41.5256205014884471893310546875" lon="2.226010859012603759765625">
        <ele>75.1999969482421875</ele>
        <time>2022-05-15T08:35:00.000Z</time>
      </trkpt>
      <trkpt lat="41.52552050538361072540283203125" lon="2.2259885631501674652099609375">
        <ele>75.59999847412109375</ele>
        <time>2022-05-15T08:35:02.000Z</time>
      </trkpt>
      <trkpt lat="41.52547205798327922821044921875" lon="2.22597439773380756378173828125">
        <ele>75.59999847412109375</ele>
        <time>2022-05-15T08:35:03.000Z</time>
      </trkpt>
      <trkpt lat="41.5251444093883037567138671875" lon="2.22588471136987209320068359375">
        <ele>75.8000030517578125</ele>
        <time>2022-05-15T08:35:09.000Z</time>
      </trkpt>
      <trkpt lat="41.52495036832988262176513671875" lon="2.22583006136119365692138671875">
        <ele>75.59999847412109375</ele>
        <time>2022-05-15T08:35:12.000Z</time>
      </trkpt>
      <trkpt lat="41.5248795412480831146240234375" lon="2.22581128589808940887451171875">
        <ele>75.1999969482421875</ele>
        <time>2022-05-15T08:35:13.000Z</time>
      </trkpt>
      <trkpt lat="41.52473042719066143035888671875" lon="2.22577323205769062042236328125">
        <ele>75.1999969482421875</ele>
        <time>2022-05-15T08:35:15.000Z</time>
      </trkpt>
      <trkpt lat="41.52449958957731723785400390625" lon="2.2257116250693798065185546875">
        <ele>74.8000030517578125</ele>
        <time>2022-05-15T08:35:18.000Z</time>
      </trkpt>
      <trkpt lat="41.5241043828427791595458984375" lon="2.22561263479292392730712890625">
        <ele>74.40000152587890625</ele>
        <time>2022-05-15T08:35:23.000Z</time>
      </trkpt>
      <trkpt lat="41.52376885525882244110107421875" lon="2.22552328370511531829833984375">
        <ele>73.59999847412109375</ele>
        <time>2022-05-15T08:35:28.000Z</time>
      </trkpt>
      <trkpt lat="41.52372091077268123626708984375" lon="2.225504927337169647216796875">
        <ele>73.40000152587890625</ele>
        <time>2022-05-15T08:35:29.000Z</time>
      </trkpt>
      <trkpt lat="41.52367615140974521636962890625" lon="2.2254776023328304290771484375">
        <ele>73</ele>
        <time>2022-05-15T08:35:30.000Z</time>
      </trkpt>
      <trkpt lat="41.52363390661776065826416015625" lon="2.22543678246438503265380859375">
        <ele>72.8000030517578125</ele>
        <time>2022-05-15T08:35:31.000Z</time>
      </trkpt>
      <trkpt lat="41.5235888957977294921875" lon="2.22539537586271762847900390625">
        <ele>72.59999847412109375</ele>
        <time>2022-05-15T08:35:32.000Z</time>
      </trkpt>
      <trkpt lat="41.52353734709322452545166015625" lon="2.225366123020648956298828125">
        <ele>72.1999969482421875</ele>
        <time>2022-05-15T08:35:33.000Z</time>
      </trkpt>
      <trkpt lat="41.5234214253723621368408203125" lon="2.22537207417190074920654296875">
        <ele>72</ele>
        <time>2022-05-15T08:35:35.000Z</time>
      </trkpt>
      <trkpt lat="41.523296199738979339599609375" lon="2.2253931127488613128662109375">
        <ele>71.1999969482421875</ele>
        <time>2022-05-15T08:35:37.000Z</time>
      </trkpt>
      <trkpt lat="41.5231659449636936187744140625" lon="2.2253723256289958953857421875">
        <ele>71</ele>
        <time>2022-05-15T08:35:39.000Z</time>
      </trkpt>
      <trkpt lat="41.5229679644107818603515625" lon="2.22529613412916660308837890625">
        <ele>70.8000030517578125</ele>
        <time>2022-05-15T08:35:42.000Z</time>
      </trkpt>
      <trkpt lat="41.5229030884802341461181640625" lon="2.22526076249778270721435546875">
        <ele>70.8000030517578125</ele>
        <time>2022-05-15T08:35:43.000Z</time>
      </trkpt>
      <trkpt lat="41.52277677319943904876708984375" lon="2.22516738809645175933837890625">
        <ele>70.59999847412109375</ele>
        <time>2022-05-15T08:35:45.000Z</time>
      </trkpt>
      <trkpt lat="41.52271759696304798126220703125" lon="2.22511106170713901519775390625">
        <ele>70.8000030517578125</ele>
        <time>2022-05-15T08:35:46.000Z</time>
      </trkpt>
      <trkpt lat="41.5226140804588794708251953125" lon="2.22497845999896526336669921875">
        <ele>70.59999847412109375</ele>
        <time>2022-05-15T08:35:48.000Z</time>
      </trkpt>
      <trkpt lat="41.5225708298385143280029296875" lon="2.224903441965579986572265625">
        <ele>70.59999847412109375</ele>
        <time>2022-05-15T08:35:49.000Z</time>
      </trkpt>
      <trkpt lat="41.522251479327678680419921875" lon="2.22424873150885105133056640625">
        <ele>70.59999847412109375</ele>
        <time>2022-05-15T08:35:57.000Z</time>
      </trkpt>
      <trkpt lat="41.5222088992595672607421875" lon="2.22416776232421398162841796875">
        <ele>70.59999847412109375</ele>
        <time>2022-05-15T08:35:58.000Z</time>
      </trkpt>
      <trkpt lat="41.52216355316340923309326171875" lon="2.2240890562534332275390625">
        <ele>70.59999847412109375</ele>
        <time>2022-05-15T08:35:59.000Z</time>
      </trkpt>
      <trkpt lat="41.52186146937310695648193359375" lon="2.22364976070821285247802734375">
        <ele>70.8000030517578125</ele>
        <time>2022-05-15T08:36:05.000Z</time>
      </trkpt>
      <trkpt lat="41.52166214771568775177001953125" lon="2.2233549691736698150634765625">
        <ele>70.8000030517578125</ele>
        <time>2022-05-15T08:36:09.000Z</time>
      </trkpt>
      <trkpt lat="41.52162442915141582489013671875" lon="2.223267965018749237060546875">
        <ele>70.8000030517578125</ele>
        <time>2022-05-15T08:36:10.000Z</time>
      </trkpt>
      <trkpt lat="41.52158268727362155914306640625" lon="2.22318305633962154388427734375">
        <ele>70.8000030517578125</ele>
        <time>2022-05-15T08:36:11.000Z</time>
      </trkpt>
      <trkpt lat="41.52146399952471256256103515625" lon="2.22306101582944393157958984375">
        <ele>70.8000030517578125</ele>
        <time>2022-05-15T08:36:13.000Z</time>
      </trkpt>
      <trkpt lat="41.52132720686495304107666015625" lon="2.222980298101902008056640625">
        <ele>70.8000030517578125</ele>
        <time>2022-05-15T08:36:15.000Z</time>
      </trkpt>
      <trkpt lat="41.52126316912472248077392578125" lon="2.22293126396834850311279296875">
        <ele>70.8000030517578125</ele>
        <time>2022-05-15T08:36:16.000Z</time>
      </trkpt>
      <trkpt lat="41.52120240032672882080078125" lon="2.222877033054828643798828125">
        <ele>70.8000030517578125</ele>
        <time>2022-05-15T08:36:17.000Z</time>
      </trkpt>
      <trkpt lat="41.521028392016887664794921875" lon="2.22270092926919460296630859375">
        <ele>70.8000030517578125</ele>
        <time>2022-05-15T08:36:20.000Z</time>
      </trkpt>
      <trkpt lat="41.5208092890679836273193359375" lon="2.22245584242045879364013671875">
        <ele>71</ele>
        <time>2022-05-15T08:36:24.000Z</time>
      </trkpt>
      <trkpt lat="41.5207589976489543914794921875" lon="2.2223903797566890716552734375">
        <ele>71.1999969482421875</ele>
        <time>2022-05-15T08:36:25.000Z</time>
      </trkpt>
      <trkpt lat="41.5207122266292572021484375" lon="2.22232340835034847259521484375">
        <ele>71.40000152587890625</ele>
        <time>2022-05-15T08:36:26.000Z</time>
      </trkpt>
      <trkpt lat="41.5206693112850189208984375" lon="2.22225375473499298095703125">
        <ele>71.59999847412109375</ele>
        <time>2022-05-15T08:36:27.000Z</time>
      </trkpt>
      <trkpt lat="41.5205876715481281280517578125" lon="2.222115285694599151611328125">
        <ele>72</ele>
        <time>2022-05-15T08:36:29.000Z</time>
      </trkpt>
      <trkpt lat="41.5204307623207569122314453125" lon="2.2218388505280017852783203125">
        <ele>72.59999847412109375</ele>
        <time>2022-05-15T08:36:33.000Z</time>
      </trkpt>
      <trkpt lat="41.52020193636417388916015625" lon="2.22138069570064544677734375">
        <ele>74.40000152587890625</ele>
        <time>2022-05-15T08:36:39.000Z</time>
      </trkpt>
      <trkpt lat="41.52016547508537769317626953125" lon="2.22129964269697666168212890625">
        <ele>74.59999847412109375</ele>
        <time>2022-05-15T08:36:40.000Z</time>
      </trkpt>
      <trkpt lat="41.52013345621526241302490234375" lon="2.22121532075107097625732421875">
        <ele>74.8000030517578125</ele>
        <time>2022-05-15T08:36:41.000Z</time>
      </trkpt>
      <trkpt lat="41.520054750144481658935546875" lon="2.22094391472637653350830078125">
        <ele>74.8000030517578125</ele>
        <time>2022-05-15T08:36:44.000Z</time>
      </trkpt>
      <trkpt lat="41.52003203518688678741455078125" lon="2.2208487801253795623779296875">
        <ele>74.8000030517578125</ele>
        <time>2022-05-15T08:36:45.000Z</time>
      </trkpt>
      <trkpt lat="41.51985618285834789276123046875" lon="2.2202697582542896270751953125">
        <ele>75.1999969482421875</ele>
        <time>2022-05-15T08:36:51.000Z</time>
      </trkpt>
      <trkpt lat="41.51981159113347530364990234375" lon="2.22018015570938587188720703125">
        <ele>75.1999969482421875</ele>
        <time>2022-05-15T08:36:52.000Z</time>
      </trkpt>
      <trkpt lat="41.51951805688440799713134765625" lon="2.2197886370122432708740234375">
        <ele>75.1999969482421875</ele>
        <time>2022-05-15T08:36:57.000Z</time>
      </trkpt>
      <trkpt lat="41.519185714423656463623046875" lon="2.21941287629306316375732421875">
        <ele>75</ele>
        <time>2022-05-15T08:37:02.000Z</time>
      </trkpt>
      <trkpt lat="41.51904900558292865753173828125" lon="2.21926015801727771759033203125">
        <ele>74.59999847412109375</ele>
        <time>2022-05-15T08:37:04.000Z</time>
      </trkpt>
      <trkpt lat="41.5189231932163238525390625" lon="2.2190905921161174774169921875">
        <ele>74.40000152587890625</ele>
        <time>2022-05-15T08:37:06.000Z</time>
      </trkpt>
      <trkpt lat="41.5186608396470546722412109375" lon="2.2186258994042873382568359375">
        <ele>73.8000030517578125</ele>
        <time>2022-05-15T08:37:11.000Z</time>
      </trkpt>
      <trkpt lat="41.51854835450649261474609375" lon="2.21845130436122417449951171875">
        <ele>73.40000152587890625</ele>
        <time>2022-05-15T08:37:13.000Z</time>
      </trkpt>
      <trkpt lat="41.51848423294723033905029296875" lon="2.21837435849010944366455078125">
        <ele>73.1999969482421875</ele>
        <time>2022-05-15T08:37:14.000Z</time>
      </trkpt>
      <trkpt lat="41.51841424405574798583984375" lon="2.21830495633184909820556640625">
        <ele>73</ele>
        <time>2022-05-15T08:37:15.000Z</time>
      </trkpt>
      <trkpt lat="41.51796497404575347900390625" lon="2.21798459999263286590576171875">
        <ele>72.8000030517578125</ele>
        <time>2022-05-15T08:37:21.000Z</time>
      </trkpt>
      <trkpt lat="41.51780127547681331634521484375" lon="2.21795341931283473968505859375">
        <ele>72.59999847412109375</ele>
        <time>2022-05-15T08:37:23.000Z</time>
      </trkpt>
      <trkpt lat="41.51763665489852428436279296875" lon="2.217948138713836669921875">
        <ele>72.59999847412109375</ele>
        <time>2022-05-15T08:37:25.000Z</time>
      </trkpt>
      <trkpt lat="41.5175527520477771759033203125" lon="2.2179409302771091461181640625">
        <ele>72.59999847412109375</ele>
        <time>2022-05-15T08:37:26.000Z</time>
      </trkpt>
      <trkpt lat="41.51746817864477634429931640625" lon="2.217927016317844390869140625">
        <ele>72.59999847412109375</ele>
        <time>2022-05-15T08:37:27.000Z</time>
      </trkpt>
      <trkpt lat="41.517384946346282958984375" lon="2.21790681593120098114013671875">
        <ele>72.59999847412109375</ele>
        <time>2022-05-15T08:37:28.000Z</time>
      </trkpt>
      <trkpt lat="41.51722694747149944305419921875" lon="2.2178396768867969512939453125">
        <ele>72.59999847412109375</ele>
        <time>2022-05-15T08:37:30.000Z</time>
      </trkpt>
      <trkpt lat="41.51669017039239406585693359375" lon="2.21750716678798198699951171875">
        <ele>72.40000152587890625</ele>
        <time>2022-05-15T08:37:37.000Z</time>
      </trkpt>
      <trkpt lat="41.5165325067937374114990234375" lon="2.217408008873462677001953125">
        <ele>72.40000152587890625</ele>
        <time>2022-05-15T08:37:39.000Z</time>
      </trkpt>
      <trkpt lat="41.51605012826621532440185546875" lon="2.2170977108180522918701171875">
        <ele>72.1999969482421875</ele>
        <time>2022-05-15T08:37:45.000Z</time>
      </trkpt>
      <trkpt lat="41.51597267948091030120849609375" lon="2.21702621318399906158447265625">
        <ele>71.8000030517578125</ele>
        <time>2022-05-15T08:37:46.000Z</time>
      </trkpt>
      <trkpt lat="41.515900678932666778564453125" lon="2.21694298088550567626953125">
        <ele>72</ele>
        <time>2022-05-15T08:37:47.000Z</time>
      </trkpt>
      <trkpt lat="41.5157794766128063201904296875" lon="2.2167450003325939178466796875">
        <ele>71.59999847412109375</ele>
        <time>2022-05-15T08:37:49.000Z</time>
      </trkpt>
      <trkpt lat="41.51562415994703769683837890625" lon="2.21641056239604949951171875">
        <ele>71.1999969482421875</ele>
        <time>2022-05-15T08:37:52.000Z</time>
      </trkpt>
      <trkpt lat="41.51531788520514965057373046875" lon="2.2157328017055988311767578125">
        <ele>70.40000152587890625</ele>
        <time>2022-05-15T08:37:58.000Z</time>
      </trkpt>
      <trkpt lat="41.515216715633869171142578125" lon="2.215511687099933624267578125">
        <ele>70</ele>
        <time>2022-05-15T08:38:00.000Z</time>
      </trkpt>
      <trkpt lat="41.51516516692936420440673828125" lon="2.2153988666832447052001953125">
        <ele>69.8000030517578125</ele>
        <time>2022-05-15T08:38:01.000Z</time>
      </trkpt>
      <trkpt lat="41.51489862240850925445556640625" lon="2.21483384259045124053955078125">
        <ele>69.40000152587890625</ele>
        <time>2022-05-15T08:38:06.000Z</time>
      </trkpt>
      <trkpt lat="41.514845900237560272216796875" lon="2.214720435440540313720703125">
        <ele>69.40000152587890625</ele>
        <time>2022-05-15T08:38:07.000Z</time>
      </trkpt>
      <trkpt lat="41.51473852805793285369873046875" lon="2.21449554897844791412353515625">
        <ele>68.8000030517578125</ele>
        <time>2022-05-15T08:38:09.000Z</time>
      </trkpt>
      <trkpt lat="41.51440559886395931243896484375" lon="2.213842682540416717529296875">
        <ele>68</ele>
        <time>2022-05-15T08:38:15.000Z</time>
      </trkpt>
      <trkpt lat="41.5142050199210643768310546875" lon="2.21356742084026336669921875">
        <ele>68</ele>
        <time>2022-05-15T08:38:18.000Z</time>
      </trkpt>
      <trkpt lat="41.5140581689774990081787109375" lon="2.213404476642608642578125">
        <ele>67.8000030517578125</ele>
        <time>2022-05-15T08:38:20.000Z</time>
      </trkpt>
      <trkpt lat="41.51359875686466693878173828125" lon="2.21298831515014171600341796875">
        <ele>67.59999847412109375</ele>
        <time>2022-05-15T08:38:26.000Z</time>
      </trkpt>
      <trkpt lat="41.51352055370807647705078125" lon="2.2129235230386257171630859375">
        <ele>67.59999847412109375</ele>
        <time>2022-05-15T08:38:27.000Z</time>
      </trkpt>
      <trkpt lat="41.5130613930523395538330078125" lon="2.2125403024256229400634765625">
        <ele>67</ele>
        <time>2022-05-15T08:38:33.000Z</time>
      </trkpt>
      <trkpt lat="41.512662582099437713623046875" lon="2.2120668925344944000244140625">
        <ele>66.40000152587890625</ele>
        <time>2022-05-15T08:38:39.000Z</time>
      </trkpt>
      <trkpt lat="41.5125373564660549163818359375" lon="2.2119113244116306304931640625">
        <ele>66.40000152587890625</ele>
        <time>2022-05-15T08:38:41.000Z</time>
      </trkpt>
      <trkpt lat="41.51216561906039714813232421875" lon="2.2114231623709201812744140625">
        <ele>66</ele>
        <time>2022-05-15T08:38:47.000Z</time>
      </trkpt>
      <trkpt lat="41.511839143931865692138671875" lon="2.2110144607722759246826171875">
        <ele>66.1999969482421875</ele>
        <time>2022-05-15T08:38:52.000Z</time>
      </trkpt>
      <trkpt lat="41.511693634092807769775390625" lon="2.21087221987545490264892578125">
        <ele>66.1999969482421875</ele>
        <time>2022-05-15T08:38:54.000Z</time>
      </trkpt>
      <trkpt lat="41.511613838374614715576171875" lon="2.21081455238163471221923828125">
        <ele>66.1999969482421875</ele>
        <time>2022-05-15T08:38:55.000Z</time>
      </trkpt>
      <trkpt lat="41.51135391555726528167724609375" lon="2.2107073478400707244873046875">
        <ele>66</ele>
        <time>2022-05-15T08:38:58.000Z</time>
      </trkpt>
      <trkpt lat="41.51079970411956310272216796875" lon="2.21058488823473453521728515625">
        <ele>66</ele>
        <time>2022-05-15T08:39:04.000Z</time>
      </trkpt>
      <trkpt lat="41.510612703859806060791015625" lon="2.21054255962371826171875">
        <ele>66</ele>
        <time>2022-05-15T08:39:06.000Z</time>
      </trkpt>
      <trkpt lat="41.51051958091557025909423828125" lon="2.2105195932090282440185546875">
        <ele>66.1999969482421875</ele>
        <time>2022-05-15T08:39:07.000Z</time>
      </trkpt>
      <trkpt lat="41.51042704470455646514892578125" lon="2.21049285493791103363037109375">
        <ele>66.1999969482421875</ele>
        <time>2022-05-15T08:39:08.000Z</time>
      </trkpt>
      <trkpt lat="41.51033484376966953277587890625" lon="2.2104632668197154998779296875">
        <ele>66</ele>
        <time>2022-05-15T08:39:09.000Z</time>
      </trkpt>
      <trkpt lat="41.5099714882671833038330078125" lon="2.2103293240070343017578125">
        <ele>65.8000030517578125</ele>
        <time>2022-05-15T08:39:13.000Z</time>
      </trkpt>
      <trkpt lat="41.5096311829984188079833984375" lon="2.2101172618567943572998046875">
        <ele>65.8000030517578125</ele>
        <time>2022-05-15T08:39:17.000Z</time>
      </trkpt>
      <trkpt lat="41.5095510520040988922119140625" lon="2.21005280502140522003173828125">
        <ele>65.59999847412109375</ele>
        <time>2022-05-15T08:39:18.000Z</time>
      </trkpt>
      <trkpt lat="41.509235389530658721923828125" lon="2.20977905206382274627685546875">
        <ele>65.40000152587890625</ele>
        <time>2022-05-15T08:39:22.000Z</time>
      </trkpt>
      <trkpt lat="41.50876407511532306671142578125" lon="2.20934721641242504119873046875">
        <ele>65</ele>
        <time>2022-05-15T08:39:28.000Z</time>
      </trkpt>
      <trkpt lat="41.5083702094852924346923828125" lon="2.2089803405106067657470703125">
        <ele>64.1999969482421875</ele>
        <time>2022-05-15T08:39:33.000Z</time>
      </trkpt>
      <trkpt lat="41.50815504603087902069091796875" lon="2.20872712321579456329345703125">
        <ele>64</ele>
        <time>2022-05-15T08:39:36.000Z</time>
      </trkpt>
      <trkpt lat="41.507713906466960906982421875" lon="2.20822513103485107421875">
        <ele>63.799999237060546875</ele>
        <time>2022-05-15T08:39:42.000Z</time>
      </trkpt>
      <trkpt lat="41.50763017125427722930908203125" lon="2.20815899781882762908935546875">
        <ele>63.799999237060546875</ele>
        <time>2022-05-15T08:39:43.000Z</time>
      </trkpt>
      <trkpt lat="41.5072513930499553680419921875" lon="2.2079837322235107421875">
        <ele>63.799999237060546875</ele>
        <time>2022-05-15T08:39:47.000Z</time>
      </trkpt>
      <trkpt lat="41.5071523189544677734375" lon="2.20794877968728542327880859375">
        <ele>63.59999847412109375</ele>
        <time>2022-05-15T08:39:48.000Z</time>
      </trkpt>
      <trkpt lat="41.50705282576382160186767578125" lon="2.20791466534137725830078125">
        <ele>63.59999847412109375</ele>
        <time>2022-05-15T08:39:49.000Z</time>
      </trkpt>
      <trkpt lat="41.50646726600825786590576171875" lon="2.2076677344739437103271484375">
        <ele>63.40000152587890625</ele>
        <time>2022-05-15T08:39:55.000Z</time>
      </trkpt>
      <trkpt lat="41.5059367753565311431884765625" lon="2.20731192268431186676025390625">
        <ele>62.59999847412109375</ele>
        <time>2022-05-15T08:40:01.000Z</time>
      </trkpt>
      <trkpt lat="41.5057627670466899871826171875" lon="2.207188121974468231201171875">
        <ele>62.40000152587890625</ele>
        <time>2022-05-15T08:40:03.000Z</time>
      </trkpt>
      <trkpt lat="41.50559999048709869384765625" lon="2.20703867264091968536376953125">
        <ele>62.59999847412109375</ele>
        <time>2022-05-15T08:40:05.000Z</time>
      </trkpt>
      <trkpt lat="41.50552715174853801727294921875" lon="2.20694982446730136871337890625">
        <ele>62.40000152587890625</ele>
        <time>2022-05-15T08:40:06.000Z</time>
      </trkpt>
      <trkpt lat="41.50546344928443431854248046875" lon="2.20685192383825778961181640625">
        <ele>62.40000152587890625</ele>
        <time>2022-05-15T08:40:07.000Z</time>
      </trkpt>
      <trkpt lat="41.5053597651422023773193359375" lon="2.206634245812892913818359375">
        <ele>62.40000152587890625</ele>
        <time>2022-05-15T08:40:09.000Z</time>
      </trkpt>
      <trkpt lat="41.50514937937259674072265625" lon="2.20621422864496707916259765625">
        <ele>62.40000152587890625</ele>
        <time>2022-05-15T08:40:13.000Z</time>
      </trkpt>
      <trkpt lat="41.5050241537392139434814453125" lon="2.20601943321526050567626953125">
        <ele>62.40000152587890625</ele>
        <time>2022-05-15T08:40:15.000Z</time>
      </trkpt>
      <trkpt lat="41.50459173135459423065185546875" lon="2.205505035817623138427734375">
        <ele>62.200000762939453125</ele>
        <time>2022-05-15T08:40:21.000Z</time>
      </trkpt>
      <trkpt lat="41.50415168143808841705322265625" lon="2.20522868447005748748779296875">
        <ele>61.59999847412109375</ele>
        <time>2022-05-15T08:40:26.000Z</time>
      </trkpt>
      <trkpt lat="41.50369788520038127899169921875" lon="2.20505006611347198486328125">
        <ele>61.40000152587890625</ele>
        <time>2022-05-15T08:40:31.000Z</time>
      </trkpt>
      <trkpt lat="41.5034584142267704010009765625" lon="2.2048416920006275177001953125">
        <ele>61</ele>
        <time>2022-05-15T08:40:34.000Z</time>
      </trkpt>
      <trkpt lat="41.50318440981209278106689453125" lon="2.2047344036400318145751953125">
        <ele>61.200000762939453125</ele>
        <time>2022-05-15T08:40:37.000Z</time>
      </trkpt>
      <trkpt lat="41.5030966512858867645263671875" lon="2.2046859562397003173828125">
        <ele>61.200000762939453125</ele>
        <time>2022-05-15T08:40:38.000Z</time>
      </trkpt>
      <trkpt lat="41.502836309373378753662109375" lon="2.20452091656625270843505859375">
        <ele>61.200000762939453125</ele>
        <time>2022-05-15T08:40:41.000Z</time>
      </trkpt>
      <trkpt lat="41.50228679180145263671875" lon="2.2042408771812915802001953125">
        <ele>61</ele>
        <time>2022-05-15T08:40:47.000Z</time>
      </trkpt>
      <trkpt lat="41.50172595866024494171142578125" lon="2.20395714975893497467041015625">
        <ele>60.59999847412109375</ele>
        <time>2022-05-15T08:40:53.000Z</time>
      </trkpt>
      <trkpt lat="41.50154155679047107696533203125" lon="2.20386276952922344207763671875">
        <ele>60.40000152587890625</ele>
        <time>2022-05-15T08:40:55.000Z</time>
      </trkpt>
      <trkpt lat="41.50145119987428188323974609375" lon="2.2038130648434162139892578125">
        <ele>60.200000762939453125</ele>
        <time>2022-05-15T08:40:56.000Z</time>
      </trkpt>
      <trkpt lat="41.5011171810328960418701171875" lon="2.20353721641004085540771484375">
        <ele>60.40000152587890625</ele>
        <time>2022-05-15T08:41:00.000Z</time>
      </trkpt>
      <trkpt lat="41.50087351910769939422607421875" lon="2.2031314484775066375732421875">
        <ele>60.200000762939453125</ele>
        <time>2022-05-15T08:41:04.000Z</time>
      </trkpt>
      <trkpt lat="41.5006578527390956878662109375" lon="2.20252233557403087615966796875">
        <ele>59.799999237060546875</ele>
        <time>2022-05-15T08:41:09.000Z</time>
      </trkpt>
      <trkpt lat="41.5006171166896820068359375" lon="2.20239710994064807891845703125">
        <ele>59.59999847412109375</ele>
        <time>2022-05-15T08:41:10.000Z</time>
      </trkpt>
      <trkpt lat="41.50036792270839214324951171875" lon="2.2016495279967784881591796875">
        <ele>59</ele>
        <time>2022-05-15T08:41:16.000Z</time>
      </trkpt>
      <trkpt lat="41.50028930045664310455322265625" lon="2.20139781944453716278076171875">
        <ele>58.799999237060546875</ele>
        <time>2022-05-15T08:41:18.000Z</time>
      </trkpt>
      <trkpt lat="41.50006030686199665069580078125" lon="2.20062576234340667724609375">
        <ele>58.799999237060546875</ele>
        <time>2022-05-15T08:41:24.000Z</time>
      </trkpt>
      <trkpt lat="41.4999832771718502044677734375" lon="2.20036785118281841278076171875">
        <ele>58.59999847412109375</ele>
        <time>2022-05-15T08:41:26.000Z</time>
      </trkpt>
      <trkpt lat="41.499688066542148590087890625" lon="2.19962186180055141448974609375">
        <ele>58.59999847412109375</ele>
        <time>2022-05-15T08:41:32.000Z</time>
      </trkpt>
      <trkpt lat="41.49940065108239650726318359375" lon="2.19921181909739971160888671875">
        <ele>58.59999847412109375</ele>
        <time>2022-05-15T08:41:36.000Z</time>
      </trkpt>
      <trkpt lat="41.499050371348857879638671875" lon="2.19891258515417575836181640625">
        <ele>58.40000152587890625</ele>
        <time>2022-05-15T08:41:40.000Z</time>
      </trkpt>
      <trkpt lat="41.4987608604133129119873046875" lon="2.198778055608272552490234375">
        <ele>58.200000762939453125</ele>
        <time>2022-05-15T08:41:43.000Z</time>
      </trkpt>
      <trkpt lat="41.49866136722266674041748046875" lon="2.19875433482229709625244140625">
        <ele>58.200000762939453125</ele>
        <time>2022-05-15T08:41:44.000Z</time>
      </trkpt>
      <trkpt lat="41.4984577707946300506591796875" lon="2.198745198547840118408203125">
        <ele>58.200000762939453125</ele>
        <time>2022-05-15T08:41:46.000Z</time>
      </trkpt>
      <trkpt lat="41.49835534393787384033203125" lon="2.19876590184867382049560546875">
        <ele>58</ele>
        <time>2022-05-15T08:41:47.000Z</time>
      </trkpt>
      <trkpt lat="41.4982542581856250762939453125" lon="2.19880110584199428558349609375">
        <ele>58</ele>
        <time>2022-05-15T08:41:48.000Z</time>
      </trkpt>
      <trkpt lat="41.49784865789115428924560546875" lon="2.1989535726606845855712890625">
        <ele>57.799999237060546875</ele>
        <time>2022-05-15T08:41:52.000Z</time>
      </trkpt>
      <trkpt lat="41.4974351786077022552490234375" lon="2.1989347971975803375244140625">
        <ele>57.59999847412109375</ele>
        <time>2022-05-15T08:41:56.000Z</time>
      </trkpt>
      <trkpt lat="41.49702672846615314483642578125" lon="2.1989391557872295379638671875">
        <ele>57.59999847412109375</ele>
        <time>2022-05-15T08:42:00.000Z</time>
      </trkpt>
      <trkpt lat="41.49643345735967159271240234375" lon="2.19910033978521823883056640625">
        <ele>57.40000152587890625</ele>
        <time>2022-05-15T08:42:06.000Z</time>
      </trkpt>
      <trkpt lat="41.49633555673062801361083984375" lon="2.19911358319222927093505859375">
        <ele>57.200000762939453125</ele>
        <time>2022-05-15T08:42:07.000Z</time>
      </trkpt>
      <trkpt lat="41.4961431920528411865234375" lon="2.19907619990408420562744140625">
        <ele>57.40000152587890625</ele>
        <time>2022-05-15T08:42:09.000Z</time>
      </trkpt>
      <trkpt lat="41.4959686808288097381591796875" lon="2.19896170310676097869873046875">
        <ele>57.200000762939453125</ele>
        <time>2022-05-15T08:42:11.000Z</time>
      </trkpt>
      <trkpt lat="41.49589240550994873046875" lon="2.198882661759853363037109375">
        <ele>57.200000762939453125</ele>
        <time>2022-05-15T08:42:12.000Z</time>
      </trkpt>
      <trkpt lat="41.49554279632866382598876953125" lon="2.19843246974050998687744140625">
        <ele>57</ele>
        <time>2022-05-15T08:42:17.000Z</time>
      </trkpt>
      <trkpt lat="41.4952562190592288970947265625" lon="2.1980617381632328033447265625">
        <ele>57</ele>
        <time>2022-05-15T08:42:21.000Z</time>
      </trkpt>
      <trkpt lat="41.49496410973370075225830078125" lon="2.19768664799630641937255859375">
        <ele>57</ele>
        <time>2022-05-15T08:42:25.000Z</time>
      </trkpt>
      <trkpt lat="41.494892276823520660400390625" lon="2.19759411178529262542724609375">
        <ele>56.799999237060546875</ele>
        <time>2022-05-15T08:42:26.000Z</time>
      </trkpt>
      <trkpt lat="41.4947486110031604766845703125" lon="2.19741046428680419921875">
        <ele>56.799999237060546875</ele>
        <time>2022-05-15T08:42:28.000Z</time>
      </trkpt>
      <trkpt lat="41.49430311284959316253662109375" lon="2.19688198529183864593505859375">
        <ele>56.40000152587890625</ele>
        <time>2022-05-15T08:42:34.000Z</time>
      </trkpt>
      <trkpt lat="41.4940418489277362823486328125" lon="2.1966716833412647247314453125">
        <ele>56.40000152587890625</ele>
        <time>2022-05-15T08:42:37.000Z</time>
      </trkpt>
      <trkpt lat="41.49367631413042545318603515625" lon="2.19643053598701953887939453125">
        <ele>56</ele>
        <time>2022-05-15T08:42:41.000Z</time>
      </trkpt>
      <trkpt lat="41.4932894892990589141845703125" lon="2.19624026678502559661865234375">
        <ele>56</ele>
        <time>2022-05-15T08:42:45.000Z</time>
      </trkpt>
      <trkpt lat="41.49319611489772796630859375" lon="2.1961758099496364593505859375">
        <ele>55.799999237060546875</ele>
        <time>2022-05-15T08:42:46.000Z</time>
      </trkpt>
      <trkpt lat="41.493107937276363372802734375" lon="2.1960993669927120208740234375">
        <ele>55.799999237060546875</ele>
        <time>2022-05-15T08:42:47.000Z</time>
      </trkpt>
      <trkpt lat="41.49295270442962646484375" lon="2.195914126932621002197265625">
        <ele>55.59999847412109375</ele>
        <time>2022-05-15T08:42:49.000Z</time>
      </trkpt>
      <trkpt lat="41.49252464063465595245361328125" lon="2.1953295730054378509521484375">
        <ele>55.59999847412109375</ele>
        <time>2022-05-15T08:42:55.000Z</time>
      </trkpt>
      <trkpt lat="41.49244844913482666015625" lon="2.19524013809859752655029296875">
        <ele>55.59999847412109375</ele>
        <time>2022-05-15T08:42:56.000Z</time>
      </trkpt>
      <trkpt lat="41.49202239699661731719970703125" lon="2.1948749385774135589599609375">
        <ele>55.200000762939453125</ele>
        <time>2022-05-15T08:43:01.000Z</time>
      </trkpt>
      <trkpt lat="41.49154144339263439178466796875" lon="2.194478809833526611328125">
        <ele>55.200000762939453125</ele>
        <time>2022-05-15T08:43:07.000Z</time>
      </trkpt>
      <trkpt lat="41.49131932295858860015869140625" lon="2.194324247539043426513671875">
        <ele>55</ele>
        <time>2022-05-15T08:43:10.000Z</time>
      </trkpt>
      <trkpt lat="41.49116962216794490814208984375" lon="2.194240093231201171875">
        <ele>55</ele>
        <time>2022-05-15T08:43:12.000Z</time>
      </trkpt>
      <trkpt lat="41.4906384609639644622802734375" lon="2.1940173022449016571044921875">
        <ele>54.799999237060546875</ele>
        <time>2022-05-15T08:43:19.000Z</time>
      </trkpt>
      <trkpt lat="41.49020008742809295654296875" lon="2.19393105246126651763916015625">
        <ele>54</ele>
        <time>2022-05-15T08:43:25.000Z</time>
      </trkpt>
      <trkpt lat="41.48977437056601047515869140625" lon="2.19386902637779712677001953125">
        <ele>53.799999237060546875</ele>
        <time>2022-05-15T08:43:31.000Z</time>
      </trkpt>
      <trkpt lat="41.48970278911292552947998046875" lon="2.1938556991517543792724609375">
        <ele>53.59999847412109375</ele>
        <time>2022-05-15T08:43:32.000Z</time>
      </trkpt>
      <trkpt lat="41.48955778218805789947509765625" lon="2.19383097253739833831787109375">
        <ele>53.59999847412109375</ele>
        <time>2022-05-15T08:43:34.000Z</time>
      </trkpt>
      <trkpt lat="41.48948519490659236907958984375" lon="2.19382024370133876800537109375">
        <ele>53.799999237060546875</ele>
        <time>2022-05-15T08:43:35.000Z</time>
      </trkpt>
      <trkpt lat="41.48905344307422637939453125" lon="2.1937651745975017547607421875">
        <ele>53.59999847412109375</ele>
        <time>2022-05-15T08:43:41.000Z</time>
      </trkpt>
      <trkpt lat="41.48898362182080745697021484375" lon="2.19377816654741764068603515625">
        <ele>53.59999847412109375</ele>
        <time>2022-05-15T08:43:42.000Z</time>
      </trkpt>
      <trkpt lat="41.48891396820545196533203125" lon="2.1938017196953296661376953125">
        <ele>53.59999847412109375</ele>
        <time>2022-05-15T08:43:43.000Z</time>
      </trkpt>
      <trkpt lat="41.488623954355716705322265625" lon="2.193887718021869659423828125">
        <ele>53.59999847412109375</ele>
        <time>2022-05-15T08:43:47.000Z</time>
      </trkpt>
      <trkpt lat="41.48854809813201427459716796875" lon="2.1938981115818023681640625">
        <ele>53.59999847412109375</ele>
        <time>2022-05-15T08:43:48.000Z</time>
      </trkpt>
      <trkpt lat="41.48847215808928012847900390625" lon="2.1939049847424030303955078125">
        <ele>53.59999847412109375</ele>
        <time>2022-05-15T08:43:49.000Z</time>
      </trkpt>
      <trkpt lat="41.48839605040848255157470703125" lon="2.19390548765659332275390625">
        <ele>53.59999847412109375</ele>
        <time>2022-05-15T08:43:50.000Z</time>
      </trkpt>
      <trkpt lat="41.48824601434171199798583984375" lon="2.193885706365108489990234375">
        <ele>53.59999847412109375</ele>
        <time>2022-05-15T08:43:52.000Z</time>
      </trkpt>
      <trkpt lat="41.48817141540348529815673828125" lon="2.1938704513013362884521484375">
        <ele>53.59999847412109375</ele>
        <time>2022-05-15T08:43:53.000Z</time>
      </trkpt>
      <trkpt lat="41.48809681646525859832763671875" lon="2.193853519856929779052734375">
        <ele>53.59999847412109375</ele>
        <time>2022-05-15T08:43:54.000Z</time>
      </trkpt>
      <trkpt lat="41.487709991633892059326171875" lon="2.19373122788965702056884765625">
        <ele>53.40000152587890625</ele>
        <time>2022-05-15T08:43:59.000Z</time>
      </trkpt>
      <trkpt lat="41.4871629886329174041748046875" lon="2.19356040470302104949951171875">
        <ele>53.40000152587890625</ele>
        <time>2022-05-15T08:44:06.000Z</time>
      </trkpt>
      <trkpt lat="41.48693047463893890380859375" lon="2.19349200837314128875732421875">
        <ele>53.40000152587890625</ele>
        <time>2022-05-15T08:44:09.000Z</time>
      </trkpt>
      <trkpt lat="41.4867774210870265960693359375" lon="2.1934443153440952301025390625">
        <ele>53.40000152587890625</ele>
        <time>2022-05-15T08:44:11.000Z</time>
      </trkpt>
      <trkpt lat="41.48632387630641460418701171875" lon="2.19324273057281970977783203125">
        <ele>53.200000762939453125</ele>
        <time>2022-05-15T08:44:17.000Z</time>
      </trkpt>
      <trkpt lat="41.48581090383231639862060546875" lon="2.192927487194538116455078125">
        <ele>52.799999237060546875</ele>
        <time>2022-05-15T08:44:24.000Z</time>
      </trkpt>
      <trkpt lat="41.4852673374116420745849609375" lon="2.19274518080055713653564453125">
        <ele>52.59999847412109375</ele>
        <time>2022-05-15T08:44:31.000Z</time>
      </trkpt>
      <trkpt lat="41.4851878769695758819580078125" lon="2.1927234716713428497314453125">
        <ele>52.799999237060546875</ele>
        <time>2022-05-15T08:44:32.000Z</time>
      </trkpt>
      <trkpt lat="41.4846222661435604095458984375" lon="2.19261123798787593841552734375">
        <ele>52.59999847412109375</ele>
        <time>2022-05-15T08:44:39.000Z</time>
      </trkpt>
      <trkpt lat="41.48454003967344760894775390625" lon="2.19261006452143192291259765625">
        <ele>52.59999847412109375</ele>
        <time>2022-05-15T08:44:40.000Z</time>
      </trkpt>
      <trkpt lat="41.48445747792720794677734375" lon="2.19261308200657367706298828125">
        <ele>52.40000152587890625</ele>
        <time>2022-05-15T08:44:41.000Z</time>
      </trkpt>
      <trkpt lat="41.4838896878063678741455078125" lon="2.1926329471170902252197265625">
        <ele>52.200000762939453125</ele>
        <time>2022-05-15T08:44:48.000Z</time>
      </trkpt>
      <trkpt lat="41.48372733034193515777587890625" lon="2.19263185746967792510986328125">
        <ele>52</ele>
        <time>2022-05-15T08:44:50.000Z</time>
      </trkpt>
      <trkpt lat="41.4833193831145763397216796875" lon="2.19260235317051410675048828125">
        <ele>51.799999237060546875</ele>
        <time>2022-05-15T08:44:55.000Z</time>
      </trkpt>
      <trkpt lat="41.4830806665122509002685546875" lon="2.19256480224430561065673828125">
        <ele>51.799999237060546875</ele>
        <time>2022-05-15T08:44:58.000Z</time>
      </trkpt>
      <trkpt lat="41.48293037898838520050048828125" lon="2.1925196237862110137939453125">
        <ele>51.799999237060546875</ele>
        <time>2022-05-15T08:45:00.000Z</time>
      </trkpt>
      <trkpt lat="41.4827903173863887786865234375" lon="2.1924336254596710205078125">
        <ele>51.799999237060546875</ele>
        <time>2022-05-15T08:45:02.000Z</time>
      </trkpt>
      <trkpt lat="41.4827162213623523712158203125" lon="2.19239699654281139373779296875">
        <ele>51.799999237060546875</ele>
        <time>2022-05-15T08:45:03.000Z</time>
      </trkpt>
      <trkpt lat="41.48255847394466400146484375" lon="2.192376963794231414794921875">
        <ele>51.59999847412109375</ele>
        <time>2022-05-15T08:45:05.000Z</time>
      </trkpt>
      <trkpt lat="41.48208900354802608489990234375" lon="2.192305214703083038330078125">
        <ele>51.59999847412109375</ele>
        <time>2022-05-15T08:45:11.000Z</time>
      </trkpt>
      <trkpt lat="41.4815434254705905914306640625" lon="2.19222231768071651458740234375">
        <ele>51.799999237060546875</ele>
        <time>2022-05-15T08:45:18.000Z</time>
      </trkpt>
      <trkpt lat="41.481464803218841552734375" lon="2.19221896491944789886474609375">
        <ele>51.799999237060546875</ele>
        <time>2022-05-15T08:45:19.000Z</time>
      </trkpt>
      <trkpt lat="41.4809109270572662353515625" lon="2.19222013838589191436767578125">
        <ele>51.59999847412109375</ele>
        <time>2022-05-15T08:45:26.000Z</time>
      </trkpt>
      <trkpt lat="41.4806748926639556884765625" lon="2.19223053194582462310791015625">
        <ele>51.799999237060546875</ele>
        <time>2022-05-15T08:45:29.000Z</time>
      </trkpt>
      <trkpt lat="41.4801255427300930023193359375" lon="2.192250229418277740478515625">
        <ele>51.59999847412109375</ele>
        <time>2022-05-15T08:45:36.000Z</time>
      </trkpt>
      <trkpt lat="41.47996880114078521728515625" lon="2.19225685112178325653076171875">
        <ele>51.40000152587890625</ele>
        <time>2022-05-15T08:45:38.000Z</time>
      </trkpt>
      <trkpt lat="41.4795830659568309783935546875" lon="2.19227093271911144256591796875">
        <ele>51.40000152587890625</ele>
        <time>2022-05-15T08:45:43.000Z</time>
      </trkpt>
      <trkpt lat="41.4794338680803775787353515625" lon="2.1922745369374752044677734375">
        <ele>51.40000152587890625</ele>
        <time>2022-05-15T08:45:45.000Z</time>
      </trkpt>
      <trkpt lat="41.4793684892356395721435546875" lon="2.19225266017019748687744140625">
        <ele>51.200000762939453125</ele>
        <time>2022-05-15T08:45:46.000Z</time>
      </trkpt>
      <trkpt lat="41.4792306907474994659423828125" lon="2.19219314865767955780029296875">
        <ele>51.200000762939453125</ele>
        <time>2022-05-15T08:45:48.000Z</time>
      </trkpt>
      <trkpt lat="41.4791569299995899200439453125" lon="2.19219381920993328094482421875">
        <ele>51.200000762939453125</ele>
        <time>2022-05-15T08:45:49.000Z</time>
      </trkpt>
      <trkpt lat="41.47908409126102924346923828125" lon="2.19222097657620906829833984375">
        <ele>51.200000762939453125</ele>
        <time>2022-05-15T08:45:50.000Z</time>
      </trkpt>
      <trkpt lat="41.47894822061061859130859375" lon="2.1923073939979076385498046875">
        <ele>51</ele>
        <time>2022-05-15T08:45:52.000Z</time>
      </trkpt>
      <trkpt lat="41.478537507355213165283203125" lon="2.19259799458086490631103515625">
        <ele>50.59999847412109375</ele>
        <time>2022-05-15T08:45:58.000Z</time>
      </trkpt>
      <trkpt lat="41.47815805859863758087158203125" lon="2.192950956523418426513671875">
        <ele>50.59999847412109375</ele>
        <time>2022-05-15T08:46:04.000Z</time>
      </trkpt>
      <trkpt lat="41.4781051687896251678466796875" lon="2.19302915968000888824462890625">
        <ele>50.799999237060546875</ele>
        <time>2022-05-15T08:46:05.000Z</time>
      </trkpt>
      <trkpt lat="41.4779770933091640472412109375" lon="2.19329335726797580718994140625">
        <ele>50.799999237060546875</ele>
        <time>2022-05-15T08:46:08.000Z</time>
      </trkpt>
      <trkpt lat="41.4778290688991546630859375" lon="2.19366408884525299072265625">
        <ele>50.799999237060546875</ele>
        <time>2022-05-15T08:46:12.000Z</time>
      </trkpt>
      <trkpt lat="41.47779109887778759002685546875" lon="2.193753607571125030517578125">
        <ele>50.59999847412109375</ele>
        <time>2022-05-15T08:46:13.000Z</time>
      </trkpt>
      <trkpt lat="41.47771365009248256683349609375" lon="2.1939224191009998321533203125">
        <ele>50.799999237060546875</ele>
        <time>2022-05-15T08:46:15.000Z</time>
      </trkpt>
      <trkpt lat="41.4776300825178623199462890625" lon="2.1940724551677703857421875">
        <ele>51.200000762939453125</ele>
        <time>2022-05-15T08:46:17.000Z</time>
      </trkpt>
      <trkpt lat="41.47740452550351619720458984375" lon="2.1944032050669193267822265625">
        <ele>51.40000152587890625</ele>
        <time>2022-05-15T08:46:22.000Z</time>
      </trkpt>
      <trkpt lat="41.4773554913699626922607421875" lon="2.19446028582751750946044921875">
        <ele>51.799999237060546875</ele>
        <time>2022-05-15T08:46:23.000Z</time>
      </trkpt>
      <trkpt lat="41.4773015119135379791259765625" lon="2.1945094875991344451904296875">
        <ele>51.799999237060546875</ele>
        <time>2022-05-15T08:46:24.000Z</time>
      </trkpt>
      <trkpt lat="41.4772431738674640655517578125" lon="2.194548547267913818359375">
        <ele>52</ele>
        <time>2022-05-15T08:46:25.000Z</time>
      </trkpt>
      <trkpt lat="41.47712188772857189178466796875" lon="2.19459506683051586151123046875">
        <ele>52</ele>
        <time>2022-05-15T08:46:27.000Z</time>
      </trkpt>
      <trkpt lat="41.477058939635753631591796875" lon="2.19460059888660907745361328125">
        <ele>52</ele>
        <time>2022-05-15T08:46:28.000Z</time>
      </trkpt>
      <trkpt lat="41.47699414752423763275146484375" lon="2.1945973299443721771240234375">
        <ele>52.200000762939453125</ele>
        <time>2022-05-15T08:46:29.000Z</time>
      </trkpt>
      <trkpt lat="41.47664780728518962860107421875" lon="2.19455013982951641082763671875">
        <ele>53.40000152587890625</ele>
        <time>2022-05-15T08:46:34.000Z</time>
      </trkpt>
      <trkpt lat="41.4762304723262786865234375" lon="2.1944799832999706268310546875">
        <ele>54.59999847412109375</ele>
        <time>2022-05-15T08:46:40.000Z</time>
      </trkpt>
      <trkpt lat="41.47616417147219181060791015625" lon="2.1944699250161647796630859375">
        <ele>54.59999847412109375</ele>
        <time>2022-05-15T08:46:41.000Z</time>
      </trkpt>
      <trkpt lat="41.4758336730301380157470703125" lon="2.19440781511366367340087890625">
        <ele>54.799999237060546875</ele>
        <time>2022-05-15T08:46:46.000Z</time>
      </trkpt>
      <trkpt lat="41.475708782672882080078125" lon="2.1943562664091587066650390625">
        <ele>55</ele>
        <time>2022-05-15T08:46:48.000Z</time>
      </trkpt>
      <trkpt lat="41.47554223425686359405517578125" lon="2.194225676357746124267578125">
        <ele>55.799999237060546875</ele>
        <time>2022-05-15T08:46:51.000Z</time>
      </trkpt>
      <trkpt lat="41.47549395449459552764892578125" lon="2.194172702729701995849609375">
        <ele>56</ele>
        <time>2022-05-15T08:46:52.000Z</time>
      </trkpt>
      <trkpt lat="41.47545020096004009246826171875" lon="2.19411478377878665924072265625">
        <ele>56</ele>
        <time>2022-05-15T08:46:53.000Z</time>
      </trkpt>
      <trkpt lat="41.4753434993326663970947265625" lon="2.19390758313238620758056640625">
        <ele>56.59999847412109375</ele>
        <time>2022-05-15T08:46:56.000Z</time>
      </trkpt>
      <trkpt lat="41.475040577352046966552734375" lon="2.1932937763631343841552734375">
        <ele>58</ele>
        <time>2022-05-15T08:47:04.000Z</time>
      </trkpt>
      <trkpt lat="41.47472080774605274200439453125" lon="2.192882560193538665771484375">
        <ele>57.799999237060546875</ele>
        <time>2022-05-15T08:47:10.000Z</time>
      </trkpt>
      <trkpt lat="41.474662385880947113037109375" lon="2.1928207017481327056884765625">
        <ele>57.799999237060546875</ele>
        <time>2022-05-15T08:47:11.000Z</time>
      </trkpt>
      <trkpt lat="41.4746025390923023223876953125" lon="2.1927600167691707611083984375">
        <ele>57.799999237060546875</ele>
        <time>2022-05-15T08:47:12.000Z</time>
      </trkpt>
      <trkpt lat="41.4744758047163486480712890625" lon="2.1926443465054035186767578125">
        <ele>57.40000152587890625</ele>
        <time>2022-05-15T08:47:14.000Z</time>
      </trkpt>
      <trkpt lat="41.47434177808463573455810546875" lon="2.19253026880323886871337890625">
        <ele>57.40000152587890625</ele>
        <time>2022-05-15T08:47:16.000Z</time>
      </trkpt>
      <trkpt lat="41.47420196793973445892333984375" lon="2.19242063350975513458251953125">
        <ele>57.40000152587890625</ele>
        <time>2022-05-15T08:47:18.000Z</time>
      </trkpt>
      <trkpt lat="41.4739259518682956695556640625" lon="2.19220957718789577484130859375">
        <ele>57</ele>
        <time>2022-05-15T08:47:22.000Z</time>
      </trkpt>
      <trkpt lat="41.4736285619437694549560546875" lon="2.1920120157301425933837890625">
        <ele>56.200000762939453125</ele>
        <time>2022-05-15T08:47:26.000Z</time>
      </trkpt>
      <trkpt lat="41.473547928035259246826171875" lon="2.1919642388820648193359375">
        <ele>56.200000762939453125</ele>
        <time>2022-05-15T08:47:27.000Z</time>
      </trkpt>
      <trkpt lat="41.47313428111374378204345703125" lon="2.191710434854030609130859375">
        <ele>55.59999847412109375</ele>
        <time>2022-05-15T08:47:32.000Z</time>
      </trkpt>
      <trkpt lat="41.4729754440486431121826171875" lon="2.19159870408475399017333984375">
        <ele>55</ele>
        <time>2022-05-15T08:47:34.000Z</time>
      </trkpt>
      <trkpt lat="41.47290025837719440460205078125" lon="2.19153718091547489166259765625">
        <ele>54.799999237060546875</ele>
        <time>2022-05-15T08:47:35.000Z</time>
      </trkpt>
      <trkpt lat="41.47268467582762241363525390625" lon="2.19132511876523494720458984375">
        <ele>54</ele>
        <time>2022-05-15T08:47:38.000Z</time>
      </trkpt>
      <trkpt lat="41.47261208854615688323974609375" lon="2.1912495978176593780517578125">
        <ele>54</ele>
        <time>2022-05-15T08:47:39.000Z</time>
      </trkpt>
      <trkpt lat="41.4723920635879039764404296875" lon="2.19101934693753719329833984375">
        <ele>53.200000762939453125</ele>
        <time>2022-05-15T08:47:42.000Z</time>
      </trkpt>
      <trkpt lat="41.47200532257556915283203125" lon="2.190624810755252838134765625">
        <ele>52.200000762939453125</ele>
        <time>2022-05-15T08:47:47.000Z</time>
      </trkpt>
      <trkpt lat="41.47151774726808071136474609375" lon="2.19016690738499164581298828125">
        <ele>52</ele>
        <time>2022-05-15T08:47:53.000Z</time>
      </trkpt>
      <trkpt lat="41.471446417272090911865234375" lon="2.19007872976362705230712890625">
        <ele>52</ele>
        <time>2022-05-15T08:47:54.000Z</time>
      </trkpt>
      <trkpt lat="41.471308283507823944091796875" lon="2.1898954175412654876708984375">
        <ele>51.799999237060546875</ele>
        <time>2022-05-15T08:47:56.000Z</time>
      </trkpt>
      <trkpt lat="41.47106411866843700408935546875" lon="2.18952703289687633514404296875">
        <ele>51.40000152587890625</ele>
        <time>2022-05-15T08:48:00.000Z</time>
      </trkpt>
      <trkpt lat="41.47081576287746429443359375" lon="2.18908111564815044403076171875">
        <ele>50.59999847412109375</ele>
        <time>2022-05-15T08:48:05.000Z</time>
      </trkpt>
      <trkpt lat="41.4707626216113567352294921875" lon="2.18900240957736968994140625">
        <ele>50.200000762939453125</ele>
        <time>2022-05-15T08:48:06.000Z</time>
      </trkpt>
      <trkpt lat="41.47062406875193119049072265625" lon="2.188869304955005645751953125">
        <ele>49.799999237060546875</ele>
        <time>2022-05-15T08:48:08.000Z</time>
      </trkpt>
      <trkpt lat="41.470538489520549774169921875" lon="2.1888221986591815948486328125">
        <ele>49.799999237060546875</ele>
        <time>2022-05-15T08:48:09.000Z</time>
      </trkpt>
      <trkpt lat="41.47044402547180652618408203125" lon="2.18879847787320613861083984375">
        <ele>49.40000152587890625</ele>
        <time>2022-05-15T08:48:10.000Z</time>
      </trkpt>
      <trkpt lat="41.4702449552714824676513671875" lon="2.188823707401752471923828125">
        <ele>49.40000152587890625</ele>
        <time>2022-05-15T08:48:12.000Z</time>
      </trkpt>
      <trkpt lat="41.4697769097983837127685546875" lon="2.18902923166751861572265625">
        <ele>48.200000762939453125</ele>
        <time>2022-05-15T08:48:17.000Z</time>
      </trkpt>
      <trkpt lat="41.46923887543380260467529296875" lon="2.1891856379806995391845703125">
        <ele>46.200000762939453125</ele>
        <time>2022-05-15T08:48:23.000Z</time>
      </trkpt>
      <trkpt lat="41.4691519550979137420654296875" lon="2.189205922186374664306640625">
        <ele>46</ele>
        <time>2022-05-15T08:48:24.000Z</time>
      </trkpt>
      <trkpt lat="41.46881173364818096160888671875" lon="2.18929401598870754241943359375">
        <ele>44.59999847412109375</ele>
        <time>2022-05-15T08:48:28.000Z</time>
      </trkpt>
      <trkpt lat="41.46840604953467845916748046875" lon="2.18939124606549739837646484375">
        <ele>44.40000152587890625</ele>
        <time>2022-05-15T08:48:33.000Z</time>
      </trkpt>
      <trkpt lat="41.46816817112267017364501953125" lon="2.18944824300706386566162109375">
        <ele>44.200000762939453125</ele>
        <time>2022-05-15T08:48:36.000Z</time>
      </trkpt>
      <trkpt lat="41.46808736957609653472900390625" lon="2.18946986831724643707275390625">
        <ele>43.799999237060546875</ele>
        <time>2022-05-15T08:48:37.000Z</time>
      </trkpt>
      <trkpt lat="41.46800480782985687255859375" lon="2.18949191272258758544921875">
        <ele>43.799999237060546875</ele>
        <time>2022-05-15T08:48:38.000Z</time>
      </trkpt>
      <trkpt lat="41.46792006678879261016845703125" lon="2.1895145438611507415771484375">
        <ele>43.59999847412109375</ele>
        <time>2022-05-15T08:48:39.000Z</time>
      </trkpt>
      <trkpt lat="41.46774807013571262359619140625" lon="2.189556621015071868896484375">
        <ele>43.40000152587890625</ele>
        <time>2022-05-15T08:48:41.000Z</time>
      </trkpt>
      <trkpt lat="41.467246748507022857666015625" lon="2.18966357409954071044921875">
        <ele>43</ele>
        <time>2022-05-15T08:48:47.000Z</time>
      </trkpt>
      <trkpt lat="41.4670868217945098876953125" lon="2.18970942310988903045654296875">
        <ele>42.799999237060546875</ele>
        <time>2022-05-15T08:48:49.000Z</time>
      </trkpt>
      <trkpt lat="41.4666310139000415802001953125" lon="2.18983515165746212005615234375">
        <ele>42.59999847412109375</ele>
        <time>2022-05-15T08:48:55.000Z</time>
      </trkpt>
      <trkpt lat="41.46647016517817974090576171875" lon="2.18987354077398777008056640625">
        <ele>42.59999847412109375</ele>
        <time>2022-05-15T08:48:57.000Z</time>
      </trkpt>
      <trkpt lat="41.46597110666334629058837890625" lon="2.189991474151611328125">
        <ele>42.40000152587890625</ele>
        <time>2022-05-15T08:49:03.000Z</time>
      </trkpt>
      <trkpt lat="41.4658853597939014434814453125" lon="2.18999926932156085968017578125">
        <ele>42.40000152587890625</ele>
        <time>2022-05-15T08:49:04.000Z</time>
      </trkpt>
      <trkpt lat="41.46571177057921886444091796875" lon="2.1899789012968540191650390625">
        <ele>42.40000152587890625</ele>
        <time>2022-05-15T08:49:06.000Z</time>
      </trkpt>
      <trkpt lat="41.465629376471042633056640625" lon="2.1899457089602947235107421875">
        <ele>42.40000152587890625</ele>
        <time>2022-05-15T08:49:07.000Z</time>
      </trkpt>
      <trkpt lat="41.4653931744396686553955078125" lon="2.189814113080501556396484375">
        <ele>42.40000152587890625</ele>
        <time>2022-05-15T08:49:10.000Z</time>
      </trkpt>
      <trkpt lat="41.46524439565837383270263671875" lon="2.18974538147449493408203125">
        <ele>42.40000152587890625</ele>
        <time>2022-05-15T08:49:12.000Z</time>
      </trkpt>
      <trkpt lat="41.4651688747107982635498046875" lon="2.18972400762140750885009765625">
        <ele>42.200000762939453125</ele>
        <time>2022-05-15T08:49:13.000Z</time>
      </trkpt>
      <trkpt lat="41.4650149829685688018798828125" lon="2.1897138655185699462890625">
        <ele>42.200000762939453125</ele>
        <time>2022-05-15T08:49:15.000Z</time>
      </trkpt>
      <trkpt lat="41.46493979729712009429931640625" lon="2.18972518108785152435302734375">
        <ele>42.200000762939453125</ele>
        <time>2022-05-15T08:49:16.000Z</time>
      </trkpt>
      <trkpt lat="41.4645717479288578033447265625" lon="2.18979994766414165496826171875">
        <ele>42.59999847412109375</ele>
        <time>2022-05-15T08:49:21.000Z</time>
      </trkpt>
      <trkpt lat="41.46442699246108531951904296875" lon="2.18980950303375720977783203125">
        <ele>43</ele>
        <time>2022-05-15T08:49:23.000Z</time>
      </trkpt>
      <trkpt lat="41.4643544889986515045166015625" lon="2.1898042224347591400146484375">
        <ele>43.200000762939453125</ele>
        <time>2022-05-15T08:49:24.000Z</time>
      </trkpt>
      <trkpt lat="41.46413966082036495208740234375" lon="2.189787290990352630615234375">
        <ele>43.59999847412109375</ele>
        <time>2022-05-15T08:49:27.000Z</time>
      </trkpt>
      <trkpt lat="41.463871859014034271240234375" lon="2.18978620134294033050537109375">
        <ele>44.200000762939453125</ele>
        <time>2022-05-15T08:49:31.000Z</time>
      </trkpt>
      <trkpt lat="41.4636185579001903533935546875" lon="2.18984034843742847442626953125">
        <ele>45.200000762939453125</ele>
        <time>2022-05-15T08:49:35.000Z</time>
      </trkpt>
      <trkpt lat="41.463556699454784393310546875" lon="2.18985610641539096832275390625">
        <ele>45.200000762939453125</ele>
        <time>2022-05-15T08:49:36.000Z</time>
      </trkpt>
      <trkpt lat="41.4634945057332515716552734375" lon="2.18987270258367061614990234375">
        <ele>45.59999847412109375</ele>
        <time>2022-05-15T08:49:37.000Z</time>
      </trkpt>
      <trkpt lat="41.46343273110687732696533203125" lon="2.18989080749452114105224609375">
        <ele>46</ele>
        <time>2022-05-15T08:49:38.000Z</time>
      </trkpt>
      <trkpt lat="41.46324765868484973907470703125" lon="2.18993104062974452972412109375">
        <ele>46.799999237060546875</ele>
        <time>2022-05-15T08:49:41.000Z</time>
      </trkpt>
      <trkpt lat="41.46305806003510951995849609375" lon="2.18992785550653934478759765625">
        <ele>47.200000762939453125</ele>
        <time>2022-05-15T08:49:44.000Z</time>
      </trkpt>
      <trkpt lat="41.4626370370388031005859375" lon="2.1898568607866764068603515625">
        <ele>48.200000762939453125</ele>
        <time>2022-05-15T08:49:50.000Z</time>
      </trkpt>
      <trkpt lat="41.46256118081510066986083984375" lon="2.18985510058701038360595703125">
        <ele>48.40000152587890625</ele>
        <time>2022-05-15T08:49:51.000Z</time>
      </trkpt>
      <trkpt lat="41.4623321034014225006103515625" lon="2.1898954175412654876708984375">
        <ele>48.40000152587890625</ele>
        <time>2022-05-15T08:49:54.000Z</time>
      </trkpt>
      <trkpt lat="41.461798846721649169921875" lon="2.1900208108127117156982421875">
        <ele>48.200000762939453125</ele>
        <time>2022-05-15T08:50:01.000Z</time>
      </trkpt>
      <trkpt lat="41.46165157668292522430419921875" lon="2.1900751255452632904052734375">
        <ele>47.799999237060546875</ele>
        <time>2022-05-15T08:50:03.000Z</time>
      </trkpt>
      <trkpt lat="41.46158133633434772491455078125" lon="2.19011913053691387176513671875">
        <ele>47.799999237060546875</ele>
        <time>2022-05-15T08:50:04.000Z</time>
      </trkpt>
      <trkpt lat="41.461514197289943695068359375" lon="2.19017696566879749298095703125">
        <ele>47.799999237060546875</ele>
        <time>2022-05-15T08:50:05.000Z</time>
      </trkpt>
      <trkpt lat="41.46139760501682758331298828125" lon="2.19033555127680301666259765625">
        <ele>47.40000152587890625</ele>
        <time>2022-05-15T08:50:07.000Z</time>
      </trkpt>
      <trkpt lat="41.4613175578415393829345703125" lon="2.19053369946777820587158203125">
        <ele>47.200000762939453125</ele>
        <time>2022-05-15T08:50:09.000Z</time>
      </trkpt>
      <trkpt lat="41.46128897555172443389892578125" lon="2.1906380541622638702392578125">
        <ele>47</ele>
        <time>2022-05-15T08:50:10.000Z</time>
      </trkpt>
      <trkpt lat="41.461231224238872528076171875" lon="2.190841734409332275390625">
        <ele>47</ele>
        <time>2022-05-15T08:50:12.000Z</time>
      </trkpt>
      <trkpt lat="41.46114715375006198883056640625" lon="2.1910162456333637237548828125">
        <ele>46.59999847412109375</ele>
        <time>2022-05-15T08:50:14.000Z</time>
      </trkpt>
      <trkpt lat="41.46109409630298614501953125" lon="2.19109176658093929290771484375">
        <ele>46.200000762939453125</ele>
        <time>2022-05-15T08:50:15.000Z</time>
      </trkpt>
      <trkpt lat="41.46097733639180660247802734375" lon="2.1912402100861072540283203125">
        <ele>46</ele>
        <time>2022-05-15T08:50:17.000Z</time>
      </trkpt>
      <trkpt lat="41.46079276688396930694580078125" lon="2.1914765797555446624755859375">
        <ele>45.40000152587890625</ele>
        <time>2022-05-15T08:50:20.000Z</time>
      </trkpt>
      <trkpt lat="41.4607314951717853546142578125" lon="2.1915587224066257476806640625">
        <ele>45.200000762939453125</ele>
        <time>2022-05-15T08:50:21.000Z</time>
      </trkpt>
      <trkpt lat="41.46049370057880878448486328125" lon="2.19187798909842967987060546875">
        <ele>44.799999237060546875</ele>
        <time>2022-05-15T08:50:25.000Z</time>
      </trkpt>
      <trkpt lat="41.46032857708632946014404296875" lon="2.1920881234109401702880859375">
        <ele>44.40000152587890625</ele>
        <time>2022-05-15T08:50:28.000Z</time>
      </trkpt>
      <trkpt lat="41.4602765254676342010498046875" lon="2.1921535022556781768798828125">
        <ele>44.200000762939453125</ele>
        <time>2022-05-15T08:50:29.000Z</time>
      </trkpt>
      <trkpt lat="41.46022480912506580352783203125" lon="2.1922172047197818756103515625">
        <ele>44.200000762939453125</ele>
        <time>2022-05-15T08:50:30.000Z</time>
      </trkpt>
      <trkpt lat="41.46017267368733882904052734375" lon="2.1922802366316318511962890625">
        <ele>44</ele>
        <time>2022-05-15T08:50:31.000Z</time>
      </trkpt>
      <trkpt lat="41.4599119126796722412109375" lon="2.1925811469554901123046875">
        <ele>43</ele>
        <time>2022-05-15T08:50:36.000Z</time>
      </trkpt>
      <trkpt lat="41.4596663229167461395263671875" lon="2.19294332899153232574462890625">
        <ele>42.200000762939453125</ele>
        <time>2022-05-15T08:50:41.000Z</time>
      </trkpt>
      <trkpt lat="41.459383182227611541748046875" lon="2.1935539506375789642333984375">
        <ele>41.799999237060546875</ele>
        <time>2022-05-15T08:50:48.000Z</time>
      </trkpt>
      <trkpt lat="41.45909610204398632049560546875" lon="2.194126434624195098876953125">
        <ele>41.799999237060546875</ele>
        <time>2022-05-15T08:50:55.000Z</time>
      </trkpt>
      <trkpt lat="41.45891823805868625640869140625" lon="2.1945329569280147552490234375">
        <ele>42</ele>
        <time>2022-05-15T08:51:01.000Z</time>
      </trkpt>
      <trkpt lat="41.45868656225502490997314453125" lon="2.195140980184078216552734375">
        <ele>43.200000762939453125</ele>
        <time>2022-05-15T08:51:09.000Z</time>
      </trkpt>
      <trkpt lat="41.45862537436187267303466796875" lon="2.1952846460044384002685546875">
        <ele>43.200000762939453125</ele>
        <time>2022-05-15T08:51:11.000Z</time>
      </trkpt>
      <trkpt lat="41.45853853784501552581787109375" lon="2.19540777616202831268310546875">
        <ele>43.200000762939453125</ele>
        <time>2022-05-15T08:51:13.000Z</time>
      </trkpt>
      <trkpt lat="41.45848891697824001312255859375" lon="2.195461504161357879638671875">
        <ele>43.200000762939453125</ele>
        <time>2022-05-15T08:51:14.000Z</time>
      </trkpt>
      <trkpt lat="41.458376683294773101806640625" lon="2.1955428086221218109130859375">
        <ele>43.200000762939453125</ele>
        <time>2022-05-15T08:51:16.000Z</time>
      </trkpt>
      <trkpt lat="41.45831356756389141082763671875" lon="2.19556736759841442108154296875">
        <ele>43</ele>
        <time>2022-05-15T08:51:17.000Z</time>
      </trkpt>
      <trkpt lat="41.45824885927140712738037109375" lon="2.19556233845651149749755859375">
        <ele>43</ele>
        <time>2022-05-15T08:51:18.000Z</time>
      </trkpt>
      <trkpt lat="41.45818549208343029022216796875" lon="2.195526547729969024658203125">
        <ele>42.799999237060546875</ele>
        <time>2022-05-15T08:51:19.000Z</time>
      </trkpt>
      <trkpt lat="41.45804978907108306884765625" lon="2.1954207681119441986083984375">
        <ele>42.40000152587890625</ele>
        <time>2022-05-15T08:51:21.000Z</time>
      </trkpt>
      <trkpt lat="41.45789690315723419189453125" lon="2.1953067742288112640380859375">
        <ele>42</ele>
        <time>2022-05-15T08:51:23.000Z</time>
      </trkpt>
      <trkpt lat="41.4578169398009777069091796875" lon="2.1952437423169612884521484375">
        <ele>42</ele>
        <time>2022-05-15T08:51:24.000Z</time>
      </trkpt>
      <trkpt lat="41.45765072666108608245849609375" lon="2.19511491246521472930908203125">
        <ele>41.799999237060546875</ele>
        <time>2022-05-15T08:51:26.000Z</time>
      </trkpt>
      <trkpt lat="41.45741050131618976593017578125" lon="2.19493268989026546478271484375">
        <ele>41.799999237060546875</ele>
        <time>2022-05-15T08:51:29.000Z</time>
      </trkpt>
      <trkpt lat="41.45689920522272586822509765625" lon="2.1945564262568950653076171875">
        <ele>37.40000152587890625</ele>
        <time>2022-05-15T08:51:36.000Z</time>
      </trkpt>
      <trkpt lat="41.45669125020503997802734375" lon="2.1944370679557323455810546875">
        <ele>36.59999847412109375</ele>
        <time>2022-05-15T08:51:39.000Z</time>
      </trkpt>
      <trkpt lat="41.4566193334758281707763671875" lon="2.194422148168087005615234375">
        <ele>36.59999847412109375</ele>
        <time>2022-05-15T08:51:40.000Z</time>
      </trkpt>
      <trkpt lat="41.45654833875596523284912109375" lon="2.19442583620548248291015625">
        <ele>36.59999847412109375</ele>
        <time>2022-05-15T08:51:41.000Z</time>
      </trkpt>
      <trkpt lat="41.45642663352191448211669921875" lon="2.19448878429830074310302734375">
        <ele>36.59999847412109375</ele>
        <time>2022-05-15T08:51:43.000Z</time>
      </trkpt>
      <trkpt lat="41.45634792745113372802734375" lon="2.19458634965121746063232421875">
        <ele>36.59999847412109375</ele>
        <time>2022-05-15T08:51:45.000Z</time>
      </trkpt>
      <trkpt lat="41.45631968043744564056396484375" lon="2.19463731162250041961669921875">
        <ele>36.40000152587890625</ele>
        <time>2022-05-15T08:51:46.000Z</time>
      </trkpt>
      <trkpt lat="41.45629554055631160736083984375" lon="2.19468525610864162445068359375">
        <ele>36.40000152587890625</ele>
        <time>2022-05-15T08:51:47.000Z</time>
      </trkpt>
      <trkpt lat="41.45612739957869052886962890625" lon="2.195035703480243682861328125">
        <ele>36</ele>
        <time>2022-05-15T08:51:54.000Z</time>
      </trkpt>
      <trkpt lat="41.45588197745382785797119140625" lon="2.1954563073813915252685546875">
        <ele>35.799999237060546875</ele>
        <time>2022-05-15T08:52:01.000Z</time>
      </trkpt>
      <trkpt lat="41.4555783011019229888916015625" lon="2.19578311778604984283447265625">
        <ele>35.799999237060546875</ele>
        <time>2022-05-15T08:52:07.000Z</time>
      </trkpt>
      <trkpt lat="41.45527127198874950408935546875" lon="2.196032144129276275634765625">
        <ele>35.59999847412109375</ele>
        <time>2022-05-15T08:52:13.000Z</time>
      </trkpt>
      <trkpt lat="41.45519130863249301910400390625" lon="2.196100540459156036376953125">
        <ele>35.40000152587890625</ele>
        <time>2022-05-15T08:52:15.000Z</time>
      </trkpt>
      <trkpt lat="41.45513665862381458282470703125" lon="2.19615519046783447265625">
        <ele>35.40000152587890625</ele>
        <time>2022-05-15T08:52:17.000Z</time>
      </trkpt>
      <trkpt lat="41.45500120706856250762939453125" lon="2.196330539882183074951171875">
        <ele>35</ele>
        <time>2022-05-15T08:52:24.000Z</time>
      </trkpt>
      <trkpt lat="41.4549459703266620635986328125" lon="2.1964158676564693450927734375">
        <ele>34.59999847412109375</ele>
        <time>2022-05-15T08:52:26.000Z</time>
      </trkpt>
      <trkpt lat="41.4548886381089687347412109375" lon="2.19652156345546245574951171875">
        <ele>34.40000152587890625</ele>
        <time>2022-05-15T08:52:28.000Z</time>
      </trkpt>
      <trkpt lat="41.45479836501181125640869140625" lon="2.19671837054193019866943359375">
        <ele>34.200000762939453125</ele>
        <time>2022-05-15T08:52:31.000Z</time>
      </trkpt>
      <trkpt lat="41.45474254153668880462646484375" lon="2.19686488620936870574951171875">
        <ele>34</ele>
        <time>2022-05-15T08:52:33.000Z</time>
      </trkpt>
      <trkpt lat="41.4545620791614055633544921875" lon="2.19726621173322200775146484375">
        <ele>34</ele>
        <time>2022-05-15T08:52:39.000Z</time>
      </trkpt>
      <trkpt lat="41.45452293567359447479248046875" lon="2.19732739962637424468994140625">
        <ele>34</ele>
        <time>2022-05-15T08:52:40.000Z</time>
      </trkpt>
      <trkpt lat="41.4542301557958126068115234375" lon="2.19766519032418727874755859375">
        <ele>34.200000762939453125</ele>
        <time>2022-05-15T08:52:46.000Z</time>
      </trkpt>
      <trkpt lat="41.4539491944015026092529296875" lon="2.197914384305477142333984375">
        <ele>34.200000762939453125</ele>
        <time>2022-05-15T08:52:51.000Z</time>
      </trkpt>
      <trkpt lat="41.45380259491503238677978515625" lon="2.1980788372457027435302734375">
        <ele>34.200000762939453125</ele>
        <time>2022-05-15T08:52:54.000Z</time>
      </trkpt>
      <trkpt lat="41.45375750027596950531005859375" lon="2.19813994131982326507568359375">
        <ele>34.200000762939453125</ele>
        <time>2022-05-15T08:52:55.000Z</time>
      </trkpt>
      <trkpt lat="41.45371257327497005462646484375" lon="2.1981981955468654632568359375">
        <ele>34.200000762939453125</ele>
        <time>2022-05-15T08:52:56.000Z</time>
      </trkpt>
      <trkpt lat="41.45356857217848300933837890625" lon="2.19836574979126453399658203125">
        <ele>34.200000762939453125</ele>
        <time>2022-05-15T08:52:59.000Z</time>
      </trkpt>
      <trkpt lat="41.45343840122222900390625" lon="2.19859222881495952606201171875">
        <ele>34</ele>
        <time>2022-05-15T08:53:02.000Z</time>
      </trkpt>
      <trkpt lat="41.45338752306997776031494140625" lon="2.19866238534450531005859375">
        <ele>34</ele>
        <time>2022-05-15T08:53:03.000Z</time>
      </trkpt>
      <trkpt lat="41.45296121947467327117919921875" lon="2.19919203780591487884521484375">
        <ele>33.40000152587890625</ele>
        <time>2022-05-15T08:53:11.000Z</time>
      </trkpt>
      <trkpt lat="41.4529111795127391815185546875" lon="2.19925842247903347015380859375">
        <ele>33.40000152587890625</ele>
        <time>2022-05-15T08:53:12.000Z</time>
      </trkpt>
      <trkpt lat="41.452811770141124725341796875" lon="2.199392616748809814453125">
        <ele>33.40000152587890625</ele>
        <time>2022-05-15T08:53:14.000Z</time>
      </trkpt>
      <trkpt lat="41.45276248455047607421875" lon="2.1994625218212604522705078125">
        <ele>33.200000762939453125</ele>
        <time>2022-05-15T08:53:15.000Z</time>
      </trkpt>
      <trkpt lat="41.45256106741726398468017578125" lon="2.19974172301590442657470703125">
        <ele>33.200000762939453125</ele>
        <time>2022-05-15T08:53:19.000Z</time>
      </trkpt>
      <trkpt lat="41.45244925282895565032958984375" lon="2.19986611045897006988525390625">
        <ele>33.200000762939453125</ele>
        <time>2022-05-15T08:53:21.000Z</time>
      </trkpt>
      <trkpt lat="41.4523465745151042938232421875" lon="2.2000060044229030609130859375">
        <ele>33</ele>
        <time>2022-05-15T08:53:23.000Z</time>
      </trkpt>
      <trkpt lat="41.45224624313414096832275390625" lon="2.2001421265304088592529296875">
        <ele>32.799999237060546875</ele>
        <time>2022-05-15T08:53:25.000Z</time>
      </trkpt>
      <trkpt lat="41.45195673219859600067138671875" lon="2.20041059888899326324462890625">
        <ele>32.59999847412109375</ele>
        <time>2022-05-15T08:53:30.000Z</time>
      </trkpt>
      <trkpt lat="41.45184290595352649688720703125" lon="2.200522162020206451416015625">
        <ele>32.799999237060546875</ele>
        <time>2022-05-15T08:53:32.000Z</time>
      </trkpt>
      <trkpt lat="41.45179621875286102294921875" lon="2.20058930106461048126220703125">
        <ele>32.59999847412109375</ele>
        <time>2022-05-15T08:53:33.000Z</time>
      </trkpt>
      <trkpt lat="41.45176227204501628875732421875" lon="2.20067027024924755096435546875">
        <ele>32.59999847412109375</ele>
        <time>2022-05-15T08:53:34.000Z</time>
      </trkpt>
      <trkpt lat="41.4517162553966045379638671875" lon="2.20082550309598445892333984375">
        <ele>32.799999237060546875</ele>
        <time>2022-05-15T08:53:36.000Z</time>
      </trkpt>
      <trkpt lat="41.45165540277957916259765625" lon="2.20094771124422550201416015625">
        <ele>32.799999237060546875</ele>
        <time>2022-05-15T08:53:38.000Z</time>
      </trkpt>
      <trkpt lat="41.45148902200162410736083984375" lon="2.20105047337710857391357421875">
        <ele>33.200000762939453125</ele>
        <time>2022-05-15T08:53:41.000Z</time>
      </trkpt>
      <trkpt lat="41.451363377273082733154296875" lon="2.2011405788362026214599609375">
        <ele>33.200000762939453125</ele>
        <time>2022-05-15T08:53:43.000Z</time>
      </trkpt>
      <trkpt lat="41.45130042918026447296142578125" lon="2.20118961296975612640380859375">
        <ele>33.40000152587890625</ele>
        <time>2022-05-15T08:53:44.000Z</time>
      </trkpt>
      <trkpt lat="41.45123898983001708984375" lon="2.2012418322265148162841796875">
        <ele>33.40000152587890625</ele>
        <time>2022-05-15T08:53:45.000Z</time>
      </trkpt>
      <trkpt lat="41.4510108344256877899169921875" lon="2.20149991102516651153564453125">
        <ele>33.200000762939453125</ele>
        <time>2022-05-15T08:53:50.000Z</time>
      </trkpt>
      <trkpt lat="41.45092810504138469696044921875" lon="2.20158331096172332763671875">
        <ele>33</ele>
        <time>2022-05-15T08:53:54.000Z</time>
      </trkpt>
      <trkpt lat="41.450913436710834503173828125" lon="2.20159127376973628997802734375">
        <ele>32.799999237060546875</ele>
        <time>2022-05-15T08:53:55.000Z</time>
      </trkpt>
      <trkpt lat="41.4508353173732757568359375" lon="2.20164961181581020355224609375">
        <ele>31.3999996185302734375</ele>
        <time>2022-05-15T08:54:00.000Z</time>
      </trkpt>
      <trkpt lat="41.45078192465007305145263671875" lon="2.20170124433934688568115234375">
        <ele>31</ele>
        <time>2022-05-15T08:54:02.000Z</time>
      </trkpt>
      <trkpt lat="41.4506846107542514801025390625" lon="2.2017923556268215179443359375">
        <ele>30.799999237060546875</ele>
        <time>2022-05-15T08:54:05.000Z</time>
      </trkpt>
      <trkpt lat="41.4505692757666110992431640625" lon="2.201878018677234649658203125">
        <ele>30.6000003814697265625</ele>
        <time>2022-05-15T08:54:08.000Z</time>
      </trkpt>
      <trkpt lat="41.450516469776630401611328125" lon="2.20196728594601154327392578125">
        <ele>30.6000003814697265625</ele>
        <time>2022-05-15T08:54:10.000Z</time>
      </trkpt>
      <trkpt lat="41.45049375481903553009033203125" lon="2.202156968414783477783203125">
        <ele>30.799999237060546875</ele>
        <time>2022-05-15T08:54:13.000Z</time>
      </trkpt>
      <trkpt lat="41.45047933794558048248291015625" lon="2.202220000326633453369140625">
        <ele>30.799999237060546875</ele>
        <time>2022-05-15T08:54:14.000Z</time>
      </trkpt>
      <trkpt lat="41.45045779645442962646484375" lon="2.2022746503353118896484375">
        <ele>30.799999237060546875</ele>
        <time>2022-05-15T08:54:15.000Z</time>
      </trkpt>
      <trkpt lat="41.45037087611854076385498046875" lon="2.2023832798004150390625">
        <ele>30.799999237060546875</ele>
        <time>2022-05-15T08:54:18.000Z</time>
      </trkpt>
      <trkpt lat="41.45033516921103000640869140625" lon="2.20241471193730831146240234375">
        <ele>30.799999237060546875</ele>
        <time>2022-05-15T08:54:19.000Z</time>
      </trkpt>
      <trkpt lat="41.45020575262606143951416015625" lon="2.20251537859439849853515625">
        <ele>30.799999237060546875</ele>
        <time>2022-05-15T08:54:22.000Z</time>
      </trkpt>
      <trkpt lat="41.45016350783407688140869140625" lon="2.202554605901241302490234375">
        <ele>30.799999237060546875</ele>
        <time>2022-05-15T08:54:23.000Z</time>
      </trkpt>
      <trkpt lat="41.449894197285175323486328125" lon="2.20280237495899200439453125">
        <ele>31.200000762939453125</ele>
        <time>2022-05-15T08:54:30.000Z</time>
      </trkpt>
      <trkpt lat="41.4498628489673137664794921875" lon="2.20283045433461666107177734375">
        <ele>31.6000003814697265625</ele>
        <time>2022-05-15T08:54:31.000Z</time>
      </trkpt>
      <trkpt lat="41.4497424848377704620361328125" lon="2.20292986370623111724853515625">
        <ele>32.200000762939453125</ele>
        <time>2022-05-15T08:54:36.000Z</time>
      </trkpt>
      <trkpt lat="41.44970811903476715087890625" lon="2.20294863916933536529541015625">
        <ele>32.59999847412109375</ele>
        <time>2022-05-15T08:54:38.000Z</time>
      </trkpt>
      <trkpt lat="41.44963544793426990509033203125" lon="2.2029413469135761260986328125">
        <ele>33</ele>
        <time>2022-05-15T08:54:41.000Z</time>
      </trkpt>
      <trkpt lat="41.44951441325247287750244140625" lon="2.2027767263352870941162109375">
        <ele>33.40000152587890625</ele>
        <time>2022-05-15T08:54:46.000Z</time>
      </trkpt>
      <trkpt lat="41.44939027726650238037109375" lon="2.20244019292294979095458984375">
        <ele>34</ele>
        <time>2022-05-15T08:54:52.000Z</time>
      </trkpt>
      <trkpt lat="41.4493703283369541168212890625" lon="2.20237833447754383087158203125">
        <ele>34.200000762939453125</ele>
        <time>2022-05-15T08:54:53.000Z</time>
      </trkpt>
      <trkpt lat="41.4493294246494770050048828125" lon="2.20224916934967041015625">
        <ele>34.40000152587890625</ele>
        <time>2022-05-15T08:54:55.000Z</time>
      </trkpt>
      <trkpt lat="41.4493069611489772796630859375" lon="2.20218286849558353424072265625">
        <ele>34.40000152587890625</ele>
        <time>2022-05-15T08:54:56.000Z</time>
      </trkpt>
      <trkpt lat="41.4492367208003997802734375" lon="2.20197893679141998291015625">
        <ele>34.40000152587890625</ele>
        <time>2022-05-15T08:54:59.000Z</time>
      </trkpt>
      <trkpt lat="41.44921350292861461639404296875" lon="2.2019107080996036529541015625">
        <ele>34.59999847412109375</ele>
        <time>2022-05-15T08:55:00.000Z</time>
      </trkpt>
      <trkpt lat="41.4491654746234416961669921875" lon="2.2017735801637172698974609375">
        <ele>34.59999847412109375</ele>
        <time>2022-05-15T08:55:02.000Z</time>
      </trkpt>
      <trkpt lat="41.44896741025149822235107421875" lon="2.20121274702250957489013671875">
        <ele>34.799999237060546875</ele>
        <time>2022-05-15T08:55:10.000Z</time>
      </trkpt>
      <trkpt lat="41.44894578494131565093994140625" lon="2.2011539898812770843505859375">
        <ele>35</ele>
        <time>2022-05-15T08:55:11.000Z</time>
      </trkpt>
      <trkpt lat="41.44890840165317058563232421875" lon="2.20104209147393703460693359375">
        <ele>34.799999237060546875</ele>
        <time>2022-05-15T08:55:13.000Z</time>
      </trkpt>
      <trkpt lat="41.44887168891727924346923828125" lon="2.20087177120149135589599609375">
        <ele>34.799999237060546875</ele>
        <time>2022-05-15T08:55:16.000Z</time>
      </trkpt>
      <trkpt lat="41.44885660149157047271728515625" lon="2.2008089907467365264892578125">
        <ele>34.59999847412109375</ele>
        <time>2022-05-15T08:55:17.000Z</time>
      </trkpt>
      <trkpt lat="41.44880429841578006744384765625" lon="2.2006135247647762298583984375">
        <ele>34.799999237060546875</ele>
        <time>2022-05-15T08:55:20.000Z</time>
      </trkpt>
      <trkpt lat="41.44873556680977344512939453125" lon="2.200418896973133087158203125">
        <ele>34.59999847412109375</ele>
        <time>2022-05-15T08:55:23.000Z</time>
      </trkpt>
      <trkpt lat="41.4486924000084400177001953125" lon="2.2002836130559444427490234375">
        <ele>34.59999847412109375</ele>
        <time>2022-05-15T08:55:25.000Z</time>
      </trkpt>
      <trkpt lat="41.44855032674968242645263671875" lon="2.1998688764870166778564453125">
        <ele>34.799999237060546875</ele>
        <time>2022-05-15T08:55:31.000Z</time>
      </trkpt>
      <trkpt lat="41.4485257677733898162841796875" lon="2.1997989714145660400390625">
        <ele>35</ele>
        <time>2022-05-15T08:55:32.000Z</time>
      </trkpt>
      <trkpt lat="41.4484758116304874420166015625" lon="2.19965974800288677215576171875">
        <ele>35.200000762939453125</ele>
        <time>2022-05-15T08:55:34.000Z</time>
      </trkpt>
      <trkpt lat="41.4482525177299976348876953125" lon="2.19900579191744327545166015625">
        <ele>36</ele>
        <time>2022-05-15T08:55:43.000Z</time>
      </trkpt>
      <trkpt lat="41.44815218634903430938720703125" lon="2.19871125183999538421630859375">
        <ele>36.40000152587890625</ele>
        <time>2022-05-15T08:55:47.000Z</time>
      </trkpt>
      <trkpt lat="41.44799175672233104705810546875" lon="2.19820431433618068695068359375">
        <ele>36.59999847412109375</ele>
        <time>2022-05-15T08:55:54.000Z</time>
      </trkpt>
      <trkpt lat="41.4478473365306854248046875" lon="2.19777247868478298187255859375">
        <ele>37</ele>
        <time>2022-05-15T08:56:00.000Z</time>
      </trkpt>
      <trkpt lat="41.4477952010929584503173828125" lon="2.197630405426025390625">
        <ele>37.200000762939453125</ele>
        <time>2022-05-15T08:56:02.000Z</time>
      </trkpt>
      <trkpt lat="41.44771926105022430419921875" lon="2.19741557724773883819580078125">
        <ele>37.40000152587890625</ele>
        <time>2022-05-15T08:56:05.000Z</time>
      </trkpt>
      <trkpt lat="41.4476195164024829864501953125" lon="2.19712992198765277862548828125">
        <ele>37.799999237060546875</ele>
        <time>2022-05-15T08:56:09.000Z</time>
      </trkpt>
      <trkpt lat="41.447566710412502288818359375" lon="2.1969834901392459869384765625">
        <ele>38</ele>
        <time>2022-05-15T08:56:11.000Z</time>
      </trkpt>
      <trkpt lat="41.44732774235308170318603515625" lon="2.19629340805113315582275390625">
        <ele>38.40000152587890625</ele>
        <time>2022-05-15T08:56:20.000Z</time>
      </trkpt>
      <trkpt lat="41.4472731761634349822998046875" lon="2.1961382590234279632568359375">
        <ele>38.40000152587890625</ele>
        <time>2022-05-15T08:56:22.000Z</time>
      </trkpt>
      <trkpt lat="41.4470187015831470489501953125" lon="2.1954217739403247833251953125">
        <ele>38.40000152587890625</ele>
        <time>2022-05-15T08:56:31.000Z</time>
      </trkpt>
      <trkpt lat="41.44698861055076122283935546875" lon="2.1953389607369899749755859375">
        <ele>38.40000152587890625</ele>
        <time>2022-05-15T08:56:32.000Z</time>
      </trkpt>
      <trkpt lat="41.44680068828165531158447265625" lon="2.19479463994503021240234375">
        <ele>38</ele>
        <time>2022-05-15T08:56:39.000Z</time>
      </trkpt>
      <trkpt lat="41.4466247521340847015380859375" lon="2.19427403993904590606689453125">
        <ele>38</ele>
        <time>2022-05-15T08:56:47.000Z</time>
      </trkpt>
      <trkpt lat="41.4465115964412689208984375" lon="2.193899117410182952880859375">
        <ele>38</ele>
        <time>2022-05-15T08:56:53.000Z</time>
      </trkpt>
      <trkpt lat="41.44642132334411144256591796875" lon="2.19361773692071437835693359375">
        <ele>38</ele>
        <time>2022-05-15T08:56:57.000Z</time>
      </trkpt>
      <trkpt lat="41.44639735110104084014892578125" lon="2.19354749657213687896728515625">
        <ele>38</ele>
        <time>2022-05-15T08:56:58.000Z</time>
      </trkpt>
      <trkpt lat="41.4463028870522975921630859375" lon="2.19327374361455440521240234375">
        <ele>38.40000152587890625</ele>
        <time>2022-05-15T08:57:02.000Z</time>
      </trkpt>
      <trkpt lat="41.4462663419544696807861328125" lon="2.1931449137628078460693359375">
        <ele>38.40000152587890625</ele>
        <time>2022-05-15T08:57:04.000Z</time>
      </trkpt>
      <trkpt lat="41.44616081379354000091552734375" lon="2.19278558157384395599365234375">
        <ele>38.799999237060546875</ele>
        <time>2022-05-15T08:57:09.000Z</time>
      </trkpt>
      <trkpt lat="41.44613449461758136749267578125" lon="2.19270913861691951751708984375">
        <ele>38.799999237060546875</ele>
        <time>2022-05-15T08:57:10.000Z</time>
      </trkpt>
      <trkpt lat="41.44597473554313182830810546875" lon="2.19226506538689136505126953125">
        <ele>39</ele>
        <time>2022-05-15T08:57:16.000Z</time>
      </trkpt>
      <trkpt lat="41.4459166489541530609130859375" lon="2.1921253390610218048095703125">
        <ele>39.40000152587890625</ele>
        <time>2022-05-15T08:57:18.000Z</time>
      </trkpt>
      <trkpt lat="41.4458911679685115814208984375" lon="2.19205283559858798980712890625">
        <ele>39.59999847412109375</ele>
        <time>2022-05-15T08:57:19.000Z</time>
      </trkpt>
      <trkpt lat="41.445732079446315765380859375" lon="2.19167112372815608978271484375">
        <ele>40.200000762939453125</ele>
        <time>2022-05-15T08:57:25.000Z</time>
      </trkpt>
      <trkpt lat="41.44563359208405017852783203125" lon="2.19138999469578266143798828125">
        <ele>40.59999847412109375</ele>
        <time>2022-05-15T08:57:30.000Z</time>
      </trkpt>
      <trkpt lat="41.44557952880859375" lon="2.19124096445739269256591796875">
        <ele>40.799999237060546875</ele>
        <time>2022-05-15T08:57:33.000Z</time>
      </trkpt>
      <trkpt lat="41.44549579359591007232666015625" lon="2.19099570997059345245361328125">
        <ele>41.799999237060546875</ele>
        <time>2022-05-15T08:57:40.000Z</time>
      </trkpt>
      <trkpt lat="41.44548363983631134033203125" lon="2.19094927422702312469482421875">
        <ele>42</ele>
        <time>2022-05-15T08:57:44.000Z</time>
      </trkpt>
      <trkpt lat="41.445483975112438201904296875" lon="2.19095145352184772491455078125">
        <ele>41.799999237060546875</ele>
        <time>2022-05-15T08:57:45.000Z</time>
      </trkpt>
      <trkpt lat="41.44548363983631134033203125" lon="2.19095312990248203277587890625">
        <ele>41.799999237060546875</ele>
        <time>2022-05-15T08:57:46.000Z</time>
      </trkpt>
      <trkpt lat="41.4454829692840576171875" lon="2.19095681793987751007080078125">
        <ele>42</ele>
        <time>2022-05-15T08:57:49.000Z</time>
      </trkpt>
      <trkpt lat="41.4454829692840576171875" lon="2.19095698557794094085693359375">
        <ele>41.799999237060546875</ele>
        <time>2022-05-15T08:57:50.000Z</time>
      </trkpt>
      <trkpt lat="41.4454829692840576171875" lon="2.19095706939697265625">
        <ele>42</ele>
        <time>2022-05-15T08:57:51.000Z</time>
      </trkpt>
      <trkpt lat="41.4454829692840576171875" lon="2.19095706939697265625">
        <ele>42</ele>
        <time>2022-05-15T08:57:52.000Z</time>
      </trkpt>
      <trkpt lat="41.44548288546502590179443359375" lon="2.19095773994922637939453125">
        <ele>42</ele>
        <time>2022-05-15T08:57:56.000Z</time>
      </trkpt>
      <trkpt lat="41.44548288546502590179443359375" lon="2.19095782376825809478759765625">
        <ele>42</ele>
        <time>2022-05-15T08:57:57.000Z</time>
      </trkpt>
      <trkpt lat="41.4454829692840576171875" lon="2.190958745777606964111328125">
        <ele>41.799999237060546875</ele>
        <time>2022-05-15T08:58:04.000Z</time>
      </trkpt>
      <trkpt lat="41.44548305310308933258056640625" lon="2.19095882959663867950439453125">
        <ele>41.799999237060546875</ele>
        <time>2022-05-15T08:58:05.000Z</time>
      </trkpt>
      <trkpt lat="41.44546645693480968475341796875" lon="2.1908817999064922332763671875">
        <ele>41.799999237060546875</ele>
        <time>2022-05-15T08:58:10.000Z</time>
      </trkpt>
      <trkpt lat="41.4454355277121067047119140625" lon="2.1907921135425567626953125">
        <ele>41.59999847412109375</ele>
        <time>2022-05-15T08:58:12.000Z</time>
      </trkpt>
      <trkpt lat="41.44538079388439655303955078125" lon="2.19069496728479862213134765625">
        <ele>41.799999237060546875</ele>
        <time>2022-05-15T08:58:14.000Z</time>
      </trkpt>
      <trkpt lat="41.44529697485268115997314453125" lon="2.1906125731766223907470703125">
        <ele>41.799999237060546875</ele>
        <time>2022-05-15T08:58:16.000Z</time>
      </trkpt>
      <trkpt lat="41.445186920464038848876953125" lon="2.19056873582303524017333984375">
        <ele>42</ele>
        <time>2022-05-15T08:58:18.000Z</time>
      </trkpt>
      <trkpt lat="41.444875784218311309814453125" lon="2.19057644717395305633544921875">
        <ele>42.59999847412109375</ele>
        <time>2022-05-15T08:58:23.000Z</time>
      </trkpt>
      <trkpt lat="41.44461586140096187591552734375" lon="2.190592288970947265625">
        <ele>42.799999237060546875</ele>
        <time>2022-05-15T08:58:27.000Z</time>
      </trkpt>
      <trkpt lat="41.4445436932146549224853515625" lon="2.190596647560596466064453125">
        <ele>42.59999847412109375</ele>
        <time>2022-05-15T08:58:28.000Z</time>
      </trkpt>
      <trkpt lat="41.44409635104238986968994140625" lon="2.1906269900500774383544921875">
        <ele>42.59999847412109375</ele>
        <time>2022-05-15T08:58:34.000Z</time>
      </trkpt>
      <trkpt lat="41.443645991384983062744140625" lon="2.190641574561595916748046875">
        <ele>42.59999847412109375</ele>
        <time>2022-05-15T08:58:40.000Z</time>
      </trkpt>
      <trkpt lat="41.443293280899524688720703125" lon="2.19066537916660308837890625">
        <ele>42.40000152587890625</ele>
        <time>2022-05-15T08:58:45.000Z</time>
      </trkpt>
      <trkpt lat="41.44307903945446014404296875" lon="2.19067602418363094329833984375">
        <ele>42.40000152587890625</ele>
        <time>2022-05-15T08:58:48.000Z</time>
      </trkpt>
      <trkpt lat="41.443004272878170013427734375" lon="2.19067652709782123565673828125">
        <ele>42.200000762939453125</ele>
        <time>2022-05-15T08:58:49.000Z</time>
      </trkpt>
      <trkpt lat="41.442627422511577606201171875" lon="2.1907155029475688934326171875">
        <ele>42</ele>
        <time>2022-05-15T08:58:54.000Z</time>
      </trkpt>
      <trkpt lat="41.44256531260907649993896484375" lon="2.19072304666042327880859375">
        <ele>41.799999237060546875</ele>
        <time>2022-05-15T08:58:55.000Z</time>
      </trkpt>
      <trkpt lat="41.44245215691626071929931640625" lon="2.1907285787165164947509765625">
        <ele>41</ele>
        <time>2022-05-15T08:58:58.000Z</time>
      </trkpt>
      <trkpt lat="41.44242969341576099395751953125" lon="2.19072581268846988677978515625">
        <ele>41</ele>
        <time>2022-05-15T08:58:59.000Z</time>
      </trkpt>
      <trkpt lat="41.4424019493162631988525390625" lon="2.190723717212677001953125">
        <ele>40.40000152587890625</ele>
        <time>2022-05-15T08:59:03.000Z</time>
      </trkpt>
      <trkpt lat="41.4423944056034088134765625" lon="2.1907178498804569244384765625">
        <ele>38.59999847412109375</ele>
        <time>2022-05-15T08:59:16.000Z</time>
      </trkpt>
      <trkpt lat="41.4423917233943939208984375" lon="2.19071206636726856231689453125">
        <ele>38.40000152587890625</ele>
        <time>2022-05-15T08:59:29.000Z</time>
      </trkpt>
      <trkpt lat="41.44232399761676788330078125" lon="2.19071525149047374725341796875">
        <ele>38.59999847412109375</ele>
        <time>2022-05-15T08:59:35.000Z</time>
      </trkpt>
      <trkpt lat="41.44220002926886081695556640625" lon="2.19072095118463039398193359375">
        <ele>38.799999237060546875</ele>
        <time>2022-05-15T08:59:38.000Z</time>
      </trkpt>
      <trkpt lat="41.44215258769690990447998046875" lon="2.19073168002068996429443359375">
        <ele>38.59999847412109375</ele>
        <time>2022-05-15T08:59:39.000Z</time>
      </trkpt>
      <trkpt lat="41.442099027335643768310546875" lon="2.19073922373354434967041015625">
        <ele>38.59999847412109375</ele>
        <time>2022-05-15T08:59:40.000Z</time>
      </trkpt>
      <trkpt lat="41.44174003042280673980712890625" lon="2.19074852764606475830078125">
        <ele>39.200000762939453125</ele>
        <time>2022-05-15T08:59:47.000Z</time>
      </trkpt>
      <trkpt lat="41.4417223446071147918701171875" lon="2.19072480686008930206298828125">
        <ele>39.40000152587890625</ele>
        <time>2022-05-15T08:59:48.000Z</time>
      </trkpt>
      <trkpt lat="41.44171371124684810638427734375" lon="2.1906928718090057373046875">
        <ele>39.40000152587890625</ele>
        <time>2022-05-15T08:59:49.000Z</time>
      </trkpt>
      <trkpt lat="41.4417025633156299591064453125" lon="2.19061634503304958343505859375">
        <ele>39.40000152587890625</ele>
        <time>2022-05-15T08:59:51.000Z</time>
      </trkpt>
      <trkpt lat="41.4416945166885852813720703125" lon="2.19053219072520732879638671875">
        <ele>39.40000152587890625</ele>
        <time>2022-05-15T08:59:53.000Z</time>
      </trkpt>
      <trkpt lat="41.44169627688825130462646484375" lon="2.19043747521936893463134765625">
        <ele>39.200000762939453125</ele>
        <time>2022-05-15T08:59:55.000Z</time>
      </trkpt>
      <trkpt lat="41.44169074483215808868408203125" lon="2.19039103947579860687255859375">
        <ele>39</ele>
        <time>2022-05-15T08:59:56.000Z</time>
      </trkpt>
      <trkpt lat="41.441684626042842864990234375" lon="2.1903004311025142669677734375">
        <ele>39</ele>
        <time>2022-05-15T08:59:58.000Z</time>
      </trkpt>
      <trkpt lat="41.44168621860444545745849609375" lon="2.19025122933089733123779296875">
        <ele>39</ele>
        <time>2022-05-15T08:59:59.000Z</time>
      </trkpt>
      <trkpt lat="41.4416096918284893035888671875" lon="2.18999214470386505126953125">
        <ele>39</ele>
        <time>2022-05-15T09:00:03.000Z</time>
      </trkpt>
      <trkpt lat="41.44157490693032741546630859375" lon="2.1898058988153934478759765625">
        <ele>39.200000762939453125</ele>
        <time>2022-05-15T09:00:06.000Z</time>
      </trkpt>
      <trkpt lat="41.44154288806021213531494140625" lon="2.18962426297366619110107421875">
        <ele>40</ele>
        <time>2022-05-15T09:00:09.000Z</time>
      </trkpt>
      <trkpt lat="41.44151531159877777099609375" lon="2.1893787570297718048095703125">
        <ele>40.799999237060546875</ele>
        <time>2022-05-15T09:00:13.000Z</time>
      </trkpt>
      <trkpt lat="41.4414812810719013214111328125" lon="2.18934464268386363983154296875">
        <ele>40.799999237060546875</ele>
        <time>2022-05-15T09:00:14.000Z</time>
      </trkpt>
      <trkpt lat="41.44144113175570964813232421875" lon="2.1893274597823619842529296875">
        <ele>41.200000762939453125</ele>
        <time>2022-05-15T09:00:15.000Z</time>
      </trkpt>
      <trkpt lat="41.44135035574436187744140625" lon="2.18932905234396457672119140625">
        <ele>41.40000152587890625</ele>
        <time>2022-05-15T09:00:17.000Z</time>
      </trkpt>
      <trkpt lat="41.441302411258220672607421875" lon="2.18933743424713611602783203125">
        <ele>41.59999847412109375</ele>
        <time>2022-05-15T09:00:18.000Z</time>
      </trkpt>
      <trkpt lat="41.4410994015634059906005859375" lon="2.189359478652477264404296875">
        <ele>42</ele>
        <time>2022-05-15T09:00:22.000Z</time>
      </trkpt>
      <trkpt lat="41.44087183289229869842529296875" lon="2.1893733926117420196533203125">
        <ele>42.200000762939453125</ele>
        <time>2022-05-15T09:00:27.000Z</time>
      </trkpt>
      <trkpt lat="41.4407312683761119842529296875" lon="2.1893640048801898956298828125">
        <ele>42</ele>
        <time>2022-05-15T09:00:31.000Z</time>
      </trkpt>
      <trkpt lat="41.44068625755608081817626953125" lon="2.18936844728887081146240234375">
        <ele>42</ele>
        <time>2022-05-15T09:00:32.000Z</time>
      </trkpt>
      <trkpt lat="41.44055047072470188140869140625" lon="2.18936157412827014923095703125">
        <ele>41.799999237060546875</ele>
        <time>2022-05-15T09:00:35.000Z</time>
      </trkpt>
      <trkpt lat="41.44046028144657611846923828125" lon="2.1893458999693393707275390625">
        <ele>41.40000152587890625</ele>
        <time>2022-05-15T09:00:37.000Z</time>
      </trkpt>
      <trkpt lat="41.44032767973840236663818359375" lon="2.1893544495105743408203125">
        <ele>41.200000762939453125</ele>
        <time>2022-05-15T09:00:40.000Z</time>
      </trkpt>
      <trkpt lat="41.4402833394706249237060546875" lon="2.18936475925147533416748046875">
        <ele>41.200000762939453125</ele>
        <time>2022-05-15T09:00:41.000Z</time>
      </trkpt>
      <trkpt lat="41.44019566476345062255859375" lon="2.18937967903912067413330078125">
        <ele>41.200000762939453125</ele>
        <time>2022-05-15T09:00:43.000Z</time>
      </trkpt>
      <trkpt lat="41.44007957540452480316162109375" lon="2.18936610035598278045654296875">
        <ele>41.200000762939453125</ele>
        <time>2022-05-15T09:00:46.000Z</time>
      </trkpt>
      <trkpt lat="41.44005359150469303131103515625" lon="2.189334668219089508056640625">
        <ele>41.200000762939453125</ele>
        <time>2022-05-15T09:00:47.000Z</time>
      </trkpt>
      <trkpt lat="41.4400392584502696990966796875" lon="2.1892852149903774261474609375">
        <ele>41.200000762939453125</ele>
        <time>2022-05-15T09:00:48.000Z</time>
      </trkpt>
      <trkpt lat="41.4400399290025234222412109375" lon="2.189163677394390106201171875">
        <ele>41.200000762939453125</ele>
        <time>2022-05-15T09:00:50.000Z</time>
      </trkpt>
      <trkpt lat="41.44005342386662960052490234375" lon="2.188773415982723236083984375">
        <ele>41</ele>
        <time>2022-05-15T09:00:57.000Z</time>
      </trkpt>
      <trkpt lat="41.4400543458759784698486328125" lon="2.1887316741049289703369140625">
        <ele>41.200000762939453125</ele>
        <time>2022-05-15T09:00:58.000Z</time>
      </trkpt>
      <trkpt lat="41.440056860446929931640625" lon="2.18869303353130817413330078125">
        <ele>41.200000762939453125</ele>
        <time>2022-05-15T09:00:59.000Z</time>
      </trkpt>
      <trkpt lat="41.44004403613507747650146484375" lon="2.18863419257104396820068359375">
        <ele>41.40000152587890625</ele>
        <time>2022-05-15T09:01:01.000Z</time>
      </trkpt>
      <trkpt lat="41.44002324901521205902099609375" lon="2.18862027861177921295166015625">
        <ele>41.59999847412109375</ele>
        <time>2022-05-15T09:01:02.000Z</time>
      </trkpt>
      <trkpt lat="41.43990472890436649322509765625" lon="2.1886076219379901885986328125">
        <ele>42</ele>
        <time>2022-05-15T09:01:08.000Z</time>
      </trkpt>
      <trkpt lat="41.4398870430886745452880859375" lon="2.18859915621578693389892578125">
        <ele>42</ele>
        <time>2022-05-15T09:01:10.000Z</time>
      </trkpt>
      <trkpt lat="41.43990221433341503143310546875" lon="2.18857518397271633148193359375">
        <ele>42</ele>
        <time>2022-05-15T09:01:13.000Z</time>
      </trkpt>
      <trkpt lat="41.439910344779491424560546875" lon="2.18856981955468654632568359375">
        <ele>42</ele>
        <time>2022-05-15T09:01:14.000Z</time>
      </trkpt>
      <trkpt lat="41.43991026096045970916748046875" lon="2.18856194056570529937744140625">
        <ele>42.200000762939453125</ele>
        <time>2022-05-15T09:01:15.000Z</time>
      </trkpt>
      <trkpt lat="41.4399079978466033935546875" lon="2.18855473212897777557373046875">
        <ele>42</ele>
        <time>2022-05-15T09:01:16.000Z</time>
      </trkpt>
      <trkpt lat="41.4399071596562862396240234375" lon="2.188535034656524658203125">
        <ele>42.200000762939453125</ele>
        <time>2022-05-15T09:01:17.000Z</time>
      </trkpt>
      <trkpt lat="41.4399048127233982086181640625" lon="2.18852070160210132598876953125">
        <ele>42.200000762939453125</ele>
        <time>2022-05-15T09:01:18.000Z</time>
      </trkpt>
      <trkpt lat="41.43990523181855678558349609375" lon="2.18851156532764434814453125">
        <ele>42.200000762939453125</ele>
        <time>2022-05-15T09:01:19.000Z</time>
      </trkpt>
      <trkpt lat="41.43990422599017620086669921875" lon="2.1884993277490139007568359375">
        <ele>42</ele>
        <time>2022-05-15T09:01:20.000Z</time>
      </trkpt>
      <trkpt lat="41.43991143442690372467041015625" lon="2.18845565803349018096923828125">
        <ele>42</ele>
        <time>2022-05-15T09:01:25.000Z</time>
      </trkpt>
      <trkpt lat="41.43991671502590179443359375" lon="2.18845414929091930389404296875">
        <ele>42</ele>
        <time>2022-05-15T09:01:26.000Z</time>
      </trkpt>
      <trkpt lat="41.439894922077655792236328125" lon="2.1884255670011043548583984375">
        <ele>41.799999237060546875</ele>
        <time>2022-05-15T09:01:28.000Z</time>
      </trkpt>
    </trkseg>
  </trk>
</gpx>
